<?xml version="1.0" encoding="UTF-8"?>
<gpx version="1.1" creator="https://www.youtrack.es" xsi:schemaLocation="http://www.topografix.com/GPX/1/1 http://www.topografix.com/GPX/1/1/gpx.xsd http://www.garmin.com/xmlschemas/GpxExtensions/v3 http://www.garmin.com/xmlschemas/GpxExtensionsv3.xsd http://www.garmin.com/xmlschemas/TrackPointExtension/v1 http://www.garmin.com/xmlschemas/TrackPointExtensionv1.xsd" xmlns:gpxtpx="http://www.garmin.com/xmlschemas/TrackPointExtension/v1" xmlns:gpxx="http://www.garmin.com/xmlschemas/GpxExtensions/v3" xmlns:xsi="http://www.w3.org/2001/XMLSchema-instance">
  <metadata>
    <link href="https://www.youtrack.es">
      <text>YouTrack.es</text>
    </link>
    <time>2026-05-08T20:30:14Z</time>
  </metadata>
  <trk>
    <src>https://www.youtrack.es</src>
    <link href="https://www.youtrack.es/ruta/8039-casares-gaucin-casares">
      <text>YouTrack.es</text>
    </link>
    <trkseg>
      <trkpt lat="36.4228970" lon="-5.1573800">
        <ele>37.7</ele>
        <time>2019-08-28T07:21:17Z</time>
      </trkpt>
      <trkpt lat="36.4229030" lon="-5.1573730">
        <ele>37.6</ele>
        <time>2019-08-28T07:21:18Z</time>
      </trkpt>
      <trkpt lat="36.4229090" lon="-5.1573650">
        <ele>37.5</ele>
        <time>2019-08-28T07:21:19Z</time>
      </trkpt>
      <trkpt lat="36.4229140" lon="-5.1573580">
        <ele>37.4</ele>
        <time>2019-08-28T07:21:20Z</time>
      </trkpt>
      <trkpt lat="36.4229200" lon="-5.1573510">
        <ele>37.4</ele>
        <time>2019-08-28T07:21:21Z</time>
      </trkpt>
      <trkpt lat="36.4229260" lon="-5.1573430">
        <ele>37.3</ele>
        <time>2019-08-28T07:21:22Z</time>
      </trkpt>
      <trkpt lat="36.4229320" lon="-5.1573360">
        <ele>37.2</ele>
        <time>2019-08-28T07:21:23Z</time>
      </trkpt>
      <trkpt lat="36.4229370" lon="-5.1573280">
        <ele>37.2</ele>
        <time>2019-08-28T07:21:24Z</time>
      </trkpt>
      <trkpt lat="36.4229430" lon="-5.1573210">
        <ele>37.1</ele>
        <time>2019-08-28T07:21:25Z</time>
      </trkpt>
      <trkpt lat="36.4229490" lon="-5.1573140">
        <ele>37.0</ele>
        <time>2019-08-28T07:21:26Z</time>
      </trkpt>
      <trkpt lat="36.4229550" lon="-5.1573060">
        <ele>37.0</ele>
        <time>2019-08-28T07:21:27Z</time>
      </trkpt>
      <trkpt lat="36.4229600" lon="-5.1572990">
        <ele>36.9</ele>
        <time>2019-08-28T07:21:28Z</time>
      </trkpt>
      <trkpt lat="36.4229660" lon="-5.1572920">
        <ele>36.8</ele>
        <time>2019-08-28T07:21:29Z</time>
      </trkpt>
      <trkpt lat="36.4229720" lon="-5.1572840">
        <ele>36.8</ele>
        <time>2019-08-28T07:21:30Z</time>
      </trkpt>
      <trkpt lat="36.4229780" lon="-5.1572770">
        <ele>36.7</ele>
        <time>2019-08-28T07:21:31Z</time>
      </trkpt>
      <trkpt lat="36.4229830" lon="-5.1572690">
        <ele>36.6</ele>
        <time>2019-08-28T07:21:32Z</time>
      </trkpt>
      <trkpt lat="36.4229890" lon="-5.1572620">
        <ele>36.6</ele>
        <time>2019-08-28T07:21:33Z</time>
      </trkpt>
      <trkpt lat="36.4230260" lon="-5.1572120">
        <ele>36.1</ele>
        <time>2019-08-28T07:21:34Z</time>
      </trkpt>
      <trkpt lat="36.4230670" lon="-5.1571710">
        <ele>35.5</ele>
        <time>2019-08-28T07:21:35Z</time>
      </trkpt>
      <trkpt lat="36.4231090" lon="-5.1571520">
        <ele>35.1</ele>
        <time>2019-08-28T07:21:36Z</time>
      </trkpt>
      <trkpt lat="36.4231550" lon="-5.1571400">
        <ele>34.8</ele>
        <time>2019-08-28T07:21:37Z</time>
      </trkpt>
      <trkpt lat="36.4232010" lon="-5.1571360">
        <ele>34.4</ele>
        <time>2019-08-28T07:21:38Z</time>
      </trkpt>
      <trkpt lat="36.4232570" lon="-5.1571090">
        <ele>32.9</ele>
        <time>2019-08-28T07:21:39Z</time>
      </trkpt>
      <trkpt lat="36.4233140" lon="-5.1570810">
        <ele>32.9</ele>
        <time>2019-08-28T07:21:40Z</time>
      </trkpt>
      <trkpt lat="36.4233710" lon="-5.1570530">
        <ele>32.3</ele>
        <time>2019-08-28T07:21:41Z</time>
      </trkpt>
      <trkpt lat="36.4234170" lon="-5.1570470">
        <ele>31.9</ele>
        <time>2019-08-28T07:21:42Z</time>
      </trkpt>
      <trkpt lat="36.4234610" lon="-5.1570460">
        <ele>31.4</ele>
        <time>2019-08-28T07:21:43Z</time>
      </trkpt>
      <trkpt lat="36.4235040" lon="-5.1570490">
        <ele>30.9</ele>
        <time>2019-08-28T07:21:44Z</time>
      </trkpt>
      <trkpt lat="36.4235460" lon="-5.1570560">
        <ele>29.9</ele>
        <time>2019-08-28T07:21:45Z</time>
      </trkpt>
      <trkpt lat="36.4235870" lon="-5.1570650">
        <ele>30.0</ele>
        <time>2019-08-28T07:21:46Z</time>
      </trkpt>
      <trkpt lat="36.4236280" lon="-5.1570750">
        <ele>30.1</ele>
        <time>2019-08-28T07:21:47Z</time>
      </trkpt>
      <trkpt lat="36.4236690" lon="-5.1570850">
        <ele>30.1</ele>
        <time>2019-08-28T07:21:48Z</time>
      </trkpt>
      <trkpt lat="36.4237110" lon="-5.1570940">
        <ele>30.1</ele>
        <time>2019-08-28T07:21:49Z</time>
      </trkpt>
      <trkpt lat="36.4237550" lon="-5.1571000">
        <ele>30.2</ele>
        <time>2019-08-28T07:21:50Z</time>
      </trkpt>
      <trkpt lat="36.4237990" lon="-5.1571070">
        <ele>30.2</ele>
        <time>2019-08-28T07:21:51Z</time>
      </trkpt>
      <trkpt lat="36.4238420" lon="-5.1571160">
        <ele>30.2</ele>
        <time>2019-08-28T07:21:52Z</time>
      </trkpt>
      <trkpt lat="36.4238860" lon="-5.1571250">
        <ele>30.2</ele>
        <time>2019-08-28T07:21:53Z</time>
      </trkpt>
      <trkpt lat="36.4239340" lon="-5.1571320">
        <ele>30.2</ele>
        <time>2019-08-28T07:21:54Z</time>
      </trkpt>
      <trkpt lat="36.4239840" lon="-5.1571360">
        <ele>30.2</ele>
        <time>2019-08-28T07:21:55Z</time>
      </trkpt>
      <trkpt lat="36.4240370" lon="-5.1571390">
        <ele>30.2</ele>
        <time>2019-08-28T07:21:56Z</time>
      </trkpt>
      <trkpt lat="36.4240900" lon="-5.1571400">
        <ele>30.2</ele>
        <time>2019-08-28T07:21:57Z</time>
      </trkpt>
      <trkpt lat="36.4241420" lon="-5.1571390">
        <ele>30.2</ele>
        <time>2019-08-28T07:21:58Z</time>
      </trkpt>
      <trkpt lat="36.4241920" lon="-5.1571400">
        <ele>30.2</ele>
        <time>2019-08-28T07:21:59Z</time>
      </trkpt>
      <trkpt lat="36.4241920" lon="-5.1571400">
        <ele>30.2</ele>
        <time>2019-08-28T07:22:00Z</time>
      </trkpt>
      <trkpt lat="36.4242480" lon="-5.1571440">
        <ele>30.2</ele>
        <time>2019-08-28T07:22:01Z</time>
      </trkpt>
      <trkpt lat="36.4243050" lon="-5.1571460">
        <ele>30.2</ele>
        <time>2019-08-28T07:22:02Z</time>
      </trkpt>
      <trkpt lat="36.4243630" lon="-5.1571480">
        <ele>30.3</ele>
        <time>2019-08-28T07:22:03Z</time>
      </trkpt>
      <trkpt lat="36.4244100" lon="-5.1571490">
        <ele>30.3</ele>
        <time>2019-08-28T07:22:04Z</time>
      </trkpt>
      <trkpt lat="36.4244570" lon="-5.1571480">
        <ele>30.3</ele>
        <time>2019-08-28T07:22:05Z</time>
      </trkpt>
      <trkpt lat="36.4245040" lon="-5.1571480">
        <ele>30.3</ele>
        <time>2019-08-28T07:22:06Z</time>
      </trkpt>
      <trkpt lat="36.4245550" lon="-5.1571430">
        <ele>30.3</ele>
        <time>2019-08-28T07:22:07Z</time>
      </trkpt>
      <trkpt lat="36.4246080" lon="-5.1571370">
        <ele>30.4</ele>
        <time>2019-08-28T07:22:08Z</time>
      </trkpt>
      <trkpt lat="36.4246620" lon="-5.1571310">
        <ele>30.3</ele>
        <time>2019-08-28T07:22:09Z</time>
      </trkpt>
      <trkpt lat="36.4247140" lon="-5.1571260">
        <ele>30.3</ele>
        <time>2019-08-28T07:22:10Z</time>
      </trkpt>
      <trkpt lat="36.4247690" lon="-5.1571140">
        <ele>30.3</ele>
        <time>2019-08-28T07:22:11Z</time>
      </trkpt>
      <trkpt lat="36.4248280" lon="-5.1570920">
        <ele>30.2</ele>
        <time>2019-08-28T07:22:12Z</time>
      </trkpt>
      <trkpt lat="36.4248920" lon="-5.1570600">
        <ele>30.2</ele>
        <time>2019-08-28T07:22:13Z</time>
      </trkpt>
      <trkpt lat="36.4249620" lon="-5.1570130">
        <ele>30.1</ele>
        <time>2019-08-28T07:22:14Z</time>
      </trkpt>
      <trkpt lat="36.4250400" lon="-5.1569510">
        <ele>29.9</ele>
        <time>2019-08-28T07:22:15Z</time>
      </trkpt>
      <trkpt lat="36.4251140" lon="-5.1568940">
        <ele>29.8</ele>
        <time>2019-08-28T07:22:16Z</time>
      </trkpt>
      <trkpt lat="36.4251830" lon="-5.1568520">
        <ele>29.6</ele>
        <time>2019-08-28T07:22:17Z</time>
      </trkpt>
      <trkpt lat="36.4252430" lon="-5.1568300">
        <ele>29.4</ele>
        <time>2019-08-28T07:22:18Z</time>
      </trkpt>
      <trkpt lat="36.4253050" lon="-5.1568130">
        <ele>29.1</ele>
        <time>2019-08-28T07:22:19Z</time>
      </trkpt>
      <trkpt lat="36.4253710" lon="-5.1568030">
        <ele>28.9</ele>
        <time>2019-08-28T07:22:20Z</time>
      </trkpt>
      <trkpt lat="36.4254450" lon="-5.1567950">
        <ele>28.5</ele>
        <time>2019-08-28T07:22:21Z</time>
      </trkpt>
      <trkpt lat="36.4255220" lon="-5.1567880">
        <ele>28.0</ele>
        <time>2019-08-28T07:22:22Z</time>
      </trkpt>
      <trkpt lat="36.4255960" lon="-5.1567820">
        <ele>27.6</ele>
        <time>2019-08-28T07:22:23Z</time>
      </trkpt>
      <trkpt lat="36.4256650" lon="-5.1567790">
        <ele>27.1</ele>
        <time>2019-08-28T07:22:24Z</time>
      </trkpt>
      <trkpt lat="36.4257330" lon="-5.1567770">
        <ele>26.7</ele>
        <time>2019-08-28T07:22:25Z</time>
      </trkpt>
      <trkpt lat="36.4258030" lon="-5.1567770">
        <ele>26.3</ele>
        <time>2019-08-28T07:22:26Z</time>
      </trkpt>
      <trkpt lat="36.4258740" lon="-5.1567800">
        <ele>26.0</ele>
        <time>2019-08-28T07:22:27Z</time>
      </trkpt>
      <trkpt lat="36.4259470" lon="-5.1567850">
        <ele>25.8</ele>
        <time>2019-08-28T07:22:28Z</time>
      </trkpt>
      <trkpt lat="36.4260220" lon="-5.1567910">
        <ele>25.7</ele>
        <time>2019-08-28T07:22:29Z</time>
      </trkpt>
      <trkpt lat="36.4260980" lon="-5.1567990">
        <ele>25.6</ele>
        <time>2019-08-28T07:22:30Z</time>
      </trkpt>
      <trkpt lat="36.4261760" lon="-5.1568000">
        <ele>25.3</ele>
        <time>2019-08-28T07:22:31Z</time>
      </trkpt>
      <trkpt lat="36.4262530" lon="-5.1567930">
        <ele>23.5</ele>
        <time>2019-08-28T07:22:32Z</time>
      </trkpt>
      <trkpt lat="36.4263290" lon="-5.1567830">
        <ele>22.8</ele>
        <time>2019-08-28T07:22:33Z</time>
      </trkpt>
      <trkpt lat="36.4264040" lon="-5.1567870">
        <ele>22.1</ele>
        <time>2019-08-28T07:22:34Z</time>
      </trkpt>
      <trkpt lat="36.4264780" lon="-5.1568090">
        <ele>21.6</ele>
        <time>2019-08-28T07:22:35Z</time>
      </trkpt>
      <trkpt lat="36.4265520" lon="-5.1568450">
        <ele>21.6</ele>
        <time>2019-08-28T07:22:36Z</time>
      </trkpt>
      <trkpt lat="36.4266270" lon="-5.1568820">
        <ele>21.1</ele>
        <time>2019-08-28T07:22:37Z</time>
      </trkpt>
      <trkpt lat="36.4267060" lon="-5.1569130">
        <ele>20.7</ele>
        <time>2019-08-28T07:22:38Z</time>
      </trkpt>
      <trkpt lat="36.4267900" lon="-5.1569330">
        <ele>20.2</ele>
        <time>2019-08-28T07:22:39Z</time>
      </trkpt>
      <trkpt lat="36.4268780" lon="-5.1569430">
        <ele>19.8</ele>
        <time>2019-08-28T07:22:40Z</time>
      </trkpt>
      <trkpt lat="36.4269680" lon="-5.1569480">
        <ele>19.3</ele>
        <time>2019-08-28T07:22:41Z</time>
      </trkpt>
      <trkpt lat="36.4270600" lon="-5.1569470">
        <ele>18.6</ele>
        <time>2019-08-28T07:22:42Z</time>
      </trkpt>
      <trkpt lat="36.4271530" lon="-5.1569410">
        <ele>18.0</ele>
        <time>2019-08-28T07:22:43Z</time>
      </trkpt>
      <trkpt lat="36.4272440" lon="-5.1569290">
        <ele>17.4</ele>
        <time>2019-08-28T07:22:44Z</time>
      </trkpt>
      <trkpt lat="36.4273340" lon="-5.1569100">
        <ele>16.8</ele>
        <time>2019-08-28T07:22:45Z</time>
      </trkpt>
      <trkpt lat="36.4274240" lon="-5.1568860">
        <ele>16.1</ele>
        <time>2019-08-28T07:22:46Z</time>
      </trkpt>
      <trkpt lat="36.4275120" lon="-5.1568570">
        <ele>15.5</ele>
        <time>2019-08-28T07:22:47Z</time>
      </trkpt>
      <trkpt lat="36.4275980" lon="-5.1568210">
        <ele>15.0</ele>
        <time>2019-08-28T07:22:48Z</time>
      </trkpt>
      <trkpt lat="36.4276790" lon="-5.1567740">
        <ele>14.6</ele>
        <time>2019-08-28T07:22:49Z</time>
      </trkpt>
      <trkpt lat="36.4277550" lon="-5.1567200">
        <ele>14.1</ele>
        <time>2019-08-28T07:22:50Z</time>
      </trkpt>
      <trkpt lat="36.4278270" lon="-5.1566570">
        <ele>13.6</ele>
        <time>2019-08-28T07:22:51Z</time>
      </trkpt>
      <trkpt lat="36.4278950" lon="-5.1565900">
        <ele>13.2</ele>
        <time>2019-08-28T07:22:52Z</time>
      </trkpt>
      <trkpt lat="36.4279590" lon="-5.1565210">
        <ele>13.0</ele>
        <time>2019-08-28T07:22:53Z</time>
      </trkpt>
      <trkpt lat="36.4280150" lon="-5.1564540">
        <ele>12.7</ele>
        <time>2019-08-28T07:22:54Z</time>
      </trkpt>
      <trkpt lat="36.4280630" lon="-5.1563900">
        <ele>12.5</ele>
        <time>2019-08-28T07:22:55Z</time>
      </trkpt>
      <trkpt lat="36.4281040" lon="-5.1563310">
        <ele>12.3</ele>
        <time>2019-08-28T07:22:56Z</time>
      </trkpt>
      <trkpt lat="36.4281380" lon="-5.1562730">
        <ele>12.1</ele>
        <time>2019-08-28T07:22:57Z</time>
      </trkpt>
      <trkpt lat="36.4281670" lon="-5.1562150">
        <ele>12.0</ele>
        <time>2019-08-28T07:22:58Z</time>
      </trkpt>
      <trkpt lat="36.4281910" lon="-5.1561500">
        <ele>11.8</ele>
        <time>2019-08-28T07:22:59Z</time>
      </trkpt>
      <trkpt lat="36.4282080" lon="-5.1560800">
        <ele>11.8</ele>
        <time>2019-08-28T07:23:00Z</time>
      </trkpt>
      <trkpt lat="36.4282210" lon="-5.1560050">
        <ele>11.7</ele>
        <time>2019-08-28T07:23:01Z</time>
      </trkpt>
      <trkpt lat="36.4282330" lon="-5.1559300">
        <ele>11.7</ele>
        <time>2019-08-28T07:23:02Z</time>
      </trkpt>
      <trkpt lat="36.4282510" lon="-5.1558580">
        <ele>11.6</ele>
        <time>2019-08-28T07:23:03Z</time>
      </trkpt>
      <trkpt lat="36.4282750" lon="-5.1557910">
        <ele>11.6</ele>
        <time>2019-08-28T07:23:04Z</time>
      </trkpt>
      <trkpt lat="36.4283060" lon="-5.1557280">
        <ele>11.6</ele>
        <time>2019-08-28T07:23:05Z</time>
      </trkpt>
      <trkpt lat="36.4283400" lon="-5.1556730">
        <ele>11.6</ele>
        <time>2019-08-28T07:23:06Z</time>
      </trkpt>
      <trkpt lat="36.4283840" lon="-5.1556280">
        <ele>11.8</ele>
        <time>2019-08-28T07:23:07Z</time>
      </trkpt>
      <trkpt lat="36.4284460" lon="-5.1555980">
        <ele>11.8</ele>
        <time>2019-08-28T07:23:08Z</time>
      </trkpt>
      <trkpt lat="36.4285170" lon="-5.1555840">
        <ele>12.0</ele>
        <time>2019-08-28T07:23:09Z</time>
      </trkpt>
      <trkpt lat="36.4285890" lon="-5.1555850">
        <ele>12.0</ele>
        <time>2019-08-28T07:23:10Z</time>
      </trkpt>
      <trkpt lat="36.4286490" lon="-5.1556020">
        <ele>12.2</ele>
        <time>2019-08-28T07:23:11Z</time>
      </trkpt>
      <trkpt lat="36.4287050" lon="-5.1556330">
        <ele>12.2</ele>
        <time>2019-08-28T07:23:12Z</time>
      </trkpt>
      <trkpt lat="36.4287570" lon="-5.1556790">
        <ele>12.3</ele>
        <time>2019-08-28T07:23:13Z</time>
      </trkpt>
      <trkpt lat="36.4288040" lon="-5.1557380">
        <ele>12.3</ele>
        <time>2019-08-28T07:23:14Z</time>
      </trkpt>
      <trkpt lat="36.4288390" lon="-5.1558050">
        <ele>12.3</ele>
        <time>2019-08-28T07:23:15Z</time>
      </trkpt>
      <trkpt lat="36.4288460" lon="-5.1558850">
        <ele>12.2</ele>
        <time>2019-08-28T07:23:16Z</time>
      </trkpt>
      <trkpt lat="36.4288330" lon="-5.1559710">
        <ele>12.2</ele>
        <time>2019-08-28T07:23:17Z</time>
      </trkpt>
      <trkpt lat="36.4288080" lon="-5.1560580">
        <ele>12.2</ele>
        <time>2019-08-28T07:23:18Z</time>
      </trkpt>
      <trkpt lat="36.4287870" lon="-5.1561330">
        <ele>12.2</ele>
        <time>2019-08-28T07:23:19Z</time>
      </trkpt>
      <trkpt lat="36.4287590" lon="-5.1562020">
        <ele>12.2</ele>
        <time>2019-08-28T07:23:20Z</time>
      </trkpt>
      <trkpt lat="36.4287250" lon="-5.1562660">
        <ele>12.2</ele>
        <time>2019-08-28T07:23:21Z</time>
      </trkpt>
      <trkpt lat="36.4286860" lon="-5.1563240">
        <ele>12.2</ele>
        <time>2019-08-28T07:23:22Z</time>
      </trkpt>
      <trkpt lat="36.4286460" lon="-5.1563820">
        <ele>12.2</ele>
        <time>2019-08-28T07:23:23Z</time>
      </trkpt>
      <trkpt lat="36.4286110" lon="-5.1564460">
        <ele>12.4</ele>
        <time>2019-08-28T07:23:24Z</time>
      </trkpt>
      <trkpt lat="36.4285870" lon="-5.1565200">
        <ele>12.6</ele>
        <time>2019-08-28T07:23:25Z</time>
      </trkpt>
      <trkpt lat="36.4285750" lon="-5.1565990">
        <ele>12.8</ele>
        <time>2019-08-28T07:23:26Z</time>
      </trkpt>
      <trkpt lat="36.4285700" lon="-5.1566790">
        <ele>12.9</ele>
        <time>2019-08-28T07:23:27Z</time>
      </trkpt>
      <trkpt lat="36.4285680" lon="-5.1567580">
        <ele>13.0</ele>
        <time>2019-08-28T07:23:28Z</time>
      </trkpt>
      <trkpt lat="36.4285680" lon="-5.1568370">
        <ele>13.1</ele>
        <time>2019-08-28T07:23:29Z</time>
      </trkpt>
      <trkpt lat="36.4285680" lon="-5.1569160">
        <ele>13.2</ele>
        <time>2019-08-28T07:23:30Z</time>
      </trkpt>
      <trkpt lat="36.4285690" lon="-5.1569970">
        <ele>13.3</ele>
        <time>2019-08-28T07:23:31Z</time>
      </trkpt>
      <trkpt lat="36.4285700" lon="-5.1570790">
        <ele>13.7</ele>
        <time>2019-08-28T07:23:32Z</time>
      </trkpt>
      <trkpt lat="36.4285730" lon="-5.1571620">
        <ele>14.0</ele>
        <time>2019-08-28T07:23:33Z</time>
      </trkpt>
      <trkpt lat="36.4285780" lon="-5.1572420">
        <ele>14.3</ele>
        <time>2019-08-28T07:23:34Z</time>
      </trkpt>
      <trkpt lat="36.4285840" lon="-5.1573200">
        <ele>14.6</ele>
        <time>2019-08-28T07:23:35Z</time>
      </trkpt>
      <trkpt lat="36.4285900" lon="-5.1573960">
        <ele>14.9</ele>
        <time>2019-08-28T07:23:36Z</time>
      </trkpt>
      <trkpt lat="36.4285980" lon="-5.1574710">
        <ele>15.2</ele>
        <time>2019-08-28T07:23:37Z</time>
      </trkpt>
      <trkpt lat="36.4286070" lon="-5.1575450">
        <ele>15.5</ele>
        <time>2019-08-28T07:23:38Z</time>
      </trkpt>
      <trkpt lat="36.4286140" lon="-5.1576160">
        <ele>15.8</ele>
        <time>2019-08-28T07:23:39Z</time>
      </trkpt>
      <trkpt lat="36.4286200" lon="-5.1576860">
        <ele>16.1</ele>
        <time>2019-08-28T07:23:40Z</time>
      </trkpt>
      <trkpt lat="36.4286270" lon="-5.1577550">
        <ele>16.4</ele>
        <time>2019-08-28T07:23:41Z</time>
      </trkpt>
      <trkpt lat="36.4286340" lon="-5.1578210">
        <ele>16.7</ele>
        <time>2019-08-28T07:23:42Z</time>
      </trkpt>
      <trkpt lat="36.4286420" lon="-5.1578860">
        <ele>16.9</ele>
        <time>2019-08-28T07:23:43Z</time>
      </trkpt>
      <trkpt lat="36.4286490" lon="-5.1579500">
        <ele>17.2</ele>
        <time>2019-08-28T07:23:44Z</time>
      </trkpt>
      <trkpt lat="36.4286560" lon="-5.1580130">
        <ele>17.4</ele>
        <time>2019-08-28T07:23:45Z</time>
      </trkpt>
      <trkpt lat="36.4286640" lon="-5.1580750">
        <ele>17.7</ele>
        <time>2019-08-28T07:23:46Z</time>
      </trkpt>
      <trkpt lat="36.4286720" lon="-5.1581350">
        <ele>17.9</ele>
        <time>2019-08-28T07:23:47Z</time>
      </trkpt>
      <trkpt lat="36.4286790" lon="-5.1581960">
        <ele>18.0</ele>
        <time>2019-08-28T07:23:48Z</time>
      </trkpt>
      <trkpt lat="36.4286840" lon="-5.1582560">
        <ele>18.1</ele>
        <time>2019-08-28T07:23:49Z</time>
      </trkpt>
      <trkpt lat="36.4286910" lon="-5.1583150">
        <ele>18.3</ele>
        <time>2019-08-28T07:23:50Z</time>
      </trkpt>
      <trkpt lat="36.4286980" lon="-5.1583740">
        <ele>18.6</ele>
        <time>2019-08-28T07:23:51Z</time>
      </trkpt>
      <trkpt lat="36.4287070" lon="-5.1584320">
        <ele>18.7</ele>
        <time>2019-08-28T07:23:52Z</time>
      </trkpt>
      <trkpt lat="36.4287170" lon="-5.1584890">
        <ele>18.8</ele>
        <time>2019-08-28T07:23:53Z</time>
      </trkpt>
      <trkpt lat="36.4287290" lon="-5.1585450">
        <ele>18.8</ele>
        <time>2019-08-28T07:23:54Z</time>
      </trkpt>
      <trkpt lat="36.4287430" lon="-5.1586000">
        <ele>18.9</ele>
        <time>2019-08-28T07:23:55Z</time>
      </trkpt>
      <trkpt lat="36.4287570" lon="-5.1586530">
        <ele>19.0</ele>
        <time>2019-08-28T07:23:56Z</time>
      </trkpt>
      <trkpt lat="36.4287720" lon="-5.1587050">
        <ele>19.1</ele>
        <time>2019-08-28T07:23:57Z</time>
      </trkpt>
      <trkpt lat="36.4287880" lon="-5.1587560">
        <ele>19.2</ele>
        <time>2019-08-28T07:23:58Z</time>
      </trkpt>
      <trkpt lat="36.4288050" lon="-5.1588060">
        <ele>19.3</ele>
        <time>2019-08-28T07:23:59Z</time>
      </trkpt>
      <trkpt lat="36.4288250" lon="-5.1588540">
        <ele>19.4</ele>
        <time>2019-08-28T07:24:00Z</time>
      </trkpt>
      <trkpt lat="36.4288460" lon="-5.1589010">
        <ele>19.4</ele>
        <time>2019-08-28T07:24:01Z</time>
      </trkpt>
      <trkpt lat="36.4288680" lon="-5.1589470">
        <ele>19.5</ele>
        <time>2019-08-28T07:24:02Z</time>
      </trkpt>
      <trkpt lat="36.4288890" lon="-5.1589930">
        <ele>19.6</ele>
        <time>2019-08-28T07:24:03Z</time>
      </trkpt>
      <trkpt lat="36.4289110" lon="-5.1590400">
        <ele>19.7</ele>
        <time>2019-08-28T07:24:04Z</time>
      </trkpt>
      <trkpt lat="36.4289320" lon="-5.1590870">
        <ele>19.7</ele>
        <time>2019-08-28T07:24:05Z</time>
      </trkpt>
      <trkpt lat="36.4289530" lon="-5.1591330">
        <ele>19.8</ele>
        <time>2019-08-28T07:24:06Z</time>
      </trkpt>
      <trkpt lat="36.4289740" lon="-5.1591790">
        <ele>19.9</ele>
        <time>2019-08-28T07:24:07Z</time>
      </trkpt>
      <trkpt lat="36.4289930" lon="-5.1592270">
        <ele>20.0</ele>
        <time>2019-08-28T07:24:08Z</time>
      </trkpt>
      <trkpt lat="36.4290110" lon="-5.1592740">
        <ele>20.0</ele>
        <time>2019-08-28T07:24:09Z</time>
      </trkpt>
      <trkpt lat="36.4290300" lon="-5.1593210">
        <ele>20.1</ele>
        <time>2019-08-28T07:24:10Z</time>
      </trkpt>
      <trkpt lat="36.4290480" lon="-5.1593690">
        <ele>20.1</ele>
        <time>2019-08-28T07:24:11Z</time>
      </trkpt>
      <trkpt lat="36.4290660" lon="-5.1594160">
        <ele>20.2</ele>
        <time>2019-08-28T07:24:12Z</time>
      </trkpt>
      <trkpt lat="36.4290850" lon="-5.1594630">
        <ele>20.2</ele>
        <time>2019-08-28T07:24:13Z</time>
      </trkpt>
      <trkpt lat="36.4291020" lon="-5.1595100">
        <ele>20.3</ele>
        <time>2019-08-28T07:24:14Z</time>
      </trkpt>
      <trkpt lat="36.4291180" lon="-5.1595590">
        <ele>20.4</ele>
        <time>2019-08-28T07:24:15Z</time>
      </trkpt>
      <trkpt lat="36.4291330" lon="-5.1596100">
        <ele>20.4</ele>
        <time>2019-08-28T07:24:16Z</time>
      </trkpt>
      <trkpt lat="36.4291450" lon="-5.1596610">
        <ele>20.5</ele>
        <time>2019-08-28T07:24:17Z</time>
      </trkpt>
      <trkpt lat="36.4291560" lon="-5.1597130">
        <ele>20.5</ele>
        <time>2019-08-28T07:24:18Z</time>
      </trkpt>
      <trkpt lat="36.4291650" lon="-5.1597650">
        <ele>20.6</ele>
        <time>2019-08-28T07:24:19Z</time>
      </trkpt>
      <trkpt lat="36.4291770" lon="-5.1598160">
        <ele>20.7</ele>
        <time>2019-08-28T07:24:20Z</time>
      </trkpt>
      <trkpt lat="36.4291890" lon="-5.1598660">
        <ele>20.7</ele>
        <time>2019-08-28T07:24:21Z</time>
      </trkpt>
      <trkpt lat="36.4292000" lon="-5.1599160">
        <ele>20.9</ele>
        <time>2019-08-28T07:24:22Z</time>
      </trkpt>
      <trkpt lat="36.4292110" lon="-5.1599680">
        <ele>21.1</ele>
        <time>2019-08-28T07:24:23Z</time>
      </trkpt>
      <trkpt lat="36.4292200" lon="-5.1600210">
        <ele>21.2</ele>
        <time>2019-08-28T07:24:24Z</time>
      </trkpt>
      <trkpt lat="36.4292280" lon="-5.1600730">
        <ele>21.4</ele>
        <time>2019-08-28T07:24:25Z</time>
      </trkpt>
      <trkpt lat="36.4292360" lon="-5.1601260">
        <ele>21.5</ele>
        <time>2019-08-28T07:24:26Z</time>
      </trkpt>
      <trkpt lat="36.4292430" lon="-5.1601780">
        <ele>21.7</ele>
        <time>2019-08-28T07:24:27Z</time>
      </trkpt>
      <trkpt lat="36.4292500" lon="-5.1602300">
        <ele>21.9</ele>
        <time>2019-08-28T07:24:28Z</time>
      </trkpt>
      <trkpt lat="36.4292570" lon="-5.1602820">
        <ele>22.1</ele>
        <time>2019-08-28T07:24:29Z</time>
      </trkpt>
      <trkpt lat="36.4292650" lon="-5.1603330">
        <ele>22.2</ele>
        <time>2019-08-28T07:24:30Z</time>
      </trkpt>
      <trkpt lat="36.4292720" lon="-5.1603840">
        <ele>22.3</ele>
        <time>2019-08-28T07:24:31Z</time>
      </trkpt>
      <trkpt lat="36.4292800" lon="-5.1604360">
        <ele>22.5</ele>
        <time>2019-08-28T07:24:32Z</time>
      </trkpt>
      <trkpt lat="36.4292860" lon="-5.1604870">
        <ele>22.6</ele>
        <time>2019-08-28T07:24:33Z</time>
      </trkpt>
      <trkpt lat="36.4292920" lon="-5.1605380">
        <ele>22.8</ele>
        <time>2019-08-28T07:24:34Z</time>
      </trkpt>
      <trkpt lat="36.4292980" lon="-5.1605890">
        <ele>23.1</ele>
        <time>2019-08-28T07:24:35Z</time>
      </trkpt>
      <trkpt lat="36.4293040" lon="-5.1606400">
        <ele>23.2</ele>
        <time>2019-08-28T07:24:36Z</time>
      </trkpt>
      <trkpt lat="36.4293110" lon="-5.1606900">
        <ele>23.4</ele>
        <time>2019-08-28T07:24:37Z</time>
      </trkpt>
      <trkpt lat="36.4293170" lon="-5.1607400">
        <ele>23.6</ele>
        <time>2019-08-28T07:24:38Z</time>
      </trkpt>
      <trkpt lat="36.4293240" lon="-5.1607900">
        <ele>23.7</ele>
        <time>2019-08-28T07:24:39Z</time>
      </trkpt>
      <trkpt lat="36.4293310" lon="-5.1608390">
        <ele>23.9</ele>
        <time>2019-08-28T07:24:40Z</time>
      </trkpt>
      <trkpt lat="36.4293380" lon="-5.1608880">
        <ele>24.1</ele>
        <time>2019-08-28T07:24:41Z</time>
      </trkpt>
      <trkpt lat="36.4293450" lon="-5.1609380">
        <ele>24.2</ele>
        <time>2019-08-28T07:24:42Z</time>
      </trkpt>
      <trkpt lat="36.4293510" lon="-5.1609890">
        <ele>24.4</ele>
        <time>2019-08-28T07:24:43Z</time>
      </trkpt>
      <trkpt lat="36.4293580" lon="-5.1610390">
        <ele>24.6</ele>
        <time>2019-08-28T07:24:44Z</time>
      </trkpt>
      <trkpt lat="36.4293650" lon="-5.1610900">
        <ele>24.8</ele>
        <time>2019-08-28T07:24:45Z</time>
      </trkpt>
      <trkpt lat="36.4293730" lon="-5.1611410">
        <ele>25.0</ele>
        <time>2019-08-28T07:24:46Z</time>
      </trkpt>
      <trkpt lat="36.4293790" lon="-5.1611920">
        <ele>25.3</ele>
        <time>2019-08-28T07:24:47Z</time>
      </trkpt>
      <trkpt lat="36.4293850" lon="-5.1612420">
        <ele>25.5</ele>
        <time>2019-08-28T07:24:48Z</time>
      </trkpt>
      <trkpt lat="36.4293910" lon="-5.1612920">
        <ele>25.7</ele>
        <time>2019-08-28T07:24:49Z</time>
      </trkpt>
      <trkpt lat="36.4293980" lon="-5.1613410">
        <ele>26.0</ele>
        <time>2019-08-28T07:24:50Z</time>
      </trkpt>
      <trkpt lat="36.4294050" lon="-5.1613900">
        <ele>26.3</ele>
        <time>2019-08-28T07:24:51Z</time>
      </trkpt>
      <trkpt lat="36.4294120" lon="-5.1614370">
        <ele>26.4</ele>
        <time>2019-08-28T07:24:52Z</time>
      </trkpt>
      <trkpt lat="36.4294190" lon="-5.1614830">
        <ele>26.6</ele>
        <time>2019-08-28T07:24:53Z</time>
      </trkpt>
      <trkpt lat="36.4294260" lon="-5.1615290">
        <ele>26.8</ele>
        <time>2019-08-28T07:24:54Z</time>
      </trkpt>
      <trkpt lat="36.4294320" lon="-5.1615740">
        <ele>26.9</ele>
        <time>2019-08-28T07:24:55Z</time>
      </trkpt>
      <trkpt lat="36.4294390" lon="-5.1616200">
        <ele>27.1</ele>
        <time>2019-08-28T07:24:56Z</time>
      </trkpt>
      <trkpt lat="36.4294460" lon="-5.1616660">
        <ele>27.4</ele>
        <time>2019-08-28T07:24:57Z</time>
      </trkpt>
      <trkpt lat="36.4294530" lon="-5.1617110">
        <ele>27.7</ele>
        <time>2019-08-28T07:24:58Z</time>
      </trkpt>
      <trkpt lat="36.4294600" lon="-5.1617560">
        <ele>27.9</ele>
        <time>2019-08-28T07:24:59Z</time>
      </trkpt>
      <trkpt lat="36.4294660" lon="-5.1618000">
        <ele>28.1</ele>
        <time>2019-08-28T07:25:00Z</time>
      </trkpt>
      <trkpt lat="36.4294710" lon="-5.1618440">
        <ele>28.3</ele>
        <time>2019-08-28T07:25:01Z</time>
      </trkpt>
      <trkpt lat="36.4294770" lon="-5.1618870">
        <ele>28.5</ele>
        <time>2019-08-28T07:25:02Z</time>
      </trkpt>
      <trkpt lat="36.4294830" lon="-5.1619300">
        <ele>28.7</ele>
        <time>2019-08-28T07:25:03Z</time>
      </trkpt>
      <trkpt lat="36.4294890" lon="-5.1619720">
        <ele>28.9</ele>
        <time>2019-08-28T07:25:04Z</time>
      </trkpt>
      <trkpt lat="36.4294940" lon="-5.1620150">
        <ele>29.2</ele>
        <time>2019-08-28T07:25:05Z</time>
      </trkpt>
      <trkpt lat="36.4294990" lon="-5.1620560">
        <ele>29.4</ele>
        <time>2019-08-28T07:25:06Z</time>
      </trkpt>
      <trkpt lat="36.4295030" lon="-5.1620980">
        <ele>29.6</ele>
        <time>2019-08-28T07:25:07Z</time>
      </trkpt>
      <trkpt lat="36.4295080" lon="-5.1621380">
        <ele>29.9</ele>
        <time>2019-08-28T07:25:08Z</time>
      </trkpt>
      <trkpt lat="36.4295140" lon="-5.1621790">
        <ele>30.2</ele>
        <time>2019-08-28T07:25:09Z</time>
      </trkpt>
      <trkpt lat="36.4295200" lon="-5.1622190">
        <ele>30.5</ele>
        <time>2019-08-28T07:25:10Z</time>
      </trkpt>
      <trkpt lat="36.4295260" lon="-5.1622590">
        <ele>30.7</ele>
        <time>2019-08-28T07:25:11Z</time>
      </trkpt>
      <trkpt lat="36.4295320" lon="-5.1622990">
        <ele>30.9</ele>
        <time>2019-08-28T07:25:12Z</time>
      </trkpt>
      <trkpt lat="36.4295370" lon="-5.1623400">
        <ele>31.1</ele>
        <time>2019-08-28T07:25:13Z</time>
      </trkpt>
      <trkpt lat="36.4295420" lon="-5.1623790">
        <ele>31.3</ele>
        <time>2019-08-28T07:25:14Z</time>
      </trkpt>
      <trkpt lat="36.4295480" lon="-5.1624190">
        <ele>31.6</ele>
        <time>2019-08-28T07:25:15Z</time>
      </trkpt>
      <trkpt lat="36.4295540" lon="-5.1624580">
        <ele>31.8</ele>
        <time>2019-08-28T07:25:16Z</time>
      </trkpt>
      <trkpt lat="36.4295600" lon="-5.1624980">
        <ele>32.1</ele>
        <time>2019-08-28T07:25:17Z</time>
      </trkpt>
      <trkpt lat="36.4295650" lon="-5.1625370">
        <ele>32.3</ele>
        <time>2019-08-28T07:25:18Z</time>
      </trkpt>
      <trkpt lat="36.4295700" lon="-5.1625770">
        <ele>32.6</ele>
        <time>2019-08-28T07:25:19Z</time>
      </trkpt>
      <trkpt lat="36.4295770" lon="-5.1626150">
        <ele>32.9</ele>
        <time>2019-08-28T07:25:20Z</time>
      </trkpt>
      <trkpt lat="36.4295830" lon="-5.1626530">
        <ele>33.1</ele>
        <time>2019-08-28T07:25:21Z</time>
      </trkpt>
      <trkpt lat="36.4295900" lon="-5.1626920">
        <ele>33.3</ele>
        <time>2019-08-28T07:25:22Z</time>
      </trkpt>
      <trkpt lat="36.4295980" lon="-5.1627320">
        <ele>33.5</ele>
        <time>2019-08-28T07:25:23Z</time>
      </trkpt>
      <trkpt lat="36.4296060" lon="-5.1627730">
        <ele>33.7</ele>
        <time>2019-08-28T07:25:24Z</time>
      </trkpt>
      <trkpt lat="36.4296150" lon="-5.1628140">
        <ele>34.0</ele>
        <time>2019-08-28T07:25:25Z</time>
      </trkpt>
      <trkpt lat="36.4296230" lon="-5.1628540">
        <ele>34.2</ele>
        <time>2019-08-28T07:25:26Z</time>
      </trkpt>
      <trkpt lat="36.4296320" lon="-5.1628930">
        <ele>34.5</ele>
        <time>2019-08-28T07:25:27Z</time>
      </trkpt>
      <trkpt lat="36.4296410" lon="-5.1629330">
        <ele>34.8</ele>
        <time>2019-08-28T07:25:28Z</time>
      </trkpt>
      <trkpt lat="36.4296490" lon="-5.1629740">
        <ele>35.1</ele>
        <time>2019-08-28T07:25:29Z</time>
      </trkpt>
      <trkpt lat="36.4296590" lon="-5.1630150">
        <ele>35.3</ele>
        <time>2019-08-28T07:25:30Z</time>
      </trkpt>
      <trkpt lat="36.4296680" lon="-5.1630560">
        <ele>35.5</ele>
        <time>2019-08-28T07:25:31Z</time>
      </trkpt>
      <trkpt lat="36.4296780" lon="-5.1630960">
        <ele>35.8</ele>
        <time>2019-08-28T07:25:32Z</time>
      </trkpt>
      <trkpt lat="36.4296880" lon="-5.1631360">
        <ele>36.0</ele>
        <time>2019-08-28T07:25:33Z</time>
      </trkpt>
      <trkpt lat="36.4296990" lon="-5.1631750">
        <ele>36.2</ele>
        <time>2019-08-28T07:25:34Z</time>
      </trkpt>
      <trkpt lat="36.4297090" lon="-5.1632130">
        <ele>36.4</ele>
        <time>2019-08-28T07:25:35Z</time>
      </trkpt>
      <trkpt lat="36.4297200" lon="-5.1632520">
        <ele>36.7</ele>
        <time>2019-08-28T07:25:36Z</time>
      </trkpt>
      <trkpt lat="36.4297300" lon="-5.1632920">
        <ele>37.0</ele>
        <time>2019-08-28T07:25:37Z</time>
      </trkpt>
      <trkpt lat="36.4297400" lon="-5.1633330">
        <ele>37.3</ele>
        <time>2019-08-28T07:25:38Z</time>
      </trkpt>
      <trkpt lat="36.4297510" lon="-5.1633730">
        <ele>37.6</ele>
        <time>2019-08-28T07:25:39Z</time>
      </trkpt>
      <trkpt lat="36.4297620" lon="-5.1634130">
        <ele>37.9</ele>
        <time>2019-08-28T07:25:40Z</time>
      </trkpt>
      <trkpt lat="36.4297720" lon="-5.1634530">
        <ele>38.2</ele>
        <time>2019-08-28T07:25:41Z</time>
      </trkpt>
      <trkpt lat="36.4297820" lon="-5.1634940">
        <ele>38.5</ele>
        <time>2019-08-28T07:25:42Z</time>
      </trkpt>
      <trkpt lat="36.4297910" lon="-5.1635340">
        <ele>38.7</ele>
        <time>2019-08-28T07:25:43Z</time>
      </trkpt>
      <trkpt lat="36.4298030" lon="-5.1635720">
        <ele>38.9</ele>
        <time>2019-08-28T07:25:44Z</time>
      </trkpt>
      <trkpt lat="36.4298160" lon="-5.1636080">
        <ele>39.2</ele>
        <time>2019-08-28T07:25:45Z</time>
      </trkpt>
      <trkpt lat="36.4298290" lon="-5.1636440">
        <ele>39.4</ele>
        <time>2019-08-28T07:25:46Z</time>
      </trkpt>
      <trkpt lat="36.4298420" lon="-5.1636790">
        <ele>39.6</ele>
        <time>2019-08-28T07:25:47Z</time>
      </trkpt>
      <trkpt lat="36.4298540" lon="-5.1637140">
        <ele>39.8</ele>
        <time>2019-08-28T07:25:48Z</time>
      </trkpt>
      <trkpt lat="36.4298660" lon="-5.1637490">
        <ele>40.1</ele>
        <time>2019-08-28T07:25:49Z</time>
      </trkpt>
      <trkpt lat="36.4298780" lon="-5.1637850">
        <ele>40.3</ele>
        <time>2019-08-28T07:25:50Z</time>
      </trkpt>
      <trkpt lat="36.4298910" lon="-5.1638210">
        <ele>40.6</ele>
        <time>2019-08-28T07:25:51Z</time>
      </trkpt>
      <trkpt lat="36.4299050" lon="-5.1638560">
        <ele>40.8</ele>
        <time>2019-08-28T07:25:52Z</time>
      </trkpt>
      <trkpt lat="36.4299190" lon="-5.1638920">
        <ele>41.0</ele>
        <time>2019-08-28T07:25:53Z</time>
      </trkpt>
      <trkpt lat="36.4299340" lon="-5.1639280">
        <ele>41.3</ele>
        <time>2019-08-28T07:25:54Z</time>
      </trkpt>
      <trkpt lat="36.4299490" lon="-5.1639640">
        <ele>41.5</ele>
        <time>2019-08-28T07:25:55Z</time>
      </trkpt>
      <trkpt lat="36.4299650" lon="-5.1640000">
        <ele>41.7</ele>
        <time>2019-08-28T07:25:56Z</time>
      </trkpt>
      <trkpt lat="36.4299800" lon="-5.1640370">
        <ele>41.9</ele>
        <time>2019-08-28T07:25:57Z</time>
      </trkpt>
      <trkpt lat="36.4299950" lon="-5.1640740">
        <ele>42.2</ele>
        <time>2019-08-28T07:25:58Z</time>
      </trkpt>
      <trkpt lat="36.4300100" lon="-5.1641100">
        <ele>42.4</ele>
        <time>2019-08-28T07:25:59Z</time>
      </trkpt>
      <trkpt lat="36.4300240" lon="-5.1641450">
        <ele>42.6</ele>
        <time>2019-08-28T07:26:00Z</time>
      </trkpt>
      <trkpt lat="36.4300380" lon="-5.1641790">
        <ele>42.8</ele>
        <time>2019-08-28T07:26:01Z</time>
      </trkpt>
      <trkpt lat="36.4300520" lon="-5.1642130">
        <ele>43.0</ele>
        <time>2019-08-28T07:26:02Z</time>
      </trkpt>
      <trkpt lat="36.4300670" lon="-5.1642460">
        <ele>43.2</ele>
        <time>2019-08-28T07:26:03Z</time>
      </trkpt>
      <trkpt lat="36.4300820" lon="-5.1642790">
        <ele>43.5</ele>
        <time>2019-08-28T07:26:04Z</time>
      </trkpt>
      <trkpt lat="36.4300980" lon="-5.1643120">
        <ele>43.8</ele>
        <time>2019-08-28T07:26:05Z</time>
      </trkpt>
      <trkpt lat="36.4301150" lon="-5.1643450">
        <ele>44.1</ele>
        <time>2019-08-28T07:26:06Z</time>
      </trkpt>
      <trkpt lat="36.4301320" lon="-5.1643770">
        <ele>44.3</ele>
        <time>2019-08-28T07:26:07Z</time>
      </trkpt>
      <trkpt lat="36.4301490" lon="-5.1644110">
        <ele>44.6</ele>
        <time>2019-08-28T07:26:08Z</time>
      </trkpt>
      <trkpt lat="36.4301670" lon="-5.1644430">
        <ele>44.8</ele>
        <time>2019-08-28T07:26:09Z</time>
      </trkpt>
      <trkpt lat="36.4301840" lon="-5.1644750">
        <ele>45.2</ele>
        <time>2019-08-28T07:26:10Z</time>
      </trkpt>
      <trkpt lat="36.4302010" lon="-5.1645070">
        <ele>45.7</ele>
        <time>2019-08-28T07:26:11Z</time>
      </trkpt>
      <trkpt lat="36.4302180" lon="-5.1645390">
        <ele>46.2</ele>
        <time>2019-08-28T07:26:12Z</time>
      </trkpt>
      <trkpt lat="36.4302340" lon="-5.1645710">
        <ele>46.7</ele>
        <time>2019-08-28T07:26:13Z</time>
      </trkpt>
      <trkpt lat="36.4302500" lon="-5.1646040">
        <ele>47.2</ele>
        <time>2019-08-28T07:26:14Z</time>
      </trkpt>
      <trkpt lat="36.4302660" lon="-5.1646370">
        <ele>47.7</ele>
        <time>2019-08-28T07:26:15Z</time>
      </trkpt>
      <trkpt lat="36.4302820" lon="-5.1646700">
        <ele>48.1</ele>
        <time>2019-08-28T07:26:16Z</time>
      </trkpt>
      <trkpt lat="36.4302980" lon="-5.1647030">
        <ele>48.6</ele>
        <time>2019-08-28T07:26:17Z</time>
      </trkpt>
      <trkpt lat="36.4303120" lon="-5.1647370">
        <ele>49.0</ele>
        <time>2019-08-28T07:26:18Z</time>
      </trkpt>
      <trkpt lat="36.4303250" lon="-5.1647720">
        <ele>49.3</ele>
        <time>2019-08-28T07:26:19Z</time>
      </trkpt>
      <trkpt lat="36.4303380" lon="-5.1648070">
        <ele>49.6</ele>
        <time>2019-08-28T07:26:20Z</time>
      </trkpt>
      <trkpt lat="36.4303510" lon="-5.1648410">
        <ele>49.9</ele>
        <time>2019-08-28T07:26:21Z</time>
      </trkpt>
      <trkpt lat="36.4303640" lon="-5.1648750">
        <ele>50.1</ele>
        <time>2019-08-28T07:26:22Z</time>
      </trkpt>
      <trkpt lat="36.4303760" lon="-5.1649090">
        <ele>50.4</ele>
        <time>2019-08-28T07:26:23Z</time>
      </trkpt>
      <trkpt lat="36.4303880" lon="-5.1649420">
        <ele>50.5</ele>
        <time>2019-08-28T07:26:24Z</time>
      </trkpt>
      <trkpt lat="36.4304000" lon="-5.1649760">
        <ele>50.7</ele>
        <time>2019-08-28T07:26:25Z</time>
      </trkpt>
      <trkpt lat="36.4304110" lon="-5.1650120">
        <ele>50.8</ele>
        <time>2019-08-28T07:26:26Z</time>
      </trkpt>
      <trkpt lat="36.4304250" lon="-5.1650460">
        <ele>51.0</ele>
        <time>2019-08-28T07:26:27Z</time>
      </trkpt>
      <trkpt lat="36.4304380" lon="-5.1650810">
        <ele>51.1</ele>
        <time>2019-08-28T07:26:28Z</time>
      </trkpt>
      <trkpt lat="36.4304480" lon="-5.1651170">
        <ele>51.2</ele>
        <time>2019-08-28T07:26:29Z</time>
      </trkpt>
      <trkpt lat="36.4304550" lon="-5.1651540">
        <ele>51.3</ele>
        <time>2019-08-28T07:26:30Z</time>
      </trkpt>
      <trkpt lat="36.4304610" lon="-5.1651920">
        <ele>51.3</ele>
        <time>2019-08-28T07:26:31Z</time>
      </trkpt>
      <trkpt lat="36.4304670" lon="-5.1652310">
        <ele>51.6</ele>
        <time>2019-08-28T07:26:32Z</time>
      </trkpt>
      <trkpt lat="36.4304720" lon="-5.1652710">
        <ele>51.8</ele>
        <time>2019-08-28T07:26:33Z</time>
      </trkpt>
      <trkpt lat="36.4304780" lon="-5.1653110">
        <ele>52.0</ele>
        <time>2019-08-28T07:26:34Z</time>
      </trkpt>
      <trkpt lat="36.4304860" lon="-5.1653510">
        <ele>52.2</ele>
        <time>2019-08-28T07:26:35Z</time>
      </trkpt>
      <trkpt lat="36.4304950" lon="-5.1653890">
        <ele>52.5</ele>
        <time>2019-08-28T07:26:36Z</time>
      </trkpt>
      <trkpt lat="36.4305040" lon="-5.1654270">
        <ele>52.7</ele>
        <time>2019-08-28T07:26:37Z</time>
      </trkpt>
      <trkpt lat="36.4305120" lon="-5.1654650">
        <ele>52.9</ele>
        <time>2019-08-28T07:26:38Z</time>
      </trkpt>
      <trkpt lat="36.4305180" lon="-5.1655050">
        <ele>53.1</ele>
        <time>2019-08-28T07:26:39Z</time>
      </trkpt>
      <trkpt lat="36.4305240" lon="-5.1655470">
        <ele>53.4</ele>
        <time>2019-08-28T07:26:40Z</time>
      </trkpt>
      <trkpt lat="36.4305320" lon="-5.1655890">
        <ele>53.7</ele>
        <time>2019-08-28T07:26:41Z</time>
      </trkpt>
      <trkpt lat="36.4305410" lon="-5.1656310">
        <ele>53.9</ele>
        <time>2019-08-28T07:26:42Z</time>
      </trkpt>
      <trkpt lat="36.4305490" lon="-5.1656740">
        <ele>54.1</ele>
        <time>2019-08-28T07:26:43Z</time>
      </trkpt>
      <trkpt lat="36.4305560" lon="-5.1657180">
        <ele>54.4</ele>
        <time>2019-08-28T07:26:44Z</time>
      </trkpt>
      <trkpt lat="36.4305640" lon="-5.1657630">
        <ele>54.6</ele>
        <time>2019-08-28T07:26:45Z</time>
      </trkpt>
      <trkpt lat="36.4305730" lon="-5.1658070">
        <ele>54.9</ele>
        <time>2019-08-28T07:26:46Z</time>
      </trkpt>
      <trkpt lat="36.4305800" lon="-5.1658520">
        <ele>55.1</ele>
        <time>2019-08-28T07:26:47Z</time>
      </trkpt>
      <trkpt lat="36.4305880" lon="-5.1658950">
        <ele>55.4</ele>
        <time>2019-08-28T07:26:48Z</time>
      </trkpt>
      <trkpt lat="36.4305960" lon="-5.1659390">
        <ele>55.7</ele>
        <time>2019-08-28T07:26:49Z</time>
      </trkpt>
      <trkpt lat="36.4306040" lon="-5.1659830">
        <ele>55.9</ele>
        <time>2019-08-28T07:26:50Z</time>
      </trkpt>
      <trkpt lat="36.4306130" lon="-5.1660300">
        <ele>56.1</ele>
        <time>2019-08-28T07:26:51Z</time>
      </trkpt>
      <trkpt lat="36.4306210" lon="-5.1660810">
        <ele>56.5</ele>
        <time>2019-08-28T07:26:52Z</time>
      </trkpt>
      <trkpt lat="36.4306290" lon="-5.1661320">
        <ele>56.7</ele>
        <time>2019-08-28T07:26:53Z</time>
      </trkpt>
      <trkpt lat="36.4306370" lon="-5.1661830">
        <ele>56.9</ele>
        <time>2019-08-28T07:26:54Z</time>
      </trkpt>
      <trkpt lat="36.4306450" lon="-5.1662320">
        <ele>57.1</ele>
        <time>2019-08-28T07:26:55Z</time>
      </trkpt>
      <trkpt lat="36.4306550" lon="-5.1662800">
        <ele>57.4</ele>
        <time>2019-08-28T07:26:56Z</time>
      </trkpt>
      <trkpt lat="36.4306660" lon="-5.1663270">
        <ele>57.6</ele>
        <time>2019-08-28T07:26:57Z</time>
      </trkpt>
      <trkpt lat="36.4306760" lon="-5.1663730">
        <ele>57.8</ele>
        <time>2019-08-28T07:26:58Z</time>
      </trkpt>
      <trkpt lat="36.4306840" lon="-5.1664190">
        <ele>58.0</ele>
        <time>2019-08-28T07:26:59Z</time>
      </trkpt>
      <trkpt lat="36.4306940" lon="-5.1664650">
        <ele>58.2</ele>
        <time>2019-08-28T07:27:00Z</time>
      </trkpt>
      <trkpt lat="36.4307050" lon="-5.1665120">
        <ele>58.4</ele>
        <time>2019-08-28T07:27:01Z</time>
      </trkpt>
      <trkpt lat="36.4307140" lon="-5.1665600">
        <ele>58.6</ele>
        <time>2019-08-28T07:27:02Z</time>
      </trkpt>
      <trkpt lat="36.4307240" lon="-5.1666090">
        <ele>58.8</ele>
        <time>2019-08-28T07:27:03Z</time>
      </trkpt>
      <trkpt lat="36.4307330" lon="-5.1666580">
        <ele>59.0</ele>
        <time>2019-08-28T07:27:04Z</time>
      </trkpt>
      <trkpt lat="36.4307470" lon="-5.1667070">
        <ele>59.2</ele>
        <time>2019-08-28T07:27:05Z</time>
      </trkpt>
      <trkpt lat="36.4307600" lon="-5.1667540">
        <ele>59.4</ele>
        <time>2019-08-28T07:27:06Z</time>
      </trkpt>
      <trkpt lat="36.4307740" lon="-5.1668020">
        <ele>59.6</ele>
        <time>2019-08-28T07:27:07Z</time>
      </trkpt>
      <trkpt lat="36.4307870" lon="-5.1668500">
        <ele>59.7</ele>
        <time>2019-08-28T07:27:08Z</time>
      </trkpt>
      <trkpt lat="36.4308010" lon="-5.1668990">
        <ele>59.9</ele>
        <time>2019-08-28T07:27:09Z</time>
      </trkpt>
      <trkpt lat="36.4308140" lon="-5.1669490">
        <ele>60.1</ele>
        <time>2019-08-28T07:27:10Z</time>
      </trkpt>
      <trkpt lat="36.4308270" lon="-5.1670020">
        <ele>60.4</ele>
        <time>2019-08-28T07:27:11Z</time>
      </trkpt>
      <trkpt lat="36.4308380" lon="-5.1670580">
        <ele>60.6</ele>
        <time>2019-08-28T07:27:12Z</time>
      </trkpt>
      <trkpt lat="36.4308490" lon="-5.1671130">
        <ele>60.8</ele>
        <time>2019-08-28T07:27:13Z</time>
      </trkpt>
      <trkpt lat="36.4308610" lon="-5.1671690">
        <ele>61.1</ele>
        <time>2019-08-28T07:27:14Z</time>
      </trkpt>
      <trkpt lat="36.4308720" lon="-5.1672240">
        <ele>61.3</ele>
        <time>2019-08-28T07:27:15Z</time>
      </trkpt>
      <trkpt lat="36.4308830" lon="-5.1672790">
        <ele>61.6</ele>
        <time>2019-08-28T07:27:16Z</time>
      </trkpt>
      <trkpt lat="36.4308940" lon="-5.1673360">
        <ele>61.9</ele>
        <time>2019-08-28T07:27:17Z</time>
      </trkpt>
      <trkpt lat="36.4309040" lon="-5.1673920">
        <ele>62.1</ele>
        <time>2019-08-28T07:27:18Z</time>
      </trkpt>
      <trkpt lat="36.4309150" lon="-5.1674480">
        <ele>62.4</ele>
        <time>2019-08-28T07:27:19Z</time>
      </trkpt>
      <trkpt lat="36.4309240" lon="-5.1675030">
        <ele>62.6</ele>
        <time>2019-08-28T07:27:20Z</time>
      </trkpt>
      <trkpt lat="36.4309330" lon="-5.1675580">
        <ele>62.9</ele>
        <time>2019-08-28T07:27:21Z</time>
      </trkpt>
      <trkpt lat="36.4309420" lon="-5.1676110">
        <ele>63.2</ele>
        <time>2019-08-28T07:27:22Z</time>
      </trkpt>
      <trkpt lat="36.4309510" lon="-5.1676650">
        <ele>63.4</ele>
        <time>2019-08-28T07:27:23Z</time>
      </trkpt>
      <trkpt lat="36.4309620" lon="-5.1677160">
        <ele>63.7</ele>
        <time>2019-08-28T07:27:24Z</time>
      </trkpt>
      <trkpt lat="36.4309750" lon="-5.1677660">
        <ele>63.9</ele>
        <time>2019-08-28T07:27:25Z</time>
      </trkpt>
      <trkpt lat="36.4309860" lon="-5.1678180">
        <ele>64.2</ele>
        <time>2019-08-28T07:27:26Z</time>
      </trkpt>
      <trkpt lat="36.4309960" lon="-5.1678710">
        <ele>64.5</ele>
        <time>2019-08-28T07:27:27Z</time>
      </trkpt>
      <trkpt lat="36.4310040" lon="-5.1679250">
        <ele>64.7</ele>
        <time>2019-08-28T07:27:28Z</time>
      </trkpt>
      <trkpt lat="36.4310140" lon="-5.1679780">
        <ele>64.8</ele>
        <time>2019-08-28T07:27:29Z</time>
      </trkpt>
      <trkpt lat="36.4310240" lon="-5.1680310">
        <ele>65.0</ele>
        <time>2019-08-28T07:27:30Z</time>
      </trkpt>
      <trkpt lat="36.4310360" lon="-5.1680840">
        <ele>65.2</ele>
        <time>2019-08-28T07:27:31Z</time>
      </trkpt>
      <trkpt lat="36.4310480" lon="-5.1681360">
        <ele>65.4</ele>
        <time>2019-08-28T07:27:32Z</time>
      </trkpt>
      <trkpt lat="36.4310590" lon="-5.1681880">
        <ele>65.6</ele>
        <time>2019-08-28T07:27:33Z</time>
      </trkpt>
      <trkpt lat="36.4310690" lon="-5.1682390">
        <ele>65.8</ele>
        <time>2019-08-28T07:27:34Z</time>
      </trkpt>
      <trkpt lat="36.4310790" lon="-5.1682900">
        <ele>66.0</ele>
        <time>2019-08-28T07:27:35Z</time>
      </trkpt>
      <trkpt lat="36.4310880" lon="-5.1683420">
        <ele>66.2</ele>
        <time>2019-08-28T07:27:36Z</time>
      </trkpt>
      <trkpt lat="36.4310960" lon="-5.1683940">
        <ele>66.4</ele>
        <time>2019-08-28T07:27:37Z</time>
      </trkpt>
      <trkpt lat="36.4311080" lon="-5.1684450">
        <ele>67.0</ele>
        <time>2019-08-28T07:27:38Z</time>
      </trkpt>
      <trkpt lat="36.4311200" lon="-5.1684940">
        <ele>67.3</ele>
        <time>2019-08-28T07:27:39Z</time>
      </trkpt>
      <trkpt lat="36.4311320" lon="-5.1685430">
        <ele>67.7</ele>
        <time>2019-08-28T07:27:40Z</time>
      </trkpt>
      <trkpt lat="36.4311440" lon="-5.1685910">
        <ele>68.0</ele>
        <time>2019-08-28T07:27:41Z</time>
      </trkpt>
      <trkpt lat="36.4311560" lon="-5.1686380">
        <ele>68.3</ele>
        <time>2019-08-28T07:27:42Z</time>
      </trkpt>
      <trkpt lat="36.4311680" lon="-5.1686850">
        <ele>68.6</ele>
        <time>2019-08-28T07:27:43Z</time>
      </trkpt>
      <trkpt lat="36.4311780" lon="-5.1687350">
        <ele>68.9</ele>
        <time>2019-08-28T07:27:44Z</time>
      </trkpt>
      <trkpt lat="36.4311890" lon="-5.1687860">
        <ele>69.1</ele>
        <time>2019-08-28T07:27:45Z</time>
      </trkpt>
      <trkpt lat="36.4312020" lon="-5.1688350">
        <ele>69.4</ele>
        <time>2019-08-28T07:27:46Z</time>
      </trkpt>
      <trkpt lat="36.4312150" lon="-5.1688800">
        <ele>69.6</ele>
        <time>2019-08-28T07:27:47Z</time>
      </trkpt>
      <trkpt lat="36.4312280" lon="-5.1689270">
        <ele>69.9</ele>
        <time>2019-08-28T07:27:48Z</time>
      </trkpt>
      <trkpt lat="36.4312390" lon="-5.1689760">
        <ele>70.2</ele>
        <time>2019-08-28T07:27:49Z</time>
      </trkpt>
      <trkpt lat="36.4312480" lon="-5.1690260">
        <ele>70.4</ele>
        <time>2019-08-28T07:27:50Z</time>
      </trkpt>
      <trkpt lat="36.4312560" lon="-5.1690760">
        <ele>70.7</ele>
        <time>2019-08-28T07:27:51Z</time>
      </trkpt>
      <trkpt lat="36.4312630" lon="-5.1691240">
        <ele>71.0</ele>
        <time>2019-08-28T07:27:52Z</time>
      </trkpt>
      <trkpt lat="36.4312710" lon="-5.1691700">
        <ele>71.2</ele>
        <time>2019-08-28T07:27:53Z</time>
      </trkpt>
      <trkpt lat="36.4312800" lon="-5.1692150">
        <ele>71.3</ele>
        <time>2019-08-28T07:27:54Z</time>
      </trkpt>
      <trkpt lat="36.4312880" lon="-5.1692620">
        <ele>71.4</ele>
        <time>2019-08-28T07:27:55Z</time>
      </trkpt>
      <trkpt lat="36.4312960" lon="-5.1693110">
        <ele>71.6</ele>
        <time>2019-08-28T07:27:56Z</time>
      </trkpt>
      <trkpt lat="36.4313040" lon="-5.1693590">
        <ele>71.7</ele>
        <time>2019-08-28T07:27:57Z</time>
      </trkpt>
      <trkpt lat="36.4313120" lon="-5.1694040">
        <ele>71.9</ele>
        <time>2019-08-28T07:27:58Z</time>
      </trkpt>
      <trkpt lat="36.4313220" lon="-5.1694480">
        <ele>72.0</ele>
        <time>2019-08-28T07:27:59Z</time>
      </trkpt>
      <trkpt lat="36.4313320" lon="-5.1694910">
        <ele>72.2</ele>
        <time>2019-08-28T07:28:00Z</time>
      </trkpt>
      <trkpt lat="36.4313410" lon="-5.1695340">
        <ele>72.3</ele>
        <time>2019-08-28T07:28:01Z</time>
      </trkpt>
      <trkpt lat="36.4313510" lon="-5.1695780">
        <ele>72.5</ele>
        <time>2019-08-28T07:28:02Z</time>
      </trkpt>
      <trkpt lat="36.4313590" lon="-5.1696200">
        <ele>72.7</ele>
        <time>2019-08-28T07:28:03Z</time>
      </trkpt>
      <trkpt lat="36.4313700" lon="-5.1696600">
        <ele>72.9</ele>
        <time>2019-08-28T07:28:04Z</time>
      </trkpt>
      <trkpt lat="36.4313790" lon="-5.1697020">
        <ele>73.1</ele>
        <time>2019-08-28T07:28:05Z</time>
      </trkpt>
      <trkpt lat="36.4313860" lon="-5.1697490">
        <ele>73.4</ele>
        <time>2019-08-28T07:28:06Z</time>
      </trkpt>
      <trkpt lat="36.4313910" lon="-5.1697980">
        <ele>73.7</ele>
        <time>2019-08-28T07:28:07Z</time>
      </trkpt>
      <trkpt lat="36.4313970" lon="-5.1698470">
        <ele>74.0</ele>
        <time>2019-08-28T07:28:08Z</time>
      </trkpt>
      <trkpt lat="36.4314040" lon="-5.1698920">
        <ele>74.4</ele>
        <time>2019-08-28T07:28:09Z</time>
      </trkpt>
      <trkpt lat="36.4314130" lon="-5.1699340">
        <ele>74.7</ele>
        <time>2019-08-28T07:28:10Z</time>
      </trkpt>
      <trkpt lat="36.4314220" lon="-5.1699740">
        <ele>75.0</ele>
        <time>2019-08-28T07:28:11Z</time>
      </trkpt>
      <trkpt lat="36.4314320" lon="-5.1700200">
        <ele>75.1</ele>
        <time>2019-08-28T07:28:12Z</time>
      </trkpt>
      <trkpt lat="36.4314410" lon="-5.1700720">
        <ele>75.2</ele>
        <time>2019-08-28T07:28:13Z</time>
      </trkpt>
      <trkpt lat="36.4314480" lon="-5.1701280">
        <ele>75.4</ele>
        <time>2019-08-28T07:28:14Z</time>
      </trkpt>
      <trkpt lat="36.4314540" lon="-5.1701840">
        <ele>75.5</ele>
        <time>2019-08-28T07:28:15Z</time>
      </trkpt>
      <trkpt lat="36.4314570" lon="-5.1702390">
        <ele>75.6</ele>
        <time>2019-08-28T07:28:16Z</time>
      </trkpt>
      <trkpt lat="36.4314600" lon="-5.1702940">
        <ele>75.7</ele>
        <time>2019-08-28T07:28:17Z</time>
      </trkpt>
      <trkpt lat="36.4314650" lon="-5.1703460">
        <ele>75.8</ele>
        <time>2019-08-28T07:28:18Z</time>
      </trkpt>
      <trkpt lat="36.4314690" lon="-5.1703980">
        <ele>75.9</ele>
        <time>2019-08-28T07:28:19Z</time>
      </trkpt>
      <trkpt lat="36.4314730" lon="-5.1704480">
        <ele>75.9</ele>
        <time>2019-08-28T07:28:20Z</time>
      </trkpt>
      <trkpt lat="36.4314750" lon="-5.1704990">
        <ele>76.0</ele>
        <time>2019-08-28T07:28:21Z</time>
      </trkpt>
      <trkpt lat="36.4314780" lon="-5.1705480">
        <ele>76.0</ele>
        <time>2019-08-28T07:28:22Z</time>
      </trkpt>
      <trkpt lat="36.4314820" lon="-5.1705970">
        <ele>76.0</ele>
        <time>2019-08-28T07:28:23Z</time>
      </trkpt>
      <trkpt lat="36.4314910" lon="-5.1706430">
        <ele>76.0</ele>
        <time>2019-08-28T07:28:24Z</time>
      </trkpt>
      <trkpt lat="36.4315040" lon="-5.1706880">
        <ele>75.9</ele>
        <time>2019-08-28T07:28:25Z</time>
      </trkpt>
      <trkpt lat="36.4315180" lon="-5.1707340">
        <ele>75.9</ele>
        <time>2019-08-28T07:28:26Z</time>
      </trkpt>
      <trkpt lat="36.4315280" lon="-5.1707820">
        <ele>75.9</ele>
        <time>2019-08-28T07:28:27Z</time>
      </trkpt>
      <trkpt lat="36.4315310" lon="-5.1708320">
        <ele>75.8</ele>
        <time>2019-08-28T07:28:28Z</time>
      </trkpt>
      <trkpt lat="36.4315280" lon="-5.1708800">
        <ele>75.7</ele>
        <time>2019-08-28T07:28:29Z</time>
      </trkpt>
      <trkpt lat="36.4315160" lon="-5.1709300">
        <ele>75.7</ele>
        <time>2019-08-28T07:28:30Z</time>
      </trkpt>
      <trkpt lat="36.4315010" lon="-5.1709810">
        <ele>75.7</ele>
        <time>2019-08-28T07:28:31Z</time>
      </trkpt>
      <trkpt lat="36.4314870" lon="-5.1710370">
        <ele>75.6</ele>
        <time>2019-08-28T07:28:32Z</time>
      </trkpt>
      <trkpt lat="36.4314800" lon="-5.1710960">
        <ele>75.6</ele>
        <time>2019-08-28T07:28:33Z</time>
      </trkpt>
      <trkpt lat="36.4314790" lon="-5.1711590">
        <ele>75.5</ele>
        <time>2019-08-28T07:28:34Z</time>
      </trkpt>
      <trkpt lat="36.4314820" lon="-5.1712260">
        <ele>75.5</ele>
        <time>2019-08-28T07:28:35Z</time>
      </trkpt>
      <trkpt lat="36.4314880" lon="-5.1712980">
        <ele>75.4</ele>
        <time>2019-08-28T07:28:36Z</time>
      </trkpt>
      <trkpt lat="36.4314960" lon="-5.1713750">
        <ele>75.4</ele>
        <time>2019-08-28T07:28:37Z</time>
      </trkpt>
      <trkpt lat="36.4315050" lon="-5.1714560">
        <ele>75.4</ele>
        <time>2019-08-28T07:28:38Z</time>
      </trkpt>
      <trkpt lat="36.4315150" lon="-5.1715400">
        <ele>75.3</ele>
        <time>2019-08-28T07:28:39Z</time>
      </trkpt>
      <trkpt lat="36.4315240" lon="-5.1716220">
        <ele>75.4</ele>
        <time>2019-08-28T07:28:40Z</time>
      </trkpt>
      <trkpt lat="36.4315350" lon="-5.1717040">
        <ele>75.4</ele>
        <time>2019-08-28T07:28:41Z</time>
      </trkpt>
      <trkpt lat="36.4315480" lon="-5.1717840">
        <ele>75.4</ele>
        <time>2019-08-28T07:28:42Z</time>
      </trkpt>
      <trkpt lat="36.4315650" lon="-5.1718620">
        <ele>75.5</ele>
        <time>2019-08-28T07:28:43Z</time>
      </trkpt>
      <trkpt lat="36.4315830" lon="-5.1719390">
        <ele>75.5</ele>
        <time>2019-08-28T07:28:44Z</time>
      </trkpt>
      <trkpt lat="36.4316030" lon="-5.1720140">
        <ele>75.6</ele>
        <time>2019-08-28T07:28:45Z</time>
      </trkpt>
      <trkpt lat="36.4316240" lon="-5.1720860">
        <ele>75.7</ele>
        <time>2019-08-28T07:28:46Z</time>
      </trkpt>
      <trkpt lat="36.4316450" lon="-5.1721550">
        <ele>75.8</ele>
        <time>2019-08-28T07:28:47Z</time>
      </trkpt>
      <trkpt lat="36.4316670" lon="-5.1722210">
        <ele>75.8</ele>
        <time>2019-08-28T07:28:48Z</time>
      </trkpt>
      <trkpt lat="36.4316890" lon="-5.1722850">
        <ele>76.2</ele>
        <time>2019-08-28T07:28:49Z</time>
      </trkpt>
      <trkpt lat="36.4317110" lon="-5.1723480">
        <ele>76.6</ele>
        <time>2019-08-28T07:28:50Z</time>
      </trkpt>
      <trkpt lat="36.4317350" lon="-5.1724090">
        <ele>77.0</ele>
        <time>2019-08-28T07:28:51Z</time>
      </trkpt>
      <trkpt lat="36.4317580" lon="-5.1724690">
        <ele>77.4</ele>
        <time>2019-08-28T07:28:52Z</time>
      </trkpt>
      <trkpt lat="36.4317810" lon="-5.1725270">
        <ele>77.8</ele>
        <time>2019-08-28T07:28:53Z</time>
      </trkpt>
      <trkpt lat="36.4318050" lon="-5.1725840">
        <ele>78.2</ele>
        <time>2019-08-28T07:28:54Z</time>
      </trkpt>
      <trkpt lat="36.4318340" lon="-5.1726360">
        <ele>78.5</ele>
        <time>2019-08-28T07:28:55Z</time>
      </trkpt>
      <trkpt lat="36.4318720" lon="-5.1726770">
        <ele>78.5</ele>
        <time>2019-08-28T07:28:56Z</time>
      </trkpt>
      <trkpt lat="36.4319170" lon="-5.1727040">
        <ele>78.6</ele>
        <time>2019-08-28T07:28:57Z</time>
      </trkpt>
      <trkpt lat="36.4319670" lon="-5.1727180">
        <ele>78.7</ele>
        <time>2019-08-28T07:28:58Z</time>
      </trkpt>
      <trkpt lat="36.4320170" lon="-5.1727280">
        <ele>78.7</ele>
        <time>2019-08-28T07:28:59Z</time>
      </trkpt>
      <trkpt lat="36.4320660" lon="-5.1727410">
        <ele>78.7</ele>
        <time>2019-08-28T07:29:00Z</time>
      </trkpt>
      <trkpt lat="36.4321150" lon="-5.1727620">
        <ele>78.7</ele>
        <time>2019-08-28T07:29:01Z</time>
      </trkpt>
      <trkpt lat="36.4321620" lon="-5.1727920">
        <ele>78.6</ele>
        <time>2019-08-28T07:29:02Z</time>
      </trkpt>
      <trkpt lat="36.4322050" lon="-5.1728320">
        <ele>78.6</ele>
        <time>2019-08-28T07:29:03Z</time>
      </trkpt>
      <trkpt lat="36.4322420" lon="-5.1728800">
        <ele>78.5</ele>
        <time>2019-08-28T07:29:04Z</time>
      </trkpt>
      <trkpt lat="36.4322730" lon="-5.1729360">
        <ele>78.4</ele>
        <time>2019-08-28T07:29:05Z</time>
      </trkpt>
      <trkpt lat="36.4322950" lon="-5.1729990">
        <ele>78.4</ele>
        <time>2019-08-28T07:29:06Z</time>
      </trkpt>
      <trkpt lat="36.4323060" lon="-5.1730700">
        <ele>78.3</ele>
        <time>2019-08-28T07:29:07Z</time>
      </trkpt>
      <trkpt lat="36.4323060" lon="-5.1731450">
        <ele>78.1</ele>
        <time>2019-08-28T07:29:08Z</time>
      </trkpt>
      <trkpt lat="36.4322950" lon="-5.1732230">
        <ele>77.9</ele>
        <time>2019-08-28T07:29:09Z</time>
      </trkpt>
      <trkpt lat="36.4322720" lon="-5.1732990">
        <ele>77.8</ele>
        <time>2019-08-28T07:29:10Z</time>
      </trkpt>
      <trkpt lat="36.4322380" lon="-5.1733730">
        <ele>77.5</ele>
        <time>2019-08-28T07:29:11Z</time>
      </trkpt>
      <trkpt lat="36.4321920" lon="-5.1734430">
        <ele>77.3</ele>
        <time>2019-08-28T07:29:12Z</time>
      </trkpt>
      <trkpt lat="36.4321380" lon="-5.1735090">
        <ele>77.0</ele>
        <time>2019-08-28T07:29:13Z</time>
      </trkpt>
      <trkpt lat="36.4320810" lon="-5.1735700">
        <ele>76.6</ele>
        <time>2019-08-28T07:29:14Z</time>
      </trkpt>
      <trkpt lat="36.4320250" lon="-5.1736320">
        <ele>76.1</ele>
        <time>2019-08-28T07:29:15Z</time>
      </trkpt>
      <trkpt lat="36.4319700" lon="-5.1736970">
        <ele>75.6</ele>
        <time>2019-08-28T07:29:16Z</time>
      </trkpt>
      <trkpt lat="36.4319200" lon="-5.1737670">
        <ele>74.9</ele>
        <time>2019-08-28T07:29:17Z</time>
      </trkpt>
      <trkpt lat="36.4318740" lon="-5.1738420">
        <ele>74.3</ele>
        <time>2019-08-28T07:29:18Z</time>
      </trkpt>
      <trkpt lat="36.4318360" lon="-5.1739220">
        <ele>73.7</ele>
        <time>2019-08-28T07:29:19Z</time>
      </trkpt>
      <trkpt lat="36.4318050" lon="-5.1740060">
        <ele>73.2</ele>
        <time>2019-08-28T07:29:20Z</time>
      </trkpt>
      <trkpt lat="36.4317810" lon="-5.1740920">
        <ele>72.8</ele>
        <time>2019-08-28T07:29:21Z</time>
      </trkpt>
      <trkpt lat="36.4317590" lon="-5.1741790">
        <ele>72.5</ele>
        <time>2019-08-28T07:29:22Z</time>
      </trkpt>
      <trkpt lat="36.4317320" lon="-5.1742620">
        <ele>72.1</ele>
        <time>2019-08-28T07:29:23Z</time>
      </trkpt>
      <trkpt lat="36.4316970" lon="-5.1743400">
        <ele>71.4</ele>
        <time>2019-08-28T07:29:24Z</time>
      </trkpt>
      <trkpt lat="36.4316500" lon="-5.1744110">
        <ele>70.9</ele>
        <time>2019-08-28T07:29:25Z</time>
      </trkpt>
      <trkpt lat="36.4315990" lon="-5.1744810">
        <ele>70.8</ele>
        <time>2019-08-28T07:29:26Z</time>
      </trkpt>
      <trkpt lat="36.4315510" lon="-5.1745580">
        <ele>70.6</ele>
        <time>2019-08-28T07:29:27Z</time>
      </trkpt>
      <trkpt lat="36.4315100" lon="-5.1746490">
        <ele>67.7</ele>
        <time>2019-08-28T07:29:28Z</time>
      </trkpt>
      <trkpt lat="36.4314740" lon="-5.1747560">
        <ele>65.6</ele>
        <time>2019-08-28T07:29:29Z</time>
      </trkpt>
      <trkpt lat="36.4314330" lon="-5.1748740">
        <ele>63.8</ele>
        <time>2019-08-28T07:29:30Z</time>
      </trkpt>
      <trkpt lat="36.4313840" lon="-5.1749990">
        <ele>62.4</ele>
        <time>2019-08-28T07:29:31Z</time>
      </trkpt>
      <trkpt lat="36.4313180" lon="-5.1751300">
        <ele>61.6</ele>
        <time>2019-08-28T07:29:32Z</time>
      </trkpt>
      <trkpt lat="36.4312340" lon="-5.1752640">
        <ele>61.2</ele>
        <time>2019-08-28T07:29:33Z</time>
      </trkpt>
      <trkpt lat="36.4311400" lon="-5.1753970">
        <ele>61.1</ele>
        <time>2019-08-28T07:29:34Z</time>
      </trkpt>
      <trkpt lat="36.4310450" lon="-5.1755270">
        <ele>61.1</ele>
        <time>2019-08-28T07:29:35Z</time>
      </trkpt>
      <trkpt lat="36.4309560" lon="-5.1756490">
        <ele>61.6</ele>
        <time>2019-08-28T07:29:36Z</time>
      </trkpt>
      <trkpt lat="36.4308670" lon="-5.1757630">
        <ele>62.0</ele>
        <time>2019-08-28T07:29:37Z</time>
      </trkpt>
      <trkpt lat="36.4307790" lon="-5.1758690">
        <ele>62.6</ele>
        <time>2019-08-28T07:29:38Z</time>
      </trkpt>
      <trkpt lat="36.4306940" lon="-5.1759680">
        <ele>63.1</ele>
        <time>2019-08-28T07:29:39Z</time>
      </trkpt>
      <trkpt lat="36.4306100" lon="-5.1760560">
        <ele>63.7</ele>
        <time>2019-08-28T07:29:40Z</time>
      </trkpt>
      <trkpt lat="36.4305260" lon="-5.1761310">
        <ele>64.4</ele>
        <time>2019-08-28T07:29:41Z</time>
      </trkpt>
      <trkpt lat="36.4304430" lon="-5.1761940">
        <ele>65.1</ele>
        <time>2019-08-28T07:29:42Z</time>
      </trkpt>
      <trkpt lat="36.4303620" lon="-5.1762500">
        <ele>65.9</ele>
        <time>2019-08-28T07:29:43Z</time>
      </trkpt>
      <trkpt lat="36.4302870" lon="-5.1763000">
        <ele>66.9</ele>
        <time>2019-08-28T07:29:44Z</time>
      </trkpt>
      <trkpt lat="36.4302150" lon="-5.1763460">
        <ele>67.6</ele>
        <time>2019-08-28T07:29:45Z</time>
      </trkpt>
      <trkpt lat="36.4301490" lon="-5.1763860">
        <ele>68.2</ele>
        <time>2019-08-28T07:29:46Z</time>
      </trkpt>
      <trkpt lat="36.4300880" lon="-5.1764230">
        <ele>68.8</ele>
        <time>2019-08-28T07:29:47Z</time>
      </trkpt>
      <trkpt lat="36.4300300" lon="-5.1764560">
        <ele>69.6</ele>
        <time>2019-08-28T07:29:48Z</time>
      </trkpt>
      <trkpt lat="36.4299770" lon="-5.1764870">
        <ele>70.4</ele>
        <time>2019-08-28T07:29:49Z</time>
      </trkpt>
      <trkpt lat="36.4299280" lon="-5.1765170">
        <ele>71.0</ele>
        <time>2019-08-28T07:29:50Z</time>
      </trkpt>
      <trkpt lat="36.4298850" lon="-5.1765460">
        <ele>71.5</ele>
        <time>2019-08-28T07:29:51Z</time>
      </trkpt>
      <trkpt lat="36.4298470" lon="-5.1765740">
        <ele>72.0</ele>
        <time>2019-08-28T07:29:52Z</time>
      </trkpt>
      <trkpt lat="36.4298120" lon="-5.1766000">
        <ele>72.4</ele>
        <time>2019-08-28T07:29:53Z</time>
      </trkpt>
      <trkpt lat="36.4297800" lon="-5.1766260">
        <ele>72.7</ele>
        <time>2019-08-28T07:29:54Z</time>
      </trkpt>
      <trkpt lat="36.4297510" lon="-5.1766540">
        <ele>73.0</ele>
        <time>2019-08-28T07:29:55Z</time>
      </trkpt>
      <trkpt lat="36.4297250" lon="-5.1766840">
        <ele>73.4</ele>
        <time>2019-08-28T07:29:56Z</time>
      </trkpt>
      <trkpt lat="36.4297010" lon="-5.1767160">
        <ele>73.7</ele>
        <time>2019-08-28T07:29:57Z</time>
      </trkpt>
      <trkpt lat="36.4296790" lon="-5.1767500">
        <ele>74.1</ele>
        <time>2019-08-28T07:29:58Z</time>
      </trkpt>
      <trkpt lat="36.4296590" lon="-5.1767870">
        <ele>74.4</ele>
        <time>2019-08-28T07:29:59Z</time>
      </trkpt>
      <trkpt lat="36.4296400" lon="-5.1768270">
        <ele>74.8</ele>
        <time>2019-08-28T07:30:00Z</time>
      </trkpt>
      <trkpt lat="36.4296250" lon="-5.1768710">
        <ele>75.1</ele>
        <time>2019-08-28T07:30:01Z</time>
      </trkpt>
      <trkpt lat="36.4296120" lon="-5.1769180">
        <ele>75.5</ele>
        <time>2019-08-28T07:30:02Z</time>
      </trkpt>
      <trkpt lat="36.4296010" lon="-5.1769640">
        <ele>75.8</ele>
        <time>2019-08-28T07:30:03Z</time>
      </trkpt>
      <trkpt lat="36.4295910" lon="-5.1770080">
        <ele>76.3</ele>
        <time>2019-08-28T07:30:04Z</time>
      </trkpt>
      <trkpt lat="36.4295810" lon="-5.1770530">
        <ele>76.8</ele>
        <time>2019-08-28T07:30:05Z</time>
      </trkpt>
      <trkpt lat="36.4295710" lon="-5.1770980">
        <ele>77.3</ele>
        <time>2019-08-28T07:30:06Z</time>
      </trkpt>
      <trkpt lat="36.4295620" lon="-5.1771440">
        <ele>77.7</ele>
        <time>2019-08-28T07:30:07Z</time>
      </trkpt>
      <trkpt lat="36.4295520" lon="-5.1771900">
        <ele>78.1</ele>
        <time>2019-08-28T07:30:08Z</time>
      </trkpt>
      <trkpt lat="36.4295430" lon="-5.1772370">
        <ele>78.4</ele>
        <time>2019-08-28T07:30:09Z</time>
      </trkpt>
      <trkpt lat="36.4295330" lon="-5.1772830">
        <ele>78.8</ele>
        <time>2019-08-28T07:30:10Z</time>
      </trkpt>
      <trkpt lat="36.4295250" lon="-5.1773300">
        <ele>79.1</ele>
        <time>2019-08-28T07:30:11Z</time>
      </trkpt>
      <trkpt lat="36.4295180" lon="-5.1773760">
        <ele>79.3</ele>
        <time>2019-08-28T07:30:12Z</time>
      </trkpt>
      <trkpt lat="36.4295080" lon="-5.1774210">
        <ele>79.5</ele>
        <time>2019-08-28T07:30:13Z</time>
      </trkpt>
      <trkpt lat="36.4294960" lon="-5.1774640">
        <ele>79.7</ele>
        <time>2019-08-28T07:30:14Z</time>
      </trkpt>
      <trkpt lat="36.4294810" lon="-5.1775040">
        <ele>79.8</ele>
        <time>2019-08-28T07:30:15Z</time>
      </trkpt>
      <trkpt lat="36.4294640" lon="-5.1775430">
        <ele>80.0</ele>
        <time>2019-08-28T07:30:16Z</time>
      </trkpt>
      <trkpt lat="36.4294450" lon="-5.1775810">
        <ele>80.2</ele>
        <time>2019-08-28T07:30:17Z</time>
      </trkpt>
      <trkpt lat="36.4294260" lon="-5.1776190">
        <ele>80.3</ele>
        <time>2019-08-28T07:30:18Z</time>
      </trkpt>
      <trkpt lat="36.4294060" lon="-5.1776570">
        <ele>80.5</ele>
        <time>2019-08-28T07:30:19Z</time>
      </trkpt>
      <trkpt lat="36.4293860" lon="-5.1776950">
        <ele>80.6</ele>
        <time>2019-08-28T07:30:20Z</time>
      </trkpt>
      <trkpt lat="36.4293670" lon="-5.1777340">
        <ele>80.8</ele>
        <time>2019-08-28T07:30:21Z</time>
      </trkpt>
      <trkpt lat="36.4293490" lon="-5.1777780">
        <ele>80.9</ele>
        <time>2019-08-28T07:30:22Z</time>
      </trkpt>
      <trkpt lat="36.4293370" lon="-5.1778290">
        <ele>80.7</ele>
        <time>2019-08-28T07:30:23Z</time>
      </trkpt>
      <trkpt lat="36.4293330" lon="-5.1778880">
        <ele>80.1</ele>
        <time>2019-08-28T07:30:24Z</time>
      </trkpt>
      <trkpt lat="36.4293350" lon="-5.1779570">
        <ele>79.4</ele>
        <time>2019-08-28T07:30:25Z</time>
      </trkpt>
      <trkpt lat="36.4293400" lon="-5.1780370">
        <ele>78.5</ele>
        <time>2019-08-28T07:30:26Z</time>
      </trkpt>
      <trkpt lat="36.4293420" lon="-5.1781270">
        <ele>77.5</ele>
        <time>2019-08-28T07:30:27Z</time>
      </trkpt>
      <trkpt lat="36.4293390" lon="-5.1782250">
        <ele>76.5</ele>
        <time>2019-08-28T07:30:28Z</time>
      </trkpt>
      <trkpt lat="36.4293280" lon="-5.1783320">
        <ele>75.3</ele>
        <time>2019-08-28T07:30:29Z</time>
      </trkpt>
      <trkpt lat="36.4293140" lon="-5.1784470">
        <ele>74.2</ele>
        <time>2019-08-28T07:30:30Z</time>
      </trkpt>
      <trkpt lat="36.4293050" lon="-5.1785710">
        <ele>72.9</ele>
        <time>2019-08-28T07:30:31Z</time>
      </trkpt>
      <trkpt lat="36.4293060" lon="-5.1787000">
        <ele>71.5</ele>
        <time>2019-08-28T07:30:32Z</time>
      </trkpt>
      <trkpt lat="36.4293150" lon="-5.1788330">
        <ele>70.0</ele>
        <time>2019-08-28T07:30:33Z</time>
      </trkpt>
      <trkpt lat="36.4293250" lon="-5.1789680">
        <ele>68.4</ele>
        <time>2019-08-28T07:30:34Z</time>
      </trkpt>
      <trkpt lat="36.4293320" lon="-5.1791040">
        <ele>66.8</ele>
        <time>2019-08-28T07:30:35Z</time>
      </trkpt>
      <trkpt lat="36.4293370" lon="-5.1792430">
        <ele>65.1</ele>
        <time>2019-08-28T07:30:36Z</time>
      </trkpt>
      <trkpt lat="36.4293400" lon="-5.1793850">
        <ele>63.4</ele>
        <time>2019-08-28T07:30:37Z</time>
      </trkpt>
      <trkpt lat="36.4293400" lon="-5.1795320">
        <ele>61.8</ele>
        <time>2019-08-28T07:30:38Z</time>
      </trkpt>
      <trkpt lat="36.4293330" lon="-5.1796800">
        <ele>60.2</ele>
        <time>2019-08-28T07:30:39Z</time>
      </trkpt>
      <trkpt lat="36.4293200" lon="-5.1798250">
        <ele>59.0</ele>
        <time>2019-08-28T07:30:40Z</time>
      </trkpt>
      <trkpt lat="36.4293020" lon="-5.1799640">
        <ele>57.9</ele>
        <time>2019-08-28T07:30:41Z</time>
      </trkpt>
      <trkpt lat="36.4292860" lon="-5.1800940">
        <ele>56.8</ele>
        <time>2019-08-28T07:30:42Z</time>
      </trkpt>
      <trkpt lat="36.4292710" lon="-5.1802210">
        <ele>55.5</ele>
        <time>2019-08-28T07:30:43Z</time>
      </trkpt>
      <trkpt lat="36.4292570" lon="-5.1803450">
        <ele>54.3</ele>
        <time>2019-08-28T07:30:44Z</time>
      </trkpt>
      <trkpt lat="36.4292420" lon="-5.1804690">
        <ele>53.0</ele>
        <time>2019-08-28T07:30:45Z</time>
      </trkpt>
      <trkpt lat="36.4292180" lon="-5.1805900">
        <ele>51.8</ele>
        <time>2019-08-28T07:30:46Z</time>
      </trkpt>
      <trkpt lat="36.4291870" lon="-5.1807080">
        <ele>50.8</ele>
        <time>2019-08-28T07:30:47Z</time>
      </trkpt>
      <trkpt lat="36.4291500" lon="-5.1808230">
        <ele>49.8</ele>
        <time>2019-08-28T07:30:48Z</time>
      </trkpt>
      <trkpt lat="36.4291110" lon="-5.1809370">
        <ele>48.8</ele>
        <time>2019-08-28T07:30:49Z</time>
      </trkpt>
      <trkpt lat="36.4290710" lon="-5.1810470">
        <ele>47.7</ele>
        <time>2019-08-28T07:30:50Z</time>
      </trkpt>
      <trkpt lat="36.4290330" lon="-5.1811550">
        <ele>46.6</ele>
        <time>2019-08-28T07:30:51Z</time>
      </trkpt>
      <trkpt lat="36.4290010" lon="-5.1812630">
        <ele>45.6</ele>
        <time>2019-08-28T07:30:52Z</time>
      </trkpt>
      <trkpt lat="36.4289790" lon="-5.1813770">
        <ele>44.6</ele>
        <time>2019-08-28T07:30:53Z</time>
      </trkpt>
      <trkpt lat="36.4289650" lon="-5.1814990">
        <ele>43.2</ele>
        <time>2019-08-28T07:30:54Z</time>
      </trkpt>
      <trkpt lat="36.4289570" lon="-5.1816260">
        <ele>41.7</ele>
        <time>2019-08-28T07:30:55Z</time>
      </trkpt>
      <trkpt lat="36.4289510" lon="-5.1817540">
        <ele>40.3</ele>
        <time>2019-08-28T07:30:56Z</time>
      </trkpt>
      <trkpt lat="36.4289440" lon="-5.1818800">
        <ele>38.7</ele>
        <time>2019-08-28T07:30:57Z</time>
      </trkpt>
      <trkpt lat="36.4289340" lon="-5.1820060">
        <ele>37.0</ele>
        <time>2019-08-28T07:30:58Z</time>
      </trkpt>
      <trkpt lat="36.4289200" lon="-5.1821310">
        <ele>35.4</ele>
        <time>2019-08-28T07:30:59Z</time>
      </trkpt>
      <trkpt lat="36.4289000" lon="-5.1822560">
        <ele>33.7</ele>
        <time>2019-08-28T07:31:00Z</time>
      </trkpt>
      <trkpt lat="36.4288720" lon="-5.1823790">
        <ele>32.0</ele>
        <time>2019-08-28T07:31:01Z</time>
      </trkpt>
      <trkpt lat="36.4288380" lon="-5.1824980">
        <ele>30.2</ele>
        <time>2019-08-28T07:31:02Z</time>
      </trkpt>
      <trkpt lat="36.4288020" lon="-5.1826160">
        <ele>28.5</ele>
        <time>2019-08-28T07:31:03Z</time>
      </trkpt>
      <trkpt lat="36.4287740" lon="-5.1827330">
        <ele>27.0</ele>
        <time>2019-08-28T07:31:04Z</time>
      </trkpt>
      <trkpt lat="36.4287550" lon="-5.1828540">
        <ele>25.5</ele>
        <time>2019-08-28T07:31:05Z</time>
      </trkpt>
      <trkpt lat="36.4287460" lon="-5.1829790">
        <ele>24.0</ele>
        <time>2019-08-28T07:31:06Z</time>
      </trkpt>
      <trkpt lat="36.4287410" lon="-5.1831030">
        <ele>22.5</ele>
        <time>2019-08-28T07:31:07Z</time>
      </trkpt>
      <trkpt lat="36.4287340" lon="-5.1832230">
        <ele>21.1</ele>
        <time>2019-08-28T07:31:08Z</time>
      </trkpt>
      <trkpt lat="36.4287090" lon="-5.1833410">
        <ele>20.0</ele>
        <time>2019-08-28T07:31:09Z</time>
      </trkpt>
      <trkpt lat="36.4286610" lon="-5.1834500">
        <ele>19.3</ele>
        <time>2019-08-28T07:31:10Z</time>
      </trkpt>
      <trkpt lat="36.4285910" lon="-5.1835440">
        <ele>19.1</ele>
        <time>2019-08-28T07:31:11Z</time>
      </trkpt>
      <trkpt lat="36.4285150" lon="-5.1836160">
        <ele>18.9</ele>
        <time>2019-08-28T07:31:12Z</time>
      </trkpt>
      <trkpt lat="36.4284340" lon="-5.1836740">
        <ele>18.7</ele>
        <time>2019-08-28T07:31:13Z</time>
      </trkpt>
      <trkpt lat="36.4283500" lon="-5.1837240">
        <ele>18.4</ele>
        <time>2019-08-28T07:31:14Z</time>
      </trkpt>
      <trkpt lat="36.4282640" lon="-5.1837690">
        <ele>18.2</ele>
        <time>2019-08-28T07:31:15Z</time>
      </trkpt>
      <trkpt lat="36.4281770" lon="-5.1838120">
        <ele>17.9</ele>
        <time>2019-08-28T07:31:16Z</time>
      </trkpt>
      <trkpt lat="36.4280900" lon="-5.1838500">
        <ele>17.6</ele>
        <time>2019-08-28T07:31:17Z</time>
      </trkpt>
      <trkpt lat="36.4279990" lon="-5.1838820">
        <ele>17.3</ele>
        <time>2019-08-28T07:31:18Z</time>
      </trkpt>
      <trkpt lat="36.4279060" lon="-5.1839080">
        <ele>17.0</ele>
        <time>2019-08-28T07:31:19Z</time>
      </trkpt>
      <trkpt lat="36.4278110" lon="-5.1839270">
        <ele>16.8</ele>
        <time>2019-08-28T07:31:20Z</time>
      </trkpt>
      <trkpt lat="36.4277160" lon="-5.1839400">
        <ele>16.6</ele>
        <time>2019-08-28T07:31:21Z</time>
      </trkpt>
      <trkpt lat="36.4276210" lon="-5.1839490">
        <ele>16.5</ele>
        <time>2019-08-28T07:31:22Z</time>
      </trkpt>
      <trkpt lat="36.4275270" lon="-5.1839570">
        <ele>16.3</ele>
        <time>2019-08-28T07:31:23Z</time>
      </trkpt>
      <trkpt lat="36.4274330" lon="-5.1839680">
        <ele>16.2</ele>
        <time>2019-08-28T07:31:24Z</time>
      </trkpt>
      <trkpt lat="36.4273400" lon="-5.1839860">
        <ele>16.1</ele>
        <time>2019-08-28T07:31:25Z</time>
      </trkpt>
      <trkpt lat="36.4272480" lon="-5.1840080">
        <ele>15.9</ele>
        <time>2019-08-28T07:31:26Z</time>
      </trkpt>
      <trkpt lat="36.4271570" lon="-5.1840310">
        <ele>15.8</ele>
        <time>2019-08-28T07:31:27Z</time>
      </trkpt>
      <trkpt lat="36.4270670" lon="-5.1840510">
        <ele>15.7</ele>
        <time>2019-08-28T07:31:28Z</time>
      </trkpt>
      <trkpt lat="36.4269780" lon="-5.1840640">
        <ele>15.6</ele>
        <time>2019-08-28T07:31:29Z</time>
      </trkpt>
      <trkpt lat="36.4268900" lon="-5.1840710">
        <ele>15.4</ele>
        <time>2019-08-28T07:31:30Z</time>
      </trkpt>
      <trkpt lat="36.4268020" lon="-5.1840720">
        <ele>15.3</ele>
        <time>2019-08-28T07:31:31Z</time>
      </trkpt>
      <trkpt lat="36.4267150" lon="-5.1840690">
        <ele>15.2</ele>
        <time>2019-08-28T07:31:32Z</time>
      </trkpt>
      <trkpt lat="36.4266290" lon="-5.1840640">
        <ele>15.1</ele>
        <time>2019-08-28T07:31:33Z</time>
      </trkpt>
      <trkpt lat="36.4265430" lon="-5.1840560">
        <ele>15.0</ele>
        <time>2019-08-28T07:31:34Z</time>
      </trkpt>
      <trkpt lat="36.4264570" lon="-5.1840430">
        <ele>14.9</ele>
        <time>2019-08-28T07:31:35Z</time>
      </trkpt>
      <trkpt lat="36.4263720" lon="-5.1840230">
        <ele>14.8</ele>
        <time>2019-08-28T07:31:36Z</time>
      </trkpt>
      <trkpt lat="36.4262870" lon="-5.1840000">
        <ele>14.8</ele>
        <time>2019-08-28T07:31:37Z</time>
      </trkpt>
      <trkpt lat="36.4262040" lon="-5.1839730">
        <ele>14.8</ele>
        <time>2019-08-28T07:31:38Z</time>
      </trkpt>
      <trkpt lat="36.4261230" lon="-5.1839430">
        <ele>14.8</ele>
        <time>2019-08-28T07:31:39Z</time>
      </trkpt>
      <trkpt lat="36.4260420" lon="-5.1839130">
        <ele>14.8</ele>
        <time>2019-08-28T07:31:40Z</time>
      </trkpt>
      <trkpt lat="36.4259620" lon="-5.1838820">
        <ele>14.8</ele>
        <time>2019-08-28T07:31:41Z</time>
      </trkpt>
      <trkpt lat="36.4258830" lon="-5.1838500">
        <ele>14.7</ele>
        <time>2019-08-28T07:31:42Z</time>
      </trkpt>
      <trkpt lat="36.4258030" lon="-5.1838180">
        <ele>14.7</ele>
        <time>2019-08-28T07:31:43Z</time>
      </trkpt>
      <trkpt lat="36.4257240" lon="-5.1837850">
        <ele>14.5</ele>
        <time>2019-08-28T07:31:44Z</time>
      </trkpt>
      <trkpt lat="36.4256450" lon="-5.1837530">
        <ele>14.4</ele>
        <time>2019-08-28T07:31:45Z</time>
      </trkpt>
      <trkpt lat="36.4255660" lon="-5.1837210">
        <ele>14.2</ele>
        <time>2019-08-28T07:31:46Z</time>
      </trkpt>
      <trkpt lat="36.4254870" lon="-5.1836870">
        <ele>14.1</ele>
        <time>2019-08-28T07:31:47Z</time>
      </trkpt>
      <trkpt lat="36.4254100" lon="-5.1836490">
        <ele>14.0</ele>
        <time>2019-08-28T07:31:48Z</time>
      </trkpt>
      <trkpt lat="36.4253350" lon="-5.1836070">
        <ele>14.0</ele>
        <time>2019-08-28T07:31:49Z</time>
      </trkpt>
      <trkpt lat="36.4252610" lon="-5.1835630">
        <ele>13.9</ele>
        <time>2019-08-28T07:31:50Z</time>
      </trkpt>
      <trkpt lat="36.4251870" lon="-5.1835170">
        <ele>13.8</ele>
        <time>2019-08-28T07:31:51Z</time>
      </trkpt>
      <trkpt lat="36.4251140" lon="-5.1834720">
        <ele>13.7</ele>
        <time>2019-08-28T07:31:52Z</time>
      </trkpt>
      <trkpt lat="36.4250410" lon="-5.1834270">
        <ele>13.5</ele>
        <time>2019-08-28T07:31:53Z</time>
      </trkpt>
      <trkpt lat="36.4249680" lon="-5.1833810">
        <ele>13.4</ele>
        <time>2019-08-28T07:31:54Z</time>
      </trkpt>
      <trkpt lat="36.4248960" lon="-5.1833350">
        <ele>13.3</ele>
        <time>2019-08-28T07:31:55Z</time>
      </trkpt>
      <trkpt lat="36.4248230" lon="-5.1832910">
        <ele>13.2</ele>
        <time>2019-08-28T07:31:56Z</time>
      </trkpt>
      <trkpt lat="36.4247490" lon="-5.1832500">
        <ele>13.1</ele>
        <time>2019-08-28T07:31:57Z</time>
      </trkpt>
      <trkpt lat="36.4246750" lon="-5.1832100">
        <ele>13.0</ele>
        <time>2019-08-28T07:31:58Z</time>
      </trkpt>
      <trkpt lat="36.4246010" lon="-5.1831710">
        <ele>12.9</ele>
        <time>2019-08-28T07:31:59Z</time>
      </trkpt>
      <trkpt lat="36.4245280" lon="-5.1831320">
        <ele>12.8</ele>
        <time>2019-08-28T07:32:00Z</time>
      </trkpt>
      <trkpt lat="36.4244560" lon="-5.1830910">
        <ele>12.8</ele>
        <time>2019-08-28T07:32:01Z</time>
      </trkpt>
      <trkpt lat="36.4243830" lon="-5.1830520">
        <ele>12.7</ele>
        <time>2019-08-28T07:32:02Z</time>
      </trkpt>
      <trkpt lat="36.4243090" lon="-5.1830160">
        <ele>12.7</ele>
        <time>2019-08-28T07:32:03Z</time>
      </trkpt>
      <trkpt lat="36.4242350" lon="-5.1829860">
        <ele>12.6</ele>
        <time>2019-08-28T07:32:04Z</time>
      </trkpt>
      <trkpt lat="36.4241590" lon="-5.1829600">
        <ele>12.6</ele>
        <time>2019-08-28T07:32:05Z</time>
      </trkpt>
      <trkpt lat="36.4240840" lon="-5.1829370">
        <ele>12.6</ele>
        <time>2019-08-28T07:32:06Z</time>
      </trkpt>
      <trkpt lat="36.4240090" lon="-5.1829120">
        <ele>12.5</ele>
        <time>2019-08-28T07:32:07Z</time>
      </trkpt>
      <trkpt lat="36.4239360" lon="-5.1828840">
        <ele>12.5</ele>
        <time>2019-08-28T07:32:08Z</time>
      </trkpt>
      <trkpt lat="36.4238630" lon="-5.1828520">
        <ele>12.5</ele>
        <time>2019-08-28T07:32:09Z</time>
      </trkpt>
      <trkpt lat="36.4237910" lon="-5.1828170">
        <ele>12.4</ele>
        <time>2019-08-28T07:32:10Z</time>
      </trkpt>
      <trkpt lat="36.4237200" lon="-5.1827800">
        <ele>12.4</ele>
        <time>2019-08-28T07:32:11Z</time>
      </trkpt>
      <trkpt lat="36.4236500" lon="-5.1827420">
        <ele>12.4</ele>
        <time>2019-08-28T07:32:12Z</time>
      </trkpt>
      <trkpt lat="36.4235810" lon="-5.1827040">
        <ele>12.4</ele>
        <time>2019-08-28T07:32:13Z</time>
      </trkpt>
      <trkpt lat="36.4235110" lon="-5.1826660">
        <ele>12.4</ele>
        <time>2019-08-28T07:32:14Z</time>
      </trkpt>
      <trkpt lat="36.4234420" lon="-5.1826270">
        <ele>12.5</ele>
        <time>2019-08-28T07:32:15Z</time>
      </trkpt>
      <trkpt lat="36.4233740" lon="-5.1825840">
        <ele>12.5</ele>
        <time>2019-08-28T07:32:16Z</time>
      </trkpt>
      <trkpt lat="36.4233090" lon="-5.1825370">
        <ele>12.3</ele>
        <time>2019-08-28T07:32:17Z</time>
      </trkpt>
      <trkpt lat="36.4232450" lon="-5.1824870">
        <ele>12.2</ele>
        <time>2019-08-28T07:32:18Z</time>
      </trkpt>
      <trkpt lat="36.4231810" lon="-5.1824360">
        <ele>12.0</ele>
        <time>2019-08-28T07:32:19Z</time>
      </trkpt>
      <trkpt lat="36.4231160" lon="-5.1823860">
        <ele>11.8</ele>
        <time>2019-08-28T07:32:20Z</time>
      </trkpt>
      <trkpt lat="36.4230510" lon="-5.1823370">
        <ele>11.6</ele>
        <time>2019-08-28T07:32:21Z</time>
      </trkpt>
      <trkpt lat="36.4229860" lon="-5.1822880">
        <ele>11.5</ele>
        <time>2019-08-28T07:32:22Z</time>
      </trkpt>
      <trkpt lat="36.4229210" lon="-5.1822410">
        <ele>11.5</ele>
        <time>2019-08-28T07:32:23Z</time>
      </trkpt>
      <trkpt lat="36.4228550" lon="-5.1821980">
        <ele>11.5</ele>
        <time>2019-08-28T07:32:24Z</time>
      </trkpt>
      <trkpt lat="36.4227870" lon="-5.1821610">
        <ele>11.5</ele>
        <time>2019-08-28T07:32:25Z</time>
      </trkpt>
      <trkpt lat="36.4227180" lon="-5.1821300">
        <ele>11.6</ele>
        <time>2019-08-28T07:32:26Z</time>
      </trkpt>
      <trkpt lat="36.4226480" lon="-5.1821010">
        <ele>11.6</ele>
        <time>2019-08-28T07:32:27Z</time>
      </trkpt>
      <trkpt lat="36.4225780" lon="-5.1820720">
        <ele>11.5</ele>
        <time>2019-08-28T07:32:28Z</time>
      </trkpt>
      <trkpt lat="36.4225080" lon="-5.1820440">
        <ele>11.4</ele>
        <time>2019-08-28T07:32:29Z</time>
      </trkpt>
      <trkpt lat="36.4224370" lon="-5.1820170">
        <ele>11.3</ele>
        <time>2019-08-28T07:32:30Z</time>
      </trkpt>
      <trkpt lat="36.4223660" lon="-5.1819920">
        <ele>11.2</ele>
        <time>2019-08-28T07:32:31Z</time>
      </trkpt>
      <trkpt lat="36.4222940" lon="-5.1819700">
        <ele>11.1</ele>
        <time>2019-08-28T07:32:32Z</time>
      </trkpt>
      <trkpt lat="36.4222230" lon="-5.1819520">
        <ele>10.9</ele>
        <time>2019-08-28T07:32:33Z</time>
      </trkpt>
      <trkpt lat="36.4221510" lon="-5.1819400">
        <ele>10.8</ele>
        <time>2019-08-28T07:32:34Z</time>
      </trkpt>
      <trkpt lat="36.4220800" lon="-5.1819350">
        <ele>10.7</ele>
        <time>2019-08-28T07:32:35Z</time>
      </trkpt>
      <trkpt lat="36.4220100" lon="-5.1819370">
        <ele>10.5</ele>
        <time>2019-08-28T07:32:36Z</time>
      </trkpt>
      <trkpt lat="36.4219430" lon="-5.1819450">
        <ele>10.4</ele>
        <time>2019-08-28T07:32:37Z</time>
      </trkpt>
      <trkpt lat="36.4218780" lon="-5.1819540">
        <ele>10.3</ele>
        <time>2019-08-28T07:32:38Z</time>
      </trkpt>
      <trkpt lat="36.4218120" lon="-5.1819600">
        <ele>10.2</ele>
        <time>2019-08-28T07:32:39Z</time>
      </trkpt>
      <trkpt lat="36.4217460" lon="-5.1819620">
        <ele>10.1</ele>
        <time>2019-08-28T07:32:40Z</time>
      </trkpt>
      <trkpt lat="36.4216790" lon="-5.1819620">
        <ele>10.0</ele>
        <time>2019-08-28T07:32:41Z</time>
      </trkpt>
      <trkpt lat="36.4216120" lon="-5.1819600">
        <ele>10.0</ele>
        <time>2019-08-28T07:32:42Z</time>
      </trkpt>
      <trkpt lat="36.4215470" lon="-5.1819540">
        <ele>10.0</ele>
        <time>2019-08-28T07:32:43Z</time>
      </trkpt>
      <trkpt lat="36.4214830" lon="-5.1819430">
        <ele>10.1</ele>
        <time>2019-08-28T07:32:44Z</time>
      </trkpt>
      <trkpt lat="36.4214220" lon="-5.1819240">
        <ele>10.1</ele>
        <time>2019-08-28T07:32:45Z</time>
      </trkpt>
      <trkpt lat="36.4213630" lon="-5.1819000">
        <ele>10.1</ele>
        <time>2019-08-28T07:32:46Z</time>
      </trkpt>
      <trkpt lat="36.4213040" lon="-5.1818710">
        <ele>10.1</ele>
        <time>2019-08-28T07:32:47Z</time>
      </trkpt>
      <trkpt lat="36.4212450" lon="-5.1818400">
        <ele>10.1</ele>
        <time>2019-08-28T07:32:48Z</time>
      </trkpt>
      <trkpt lat="36.4211870" lon="-5.1818050">
        <ele>10.1</ele>
        <time>2019-08-28T07:32:49Z</time>
      </trkpt>
      <trkpt lat="36.4211330" lon="-5.1817650">
        <ele>10.2</ele>
        <time>2019-08-28T07:32:50Z</time>
      </trkpt>
      <trkpt lat="36.4210820" lon="-5.1817190">
        <ele>10.2</ele>
        <time>2019-08-28T07:32:51Z</time>
      </trkpt>
      <trkpt lat="36.4210360" lon="-5.1816680">
        <ele>10.2</ele>
        <time>2019-08-28T07:32:52Z</time>
      </trkpt>
      <trkpt lat="36.4209900" lon="-5.1816190">
        <ele>10.2</ele>
        <time>2019-08-28T07:32:53Z</time>
      </trkpt>
      <trkpt lat="36.4209420" lon="-5.1815680">
        <ele>10.2</ele>
        <time>2019-08-28T07:32:54Z</time>
      </trkpt>
      <trkpt lat="36.4208960" lon="-5.1815150">
        <ele>10.2</ele>
        <time>2019-08-28T07:32:55Z</time>
      </trkpt>
      <trkpt lat="36.4208540" lon="-5.1814570">
        <ele>10.2</ele>
        <time>2019-08-28T07:32:56Z</time>
      </trkpt>
      <trkpt lat="36.4208150" lon="-5.1813960">
        <ele>10.2</ele>
        <time>2019-08-28T07:32:57Z</time>
      </trkpt>
      <trkpt lat="36.4207760" lon="-5.1813390">
        <ele>10.2</ele>
        <time>2019-08-28T07:32:58Z</time>
      </trkpt>
      <trkpt lat="36.4207330" lon="-5.1812890">
        <ele>10.1</ele>
        <time>2019-08-28T07:32:59Z</time>
      </trkpt>
      <trkpt lat="36.4206870" lon="-5.1812470">
        <ele>10.1</ele>
        <time>2019-08-28T07:33:00Z</time>
      </trkpt>
      <trkpt lat="36.4206380" lon="-5.1812130">
        <ele>10.1</ele>
        <time>2019-08-28T07:33:01Z</time>
      </trkpt>
      <trkpt lat="36.4205850" lon="-5.1811860">
        <ele>10.1</ele>
        <time>2019-08-28T07:33:02Z</time>
      </trkpt>
      <trkpt lat="36.4205330" lon="-5.1811640">
        <ele>10.1</ele>
        <time>2019-08-28T07:33:03Z</time>
      </trkpt>
      <trkpt lat="36.4204790" lon="-5.1811430">
        <ele>10.1</ele>
        <time>2019-08-28T07:33:04Z</time>
      </trkpt>
      <trkpt lat="36.4204250" lon="-5.1811230">
        <ele>10.0</ele>
        <time>2019-08-28T07:33:05Z</time>
      </trkpt>
      <trkpt lat="36.4203690" lon="-5.1811060">
        <ele>10.0</ele>
        <time>2019-08-28T07:33:06Z</time>
      </trkpt>
      <trkpt lat="36.4203110" lon="-5.1810890">
        <ele>9.9</ele>
        <time>2019-08-28T07:33:07Z</time>
      </trkpt>
      <trkpt lat="36.4202530" lon="-5.1810730">
        <ele>9.9</ele>
        <time>2019-08-28T07:33:08Z</time>
      </trkpt>
      <trkpt lat="36.4201930" lon="-5.1810580">
        <ele>9.8</ele>
        <time>2019-08-28T07:33:09Z</time>
      </trkpt>
      <trkpt lat="36.4201330" lon="-5.1810410">
        <ele>9.7</ele>
        <time>2019-08-28T07:33:10Z</time>
      </trkpt>
      <trkpt lat="36.4200730" lon="-5.1810240">
        <ele>9.6</ele>
        <time>2019-08-28T07:33:11Z</time>
      </trkpt>
      <trkpt lat="36.4200140" lon="-5.1810020">
        <ele>9.5</ele>
        <time>2019-08-28T07:33:12Z</time>
      </trkpt>
      <trkpt lat="36.4199570" lon="-5.1809750">
        <ele>9.3</ele>
        <time>2019-08-28T07:33:13Z</time>
      </trkpt>
      <trkpt lat="36.4199030" lon="-5.1809420">
        <ele>9.2</ele>
        <time>2019-08-28T07:33:14Z</time>
      </trkpt>
      <trkpt lat="36.4198520" lon="-5.1809060">
        <ele>9.1</ele>
        <time>2019-08-28T07:33:15Z</time>
      </trkpt>
      <trkpt lat="36.4198000" lon="-5.1808710">
        <ele>9.1</ele>
        <time>2019-08-28T07:33:16Z</time>
      </trkpt>
      <trkpt lat="36.4197500" lon="-5.1808390">
        <ele>9.1</ele>
        <time>2019-08-28T07:33:17Z</time>
      </trkpt>
      <trkpt lat="36.4196970" lon="-5.1808090">
        <ele>9.1</ele>
        <time>2019-08-28T07:33:18Z</time>
      </trkpt>
      <trkpt lat="36.4196440" lon="-5.1807800">
        <ele>9.1</ele>
        <time>2019-08-28T07:33:19Z</time>
      </trkpt>
      <trkpt lat="36.4195900" lon="-5.1807510">
        <ele>9.1</ele>
        <time>2019-08-28T07:33:20Z</time>
      </trkpt>
      <trkpt lat="36.4195360" lon="-5.1807200">
        <ele>9.1</ele>
        <time>2019-08-28T07:33:21Z</time>
      </trkpt>
      <trkpt lat="36.4194840" lon="-5.1806860">
        <ele>9.1</ele>
        <time>2019-08-28T07:33:22Z</time>
      </trkpt>
      <trkpt lat="36.4194340" lon="-5.1806480">
        <ele>9.2</ele>
        <time>2019-08-28T07:33:23Z</time>
      </trkpt>
      <trkpt lat="36.4193840" lon="-5.1806090">
        <ele>9.2</ele>
        <time>2019-08-28T07:33:24Z</time>
      </trkpt>
      <trkpt lat="36.4193340" lon="-5.1805690">
        <ele>9.2</ele>
        <time>2019-08-28T07:33:25Z</time>
      </trkpt>
      <trkpt lat="36.4192830" lon="-5.1805300">
        <ele>9.2</ele>
        <time>2019-08-28T07:33:26Z</time>
      </trkpt>
      <trkpt lat="36.4192310" lon="-5.1804920">
        <ele>9.2</ele>
        <time>2019-08-28T07:33:27Z</time>
      </trkpt>
      <trkpt lat="36.4191790" lon="-5.1804550">
        <ele>9.2</ele>
        <time>2019-08-28T07:33:28Z</time>
      </trkpt>
      <trkpt lat="36.4191250" lon="-5.1804170">
        <ele>9.1</ele>
        <time>2019-08-28T07:33:29Z</time>
      </trkpt>
      <trkpt lat="36.4190710" lon="-5.1803770">
        <ele>9.1</ele>
        <time>2019-08-28T07:33:30Z</time>
      </trkpt>
      <trkpt lat="36.4190170" lon="-5.1803350">
        <ele>9.0</ele>
        <time>2019-08-28T07:33:31Z</time>
      </trkpt>
      <trkpt lat="36.4189630" lon="-5.1802900">
        <ele>8.9</ele>
        <time>2019-08-28T07:33:32Z</time>
      </trkpt>
      <trkpt lat="36.4189090" lon="-5.1802410">
        <ele>8.8</ele>
        <time>2019-08-28T07:33:33Z</time>
      </trkpt>
      <trkpt lat="36.4188570" lon="-5.1801910">
        <ele>8.8</ele>
        <time>2019-08-28T07:33:34Z</time>
      </trkpt>
      <trkpt lat="36.4188060" lon="-5.1801380">
        <ele>8.7</ele>
        <time>2019-08-28T07:33:35Z</time>
      </trkpt>
      <trkpt lat="36.4187540" lon="-5.1800850">
        <ele>8.6</ele>
        <time>2019-08-28T07:33:36Z</time>
      </trkpt>
      <trkpt lat="36.4187020" lon="-5.1800330">
        <ele>8.5</ele>
        <time>2019-08-28T07:33:37Z</time>
      </trkpt>
      <trkpt lat="36.4186480" lon="-5.1799820">
        <ele>8.5</ele>
        <time>2019-08-28T07:33:38Z</time>
      </trkpt>
      <trkpt lat="36.4185920" lon="-5.1799340">
        <ele>8.5</ele>
        <time>2019-08-28T07:33:39Z</time>
      </trkpt>
      <trkpt lat="36.4185340" lon="-5.1798910">
        <ele>8.5</ele>
        <time>2019-08-28T07:33:40Z</time>
      </trkpt>
      <trkpt lat="36.4184760" lon="-5.1798520">
        <ele>8.5</ele>
        <time>2019-08-28T07:33:41Z</time>
      </trkpt>
      <trkpt lat="36.4184170" lon="-5.1798140">
        <ele>8.6</ele>
        <time>2019-08-28T07:33:42Z</time>
      </trkpt>
      <trkpt lat="36.4183600" lon="-5.1797770">
        <ele>8.6</ele>
        <time>2019-08-28T07:33:43Z</time>
      </trkpt>
      <trkpt lat="36.4183050" lon="-5.1797410">
        <ele>8.6</ele>
        <time>2019-08-28T07:33:44Z</time>
      </trkpt>
      <trkpt lat="36.4182500" lon="-5.1797020">
        <ele>8.6</ele>
        <time>2019-08-28T07:33:45Z</time>
      </trkpt>
      <trkpt lat="36.4181970" lon="-5.1796610">
        <ele>8.7</ele>
        <time>2019-08-28T07:33:46Z</time>
      </trkpt>
      <trkpt lat="36.4181470" lon="-5.1796170">
        <ele>8.7</ele>
        <time>2019-08-28T07:33:47Z</time>
      </trkpt>
      <trkpt lat="36.4180990" lon="-5.1795690">
        <ele>8.7</ele>
        <time>2019-08-28T07:33:48Z</time>
      </trkpt>
      <trkpt lat="36.4180550" lon="-5.1795170">
        <ele>8.7</ele>
        <time>2019-08-28T07:33:49Z</time>
      </trkpt>
      <trkpt lat="36.4180170" lon="-5.1794610">
        <ele>8.7</ele>
        <time>2019-08-28T07:33:50Z</time>
      </trkpt>
      <trkpt lat="36.4179850" lon="-5.1794030">
        <ele>8.7</ele>
        <time>2019-08-28T07:33:51Z</time>
      </trkpt>
      <trkpt lat="36.4179560" lon="-5.1793430">
        <ele>8.7</ele>
        <time>2019-08-28T07:33:52Z</time>
      </trkpt>
      <trkpt lat="36.4179290" lon="-5.1792820">
        <ele>8.8</ele>
        <time>2019-08-28T07:33:53Z</time>
      </trkpt>
      <trkpt lat="36.4179020" lon="-5.1792210">
        <ele>8.8</ele>
        <time>2019-08-28T07:33:54Z</time>
      </trkpt>
      <trkpt lat="36.4178740" lon="-5.1791600">
        <ele>8.8</ele>
        <time>2019-08-28T07:33:55Z</time>
      </trkpt>
      <trkpt lat="36.4178460" lon="-5.1791000">
        <ele>8.8</ele>
        <time>2019-08-28T07:33:56Z</time>
      </trkpt>
      <trkpt lat="36.4178190" lon="-5.1790380">
        <ele>8.7</ele>
        <time>2019-08-28T07:33:57Z</time>
      </trkpt>
      <trkpt lat="36.4177920" lon="-5.1789770">
        <ele>8.7</ele>
        <time>2019-08-28T07:33:58Z</time>
      </trkpt>
      <trkpt lat="36.4177670" lon="-5.1789140">
        <ele>8.7</ele>
        <time>2019-08-28T07:33:59Z</time>
      </trkpt>
      <trkpt lat="36.4177450" lon="-5.1788500">
        <ele>8.6</ele>
        <time>2019-08-28T07:34:00Z</time>
      </trkpt>
      <trkpt lat="36.4177260" lon="-5.1787840">
        <ele>8.6</ele>
        <time>2019-08-28T07:34:01Z</time>
      </trkpt>
      <trkpt lat="36.4177100" lon="-5.1787160">
        <ele>8.6</ele>
        <time>2019-08-28T07:34:02Z</time>
      </trkpt>
      <trkpt lat="36.4176970" lon="-5.1786470">
        <ele>8.5</ele>
        <time>2019-08-28T07:34:03Z</time>
      </trkpt>
      <trkpt lat="36.4176870" lon="-5.1785790">
        <ele>8.5</ele>
        <time>2019-08-28T07:34:04Z</time>
      </trkpt>
      <trkpt lat="36.4176770" lon="-5.1785110">
        <ele>8.4</ele>
        <time>2019-08-28T07:34:05Z</time>
      </trkpt>
      <trkpt lat="36.4176670" lon="-5.1784440">
        <ele>8.4</ele>
        <time>2019-08-28T07:34:06Z</time>
      </trkpt>
      <trkpt lat="36.4176540" lon="-5.1783790">
        <ele>8.3</ele>
        <time>2019-08-28T07:34:07Z</time>
      </trkpt>
      <trkpt lat="36.4176350" lon="-5.1783180">
        <ele>8.3</ele>
        <time>2019-08-28T07:34:08Z</time>
      </trkpt>
      <trkpt lat="36.4176100" lon="-5.1782660">
        <ele>8.3</ele>
        <time>2019-08-28T07:34:09Z</time>
      </trkpt>
      <trkpt lat="36.4175840" lon="-5.1782220">
        <ele>8.2</ele>
        <time>2019-08-28T07:34:10Z</time>
      </trkpt>
      <trkpt lat="36.4175600" lon="-5.1781830">
        <ele>8.2</ele>
        <time>2019-08-28T07:34:11Z</time>
      </trkpt>
      <trkpt lat="36.4175370" lon="-5.1781450">
        <ele>8.4</ele>
        <time>2019-08-28T07:34:12Z</time>
      </trkpt>
      <trkpt lat="36.4175100" lon="-5.1781070">
        <ele>8.4</ele>
        <time>2019-08-28T07:34:13Z</time>
      </trkpt>
      <trkpt lat="36.4174740" lon="-5.1780790">
        <ele>8.4</ele>
        <time>2019-08-28T07:34:14Z</time>
      </trkpt>
      <trkpt lat="36.4174320" lon="-5.1780670">
        <ele>7.4</ele>
        <time>2019-08-28T07:34:15Z</time>
      </trkpt>
      <trkpt lat="36.4173870" lon="-5.1780760">
        <ele>7.2</ele>
        <time>2019-08-28T07:34:16Z</time>
      </trkpt>
      <trkpt lat="36.4173410" lon="-5.1780960">
        <ele>7.0</ele>
        <time>2019-08-28T07:34:17Z</time>
      </trkpt>
      <trkpt lat="36.4172950" lon="-5.1781230">
        <ele>6.7</ele>
        <time>2019-08-28T07:34:18Z</time>
      </trkpt>
      <trkpt lat="36.4172470" lon="-5.1781510">
        <ele>6.5</ele>
        <time>2019-08-28T07:34:19Z</time>
      </trkpt>
      <trkpt lat="36.4172000" lon="-5.1781820">
        <ele>6.3</ele>
        <time>2019-08-28T07:34:20Z</time>
      </trkpt>
      <trkpt lat="36.4171520" lon="-5.1782130">
        <ele>6.1</ele>
        <time>2019-08-28T07:34:21Z</time>
      </trkpt>
      <trkpt lat="36.4171050" lon="-5.1782470">
        <ele>5.8</ele>
        <time>2019-08-28T07:34:22Z</time>
      </trkpt>
      <trkpt lat="36.4170570" lon="-5.1782820">
        <ele>5.6</ele>
        <time>2019-08-28T07:34:23Z</time>
      </trkpt>
      <trkpt lat="36.4170090" lon="-5.1783190">
        <ele>5.3</ele>
        <time>2019-08-28T07:34:24Z</time>
      </trkpt>
      <trkpt lat="36.4169600" lon="-5.1783600">
        <ele>5.0</ele>
        <time>2019-08-28T07:34:25Z</time>
      </trkpt>
      <trkpt lat="36.4169120" lon="-5.1784040">
        <ele>4.7</ele>
        <time>2019-08-28T07:34:26Z</time>
      </trkpt>
      <trkpt lat="36.4168650" lon="-5.1784510">
        <ele>4.4</ele>
        <time>2019-08-28T07:34:27Z</time>
      </trkpt>
      <trkpt lat="36.4168170" lon="-5.1784980">
        <ele>4.1</ele>
        <time>2019-08-28T07:34:28Z</time>
      </trkpt>
      <trkpt lat="36.4167690" lon="-5.1785450">
        <ele>3.7</ele>
        <time>2019-08-28T07:34:29Z</time>
      </trkpt>
      <trkpt lat="36.4167210" lon="-5.1785910">
        <ele>3.4</ele>
        <time>2019-08-28T07:34:30Z</time>
      </trkpt>
      <trkpt lat="36.4166740" lon="-5.1786360">
        <ele>3.2</ele>
        <time>2019-08-28T07:34:31Z</time>
      </trkpt>
      <trkpt lat="36.4166270" lon="-5.1786800">
        <ele>3.1</ele>
        <time>2019-08-28T07:34:32Z</time>
      </trkpt>
      <trkpt lat="36.4165800" lon="-5.1787240">
        <ele>3.1</ele>
        <time>2019-08-28T07:34:33Z</time>
      </trkpt>
      <trkpt lat="36.4165340" lon="-5.1787670">
        <ele>3.1</ele>
        <time>2019-08-28T07:34:34Z</time>
      </trkpt>
      <trkpt lat="36.4164860" lon="-5.1788090">
        <ele>3.2</ele>
        <time>2019-08-28T07:34:35Z</time>
      </trkpt>
      <trkpt lat="36.4164390" lon="-5.1788520">
        <ele>3.3</ele>
        <time>2019-08-28T07:34:36Z</time>
      </trkpt>
      <trkpt lat="36.4163920" lon="-5.1788940">
        <ele>3.4</ele>
        <time>2019-08-28T07:34:37Z</time>
      </trkpt>
      <trkpt lat="36.4163450" lon="-5.1789360">
        <ele>3.5</ele>
        <time>2019-08-28T07:34:38Z</time>
      </trkpt>
      <trkpt lat="36.4162990" lon="-5.1789770">
        <ele>3.6</ele>
        <time>2019-08-28T07:34:39Z</time>
      </trkpt>
      <trkpt lat="36.4162550" lon="-5.1790180">
        <ele>3.7</ele>
        <time>2019-08-28T07:34:40Z</time>
      </trkpt>
      <trkpt lat="36.4162090" lon="-5.1790590">
        <ele>3.8</ele>
        <time>2019-08-28T07:34:41Z</time>
      </trkpt>
      <trkpt lat="36.4161610" lon="-5.1791010">
        <ele>3.9</ele>
        <time>2019-08-28T07:34:42Z</time>
      </trkpt>
      <trkpt lat="36.4161120" lon="-5.1791450">
        <ele>4.0</ele>
        <time>2019-08-28T07:34:43Z</time>
      </trkpt>
      <trkpt lat="36.4160620" lon="-5.1791900">
        <ele>4.2</ele>
        <time>2019-08-28T07:34:44Z</time>
      </trkpt>
      <trkpt lat="36.4160120" lon="-5.1792380">
        <ele>4.4</ele>
        <time>2019-08-28T07:34:45Z</time>
      </trkpt>
      <trkpt lat="36.4159620" lon="-5.1792890">
        <ele>4.6</ele>
        <time>2019-08-28T07:34:46Z</time>
      </trkpt>
      <trkpt lat="36.4159130" lon="-5.1793410">
        <ele>4.8</ele>
        <time>2019-08-28T07:34:47Z</time>
      </trkpt>
      <trkpt lat="36.4158640" lon="-5.1793960">
        <ele>5.0</ele>
        <time>2019-08-28T07:34:48Z</time>
      </trkpt>
      <trkpt lat="36.4158130" lon="-5.1794490">
        <ele>5.2</ele>
        <time>2019-08-28T07:34:49Z</time>
      </trkpt>
      <trkpt lat="36.4157610" lon="-5.1795000">
        <ele>5.3</ele>
        <time>2019-08-28T07:34:50Z</time>
      </trkpt>
      <trkpt lat="36.4157070" lon="-5.1795500">
        <ele>5.5</ele>
        <time>2019-08-28T07:34:51Z</time>
      </trkpt>
      <trkpt lat="36.4156530" lon="-5.1796000">
        <ele>5.7</ele>
        <time>2019-08-28T07:34:52Z</time>
      </trkpt>
      <trkpt lat="36.4155980" lon="-5.1796500">
        <ele>5.9</ele>
        <time>2019-08-28T07:34:53Z</time>
      </trkpt>
      <trkpt lat="36.4155440" lon="-5.1796990">
        <ele>6.0</ele>
        <time>2019-08-28T07:34:54Z</time>
      </trkpt>
      <trkpt lat="36.4154890" lon="-5.1797450">
        <ele>6.2</ele>
        <time>2019-08-28T07:34:55Z</time>
      </trkpt>
      <trkpt lat="36.4154330" lon="-5.1797910">
        <ele>6.6</ele>
        <time>2019-08-28T07:34:56Z</time>
      </trkpt>
      <trkpt lat="36.4153780" lon="-5.1798340">
        <ele>6.8</ele>
        <time>2019-08-28T07:34:57Z</time>
      </trkpt>
      <trkpt lat="36.4153240" lon="-5.1798780">
        <ele>7.0</ele>
        <time>2019-08-28T07:34:58Z</time>
      </trkpt>
      <trkpt lat="36.4152710" lon="-5.1799210">
        <ele>7.2</ele>
        <time>2019-08-28T07:34:59Z</time>
      </trkpt>
      <trkpt lat="36.4152200" lon="-5.1799640">
        <ele>7.4</ele>
        <time>2019-08-28T07:35:00Z</time>
      </trkpt>
      <trkpt lat="36.4151700" lon="-5.1800070">
        <ele>7.6</ele>
        <time>2019-08-28T07:35:01Z</time>
      </trkpt>
      <trkpt lat="36.4151220" lon="-5.1800510">
        <ele>7.8</ele>
        <time>2019-08-28T07:35:02Z</time>
      </trkpt>
      <trkpt lat="36.4150750" lon="-5.1800940">
        <ele>8.0</ele>
        <time>2019-08-28T07:35:03Z</time>
      </trkpt>
      <trkpt lat="36.4150290" lon="-5.1801380">
        <ele>8.1</ele>
        <time>2019-08-28T07:35:04Z</time>
      </trkpt>
      <trkpt lat="36.4149840" lon="-5.1801810">
        <ele>8.3</ele>
        <time>2019-08-28T07:35:05Z</time>
      </trkpt>
      <trkpt lat="36.4149390" lon="-5.1802240">
        <ele>8.4</ele>
        <time>2019-08-28T07:35:06Z</time>
      </trkpt>
      <trkpt lat="36.4148950" lon="-5.1802660">
        <ele>8.6</ele>
        <time>2019-08-28T07:35:07Z</time>
      </trkpt>
      <trkpt lat="36.4148520" lon="-5.1803070">
        <ele>8.7</ele>
        <time>2019-08-28T07:35:08Z</time>
      </trkpt>
      <trkpt lat="36.4148090" lon="-5.1803480">
        <ele>8.8</ele>
        <time>2019-08-28T07:35:09Z</time>
      </trkpt>
      <trkpt lat="36.4147660" lon="-5.1803890">
        <ele>8.9</ele>
        <time>2019-08-28T07:35:10Z</time>
      </trkpt>
      <trkpt lat="36.4147250" lon="-5.1804300">
        <ele>9.0</ele>
        <time>2019-08-28T07:35:11Z</time>
      </trkpt>
      <trkpt lat="36.4146820" lon="-5.1804700">
        <ele>9.1</ele>
        <time>2019-08-28T07:35:12Z</time>
      </trkpt>
      <trkpt lat="36.4146400" lon="-5.1805090">
        <ele>9.3</ele>
        <time>2019-08-28T07:35:13Z</time>
      </trkpt>
      <trkpt lat="36.4145980" lon="-5.1805500">
        <ele>9.4</ele>
        <time>2019-08-28T07:35:14Z</time>
      </trkpt>
      <trkpt lat="36.4145550" lon="-5.1805910">
        <ele>9.5</ele>
        <time>2019-08-28T07:35:15Z</time>
      </trkpt>
      <trkpt lat="36.4145130" lon="-5.1806310">
        <ele>9.7</ele>
        <time>2019-08-28T07:35:16Z</time>
      </trkpt>
      <trkpt lat="36.4144700" lon="-5.1806700">
        <ele>9.9</ele>
        <time>2019-08-28T07:35:17Z</time>
      </trkpt>
      <trkpt lat="36.4144280" lon="-5.1807090">
        <ele>10.1</ele>
        <time>2019-08-28T07:35:18Z</time>
      </trkpt>
      <trkpt lat="36.4143850" lon="-5.1807480">
        <ele>10.3</ele>
        <time>2019-08-28T07:35:19Z</time>
      </trkpt>
      <trkpt lat="36.4143430" lon="-5.1807870">
        <ele>10.5</ele>
        <time>2019-08-28T07:35:20Z</time>
      </trkpt>
      <trkpt lat="36.4143000" lon="-5.1808270">
        <ele>10.7</ele>
        <time>2019-08-28T07:35:21Z</time>
      </trkpt>
      <trkpt lat="36.4142570" lon="-5.1808670">
        <ele>11.0</ele>
        <time>2019-08-28T07:35:22Z</time>
      </trkpt>
      <trkpt lat="36.4142140" lon="-5.1809080">
        <ele>11.2</ele>
        <time>2019-08-28T07:35:23Z</time>
      </trkpt>
      <trkpt lat="36.4141700" lon="-5.1809490">
        <ele>11.3</ele>
        <time>2019-08-28T07:35:24Z</time>
      </trkpt>
      <trkpt lat="36.4141270" lon="-5.1809900">
        <ele>11.5</ele>
        <time>2019-08-28T07:35:25Z</time>
      </trkpt>
      <trkpt lat="36.4140830" lon="-5.1810300">
        <ele>11.6</ele>
        <time>2019-08-28T07:35:26Z</time>
      </trkpt>
      <trkpt lat="36.4140380" lon="-5.1810710">
        <ele>11.6</ele>
        <time>2019-08-28T07:35:27Z</time>
      </trkpt>
      <trkpt lat="36.4139940" lon="-5.1811120">
        <ele>11.6</ele>
        <time>2019-08-28T07:35:28Z</time>
      </trkpt>
      <trkpt lat="36.4139510" lon="-5.1811540">
        <ele>11.6</ele>
        <time>2019-08-28T07:35:29Z</time>
      </trkpt>
      <trkpt lat="36.4139070" lon="-5.1811960">
        <ele>11.6</ele>
        <time>2019-08-28T07:35:30Z</time>
      </trkpt>
      <trkpt lat="36.4138620" lon="-5.1812370">
        <ele>11.5</ele>
        <time>2019-08-28T07:35:31Z</time>
      </trkpt>
      <trkpt lat="36.4138180" lon="-5.1812790">
        <ele>11.4</ele>
        <time>2019-08-28T07:35:32Z</time>
      </trkpt>
      <trkpt lat="36.4137730" lon="-5.1813200">
        <ele>11.3</ele>
        <time>2019-08-28T07:35:33Z</time>
      </trkpt>
      <trkpt lat="36.4137280" lon="-5.1813610">
        <ele>11.2</ele>
        <time>2019-08-28T07:35:34Z</time>
      </trkpt>
      <trkpt lat="36.4136820" lon="-5.1814030">
        <ele>11.1</ele>
        <time>2019-08-28T07:35:35Z</time>
      </trkpt>
      <trkpt lat="36.4136370" lon="-5.1814460">
        <ele>11.1</ele>
        <time>2019-08-28T07:35:36Z</time>
      </trkpt>
      <trkpt lat="36.4135910" lon="-5.1814900">
        <ele>11.1</ele>
        <time>2019-08-28T07:35:37Z</time>
      </trkpt>
      <trkpt lat="36.4135450" lon="-5.1815340">
        <ele>11.0</ele>
        <time>2019-08-28T07:35:38Z</time>
      </trkpt>
      <trkpt lat="36.4134980" lon="-5.1815780">
        <ele>11.0</ele>
        <time>2019-08-28T07:35:39Z</time>
      </trkpt>
      <trkpt lat="36.4134520" lon="-5.1816220">
        <ele>11.1</ele>
        <time>2019-08-28T07:35:40Z</time>
      </trkpt>
      <trkpt lat="36.4134040" lon="-5.1816660">
        <ele>11.1</ele>
        <time>2019-08-28T07:35:41Z</time>
      </trkpt>
      <trkpt lat="36.4133560" lon="-5.1817110">
        <ele>11.2</ele>
        <time>2019-08-28T07:35:42Z</time>
      </trkpt>
      <trkpt lat="36.4133070" lon="-5.1817560">
        <ele>11.2</ele>
        <time>2019-08-28T07:35:43Z</time>
      </trkpt>
      <trkpt lat="36.4132580" lon="-5.1818020">
        <ele>11.3</ele>
        <time>2019-08-28T07:35:44Z</time>
      </trkpt>
      <trkpt lat="36.4132080" lon="-5.1818480">
        <ele>11.4</ele>
        <time>2019-08-28T07:35:45Z</time>
      </trkpt>
      <trkpt lat="36.4131580" lon="-5.1818960">
        <ele>11.5</ele>
        <time>2019-08-28T07:35:46Z</time>
      </trkpt>
      <trkpt lat="36.4131070" lon="-5.1819440">
        <ele>11.5</ele>
        <time>2019-08-28T07:35:47Z</time>
      </trkpt>
      <trkpt lat="36.4130560" lon="-5.1819920">
        <ele>11.6</ele>
        <time>2019-08-28T07:35:48Z</time>
      </trkpt>
      <trkpt lat="36.4130050" lon="-5.1820420">
        <ele>11.7</ele>
        <time>2019-08-28T07:35:49Z</time>
      </trkpt>
      <trkpt lat="36.4129530" lon="-5.1820920">
        <ele>11.8</ele>
        <time>2019-08-28T07:35:50Z</time>
      </trkpt>
      <trkpt lat="36.4129000" lon="-5.1821430">
        <ele>11.9</ele>
        <time>2019-08-28T07:35:51Z</time>
      </trkpt>
      <trkpt lat="36.4128470" lon="-5.1821940">
        <ele>12.0</ele>
        <time>2019-08-28T07:35:52Z</time>
      </trkpt>
      <trkpt lat="36.4127930" lon="-5.1822450">
        <ele>12.0</ele>
        <time>2019-08-28T07:35:53Z</time>
      </trkpt>
      <trkpt lat="36.4127380" lon="-5.1822970">
        <ele>12.1</ele>
        <time>2019-08-28T07:35:54Z</time>
      </trkpt>
      <trkpt lat="36.4126820" lon="-5.1823500">
        <ele>12.2</ele>
        <time>2019-08-28T07:35:55Z</time>
      </trkpt>
      <trkpt lat="36.4126250" lon="-5.1824040">
        <ele>12.3</ele>
        <time>2019-08-28T07:35:56Z</time>
      </trkpt>
      <trkpt lat="36.4125670" lon="-5.1824580">
        <ele>12.4</ele>
        <time>2019-08-28T07:35:57Z</time>
      </trkpt>
      <trkpt lat="36.4125080" lon="-5.1825140">
        <ele>12.5</ele>
        <time>2019-08-28T07:35:58Z</time>
      </trkpt>
      <trkpt lat="36.4124480" lon="-5.1825700">
        <ele>12.6</ele>
        <time>2019-08-28T07:35:59Z</time>
      </trkpt>
      <trkpt lat="36.4123870" lon="-5.1826280">
        <ele>12.7</ele>
        <time>2019-08-28T07:36:00Z</time>
      </trkpt>
      <trkpt lat="36.4123250" lon="-5.1826860">
        <ele>12.8</ele>
        <time>2019-08-28T07:36:01Z</time>
      </trkpt>
      <trkpt lat="36.4122610" lon="-5.1827460">
        <ele>12.9</ele>
        <time>2019-08-28T07:36:02Z</time>
      </trkpt>
      <trkpt lat="36.4121950" lon="-5.1828060">
        <ele>13.0</ele>
        <time>2019-08-28T07:36:03Z</time>
      </trkpt>
      <trkpt lat="36.4121270" lon="-5.1828670">
        <ele>13.1</ele>
        <time>2019-08-28T07:36:04Z</time>
      </trkpt>
      <trkpt lat="36.4120580" lon="-5.1829290">
        <ele>13.2</ele>
        <time>2019-08-28T07:36:05Z</time>
      </trkpt>
      <trkpt lat="36.4119880" lon="-5.1829920">
        <ele>13.3</ele>
        <time>2019-08-28T07:36:06Z</time>
      </trkpt>
      <trkpt lat="36.4119170" lon="-5.1830550">
        <ele>13.4</ele>
        <time>2019-08-28T07:36:07Z</time>
      </trkpt>
      <trkpt lat="36.4118450" lon="-5.1831190">
        <ele>13.5</ele>
        <time>2019-08-28T07:36:08Z</time>
      </trkpt>
      <trkpt lat="36.4117730" lon="-5.1831820">
        <ele>13.7</ele>
        <time>2019-08-28T07:36:09Z</time>
      </trkpt>
      <trkpt lat="36.4117010" lon="-5.1832460">
        <ele>13.9</ele>
        <time>2019-08-28T07:36:10Z</time>
      </trkpt>
      <trkpt lat="36.4116290" lon="-5.1833090">
        <ele>14.1</ele>
        <time>2019-08-28T07:36:11Z</time>
      </trkpt>
      <trkpt lat="36.4115570" lon="-5.1833720">
        <ele>14.4</ele>
        <time>2019-08-28T07:36:12Z</time>
      </trkpt>
      <trkpt lat="36.4114870" lon="-5.1834330">
        <ele>14.8</ele>
        <time>2019-08-28T07:36:13Z</time>
      </trkpt>
      <trkpt lat="36.4114160" lon="-5.1834930">
        <ele>15.1</ele>
        <time>2019-08-28T07:36:14Z</time>
      </trkpt>
      <trkpt lat="36.4113480" lon="-5.1835510">
        <ele>15.5</ele>
        <time>2019-08-28T07:36:15Z</time>
      </trkpt>
      <trkpt lat="36.4112810" lon="-5.1836090">
        <ele>15.8</ele>
        <time>2019-08-28T07:36:16Z</time>
      </trkpt>
      <trkpt lat="36.4112180" lon="-5.1836670">
        <ele>16.1</ele>
        <time>2019-08-28T07:36:17Z</time>
      </trkpt>
      <trkpt lat="36.4111570" lon="-5.1837260">
        <ele>16.4</ele>
        <time>2019-08-28T07:36:18Z</time>
      </trkpt>
      <trkpt lat="36.4110980" lon="-5.1837850">
        <ele>16.7</ele>
        <time>2019-08-28T07:36:19Z</time>
      </trkpt>
      <trkpt lat="36.4110400" lon="-5.1838410">
        <ele>16.9</ele>
        <time>2019-08-28T07:36:20Z</time>
      </trkpt>
      <trkpt lat="36.4109810" lon="-5.1838930">
        <ele>17.1</ele>
        <time>2019-08-28T07:36:21Z</time>
      </trkpt>
      <trkpt lat="36.4109240" lon="-5.1839440">
        <ele>17.1</ele>
        <time>2019-08-28T07:36:22Z</time>
      </trkpt>
      <trkpt lat="36.4108670" lon="-5.1839940">
        <ele>17.0</ele>
        <time>2019-08-28T07:36:23Z</time>
      </trkpt>
      <trkpt lat="36.4108110" lon="-5.1840440">
        <ele>16.8</ele>
        <time>2019-08-28T07:36:24Z</time>
      </trkpt>
      <trkpt lat="36.4107560" lon="-5.1840920">
        <ele>16.6</ele>
        <time>2019-08-28T07:36:25Z</time>
      </trkpt>
      <trkpt lat="36.4107010" lon="-5.1841400">
        <ele>16.5</ele>
        <time>2019-08-28T07:36:26Z</time>
      </trkpt>
      <trkpt lat="36.4106470" lon="-5.1841860">
        <ele>16.4</ele>
        <time>2019-08-28T07:36:27Z</time>
      </trkpt>
      <trkpt lat="36.4105930" lon="-5.1842310">
        <ele>16.2</ele>
        <time>2019-08-28T07:36:28Z</time>
      </trkpt>
      <trkpt lat="36.4105390" lon="-5.1842770">
        <ele>16.1</ele>
        <time>2019-08-28T07:36:29Z</time>
      </trkpt>
      <trkpt lat="36.4104870" lon="-5.1843220">
        <ele>16.0</ele>
        <time>2019-08-28T07:36:30Z</time>
      </trkpt>
      <trkpt lat="36.4104350" lon="-5.1843690">
        <ele>15.9</ele>
        <time>2019-08-28T07:36:31Z</time>
      </trkpt>
      <trkpt lat="36.4103850" lon="-5.1844180">
        <ele>15.9</ele>
        <time>2019-08-28T07:36:32Z</time>
      </trkpt>
      <trkpt lat="36.4103350" lon="-5.1844680">
        <ele>15.8</ele>
        <time>2019-08-28T07:36:33Z</time>
      </trkpt>
      <trkpt lat="36.4102860" lon="-5.1845210">
        <ele>15.7</ele>
        <time>2019-08-28T07:36:34Z</time>
      </trkpt>
      <trkpt lat="36.4102370" lon="-5.1845750">
        <ele>15.7</ele>
        <time>2019-08-28T07:36:35Z</time>
      </trkpt>
      <trkpt lat="36.4101880" lon="-5.1846300">
        <ele>15.7</ele>
        <time>2019-08-28T07:36:36Z</time>
      </trkpt>
      <trkpt lat="36.4101400" lon="-5.1846860">
        <ele>15.7</ele>
        <time>2019-08-28T07:36:37Z</time>
      </trkpt>
      <trkpt lat="36.4100920" lon="-5.1847430">
        <ele>15.7</ele>
        <time>2019-08-28T07:36:38Z</time>
      </trkpt>
      <trkpt lat="36.4100440" lon="-5.1848010">
        <ele>15.7</ele>
        <time>2019-08-28T07:36:39Z</time>
      </trkpt>
      <trkpt lat="36.4099970" lon="-5.1848610">
        <ele>15.7</ele>
        <time>2019-08-28T07:36:40Z</time>
      </trkpt>
      <trkpt lat="36.4099510" lon="-5.1849230">
        <ele>15.7</ele>
        <time>2019-08-28T07:36:41Z</time>
      </trkpt>
      <trkpt lat="36.4099080" lon="-5.1849890">
        <ele>15.7</ele>
        <time>2019-08-28T07:36:42Z</time>
      </trkpt>
      <trkpt lat="36.4098660" lon="-5.1850560">
        <ele>15.7</ele>
        <time>2019-08-28T07:36:43Z</time>
      </trkpt>
      <trkpt lat="36.4098230" lon="-5.1851240">
        <ele>15.7</ele>
        <time>2019-08-28T07:36:44Z</time>
      </trkpt>
      <trkpt lat="36.4097790" lon="-5.1851910">
        <ele>15.7</ele>
        <time>2019-08-28T07:36:45Z</time>
      </trkpt>
      <trkpt lat="36.4097340" lon="-5.1852570">
        <ele>15.7</ele>
        <time>2019-08-28T07:36:46Z</time>
      </trkpt>
      <trkpt lat="36.4096880" lon="-5.1853230">
        <ele>15.7</ele>
        <time>2019-08-28T07:36:47Z</time>
      </trkpt>
      <trkpt lat="36.4096430" lon="-5.1853900">
        <ele>15.7</ele>
        <time>2019-08-28T07:36:48Z</time>
      </trkpt>
      <trkpt lat="36.4095990" lon="-5.1854580">
        <ele>15.7</ele>
        <time>2019-08-28T07:36:49Z</time>
      </trkpt>
      <trkpt lat="36.4095540" lon="-5.1855260">
        <ele>15.8</ele>
        <time>2019-08-28T07:36:50Z</time>
      </trkpt>
      <trkpt lat="36.4095100" lon="-5.1855950">
        <ele>15.9</ele>
        <time>2019-08-28T07:36:51Z</time>
      </trkpt>
      <trkpt lat="36.4094670" lon="-5.1856630">
        <ele>16.0</ele>
        <time>2019-08-28T07:36:52Z</time>
      </trkpt>
      <trkpt lat="36.4094230" lon="-5.1857330">
        <ele>16.1</ele>
        <time>2019-08-28T07:36:53Z</time>
      </trkpt>
      <trkpt lat="36.4093800" lon="-5.1858030">
        <ele>16.2</ele>
        <time>2019-08-28T07:36:54Z</time>
      </trkpt>
      <trkpt lat="36.4093380" lon="-5.1858740">
        <ele>16.3</ele>
        <time>2019-08-28T07:36:55Z</time>
      </trkpt>
      <trkpt lat="36.4092950" lon="-5.1859460">
        <ele>16.5</ele>
        <time>2019-08-28T07:36:56Z</time>
      </trkpt>
      <trkpt lat="36.4092530" lon="-5.1860180">
        <ele>16.6</ele>
        <time>2019-08-28T07:36:57Z</time>
      </trkpt>
      <trkpt lat="36.4092110" lon="-5.1860910">
        <ele>16.7</ele>
        <time>2019-08-28T07:36:58Z</time>
      </trkpt>
      <trkpt lat="36.4091700" lon="-5.1861660">
        <ele>16.8</ele>
        <time>2019-08-28T07:36:59Z</time>
      </trkpt>
      <trkpt lat="36.4091290" lon="-5.1862410">
        <ele>16.5</ele>
        <time>2019-08-28T07:37:00Z</time>
      </trkpt>
      <trkpt lat="36.4090880" lon="-5.1863160">
        <ele>16.3</ele>
        <time>2019-08-28T07:37:01Z</time>
      </trkpt>
      <trkpt lat="36.4090470" lon="-5.1863890">
        <ele>16.3</ele>
        <time>2019-08-28T07:37:02Z</time>
      </trkpt>
      <trkpt lat="36.4090050" lon="-5.1864610">
        <ele>16.3</ele>
        <time>2019-08-28T07:37:03Z</time>
      </trkpt>
      <trkpt lat="36.4089620" lon="-5.1865340">
        <ele>16.4</ele>
        <time>2019-08-28T07:37:04Z</time>
      </trkpt>
      <trkpt lat="36.4089190" lon="-5.1866050">
        <ele>16.5</ele>
        <time>2019-08-28T07:37:05Z</time>
      </trkpt>
      <trkpt lat="36.4088750" lon="-5.1866760">
        <ele>16.7</ele>
        <time>2019-08-28T07:37:06Z</time>
      </trkpt>
      <trkpt lat="36.4088310" lon="-5.1867470">
        <ele>16.8</ele>
        <time>2019-08-28T07:37:07Z</time>
      </trkpt>
      <trkpt lat="36.4087870" lon="-5.1868190">
        <ele>16.9</ele>
        <time>2019-08-28T07:37:08Z</time>
      </trkpt>
      <trkpt lat="36.4087430" lon="-5.1868900">
        <ele>17.0</ele>
        <time>2019-08-28T07:37:09Z</time>
      </trkpt>
      <trkpt lat="36.4086980" lon="-5.1869600">
        <ele>17.1</ele>
        <time>2019-08-28T07:37:10Z</time>
      </trkpt>
      <trkpt lat="36.4086530" lon="-5.1870310">
        <ele>17.3</ele>
        <time>2019-08-28T07:37:11Z</time>
      </trkpt>
      <trkpt lat="36.4086070" lon="-5.1871010">
        <ele>17.5</ele>
        <time>2019-08-28T07:37:12Z</time>
      </trkpt>
      <trkpt lat="36.4085620" lon="-5.1871730">
        <ele>17.6</ele>
        <time>2019-08-28T07:37:13Z</time>
      </trkpt>
      <trkpt lat="36.4085180" lon="-5.1872460">
        <ele>17.8</ele>
        <time>2019-08-28T07:37:14Z</time>
      </trkpt>
      <trkpt lat="36.4084740" lon="-5.1873200">
        <ele>17.8</ele>
        <time>2019-08-28T07:37:15Z</time>
      </trkpt>
      <trkpt lat="36.4084280" lon="-5.1873940">
        <ele>17.9</ele>
        <time>2019-08-28T07:37:16Z</time>
      </trkpt>
      <trkpt lat="36.4083810" lon="-5.1874720">
        <ele>17.9</ele>
        <time>2019-08-28T07:37:17Z</time>
      </trkpt>
      <trkpt lat="36.4083350" lon="-5.1875500">
        <ele>17.8</ele>
        <time>2019-08-28T07:37:18Z</time>
      </trkpt>
      <trkpt lat="36.4082870" lon="-5.1876300">
        <ele>17.7</ele>
        <time>2019-08-28T07:37:19Z</time>
      </trkpt>
      <trkpt lat="36.4082400" lon="-5.1877080">
        <ele>17.5</ele>
        <time>2019-08-28T07:37:20Z</time>
      </trkpt>
      <trkpt lat="36.4081920" lon="-5.1877880">
        <ele>17.3</ele>
        <time>2019-08-28T07:37:21Z</time>
      </trkpt>
      <trkpt lat="36.4081440" lon="-5.1878670">
        <ele>17.1</ele>
        <time>2019-08-28T07:37:22Z</time>
      </trkpt>
      <trkpt lat="36.4080970" lon="-5.1879480">
        <ele>16.9</ele>
        <time>2019-08-28T07:37:23Z</time>
      </trkpt>
      <trkpt lat="36.4080520" lon="-5.1880320">
        <ele>16.6</ele>
        <time>2019-08-28T07:37:24Z</time>
      </trkpt>
      <trkpt lat="36.4080130" lon="-5.1881200">
        <ele>16.4</ele>
        <time>2019-08-28T07:37:25Z</time>
      </trkpt>
      <trkpt lat="36.4079830" lon="-5.1882130">
        <ele>16.2</ele>
        <time>2019-08-28T07:37:26Z</time>
      </trkpt>
      <trkpt lat="36.4079580" lon="-5.1883060">
        <ele>16.3</ele>
        <time>2019-08-28T07:37:27Z</time>
      </trkpt>
      <trkpt lat="36.4079300" lon="-5.1883960">
        <ele>16.5</ele>
        <time>2019-08-28T07:37:28Z</time>
      </trkpt>
      <trkpt lat="36.4078920" lon="-5.1884770">
        <ele>16.6</ele>
        <time>2019-08-28T07:37:29Z</time>
      </trkpt>
      <trkpt lat="36.4078410" lon="-5.1885470">
        <ele>17.0</ele>
        <time>2019-08-28T07:37:30Z</time>
      </trkpt>
      <trkpt lat="36.4077800" lon="-5.1886070">
        <ele>17.0</ele>
        <time>2019-08-28T07:37:31Z</time>
      </trkpt>
      <trkpt lat="36.4077140" lon="-5.1886630">
        <ele>16.6</ele>
        <time>2019-08-28T07:37:32Z</time>
      </trkpt>
      <trkpt lat="36.4076490" lon="-5.1887240">
        <ele>16.0</ele>
        <time>2019-08-28T07:37:33Z</time>
      </trkpt>
      <trkpt lat="36.4075880" lon="-5.1887940">
        <ele>15.6</ele>
        <time>2019-08-28T07:37:34Z</time>
      </trkpt>
      <trkpt lat="36.4075320" lon="-5.1888700">
        <ele>15.3</ele>
        <time>2019-08-28T07:37:35Z</time>
      </trkpt>
      <trkpt lat="36.4074770" lon="-5.1889490">
        <ele>14.9</ele>
        <time>2019-08-28T07:37:36Z</time>
      </trkpt>
      <trkpt lat="36.4074240" lon="-5.1890310">
        <ele>14.7</ele>
        <time>2019-08-28T07:37:37Z</time>
      </trkpt>
      <trkpt lat="36.4073700" lon="-5.1891130">
        <ele>14.4</ele>
        <time>2019-08-28T07:37:38Z</time>
      </trkpt>
      <trkpt lat="36.4073170" lon="-5.1891960">
        <ele>14.2</ele>
        <time>2019-08-28T07:37:39Z</time>
      </trkpt>
      <trkpt lat="36.4072620" lon="-5.1892800">
        <ele>13.9</ele>
        <time>2019-08-28T07:37:40Z</time>
      </trkpt>
      <trkpt lat="36.4072070" lon="-5.1893640">
        <ele>13.7</ele>
        <time>2019-08-28T07:37:41Z</time>
      </trkpt>
      <trkpt lat="36.4071500" lon="-5.1894490">
        <ele>13.6</ele>
        <time>2019-08-28T07:37:42Z</time>
      </trkpt>
      <trkpt lat="36.4070940" lon="-5.1895350">
        <ele>13.4</ele>
        <time>2019-08-28T07:37:43Z</time>
      </trkpt>
      <trkpt lat="36.4070360" lon="-5.1896210">
        <ele>13.2</ele>
        <time>2019-08-28T07:37:44Z</time>
      </trkpt>
      <trkpt lat="36.4069780" lon="-5.1897070">
        <ele>13.0</ele>
        <time>2019-08-28T07:37:45Z</time>
      </trkpt>
      <trkpt lat="36.4069200" lon="-5.1897930">
        <ele>12.9</ele>
        <time>2019-08-28T07:37:46Z</time>
      </trkpt>
      <trkpt lat="36.4068610" lon="-5.1898790">
        <ele>12.7</ele>
        <time>2019-08-28T07:37:47Z</time>
      </trkpt>
      <trkpt lat="36.4068020" lon="-5.1899660">
        <ele>12.5</ele>
        <time>2019-08-28T07:37:48Z</time>
      </trkpt>
      <trkpt lat="36.4067430" lon="-5.1900530">
        <ele>12.3</ele>
        <time>2019-08-28T07:37:49Z</time>
      </trkpt>
      <trkpt lat="36.4066840" lon="-5.1901410">
        <ele>12.2</ele>
        <time>2019-08-28T07:37:50Z</time>
      </trkpt>
      <trkpt lat="36.4066250" lon="-5.1902300">
        <ele>12.0</ele>
        <time>2019-08-28T07:37:51Z</time>
      </trkpt>
      <trkpt lat="36.4065660" lon="-5.1903180">
        <ele>11.9</ele>
        <time>2019-08-28T07:37:52Z</time>
      </trkpt>
      <trkpt lat="36.4065070" lon="-5.1904070">
        <ele>11.6</ele>
        <time>2019-08-28T07:37:53Z</time>
      </trkpt>
      <trkpt lat="36.4064480" lon="-5.1904960">
        <ele>11.4</ele>
        <time>2019-08-28T07:37:54Z</time>
      </trkpt>
      <trkpt lat="36.4063900" lon="-5.1905850">
        <ele>11.3</ele>
        <time>2019-08-28T07:37:55Z</time>
      </trkpt>
      <trkpt lat="36.4063330" lon="-5.1906750">
        <ele>11.2</ele>
        <time>2019-08-28T07:37:56Z</time>
      </trkpt>
      <trkpt lat="36.4062760" lon="-5.1907650">
        <ele>11.0</ele>
        <time>2019-08-28T07:37:57Z</time>
      </trkpt>
      <trkpt lat="36.4062200" lon="-5.1908550">
        <ele>10.9</ele>
        <time>2019-08-28T07:37:58Z</time>
      </trkpt>
      <trkpt lat="36.4061650" lon="-5.1909450">
        <ele>10.7</ele>
        <time>2019-08-28T07:37:59Z</time>
      </trkpt>
      <trkpt lat="36.4061090" lon="-5.1910360">
        <ele>10.6</ele>
        <time>2019-08-28T07:38:00Z</time>
      </trkpt>
      <trkpt lat="36.4060540" lon="-5.1911260">
        <ele>10.4</ele>
        <time>2019-08-28T07:38:01Z</time>
      </trkpt>
      <trkpt lat="36.4059990" lon="-5.1912160">
        <ele>10.3</ele>
        <time>2019-08-28T07:38:02Z</time>
      </trkpt>
      <trkpt lat="36.4059440" lon="-5.1913050">
        <ele>10.1</ele>
        <time>2019-08-28T07:38:03Z</time>
      </trkpt>
      <trkpt lat="36.4058900" lon="-5.1913940">
        <ele>10.0</ele>
        <time>2019-08-28T07:38:04Z</time>
      </trkpt>
      <trkpt lat="36.4058360" lon="-5.1914830">
        <ele>9.8</ele>
        <time>2019-08-28T07:38:05Z</time>
      </trkpt>
      <trkpt lat="36.4057830" lon="-5.1915700">
        <ele>9.6</ele>
        <time>2019-08-28T07:38:06Z</time>
      </trkpt>
      <trkpt lat="36.4057290" lon="-5.1916570">
        <ele>9.5</ele>
        <time>2019-08-28T07:38:07Z</time>
      </trkpt>
      <trkpt lat="36.4056760" lon="-5.1917440">
        <ele>9.3</ele>
        <time>2019-08-28T07:38:08Z</time>
      </trkpt>
      <trkpt lat="36.4056240" lon="-5.1918290">
        <ele>9.2</ele>
        <time>2019-08-28T07:38:09Z</time>
      </trkpt>
      <trkpt lat="36.4055730" lon="-5.1919130">
        <ele>9.2</ele>
        <time>2019-08-28T07:38:10Z</time>
      </trkpt>
      <trkpt lat="36.4055220" lon="-5.1919970">
        <ele>9.1</ele>
        <time>2019-08-28T07:38:11Z</time>
      </trkpt>
      <trkpt lat="36.4054720" lon="-5.1920800">
        <ele>9.1</ele>
        <time>2019-08-28T07:38:12Z</time>
      </trkpt>
      <trkpt lat="36.4054210" lon="-5.1921630">
        <ele>9.1</ele>
        <time>2019-08-28T07:38:13Z</time>
      </trkpt>
      <trkpt lat="36.4053710" lon="-5.1922440">
        <ele>9.2</ele>
        <time>2019-08-28T07:38:14Z</time>
      </trkpt>
      <trkpt lat="36.4053210" lon="-5.1923250">
        <ele>9.2</ele>
        <time>2019-08-28T07:38:15Z</time>
      </trkpt>
      <trkpt lat="36.4052710" lon="-5.1924050">
        <ele>9.2</ele>
        <time>2019-08-28T07:38:16Z</time>
      </trkpt>
      <trkpt lat="36.4052220" lon="-5.1924850">
        <ele>9.3</ele>
        <time>2019-08-28T07:38:17Z</time>
      </trkpt>
      <trkpt lat="36.4051740" lon="-5.1925650">
        <ele>9.3</ele>
        <time>2019-08-28T07:38:18Z</time>
      </trkpt>
      <trkpt lat="36.4051260" lon="-5.1926450">
        <ele>9.3</ele>
        <time>2019-08-28T07:38:19Z</time>
      </trkpt>
      <trkpt lat="36.4050780" lon="-5.1927240">
        <ele>9.3</ele>
        <time>2019-08-28T07:38:20Z</time>
      </trkpt>
      <trkpt lat="36.4050300" lon="-5.1928030">
        <ele>9.2</ele>
        <time>2019-08-28T07:38:21Z</time>
      </trkpt>
      <trkpt lat="36.4049830" lon="-5.1928800">
        <ele>9.2</ele>
        <time>2019-08-28T07:38:22Z</time>
      </trkpt>
      <trkpt lat="36.4049350" lon="-5.1929580">
        <ele>9.1</ele>
        <time>2019-08-28T07:38:23Z</time>
      </trkpt>
      <trkpt lat="36.4048890" lon="-5.1930360">
        <ele>9.0</ele>
        <time>2019-08-28T07:38:24Z</time>
      </trkpt>
      <trkpt lat="36.4048460" lon="-5.1931150">
        <ele>8.9</ele>
        <time>2019-08-28T07:38:25Z</time>
      </trkpt>
      <trkpt lat="36.4048060" lon="-5.1931970">
        <ele>8.7</ele>
        <time>2019-08-28T07:38:26Z</time>
      </trkpt>
      <trkpt lat="36.4047710" lon="-5.1932780">
        <ele>8.6</ele>
        <time>2019-08-28T07:38:27Z</time>
      </trkpt>
      <trkpt lat="36.4047390" lon="-5.1933600">
        <ele>8.4</ele>
        <time>2019-08-28T07:38:28Z</time>
      </trkpt>
      <trkpt lat="36.4047110" lon="-5.1934420">
        <ele>8.2</ele>
        <time>2019-08-28T07:38:29Z</time>
      </trkpt>
      <trkpt lat="36.4046860" lon="-5.1935250">
        <ele>8.1</ele>
        <time>2019-08-28T07:38:30Z</time>
      </trkpt>
      <trkpt lat="36.4046600" lon="-5.1936060">
        <ele>8.1</ele>
        <time>2019-08-28T07:38:31Z</time>
      </trkpt>
      <trkpt lat="36.4046250" lon="-5.1936790">
        <ele>8.3</ele>
        <time>2019-08-28T07:38:32Z</time>
      </trkpt>
      <trkpt lat="36.4045800" lon="-5.1937420">
        <ele>8.7</ele>
        <time>2019-08-28T07:38:33Z</time>
      </trkpt>
      <trkpt lat="36.4045240" lon="-5.1937910">
        <ele>8.7</ele>
        <time>2019-08-28T07:38:34Z</time>
      </trkpt>
      <trkpt lat="36.4044640" lon="-5.1938350">
        <ele>8.8</ele>
        <time>2019-08-28T07:38:35Z</time>
      </trkpt>
      <trkpt lat="36.4044030" lon="-5.1938780">
        <ele>8.8</ele>
        <time>2019-08-28T07:38:36Z</time>
      </trkpt>
      <trkpt lat="36.4043460" lon="-5.1939280">
        <ele>8.7</ele>
        <time>2019-08-28T07:38:37Z</time>
      </trkpt>
      <trkpt lat="36.4042930" lon="-5.1939830">
        <ele>8.6</ele>
        <time>2019-08-28T07:38:38Z</time>
      </trkpt>
      <trkpt lat="36.4042410" lon="-5.1940390">
        <ele>8.5</ele>
        <time>2019-08-28T07:38:39Z</time>
      </trkpt>
      <trkpt lat="36.4041910" lon="-5.1940960">
        <ele>8.3</ele>
        <time>2019-08-28T07:38:40Z</time>
      </trkpt>
      <trkpt lat="36.4041410" lon="-5.1941540">
        <ele>8.2</ele>
        <time>2019-08-28T07:38:41Z</time>
      </trkpt>
      <trkpt lat="36.4040910" lon="-5.1942130">
        <ele>8.1</ele>
        <time>2019-08-28T07:38:42Z</time>
      </trkpt>
      <trkpt lat="36.4040410" lon="-5.1942710">
        <ele>7.9</ele>
        <time>2019-08-28T07:38:43Z</time>
      </trkpt>
      <trkpt lat="36.4039890" lon="-5.1943260">
        <ele>7.8</ele>
        <time>2019-08-28T07:38:44Z</time>
      </trkpt>
      <trkpt lat="36.4039370" lon="-5.1943810">
        <ele>7.6</ele>
        <time>2019-08-28T07:38:45Z</time>
      </trkpt>
      <trkpt lat="36.4038830" lon="-5.1944340">
        <ele>7.5</ele>
        <time>2019-08-28T07:38:46Z</time>
      </trkpt>
      <trkpt lat="36.4038290" lon="-5.1944860">
        <ele>7.3</ele>
        <time>2019-08-28T07:38:47Z</time>
      </trkpt>
      <trkpt lat="36.4037750" lon="-5.1945370">
        <ele>7.2</ele>
        <time>2019-08-28T07:38:48Z</time>
      </trkpt>
      <trkpt lat="36.4037190" lon="-5.1945870">
        <ele>7.0</ele>
        <time>2019-08-28T07:38:49Z</time>
      </trkpt>
      <trkpt lat="36.4036620" lon="-5.1946380">
        <ele>6.9</ele>
        <time>2019-08-28T07:38:50Z</time>
      </trkpt>
      <trkpt lat="36.4036050" lon="-5.1946870">
        <ele>6.7</ele>
        <time>2019-08-28T07:38:51Z</time>
      </trkpt>
      <trkpt lat="36.4035450" lon="-5.1947350">
        <ele>6.6</ele>
        <time>2019-08-28T07:38:52Z</time>
      </trkpt>
      <trkpt lat="36.4034840" lon="-5.1947810">
        <ele>6.4</ele>
        <time>2019-08-28T07:38:53Z</time>
      </trkpt>
      <trkpt lat="36.4034230" lon="-5.1948260">
        <ele>6.3</ele>
        <time>2019-08-28T07:38:54Z</time>
      </trkpt>
      <trkpt lat="36.4033600" lon="-5.1948700">
        <ele>6.1</ele>
        <time>2019-08-28T07:38:55Z</time>
      </trkpt>
      <trkpt lat="36.4032970" lon="-5.1949130">
        <ele>6.0</ele>
        <time>2019-08-28T07:38:56Z</time>
      </trkpt>
      <trkpt lat="36.4032340" lon="-5.1949530">
        <ele>5.8</ele>
        <time>2019-08-28T07:38:57Z</time>
      </trkpt>
      <trkpt lat="36.4031700" lon="-5.1949910">
        <ele>5.7</ele>
        <time>2019-08-28T07:38:58Z</time>
      </trkpt>
      <trkpt lat="36.4031060" lon="-5.1950270">
        <ele>5.6</ele>
        <time>2019-08-28T07:38:59Z</time>
      </trkpt>
      <trkpt lat="36.4030420" lon="-5.1950610">
        <ele>5.5</ele>
        <time>2019-08-28T07:39:00Z</time>
      </trkpt>
      <trkpt lat="36.4029780" lon="-5.1950920">
        <ele>5.5</ele>
        <time>2019-08-28T07:39:01Z</time>
      </trkpt>
      <trkpt lat="36.4029120" lon="-5.1951210">
        <ele>5.5</ele>
        <time>2019-08-28T07:39:02Z</time>
      </trkpt>
      <trkpt lat="36.4028460" lon="-5.1951460">
        <ele>5.5</ele>
        <time>2019-08-28T07:39:03Z</time>
      </trkpt>
      <trkpt lat="36.4027790" lon="-5.1951710">
        <ele>5.5</ele>
        <time>2019-08-28T07:39:04Z</time>
      </trkpt>
      <trkpt lat="36.4027110" lon="-5.1951940">
        <ele>5.5</ele>
        <time>2019-08-28T07:39:05Z</time>
      </trkpt>
      <trkpt lat="36.4026420" lon="-5.1952160">
        <ele>5.6</ele>
        <time>2019-08-28T07:39:06Z</time>
      </trkpt>
      <trkpt lat="36.4025730" lon="-5.1952360">
        <ele>5.6</ele>
        <time>2019-08-28T07:39:07Z</time>
      </trkpt>
      <trkpt lat="36.4025040" lon="-5.1952540">
        <ele>5.6</ele>
        <time>2019-08-28T07:39:08Z</time>
      </trkpt>
      <trkpt lat="36.4024350" lon="-5.1952690">
        <ele>5.7</ele>
        <time>2019-08-28T07:39:09Z</time>
      </trkpt>
      <trkpt lat="36.4023660" lon="-5.1952830">
        <ele>5.7</ele>
        <time>2019-08-28T07:39:10Z</time>
      </trkpt>
      <trkpt lat="36.4022970" lon="-5.1952950">
        <ele>5.7</ele>
        <time>2019-08-28T07:39:11Z</time>
      </trkpt>
      <trkpt lat="36.4022280" lon="-5.1953050">
        <ele>5.8</ele>
        <time>2019-08-28T07:39:12Z</time>
      </trkpt>
      <trkpt lat="36.4021590" lon="-5.1953150">
        <ele>5.8</ele>
        <time>2019-08-28T07:39:13Z</time>
      </trkpt>
      <trkpt lat="36.4020890" lon="-5.1953230">
        <ele>5.9</ele>
        <time>2019-08-28T07:39:14Z</time>
      </trkpt>
      <trkpt lat="36.4020200" lon="-5.1953280">
        <ele>6.0</ele>
        <time>2019-08-28T07:39:15Z</time>
      </trkpt>
      <trkpt lat="36.4019520" lon="-5.1953320">
        <ele>6.0</ele>
        <time>2019-08-28T07:39:16Z</time>
      </trkpt>
      <trkpt lat="36.4018840" lon="-5.1953350">
        <ele>6.1</ele>
        <time>2019-08-28T07:39:17Z</time>
      </trkpt>
      <trkpt lat="36.4018170" lon="-5.1953350">
        <ele>6.1</ele>
        <time>2019-08-28T07:39:18Z</time>
      </trkpt>
      <trkpt lat="36.4017510" lon="-5.1953350">
        <ele>6.2</ele>
        <time>2019-08-28T07:39:19Z</time>
      </trkpt>
      <trkpt lat="36.4016840" lon="-5.1953320">
        <ele>6.3</ele>
        <time>2019-08-28T07:39:20Z</time>
      </trkpt>
      <trkpt lat="36.4016180" lon="-5.1953280">
        <ele>6.3</ele>
        <time>2019-08-28T07:39:21Z</time>
      </trkpt>
      <trkpt lat="36.4015500" lon="-5.1953220">
        <ele>6.4</ele>
        <time>2019-08-28T07:39:22Z</time>
      </trkpt>
      <trkpt lat="36.4014830" lon="-5.1953150">
        <ele>6.5</ele>
        <time>2019-08-28T07:39:23Z</time>
      </trkpt>
      <trkpt lat="36.4014140" lon="-5.1953050">
        <ele>6.6</ele>
        <time>2019-08-28T07:39:24Z</time>
      </trkpt>
      <trkpt lat="36.4013450" lon="-5.1952950">
        <ele>6.7</ele>
        <time>2019-08-28T07:39:25Z</time>
      </trkpt>
      <trkpt lat="36.4012760" lon="-5.1952830">
        <ele>6.8</ele>
        <time>2019-08-28T07:39:26Z</time>
      </trkpt>
      <trkpt lat="36.4012060" lon="-5.1952700">
        <ele>6.9</ele>
        <time>2019-08-28T07:39:27Z</time>
      </trkpt>
      <trkpt lat="36.4011370" lon="-5.1952570">
        <ele>7.0</ele>
        <time>2019-08-28T07:39:28Z</time>
      </trkpt>
      <trkpt lat="36.4010670" lon="-5.1952420">
        <ele>7.2</ele>
        <time>2019-08-28T07:39:29Z</time>
      </trkpt>
      <trkpt lat="36.4009970" lon="-5.1952270">
        <ele>7.3</ele>
        <time>2019-08-28T07:39:30Z</time>
      </trkpt>
      <trkpt lat="36.4009270" lon="-5.1952130">
        <ele>7.5</ele>
        <time>2019-08-28T07:39:31Z</time>
      </trkpt>
      <trkpt lat="36.4008570" lon="-5.1951980">
        <ele>7.6</ele>
        <time>2019-08-28T07:39:32Z</time>
      </trkpt>
      <trkpt lat="36.4007860" lon="-5.1951820">
        <ele>7.8</ele>
        <time>2019-08-28T07:39:33Z</time>
      </trkpt>
      <trkpt lat="36.4007160" lon="-5.1951650">
        <ele>8.0</ele>
        <time>2019-08-28T07:39:34Z</time>
      </trkpt>
      <trkpt lat="36.4006460" lon="-5.1951490">
        <ele>8.2</ele>
        <time>2019-08-28T07:39:35Z</time>
      </trkpt>
      <trkpt lat="36.4005760" lon="-5.1951340">
        <ele>8.5</ele>
        <time>2019-08-28T07:39:36Z</time>
      </trkpt>
      <trkpt lat="36.4005060" lon="-5.1951200">
        <ele>8.8</ele>
        <time>2019-08-28T07:39:37Z</time>
      </trkpt>
      <trkpt lat="36.4004360" lon="-5.1951060">
        <ele>9.1</ele>
        <time>2019-08-28T07:39:38Z</time>
      </trkpt>
      <trkpt lat="36.4003670" lon="-5.1950910">
        <ele>9.3</ele>
        <time>2019-08-28T07:39:39Z</time>
      </trkpt>
      <trkpt lat="36.4002980" lon="-5.1950760">
        <ele>9.6</ele>
        <time>2019-08-28T07:39:40Z</time>
      </trkpt>
      <trkpt lat="36.4002290" lon="-5.1950610">
        <ele>9.8</ele>
        <time>2019-08-28T07:39:41Z</time>
      </trkpt>
      <trkpt lat="36.4001600" lon="-5.1950470">
        <ele>10.1</ele>
        <time>2019-08-28T07:39:42Z</time>
      </trkpt>
      <trkpt lat="36.4000920" lon="-5.1950330">
        <ele>10.4</ele>
        <time>2019-08-28T07:39:43Z</time>
      </trkpt>
      <trkpt lat="36.4000240" lon="-5.1950190">
        <ele>10.7</ele>
        <time>2019-08-28T07:39:44Z</time>
      </trkpt>
      <trkpt lat="36.3999550" lon="-5.1950050">
        <ele>11.1</ele>
        <time>2019-08-28T07:39:45Z</time>
      </trkpt>
      <trkpt lat="36.3998870" lon="-5.1949910">
        <ele>11.3</ele>
        <time>2019-08-28T07:39:46Z</time>
      </trkpt>
      <trkpt lat="36.3998180" lon="-5.1949780">
        <ele>11.6</ele>
        <time>2019-08-28T07:39:47Z</time>
      </trkpt>
      <trkpt lat="36.3997490" lon="-5.1949660">
        <ele>11.9</ele>
        <time>2019-08-28T07:39:48Z</time>
      </trkpt>
      <trkpt lat="36.3996800" lon="-5.1949550">
        <ele>12.2</ele>
        <time>2019-08-28T07:39:49Z</time>
      </trkpt>
      <trkpt lat="36.3996100" lon="-5.1949470">
        <ele>12.4</ele>
        <time>2019-08-28T07:39:50Z</time>
      </trkpt>
      <trkpt lat="36.3995400" lon="-5.1949400">
        <ele>12.7</ele>
        <time>2019-08-28T07:39:51Z</time>
      </trkpt>
      <trkpt lat="36.3994700" lon="-5.1949360">
        <ele>12.9</ele>
        <time>2019-08-28T07:39:52Z</time>
      </trkpt>
      <trkpt lat="36.3994000" lon="-5.1949340">
        <ele>13.0</ele>
        <time>2019-08-28T07:39:53Z</time>
      </trkpt>
      <trkpt lat="36.3993300" lon="-5.1949340">
        <ele>13.2</ele>
        <time>2019-08-28T07:39:54Z</time>
      </trkpt>
      <trkpt lat="36.3992600" lon="-5.1949360">
        <ele>13.4</ele>
        <time>2019-08-28T07:39:55Z</time>
      </trkpt>
      <trkpt lat="36.3991910" lon="-5.1949410">
        <ele>13.6</ele>
        <time>2019-08-28T07:39:56Z</time>
      </trkpt>
      <trkpt lat="36.3991220" lon="-5.1949500">
        <ele>13.8</ele>
        <time>2019-08-28T07:39:57Z</time>
      </trkpt>
      <trkpt lat="36.3990540" lon="-5.1949630">
        <ele>14.0</ele>
        <time>2019-08-28T07:39:58Z</time>
      </trkpt>
      <trkpt lat="36.3989870" lon="-5.1949790">
        <ele>14.1</ele>
        <time>2019-08-28T07:39:59Z</time>
      </trkpt>
      <trkpt lat="36.3989210" lon="-5.1950000">
        <ele>14.3</ele>
        <time>2019-08-28T07:40:00Z</time>
      </trkpt>
      <trkpt lat="36.3988550" lon="-5.1950220">
        <ele>14.4</ele>
        <time>2019-08-28T07:40:01Z</time>
      </trkpt>
      <trkpt lat="36.3987900" lon="-5.1950480">
        <ele>14.6</ele>
        <time>2019-08-28T07:40:02Z</time>
      </trkpt>
      <trkpt lat="36.3987260" lon="-5.1950760">
        <ele>14.8</ele>
        <time>2019-08-28T07:40:03Z</time>
      </trkpt>
      <trkpt lat="36.3986630" lon="-5.1951070">
        <ele>14.9</ele>
        <time>2019-08-28T07:40:04Z</time>
      </trkpt>
      <trkpt lat="36.3986010" lon="-5.1951410">
        <ele>15.0</ele>
        <time>2019-08-28T07:40:05Z</time>
      </trkpt>
      <trkpt lat="36.3985400" lon="-5.1951780">
        <ele>15.0</ele>
        <time>2019-08-28T07:40:06Z</time>
      </trkpt>
      <trkpt lat="36.3984810" lon="-5.1952200">
        <ele>15.1</ele>
        <time>2019-08-28T07:40:07Z</time>
      </trkpt>
      <trkpt lat="36.3984230" lon="-5.1952630">
        <ele>15.1</ele>
        <time>2019-08-28T07:40:08Z</time>
      </trkpt>
      <trkpt lat="36.3983660" lon="-5.1953090">
        <ele>15.2</ele>
        <time>2019-08-28T07:40:09Z</time>
      </trkpt>
      <trkpt lat="36.3983100" lon="-5.1953560">
        <ele>15.2</ele>
        <time>2019-08-28T07:40:10Z</time>
      </trkpt>
      <trkpt lat="36.3982570" lon="-5.1954070">
        <ele>15.2</ele>
        <time>2019-08-28T07:40:11Z</time>
      </trkpt>
      <trkpt lat="36.3982050" lon="-5.1954590">
        <ele>15.2</ele>
        <time>2019-08-28T07:40:12Z</time>
      </trkpt>
      <trkpt lat="36.3981540" lon="-5.1955140">
        <ele>15.2</ele>
        <time>2019-08-28T07:40:13Z</time>
      </trkpt>
      <trkpt lat="36.3981050" lon="-5.1955710">
        <ele>15.2</ele>
        <time>2019-08-28T07:40:14Z</time>
      </trkpt>
      <trkpt lat="36.3980570" lon="-5.1956290">
        <ele>15.2</ele>
        <time>2019-08-28T07:40:15Z</time>
      </trkpt>
      <trkpt lat="36.3980100" lon="-5.1956880">
        <ele>15.2</ele>
        <time>2019-08-28T07:40:16Z</time>
      </trkpt>
      <trkpt lat="36.3979650" lon="-5.1957480">
        <ele>15.2</ele>
        <time>2019-08-28T07:40:17Z</time>
      </trkpt>
      <trkpt lat="36.3979210" lon="-5.1958100">
        <ele>15.2</ele>
        <time>2019-08-28T07:40:18Z</time>
      </trkpt>
      <trkpt lat="36.3978800" lon="-5.1958750">
        <ele>15.2</ele>
        <time>2019-08-28T07:40:19Z</time>
      </trkpt>
      <trkpt lat="36.3978400" lon="-5.1959410">
        <ele>15.2</ele>
        <time>2019-08-28T07:40:20Z</time>
      </trkpt>
      <trkpt lat="36.3978010" lon="-5.1960090">
        <ele>15.2</ele>
        <time>2019-08-28T07:40:21Z</time>
      </trkpt>
      <trkpt lat="36.3977610" lon="-5.1960760">
        <ele>15.3</ele>
        <time>2019-08-28T07:40:22Z</time>
      </trkpt>
      <trkpt lat="36.3977230" lon="-5.1961440">
        <ele>15.3</ele>
        <time>2019-08-28T07:40:23Z</time>
      </trkpt>
      <trkpt lat="36.3976840" lon="-5.1962140">
        <ele>15.4</ele>
        <time>2019-08-28T07:40:24Z</time>
      </trkpt>
      <trkpt lat="36.3976470" lon="-5.1962850">
        <ele>15.4</ele>
        <time>2019-08-28T07:40:25Z</time>
      </trkpt>
      <trkpt lat="36.3976100" lon="-5.1963580">
        <ele>15.5</ele>
        <time>2019-08-28T07:40:26Z</time>
      </trkpt>
      <trkpt lat="36.3975730" lon="-5.1964300">
        <ele>15.6</ele>
        <time>2019-08-28T07:40:27Z</time>
      </trkpt>
      <trkpt lat="36.3975370" lon="-5.1965030">
        <ele>15.7</ele>
        <time>2019-08-28T07:40:28Z</time>
      </trkpt>
      <trkpt lat="36.3975000" lon="-5.1965760">
        <ele>15.8</ele>
        <time>2019-08-28T07:40:29Z</time>
      </trkpt>
      <trkpt lat="36.3974650" lon="-5.1966500">
        <ele>15.9</ele>
        <time>2019-08-28T07:40:30Z</time>
      </trkpt>
      <trkpt lat="36.3974300" lon="-5.1967250">
        <ele>16.0</ele>
        <time>2019-08-28T07:40:31Z</time>
      </trkpt>
      <trkpt lat="36.3973970" lon="-5.1968020">
        <ele>16.1</ele>
        <time>2019-08-28T07:40:32Z</time>
      </trkpt>
      <trkpt lat="36.3973660" lon="-5.1968800">
        <ele>16.1</ele>
        <time>2019-08-28T07:40:33Z</time>
      </trkpt>
      <trkpt lat="36.3973340" lon="-5.1969580">
        <ele>16.1</ele>
        <time>2019-08-28T07:40:34Z</time>
      </trkpt>
      <trkpt lat="36.3973000" lon="-5.1970350">
        <ele>16.1</ele>
        <time>2019-08-28T07:40:35Z</time>
      </trkpt>
      <trkpt lat="36.3972660" lon="-5.1971110">
        <ele>16.0</ele>
        <time>2019-08-28T07:40:36Z</time>
      </trkpt>
      <trkpt lat="36.3972300" lon="-5.1971870">
        <ele>16.0</ele>
        <time>2019-08-28T07:40:37Z</time>
      </trkpt>
      <trkpt lat="36.3971940" lon="-5.1972630">
        <ele>15.9</ele>
        <time>2019-08-28T07:40:38Z</time>
      </trkpt>
      <trkpt lat="36.3971570" lon="-5.1973390">
        <ele>15.8</ele>
        <time>2019-08-28T07:40:39Z</time>
      </trkpt>
      <trkpt lat="36.3971200" lon="-5.1974140">
        <ele>15.7</ele>
        <time>2019-08-28T07:40:40Z</time>
      </trkpt>
      <trkpt lat="36.3970830" lon="-5.1974880">
        <ele>15.7</ele>
        <time>2019-08-28T07:40:41Z</time>
      </trkpt>
      <trkpt lat="36.3970450" lon="-5.1975620">
        <ele>15.8</ele>
        <time>2019-08-28T07:40:42Z</time>
      </trkpt>
      <trkpt lat="36.3970070" lon="-5.1976360">
        <ele>15.8</ele>
        <time>2019-08-28T07:40:43Z</time>
      </trkpt>
      <trkpt lat="36.3969710" lon="-5.1977100">
        <ele>15.9</ele>
        <time>2019-08-28T07:40:44Z</time>
      </trkpt>
      <trkpt lat="36.3969350" lon="-5.1977850">
        <ele>15.9</ele>
        <time>2019-08-28T07:40:45Z</time>
      </trkpt>
      <trkpt lat="36.3969000" lon="-5.1978610">
        <ele>15.9</ele>
        <time>2019-08-28T07:40:46Z</time>
      </trkpt>
      <trkpt lat="36.3968650" lon="-5.1979360">
        <ele>15.8</ele>
        <time>2019-08-28T07:40:47Z</time>
      </trkpt>
      <trkpt lat="36.3968300" lon="-5.1980110">
        <ele>15.7</ele>
        <time>2019-08-28T07:40:48Z</time>
      </trkpt>
      <trkpt lat="36.3967940" lon="-5.1980840">
        <ele>15.6</ele>
        <time>2019-08-28T07:40:49Z</time>
      </trkpt>
      <trkpt lat="36.3967580" lon="-5.1981580">
        <ele>15.5</ele>
        <time>2019-08-28T07:40:50Z</time>
      </trkpt>
      <trkpt lat="36.3967220" lon="-5.1982310">
        <ele>15.3</ele>
        <time>2019-08-28T07:40:51Z</time>
      </trkpt>
      <trkpt lat="36.3966850" lon="-5.1983040">
        <ele>15.2</ele>
        <time>2019-08-28T07:40:52Z</time>
      </trkpt>
      <trkpt lat="36.3966480" lon="-5.1983770">
        <ele>15.0</ele>
        <time>2019-08-28T07:40:53Z</time>
      </trkpt>
      <trkpt lat="36.3966110" lon="-5.1984490">
        <ele>14.8</ele>
        <time>2019-08-28T07:40:54Z</time>
      </trkpt>
      <trkpt lat="36.3965740" lon="-5.1985230">
        <ele>14.6</ele>
        <time>2019-08-28T07:40:55Z</time>
      </trkpt>
      <trkpt lat="36.3965360" lon="-5.1985960">
        <ele>14.5</ele>
        <time>2019-08-28T07:40:56Z</time>
      </trkpt>
      <trkpt lat="36.3964980" lon="-5.1986710">
        <ele>14.3</ele>
        <time>2019-08-28T07:40:57Z</time>
      </trkpt>
      <trkpt lat="36.3964590" lon="-5.1987450">
        <ele>14.1</ele>
        <time>2019-08-28T07:40:58Z</time>
      </trkpt>
      <trkpt lat="36.3964190" lon="-5.1988200">
        <ele>13.9</ele>
        <time>2019-08-28T07:40:59Z</time>
      </trkpt>
      <trkpt lat="36.3963780" lon="-5.1988950">
        <ele>13.8</ele>
        <time>2019-08-28T07:41:00Z</time>
      </trkpt>
      <trkpt lat="36.3963350" lon="-5.1989700">
        <ele>13.6</ele>
        <time>2019-08-28T07:41:01Z</time>
      </trkpt>
      <trkpt lat="36.3962900" lon="-5.1990450">
        <ele>13.5</ele>
        <time>2019-08-28T07:41:02Z</time>
      </trkpt>
      <trkpt lat="36.3962440" lon="-5.1991190">
        <ele>13.5</ele>
        <time>2019-08-28T07:41:03Z</time>
      </trkpt>
      <trkpt lat="36.3961970" lon="-5.1991930">
        <ele>13.5</ele>
        <time>2019-08-28T07:41:04Z</time>
      </trkpt>
      <trkpt lat="36.3961470" lon="-5.1992680">
        <ele>13.5</ele>
        <time>2019-08-28T07:41:05Z</time>
      </trkpt>
      <trkpt lat="36.3960970" lon="-5.1993430">
        <ele>13.4</ele>
        <time>2019-08-28T07:41:06Z</time>
      </trkpt>
      <trkpt lat="36.3960450" lon="-5.1994170">
        <ele>13.3</ele>
        <time>2019-08-28T07:41:07Z</time>
      </trkpt>
      <trkpt lat="36.3959910" lon="-5.1994890">
        <ele>13.1</ele>
        <time>2019-08-28T07:41:08Z</time>
      </trkpt>
      <trkpt lat="36.3959360" lon="-5.1995620">
        <ele>12.8</ele>
        <time>2019-08-28T07:41:09Z</time>
      </trkpt>
      <trkpt lat="36.3958800" lon="-5.1996330">
        <ele>12.6</ele>
        <time>2019-08-28T07:41:10Z</time>
      </trkpt>
      <trkpt lat="36.3958230" lon="-5.1997040">
        <ele>12.3</ele>
        <time>2019-08-28T07:41:11Z</time>
      </trkpt>
      <trkpt lat="36.3957650" lon="-5.1997730">
        <ele>12.1</ele>
        <time>2019-08-28T07:41:12Z</time>
      </trkpt>
      <trkpt lat="36.3957050" lon="-5.1998410">
        <ele>11.5</ele>
        <time>2019-08-28T07:41:13Z</time>
      </trkpt>
      <trkpt lat="36.3956440" lon="-5.1999080">
        <ele>11.0</ele>
        <time>2019-08-28T07:41:14Z</time>
      </trkpt>
      <trkpt lat="36.3955820" lon="-5.1999740">
        <ele>10.6</ele>
        <time>2019-08-28T07:41:15Z</time>
      </trkpt>
      <trkpt lat="36.3955190" lon="-5.2000380">
        <ele>10.2</ele>
        <time>2019-08-28T07:41:16Z</time>
      </trkpt>
      <trkpt lat="36.3954540" lon="-5.2001010">
        <ele>9.8</ele>
        <time>2019-08-28T07:41:17Z</time>
      </trkpt>
      <trkpt lat="36.3953890" lon="-5.2001640">
        <ele>9.4</ele>
        <time>2019-08-28T07:41:18Z</time>
      </trkpt>
      <trkpt lat="36.3953240" lon="-5.2002280">
        <ele>9.0</ele>
        <time>2019-08-28T07:41:19Z</time>
      </trkpt>
      <trkpt lat="36.3952600" lon="-5.2002910">
        <ele>8.6</ele>
        <time>2019-08-28T07:41:20Z</time>
      </trkpt>
      <trkpt lat="36.3951940" lon="-5.2003540">
        <ele>8.7</ele>
        <time>2019-08-28T07:41:21Z</time>
      </trkpt>
      <trkpt lat="36.3951290" lon="-5.2004150">
        <ele>9.0</ele>
        <time>2019-08-28T07:41:22Z</time>
      </trkpt>
      <trkpt lat="36.3950640" lon="-5.2004750">
        <ele>9.3</ele>
        <time>2019-08-28T07:41:23Z</time>
      </trkpt>
      <trkpt lat="36.3950000" lon="-5.2005340">
        <ele>9.5</ele>
        <time>2019-08-28T07:41:24Z</time>
      </trkpt>
      <trkpt lat="36.3949370" lon="-5.2005920">
        <ele>9.8</ele>
        <time>2019-08-28T07:41:25Z</time>
      </trkpt>
      <trkpt lat="36.3948740" lon="-5.2006480">
        <ele>10.8</ele>
        <time>2019-08-28T07:41:26Z</time>
      </trkpt>
      <trkpt lat="36.3948120" lon="-5.2007030">
        <ele>11.8</ele>
        <time>2019-08-28T07:41:27Z</time>
      </trkpt>
      <trkpt lat="36.3947500" lon="-5.2007570">
        <ele>12.5</ele>
        <time>2019-08-28T07:41:28Z</time>
      </trkpt>
      <trkpt lat="36.3946890" lon="-5.2008110">
        <ele>13.1</ele>
        <time>2019-08-28T07:41:29Z</time>
      </trkpt>
      <trkpt lat="36.3946300" lon="-5.2008630">
        <ele>13.5</ele>
        <time>2019-08-28T07:41:30Z</time>
      </trkpt>
      <trkpt lat="36.3945730" lon="-5.2009140">
        <ele>13.7</ele>
        <time>2019-08-28T07:41:31Z</time>
      </trkpt>
      <trkpt lat="36.3945170" lon="-5.2009640">
        <ele>13.8</ele>
        <time>2019-08-28T07:41:32Z</time>
      </trkpt>
      <trkpt lat="36.3944640" lon="-5.2010140">
        <ele>13.8</ele>
        <time>2019-08-28T07:41:33Z</time>
      </trkpt>
      <trkpt lat="36.3944130" lon="-5.2010630">
        <ele>13.9</ele>
        <time>2019-08-28T07:41:34Z</time>
      </trkpt>
      <trkpt lat="36.3943630" lon="-5.2011130">
        <ele>14.0</ele>
        <time>2019-08-28T07:41:35Z</time>
      </trkpt>
      <trkpt lat="36.3943160" lon="-5.2011620">
        <ele>14.2</ele>
        <time>2019-08-28T07:41:36Z</time>
      </trkpt>
      <trkpt lat="36.3942700" lon="-5.2012120">
        <ele>14.4</ele>
        <time>2019-08-28T07:41:37Z</time>
      </trkpt>
      <trkpt lat="36.3942250" lon="-5.2012630">
        <ele>14.7</ele>
        <time>2019-08-28T07:41:38Z</time>
      </trkpt>
      <trkpt lat="36.3941820" lon="-5.2013140">
        <ele>15.0</ele>
        <time>2019-08-28T07:41:39Z</time>
      </trkpt>
      <trkpt lat="36.3941390" lon="-5.2013650">
        <ele>15.3</ele>
        <time>2019-08-28T07:41:40Z</time>
      </trkpt>
      <trkpt lat="36.3940980" lon="-5.2014150">
        <ele>15.5</ele>
        <time>2019-08-28T07:41:41Z</time>
      </trkpt>
      <trkpt lat="36.3940590" lon="-5.2014640">
        <ele>15.8</ele>
        <time>2019-08-28T07:41:42Z</time>
      </trkpt>
      <trkpt lat="36.3940200" lon="-5.2015140">
        <ele>16.1</ele>
        <time>2019-08-28T07:41:43Z</time>
      </trkpt>
      <trkpt lat="36.3939810" lon="-5.2015640">
        <ele>16.3</ele>
        <time>2019-08-28T07:41:44Z</time>
      </trkpt>
      <trkpt lat="36.3939430" lon="-5.2016140">
        <ele>16.6</ele>
        <time>2019-08-28T07:41:45Z</time>
      </trkpt>
      <trkpt lat="36.3939040" lon="-5.2016640">
        <ele>16.8</ele>
        <time>2019-08-28T07:41:46Z</time>
      </trkpt>
      <trkpt lat="36.3938640" lon="-5.2017150">
        <ele>17.0</ele>
        <time>2019-08-28T07:41:47Z</time>
      </trkpt>
      <trkpt lat="36.3938260" lon="-5.2017670">
        <ele>17.2</ele>
        <time>2019-08-28T07:41:48Z</time>
      </trkpt>
      <trkpt lat="36.3937870" lon="-5.2018210">
        <ele>17.4</ele>
        <time>2019-08-28T07:41:49Z</time>
      </trkpt>
      <trkpt lat="36.3937500" lon="-5.2018750">
        <ele>17.5</ele>
        <time>2019-08-28T07:41:50Z</time>
      </trkpt>
      <trkpt lat="36.3937130" lon="-5.2019300">
        <ele>17.7</ele>
        <time>2019-08-28T07:41:51Z</time>
      </trkpt>
      <trkpt lat="36.3936760" lon="-5.2019840">
        <ele>17.9</ele>
        <time>2019-08-28T07:41:52Z</time>
      </trkpt>
      <trkpt lat="36.3936380" lon="-5.2020380">
        <ele>18.0</ele>
        <time>2019-08-28T07:41:53Z</time>
      </trkpt>
      <trkpt lat="36.3936010" lon="-5.2020920">
        <ele>18.2</ele>
        <time>2019-08-28T07:41:54Z</time>
      </trkpt>
      <trkpt lat="36.3935640" lon="-5.2021470">
        <ele>18.5</ele>
        <time>2019-08-28T07:41:55Z</time>
      </trkpt>
      <trkpt lat="36.3935270" lon="-5.2022010">
        <ele>18.7</ele>
        <time>2019-08-28T07:41:56Z</time>
      </trkpt>
      <trkpt lat="36.3934890" lon="-5.2022560">
        <ele>19.0</ele>
        <time>2019-08-28T07:41:57Z</time>
      </trkpt>
      <trkpt lat="36.3934520" lon="-5.2023100">
        <ele>19.3</ele>
        <time>2019-08-28T07:41:58Z</time>
      </trkpt>
      <trkpt lat="36.3934140" lon="-5.2023660">
        <ele>19.5</ele>
        <time>2019-08-28T07:41:59Z</time>
      </trkpt>
      <trkpt lat="36.3933770" lon="-5.2024220">
        <ele>19.7</ele>
        <time>2019-08-28T07:42:00Z</time>
      </trkpt>
      <trkpt lat="36.3933390" lon="-5.2024780">
        <ele>19.9</ele>
        <time>2019-08-28T07:42:01Z</time>
      </trkpt>
      <trkpt lat="36.3933010" lon="-5.2025340">
        <ele>20.0</ele>
        <time>2019-08-28T07:42:02Z</time>
      </trkpt>
      <trkpt lat="36.3932630" lon="-5.2025900">
        <ele>20.1</ele>
        <time>2019-08-28T07:42:03Z</time>
      </trkpt>
      <trkpt lat="36.3932250" lon="-5.2026470">
        <ele>20.2</ele>
        <time>2019-08-28T07:42:04Z</time>
      </trkpt>
      <trkpt lat="36.3931890" lon="-5.2027050">
        <ele>20.2</ele>
        <time>2019-08-28T07:42:05Z</time>
      </trkpt>
      <trkpt lat="36.3931560" lon="-5.2027660">
        <ele>20.3</ele>
        <time>2019-08-28T07:42:06Z</time>
      </trkpt>
      <trkpt lat="36.3931280" lon="-5.2028310">
        <ele>20.3</ele>
        <time>2019-08-28T07:42:07Z</time>
      </trkpt>
      <trkpt lat="36.3931070" lon="-5.2028990">
        <ele>20.4</ele>
        <time>2019-08-28T07:42:08Z</time>
      </trkpt>
      <trkpt lat="36.3930910" lon="-5.2029690">
        <ele>20.4</ele>
        <time>2019-08-28T07:42:09Z</time>
      </trkpt>
      <trkpt lat="36.3930780" lon="-5.2030390">
        <ele>20.4</ele>
        <time>2019-08-28T07:42:10Z</time>
      </trkpt>
      <trkpt lat="36.3930630" lon="-5.2031080">
        <ele>20.4</ele>
        <time>2019-08-28T07:42:11Z</time>
      </trkpt>
      <trkpt lat="36.3930430" lon="-5.2031730">
        <ele>20.4</ele>
        <time>2019-08-28T07:42:12Z</time>
      </trkpt>
      <trkpt lat="36.3930140" lon="-5.2032330">
        <ele>20.4</ele>
        <time>2019-08-28T07:42:13Z</time>
      </trkpt>
      <trkpt lat="36.3929780" lon="-5.2032880">
        <ele>20.3</ele>
        <time>2019-08-28T07:42:14Z</time>
      </trkpt>
      <trkpt lat="36.3929320" lon="-5.2033340">
        <ele>20.3</ele>
        <time>2019-08-28T07:42:15Z</time>
      </trkpt>
      <trkpt lat="36.3928790" lon="-5.2033720">
        <ele>20.4</ele>
        <time>2019-08-28T07:42:16Z</time>
      </trkpt>
      <trkpt lat="36.3928230" lon="-5.2034040">
        <ele>20.4</ele>
        <time>2019-08-28T07:42:17Z</time>
      </trkpt>
      <trkpt lat="36.3927650" lon="-5.2034370">
        <ele>20.4</ele>
        <time>2019-08-28T07:42:18Z</time>
      </trkpt>
      <trkpt lat="36.3927090" lon="-5.2034780">
        <ele>20.3</ele>
        <time>2019-08-28T07:42:19Z</time>
      </trkpt>
      <trkpt lat="36.3926560" lon="-5.2035270">
        <ele>20.3</ele>
        <time>2019-08-28T07:42:20Z</time>
      </trkpt>
      <trkpt lat="36.3926070" lon="-5.2035840">
        <ele>20.3</ele>
        <time>2019-08-28T07:42:21Z</time>
      </trkpt>
      <trkpt lat="36.3925620" lon="-5.2036450">
        <ele>20.3</ele>
        <time>2019-08-28T07:42:22Z</time>
      </trkpt>
      <trkpt lat="36.3925180" lon="-5.2037070">
        <ele>20.3</ele>
        <time>2019-08-28T07:42:23Z</time>
      </trkpt>
      <trkpt lat="36.3924750" lon="-5.2037690">
        <ele>20.3</ele>
        <time>2019-08-28T07:42:24Z</time>
      </trkpt>
      <trkpt lat="36.3924320" lon="-5.2038310">
        <ele>20.3</ele>
        <time>2019-08-28T07:42:25Z</time>
      </trkpt>
      <trkpt lat="36.3923880" lon="-5.2038900">
        <ele>20.4</ele>
        <time>2019-08-28T07:42:26Z</time>
      </trkpt>
      <trkpt lat="36.3923430" lon="-5.2039490">
        <ele>20.4</ele>
        <time>2019-08-28T07:42:27Z</time>
      </trkpt>
      <trkpt lat="36.3922960" lon="-5.2040050">
        <ele>20.6</ele>
        <time>2019-08-28T07:42:28Z</time>
      </trkpt>
      <trkpt lat="36.3922480" lon="-5.2040600">
        <ele>20.7</ele>
        <time>2019-08-28T07:42:29Z</time>
      </trkpt>
      <trkpt lat="36.3921990" lon="-5.2041140">
        <ele>20.9</ele>
        <time>2019-08-28T07:42:30Z</time>
      </trkpt>
      <trkpt lat="36.3921470" lon="-5.2041660">
        <ele>21.1</ele>
        <time>2019-08-28T07:42:31Z</time>
      </trkpt>
      <trkpt lat="36.3920950" lon="-5.2042170">
        <ele>21.4</ele>
        <time>2019-08-28T07:42:32Z</time>
      </trkpt>
      <trkpt lat="36.3920410" lon="-5.2042670">
        <ele>21.6</ele>
        <time>2019-08-28T07:42:33Z</time>
      </trkpt>
      <trkpt lat="36.3919850" lon="-5.2043150">
        <ele>21.8</ele>
        <time>2019-08-28T07:42:34Z</time>
      </trkpt>
      <trkpt lat="36.3919270" lon="-5.2043610">
        <ele>22.0</ele>
        <time>2019-08-28T07:42:35Z</time>
      </trkpt>
      <trkpt lat="36.3918670" lon="-5.2044050">
        <ele>22.1</ele>
        <time>2019-08-28T07:42:36Z</time>
      </trkpt>
      <trkpt lat="36.3918050" lon="-5.2044470">
        <ele>22.3</ele>
        <time>2019-08-28T07:42:37Z</time>
      </trkpt>
      <trkpt lat="36.3917410" lon="-5.2044870">
        <ele>22.3</ele>
        <time>2019-08-28T07:42:38Z</time>
      </trkpt>
      <trkpt lat="36.3916750" lon="-5.2045250">
        <ele>22.4</ele>
        <time>2019-08-28T07:42:39Z</time>
      </trkpt>
      <trkpt lat="36.3916080" lon="-5.2045610">
        <ele>22.4</ele>
        <time>2019-08-28T07:42:40Z</time>
      </trkpt>
      <trkpt lat="36.3915380" lon="-5.2045940">
        <ele>22.4</ele>
        <time>2019-08-28T07:42:41Z</time>
      </trkpt>
      <trkpt lat="36.3914680" lon="-5.2046250">
        <ele>22.4</ele>
        <time>2019-08-28T07:42:42Z</time>
      </trkpt>
      <trkpt lat="36.3913960" lon="-5.2046560">
        <ele>22.4</ele>
        <time>2019-08-28T07:42:43Z</time>
      </trkpt>
      <trkpt lat="36.3913230" lon="-5.2046850">
        <ele>22.4</ele>
        <time>2019-08-28T07:42:44Z</time>
      </trkpt>
      <trkpt lat="36.3912480" lon="-5.2047130">
        <ele>22.4</ele>
        <time>2019-08-28T07:42:45Z</time>
      </trkpt>
      <trkpt lat="36.3911730" lon="-5.2047420">
        <ele>22.3</ele>
        <time>2019-08-28T07:42:46Z</time>
      </trkpt>
      <trkpt lat="36.3910960" lon="-5.2047710">
        <ele>22.3</ele>
        <time>2019-08-28T07:42:47Z</time>
      </trkpt>
      <trkpt lat="36.3910180" lon="-5.2048020">
        <ele>22.1</ele>
        <time>2019-08-28T07:42:48Z</time>
      </trkpt>
      <trkpt lat="36.3909400" lon="-5.2048340">
        <ele>21.9</ele>
        <time>2019-08-28T07:42:49Z</time>
      </trkpt>
      <trkpt lat="36.3908610" lon="-5.2048670">
        <ele>21.6</ele>
        <time>2019-08-28T07:42:50Z</time>
      </trkpt>
      <trkpt lat="36.3907830" lon="-5.2049020">
        <ele>21.3</ele>
        <time>2019-08-28T07:42:51Z</time>
      </trkpt>
      <trkpt lat="36.3907050" lon="-5.2049400">
        <ele>21.0</ele>
        <time>2019-08-28T07:42:52Z</time>
      </trkpt>
      <trkpt lat="36.3906270" lon="-5.2049790">
        <ele>20.7</ele>
        <time>2019-08-28T07:42:53Z</time>
      </trkpt>
      <trkpt lat="36.3905490" lon="-5.2050200">
        <ele>20.4</ele>
        <time>2019-08-28T07:42:54Z</time>
      </trkpt>
      <trkpt lat="36.3904720" lon="-5.2050630">
        <ele>20.2</ele>
        <time>2019-08-28T07:42:55Z</time>
      </trkpt>
      <trkpt lat="36.3903940" lon="-5.2051070">
        <ele>20.1</ele>
        <time>2019-08-28T07:42:56Z</time>
      </trkpt>
      <trkpt lat="36.3903160" lon="-5.2051530">
        <ele>20.0</ele>
        <time>2019-08-28T07:42:57Z</time>
      </trkpt>
      <trkpt lat="36.3902390" lon="-5.2052000">
        <ele>20.0</ele>
        <time>2019-08-28T07:42:58Z</time>
      </trkpt>
      <trkpt lat="36.3901630" lon="-5.2052480">
        <ele>20.0</ele>
        <time>2019-08-28T07:42:59Z</time>
      </trkpt>
      <trkpt lat="36.3900880" lon="-5.2052980">
        <ele>19.9</ele>
        <time>2019-08-28T07:43:00Z</time>
      </trkpt>
      <trkpt lat="36.3900140" lon="-5.2053490">
        <ele>19.9</ele>
        <time>2019-08-28T07:43:01Z</time>
      </trkpt>
      <trkpt lat="36.3899410" lon="-5.2054000">
        <ele>19.9</ele>
        <time>2019-08-28T07:43:02Z</time>
      </trkpt>
      <trkpt lat="36.3898680" lon="-5.2054520">
        <ele>19.9</ele>
        <time>2019-08-28T07:43:03Z</time>
      </trkpt>
      <trkpt lat="36.3897970" lon="-5.2055050">
        <ele>19.9</ele>
        <time>2019-08-28T07:43:04Z</time>
      </trkpt>
      <trkpt lat="36.3897260" lon="-5.2055580">
        <ele>19.9</ele>
        <time>2019-08-28T07:43:05Z</time>
      </trkpt>
      <trkpt lat="36.3896560" lon="-5.2056110">
        <ele>19.9</ele>
        <time>2019-08-28T07:43:06Z</time>
      </trkpt>
      <trkpt lat="36.3895870" lon="-5.2056650">
        <ele>19.9</ele>
        <time>2019-08-28T07:43:07Z</time>
      </trkpt>
      <trkpt lat="36.3895180" lon="-5.2057190">
        <ele>19.9</ele>
        <time>2019-08-28T07:43:08Z</time>
      </trkpt>
      <trkpt lat="36.3894490" lon="-5.2057730">
        <ele>19.9</ele>
        <time>2019-08-28T07:43:09Z</time>
      </trkpt>
      <trkpt lat="36.3893810" lon="-5.2058270">
        <ele>19.9</ele>
        <time>2019-08-28T07:43:10Z</time>
      </trkpt>
      <trkpt lat="36.3893130" lon="-5.2058810">
        <ele>19.9</ele>
        <time>2019-08-28T07:43:11Z</time>
      </trkpt>
      <trkpt lat="36.3892450" lon="-5.2059350">
        <ele>19.9</ele>
        <time>2019-08-28T07:43:12Z</time>
      </trkpt>
      <trkpt lat="36.3891770" lon="-5.2059900">
        <ele>19.8</ele>
        <time>2019-08-28T07:43:13Z</time>
      </trkpt>
      <trkpt lat="36.3891100" lon="-5.2060430">
        <ele>19.8</ele>
        <time>2019-08-28T07:43:14Z</time>
      </trkpt>
      <trkpt lat="36.3890420" lon="-5.2060960">
        <ele>19.8</ele>
        <time>2019-08-28T07:43:15Z</time>
      </trkpt>
      <trkpt lat="36.3889740" lon="-5.2061480">
        <ele>19.6</ele>
        <time>2019-08-28T07:43:16Z</time>
      </trkpt>
      <trkpt lat="36.3889060" lon="-5.2061990">
        <ele>19.5</ele>
        <time>2019-08-28T07:43:17Z</time>
      </trkpt>
      <trkpt lat="36.3888380" lon="-5.2062510">
        <ele>19.4</ele>
        <time>2019-08-28T07:43:18Z</time>
      </trkpt>
      <trkpt lat="36.3887700" lon="-5.2063020">
        <ele>19.2</ele>
        <time>2019-08-28T07:43:19Z</time>
      </trkpt>
      <trkpt lat="36.3887030" lon="-5.2063540">
        <ele>19.1</ele>
        <time>2019-08-28T07:43:20Z</time>
      </trkpt>
      <trkpt lat="36.3886360" lon="-5.2064070">
        <ele>19.0</ele>
        <time>2019-08-28T07:43:21Z</time>
      </trkpt>
      <trkpt lat="36.3885690" lon="-5.2064600">
        <ele>18.9</ele>
        <time>2019-08-28T07:43:22Z</time>
      </trkpt>
      <trkpt lat="36.3885020" lon="-5.2065130">
        <ele>18.8</ele>
        <time>2019-08-28T07:43:23Z</time>
      </trkpt>
      <trkpt lat="36.3884360" lon="-5.2065650">
        <ele>18.7</ele>
        <time>2019-08-28T07:43:24Z</time>
      </trkpt>
      <trkpt lat="36.3883690" lon="-5.2066160">
        <ele>18.6</ele>
        <time>2019-08-28T07:43:25Z</time>
      </trkpt>
      <trkpt lat="36.3883020" lon="-5.2066670">
        <ele>18.5</ele>
        <time>2019-08-28T07:43:26Z</time>
      </trkpt>
      <trkpt lat="36.3882360" lon="-5.2067190">
        <ele>18.3</ele>
        <time>2019-08-28T07:43:27Z</time>
      </trkpt>
      <trkpt lat="36.3881690" lon="-5.2067700">
        <ele>18.2</ele>
        <time>2019-08-28T07:43:28Z</time>
      </trkpt>
      <trkpt lat="36.3881030" lon="-5.2068210">
        <ele>18.0</ele>
        <time>2019-08-28T07:43:29Z</time>
      </trkpt>
      <trkpt lat="36.3880370" lon="-5.2068730">
        <ele>17.9</ele>
        <time>2019-08-28T07:43:30Z</time>
      </trkpt>
      <trkpt lat="36.3879720" lon="-5.2069240">
        <ele>17.8</ele>
        <time>2019-08-28T07:43:31Z</time>
      </trkpt>
      <trkpt lat="36.3879070" lon="-5.2069760">
        <ele>17.7</ele>
        <time>2019-08-28T07:43:32Z</time>
      </trkpt>
      <trkpt lat="36.3878420" lon="-5.2070270">
        <ele>17.6</ele>
        <time>2019-08-28T07:43:33Z</time>
      </trkpt>
      <trkpt lat="36.3877780" lon="-5.2070800">
        <ele>17.6</ele>
        <time>2019-08-28T07:43:34Z</time>
      </trkpt>
      <trkpt lat="36.3877120" lon="-5.2071320">
        <ele>17.5</ele>
        <time>2019-08-28T07:43:35Z</time>
      </trkpt>
      <trkpt lat="36.3876470" lon="-5.2071850">
        <ele>17.5</ele>
        <time>2019-08-28T07:43:36Z</time>
      </trkpt>
      <trkpt lat="36.3875810" lon="-5.2072370">
        <ele>17.4</ele>
        <time>2019-08-28T07:43:37Z</time>
      </trkpt>
      <trkpt lat="36.3875150" lon="-5.2072900">
        <ele>17.4</ele>
        <time>2019-08-28T07:43:38Z</time>
      </trkpt>
      <trkpt lat="36.3874490" lon="-5.2073420">
        <ele>17.4</ele>
        <time>2019-08-28T07:43:39Z</time>
      </trkpt>
      <trkpt lat="36.3873830" lon="-5.2073950">
        <ele>17.4</ele>
        <time>2019-08-28T07:43:40Z</time>
      </trkpt>
      <trkpt lat="36.3873170" lon="-5.2074470">
        <ele>17.3</ele>
        <time>2019-08-28T07:43:41Z</time>
      </trkpt>
      <trkpt lat="36.3872510" lon="-5.2074990">
        <ele>17.3</ele>
        <time>2019-08-28T07:43:42Z</time>
      </trkpt>
      <trkpt lat="36.3871860" lon="-5.2075510">
        <ele>17.2</ele>
        <time>2019-08-28T07:43:43Z</time>
      </trkpt>
      <trkpt lat="36.3871220" lon="-5.2076030">
        <ele>17.2</ele>
        <time>2019-08-28T07:43:44Z</time>
      </trkpt>
      <trkpt lat="36.3870590" lon="-5.2076560">
        <ele>17.2</ele>
        <time>2019-08-28T07:43:45Z</time>
      </trkpt>
      <trkpt lat="36.3869980" lon="-5.2077100">
        <ele>17.3</ele>
        <time>2019-08-28T07:43:46Z</time>
      </trkpt>
      <trkpt lat="36.3869380" lon="-5.2077650">
        <ele>17.4</ele>
        <time>2019-08-28T07:43:47Z</time>
      </trkpt>
      <trkpt lat="36.3868790" lon="-5.2078200">
        <ele>17.5</ele>
        <time>2019-08-28T07:43:48Z</time>
      </trkpt>
      <trkpt lat="36.3868210" lon="-5.2078750">
        <ele>17.7</ele>
        <time>2019-08-28T07:43:49Z</time>
      </trkpt>
      <trkpt lat="36.3867640" lon="-5.2079330">
        <ele>17.8</ele>
        <time>2019-08-28T07:43:50Z</time>
      </trkpt>
      <trkpt lat="36.3867070" lon="-5.2079910">
        <ele>17.9</ele>
        <time>2019-08-28T07:43:51Z</time>
      </trkpt>
      <trkpt lat="36.3866500" lon="-5.2080520">
        <ele>18.0</ele>
        <time>2019-08-28T07:43:52Z</time>
      </trkpt>
      <trkpt lat="36.3865930" lon="-5.2081150">
        <ele>18.1</ele>
        <time>2019-08-28T07:43:53Z</time>
      </trkpt>
      <trkpt lat="36.3865370" lon="-5.2081800">
        <ele>18.0</ele>
        <time>2019-08-28T07:43:54Z</time>
      </trkpt>
      <trkpt lat="36.3864810" lon="-5.2082470">
        <ele>17.9</ele>
        <time>2019-08-28T07:43:55Z</time>
      </trkpt>
      <trkpt lat="36.3864260" lon="-5.2083190">
        <ele>17.8</ele>
        <time>2019-08-28T07:43:56Z</time>
      </trkpt>
      <trkpt lat="36.3863700" lon="-5.2083930">
        <ele>17.5</ele>
        <time>2019-08-28T07:43:57Z</time>
      </trkpt>
      <trkpt lat="36.3863130" lon="-5.2084700">
        <ele>17.3</ele>
        <time>2019-08-28T07:43:58Z</time>
      </trkpt>
      <trkpt lat="36.3862560" lon="-5.2085470">
        <ele>16.9</ele>
        <time>2019-08-28T07:43:59Z</time>
      </trkpt>
      <trkpt lat="36.3861970" lon="-5.2086240">
        <ele>16.6</ele>
        <time>2019-08-28T07:44:00Z</time>
      </trkpt>
      <trkpt lat="36.3861370" lon="-5.2087000">
        <ele>16.3</ele>
        <time>2019-08-28T07:44:01Z</time>
      </trkpt>
      <trkpt lat="36.3860760" lon="-5.2087770">
        <ele>16.0</ele>
        <time>2019-08-28T07:44:02Z</time>
      </trkpt>
      <trkpt lat="36.3860150" lon="-5.2088550">
        <ele>15.7</ele>
        <time>2019-08-28T07:44:03Z</time>
      </trkpt>
      <trkpt lat="36.3859540" lon="-5.2089350">
        <ele>15.5</ele>
        <time>2019-08-28T07:44:04Z</time>
      </trkpt>
      <trkpt lat="36.3858910" lon="-5.2090160">
        <ele>15.3</ele>
        <time>2019-08-28T07:44:05Z</time>
      </trkpt>
      <trkpt lat="36.3858270" lon="-5.2090970">
        <ele>15.1</ele>
        <time>2019-08-28T07:44:06Z</time>
      </trkpt>
      <trkpt lat="36.3857600" lon="-5.2091790">
        <ele>14.8</ele>
        <time>2019-08-28T07:44:07Z</time>
      </trkpt>
      <trkpt lat="36.3856920" lon="-5.2092610">
        <ele>14.6</ele>
        <time>2019-08-28T07:44:08Z</time>
      </trkpt>
      <trkpt lat="36.3856240" lon="-5.2093430">
        <ele>14.3</ele>
        <time>2019-08-28T07:44:09Z</time>
      </trkpt>
      <trkpt lat="36.3855540" lon="-5.2094260">
        <ele>14.0</ele>
        <time>2019-08-28T07:44:10Z</time>
      </trkpt>
      <trkpt lat="36.3854840" lon="-5.2095100">
        <ele>13.8</ele>
        <time>2019-08-28T07:44:11Z</time>
      </trkpt>
      <trkpt lat="36.3854130" lon="-5.2095940">
        <ele>13.6</ele>
        <time>2019-08-28T07:44:12Z</time>
      </trkpt>
      <trkpt lat="36.3853420" lon="-5.2096780">
        <ele>13.3</ele>
        <time>2019-08-28T07:44:13Z</time>
      </trkpt>
      <trkpt lat="36.3852700" lon="-5.2097630">
        <ele>13.0</ele>
        <time>2019-08-28T07:44:14Z</time>
      </trkpt>
      <trkpt lat="36.3851980" lon="-5.2098490">
        <ele>12.6</ele>
        <time>2019-08-28T07:44:15Z</time>
      </trkpt>
      <trkpt lat="36.3851260" lon="-5.2099340">
        <ele>12.3</ele>
        <time>2019-08-28T07:44:16Z</time>
      </trkpt>
      <trkpt lat="36.3850550" lon="-5.2100200">
        <ele>12.0</ele>
        <time>2019-08-28T07:44:17Z</time>
      </trkpt>
      <trkpt lat="36.3849850" lon="-5.2101050">
        <ele>11.7</ele>
        <time>2019-08-28T07:44:18Z</time>
      </trkpt>
      <trkpt lat="36.3849160" lon="-5.2101910">
        <ele>11.4</ele>
        <time>2019-08-28T07:44:19Z</time>
      </trkpt>
      <trkpt lat="36.3848480" lon="-5.2102770">
        <ele>11.2</ele>
        <time>2019-08-28T07:44:20Z</time>
      </trkpt>
      <trkpt lat="36.3847810" lon="-5.2103620">
        <ele>11.0</ele>
        <time>2019-08-28T07:44:21Z</time>
      </trkpt>
      <trkpt lat="36.3847140" lon="-5.2104460">
        <ele>10.8</ele>
        <time>2019-08-28T07:44:22Z</time>
      </trkpt>
      <trkpt lat="36.3846490" lon="-5.2105280">
        <ele>10.7</ele>
        <time>2019-08-28T07:44:23Z</time>
      </trkpt>
      <trkpt lat="36.3845850" lon="-5.2106090">
        <ele>10.5</ele>
        <time>2019-08-28T07:44:24Z</time>
      </trkpt>
      <trkpt lat="36.3845230" lon="-5.2106880">
        <ele>10.5</ele>
        <time>2019-08-28T07:44:25Z</time>
      </trkpt>
      <trkpt lat="36.3844620" lon="-5.2107650">
        <ele>10.4</ele>
        <time>2019-08-28T07:44:26Z</time>
      </trkpt>
      <trkpt lat="36.3844020" lon="-5.2108390">
        <ele>10.4</ele>
        <time>2019-08-28T07:44:27Z</time>
      </trkpt>
      <trkpt lat="36.3843440" lon="-5.2109100">
        <ele>10.4</ele>
        <time>2019-08-28T07:44:28Z</time>
      </trkpt>
      <trkpt lat="36.3842870" lon="-5.2109770">
        <ele>10.4</ele>
        <time>2019-08-28T07:44:29Z</time>
      </trkpt>
      <trkpt lat="36.3842300" lon="-5.2110400">
        <ele>10.3</ele>
        <time>2019-08-28T07:44:30Z</time>
      </trkpt>
      <trkpt lat="36.3841690" lon="-5.2110960">
        <ele>10.3</ele>
        <time>2019-08-28T07:44:31Z</time>
      </trkpt>
      <trkpt lat="36.3841040" lon="-5.2111440">
        <ele>10.3</ele>
        <time>2019-08-28T07:44:32Z</time>
      </trkpt>
      <trkpt lat="36.3840380" lon="-5.2111880">
        <ele>10.4</ele>
        <time>2019-08-28T07:44:33Z</time>
      </trkpt>
      <trkpt lat="36.3839740" lon="-5.2112320">
        <ele>10.4</ele>
        <time>2019-08-28T07:44:34Z</time>
      </trkpt>
      <trkpt lat="36.3839110" lon="-5.2112760">
        <ele>10.4</ele>
        <time>2019-08-28T07:44:35Z</time>
      </trkpt>
      <trkpt lat="36.3838480" lon="-5.2113150">
        <ele>10.5</ele>
        <time>2019-08-28T07:44:36Z</time>
      </trkpt>
      <trkpt lat="36.3837830" lon="-5.2113490">
        <ele>10.5</ele>
        <time>2019-08-28T07:44:37Z</time>
      </trkpt>
      <trkpt lat="36.3837190" lon="-5.2113790">
        <ele>10.6</ele>
        <time>2019-08-28T07:44:38Z</time>
      </trkpt>
      <trkpt lat="36.3836550" lon="-5.2114070">
        <ele>10.7</ele>
        <time>2019-08-28T07:44:39Z</time>
      </trkpt>
      <trkpt lat="36.3835920" lon="-5.2114320">
        <ele>10.8</ele>
        <time>2019-08-28T07:44:40Z</time>
      </trkpt>
      <trkpt lat="36.3835290" lon="-5.2114550">
        <ele>10.8</ele>
        <time>2019-08-28T07:44:41Z</time>
      </trkpt>
      <trkpt lat="36.3834660" lon="-5.2114750">
        <ele>11.0</ele>
        <time>2019-08-28T07:44:42Z</time>
      </trkpt>
      <trkpt lat="36.3834030" lon="-5.2114930">
        <ele>11.1</ele>
        <time>2019-08-28T07:44:43Z</time>
      </trkpt>
      <trkpt lat="36.3833400" lon="-5.2115070">
        <ele>11.3</ele>
        <time>2019-08-28T07:44:44Z</time>
      </trkpt>
      <trkpt lat="36.3832770" lon="-5.2115210">
        <ele>11.5</ele>
        <time>2019-08-28T07:44:45Z</time>
      </trkpt>
      <trkpt lat="36.3832140" lon="-5.2115330">
        <ele>11.7</ele>
        <time>2019-08-28T07:44:46Z</time>
      </trkpt>
      <trkpt lat="36.3831500" lon="-5.2115460">
        <ele>12.0</ele>
        <time>2019-08-28T07:44:47Z</time>
      </trkpt>
      <trkpt lat="36.3830870" lon="-5.2115570">
        <ele>12.1</ele>
        <time>2019-08-28T07:44:48Z</time>
      </trkpt>
      <trkpt lat="36.3830240" lon="-5.2115690">
        <ele>12.3</ele>
        <time>2019-08-28T07:44:49Z</time>
      </trkpt>
      <trkpt lat="36.3829620" lon="-5.2115810">
        <ele>12.5</ele>
        <time>2019-08-28T07:44:50Z</time>
      </trkpt>
      <trkpt lat="36.3829000" lon="-5.2115930">
        <ele>12.6</ele>
        <time>2019-08-28T07:44:51Z</time>
      </trkpt>
      <trkpt lat="36.3828390" lon="-5.2116070">
        <ele>12.7</ele>
        <time>2019-08-28T07:44:52Z</time>
      </trkpt>
      <trkpt lat="36.3827770" lon="-5.2116230">
        <ele>12.8</ele>
        <time>2019-08-28T07:44:53Z</time>
      </trkpt>
      <trkpt lat="36.3827170" lon="-5.2116420">
        <ele>12.8</ele>
        <time>2019-08-28T07:44:54Z</time>
      </trkpt>
      <trkpt lat="36.3826560" lon="-5.2116620">
        <ele>12.9</ele>
        <time>2019-08-28T07:44:55Z</time>
      </trkpt>
      <trkpt lat="36.3825970" lon="-5.2116850">
        <ele>13.0</ele>
        <time>2019-08-28T07:44:56Z</time>
      </trkpt>
      <trkpt lat="36.3825370" lon="-5.2117100">
        <ele>13.1</ele>
        <time>2019-08-28T07:44:57Z</time>
      </trkpt>
      <trkpt lat="36.3824780" lon="-5.2117380">
        <ele>13.2</ele>
        <time>2019-08-28T07:44:58Z</time>
      </trkpt>
      <trkpt lat="36.3824200" lon="-5.2117680">
        <ele>13.2</ele>
        <time>2019-08-28T07:44:59Z</time>
      </trkpt>
      <trkpt lat="36.3823630" lon="-5.2118010">
        <ele>13.3</ele>
        <time>2019-08-28T07:45:00Z</time>
      </trkpt>
      <trkpt lat="36.3823070" lon="-5.2118360">
        <ele>13.4</ele>
        <time>2019-08-28T07:45:01Z</time>
      </trkpt>
      <trkpt lat="36.3822530" lon="-5.2118730">
        <ele>13.4</ele>
        <time>2019-08-28T07:45:02Z</time>
      </trkpt>
      <trkpt lat="36.3822010" lon="-5.2119120">
        <ele>13.5</ele>
        <time>2019-08-28T07:45:03Z</time>
      </trkpt>
      <trkpt lat="36.3821500" lon="-5.2119520">
        <ele>13.5</ele>
        <time>2019-08-28T07:45:04Z</time>
      </trkpt>
      <trkpt lat="36.3821010" lon="-5.2119950">
        <ele>13.6</ele>
        <time>2019-08-28T07:45:05Z</time>
      </trkpt>
      <trkpt lat="36.3820540" lon="-5.2120410">
        <ele>13.7</ele>
        <time>2019-08-28T07:45:06Z</time>
      </trkpt>
      <trkpt lat="36.3820110" lon="-5.2120900">
        <ele>13.7</ele>
        <time>2019-08-28T07:45:07Z</time>
      </trkpt>
      <trkpt lat="36.3819690" lon="-5.2121410">
        <ele>13.8</ele>
        <time>2019-08-28T07:45:08Z</time>
      </trkpt>
      <trkpt lat="36.3819270" lon="-5.2121930">
        <ele>13.9</ele>
        <time>2019-08-28T07:45:09Z</time>
      </trkpt>
      <trkpt lat="36.3818870" lon="-5.2122460">
        <ele>14.0</ele>
        <time>2019-08-28T07:45:10Z</time>
      </trkpt>
      <trkpt lat="36.3818480" lon="-5.2123000">
        <ele>14.2</ele>
        <time>2019-08-28T07:45:11Z</time>
      </trkpt>
      <trkpt lat="36.3818110" lon="-5.2123560">
        <ele>14.4</ele>
        <time>2019-08-28T07:45:12Z</time>
      </trkpt>
      <trkpt lat="36.3817750" lon="-5.2124120">
        <ele>14.7</ele>
        <time>2019-08-28T07:45:13Z</time>
      </trkpt>
      <trkpt lat="36.3817400" lon="-5.2124690">
        <ele>15.0</ele>
        <time>2019-08-28T07:45:14Z</time>
      </trkpt>
      <trkpt lat="36.3817060" lon="-5.2125280">
        <ele>15.3</ele>
        <time>2019-08-28T07:45:15Z</time>
      </trkpt>
      <trkpt lat="36.3816740" lon="-5.2125880">
        <ele>15.6</ele>
        <time>2019-08-28T07:45:16Z</time>
      </trkpt>
      <trkpt lat="36.3816440" lon="-5.2126490">
        <ele>15.9</ele>
        <time>2019-08-28T07:45:17Z</time>
      </trkpt>
      <trkpt lat="36.3816150" lon="-5.2127110">
        <ele>16.2</ele>
        <time>2019-08-28T07:45:18Z</time>
      </trkpt>
      <trkpt lat="36.3815890" lon="-5.2127750">
        <ele>16.4</ele>
        <time>2019-08-28T07:45:19Z</time>
      </trkpt>
      <trkpt lat="36.3815650" lon="-5.2128390">
        <ele>16.6</ele>
        <time>2019-08-28T07:45:20Z</time>
      </trkpt>
      <trkpt lat="36.3815420" lon="-5.2129040">
        <ele>16.8</ele>
        <time>2019-08-28T07:45:21Z</time>
      </trkpt>
      <trkpt lat="36.3815210" lon="-5.2129700">
        <ele>17.0</ele>
        <time>2019-08-28T07:45:22Z</time>
      </trkpt>
      <trkpt lat="36.3815010" lon="-5.2130360">
        <ele>17.1</ele>
        <time>2019-08-28T07:45:23Z</time>
      </trkpt>
      <trkpt lat="36.3814830" lon="-5.2131030">
        <ele>17.3</ele>
        <time>2019-08-28T07:45:24Z</time>
      </trkpt>
      <trkpt lat="36.3814660" lon="-5.2131700">
        <ele>17.4</ele>
        <time>2019-08-28T07:45:25Z</time>
      </trkpt>
      <trkpt lat="36.3814500" lon="-5.2132380">
        <ele>17.5</ele>
        <time>2019-08-28T07:45:26Z</time>
      </trkpt>
      <trkpt lat="36.3814330" lon="-5.2133070">
        <ele>17.6</ele>
        <time>2019-08-28T07:45:27Z</time>
      </trkpt>
      <trkpt lat="36.3814180" lon="-5.2133770">
        <ele>17.7</ele>
        <time>2019-08-28T07:45:28Z</time>
      </trkpt>
      <trkpt lat="36.3814020" lon="-5.2134470">
        <ele>17.8</ele>
        <time>2019-08-28T07:45:29Z</time>
      </trkpt>
      <trkpt lat="36.3813860" lon="-5.2135180">
        <ele>18.0</ele>
        <time>2019-08-28T07:45:30Z</time>
      </trkpt>
      <trkpt lat="36.3813690" lon="-5.2135900">
        <ele>18.1</ele>
        <time>2019-08-28T07:45:31Z</time>
      </trkpt>
      <trkpt lat="36.3813530" lon="-5.2136620">
        <ele>18.2</ele>
        <time>2019-08-28T07:45:32Z</time>
      </trkpt>
      <trkpt lat="36.3813360" lon="-5.2137360">
        <ele>18.3</ele>
        <time>2019-08-28T07:45:33Z</time>
      </trkpt>
      <trkpt lat="36.3813180" lon="-5.2138100">
        <ele>18.4</ele>
        <time>2019-08-28T07:45:34Z</time>
      </trkpt>
      <trkpt lat="36.3813010" lon="-5.2138860">
        <ele>18.5</ele>
        <time>2019-08-28T07:45:35Z</time>
      </trkpt>
      <trkpt lat="36.3812830" lon="-5.2139630">
        <ele>18.5</ele>
        <time>2019-08-28T07:45:36Z</time>
      </trkpt>
      <trkpt lat="36.3812660" lon="-5.2140400">
        <ele>18.6</ele>
        <time>2019-08-28T07:45:37Z</time>
      </trkpt>
      <trkpt lat="36.3812480" lon="-5.2141190">
        <ele>18.6</ele>
        <time>2019-08-28T07:45:38Z</time>
      </trkpt>
      <trkpt lat="36.3812300" lon="-5.2141990">
        <ele>18.7</ele>
        <time>2019-08-28T07:45:39Z</time>
      </trkpt>
      <trkpt lat="36.3812120" lon="-5.2142790">
        <ele>18.7</ele>
        <time>2019-08-28T07:45:40Z</time>
      </trkpt>
      <trkpt lat="36.3811940" lon="-5.2143600">
        <ele>18.7</ele>
        <time>2019-08-28T07:45:41Z</time>
      </trkpt>
      <trkpt lat="36.3811750" lon="-5.2144430">
        <ele>18.7</ele>
        <time>2019-08-28T07:45:42Z</time>
      </trkpt>
      <trkpt lat="36.3811550" lon="-5.2145260">
        <ele>18.6</ele>
        <time>2019-08-28T07:45:43Z</time>
      </trkpt>
      <trkpt lat="36.3811360" lon="-5.2146100">
        <ele>18.6</ele>
        <time>2019-08-28T07:45:44Z</time>
      </trkpt>
      <trkpt lat="36.3811170" lon="-5.2146950">
        <ele>18.5</ele>
        <time>2019-08-28T07:45:45Z</time>
      </trkpt>
      <trkpt lat="36.3810990" lon="-5.2147820">
        <ele>18.3</ele>
        <time>2019-08-28T07:45:46Z</time>
      </trkpt>
      <trkpt lat="36.3810790" lon="-5.2148700">
        <ele>18.1</ele>
        <time>2019-08-28T07:45:47Z</time>
      </trkpt>
      <trkpt lat="36.3810580" lon="-5.2149590">
        <ele>18.0</ele>
        <time>2019-08-28T07:45:48Z</time>
      </trkpt>
      <trkpt lat="36.3810370" lon="-5.2150500">
        <ele>17.8</ele>
        <time>2019-08-28T07:45:49Z</time>
      </trkpt>
      <trkpt lat="36.3810160" lon="-5.2151440">
        <ele>17.6</ele>
        <time>2019-08-28T07:45:50Z</time>
      </trkpt>
      <trkpt lat="36.3809940" lon="-5.2152390">
        <ele>17.4</ele>
        <time>2019-08-28T07:45:51Z</time>
      </trkpt>
      <trkpt lat="36.3809720" lon="-5.2153380">
        <ele>17.3</ele>
        <time>2019-08-28T07:45:52Z</time>
      </trkpt>
      <trkpt lat="36.3809480" lon="-5.2154400">
        <ele>17.1</ele>
        <time>2019-08-28T07:45:53Z</time>
      </trkpt>
      <trkpt lat="36.3809240" lon="-5.2155420">
        <ele>16.8</ele>
        <time>2019-08-28T07:45:54Z</time>
      </trkpt>
      <trkpt lat="36.3808970" lon="-5.2156420">
        <ele>16.6</ele>
        <time>2019-08-28T07:45:55Z</time>
      </trkpt>
      <trkpt lat="36.3808710" lon="-5.2157420">
        <ele>16.3</ele>
        <time>2019-08-28T07:45:56Z</time>
      </trkpt>
      <trkpt lat="36.3808490" lon="-5.2158410">
        <ele>16.0</ele>
        <time>2019-08-28T07:45:57Z</time>
      </trkpt>
      <trkpt lat="36.3808330" lon="-5.2159410">
        <ele>15.5</ele>
        <time>2019-08-28T07:45:58Z</time>
      </trkpt>
      <trkpt lat="36.3808240" lon="-5.2160390">
        <ele>14.7</ele>
        <time>2019-08-28T07:45:59Z</time>
      </trkpt>
      <trkpt lat="36.3808210" lon="-5.2161350">
        <ele>13.8</ele>
        <time>2019-08-28T07:46:00Z</time>
      </trkpt>
      <trkpt lat="36.3808260" lon="-5.2162290">
        <ele>12.6</ele>
        <time>2019-08-28T07:46:01Z</time>
      </trkpt>
      <trkpt lat="36.3808360" lon="-5.2163200">
        <ele>11.9</ele>
        <time>2019-08-28T07:46:02Z</time>
      </trkpt>
      <trkpt lat="36.3808570" lon="-5.2164070">
        <ele>11.8</ele>
        <time>2019-08-28T07:46:03Z</time>
      </trkpt>
      <trkpt lat="36.3808890" lon="-5.2164860">
        <ele>11.9</ele>
        <time>2019-08-28T07:46:04Z</time>
      </trkpt>
      <trkpt lat="36.3809330" lon="-5.2165500">
        <ele>12.0</ele>
        <time>2019-08-28T07:46:05Z</time>
      </trkpt>
      <trkpt lat="36.3809840" lon="-5.2166020">
        <ele>12.1</ele>
        <time>2019-08-28T07:46:06Z</time>
      </trkpt>
      <trkpt lat="36.3810370" lon="-5.2166430">
        <ele>12.3</ele>
        <time>2019-08-28T07:46:07Z</time>
      </trkpt>
      <trkpt lat="36.3810890" lon="-5.2166800">
        <ele>12.6</ele>
        <time>2019-08-28T07:46:08Z</time>
      </trkpt>
      <trkpt lat="36.3811380" lon="-5.2167150">
        <ele>12.9</ele>
        <time>2019-08-28T07:46:09Z</time>
      </trkpt>
      <trkpt lat="36.3811860" lon="-5.2167480">
        <ele>13.2</ele>
        <time>2019-08-28T07:46:10Z</time>
      </trkpt>
      <trkpt lat="36.3812330" lon="-5.2167800">
        <ele>13.5</ele>
        <time>2019-08-28T07:46:11Z</time>
      </trkpt>
      <trkpt lat="36.3812790" lon="-5.2168100">
        <ele>13.8</ele>
        <time>2019-08-28T07:46:12Z</time>
      </trkpt>
      <trkpt lat="36.3813250" lon="-5.2168390">
        <ele>14.1</ele>
        <time>2019-08-28T07:46:13Z</time>
      </trkpt>
      <trkpt lat="36.3813690" lon="-5.2168650">
        <ele>14.4</ele>
        <time>2019-08-28T07:46:14Z</time>
      </trkpt>
      <trkpt lat="36.3814140" lon="-5.2168890">
        <ele>14.6</ele>
        <time>2019-08-28T07:46:15Z</time>
      </trkpt>
      <trkpt lat="36.3814590" lon="-5.2169090">
        <ele>14.9</ele>
        <time>2019-08-28T07:46:16Z</time>
      </trkpt>
      <trkpt lat="36.3815040" lon="-5.2169250">
        <ele>15.1</ele>
        <time>2019-08-28T07:46:17Z</time>
      </trkpt>
      <trkpt lat="36.3815500" lon="-5.2169330">
        <ele>15.3</ele>
        <time>2019-08-28T07:46:18Z</time>
      </trkpt>
      <trkpt lat="36.3815950" lon="-5.2169370">
        <ele>15.5</ele>
        <time>2019-08-28T07:46:19Z</time>
      </trkpt>
      <trkpt lat="36.3816380" lon="-5.2169420">
        <ele>15.4</ele>
        <time>2019-08-28T07:46:20Z</time>
      </trkpt>
      <trkpt lat="36.3816790" lon="-5.2169540">
        <ele>15.6</ele>
        <time>2019-08-28T07:46:21Z</time>
      </trkpt>
      <trkpt lat="36.3817180" lon="-5.2169750">
        <ele>15.8</ele>
        <time>2019-08-28T07:46:22Z</time>
      </trkpt>
      <trkpt lat="36.3817560" lon="-5.2170040">
        <ele>16.0</ele>
        <time>2019-08-28T07:46:23Z</time>
      </trkpt>
      <trkpt lat="36.3817920" lon="-5.2170410">
        <ele>16.1</ele>
        <time>2019-08-28T07:46:24Z</time>
      </trkpt>
      <trkpt lat="36.3818280" lon="-5.2170840">
        <ele>16.3</ele>
        <time>2019-08-28T07:46:25Z</time>
      </trkpt>
      <trkpt lat="36.3818660" lon="-5.2171300">
        <ele>16.5</ele>
        <time>2019-08-28T07:46:26Z</time>
      </trkpt>
      <trkpt lat="36.3819070" lon="-5.2171750">
        <ele>16.6</ele>
        <time>2019-08-28T07:46:27Z</time>
      </trkpt>
      <trkpt lat="36.3819520" lon="-5.2172190">
        <ele>16.8</ele>
        <time>2019-08-28T07:46:28Z</time>
      </trkpt>
      <trkpt lat="36.3820010" lon="-5.2172610">
        <ele>17.0</ele>
        <time>2019-08-28T07:46:29Z</time>
      </trkpt>
      <trkpt lat="36.3820520" lon="-5.2173050">
        <ele>17.2</ele>
        <time>2019-08-28T07:46:30Z</time>
      </trkpt>
      <trkpt lat="36.3821040" lon="-5.2173510">
        <ele>17.3</ele>
        <time>2019-08-28T07:46:31Z</time>
      </trkpt>
      <trkpt lat="36.3821570" lon="-5.2173970">
        <ele>17.5</ele>
        <time>2019-08-28T07:46:32Z</time>
      </trkpt>
      <trkpt lat="36.3822110" lon="-5.2174450">
        <ele>17.8</ele>
        <time>2019-08-28T07:46:33Z</time>
      </trkpt>
      <trkpt lat="36.3822650" lon="-5.2174920">
        <ele>18.1</ele>
        <time>2019-08-28T07:46:34Z</time>
      </trkpt>
      <trkpt lat="36.3823190" lon="-5.2175390">
        <ele>18.5</ele>
        <time>2019-08-28T07:46:35Z</time>
      </trkpt>
      <trkpt lat="36.3823730" lon="-5.2175850">
        <ele>18.8</ele>
        <time>2019-08-28T07:46:36Z</time>
      </trkpt>
      <trkpt lat="36.3824250" lon="-5.2176300">
        <ele>19.2</ele>
        <time>2019-08-28T07:46:37Z</time>
      </trkpt>
      <trkpt lat="36.3824750" lon="-5.2176740">
        <ele>19.6</ele>
        <time>2019-08-28T07:46:38Z</time>
      </trkpt>
      <trkpt lat="36.3825250" lon="-5.2177180">
        <ele>19.9</ele>
        <time>2019-08-28T07:46:39Z</time>
      </trkpt>
      <trkpt lat="36.3825710" lon="-5.2177640">
        <ele>20.0</ele>
        <time>2019-08-28T07:46:40Z</time>
      </trkpt>
      <trkpt lat="36.3826130" lon="-5.2178150">
        <ele>20.2</ele>
        <time>2019-08-28T07:46:41Z</time>
      </trkpt>
      <trkpt lat="36.3826530" lon="-5.2178680">
        <ele>20.5</ele>
        <time>2019-08-28T07:46:42Z</time>
      </trkpt>
      <trkpt lat="36.3826920" lon="-5.2179230">
        <ele>20.6</ele>
        <time>2019-08-28T07:46:43Z</time>
      </trkpt>
      <trkpt lat="36.3827350" lon="-5.2179770">
        <ele>20.8</ele>
        <time>2019-08-28T07:46:44Z</time>
      </trkpt>
      <trkpt lat="36.3827830" lon="-5.2180260">
        <ele>20.8</ele>
        <time>2019-08-28T07:46:45Z</time>
      </trkpt>
      <trkpt lat="36.3828360" lon="-5.2180680">
        <ele>20.9</ele>
        <time>2019-08-28T07:46:46Z</time>
      </trkpt>
      <trkpt lat="36.3828900" lon="-5.2181040">
        <ele>20.9</ele>
        <time>2019-08-28T07:46:47Z</time>
      </trkpt>
      <trkpt lat="36.3829420" lon="-5.2181370">
        <ele>21.0</ele>
        <time>2019-08-28T07:46:48Z</time>
      </trkpt>
      <trkpt lat="36.3829930" lon="-5.2181670">
        <ele>21.1</ele>
        <time>2019-08-28T07:46:49Z</time>
      </trkpt>
      <trkpt lat="36.3830420" lon="-5.2181960">
        <ele>21.2</ele>
        <time>2019-08-28T07:46:50Z</time>
      </trkpt>
      <trkpt lat="36.3830890" lon="-5.2182240">
        <ele>21.3</ele>
        <time>2019-08-28T07:46:51Z</time>
      </trkpt>
      <trkpt lat="36.3831350" lon="-5.2182500">
        <ele>21.5</ele>
        <time>2019-08-28T07:46:52Z</time>
      </trkpt>
      <trkpt lat="36.3831800" lon="-5.2182750">
        <ele>21.6</ele>
        <time>2019-08-28T07:46:53Z</time>
      </trkpt>
      <trkpt lat="36.3832240" lon="-5.2182990">
        <ele>21.8</ele>
        <time>2019-08-28T07:46:54Z</time>
      </trkpt>
      <trkpt lat="36.3832690" lon="-5.2183220">
        <ele>21.9</ele>
        <time>2019-08-28T07:46:55Z</time>
      </trkpt>
      <trkpt lat="36.3833140" lon="-5.2183430">
        <ele>22.1</ele>
        <time>2019-08-28T07:46:56Z</time>
      </trkpt>
      <trkpt lat="36.3833600" lon="-5.2183620">
        <ele>22.3</ele>
        <time>2019-08-28T07:46:57Z</time>
      </trkpt>
      <trkpt lat="36.3834050" lon="-5.2183780">
        <ele>22.5</ele>
        <time>2019-08-28T07:46:58Z</time>
      </trkpt>
      <trkpt lat="36.3834500" lon="-5.2183940">
        <ele>22.7</ele>
        <time>2019-08-28T07:46:59Z</time>
      </trkpt>
      <trkpt lat="36.3834920" lon="-5.2184090">
        <ele>22.9</ele>
        <time>2019-08-28T07:47:00Z</time>
      </trkpt>
      <trkpt lat="36.3835340" lon="-5.2184250">
        <ele>23.1</ele>
        <time>2019-08-28T07:47:01Z</time>
      </trkpt>
      <trkpt lat="36.3835740" lon="-5.2184400">
        <ele>23.4</ele>
        <time>2019-08-28T07:47:02Z</time>
      </trkpt>
      <trkpt lat="36.3836150" lon="-5.2184530">
        <ele>23.7</ele>
        <time>2019-08-28T07:47:03Z</time>
      </trkpt>
      <trkpt lat="36.3836550" lon="-5.2184640">
        <ele>24.0</ele>
        <time>2019-08-28T07:47:04Z</time>
      </trkpt>
      <trkpt lat="36.3836960" lon="-5.2184760">
        <ele>24.4</ele>
        <time>2019-08-28T07:47:05Z</time>
      </trkpt>
      <trkpt lat="36.3837360" lon="-5.2184860">
        <ele>24.8</ele>
        <time>2019-08-28T07:47:06Z</time>
      </trkpt>
      <trkpt lat="36.3837750" lon="-5.2184970">
        <ele>25.3</ele>
        <time>2019-08-28T07:47:07Z</time>
      </trkpt>
      <trkpt lat="36.3838150" lon="-5.2185080">
        <ele>25.8</ele>
        <time>2019-08-28T07:47:08Z</time>
      </trkpt>
      <trkpt lat="36.3838540" lon="-5.2185190">
        <ele>26.2</ele>
        <time>2019-08-28T07:47:09Z</time>
      </trkpt>
      <trkpt lat="36.3838940" lon="-5.2185300">
        <ele>26.6</ele>
        <time>2019-08-28T07:47:10Z</time>
      </trkpt>
      <trkpt lat="36.3839350" lon="-5.2185400">
        <ele>27.0</ele>
        <time>2019-08-28T07:47:11Z</time>
      </trkpt>
      <trkpt lat="36.3839760" lon="-5.2185500">
        <ele>27.4</ele>
        <time>2019-08-28T07:47:12Z</time>
      </trkpt>
      <trkpt lat="36.3840170" lon="-5.2185600">
        <ele>27.7</ele>
        <time>2019-08-28T07:47:13Z</time>
      </trkpt>
      <trkpt lat="36.3840580" lon="-5.2185680">
        <ele>28.1</ele>
        <time>2019-08-28T07:47:14Z</time>
      </trkpt>
      <trkpt lat="36.3840980" lon="-5.2185770">
        <ele>28.5</ele>
        <time>2019-08-28T07:47:15Z</time>
      </trkpt>
      <trkpt lat="36.3841360" lon="-5.2185850">
        <ele>28.9</ele>
        <time>2019-08-28T07:47:16Z</time>
      </trkpt>
      <trkpt lat="36.3841740" lon="-5.2185930">
        <ele>29.2</ele>
        <time>2019-08-28T07:47:17Z</time>
      </trkpt>
      <trkpt lat="36.3842130" lon="-5.2186020">
        <ele>29.6</ele>
        <time>2019-08-28T07:47:18Z</time>
      </trkpt>
      <trkpt lat="36.3842520" lon="-5.2186100">
        <ele>30.0</ele>
        <time>2019-08-28T07:47:19Z</time>
      </trkpt>
      <trkpt lat="36.3842910" lon="-5.2186180">
        <ele>30.3</ele>
        <time>2019-08-28T07:47:20Z</time>
      </trkpt>
      <trkpt lat="36.3843300" lon="-5.2186260">
        <ele>30.7</ele>
        <time>2019-08-28T07:47:21Z</time>
      </trkpt>
      <trkpt lat="36.3843700" lon="-5.2186360">
        <ele>31.1</ele>
        <time>2019-08-28T07:47:22Z</time>
      </trkpt>
      <trkpt lat="36.3844090" lon="-5.2186480">
        <ele>31.5</ele>
        <time>2019-08-28T07:47:23Z</time>
      </trkpt>
      <trkpt lat="36.3844480" lon="-5.2186600">
        <ele>31.7</ele>
        <time>2019-08-28T07:47:24Z</time>
      </trkpt>
      <trkpt lat="36.3844840" lon="-5.2186740">
        <ele>32.0</ele>
        <time>2019-08-28T07:47:25Z</time>
      </trkpt>
      <trkpt lat="36.3845180" lon="-5.2186880">
        <ele>32.3</ele>
        <time>2019-08-28T07:47:26Z</time>
      </trkpt>
      <trkpt lat="36.3845520" lon="-5.2187000">
        <ele>32.5</ele>
        <time>2019-08-28T07:47:27Z</time>
      </trkpt>
      <trkpt lat="36.3845860" lon="-5.2187140">
        <ele>32.7</ele>
        <time>2019-08-28T07:47:28Z</time>
      </trkpt>
      <trkpt lat="36.3846190" lon="-5.2187290">
        <ele>32.8</ele>
        <time>2019-08-28T07:47:29Z</time>
      </trkpt>
      <trkpt lat="36.3846520" lon="-5.2187450">
        <ele>33.0</ele>
        <time>2019-08-28T07:47:30Z</time>
      </trkpt>
      <trkpt lat="36.3846850" lon="-5.2187610">
        <ele>33.2</ele>
        <time>2019-08-28T07:47:31Z</time>
      </trkpt>
      <trkpt lat="36.3847200" lon="-5.2187770">
        <ele>33.4</ele>
        <time>2019-08-28T07:47:32Z</time>
      </trkpt>
      <trkpt lat="36.3847540" lon="-5.2187940">
        <ele>33.6</ele>
        <time>2019-08-28T07:47:33Z</time>
      </trkpt>
      <trkpt lat="36.3847880" lon="-5.2188120">
        <ele>33.8</ele>
        <time>2019-08-28T07:47:34Z</time>
      </trkpt>
      <trkpt lat="36.3848210" lon="-5.2188300">
        <ele>34.0</ele>
        <time>2019-08-28T07:47:35Z</time>
      </trkpt>
      <trkpt lat="36.3848530" lon="-5.2188470">
        <ele>34.2</ele>
        <time>2019-08-28T07:47:36Z</time>
      </trkpt>
      <trkpt lat="36.3848850" lon="-5.2188660">
        <ele>34.4</ele>
        <time>2019-08-28T07:47:37Z</time>
      </trkpt>
      <trkpt lat="36.3849160" lon="-5.2188860">
        <ele>34.5</ele>
        <time>2019-08-28T07:47:38Z</time>
      </trkpt>
      <trkpt lat="36.3849470" lon="-5.2189070">
        <ele>34.7</ele>
        <time>2019-08-28T07:47:39Z</time>
      </trkpt>
      <trkpt lat="36.3849780" lon="-5.2189270">
        <ele>34.8</ele>
        <time>2019-08-28T07:47:40Z</time>
      </trkpt>
      <trkpt lat="36.3850080" lon="-5.2189470">
        <ele>35.0</ele>
        <time>2019-08-28T07:47:41Z</time>
      </trkpt>
      <trkpt lat="36.3850380" lon="-5.2189670">
        <ele>35.2</ele>
        <time>2019-08-28T07:47:42Z</time>
      </trkpt>
      <trkpt lat="36.3850670" lon="-5.2189880">
        <ele>35.4</ele>
        <time>2019-08-28T07:47:43Z</time>
      </trkpt>
      <trkpt lat="36.3850960" lon="-5.2190080">
        <ele>35.5</ele>
        <time>2019-08-28T07:47:44Z</time>
      </trkpt>
      <trkpt lat="36.3851250" lon="-5.2190280">
        <ele>35.6</ele>
        <time>2019-08-28T07:47:45Z</time>
      </trkpt>
      <trkpt lat="36.3851550" lon="-5.2190470">
        <ele>35.7</ele>
        <time>2019-08-28T07:47:46Z</time>
      </trkpt>
      <trkpt lat="36.3851840" lon="-5.2190670">
        <ele>35.7</ele>
        <time>2019-08-28T07:47:47Z</time>
      </trkpt>
      <trkpt lat="36.3852120" lon="-5.2190860">
        <ele>35.8</ele>
        <time>2019-08-28T07:47:48Z</time>
      </trkpt>
      <trkpt lat="36.3852400" lon="-5.2191050">
        <ele>35.9</ele>
        <time>2019-08-28T07:47:49Z</time>
      </trkpt>
      <trkpt lat="36.3852680" lon="-5.2191240">
        <ele>35.9</ele>
        <time>2019-08-28T07:47:50Z</time>
      </trkpt>
      <trkpt lat="36.3852940" lon="-5.2191440">
        <ele>35.9</ele>
        <time>2019-08-28T07:47:51Z</time>
      </trkpt>
      <trkpt lat="36.3853210" lon="-5.2191640">
        <ele>36.0</ele>
        <time>2019-08-28T07:47:52Z</time>
      </trkpt>
      <trkpt lat="36.3853480" lon="-5.2191830">
        <ele>36.0</ele>
        <time>2019-08-28T07:47:53Z</time>
      </trkpt>
      <trkpt lat="36.3853750" lon="-5.2192040">
        <ele>36.0</ele>
        <time>2019-08-28T07:47:54Z</time>
      </trkpt>
      <trkpt lat="36.3854020" lon="-5.2192240">
        <ele>36.1</ele>
        <time>2019-08-28T07:47:55Z</time>
      </trkpt>
      <trkpt lat="36.3854290" lon="-5.2192440">
        <ele>36.1</ele>
        <time>2019-08-28T07:47:56Z</time>
      </trkpt>
      <trkpt lat="36.3854560" lon="-5.2192630">
        <ele>36.1</ele>
        <time>2019-08-28T07:47:57Z</time>
      </trkpt>
      <trkpt lat="36.3854840" lon="-5.2192830">
        <ele>36.1</ele>
        <time>2019-08-28T07:47:58Z</time>
      </trkpt>
      <trkpt lat="36.3855130" lon="-5.2193030">
        <ele>36.2</ele>
        <time>2019-08-28T07:47:59Z</time>
      </trkpt>
      <trkpt lat="36.3855420" lon="-5.2193230">
        <ele>36.2</ele>
        <time>2019-08-28T07:48:00Z</time>
      </trkpt>
      <trkpt lat="36.3855700" lon="-5.2193430">
        <ele>36.2</ele>
        <time>2019-08-28T07:48:01Z</time>
      </trkpt>
      <trkpt lat="36.3855990" lon="-5.2193630">
        <ele>36.2</ele>
        <time>2019-08-28T07:48:02Z</time>
      </trkpt>
      <trkpt lat="36.3856260" lon="-5.2193830">
        <ele>36.3</ele>
        <time>2019-08-28T07:48:03Z</time>
      </trkpt>
      <trkpt lat="36.3856540" lon="-5.2194030">
        <ele>36.3</ele>
        <time>2019-08-28T07:48:04Z</time>
      </trkpt>
      <trkpt lat="36.3856830" lon="-5.2194220">
        <ele>36.3</ele>
        <time>2019-08-28T07:48:05Z</time>
      </trkpt>
      <trkpt lat="36.3857110" lon="-5.2194430">
        <ele>36.4</ele>
        <time>2019-08-28T07:48:06Z</time>
      </trkpt>
      <trkpt lat="36.3857390" lon="-5.2194640">
        <ele>36.4</ele>
        <time>2019-08-28T07:48:07Z</time>
      </trkpt>
      <trkpt lat="36.3857660" lon="-5.2194850">
        <ele>36.4</ele>
        <time>2019-08-28T07:48:08Z</time>
      </trkpt>
      <trkpt lat="36.3857940" lon="-5.2195060">
        <ele>36.5</ele>
        <time>2019-08-28T07:48:09Z</time>
      </trkpt>
      <trkpt lat="36.3858210" lon="-5.2195270">
        <ele>36.5</ele>
        <time>2019-08-28T07:48:10Z</time>
      </trkpt>
      <trkpt lat="36.3858490" lon="-5.2195480">
        <ele>36.6</ele>
        <time>2019-08-28T07:48:11Z</time>
      </trkpt>
      <trkpt lat="36.3858770" lon="-5.2195680">
        <ele>36.6</ele>
        <time>2019-08-28T07:48:12Z</time>
      </trkpt>
      <trkpt lat="36.3859050" lon="-5.2195880">
        <ele>36.7</ele>
        <time>2019-08-28T07:48:13Z</time>
      </trkpt>
      <trkpt lat="36.3859330" lon="-5.2196080">
        <ele>36.8</ele>
        <time>2019-08-28T07:48:14Z</time>
      </trkpt>
      <trkpt lat="36.3859610" lon="-5.2196280">
        <ele>36.8</ele>
        <time>2019-08-28T07:48:15Z</time>
      </trkpt>
      <trkpt lat="36.3859870" lon="-5.2196490">
        <ele>36.9</ele>
        <time>2019-08-28T07:48:16Z</time>
      </trkpt>
      <trkpt lat="36.3860130" lon="-5.2196690">
        <ele>37.0</ele>
        <time>2019-08-28T07:48:17Z</time>
      </trkpt>
      <trkpt lat="36.3860390" lon="-5.2196880">
        <ele>37.0</ele>
        <time>2019-08-28T07:48:18Z</time>
      </trkpt>
      <trkpt lat="36.3860660" lon="-5.2197070">
        <ele>37.1</ele>
        <time>2019-08-28T07:48:19Z</time>
      </trkpt>
      <trkpt lat="36.3860940" lon="-5.2197260">
        <ele>37.2</ele>
        <time>2019-08-28T07:48:20Z</time>
      </trkpt>
      <trkpt lat="36.3861220" lon="-5.2197460">
        <ele>37.3</ele>
        <time>2019-08-28T07:48:21Z</time>
      </trkpt>
      <trkpt lat="36.3861510" lon="-5.2197660">
        <ele>37.4</ele>
        <time>2019-08-28T07:48:22Z</time>
      </trkpt>
      <trkpt lat="36.3861790" lon="-5.2197860">
        <ele>37.4</ele>
        <time>2019-08-28T07:48:23Z</time>
      </trkpt>
      <trkpt lat="36.3862080" lon="-5.2198060">
        <ele>37.5</ele>
        <time>2019-08-28T07:48:24Z</time>
      </trkpt>
      <trkpt lat="36.3862360" lon="-5.2198260">
        <ele>37.5</ele>
        <time>2019-08-28T07:48:25Z</time>
      </trkpt>
      <trkpt lat="36.3862630" lon="-5.2198470">
        <ele>37.6</ele>
        <time>2019-08-28T07:48:26Z</time>
      </trkpt>
      <trkpt lat="36.3862900" lon="-5.2198680">
        <ele>37.7</ele>
        <time>2019-08-28T07:48:27Z</time>
      </trkpt>
      <trkpt lat="36.3863180" lon="-5.2198890">
        <ele>37.7</ele>
        <time>2019-08-28T07:48:28Z</time>
      </trkpt>
      <trkpt lat="36.3863450" lon="-5.2199090">
        <ele>37.8</ele>
        <time>2019-08-28T07:48:29Z</time>
      </trkpt>
      <trkpt lat="36.3863730" lon="-5.2199290">
        <ele>37.9</ele>
        <time>2019-08-28T07:48:30Z</time>
      </trkpt>
      <trkpt lat="36.3863990" lon="-5.2199500">
        <ele>37.9</ele>
        <time>2019-08-28T07:48:31Z</time>
      </trkpt>
      <trkpt lat="36.3864250" lon="-5.2199720">
        <ele>38.1</ele>
        <time>2019-08-28T07:48:32Z</time>
      </trkpt>
      <trkpt lat="36.3864520" lon="-5.2199930">
        <ele>38.2</ele>
        <time>2019-08-28T07:48:33Z</time>
      </trkpt>
      <trkpt lat="36.3864790" lon="-5.2200130">
        <ele>38.2</ele>
        <time>2019-08-28T07:48:34Z</time>
      </trkpt>
      <trkpt lat="36.3865070" lon="-5.2200320">
        <ele>38.3</ele>
        <time>2019-08-28T07:48:35Z</time>
      </trkpt>
      <trkpt lat="36.3865340" lon="-5.2200500">
        <ele>38.4</ele>
        <time>2019-08-28T07:48:36Z</time>
      </trkpt>
      <trkpt lat="36.3865620" lon="-5.2200690">
        <ele>38.5</ele>
        <time>2019-08-28T07:48:37Z</time>
      </trkpt>
      <trkpt lat="36.3865900" lon="-5.2200870">
        <ele>38.5</ele>
        <time>2019-08-28T07:48:38Z</time>
      </trkpt>
      <trkpt lat="36.3866170" lon="-5.2201060">
        <ele>38.6</ele>
        <time>2019-08-28T07:48:39Z</time>
      </trkpt>
      <trkpt lat="36.3866450" lon="-5.2201240">
        <ele>38.7</ele>
        <time>2019-08-28T07:48:40Z</time>
      </trkpt>
      <trkpt lat="36.3866710" lon="-5.2201430">
        <ele>39.0</ele>
        <time>2019-08-28T07:48:41Z</time>
      </trkpt>
      <trkpt lat="36.3866980" lon="-5.2201630">
        <ele>39.2</ele>
        <time>2019-08-28T07:48:42Z</time>
      </trkpt>
      <trkpt lat="36.3867240" lon="-5.2201830">
        <ele>39.3</ele>
        <time>2019-08-28T07:48:43Z</time>
      </trkpt>
      <trkpt lat="36.3867510" lon="-5.2202040">
        <ele>39.5</ele>
        <time>2019-08-28T07:48:44Z</time>
      </trkpt>
      <trkpt lat="36.3867770" lon="-5.2202230">
        <ele>39.7</ele>
        <time>2019-08-28T07:48:45Z</time>
      </trkpt>
      <trkpt lat="36.3868030" lon="-5.2202430">
        <ele>39.9</ele>
        <time>2019-08-28T07:48:46Z</time>
      </trkpt>
      <trkpt lat="36.3868280" lon="-5.2202620">
        <ele>40.1</ele>
        <time>2019-08-28T07:48:47Z</time>
      </trkpt>
      <trkpt lat="36.3868540" lon="-5.2202810">
        <ele>40.3</ele>
        <time>2019-08-28T07:48:48Z</time>
      </trkpt>
      <trkpt lat="36.3868800" lon="-5.2203000">
        <ele>40.4</ele>
        <time>2019-08-28T07:48:49Z</time>
      </trkpt>
      <trkpt lat="36.3869060" lon="-5.2203180">
        <ele>40.6</ele>
        <time>2019-08-28T07:48:50Z</time>
      </trkpt>
      <trkpt lat="36.3869320" lon="-5.2203360">
        <ele>40.8</ele>
        <time>2019-08-28T07:48:51Z</time>
      </trkpt>
      <trkpt lat="36.3869580" lon="-5.2203540">
        <ele>40.9</ele>
        <time>2019-08-28T07:48:52Z</time>
      </trkpt>
      <trkpt lat="36.3869840" lon="-5.2203720">
        <ele>41.1</ele>
        <time>2019-08-28T07:48:53Z</time>
      </trkpt>
      <trkpt lat="36.3870110" lon="-5.2203900">
        <ele>41.3</ele>
        <time>2019-08-28T07:48:54Z</time>
      </trkpt>
      <trkpt lat="36.3870380" lon="-5.2204080">
        <ele>41.5</ele>
        <time>2019-08-28T07:48:55Z</time>
      </trkpt>
      <trkpt lat="36.3870660" lon="-5.2204250">
        <ele>41.6</ele>
        <time>2019-08-28T07:48:56Z</time>
      </trkpt>
      <trkpt lat="36.3870940" lon="-5.2204430">
        <ele>41.8</ele>
        <time>2019-08-28T07:48:57Z</time>
      </trkpt>
      <trkpt lat="36.3871210" lon="-5.2204600">
        <ele>42.0</ele>
        <time>2019-08-28T07:48:58Z</time>
      </trkpt>
      <trkpt lat="36.3871470" lon="-5.2204780">
        <ele>42.1</ele>
        <time>2019-08-28T07:48:59Z</time>
      </trkpt>
      <trkpt lat="36.3871730" lon="-5.2204960">
        <ele>42.3</ele>
        <time>2019-08-28T07:49:00Z</time>
      </trkpt>
      <trkpt lat="36.3871990" lon="-5.2205130">
        <ele>42.5</ele>
        <time>2019-08-28T07:49:01Z</time>
      </trkpt>
      <trkpt lat="36.3872260" lon="-5.2205310">
        <ele>42.7</ele>
        <time>2019-08-28T07:49:02Z</time>
      </trkpt>
      <trkpt lat="36.3872520" lon="-5.2205500">
        <ele>42.9</ele>
        <time>2019-08-28T07:49:03Z</time>
      </trkpt>
      <trkpt lat="36.3872790" lon="-5.2205690">
        <ele>43.1</ele>
        <time>2019-08-28T07:49:04Z</time>
      </trkpt>
      <trkpt lat="36.3873070" lon="-5.2205870">
        <ele>43.3</ele>
        <time>2019-08-28T07:49:05Z</time>
      </trkpt>
      <trkpt lat="36.3873350" lon="-5.2206040">
        <ele>43.5</ele>
        <time>2019-08-28T07:49:06Z</time>
      </trkpt>
      <trkpt lat="36.3873630" lon="-5.2206210">
        <ele>43.7</ele>
        <time>2019-08-28T07:49:07Z</time>
      </trkpt>
      <trkpt lat="36.3873900" lon="-5.2206380">
        <ele>43.9</ele>
        <time>2019-08-28T07:49:08Z</time>
      </trkpt>
      <trkpt lat="36.3874180" lon="-5.2206550">
        <ele>44.2</ele>
        <time>2019-08-28T07:49:09Z</time>
      </trkpt>
      <trkpt lat="36.3874450" lon="-5.2206720">
        <ele>44.4</ele>
        <time>2019-08-28T07:49:10Z</time>
      </trkpt>
      <trkpt lat="36.3874720" lon="-5.2206900">
        <ele>44.6</ele>
        <time>2019-08-28T07:49:11Z</time>
      </trkpt>
      <trkpt lat="36.3874990" lon="-5.2207090">
        <ele>44.8</ele>
        <time>2019-08-28T07:49:12Z</time>
      </trkpt>
      <trkpt lat="36.3875260" lon="-5.2207270">
        <ele>45.1</ele>
        <time>2019-08-28T07:49:13Z</time>
      </trkpt>
      <trkpt lat="36.3875520" lon="-5.2207460">
        <ele>45.3</ele>
        <time>2019-08-28T07:49:14Z</time>
      </trkpt>
      <trkpt lat="36.3875800" lon="-5.2207630">
        <ele>45.5</ele>
        <time>2019-08-28T07:49:15Z</time>
      </trkpt>
      <trkpt lat="36.3876100" lon="-5.2207790">
        <ele>45.7</ele>
        <time>2019-08-28T07:49:16Z</time>
      </trkpt>
      <trkpt lat="36.3876410" lon="-5.2207920">
        <ele>45.9</ele>
        <time>2019-08-28T07:49:17Z</time>
      </trkpt>
      <trkpt lat="36.3876730" lon="-5.2208040">
        <ele>46.1</ele>
        <time>2019-08-28T07:49:18Z</time>
      </trkpt>
      <trkpt lat="36.3877040" lon="-5.2208170">
        <ele>46.2</ele>
        <time>2019-08-28T07:49:19Z</time>
      </trkpt>
      <trkpt lat="36.3877350" lon="-5.2208300">
        <ele>46.4</ele>
        <time>2019-08-28T07:49:20Z</time>
      </trkpt>
      <trkpt lat="36.3877650" lon="-5.2208420">
        <ele>46.5</ele>
        <time>2019-08-28T07:49:21Z</time>
      </trkpt>
      <trkpt lat="36.3877970" lon="-5.2208550">
        <ele>46.7</ele>
        <time>2019-08-28T07:49:22Z</time>
      </trkpt>
      <trkpt lat="36.3878290" lon="-5.2208660">
        <ele>46.8</ele>
        <time>2019-08-28T07:49:23Z</time>
      </trkpt>
      <trkpt lat="36.3878600" lon="-5.2208770">
        <ele>46.9</ele>
        <time>2019-08-28T07:49:24Z</time>
      </trkpt>
      <trkpt lat="36.3878910" lon="-5.2208890">
        <ele>47.0</ele>
        <time>2019-08-28T07:49:25Z</time>
      </trkpt>
      <trkpt lat="36.3879220" lon="-5.2209010">
        <ele>47.1</ele>
        <time>2019-08-28T07:49:26Z</time>
      </trkpt>
      <trkpt lat="36.3879520" lon="-5.2209130">
        <ele>47.3</ele>
        <time>2019-08-28T07:49:27Z</time>
      </trkpt>
      <trkpt lat="36.3879820" lon="-5.2209240">
        <ele>47.4</ele>
        <time>2019-08-28T07:49:28Z</time>
      </trkpt>
      <trkpt lat="36.3880130" lon="-5.2209340">
        <ele>47.5</ele>
        <time>2019-08-28T07:49:29Z</time>
      </trkpt>
      <trkpt lat="36.3880430" lon="-5.2209440">
        <ele>47.6</ele>
        <time>2019-08-28T07:49:30Z</time>
      </trkpt>
      <trkpt lat="36.3880730" lon="-5.2209540">
        <ele>47.7</ele>
        <time>2019-08-28T07:49:31Z</time>
      </trkpt>
      <trkpt lat="36.3881030" lon="-5.2209630">
        <ele>47.9</ele>
        <time>2019-08-28T07:49:32Z</time>
      </trkpt>
      <trkpt lat="36.3881330" lon="-5.2209700">
        <ele>48.0</ele>
        <time>2019-08-28T07:49:33Z</time>
      </trkpt>
      <trkpt lat="36.3881630" lon="-5.2209770">
        <ele>48.1</ele>
        <time>2019-08-28T07:49:34Z</time>
      </trkpt>
      <trkpt lat="36.3881930" lon="-5.2209860">
        <ele>48.2</ele>
        <time>2019-08-28T07:49:35Z</time>
      </trkpt>
      <trkpt lat="36.3882250" lon="-5.2209930">
        <ele>48.3</ele>
        <time>2019-08-28T07:49:36Z</time>
      </trkpt>
      <trkpt lat="36.3882560" lon="-5.2210020">
        <ele>48.4</ele>
        <time>2019-08-28T07:49:37Z</time>
      </trkpt>
      <trkpt lat="36.3882880" lon="-5.2210090">
        <ele>48.6</ele>
        <time>2019-08-28T07:49:38Z</time>
      </trkpt>
      <trkpt lat="36.3883200" lon="-5.2210170">
        <ele>48.7</ele>
        <time>2019-08-28T07:49:39Z</time>
      </trkpt>
      <trkpt lat="36.3883530" lon="-5.2210250">
        <ele>48.8</ele>
        <time>2019-08-28T07:49:40Z</time>
      </trkpt>
      <trkpt lat="36.3883850" lon="-5.2210340">
        <ele>48.9</ele>
        <time>2019-08-28T07:49:41Z</time>
      </trkpt>
      <trkpt lat="36.3884180" lon="-5.2210430">
        <ele>49.0</ele>
        <time>2019-08-28T07:49:42Z</time>
      </trkpt>
      <trkpt lat="36.3884530" lon="-5.2210510">
        <ele>49.1</ele>
        <time>2019-08-28T07:49:43Z</time>
      </trkpt>
      <trkpt lat="36.3884890" lon="-5.2210590">
        <ele>49.2</ele>
        <time>2019-08-28T07:49:44Z</time>
      </trkpt>
      <trkpt lat="36.3885250" lon="-5.2210680">
        <ele>49.3</ele>
        <time>2019-08-28T07:49:45Z</time>
      </trkpt>
      <trkpt lat="36.3885620" lon="-5.2210770">
        <ele>49.4</ele>
        <time>2019-08-28T07:49:46Z</time>
      </trkpt>
      <trkpt lat="36.3885990" lon="-5.2210870">
        <ele>49.6</ele>
        <time>2019-08-28T07:49:47Z</time>
      </trkpt>
      <trkpt lat="36.3886360" lon="-5.2210960">
        <ele>49.7</ele>
        <time>2019-08-28T07:49:48Z</time>
      </trkpt>
      <trkpt lat="36.3886730" lon="-5.2211060">
        <ele>49.9</ele>
        <time>2019-08-28T07:49:49Z</time>
      </trkpt>
      <trkpt lat="36.3887110" lon="-5.2211170">
        <ele>50.0</ele>
        <time>2019-08-28T07:49:50Z</time>
      </trkpt>
      <trkpt lat="36.3887480" lon="-5.2211280">
        <ele>50.1</ele>
        <time>2019-08-28T07:49:51Z</time>
      </trkpt>
      <trkpt lat="36.3887850" lon="-5.2211400">
        <ele>50.3</ele>
        <time>2019-08-28T07:49:52Z</time>
      </trkpt>
      <trkpt lat="36.3888200" lon="-5.2211510">
        <ele>50.4</ele>
        <time>2019-08-28T07:49:53Z</time>
      </trkpt>
      <trkpt lat="36.3888550" lon="-5.2211640">
        <ele>50.6</ele>
        <time>2019-08-28T07:49:54Z</time>
      </trkpt>
      <trkpt lat="36.3888910" lon="-5.2211770">
        <ele>50.7</ele>
        <time>2019-08-28T07:49:55Z</time>
      </trkpt>
      <trkpt lat="36.3889280" lon="-5.2211900">
        <ele>50.8</ele>
        <time>2019-08-28T07:49:56Z</time>
      </trkpt>
      <trkpt lat="36.3889650" lon="-5.2212030">
        <ele>50.9</ele>
        <time>2019-08-28T07:49:57Z</time>
      </trkpt>
      <trkpt lat="36.3890020" lon="-5.2212170">
        <ele>51.1</ele>
        <time>2019-08-28T07:49:58Z</time>
      </trkpt>
      <trkpt lat="36.3890390" lon="-5.2212320">
        <ele>51.2</ele>
        <time>2019-08-28T07:49:59Z</time>
      </trkpt>
      <trkpt lat="36.3890760" lon="-5.2212500">
        <ele>51.3</ele>
        <time>2019-08-28T07:50:00Z</time>
      </trkpt>
      <trkpt lat="36.3891120" lon="-5.2212680">
        <ele>51.4</ele>
        <time>2019-08-28T07:50:01Z</time>
      </trkpt>
      <trkpt lat="36.3891490" lon="-5.2212870">
        <ele>51.5</ele>
        <time>2019-08-28T07:50:02Z</time>
      </trkpt>
      <trkpt lat="36.3891870" lon="-5.2213050">
        <ele>51.6</ele>
        <time>2019-08-28T07:50:03Z</time>
      </trkpt>
      <trkpt lat="36.3892250" lon="-5.2213230">
        <ele>51.7</ele>
        <time>2019-08-28T07:50:04Z</time>
      </trkpt>
      <trkpt lat="36.3892640" lon="-5.2213390">
        <ele>51.8</ele>
        <time>2019-08-28T07:50:05Z</time>
      </trkpt>
      <trkpt lat="36.3893030" lon="-5.2213530">
        <ele>51.9</ele>
        <time>2019-08-28T07:50:06Z</time>
      </trkpt>
      <trkpt lat="36.3893430" lon="-5.2213630">
        <ele>52.0</ele>
        <time>2019-08-28T07:50:07Z</time>
      </trkpt>
      <trkpt lat="36.3893830" lon="-5.2213670">
        <ele>52.1</ele>
        <time>2019-08-28T07:50:08Z</time>
      </trkpt>
      <trkpt lat="36.3894240" lon="-5.2213660">
        <ele>52.2</ele>
        <time>2019-08-28T07:50:09Z</time>
      </trkpt>
      <trkpt lat="36.3894640" lon="-5.2213590">
        <ele>52.4</ele>
        <time>2019-08-28T07:50:10Z</time>
      </trkpt>
      <trkpt lat="36.3895040" lon="-5.2213480">
        <ele>52.5</ele>
        <time>2019-08-28T07:50:11Z</time>
      </trkpt>
      <trkpt lat="36.3895450" lon="-5.2213370">
        <ele>52.6</ele>
        <time>2019-08-28T07:50:12Z</time>
      </trkpt>
      <trkpt lat="36.3895870" lon="-5.2213330">
        <ele>52.7</ele>
        <time>2019-08-28T07:50:13Z</time>
      </trkpt>
      <trkpt lat="36.3896300" lon="-5.2213400">
        <ele>52.9</ele>
        <time>2019-08-28T07:50:14Z</time>
      </trkpt>
      <trkpt lat="36.3896720" lon="-5.2213560">
        <ele>53.0</ele>
        <time>2019-08-28T07:50:15Z</time>
      </trkpt>
      <trkpt lat="36.3897120" lon="-5.2213810">
        <ele>53.0</ele>
        <time>2019-08-28T07:50:16Z</time>
      </trkpt>
      <trkpt lat="36.3897480" lon="-5.2214170">
        <ele>53.0</ele>
        <time>2019-08-28T07:50:17Z</time>
      </trkpt>
      <trkpt lat="36.3897790" lon="-5.2214600">
        <ele>52.9</ele>
        <time>2019-08-28T07:50:18Z</time>
      </trkpt>
      <trkpt lat="36.3898040" lon="-5.2215050">
        <ele>52.9</ele>
        <time>2019-08-28T07:50:19Z</time>
      </trkpt>
      <trkpt lat="36.3898260" lon="-5.2215490">
        <ele>52.9</ele>
        <time>2019-08-28T07:50:20Z</time>
      </trkpt>
      <trkpt lat="36.3898500" lon="-5.2215910">
        <ele>53.1</ele>
        <time>2019-08-28T07:50:21Z</time>
      </trkpt>
      <trkpt lat="36.3898750" lon="-5.2216290">
        <ele>53.2</ele>
        <time>2019-08-28T07:50:22Z</time>
      </trkpt>
      <trkpt lat="36.3899040" lon="-5.2216620">
        <ele>53.3</ele>
        <time>2019-08-28T07:50:23Z</time>
      </trkpt>
      <trkpt lat="36.3899340" lon="-5.2216920">
        <ele>53.5</ele>
        <time>2019-08-28T07:50:24Z</time>
      </trkpt>
      <trkpt lat="36.3899660" lon="-5.2217190">
        <ele>53.6</ele>
        <time>2019-08-28T07:50:25Z</time>
      </trkpt>
      <trkpt lat="36.3899990" lon="-5.2217420">
        <ele>53.7</ele>
        <time>2019-08-28T07:50:26Z</time>
      </trkpt>
      <trkpt lat="36.3900330" lon="-5.2217630">
        <ele>53.8</ele>
        <time>2019-08-28T07:50:27Z</time>
      </trkpt>
      <trkpt lat="36.3900680" lon="-5.2217830">
        <ele>53.9</ele>
        <time>2019-08-28T07:50:28Z</time>
      </trkpt>
      <trkpt lat="36.3901020" lon="-5.2218030">
        <ele>54.1</ele>
        <time>2019-08-28T07:50:29Z</time>
      </trkpt>
      <trkpt lat="36.3901360" lon="-5.2218220">
        <ele>54.3</ele>
        <time>2019-08-28T07:50:30Z</time>
      </trkpt>
      <trkpt lat="36.3901710" lon="-5.2218400">
        <ele>54.4</ele>
        <time>2019-08-28T07:50:31Z</time>
      </trkpt>
      <trkpt lat="36.3902050" lon="-5.2218580">
        <ele>54.6</ele>
        <time>2019-08-28T07:50:32Z</time>
      </trkpt>
      <trkpt lat="36.3902390" lon="-5.2218750">
        <ele>54.8</ele>
        <time>2019-08-28T07:50:33Z</time>
      </trkpt>
      <trkpt lat="36.3902740" lon="-5.2218940">
        <ele>55.0</ele>
        <time>2019-08-28T07:50:34Z</time>
      </trkpt>
      <trkpt lat="36.3903090" lon="-5.2219140">
        <ele>55.2</ele>
        <time>2019-08-28T07:50:35Z</time>
      </trkpt>
      <trkpt lat="36.3903430" lon="-5.2219370">
        <ele>55.4</ele>
        <time>2019-08-28T07:50:36Z</time>
      </trkpt>
      <trkpt lat="36.3903770" lon="-5.2219610">
        <ele>55.6</ele>
        <time>2019-08-28T07:50:37Z</time>
      </trkpt>
      <trkpt lat="36.3904110" lon="-5.2219830">
        <ele>55.8</ele>
        <time>2019-08-28T07:50:38Z</time>
      </trkpt>
      <trkpt lat="36.3904470" lon="-5.2220020">
        <ele>56.0</ele>
        <time>2019-08-28T07:50:39Z</time>
      </trkpt>
      <trkpt lat="36.3904830" lon="-5.2220210">
        <ele>56.2</ele>
        <time>2019-08-28T07:50:40Z</time>
      </trkpt>
      <trkpt lat="36.3905180" lon="-5.2220400">
        <ele>56.4</ele>
        <time>2019-08-28T07:50:41Z</time>
      </trkpt>
      <trkpt lat="36.3905530" lon="-5.2220600">
        <ele>56.6</ele>
        <time>2019-08-28T07:50:42Z</time>
      </trkpt>
      <trkpt lat="36.3905870" lon="-5.2220800">
        <ele>56.8</ele>
        <time>2019-08-28T07:50:43Z</time>
      </trkpt>
      <trkpt lat="36.3906210" lon="-5.2221000">
        <ele>57.0</ele>
        <time>2019-08-28T07:50:44Z</time>
      </trkpt>
      <trkpt lat="36.3906540" lon="-5.2221190">
        <ele>57.2</ele>
        <time>2019-08-28T07:50:45Z</time>
      </trkpt>
      <trkpt lat="36.3906870" lon="-5.2221380">
        <ele>57.5</ele>
        <time>2019-08-28T07:50:46Z</time>
      </trkpt>
      <trkpt lat="36.3907200" lon="-5.2221550">
        <ele>57.7</ele>
        <time>2019-08-28T07:50:47Z</time>
      </trkpt>
      <trkpt lat="36.3907530" lon="-5.2221730">
        <ele>57.9</ele>
        <time>2019-08-28T07:50:48Z</time>
      </trkpt>
      <trkpt lat="36.3907860" lon="-5.2221900">
        <ele>58.1</ele>
        <time>2019-08-28T07:50:49Z</time>
      </trkpt>
      <trkpt lat="36.3908190" lon="-5.2222080">
        <ele>58.4</ele>
        <time>2019-08-28T07:50:50Z</time>
      </trkpt>
      <trkpt lat="36.3908520" lon="-5.2222260">
        <ele>58.6</ele>
        <time>2019-08-28T07:50:51Z</time>
      </trkpt>
      <trkpt lat="36.3908850" lon="-5.2222430">
        <ele>58.8</ele>
        <time>2019-08-28T07:50:52Z</time>
      </trkpt>
      <trkpt lat="36.3909190" lon="-5.2222610">
        <ele>59.0</ele>
        <time>2019-08-28T07:50:53Z</time>
      </trkpt>
      <trkpt lat="36.3909520" lon="-5.2222800">
        <ele>59.3</ele>
        <time>2019-08-28T07:50:54Z</time>
      </trkpt>
      <trkpt lat="36.3909860" lon="-5.2222980">
        <ele>59.5</ele>
        <time>2019-08-28T07:50:55Z</time>
      </trkpt>
      <trkpt lat="36.3910190" lon="-5.2223170">
        <ele>59.7</ele>
        <time>2019-08-28T07:50:56Z</time>
      </trkpt>
      <trkpt lat="36.3910530" lon="-5.2223340">
        <ele>59.9</ele>
        <time>2019-08-28T07:50:57Z</time>
      </trkpt>
      <trkpt lat="36.3910860" lon="-5.2223520">
        <ele>60.1</ele>
        <time>2019-08-28T07:50:58Z</time>
      </trkpt>
      <trkpt lat="36.3911190" lon="-5.2223700">
        <ele>60.3</ele>
        <time>2019-08-28T07:50:59Z</time>
      </trkpt>
      <trkpt lat="36.3911530" lon="-5.2223890">
        <ele>60.6</ele>
        <time>2019-08-28T07:51:00Z</time>
      </trkpt>
      <trkpt lat="36.3911880" lon="-5.2224080">
        <ele>60.8</ele>
        <time>2019-08-28T07:51:01Z</time>
      </trkpt>
      <trkpt lat="36.3912230" lon="-5.2224270">
        <ele>61.0</ele>
        <time>2019-08-28T07:51:02Z</time>
      </trkpt>
      <trkpt lat="36.3912590" lon="-5.2224460">
        <ele>61.2</ele>
        <time>2019-08-28T07:51:03Z</time>
      </trkpt>
      <trkpt lat="36.3912950" lon="-5.2224650">
        <ele>61.4</ele>
        <time>2019-08-28T07:51:04Z</time>
      </trkpt>
      <trkpt lat="36.3913310" lon="-5.2224840">
        <ele>61.6</ele>
        <time>2019-08-28T07:51:05Z</time>
      </trkpt>
      <trkpt lat="36.3913660" lon="-5.2225030">
        <ele>61.9</ele>
        <time>2019-08-28T07:51:06Z</time>
      </trkpt>
      <trkpt lat="36.3914020" lon="-5.2225220">
        <ele>62.2</ele>
        <time>2019-08-28T07:51:07Z</time>
      </trkpt>
      <trkpt lat="36.3914360" lon="-5.2225400">
        <ele>62.5</ele>
        <time>2019-08-28T07:51:08Z</time>
      </trkpt>
      <trkpt lat="36.3914700" lon="-5.2225590">
        <ele>62.8</ele>
        <time>2019-08-28T07:51:09Z</time>
      </trkpt>
      <trkpt lat="36.3915040" lon="-5.2225770">
        <ele>63.1</ele>
        <time>2019-08-28T07:51:10Z</time>
      </trkpt>
      <trkpt lat="36.3915380" lon="-5.2225950">
        <ele>63.4</ele>
        <time>2019-08-28T07:51:11Z</time>
      </trkpt>
      <trkpt lat="36.3915710" lon="-5.2226140">
        <ele>63.6</ele>
        <time>2019-08-28T07:51:12Z</time>
      </trkpt>
      <trkpt lat="36.3916040" lon="-5.2226320">
        <ele>63.9</ele>
        <time>2019-08-28T07:51:13Z</time>
      </trkpt>
      <trkpt lat="36.3916380" lon="-5.2226510">
        <ele>64.1</ele>
        <time>2019-08-28T07:51:14Z</time>
      </trkpt>
      <trkpt lat="36.3916720" lon="-5.2226700">
        <ele>64.4</ele>
        <time>2019-08-28T07:51:15Z</time>
      </trkpt>
      <trkpt lat="36.3917060" lon="-5.2226880">
        <ele>64.6</ele>
        <time>2019-08-28T07:51:16Z</time>
      </trkpt>
      <trkpt lat="36.3917390" lon="-5.2227060">
        <ele>64.9</ele>
        <time>2019-08-28T07:51:17Z</time>
      </trkpt>
      <trkpt lat="36.3917720" lon="-5.2227250">
        <ele>65.1</ele>
        <time>2019-08-28T07:51:18Z</time>
      </trkpt>
      <trkpt lat="36.3918050" lon="-5.2227430">
        <ele>65.3</ele>
        <time>2019-08-28T07:51:19Z</time>
      </trkpt>
      <trkpt lat="36.3918380" lon="-5.2227620">
        <ele>65.6</ele>
        <time>2019-08-28T07:51:20Z</time>
      </trkpt>
      <trkpt lat="36.3918710" lon="-5.2227800">
        <ele>65.8</ele>
        <time>2019-08-28T07:51:21Z</time>
      </trkpt>
      <trkpt lat="36.3919040" lon="-5.2227980">
        <ele>66.0</ele>
        <time>2019-08-28T07:51:22Z</time>
      </trkpt>
      <trkpt lat="36.3919360" lon="-5.2228170">
        <ele>66.2</ele>
        <time>2019-08-28T07:51:23Z</time>
      </trkpt>
      <trkpt lat="36.3919680" lon="-5.2228360">
        <ele>66.4</ele>
        <time>2019-08-28T07:51:24Z</time>
      </trkpt>
      <trkpt lat="36.3920000" lon="-5.2228550">
        <ele>66.6</ele>
        <time>2019-08-28T07:51:25Z</time>
      </trkpt>
      <trkpt lat="36.3920330" lon="-5.2228740">
        <ele>66.8</ele>
        <time>2019-08-28T07:51:26Z</time>
      </trkpt>
      <trkpt lat="36.3920650" lon="-5.2228920">
        <ele>67.1</ele>
        <time>2019-08-28T07:51:27Z</time>
      </trkpt>
      <trkpt lat="36.3920970" lon="-5.2229110">
        <ele>67.3</ele>
        <time>2019-08-28T07:51:28Z</time>
      </trkpt>
      <trkpt lat="36.3921290" lon="-5.2229290">
        <ele>67.5</ele>
        <time>2019-08-28T07:51:29Z</time>
      </trkpt>
      <trkpt lat="36.3921610" lon="-5.2229480">
        <ele>67.7</ele>
        <time>2019-08-28T07:51:30Z</time>
      </trkpt>
      <trkpt lat="36.3921930" lon="-5.2229660">
        <ele>68.0</ele>
        <time>2019-08-28T07:51:31Z</time>
      </trkpt>
      <trkpt lat="36.3922250" lon="-5.2229840">
        <ele>68.2</ele>
        <time>2019-08-28T07:51:32Z</time>
      </trkpt>
      <trkpt lat="36.3922570" lon="-5.2230020">
        <ele>68.4</ele>
        <time>2019-08-28T07:51:33Z</time>
      </trkpt>
      <trkpt lat="36.3922890" lon="-5.2230210">
        <ele>68.6</ele>
        <time>2019-08-28T07:51:34Z</time>
      </trkpt>
      <trkpt lat="36.3923210" lon="-5.2230410">
        <ele>68.9</ele>
        <time>2019-08-28T07:51:35Z</time>
      </trkpt>
      <trkpt lat="36.3923540" lon="-5.2230610">
        <ele>69.1</ele>
        <time>2019-08-28T07:51:36Z</time>
      </trkpt>
      <trkpt lat="36.3923870" lon="-5.2230800">
        <ele>69.3</ele>
        <time>2019-08-28T07:51:37Z</time>
      </trkpt>
      <trkpt lat="36.3924210" lon="-5.2230980">
        <ele>69.5</ele>
        <time>2019-08-28T07:51:38Z</time>
      </trkpt>
      <trkpt lat="36.3924550" lon="-5.2231170">
        <ele>69.7</ele>
        <time>2019-08-28T07:51:39Z</time>
      </trkpt>
      <trkpt lat="36.3924890" lon="-5.2231350">
        <ele>69.9</ele>
        <time>2019-08-28T07:51:40Z</time>
      </trkpt>
      <trkpt lat="36.3925240" lon="-5.2231540">
        <ele>70.1</ele>
        <time>2019-08-28T07:51:41Z</time>
      </trkpt>
      <trkpt lat="36.3925590" lon="-5.2231730">
        <ele>70.3</ele>
        <time>2019-08-28T07:51:42Z</time>
      </trkpt>
      <trkpt lat="36.3925940" lon="-5.2231910">
        <ele>70.5</ele>
        <time>2019-08-28T07:51:43Z</time>
      </trkpt>
      <trkpt lat="36.3926280" lon="-5.2232100">
        <ele>70.7</ele>
        <time>2019-08-28T07:51:44Z</time>
      </trkpt>
      <trkpt lat="36.3926630" lon="-5.2232300">
        <ele>70.9</ele>
        <time>2019-08-28T07:51:45Z</time>
      </trkpt>
      <trkpt lat="36.3926970" lon="-5.2232490">
        <ele>71.1</ele>
        <time>2019-08-28T07:51:46Z</time>
      </trkpt>
      <trkpt lat="36.3927310" lon="-5.2232690">
        <ele>71.3</ele>
        <time>2019-08-28T07:51:47Z</time>
      </trkpt>
      <trkpt lat="36.3927650" lon="-5.2232890">
        <ele>71.5</ele>
        <time>2019-08-28T07:51:48Z</time>
      </trkpt>
      <trkpt lat="36.3927990" lon="-5.2233080">
        <ele>71.7</ele>
        <time>2019-08-28T07:51:49Z</time>
      </trkpt>
      <trkpt lat="36.3928340" lon="-5.2233280">
        <ele>71.9</ele>
        <time>2019-08-28T07:51:50Z</time>
      </trkpt>
      <trkpt lat="36.3928690" lon="-5.2233470">
        <ele>72.1</ele>
        <time>2019-08-28T07:51:51Z</time>
      </trkpt>
      <trkpt lat="36.3929040" lon="-5.2233670">
        <ele>72.3</ele>
        <time>2019-08-28T07:51:52Z</time>
      </trkpt>
      <trkpt lat="36.3929390" lon="-5.2233860">
        <ele>72.5</ele>
        <time>2019-08-28T07:51:53Z</time>
      </trkpt>
      <trkpt lat="36.3929740" lon="-5.2234050">
        <ele>72.6</ele>
        <time>2019-08-28T07:51:54Z</time>
      </trkpt>
      <trkpt lat="36.3930080" lon="-5.2234250">
        <ele>72.8</ele>
        <time>2019-08-28T07:51:55Z</time>
      </trkpt>
      <trkpt lat="36.3930420" lon="-5.2234460">
        <ele>73.0</ele>
        <time>2019-08-28T07:51:56Z</time>
      </trkpt>
      <trkpt lat="36.3930760" lon="-5.2234660">
        <ele>73.2</ele>
        <time>2019-08-28T07:51:57Z</time>
      </trkpt>
      <trkpt lat="36.3931110" lon="-5.2234860">
        <ele>73.3</ele>
        <time>2019-08-28T07:51:58Z</time>
      </trkpt>
      <trkpt lat="36.3931470" lon="-5.2235060">
        <ele>73.5</ele>
        <time>2019-08-28T07:51:59Z</time>
      </trkpt>
      <trkpt lat="36.3931830" lon="-5.2235250">
        <ele>73.7</ele>
        <time>2019-08-28T07:52:00Z</time>
      </trkpt>
      <trkpt lat="36.3932200" lon="-5.2235440">
        <ele>73.9</ele>
        <time>2019-08-28T07:52:01Z</time>
      </trkpt>
      <trkpt lat="36.3932580" lon="-5.2235630">
        <ele>74.0</ele>
        <time>2019-08-28T07:52:02Z</time>
      </trkpt>
      <trkpt lat="36.3932950" lon="-5.2235820">
        <ele>74.2</ele>
        <time>2019-08-28T07:52:03Z</time>
      </trkpt>
      <trkpt lat="36.3933330" lon="-5.2236010">
        <ele>74.4</ele>
        <time>2019-08-28T07:52:04Z</time>
      </trkpt>
      <trkpt lat="36.3933710" lon="-5.2236200">
        <ele>74.6</ele>
        <time>2019-08-28T07:52:05Z</time>
      </trkpt>
      <trkpt lat="36.3934090" lon="-5.2236390">
        <ele>74.7</ele>
        <time>2019-08-28T07:52:06Z</time>
      </trkpt>
      <trkpt lat="36.3934470" lon="-5.2236600">
        <ele>74.9</ele>
        <time>2019-08-28T07:52:07Z</time>
      </trkpt>
      <trkpt lat="36.3934840" lon="-5.2236800">
        <ele>75.1</ele>
        <time>2019-08-28T07:52:08Z</time>
      </trkpt>
      <trkpt lat="36.3935220" lon="-5.2237000">
        <ele>75.3</ele>
        <time>2019-08-28T07:52:09Z</time>
      </trkpt>
      <trkpt lat="36.3935600" lon="-5.2237190">
        <ele>75.5</ele>
        <time>2019-08-28T07:52:10Z</time>
      </trkpt>
      <trkpt lat="36.3935980" lon="-5.2237380">
        <ele>75.6</ele>
        <time>2019-08-28T07:52:11Z</time>
      </trkpt>
      <trkpt lat="36.3936350" lon="-5.2237580">
        <ele>75.8</ele>
        <time>2019-08-28T07:52:12Z</time>
      </trkpt>
      <trkpt lat="36.3936710" lon="-5.2237780">
        <ele>75.9</ele>
        <time>2019-08-28T07:52:13Z</time>
      </trkpt>
      <trkpt lat="36.3937080" lon="-5.2237980">
        <ele>76.1</ele>
        <time>2019-08-28T07:52:14Z</time>
      </trkpt>
      <trkpt lat="36.3937440" lon="-5.2238180">
        <ele>76.3</ele>
        <time>2019-08-28T07:52:15Z</time>
      </trkpt>
      <trkpt lat="36.3937810" lon="-5.2238370">
        <ele>76.5</ele>
        <time>2019-08-28T07:52:16Z</time>
      </trkpt>
      <trkpt lat="36.3938180" lon="-5.2238570">
        <ele>76.6</ele>
        <time>2019-08-28T07:52:17Z</time>
      </trkpt>
      <trkpt lat="36.3938550" lon="-5.2238760">
        <ele>76.8</ele>
        <time>2019-08-28T07:52:18Z</time>
      </trkpt>
      <trkpt lat="36.3938920" lon="-5.2238960">
        <ele>76.9</ele>
        <time>2019-08-28T07:52:19Z</time>
      </trkpt>
      <trkpt lat="36.3939280" lon="-5.2239150">
        <ele>77.1</ele>
        <time>2019-08-28T07:52:20Z</time>
      </trkpt>
      <trkpt lat="36.3939640" lon="-5.2239340">
        <ele>77.3</ele>
        <time>2019-08-28T07:52:21Z</time>
      </trkpt>
      <trkpt lat="36.3939990" lon="-5.2239530">
        <ele>77.4</ele>
        <time>2019-08-28T07:52:22Z</time>
      </trkpt>
      <trkpt lat="36.3940340" lon="-5.2239720">
        <ele>77.6</ele>
        <time>2019-08-28T07:52:23Z</time>
      </trkpt>
      <trkpt lat="36.3940700" lon="-5.2239910">
        <ele>77.7</ele>
        <time>2019-08-28T07:52:24Z</time>
      </trkpt>
      <trkpt lat="36.3941050" lon="-5.2240100">
        <ele>77.9</ele>
        <time>2019-08-28T07:52:25Z</time>
      </trkpt>
      <trkpt lat="36.3941390" lon="-5.2240280">
        <ele>78.0</ele>
        <time>2019-08-28T07:52:26Z</time>
      </trkpt>
      <trkpt lat="36.3941740" lon="-5.2240470">
        <ele>78.2</ele>
        <time>2019-08-28T07:52:27Z</time>
      </trkpt>
      <trkpt lat="36.3942080" lon="-5.2240670">
        <ele>78.3</ele>
        <time>2019-08-28T07:52:28Z</time>
      </trkpt>
      <trkpt lat="36.3942410" lon="-5.2240870">
        <ele>78.4</ele>
        <time>2019-08-28T07:52:29Z</time>
      </trkpt>
      <trkpt lat="36.3942750" lon="-5.2241060">
        <ele>78.6</ele>
        <time>2019-08-28T07:52:30Z</time>
      </trkpt>
      <trkpt lat="36.3943080" lon="-5.2241250">
        <ele>78.8</ele>
        <time>2019-08-28T07:52:31Z</time>
      </trkpt>
      <trkpt lat="36.3943410" lon="-5.2241440">
        <ele>79.0</ele>
        <time>2019-08-28T07:52:32Z</time>
      </trkpt>
      <trkpt lat="36.3943740" lon="-5.2241630">
        <ele>79.1</ele>
        <time>2019-08-28T07:52:33Z</time>
      </trkpt>
      <trkpt lat="36.3944070" lon="-5.2241800">
        <ele>79.3</ele>
        <time>2019-08-28T07:52:34Z</time>
      </trkpt>
      <trkpt lat="36.3944410" lon="-5.2241980">
        <ele>79.5</ele>
        <time>2019-08-28T07:52:35Z</time>
      </trkpt>
      <trkpt lat="36.3944730" lon="-5.2242170">
        <ele>79.7</ele>
        <time>2019-08-28T07:52:36Z</time>
      </trkpt>
      <trkpt lat="36.3945060" lon="-5.2242350">
        <ele>79.9</ele>
        <time>2019-08-28T07:52:37Z</time>
      </trkpt>
      <trkpt lat="36.3945380" lon="-5.2242530">
        <ele>80.1</ele>
        <time>2019-08-28T07:52:38Z</time>
      </trkpt>
      <trkpt lat="36.3945710" lon="-5.2242700">
        <ele>80.3</ele>
        <time>2019-08-28T07:52:39Z</time>
      </trkpt>
      <trkpt lat="36.3946040" lon="-5.2242850">
        <ele>80.5</ele>
        <time>2019-08-28T07:52:40Z</time>
      </trkpt>
      <trkpt lat="36.3946370" lon="-5.2243020">
        <ele>80.6</ele>
        <time>2019-08-28T07:52:41Z</time>
      </trkpt>
      <trkpt lat="36.3946700" lon="-5.2243200">
        <ele>80.8</ele>
        <time>2019-08-28T07:52:42Z</time>
      </trkpt>
      <trkpt lat="36.3947020" lon="-5.2243390">
        <ele>81.0</ele>
        <time>2019-08-28T07:52:43Z</time>
      </trkpt>
      <trkpt lat="36.3947350" lon="-5.2243580">
        <ele>81.2</ele>
        <time>2019-08-28T07:52:44Z</time>
      </trkpt>
      <trkpt lat="36.3947670" lon="-5.2243760">
        <ele>81.4</ele>
        <time>2019-08-28T07:52:45Z</time>
      </trkpt>
      <trkpt lat="36.3947990" lon="-5.2243940">
        <ele>81.5</ele>
        <time>2019-08-28T07:52:46Z</time>
      </trkpt>
      <trkpt lat="36.3948320" lon="-5.2244100">
        <ele>81.7</ele>
        <time>2019-08-28T07:52:47Z</time>
      </trkpt>
      <trkpt lat="36.3948650" lon="-5.2244270">
        <ele>81.9</ele>
        <time>2019-08-28T07:52:48Z</time>
      </trkpt>
      <trkpt lat="36.3948970" lon="-5.2244440">
        <ele>82.1</ele>
        <time>2019-08-28T07:52:49Z</time>
      </trkpt>
      <trkpt lat="36.3949290" lon="-5.2244610">
        <ele>82.3</ele>
        <time>2019-08-28T07:52:50Z</time>
      </trkpt>
      <trkpt lat="36.3949610" lon="-5.2244790">
        <ele>82.5</ele>
        <time>2019-08-28T07:52:51Z</time>
      </trkpt>
      <trkpt lat="36.3949930" lon="-5.2244970">
        <ele>82.7</ele>
        <time>2019-08-28T07:52:52Z</time>
      </trkpt>
      <trkpt lat="36.3950240" lon="-5.2245150">
        <ele>82.9</ele>
        <time>2019-08-28T07:52:53Z</time>
      </trkpt>
      <trkpt lat="36.3950550" lon="-5.2245340">
        <ele>83.1</ele>
        <time>2019-08-28T07:52:54Z</time>
      </trkpt>
      <trkpt lat="36.3950870" lon="-5.2245520">
        <ele>83.3</ele>
        <time>2019-08-28T07:52:55Z</time>
      </trkpt>
      <trkpt lat="36.3951190" lon="-5.2245700">
        <ele>83.5</ele>
        <time>2019-08-28T07:52:56Z</time>
      </trkpt>
      <trkpt lat="36.3951510" lon="-5.2245870">
        <ele>83.8</ele>
        <time>2019-08-28T07:52:57Z</time>
      </trkpt>
      <trkpt lat="36.3951820" lon="-5.2246040">
        <ele>84.0</ele>
        <time>2019-08-28T07:52:58Z</time>
      </trkpt>
      <trkpt lat="36.3952140" lon="-5.2246210">
        <ele>84.2</ele>
        <time>2019-08-28T07:52:59Z</time>
      </trkpt>
      <trkpt lat="36.3952460" lon="-5.2246380">
        <ele>84.5</ele>
        <time>2019-08-28T07:53:00Z</time>
      </trkpt>
      <trkpt lat="36.3952780" lon="-5.2246570">
        <ele>84.7</ele>
        <time>2019-08-28T07:53:01Z</time>
      </trkpt>
      <trkpt lat="36.3953100" lon="-5.2246750">
        <ele>85.0</ele>
        <time>2019-08-28T07:53:02Z</time>
      </trkpt>
      <trkpt lat="36.3953420" lon="-5.2246940">
        <ele>85.2</ele>
        <time>2019-08-28T07:53:03Z</time>
      </trkpt>
      <trkpt lat="36.3953740" lon="-5.2247130">
        <ele>85.5</ele>
        <time>2019-08-28T07:53:04Z</time>
      </trkpt>
      <trkpt lat="36.3954070" lon="-5.2247330">
        <ele>85.7</ele>
        <time>2019-08-28T07:53:05Z</time>
      </trkpt>
      <trkpt lat="36.3954390" lon="-5.2247520">
        <ele>85.9</ele>
        <time>2019-08-28T07:53:06Z</time>
      </trkpt>
      <trkpt lat="36.3954720" lon="-5.2247690">
        <ele>86.2</ele>
        <time>2019-08-28T07:53:07Z</time>
      </trkpt>
      <trkpt lat="36.3955060" lon="-5.2247870">
        <ele>86.4</ele>
        <time>2019-08-28T07:53:08Z</time>
      </trkpt>
      <trkpt lat="36.3955400" lon="-5.2248050">
        <ele>86.6</ele>
        <time>2019-08-28T07:53:09Z</time>
      </trkpt>
      <trkpt lat="36.3955740" lon="-5.2248240">
        <ele>86.8</ele>
        <time>2019-08-28T07:53:10Z</time>
      </trkpt>
      <trkpt lat="36.3956080" lon="-5.2248430">
        <ele>87.1</ele>
        <time>2019-08-28T07:53:11Z</time>
      </trkpt>
      <trkpt lat="36.3956430" lon="-5.2248610">
        <ele>87.3</ele>
        <time>2019-08-28T07:53:12Z</time>
      </trkpt>
      <trkpt lat="36.3956770" lon="-5.2248810">
        <ele>87.5</ele>
        <time>2019-08-28T07:53:13Z</time>
      </trkpt>
      <trkpt lat="36.3957120" lon="-5.2249020">
        <ele>87.8</ele>
        <time>2019-08-28T07:53:14Z</time>
      </trkpt>
      <trkpt lat="36.3957470" lon="-5.2249220">
        <ele>88.0</ele>
        <time>2019-08-28T07:53:15Z</time>
      </trkpt>
      <trkpt lat="36.3957830" lon="-5.2249410">
        <ele>88.2</ele>
        <time>2019-08-28T07:53:16Z</time>
      </trkpt>
      <trkpt lat="36.3958180" lon="-5.2249600">
        <ele>88.5</ele>
        <time>2019-08-28T07:53:17Z</time>
      </trkpt>
      <trkpt lat="36.3958530" lon="-5.2249790">
        <ele>88.7</ele>
        <time>2019-08-28T07:53:18Z</time>
      </trkpt>
      <trkpt lat="36.3958890" lon="-5.2249980">
        <ele>88.9</ele>
        <time>2019-08-28T07:53:19Z</time>
      </trkpt>
      <trkpt lat="36.3959240" lon="-5.2250170">
        <ele>89.2</ele>
        <time>2019-08-28T07:53:20Z</time>
      </trkpt>
      <trkpt lat="36.3959590" lon="-5.2250370">
        <ele>89.4</ele>
        <time>2019-08-28T07:53:21Z</time>
      </trkpt>
      <trkpt lat="36.3959940" lon="-5.2250570">
        <ele>89.8</ele>
        <time>2019-08-28T07:53:22Z</time>
      </trkpt>
      <trkpt lat="36.3960300" lon="-5.2250760">
        <ele>90.1</ele>
        <time>2019-08-28T07:53:23Z</time>
      </trkpt>
      <trkpt lat="36.3960650" lon="-5.2250960">
        <ele>90.3</ele>
        <time>2019-08-28T07:53:24Z</time>
      </trkpt>
      <trkpt lat="36.3961020" lon="-5.2251150">
        <ele>90.6</ele>
        <time>2019-08-28T07:53:25Z</time>
      </trkpt>
      <trkpt lat="36.3961380" lon="-5.2251350">
        <ele>90.8</ele>
        <time>2019-08-28T07:53:26Z</time>
      </trkpt>
      <trkpt lat="36.3961750" lon="-5.2251550">
        <ele>91.0</ele>
        <time>2019-08-28T07:53:27Z</time>
      </trkpt>
      <trkpt lat="36.3962110" lon="-5.2251750">
        <ele>91.2</ele>
        <time>2019-08-28T07:53:28Z</time>
      </trkpt>
      <trkpt lat="36.3962480" lon="-5.2251950">
        <ele>91.4</ele>
        <time>2019-08-28T07:53:29Z</time>
      </trkpt>
      <trkpt lat="36.3962840" lon="-5.2252150">
        <ele>91.6</ele>
        <time>2019-08-28T07:53:30Z</time>
      </trkpt>
      <trkpt lat="36.3963210" lon="-5.2252340">
        <ele>91.8</ele>
        <time>2019-08-28T07:53:31Z</time>
      </trkpt>
      <trkpt lat="36.3963580" lon="-5.2252540">
        <ele>91.9</ele>
        <time>2019-08-28T07:53:32Z</time>
      </trkpt>
      <trkpt lat="36.3963950" lon="-5.2252730">
        <ele>92.1</ele>
        <time>2019-08-28T07:53:33Z</time>
      </trkpt>
      <trkpt lat="36.3964320" lon="-5.2252940">
        <ele>92.2</ele>
        <time>2019-08-28T07:53:34Z</time>
      </trkpt>
      <trkpt lat="36.3964690" lon="-5.2253140">
        <ele>92.4</ele>
        <time>2019-08-28T07:53:35Z</time>
      </trkpt>
      <trkpt lat="36.3965070" lon="-5.2253340">
        <ele>92.5</ele>
        <time>2019-08-28T07:53:36Z</time>
      </trkpt>
      <trkpt lat="36.3965440" lon="-5.2253540">
        <ele>92.6</ele>
        <time>2019-08-28T07:53:37Z</time>
      </trkpt>
      <trkpt lat="36.3965810" lon="-5.2253740">
        <ele>92.8</ele>
        <time>2019-08-28T07:53:38Z</time>
      </trkpt>
      <trkpt lat="36.3966200" lon="-5.2253930">
        <ele>92.9</ele>
        <time>2019-08-28T07:53:39Z</time>
      </trkpt>
      <trkpt lat="36.3966590" lon="-5.2254110">
        <ele>93.1</ele>
        <time>2019-08-28T07:53:40Z</time>
      </trkpt>
      <trkpt lat="36.3966980" lon="-5.2254280">
        <ele>93.2</ele>
        <time>2019-08-28T07:53:41Z</time>
      </trkpt>
      <trkpt lat="36.3967390" lon="-5.2254450">
        <ele>93.4</ele>
        <time>2019-08-28T07:53:42Z</time>
      </trkpt>
      <trkpt lat="36.3967800" lon="-5.2254620">
        <ele>93.6</ele>
        <time>2019-08-28T07:53:43Z</time>
      </trkpt>
      <trkpt lat="36.3968210" lon="-5.2254790">
        <ele>93.8</ele>
        <time>2019-08-28T07:53:44Z</time>
      </trkpt>
      <trkpt lat="36.3968630" lon="-5.2254950">
        <ele>93.7</ele>
        <time>2019-08-28T07:53:45Z</time>
      </trkpt>
      <trkpt lat="36.3969060" lon="-5.2255110">
        <ele>93.6</ele>
        <time>2019-08-28T07:53:46Z</time>
      </trkpt>
      <trkpt lat="36.3969490" lon="-5.2255280">
        <ele>93.4</ele>
        <time>2019-08-28T07:53:47Z</time>
      </trkpt>
      <trkpt lat="36.3969940" lon="-5.2255460">
        <ele>93.3</ele>
        <time>2019-08-28T07:53:48Z</time>
      </trkpt>
      <trkpt lat="36.3970440" lon="-5.2255600">
        <ele>93.1</ele>
        <time>2019-08-28T07:53:49Z</time>
      </trkpt>
      <trkpt lat="36.3970970" lon="-5.2255640">
        <ele>93.3</ele>
        <time>2019-08-28T07:53:50Z</time>
      </trkpt>
      <trkpt lat="36.3971520" lon="-5.2255600">
        <ele>93.5</ele>
        <time>2019-08-28T07:53:51Z</time>
      </trkpt>
      <trkpt lat="36.3972060" lon="-5.2255560">
        <ele>93.7</ele>
        <time>2019-08-28T07:53:52Z</time>
      </trkpt>
      <trkpt lat="36.3972590" lon="-5.2255620">
        <ele>94.0</ele>
        <time>2019-08-28T07:53:53Z</time>
      </trkpt>
      <trkpt lat="36.3973090" lon="-5.2255820">
        <ele>93.4</ele>
        <time>2019-08-28T07:53:54Z</time>
      </trkpt>
      <trkpt lat="36.3973570" lon="-5.2256130">
        <ele>93.3</ele>
        <time>2019-08-28T07:53:55Z</time>
      </trkpt>
      <trkpt lat="36.3974030" lon="-5.2256520">
        <ele>92.1</ele>
        <time>2019-08-28T07:53:56Z</time>
      </trkpt>
      <trkpt lat="36.3974520" lon="-5.2256940">
        <ele>92.0</ele>
        <time>2019-08-28T07:53:57Z</time>
      </trkpt>
      <trkpt lat="36.3975020" lon="-5.2257360">
        <ele>91.2</ele>
        <time>2019-08-28T07:53:58Z</time>
      </trkpt>
      <trkpt lat="36.3975550" lon="-5.2257770">
        <ele>91.4</ele>
        <time>2019-08-28T07:53:59Z</time>
      </trkpt>
      <trkpt lat="36.3976080" lon="-5.2258160">
        <ele>91.5</ele>
        <time>2019-08-28T07:54:00Z</time>
      </trkpt>
      <trkpt lat="36.3976630" lon="-5.2258520">
        <ele>91.7</ele>
        <time>2019-08-28T07:54:01Z</time>
      </trkpt>
      <trkpt lat="36.3977200" lon="-5.2258820">
        <ele>91.8</ele>
        <time>2019-08-28T07:54:02Z</time>
      </trkpt>
      <trkpt lat="36.3977780" lon="-5.2259060">
        <ele>91.9</ele>
        <time>2019-08-28T07:54:03Z</time>
      </trkpt>
      <trkpt lat="36.3978380" lon="-5.2259280">
        <ele>92.0</ele>
        <time>2019-08-28T07:54:04Z</time>
      </trkpt>
      <trkpt lat="36.3978980" lon="-5.2259510">
        <ele>92.2</ele>
        <time>2019-08-28T07:54:05Z</time>
      </trkpt>
      <trkpt lat="36.3979580" lon="-5.2259740">
        <ele>92.3</ele>
        <time>2019-08-28T07:54:06Z</time>
      </trkpt>
      <trkpt lat="36.3980180" lon="-5.2259970">
        <ele>92.4</ele>
        <time>2019-08-28T07:54:07Z</time>
      </trkpt>
      <trkpt lat="36.3980770" lon="-5.2260190">
        <ele>92.5</ele>
        <time>2019-08-28T07:54:08Z</time>
      </trkpt>
      <trkpt lat="36.3981350" lon="-5.2260410">
        <ele>92.7</ele>
        <time>2019-08-28T07:54:09Z</time>
      </trkpt>
      <trkpt lat="36.3981920" lon="-5.2260630">
        <ele>92.8</ele>
        <time>2019-08-28T07:54:10Z</time>
      </trkpt>
      <trkpt lat="36.3982490" lon="-5.2260850">
        <ele>92.9</ele>
        <time>2019-08-28T07:54:11Z</time>
      </trkpt>
      <trkpt lat="36.3983050" lon="-5.2261070">
        <ele>93.0</ele>
        <time>2019-08-28T07:54:12Z</time>
      </trkpt>
      <trkpt lat="36.3983610" lon="-5.2261310">
        <ele>93.2</ele>
        <time>2019-08-28T07:54:13Z</time>
      </trkpt>
      <trkpt lat="36.3984150" lon="-5.2261540">
        <ele>93.3</ele>
        <time>2019-08-28T07:54:14Z</time>
      </trkpt>
      <trkpt lat="36.3984690" lon="-5.2261770">
        <ele>93.4</ele>
        <time>2019-08-28T07:54:15Z</time>
      </trkpt>
      <trkpt lat="36.3985230" lon="-5.2261990">
        <ele>93.6</ele>
        <time>2019-08-28T07:54:16Z</time>
      </trkpt>
      <trkpt lat="36.3985770" lon="-5.2262220">
        <ele>93.8</ele>
        <time>2019-08-28T07:54:17Z</time>
      </trkpt>
      <trkpt lat="36.3986300" lon="-5.2262450">
        <ele>93.9</ele>
        <time>2019-08-28T07:54:18Z</time>
      </trkpt>
      <trkpt lat="36.3986840" lon="-5.2262670">
        <ele>94.1</ele>
        <time>2019-08-28T07:54:19Z</time>
      </trkpt>
      <trkpt lat="36.3987370" lon="-5.2262900">
        <ele>94.2</ele>
        <time>2019-08-28T07:54:20Z</time>
      </trkpt>
      <trkpt lat="36.3987890" lon="-5.2263120">
        <ele>94.4</ele>
        <time>2019-08-28T07:54:21Z</time>
      </trkpt>
      <trkpt lat="36.3988410" lon="-5.2263360">
        <ele>94.6</ele>
        <time>2019-08-28T07:54:22Z</time>
      </trkpt>
      <trkpt lat="36.3988940" lon="-5.2263590">
        <ele>94.7</ele>
        <time>2019-08-28T07:54:23Z</time>
      </trkpt>
      <trkpt lat="36.3989460" lon="-5.2263830">
        <ele>94.9</ele>
        <time>2019-08-28T07:54:24Z</time>
      </trkpt>
      <trkpt lat="36.3989980" lon="-5.2264070">
        <ele>95.0</ele>
        <time>2019-08-28T07:54:25Z</time>
      </trkpt>
      <trkpt lat="36.3990500" lon="-5.2264330">
        <ele>95.2</ele>
        <time>2019-08-28T07:54:26Z</time>
      </trkpt>
      <trkpt lat="36.3991020" lon="-5.2264590">
        <ele>95.4</ele>
        <time>2019-08-28T07:54:27Z</time>
      </trkpt>
      <trkpt lat="36.3991550" lon="-5.2264840">
        <ele>95.5</ele>
        <time>2019-08-28T07:54:28Z</time>
      </trkpt>
      <trkpt lat="36.3992070" lon="-5.2265080">
        <ele>95.7</ele>
        <time>2019-08-28T07:54:29Z</time>
      </trkpt>
      <trkpt lat="36.3992590" lon="-5.2265320">
        <ele>95.9</ele>
        <time>2019-08-28T07:54:30Z</time>
      </trkpt>
      <trkpt lat="36.3993110" lon="-5.2265570">
        <ele>96.1</ele>
        <time>2019-08-28T07:54:31Z</time>
      </trkpt>
      <trkpt lat="36.3993630" lon="-5.2265830">
        <ele>96.3</ele>
        <time>2019-08-28T07:54:32Z</time>
      </trkpt>
      <trkpt lat="36.3994140" lon="-5.2266090">
        <ele>96.5</ele>
        <time>2019-08-28T07:54:33Z</time>
      </trkpt>
      <trkpt lat="36.3994670" lon="-5.2266340">
        <ele>96.6</ele>
        <time>2019-08-28T07:54:34Z</time>
      </trkpt>
      <trkpt lat="36.3995190" lon="-5.2266590">
        <ele>96.8</ele>
        <time>2019-08-28T07:54:35Z</time>
      </trkpt>
      <trkpt lat="36.3995720" lon="-5.2266840">
        <ele>97.0</ele>
        <time>2019-08-28T07:54:36Z</time>
      </trkpt>
      <trkpt lat="36.3996240" lon="-5.2267090">
        <ele>97.1</ele>
        <time>2019-08-28T07:54:37Z</time>
      </trkpt>
      <trkpt lat="36.3996760" lon="-5.2267330">
        <ele>97.3</ele>
        <time>2019-08-28T07:54:38Z</time>
      </trkpt>
      <trkpt lat="36.3997290" lon="-5.2267570">
        <ele>97.4</ele>
        <time>2019-08-28T07:54:39Z</time>
      </trkpt>
      <trkpt lat="36.3997820" lon="-5.2267810">
        <ele>97.6</ele>
        <time>2019-08-28T07:54:40Z</time>
      </trkpt>
      <trkpt lat="36.3998360" lon="-5.2268060">
        <ele>97.7</ele>
        <time>2019-08-28T07:54:41Z</time>
      </trkpt>
      <trkpt lat="36.3998900" lon="-5.2268320">
        <ele>97.8</ele>
        <time>2019-08-28T07:54:42Z</time>
      </trkpt>
      <trkpt lat="36.3999450" lon="-5.2268570">
        <ele>98.0</ele>
        <time>2019-08-28T07:54:43Z</time>
      </trkpt>
      <trkpt lat="36.4000010" lon="-5.2268830">
        <ele>98.2</ele>
        <time>2019-08-28T07:54:44Z</time>
      </trkpt>
      <trkpt lat="36.4000570" lon="-5.2269090">
        <ele>98.3</ele>
        <time>2019-08-28T07:54:45Z</time>
      </trkpt>
      <trkpt lat="36.4001140" lon="-5.2269360">
        <ele>98.5</ele>
        <time>2019-08-28T07:54:46Z</time>
      </trkpt>
      <trkpt lat="36.4001710" lon="-5.2269630">
        <ele>98.6</ele>
        <time>2019-08-28T07:54:47Z</time>
      </trkpt>
      <trkpt lat="36.4002290" lon="-5.2269900">
        <ele>98.7</ele>
        <time>2019-08-28T07:54:48Z</time>
      </trkpt>
      <trkpt lat="36.4002870" lon="-5.2270170">
        <ele>98.8</ele>
        <time>2019-08-28T07:54:49Z</time>
      </trkpt>
      <trkpt lat="36.4003460" lon="-5.2270450">
        <ele>99.0</ele>
        <time>2019-08-28T07:54:50Z</time>
      </trkpt>
      <trkpt lat="36.4004050" lon="-5.2270740">
        <ele>99.1</ele>
        <time>2019-08-28T07:54:51Z</time>
      </trkpt>
      <trkpt lat="36.4004650" lon="-5.2271030">
        <ele>99.1</ele>
        <time>2019-08-28T07:54:52Z</time>
      </trkpt>
      <trkpt lat="36.4005260" lon="-5.2271320">
        <ele>99.1</ele>
        <time>2019-08-28T07:54:53Z</time>
      </trkpt>
      <trkpt lat="36.4005880" lon="-5.2271610">
        <ele>99.1</ele>
        <time>2019-08-28T07:54:54Z</time>
      </trkpt>
      <trkpt lat="36.4006510" lon="-5.2271900">
        <ele>99.1</ele>
        <time>2019-08-28T07:54:55Z</time>
      </trkpt>
      <trkpt lat="36.4007140" lon="-5.2272190">
        <ele>99.1</ele>
        <time>2019-08-28T07:54:56Z</time>
      </trkpt>
      <trkpt lat="36.4007780" lon="-5.2272490">
        <ele>99.1</ele>
        <time>2019-08-28T07:54:57Z</time>
      </trkpt>
      <trkpt lat="36.4008430" lon="-5.2272790">
        <ele>99.1</ele>
        <time>2019-08-28T07:54:58Z</time>
      </trkpt>
      <trkpt lat="36.4009080" lon="-5.2273090">
        <ele>99.1</ele>
        <time>2019-08-28T07:54:59Z</time>
      </trkpt>
      <trkpt lat="36.4009750" lon="-5.2273390">
        <ele>99.1</ele>
        <time>2019-08-28T07:55:00Z</time>
      </trkpt>
      <trkpt lat="36.4010420" lon="-5.2273710">
        <ele>99.1</ele>
        <time>2019-08-28T07:55:01Z</time>
      </trkpt>
      <trkpt lat="36.4011090" lon="-5.2274030">
        <ele>99.2</ele>
        <time>2019-08-28T07:55:02Z</time>
      </trkpt>
      <trkpt lat="36.4011760" lon="-5.2274360">
        <ele>99.3</ele>
        <time>2019-08-28T07:55:03Z</time>
      </trkpt>
      <trkpt lat="36.4012430" lon="-5.2274690">
        <ele>99.4</ele>
        <time>2019-08-28T07:55:04Z</time>
      </trkpt>
      <trkpt lat="36.4013100" lon="-5.2275000">
        <ele>99.5</ele>
        <time>2019-08-28T07:55:05Z</time>
      </trkpt>
      <trkpt lat="36.4013760" lon="-5.2275310">
        <ele>99.6</ele>
        <time>2019-08-28T07:55:06Z</time>
      </trkpt>
      <trkpt lat="36.4014420" lon="-5.2275630">
        <ele>99.8</ele>
        <time>2019-08-28T07:55:07Z</time>
      </trkpt>
      <trkpt lat="36.4015060" lon="-5.2275970">
        <ele>99.9</ele>
        <time>2019-08-28T07:55:08Z</time>
      </trkpt>
      <trkpt lat="36.4015700" lon="-5.2276320">
        <ele>100.0</ele>
        <time>2019-08-28T07:55:09Z</time>
      </trkpt>
      <trkpt lat="36.4016330" lon="-5.2276660">
        <ele>100.1</ele>
        <time>2019-08-28T07:55:10Z</time>
      </trkpt>
      <trkpt lat="36.4016970" lon="-5.2277000">
        <ele>100.2</ele>
        <time>2019-08-28T07:55:11Z</time>
      </trkpt>
      <trkpt lat="36.4017600" lon="-5.2277350">
        <ele>100.4</ele>
        <time>2019-08-28T07:55:12Z</time>
      </trkpt>
      <trkpt lat="36.4018210" lon="-5.2277710">
        <ele>100.5</ele>
        <time>2019-08-28T07:55:13Z</time>
      </trkpt>
      <trkpt lat="36.4018810" lon="-5.2278080">
        <ele>100.7</ele>
        <time>2019-08-28T07:55:14Z</time>
      </trkpt>
      <trkpt lat="36.4019400" lon="-5.2278470">
        <ele>100.9</ele>
        <time>2019-08-28T07:55:15Z</time>
      </trkpt>
      <trkpt lat="36.4019970" lon="-5.2278880">
        <ele>101.0</ele>
        <time>2019-08-28T07:55:16Z</time>
      </trkpt>
      <trkpt lat="36.4020540" lon="-5.2279290">
        <ele>101.1</ele>
        <time>2019-08-28T07:55:17Z</time>
      </trkpt>
      <trkpt lat="36.4021100" lon="-5.2279730">
        <ele>101.3</ele>
        <time>2019-08-28T07:55:18Z</time>
      </trkpt>
      <trkpt lat="36.4021650" lon="-5.2280180">
        <ele>101.4</ele>
        <time>2019-08-28T07:55:19Z</time>
      </trkpt>
      <trkpt lat="36.4022180" lon="-5.2280650">
        <ele>101.5</ele>
        <time>2019-08-28T07:55:20Z</time>
      </trkpt>
      <trkpt lat="36.4022700" lon="-5.2281130">
        <ele>101.6</ele>
        <time>2019-08-28T07:55:21Z</time>
      </trkpt>
      <trkpt lat="36.4023220" lon="-5.2281620">
        <ele>101.8</ele>
        <time>2019-08-28T07:55:22Z</time>
      </trkpt>
      <trkpt lat="36.4023720" lon="-5.2282130">
        <ele>101.9</ele>
        <time>2019-08-28T07:55:23Z</time>
      </trkpt>
      <trkpt lat="36.4024210" lon="-5.2282660">
        <ele>102.1</ele>
        <time>2019-08-28T07:55:24Z</time>
      </trkpt>
      <trkpt lat="36.4024680" lon="-5.2283190">
        <ele>102.2</ele>
        <time>2019-08-28T07:55:25Z</time>
      </trkpt>
      <trkpt lat="36.4025130" lon="-5.2283730">
        <ele>102.4</ele>
        <time>2019-08-28T07:55:26Z</time>
      </trkpt>
      <trkpt lat="36.4025580" lon="-5.2284280">
        <ele>102.5</ele>
        <time>2019-08-28T07:55:27Z</time>
      </trkpt>
      <trkpt lat="36.4026010" lon="-5.2284830">
        <ele>102.6</ele>
        <time>2019-08-28T07:55:28Z</time>
      </trkpt>
      <trkpt lat="36.4026430" lon="-5.2285380">
        <ele>102.8</ele>
        <time>2019-08-28T07:55:29Z</time>
      </trkpt>
      <trkpt lat="36.4026840" lon="-5.2285920">
        <ele>102.9</ele>
        <time>2019-08-28T07:55:30Z</time>
      </trkpt>
      <trkpt lat="36.4027250" lon="-5.2286470">
        <ele>103.1</ele>
        <time>2019-08-28T07:55:31Z</time>
      </trkpt>
      <trkpt lat="36.4027650" lon="-5.2287020">
        <ele>103.2</ele>
        <time>2019-08-28T07:55:32Z</time>
      </trkpt>
      <trkpt lat="36.4028040" lon="-5.2287580">
        <ele>103.3</ele>
        <time>2019-08-28T07:55:33Z</time>
      </trkpt>
      <trkpt lat="36.4028420" lon="-5.2288150">
        <ele>103.4</ele>
        <time>2019-08-28T07:55:34Z</time>
      </trkpt>
      <trkpt lat="36.4028790" lon="-5.2288710">
        <ele>103.5</ele>
        <time>2019-08-28T07:55:35Z</time>
      </trkpt>
      <trkpt lat="36.4029160" lon="-5.2289270">
        <ele>103.6</ele>
        <time>2019-08-28T07:55:36Z</time>
      </trkpt>
      <trkpt lat="36.4029510" lon="-5.2289840">
        <ele>103.7</ele>
        <time>2019-08-28T07:55:37Z</time>
      </trkpt>
      <trkpt lat="36.4029850" lon="-5.2290410">
        <ele>103.7</ele>
        <time>2019-08-28T07:55:38Z</time>
      </trkpt>
      <trkpt lat="36.4030200" lon="-5.2290970">
        <ele>103.8</ele>
        <time>2019-08-28T07:55:39Z</time>
      </trkpt>
      <trkpt lat="36.4030550" lon="-5.2291510">
        <ele>103.9</ele>
        <time>2019-08-28T07:55:40Z</time>
      </trkpt>
      <trkpt lat="36.4030910" lon="-5.2292040">
        <ele>103.9</ele>
        <time>2019-08-28T07:55:41Z</time>
      </trkpt>
      <trkpt lat="36.4031270" lon="-5.2292560">
        <ele>104.0</ele>
        <time>2019-08-28T07:55:42Z</time>
      </trkpt>
      <trkpt lat="36.4031630" lon="-5.2293090">
        <ele>104.0</ele>
        <time>2019-08-28T07:55:43Z</time>
      </trkpt>
      <trkpt lat="36.4031980" lon="-5.2293610">
        <ele>104.0</ele>
        <time>2019-08-28T07:55:44Z</time>
      </trkpt>
      <trkpt lat="36.4032330" lon="-5.2294140">
        <ele>104.0</ele>
        <time>2019-08-28T07:55:45Z</time>
      </trkpt>
      <trkpt lat="36.4032680" lon="-5.2294680">
        <ele>104.0</ele>
        <time>2019-08-28T07:55:46Z</time>
      </trkpt>
      <trkpt lat="36.4033040" lon="-5.2295200">
        <ele>104.0</ele>
        <time>2019-08-28T07:55:47Z</time>
      </trkpt>
      <trkpt lat="36.4033390" lon="-5.2295730">
        <ele>104.0</ele>
        <time>2019-08-28T07:55:48Z</time>
      </trkpt>
      <trkpt lat="36.4033740" lon="-5.2296250">
        <ele>104.0</ele>
        <time>2019-08-28T07:55:49Z</time>
      </trkpt>
      <trkpt lat="36.4034080" lon="-5.2296770">
        <ele>104.0</ele>
        <time>2019-08-28T07:55:50Z</time>
      </trkpt>
      <trkpt lat="36.4034430" lon="-5.2297290">
        <ele>104.1</ele>
        <time>2019-08-28T07:55:51Z</time>
      </trkpt>
      <trkpt lat="36.4034760" lon="-5.2297810">
        <ele>104.1</ele>
        <time>2019-08-28T07:55:52Z</time>
      </trkpt>
      <trkpt lat="36.4035100" lon="-5.2298340">
        <ele>104.1</ele>
        <time>2019-08-28T07:55:53Z</time>
      </trkpt>
      <trkpt lat="36.4035440" lon="-5.2298870">
        <ele>104.1</ele>
        <time>2019-08-28T07:55:54Z</time>
      </trkpt>
      <trkpt lat="36.4035800" lon="-5.2299410">
        <ele>104.1</ele>
        <time>2019-08-28T07:55:55Z</time>
      </trkpt>
      <trkpt lat="36.4036150" lon="-5.2299950">
        <ele>104.2</ele>
        <time>2019-08-28T07:55:56Z</time>
      </trkpt>
      <trkpt lat="36.4036510" lon="-5.2300490">
        <ele>104.2</ele>
        <time>2019-08-28T07:55:57Z</time>
      </trkpt>
      <trkpt lat="36.4036860" lon="-5.2301030">
        <ele>104.2</ele>
        <time>2019-08-28T07:55:58Z</time>
      </trkpt>
      <trkpt lat="36.4037220" lon="-5.2301560">
        <ele>104.2</ele>
        <time>2019-08-28T07:55:59Z</time>
      </trkpt>
      <trkpt lat="36.4037600" lon="-5.2302080">
        <ele>104.3</ele>
        <time>2019-08-28T07:56:00Z</time>
      </trkpt>
      <trkpt lat="36.4037980" lon="-5.2302600">
        <ele>104.3</ele>
        <time>2019-08-28T07:56:01Z</time>
      </trkpt>
      <trkpt lat="36.4038380" lon="-5.2303100">
        <ele>104.3</ele>
        <time>2019-08-28T07:56:02Z</time>
      </trkpt>
      <trkpt lat="36.4038780" lon="-5.2303610">
        <ele>104.4</ele>
        <time>2019-08-28T07:56:03Z</time>
      </trkpt>
      <trkpt lat="36.4039200" lon="-5.2304100">
        <ele>104.4</ele>
        <time>2019-08-28T07:56:04Z</time>
      </trkpt>
      <trkpt lat="36.4039620" lon="-5.2304600">
        <ele>104.5</ele>
        <time>2019-08-28T07:56:05Z</time>
      </trkpt>
      <trkpt lat="36.4040060" lon="-5.2305090">
        <ele>104.5</ele>
        <time>2019-08-28T07:56:06Z</time>
      </trkpt>
      <trkpt lat="36.4040500" lon="-5.2305590">
        <ele>104.6</ele>
        <time>2019-08-28T07:56:07Z</time>
      </trkpt>
      <trkpt lat="36.4040950" lon="-5.2306080">
        <ele>104.7</ele>
        <time>2019-08-28T07:56:08Z</time>
      </trkpt>
      <trkpt lat="36.4041410" lon="-5.2306570">
        <ele>104.8</ele>
        <time>2019-08-28T07:56:09Z</time>
      </trkpt>
      <trkpt lat="36.4041870" lon="-5.2307060">
        <ele>104.9</ele>
        <time>2019-08-28T07:56:10Z</time>
      </trkpt>
      <trkpt lat="36.4042340" lon="-5.2307540">
        <ele>105.1</ele>
        <time>2019-08-28T07:56:11Z</time>
      </trkpt>
      <trkpt lat="36.4042810" lon="-5.2308010">
        <ele>105.3</ele>
        <time>2019-08-28T07:56:12Z</time>
      </trkpt>
      <trkpt lat="36.4043280" lon="-5.2308480">
        <ele>105.4</ele>
        <time>2019-08-28T07:56:13Z</time>
      </trkpt>
      <trkpt lat="36.4043760" lon="-5.2308950">
        <ele>105.6</ele>
        <time>2019-08-28T07:56:14Z</time>
      </trkpt>
      <trkpt lat="36.4044240" lon="-5.2309410">
        <ele>105.8</ele>
        <time>2019-08-28T07:56:15Z</time>
      </trkpt>
      <trkpt lat="36.4044720" lon="-5.2309870">
        <ele>105.9</ele>
        <time>2019-08-28T07:56:16Z</time>
      </trkpt>
      <trkpt lat="36.4045210" lon="-5.2310320">
        <ele>106.1</ele>
        <time>2019-08-28T07:56:17Z</time>
      </trkpt>
      <trkpt lat="36.4045710" lon="-5.2310780">
        <ele>106.3</ele>
        <time>2019-08-28T07:56:18Z</time>
      </trkpt>
      <trkpt lat="36.4046220" lon="-5.2311230">
        <ele>106.5</ele>
        <time>2019-08-28T07:56:19Z</time>
      </trkpt>
      <trkpt lat="36.4046730" lon="-5.2311670">
        <ele>106.8</ele>
        <time>2019-08-28T07:56:20Z</time>
      </trkpt>
      <trkpt lat="36.4047230" lon="-5.2312120">
        <ele>107.0</ele>
        <time>2019-08-28T07:56:21Z</time>
      </trkpt>
      <trkpt lat="36.4047740" lon="-5.2312560">
        <ele>107.3</ele>
        <time>2019-08-28T07:56:22Z</time>
      </trkpt>
      <trkpt lat="36.4048240" lon="-5.2313000">
        <ele>107.6</ele>
        <time>2019-08-28T07:56:23Z</time>
      </trkpt>
      <trkpt lat="36.4048730" lon="-5.2313420">
        <ele>107.9</ele>
        <time>2019-08-28T07:56:24Z</time>
      </trkpt>
      <trkpt lat="36.4049190" lon="-5.2313820">
        <ele>108.2</ele>
        <time>2019-08-28T07:56:25Z</time>
      </trkpt>
      <trkpt lat="36.4049640" lon="-5.2314200">
        <ele>108.5</ele>
        <time>2019-08-28T07:56:26Z</time>
      </trkpt>
      <trkpt lat="36.4050060" lon="-5.2314570">
        <ele>108.7</ele>
        <time>2019-08-28T07:56:27Z</time>
      </trkpt>
      <trkpt lat="36.4050470" lon="-5.2314920">
        <ele>109.0</ele>
        <time>2019-08-28T07:56:28Z</time>
      </trkpt>
      <trkpt lat="36.4050890" lon="-5.2315230">
        <ele>109.2</ele>
        <time>2019-08-28T07:56:29Z</time>
      </trkpt>
      <trkpt lat="36.4051310" lon="-5.2315530">
        <ele>109.4</ele>
        <time>2019-08-28T07:56:30Z</time>
      </trkpt>
      <trkpt lat="36.4051720" lon="-5.2315830">
        <ele>109.7</ele>
        <time>2019-08-28T07:56:31Z</time>
      </trkpt>
      <trkpt lat="36.4052140" lon="-5.2316120">
        <ele>109.9</ele>
        <time>2019-08-28T07:56:32Z</time>
      </trkpt>
      <trkpt lat="36.4052560" lon="-5.2316380">
        <ele>110.1</ele>
        <time>2019-08-28T07:56:33Z</time>
      </trkpt>
      <trkpt lat="36.4053000" lon="-5.2316590">
        <ele>110.3</ele>
        <time>2019-08-28T07:56:34Z</time>
      </trkpt>
      <trkpt lat="36.4053440" lon="-5.2316760">
        <ele>110.4</ele>
        <time>2019-08-28T07:56:35Z</time>
      </trkpt>
      <trkpt lat="36.4053890" lon="-5.2316920">
        <ele>110.6</ele>
        <time>2019-08-28T07:56:36Z</time>
      </trkpt>
      <trkpt lat="36.4054320" lon="-5.2317090">
        <ele>110.7</ele>
        <time>2019-08-28T07:56:37Z</time>
      </trkpt>
      <trkpt lat="36.4054760" lon="-5.2317240">
        <ele>110.8</ele>
        <time>2019-08-28T07:56:38Z</time>
      </trkpt>
      <trkpt lat="36.4055200" lon="-5.2317360">
        <ele>111.0</ele>
        <time>2019-08-28T07:56:39Z</time>
      </trkpt>
      <trkpt lat="36.4055640" lon="-5.2317450">
        <ele>111.1</ele>
        <time>2019-08-28T07:56:40Z</time>
      </trkpt>
      <trkpt lat="36.4056070" lon="-5.2317500">
        <ele>111.1</ele>
        <time>2019-08-28T07:56:41Z</time>
      </trkpt>
      <trkpt lat="36.4056500" lon="-5.2317560">
        <ele>111.2</ele>
        <time>2019-08-28T07:56:42Z</time>
      </trkpt>
      <trkpt lat="36.4056920" lon="-5.2317580">
        <ele>111.3</ele>
        <time>2019-08-28T07:56:43Z</time>
      </trkpt>
      <trkpt lat="36.4057340" lon="-5.2317590">
        <ele>111.3</ele>
        <time>2019-08-28T07:56:44Z</time>
      </trkpt>
      <trkpt lat="36.4057750" lon="-5.2317550">
        <ele>111.4</ele>
        <time>2019-08-28T07:56:45Z</time>
      </trkpt>
      <trkpt lat="36.4058170" lon="-5.2317510">
        <ele>111.4</ele>
        <time>2019-08-28T07:56:46Z</time>
      </trkpt>
      <trkpt lat="36.4058590" lon="-5.2317440">
        <ele>111.4</ele>
        <time>2019-08-28T07:56:47Z</time>
      </trkpt>
      <trkpt lat="36.4059000" lon="-5.2317350">
        <ele>111.5</ele>
        <time>2019-08-28T07:56:48Z</time>
      </trkpt>
      <trkpt lat="36.4059420" lon="-5.2317250">
        <ele>111.5</ele>
        <time>2019-08-28T07:56:49Z</time>
      </trkpt>
      <trkpt lat="36.4059830" lon="-5.2317150">
        <ele>111.5</ele>
        <time>2019-08-28T07:56:50Z</time>
      </trkpt>
      <trkpt lat="36.4060240" lon="-5.2317030">
        <ele>111.5</ele>
        <time>2019-08-28T07:56:51Z</time>
      </trkpt>
      <trkpt lat="36.4060660" lon="-5.2316920">
        <ele>111.6</ele>
        <time>2019-08-28T07:56:52Z</time>
      </trkpt>
      <trkpt lat="36.4061060" lon="-5.2316800">
        <ele>111.6</ele>
        <time>2019-08-28T07:56:53Z</time>
      </trkpt>
      <trkpt lat="36.4061470" lon="-5.2316680">
        <ele>111.6</ele>
        <time>2019-08-28T07:56:54Z</time>
      </trkpt>
      <trkpt lat="36.4061880" lon="-5.2316570">
        <ele>111.6</ele>
        <time>2019-08-28T07:56:55Z</time>
      </trkpt>
      <trkpt lat="36.4062280" lon="-5.2316470">
        <ele>111.6</ele>
        <time>2019-08-28T07:56:56Z</time>
      </trkpt>
      <trkpt lat="36.4062690" lon="-5.2316380">
        <ele>111.7</ele>
        <time>2019-08-28T07:56:57Z</time>
      </trkpt>
      <trkpt lat="36.4063110" lon="-5.2316280">
        <ele>111.7</ele>
        <time>2019-08-28T07:56:58Z</time>
      </trkpt>
      <trkpt lat="36.4063530" lon="-5.2316180">
        <ele>111.7</ele>
        <time>2019-08-28T07:56:59Z</time>
      </trkpt>
      <trkpt lat="36.4063960" lon="-5.2316100">
        <ele>111.7</ele>
        <time>2019-08-28T07:57:00Z</time>
      </trkpt>
      <trkpt lat="36.4064390" lon="-5.2316040">
        <ele>111.7</ele>
        <time>2019-08-28T07:57:01Z</time>
      </trkpt>
      <trkpt lat="36.4064830" lon="-5.2316000">
        <ele>111.7</ele>
        <time>2019-08-28T07:57:02Z</time>
      </trkpt>
      <trkpt lat="36.4065280" lon="-5.2315990">
        <ele>111.7</ele>
        <time>2019-08-28T07:57:03Z</time>
      </trkpt>
      <trkpt lat="36.4065740" lon="-5.2316010">
        <ele>111.7</ele>
        <time>2019-08-28T07:57:04Z</time>
      </trkpt>
      <trkpt lat="36.4066220" lon="-5.2316060">
        <ele>111.7</ele>
        <time>2019-08-28T07:57:05Z</time>
      </trkpt>
      <trkpt lat="36.4066700" lon="-5.2316140">
        <ele>111.7</ele>
        <time>2019-08-28T07:57:06Z</time>
      </trkpt>
      <trkpt lat="36.4067200" lon="-5.2316260">
        <ele>111.7</ele>
        <time>2019-08-28T07:57:07Z</time>
      </trkpt>
      <trkpt lat="36.4067690" lon="-5.2316420">
        <ele>111.6</ele>
        <time>2019-08-28T07:57:08Z</time>
      </trkpt>
      <trkpt lat="36.4068190" lon="-5.2316610">
        <ele>111.6</ele>
        <time>2019-08-28T07:57:09Z</time>
      </trkpt>
      <trkpt lat="36.4068700" lon="-5.2316820">
        <ele>111.6</ele>
        <time>2019-08-28T07:57:10Z</time>
      </trkpt>
      <trkpt lat="36.4069220" lon="-5.2317050">
        <ele>111.5</ele>
        <time>2019-08-28T07:57:11Z</time>
      </trkpt>
      <trkpt lat="36.4069750" lon="-5.2317340">
        <ele>111.5</ele>
        <time>2019-08-28T07:57:12Z</time>
      </trkpt>
      <trkpt lat="36.4070290" lon="-5.2317680">
        <ele>111.4</ele>
        <time>2019-08-28T07:57:13Z</time>
      </trkpt>
      <trkpt lat="36.4070820" lon="-5.2318090">
        <ele>111.4</ele>
        <time>2019-08-28T07:57:14Z</time>
      </trkpt>
      <trkpt lat="36.4071330" lon="-5.2318560">
        <ele>111.4</ele>
        <time>2019-08-28T07:57:15Z</time>
      </trkpt>
      <trkpt lat="36.4071820" lon="-5.2319080">
        <ele>111.3</ele>
        <time>2019-08-28T07:57:16Z</time>
      </trkpt>
      <trkpt lat="36.4072290" lon="-5.2319640">
        <ele>111.3</ele>
        <time>2019-08-28T07:57:17Z</time>
      </trkpt>
      <trkpt lat="36.4072720" lon="-5.2320250">
        <ele>111.3</ele>
        <time>2019-08-28T07:57:18Z</time>
      </trkpt>
      <trkpt lat="36.4073140" lon="-5.2320910">
        <ele>111.3</ele>
        <time>2019-08-28T07:57:19Z</time>
      </trkpt>
      <trkpt lat="36.4073510" lon="-5.2321620">
        <ele>111.3</ele>
        <time>2019-08-28T07:57:20Z</time>
      </trkpt>
      <trkpt lat="36.4073860" lon="-5.2322360">
        <ele>111.3</ele>
        <time>2019-08-28T07:57:21Z</time>
      </trkpt>
      <trkpt lat="36.4074180" lon="-5.2323120">
        <ele>111.4</ele>
        <time>2019-08-28T07:57:22Z</time>
      </trkpt>
      <trkpt lat="36.4074470" lon="-5.2323910">
        <ele>111.4</ele>
        <time>2019-08-28T07:57:23Z</time>
      </trkpt>
      <trkpt lat="36.4074760" lon="-5.2324720">
        <ele>111.4</ele>
        <time>2019-08-28T07:57:24Z</time>
      </trkpt>
      <trkpt lat="36.4075040" lon="-5.2325520">
        <ele>111.4</ele>
        <time>2019-08-28T07:57:25Z</time>
      </trkpt>
      <trkpt lat="36.4075350" lon="-5.2326320">
        <ele>111.4</ele>
        <time>2019-08-28T07:57:26Z</time>
      </trkpt>
      <trkpt lat="36.4075690" lon="-5.2327100">
        <ele>111.4</ele>
        <time>2019-08-28T07:57:27Z</time>
      </trkpt>
      <trkpt lat="36.4076080" lon="-5.2327850">
        <ele>111.5</ele>
        <time>2019-08-28T07:57:28Z</time>
      </trkpt>
      <trkpt lat="36.4076510" lon="-5.2328580">
        <ele>111.5</ele>
        <time>2019-08-28T07:57:29Z</time>
      </trkpt>
      <trkpt lat="36.4076990" lon="-5.2329270">
        <ele>111.5</ele>
        <time>2019-08-28T07:57:30Z</time>
      </trkpt>
      <trkpt lat="36.4077500" lon="-5.2329920">
        <ele>111.5</ele>
        <time>2019-08-28T07:57:31Z</time>
      </trkpt>
      <trkpt lat="36.4078030" lon="-5.2330530">
        <ele>111.5</ele>
        <time>2019-08-28T07:57:32Z</time>
      </trkpt>
      <trkpt lat="36.4078570" lon="-5.2331100">
        <ele>111.6</ele>
        <time>2019-08-28T07:57:33Z</time>
      </trkpt>
      <trkpt lat="36.4079110" lon="-5.2331630">
        <ele>111.6</ele>
        <time>2019-08-28T07:57:34Z</time>
      </trkpt>
      <trkpt lat="36.4079650" lon="-5.2332130">
        <ele>111.7</ele>
        <time>2019-08-28T07:57:35Z</time>
      </trkpt>
      <trkpt lat="36.4080180" lon="-5.2332620">
        <ele>111.7</ele>
        <time>2019-08-28T07:57:36Z</time>
      </trkpt>
      <trkpt lat="36.4080680" lon="-5.2333130">
        <ele>111.7</ele>
        <time>2019-08-28T07:57:37Z</time>
      </trkpt>
      <trkpt lat="36.4081170" lon="-5.2333670">
        <ele>111.7</ele>
        <time>2019-08-28T07:57:38Z</time>
      </trkpt>
      <trkpt lat="36.4081650" lon="-5.2334240">
        <ele>111.8</ele>
        <time>2019-08-28T07:57:39Z</time>
      </trkpt>
      <trkpt lat="36.4082100" lon="-5.2334840">
        <ele>111.8</ele>
        <time>2019-08-28T07:57:40Z</time>
      </trkpt>
      <trkpt lat="36.4082540" lon="-5.2335460">
        <ele>111.8</ele>
        <time>2019-08-28T07:57:41Z</time>
      </trkpt>
      <trkpt lat="36.4082960" lon="-5.2336130">
        <ele>111.8</ele>
        <time>2019-08-28T07:57:42Z</time>
      </trkpt>
      <trkpt lat="36.4083340" lon="-5.2336820">
        <ele>111.9</ele>
        <time>2019-08-28T07:57:43Z</time>
      </trkpt>
      <trkpt lat="36.4083710" lon="-5.2337550">
        <ele>111.9</ele>
        <time>2019-08-28T07:57:44Z</time>
      </trkpt>
      <trkpt lat="36.4084050" lon="-5.2338290">
        <ele>112.0</ele>
        <time>2019-08-28T07:57:45Z</time>
      </trkpt>
      <trkpt lat="36.4084350" lon="-5.2339070">
        <ele>112.0</ele>
        <time>2019-08-28T07:57:46Z</time>
      </trkpt>
      <trkpt lat="36.4084620" lon="-5.2339860">
        <ele>112.0</ele>
        <time>2019-08-28T07:57:47Z</time>
      </trkpt>
      <trkpt lat="36.4084870" lon="-5.2340680">
        <ele>112.1</ele>
        <time>2019-08-28T07:57:48Z</time>
      </trkpt>
      <trkpt lat="36.4085100" lon="-5.2341510">
        <ele>112.2</ele>
        <time>2019-08-28T07:57:49Z</time>
      </trkpt>
      <trkpt lat="36.4085340" lon="-5.2342340">
        <ele>112.3</ele>
        <time>2019-08-28T07:57:50Z</time>
      </trkpt>
      <trkpt lat="36.4085570" lon="-5.2343190">
        <ele>112.4</ele>
        <time>2019-08-28T07:57:51Z</time>
      </trkpt>
      <trkpt lat="36.4085800" lon="-5.2344040">
        <ele>112.6</ele>
        <time>2019-08-28T07:57:52Z</time>
      </trkpt>
      <trkpt lat="36.4086030" lon="-5.2344900">
        <ele>112.8</ele>
        <time>2019-08-28T07:57:53Z</time>
      </trkpt>
      <trkpt lat="36.4086260" lon="-5.2345780">
        <ele>113.0</ele>
        <time>2019-08-28T07:57:54Z</time>
      </trkpt>
      <trkpt lat="36.4086520" lon="-5.2346650">
        <ele>113.3</ele>
        <time>2019-08-28T07:57:55Z</time>
      </trkpt>
      <trkpt lat="36.4086790" lon="-5.2347510">
        <ele>113.5</ele>
        <time>2019-08-28T07:57:56Z</time>
      </trkpt>
      <trkpt lat="36.4087090" lon="-5.2348360">
        <ele>113.8</ele>
        <time>2019-08-28T07:57:57Z</time>
      </trkpt>
      <trkpt lat="36.4087430" lon="-5.2349190">
        <ele>114.0</ele>
        <time>2019-08-28T07:57:58Z</time>
      </trkpt>
      <trkpt lat="36.4087830" lon="-5.2349980">
        <ele>114.1</ele>
        <time>2019-08-28T07:57:59Z</time>
      </trkpt>
      <trkpt lat="36.4088270" lon="-5.2350750">
        <ele>114.2</ele>
        <time>2019-08-28T07:58:00Z</time>
      </trkpt>
      <trkpt lat="36.4088750" lon="-5.2351460">
        <ele>114.3</ele>
        <time>2019-08-28T07:58:01Z</time>
      </trkpt>
      <trkpt lat="36.4089280" lon="-5.2352090">
        <ele>114.4</ele>
        <time>2019-08-28T07:58:02Z</time>
      </trkpt>
      <trkpt lat="36.4089850" lon="-5.2352640">
        <ele>114.4</ele>
        <time>2019-08-28T07:58:03Z</time>
      </trkpt>
      <trkpt lat="36.4090440" lon="-5.2353130">
        <ele>114.5</ele>
        <time>2019-08-28T07:58:04Z</time>
      </trkpt>
      <trkpt lat="36.4091040" lon="-5.2353580">
        <ele>114.5</ele>
        <time>2019-08-28T07:58:05Z</time>
      </trkpt>
      <trkpt lat="36.4091650" lon="-5.2353970">
        <ele>114.6</ele>
        <time>2019-08-28T07:58:06Z</time>
      </trkpt>
      <trkpt lat="36.4092260" lon="-5.2354310">
        <ele>114.7</ele>
        <time>2019-08-28T07:58:07Z</time>
      </trkpt>
      <trkpt lat="36.4092890" lon="-5.2354600">
        <ele>114.8</ele>
        <time>2019-08-28T07:58:08Z</time>
      </trkpt>
      <trkpt lat="36.4093540" lon="-5.2354840">
        <ele>114.9</ele>
        <time>2019-08-28T07:58:09Z</time>
      </trkpt>
      <trkpt lat="36.4094180" lon="-5.2355030">
        <ele>115.0</ele>
        <time>2019-08-28T07:58:10Z</time>
      </trkpt>
      <trkpt lat="36.4094810" lon="-5.2355170">
        <ele>115.2</ele>
        <time>2019-08-28T07:58:11Z</time>
      </trkpt>
      <trkpt lat="36.4095420" lon="-5.2355260">
        <ele>115.4</ele>
        <time>2019-08-28T07:58:12Z</time>
      </trkpt>
      <trkpt lat="36.4096010" lon="-5.2355320">
        <ele>115.6</ele>
        <time>2019-08-28T07:58:13Z</time>
      </trkpt>
      <trkpt lat="36.4096600" lon="-5.2355360">
        <ele>115.9</ele>
        <time>2019-08-28T07:58:14Z</time>
      </trkpt>
      <trkpt lat="36.4097190" lon="-5.2355390">
        <ele>116.1</ele>
        <time>2019-08-28T07:58:15Z</time>
      </trkpt>
      <trkpt lat="36.4097770" lon="-5.2355420">
        <ele>116.3</ele>
        <time>2019-08-28T07:58:16Z</time>
      </trkpt>
      <trkpt lat="36.4098350" lon="-5.2355450">
        <ele>116.5</ele>
        <time>2019-08-28T07:58:17Z</time>
      </trkpt>
      <trkpt lat="36.4098920" lon="-5.2355470">
        <ele>116.7</ele>
        <time>2019-08-28T07:58:18Z</time>
      </trkpt>
      <trkpt lat="36.4099470" lon="-5.2355510">
        <ele>116.8</ele>
        <time>2019-08-28T07:58:19Z</time>
      </trkpt>
      <trkpt lat="36.4100030" lon="-5.2355550">
        <ele>116.9</ele>
        <time>2019-08-28T07:58:20Z</time>
      </trkpt>
      <trkpt lat="36.4100590" lon="-5.2355590">
        <ele>117.0</ele>
        <time>2019-08-28T07:58:21Z</time>
      </trkpt>
      <trkpt lat="36.4101150" lon="-5.2355640">
        <ele>117.1</ele>
        <time>2019-08-28T07:58:22Z</time>
      </trkpt>
      <trkpt lat="36.4101700" lon="-5.2355690">
        <ele>117.1</ele>
        <time>2019-08-28T07:58:23Z</time>
      </trkpt>
      <trkpt lat="36.4102240" lon="-5.2355730">
        <ele>117.1</ele>
        <time>2019-08-28T07:58:24Z</time>
      </trkpt>
      <trkpt lat="36.4102790" lon="-5.2355770">
        <ele>117.2</ele>
        <time>2019-08-28T07:58:25Z</time>
      </trkpt>
      <trkpt lat="36.4103330" lon="-5.2355800">
        <ele>117.2</ele>
        <time>2019-08-28T07:58:26Z</time>
      </trkpt>
      <trkpt lat="36.4103870" lon="-5.2355840">
        <ele>117.2</ele>
        <time>2019-08-28T07:58:27Z</time>
      </trkpt>
      <trkpt lat="36.4104420" lon="-5.2355880">
        <ele>117.2</ele>
        <time>2019-08-28T07:58:28Z</time>
      </trkpt>
      <trkpt lat="36.4104970" lon="-5.2355920">
        <ele>117.2</ele>
        <time>2019-08-28T07:58:29Z</time>
      </trkpt>
      <trkpt lat="36.4105510" lon="-5.2355970">
        <ele>117.2</ele>
        <time>2019-08-28T07:58:30Z</time>
      </trkpt>
      <trkpt lat="36.4106040" lon="-5.2356020">
        <ele>117.1</ele>
        <time>2019-08-28T07:58:31Z</time>
      </trkpt>
      <trkpt lat="36.4106570" lon="-5.2356060">
        <ele>117.1</ele>
        <time>2019-08-28T07:58:32Z</time>
      </trkpt>
      <trkpt lat="36.4107110" lon="-5.2356090">
        <ele>117.0</ele>
        <time>2019-08-28T07:58:33Z</time>
      </trkpt>
      <trkpt lat="36.4107650" lon="-5.2356120">
        <ele>116.9</ele>
        <time>2019-08-28T07:58:34Z</time>
      </trkpt>
      <trkpt lat="36.4108180" lon="-5.2356160">
        <ele>116.8</ele>
        <time>2019-08-28T07:58:35Z</time>
      </trkpt>
      <trkpt lat="36.4108710" lon="-5.2356210">
        <ele>116.7</ele>
        <time>2019-08-28T07:58:36Z</time>
      </trkpt>
      <trkpt lat="36.4109260" lon="-5.2356270">
        <ele>116.5</ele>
        <time>2019-08-28T07:58:37Z</time>
      </trkpt>
      <trkpt lat="36.4109820" lon="-5.2356330">
        <ele>116.4</ele>
        <time>2019-08-28T07:58:38Z</time>
      </trkpt>
      <trkpt lat="36.4110400" lon="-5.2356390">
        <ele>116.2</ele>
        <time>2019-08-28T07:58:39Z</time>
      </trkpt>
      <trkpt lat="36.4110980" lon="-5.2356470">
        <ele>116.1</ele>
        <time>2019-08-28T07:58:40Z</time>
      </trkpt>
      <trkpt lat="36.4111570" lon="-5.2356570">
        <ele>116.0</ele>
        <time>2019-08-28T07:58:41Z</time>
      </trkpt>
      <trkpt lat="36.4112160" lon="-5.2356700">
        <ele>115.9</ele>
        <time>2019-08-28T07:58:42Z</time>
      </trkpt>
      <trkpt lat="36.4112750" lon="-5.2356870">
        <ele>115.8</ele>
        <time>2019-08-28T07:58:43Z</time>
      </trkpt>
      <trkpt lat="36.4113350" lon="-5.2357110">
        <ele>115.8</ele>
        <time>2019-08-28T07:58:44Z</time>
      </trkpt>
      <trkpt lat="36.4113950" lon="-5.2357430">
        <ele>115.7</ele>
        <time>2019-08-28T07:58:45Z</time>
      </trkpt>
      <trkpt lat="36.4114570" lon="-5.2357810">
        <ele>115.7</ele>
        <time>2019-08-28T07:58:46Z</time>
      </trkpt>
      <trkpt lat="36.4115170" lon="-5.2358220">
        <ele>115.7</ele>
        <time>2019-08-28T07:58:47Z</time>
      </trkpt>
      <trkpt lat="36.4115740" lon="-5.2358670">
        <ele>115.8</ele>
        <time>2019-08-28T07:58:48Z</time>
      </trkpt>
      <trkpt lat="36.4116290" lon="-5.2359170">
        <ele>115.8</ele>
        <time>2019-08-28T07:58:49Z</time>
      </trkpt>
      <trkpt lat="36.4116830" lon="-5.2359730">
        <ele>115.9</ele>
        <time>2019-08-28T07:58:50Z</time>
      </trkpt>
      <trkpt lat="36.4117340" lon="-5.2360340">
        <ele>116.0</ele>
        <time>2019-08-28T07:58:51Z</time>
      </trkpt>
      <trkpt lat="36.4117830" lon="-5.2361020">
        <ele>116.1</ele>
        <time>2019-08-28T07:58:52Z</time>
      </trkpt>
      <trkpt lat="36.4118310" lon="-5.2361740">
        <ele>116.2</ele>
        <time>2019-08-28T07:58:53Z</time>
      </trkpt>
      <trkpt lat="36.4118780" lon="-5.2362500">
        <ele>116.4</ele>
        <time>2019-08-28T07:58:54Z</time>
      </trkpt>
      <trkpt lat="36.4119260" lon="-5.2363270">
        <ele>116.6</ele>
        <time>2019-08-28T07:58:55Z</time>
      </trkpt>
      <trkpt lat="36.4119750" lon="-5.2364050">
        <ele>116.9</ele>
        <time>2019-08-28T07:58:56Z</time>
      </trkpt>
      <trkpt lat="36.4120240" lon="-5.2364840">
        <ele>117.1</ele>
        <time>2019-08-28T07:58:57Z</time>
      </trkpt>
      <trkpt lat="36.4120730" lon="-5.2365640">
        <ele>117.4</ele>
        <time>2019-08-28T07:58:58Z</time>
      </trkpt>
      <trkpt lat="36.4121220" lon="-5.2366440">
        <ele>117.6</ele>
        <time>2019-08-28T07:58:59Z</time>
      </trkpt>
      <trkpt lat="36.4121720" lon="-5.2367230">
        <ele>117.8</ele>
        <time>2019-08-28T07:59:00Z</time>
      </trkpt>
      <trkpt lat="36.4122220" lon="-5.2368010">
        <ele>118.0</ele>
        <time>2019-08-28T07:59:01Z</time>
      </trkpt>
      <trkpt lat="36.4122710" lon="-5.2368790">
        <ele>118.1</ele>
        <time>2019-08-28T07:59:02Z</time>
      </trkpt>
      <trkpt lat="36.4123180" lon="-5.2369560">
        <ele>118.3</ele>
        <time>2019-08-28T07:59:03Z</time>
      </trkpt>
      <trkpt lat="36.4123650" lon="-5.2370320">
        <ele>118.5</ele>
        <time>2019-08-28T07:59:04Z</time>
      </trkpt>
      <trkpt lat="36.4124110" lon="-5.2371080">
        <ele>118.7</ele>
        <time>2019-08-28T07:59:05Z</time>
      </trkpt>
      <trkpt lat="36.4124570" lon="-5.2371830">
        <ele>118.9</ele>
        <time>2019-08-28T07:59:06Z</time>
      </trkpt>
      <trkpt lat="36.4125010" lon="-5.2372570">
        <ele>119.1</ele>
        <time>2019-08-28T07:59:07Z</time>
      </trkpt>
      <trkpt lat="36.4125440" lon="-5.2373310">
        <ele>119.4</ele>
        <time>2019-08-28T07:59:08Z</time>
      </trkpt>
      <trkpt lat="36.4125850" lon="-5.2374040">
        <ele>119.6</ele>
        <time>2019-08-28T07:59:09Z</time>
      </trkpt>
      <trkpt lat="36.4126250" lon="-5.2374760">
        <ele>119.9</ele>
        <time>2019-08-28T07:59:10Z</time>
      </trkpt>
      <trkpt lat="36.4126630" lon="-5.2375470">
        <ele>120.1</ele>
        <time>2019-08-28T07:59:11Z</time>
      </trkpt>
      <trkpt lat="36.4127000" lon="-5.2376170">
        <ele>120.3</ele>
        <time>2019-08-28T07:59:12Z</time>
      </trkpt>
      <trkpt lat="36.4127350" lon="-5.2376860">
        <ele>120.5</ele>
        <time>2019-08-28T07:59:13Z</time>
      </trkpt>
      <trkpt lat="36.4127700" lon="-5.2377540">
        <ele>120.7</ele>
        <time>2019-08-28T07:59:14Z</time>
      </trkpt>
      <trkpt lat="36.4128040" lon="-5.2378210">
        <ele>120.8</ele>
        <time>2019-08-28T07:59:15Z</time>
      </trkpt>
      <trkpt lat="36.4128370" lon="-5.2378880">
        <ele>120.9</ele>
        <time>2019-08-28T07:59:16Z</time>
      </trkpt>
      <trkpt lat="36.4128700" lon="-5.2379550">
        <ele>121.0</ele>
        <time>2019-08-28T07:59:17Z</time>
      </trkpt>
      <trkpt lat="36.4129020" lon="-5.2380210">
        <ele>121.1</ele>
        <time>2019-08-28T07:59:18Z</time>
      </trkpt>
      <trkpt lat="36.4129330" lon="-5.2380860">
        <ele>121.1</ele>
        <time>2019-08-28T07:59:19Z</time>
      </trkpt>
      <trkpt lat="36.4129650" lon="-5.2381510">
        <ele>121.2</ele>
        <time>2019-08-28T07:59:20Z</time>
      </trkpt>
      <trkpt lat="36.4129980" lon="-5.2382160">
        <ele>121.2</ele>
        <time>2019-08-28T07:59:21Z</time>
      </trkpt>
      <trkpt lat="36.4130300" lon="-5.2382810">
        <ele>121.3</ele>
        <time>2019-08-28T07:59:22Z</time>
      </trkpt>
      <trkpt lat="36.4130610" lon="-5.2383460">
        <ele>121.3</ele>
        <time>2019-08-28T07:59:23Z</time>
      </trkpt>
      <trkpt lat="36.4130920" lon="-5.2384110">
        <ele>121.4</ele>
        <time>2019-08-28T07:59:24Z</time>
      </trkpt>
      <trkpt lat="36.4131210" lon="-5.2384770">
        <ele>121.4</ele>
        <time>2019-08-28T07:59:25Z</time>
      </trkpt>
      <trkpt lat="36.4131510" lon="-5.2385430">
        <ele>121.4</ele>
        <time>2019-08-28T07:59:26Z</time>
      </trkpt>
      <trkpt lat="36.4131800" lon="-5.2386100">
        <ele>121.5</ele>
        <time>2019-08-28T07:59:27Z</time>
      </trkpt>
      <trkpt lat="36.4132100" lon="-5.2386750">
        <ele>121.6</ele>
        <time>2019-08-28T07:59:28Z</time>
      </trkpt>
      <trkpt lat="36.4132400" lon="-5.2387400">
        <ele>121.7</ele>
        <time>2019-08-28T07:59:29Z</time>
      </trkpt>
      <trkpt lat="36.4132710" lon="-5.2388040">
        <ele>121.8</ele>
        <time>2019-08-28T07:59:30Z</time>
      </trkpt>
      <trkpt lat="36.4133020" lon="-5.2388670">
        <ele>121.9</ele>
        <time>2019-08-28T07:59:31Z</time>
      </trkpt>
      <trkpt lat="36.4133320" lon="-5.2389310">
        <ele>122.0</ele>
        <time>2019-08-28T07:59:32Z</time>
      </trkpt>
      <trkpt lat="36.4133620" lon="-5.2389950">
        <ele>122.2</ele>
        <time>2019-08-28T07:59:33Z</time>
      </trkpt>
      <trkpt lat="36.4133910" lon="-5.2390580">
        <ele>122.4</ele>
        <time>2019-08-28T07:59:34Z</time>
      </trkpt>
      <trkpt lat="36.4134210" lon="-5.2391200">
        <ele>122.6</ele>
        <time>2019-08-28T07:59:35Z</time>
      </trkpt>
      <trkpt lat="36.4134510" lon="-5.2391830">
        <ele>122.8</ele>
        <time>2019-08-28T07:59:36Z</time>
      </trkpt>
      <trkpt lat="36.4134810" lon="-5.2392440">
        <ele>123.1</ele>
        <time>2019-08-28T07:59:37Z</time>
      </trkpt>
      <trkpt lat="36.4135120" lon="-5.2393060">
        <ele>123.3</ele>
        <time>2019-08-28T07:59:38Z</time>
      </trkpt>
      <trkpt lat="36.4135450" lon="-5.2393670">
        <ele>123.6</ele>
        <time>2019-08-28T07:59:39Z</time>
      </trkpt>
      <trkpt lat="36.4135790" lon="-5.2394270">
        <ele>123.9</ele>
        <time>2019-08-28T07:59:40Z</time>
      </trkpt>
      <trkpt lat="36.4136160" lon="-5.2394840">
        <ele>124.2</ele>
        <time>2019-08-28T07:59:41Z</time>
      </trkpt>
      <trkpt lat="36.4136550" lon="-5.2395370">
        <ele>124.5</ele>
        <time>2019-08-28T07:59:42Z</time>
      </trkpt>
      <trkpt lat="36.4136980" lon="-5.2395850">
        <ele>124.8</ele>
        <time>2019-08-28T07:59:43Z</time>
      </trkpt>
      <trkpt lat="36.4137440" lon="-5.2396270">
        <ele>125.1</ele>
        <time>2019-08-28T07:59:44Z</time>
      </trkpt>
      <trkpt lat="36.4137930" lon="-5.2396630">
        <ele>125.4</ele>
        <time>2019-08-28T07:59:45Z</time>
      </trkpt>
      <trkpt lat="36.4138450" lon="-5.2396910">
        <ele>125.7</ele>
        <time>2019-08-28T07:59:46Z</time>
      </trkpt>
      <trkpt lat="36.4138970" lon="-5.2397130">
        <ele>126.0</ele>
        <time>2019-08-28T07:59:47Z</time>
      </trkpt>
      <trkpt lat="36.4139510" lon="-5.2397290">
        <ele>126.3</ele>
        <time>2019-08-28T07:59:48Z</time>
      </trkpt>
      <trkpt lat="36.4140050" lon="-5.2397380">
        <ele>126.6</ele>
        <time>2019-08-28T07:59:49Z</time>
      </trkpt>
      <trkpt lat="36.4140590" lon="-5.2397400">
        <ele>126.9</ele>
        <time>2019-08-28T07:59:50Z</time>
      </trkpt>
      <trkpt lat="36.4141100" lon="-5.2397380">
        <ele>127.2</ele>
        <time>2019-08-28T07:59:51Z</time>
      </trkpt>
      <trkpt lat="36.4141610" lon="-5.2397330">
        <ele>127.5</ele>
        <time>2019-08-28T07:59:52Z</time>
      </trkpt>
      <trkpt lat="36.4142090" lon="-5.2397250">
        <ele>127.7</ele>
        <time>2019-08-28T07:59:53Z</time>
      </trkpt>
      <trkpt lat="36.4142550" lon="-5.2397150">
        <ele>128.0</ele>
        <time>2019-08-28T07:59:54Z</time>
      </trkpt>
      <trkpt lat="36.4142990" lon="-5.2397000">
        <ele>128.2</ele>
        <time>2019-08-28T07:59:55Z</time>
      </trkpt>
      <trkpt lat="36.4143420" lon="-5.2396830">
        <ele>128.5</ele>
        <time>2019-08-28T07:59:56Z</time>
      </trkpt>
      <trkpt lat="36.4143830" lon="-5.2396620">
        <ele>128.7</ele>
        <time>2019-08-28T07:59:57Z</time>
      </trkpt>
      <trkpt lat="36.4144220" lon="-5.2396390">
        <ele>129.0</ele>
        <time>2019-08-28T07:59:58Z</time>
      </trkpt>
      <trkpt lat="36.4144560" lon="-5.2396120">
        <ele>129.2</ele>
        <time>2019-08-28T07:59:59Z</time>
      </trkpt>
      <trkpt lat="36.4144860" lon="-5.2395840">
        <ele>129.4</ele>
        <time>2019-08-28T08:00:00Z</time>
      </trkpt>
      <trkpt lat="36.4145150" lon="-5.2395550">
        <ele>129.6</ele>
        <time>2019-08-28T08:00:01Z</time>
      </trkpt>
      <trkpt lat="36.4145440" lon="-5.2395240">
        <ele>129.9</ele>
        <time>2019-08-28T08:00:02Z</time>
      </trkpt>
      <trkpt lat="36.4145710" lon="-5.2394910">
        <ele>130.1</ele>
        <time>2019-08-28T08:00:03Z</time>
      </trkpt>
      <trkpt lat="36.4145980" lon="-5.2394570">
        <ele>130.4</ele>
        <time>2019-08-28T08:00:04Z</time>
      </trkpt>
      <trkpt lat="36.4146230" lon="-5.2394230">
        <ele>130.6</ele>
        <time>2019-08-28T08:00:05Z</time>
      </trkpt>
      <trkpt lat="36.4146480" lon="-5.2393880">
        <ele>130.8</ele>
        <time>2019-08-28T08:00:06Z</time>
      </trkpt>
      <trkpt lat="36.4146720" lon="-5.2393530">
        <ele>131.1</ele>
        <time>2019-08-28T08:00:07Z</time>
      </trkpt>
      <trkpt lat="36.4146950" lon="-5.2393180">
        <ele>131.3</ele>
        <time>2019-08-28T08:00:08Z</time>
      </trkpt>
      <trkpt lat="36.4147180" lon="-5.2392820">
        <ele>131.6</ele>
        <time>2019-08-28T08:00:09Z</time>
      </trkpt>
      <trkpt lat="36.4147400" lon="-5.2392460">
        <ele>131.8</ele>
        <time>2019-08-28T08:00:10Z</time>
      </trkpt>
      <trkpt lat="36.4147610" lon="-5.2392090">
        <ele>132.1</ele>
        <time>2019-08-28T08:00:11Z</time>
      </trkpt>
      <trkpt lat="36.4147820" lon="-5.2391720">
        <ele>132.3</ele>
        <time>2019-08-28T08:00:12Z</time>
      </trkpt>
      <trkpt lat="36.4148020" lon="-5.2391350">
        <ele>132.5</ele>
        <time>2019-08-28T08:00:13Z</time>
      </trkpt>
      <trkpt lat="36.4148230" lon="-5.2390970">
        <ele>132.8</ele>
        <time>2019-08-28T08:00:14Z</time>
      </trkpt>
      <trkpt lat="36.4148440" lon="-5.2390580">
        <ele>133.0</ele>
        <time>2019-08-28T08:00:15Z</time>
      </trkpt>
      <trkpt lat="36.4148650" lon="-5.2390200">
        <ele>133.2</ele>
        <time>2019-08-28T08:00:16Z</time>
      </trkpt>
      <trkpt lat="36.4148850" lon="-5.2389820">
        <ele>133.4</ele>
        <time>2019-08-28T08:00:17Z</time>
      </trkpt>
      <trkpt lat="36.4149040" lon="-5.2389450">
        <ele>133.6</ele>
        <time>2019-08-28T08:00:18Z</time>
      </trkpt>
      <trkpt lat="36.4149230" lon="-5.2389080">
        <ele>133.8</ele>
        <time>2019-08-28T08:00:19Z</time>
      </trkpt>
      <trkpt lat="36.4149420" lon="-5.2388710">
        <ele>134.0</ele>
        <time>2019-08-28T08:00:20Z</time>
      </trkpt>
      <trkpt lat="36.4149590" lon="-5.2388350">
        <ele>134.1</ele>
        <time>2019-08-28T08:00:21Z</time>
      </trkpt>
      <trkpt lat="36.4149770" lon="-5.2387990">
        <ele>134.2</ele>
        <time>2019-08-28T08:00:22Z</time>
      </trkpt>
      <trkpt lat="36.4149960" lon="-5.2387630">
        <ele>134.4</ele>
        <time>2019-08-28T08:00:23Z</time>
      </trkpt>
      <trkpt lat="36.4150160" lon="-5.2387260">
        <ele>134.5</ele>
        <time>2019-08-28T08:00:24Z</time>
      </trkpt>
      <trkpt lat="36.4150360" lon="-5.2386890">
        <ele>134.6</ele>
        <time>2019-08-28T08:00:25Z</time>
      </trkpt>
      <trkpt lat="36.4150540" lon="-5.2386500">
        <ele>134.7</ele>
        <time>2019-08-28T08:00:26Z</time>
      </trkpt>
      <trkpt lat="36.4150730" lon="-5.2386130">
        <ele>134.8</ele>
        <time>2019-08-28T08:00:27Z</time>
      </trkpt>
      <trkpt lat="36.4150920" lon="-5.2385760">
        <ele>134.9</ele>
        <time>2019-08-28T08:00:28Z</time>
      </trkpt>
      <trkpt lat="36.4151120" lon="-5.2385390">
        <ele>135.0</ele>
        <time>2019-08-28T08:00:29Z</time>
      </trkpt>
      <trkpt lat="36.4151330" lon="-5.2385030">
        <ele>135.1</ele>
        <time>2019-08-28T08:00:30Z</time>
      </trkpt>
      <trkpt lat="36.4151540" lon="-5.2384670">
        <ele>135.2</ele>
        <time>2019-08-28T08:00:31Z</time>
      </trkpt>
      <trkpt lat="36.4151760" lon="-5.2384310">
        <ele>135.3</ele>
        <time>2019-08-28T08:00:32Z</time>
      </trkpt>
      <trkpt lat="36.4151990" lon="-5.2383960">
        <ele>135.4</ele>
        <time>2019-08-28T08:00:33Z</time>
      </trkpt>
      <trkpt lat="36.4152220" lon="-5.2383600">
        <ele>135.5</ele>
        <time>2019-08-28T08:00:34Z</time>
      </trkpt>
      <trkpt lat="36.4152460" lon="-5.2383250">
        <ele>135.6</ele>
        <time>2019-08-28T08:00:35Z</time>
      </trkpt>
      <trkpt lat="36.4152720" lon="-5.2382900">
        <ele>135.7</ele>
        <time>2019-08-28T08:00:36Z</time>
      </trkpt>
      <trkpt lat="36.4152990" lon="-5.2382570">
        <ele>135.9</ele>
        <time>2019-08-28T08:00:37Z</time>
      </trkpt>
      <trkpt lat="36.4153270" lon="-5.2382240">
        <ele>136.0</ele>
        <time>2019-08-28T08:00:38Z</time>
      </trkpt>
      <trkpt lat="36.4153560" lon="-5.2381940">
        <ele>136.1</ele>
        <time>2019-08-28T08:00:39Z</time>
      </trkpt>
      <trkpt lat="36.4153860" lon="-5.2381650">
        <ele>136.2</ele>
        <time>2019-08-28T08:00:40Z</time>
      </trkpt>
      <trkpt lat="36.4154170" lon="-5.2381380">
        <ele>136.4</ele>
        <time>2019-08-28T08:00:41Z</time>
      </trkpt>
      <trkpt lat="36.4154490" lon="-5.2381120">
        <ele>136.5</ele>
        <time>2019-08-28T08:00:42Z</time>
      </trkpt>
      <trkpt lat="36.4154820" lon="-5.2380900">
        <ele>136.6</ele>
        <time>2019-08-28T08:00:43Z</time>
      </trkpt>
      <trkpt lat="36.4155160" lon="-5.2380700">
        <ele>136.7</ele>
        <time>2019-08-28T08:00:44Z</time>
      </trkpt>
      <trkpt lat="36.4155500" lon="-5.2380530">
        <ele>136.9</ele>
        <time>2019-08-28T08:00:45Z</time>
      </trkpt>
      <trkpt lat="36.4155840" lon="-5.2380370">
        <ele>137.0</ele>
        <time>2019-08-28T08:00:46Z</time>
      </trkpt>
      <trkpt lat="36.4156200" lon="-5.2380240">
        <ele>137.1</ele>
        <time>2019-08-28T08:00:47Z</time>
      </trkpt>
      <trkpt lat="36.4156570" lon="-5.2380120">
        <ele>137.2</ele>
        <time>2019-08-28T08:00:48Z</time>
      </trkpt>
      <trkpt lat="36.4156960" lon="-5.2380020">
        <ele>137.4</ele>
        <time>2019-08-28T08:00:49Z</time>
      </trkpt>
      <trkpt lat="36.4157360" lon="-5.2379950">
        <ele>137.5</ele>
        <time>2019-08-28T08:00:50Z</time>
      </trkpt>
      <trkpt lat="36.4157760" lon="-5.2379920">
        <ele>137.7</ele>
        <time>2019-08-28T08:00:51Z</time>
      </trkpt>
      <trkpt lat="36.4158190" lon="-5.2379910">
        <ele>137.8</ele>
        <time>2019-08-28T08:00:52Z</time>
      </trkpt>
      <trkpt lat="36.4158630" lon="-5.2379930">
        <ele>138.0</ele>
        <time>2019-08-28T08:00:53Z</time>
      </trkpt>
      <trkpt lat="36.4159090" lon="-5.2379980">
        <ele>138.2</ele>
        <time>2019-08-28T08:00:54Z</time>
      </trkpt>
      <trkpt lat="36.4159520" lon="-5.2380070">
        <ele>138.4</ele>
        <time>2019-08-28T08:00:55Z</time>
      </trkpt>
      <trkpt lat="36.4159940" lon="-5.2380200">
        <ele>138.6</ele>
        <time>2019-08-28T08:00:56Z</time>
      </trkpt>
      <trkpt lat="36.4160350" lon="-5.2380360">
        <ele>138.9</ele>
        <time>2019-08-28T08:00:57Z</time>
      </trkpt>
      <trkpt lat="36.4160760" lon="-5.2380550">
        <ele>139.1</ele>
        <time>2019-08-28T08:00:58Z</time>
      </trkpt>
      <trkpt lat="36.4161160" lon="-5.2380780">
        <ele>139.4</ele>
        <time>2019-08-28T08:00:59Z</time>
      </trkpt>
      <trkpt lat="36.4161560" lon="-5.2381040">
        <ele>139.7</ele>
        <time>2019-08-28T08:01:00Z</time>
      </trkpt>
      <trkpt lat="36.4161950" lon="-5.2381330">
        <ele>140.0</ele>
        <time>2019-08-28T08:01:01Z</time>
      </trkpt>
      <trkpt lat="36.4162310" lon="-5.2381640">
        <ele>140.3</ele>
        <time>2019-08-28T08:01:02Z</time>
      </trkpt>
      <trkpt lat="36.4162670" lon="-5.2381960">
        <ele>140.5</ele>
        <time>2019-08-28T08:01:03Z</time>
      </trkpt>
      <trkpt lat="36.4163020" lon="-5.2382290">
        <ele>140.8</ele>
        <time>2019-08-28T08:01:04Z</time>
      </trkpt>
      <trkpt lat="36.4163380" lon="-5.2382620">
        <ele>141.1</ele>
        <time>2019-08-28T08:01:05Z</time>
      </trkpt>
      <trkpt lat="36.4163730" lon="-5.2382960">
        <ele>141.4</ele>
        <time>2019-08-28T08:01:06Z</time>
      </trkpt>
      <trkpt lat="36.4164070" lon="-5.2383310">
        <ele>141.7</ele>
        <time>2019-08-28T08:01:07Z</time>
      </trkpt>
      <trkpt lat="36.4164410" lon="-5.2383670">
        <ele>142.0</ele>
        <time>2019-08-28T08:01:08Z</time>
      </trkpt>
      <trkpt lat="36.4164740" lon="-5.2384020">
        <ele>142.3</ele>
        <time>2019-08-28T08:01:09Z</time>
      </trkpt>
      <trkpt lat="36.4165090" lon="-5.2384360">
        <ele>142.6</ele>
        <time>2019-08-28T08:01:10Z</time>
      </trkpt>
      <trkpt lat="36.4165440" lon="-5.2384700">
        <ele>142.9</ele>
        <time>2019-08-28T08:01:11Z</time>
      </trkpt>
      <trkpt lat="36.4165780" lon="-5.2385040">
        <ele>143.2</ele>
        <time>2019-08-28T08:01:12Z</time>
      </trkpt>
      <trkpt lat="36.4166110" lon="-5.2385370">
        <ele>143.5</ele>
        <time>2019-08-28T08:01:13Z</time>
      </trkpt>
      <trkpt lat="36.4166440" lon="-5.2385700">
        <ele>143.8</ele>
        <time>2019-08-28T08:01:14Z</time>
      </trkpt>
      <trkpt lat="36.4166760" lon="-5.2386030">
        <ele>144.1</ele>
        <time>2019-08-28T08:01:15Z</time>
      </trkpt>
      <trkpt lat="36.4167070" lon="-5.2386340">
        <ele>144.3</ele>
        <time>2019-08-28T08:01:16Z</time>
      </trkpt>
      <trkpt lat="36.4167370" lon="-5.2386660">
        <ele>144.6</ele>
        <time>2019-08-28T08:01:17Z</time>
      </trkpt>
      <trkpt lat="36.4167670" lon="-5.2386970">
        <ele>144.8</ele>
        <time>2019-08-28T08:01:18Z</time>
      </trkpt>
      <trkpt lat="36.4167960" lon="-5.2387270">
        <ele>145.1</ele>
        <time>2019-08-28T08:01:19Z</time>
      </trkpt>
      <trkpt lat="36.4168250" lon="-5.2387550">
        <ele>145.3</ele>
        <time>2019-08-28T08:01:20Z</time>
      </trkpt>
      <trkpt lat="36.4168530" lon="-5.2387840">
        <ele>145.6</ele>
        <time>2019-08-28T08:01:21Z</time>
      </trkpt>
      <trkpt lat="36.4168810" lon="-5.2388120">
        <ele>145.8</ele>
        <time>2019-08-28T08:01:22Z</time>
      </trkpt>
      <trkpt lat="36.4169090" lon="-5.2388400">
        <ele>146.1</ele>
        <time>2019-08-28T08:01:23Z</time>
      </trkpt>
      <trkpt lat="36.4169360" lon="-5.2388680">
        <ele>146.3</ele>
        <time>2019-08-28T08:01:24Z</time>
      </trkpt>
      <trkpt lat="36.4169640" lon="-5.2388950">
        <ele>146.5</ele>
        <time>2019-08-28T08:01:25Z</time>
      </trkpt>
      <trkpt lat="36.4169920" lon="-5.2389230">
        <ele>146.8</ele>
        <time>2019-08-28T08:01:26Z</time>
      </trkpt>
      <trkpt lat="36.4170200" lon="-5.2389500">
        <ele>147.0</ele>
        <time>2019-08-28T08:01:27Z</time>
      </trkpt>
      <trkpt lat="36.4170470" lon="-5.2389770">
        <ele>147.2</ele>
        <time>2019-08-28T08:01:28Z</time>
      </trkpt>
      <trkpt lat="36.4170740" lon="-5.2390040">
        <ele>147.5</ele>
        <time>2019-08-28T08:01:29Z</time>
      </trkpt>
      <trkpt lat="36.4171000" lon="-5.2390320">
        <ele>147.7</ele>
        <time>2019-08-28T08:01:30Z</time>
      </trkpt>
      <trkpt lat="36.4171260" lon="-5.2390600">
        <ele>147.9</ele>
        <time>2019-08-28T08:01:31Z</time>
      </trkpt>
      <trkpt lat="36.4171520" lon="-5.2390870">
        <ele>148.2</ele>
        <time>2019-08-28T08:01:32Z</time>
      </trkpt>
      <trkpt lat="36.4171790" lon="-5.2391140">
        <ele>148.4</ele>
        <time>2019-08-28T08:01:33Z</time>
      </trkpt>
      <trkpt lat="36.4172060" lon="-5.2391410">
        <ele>148.7</ele>
        <time>2019-08-28T08:01:34Z</time>
      </trkpt>
      <trkpt lat="36.4172330" lon="-5.2391670">
        <ele>148.9</ele>
        <time>2019-08-28T08:01:35Z</time>
      </trkpt>
      <trkpt lat="36.4172610" lon="-5.2391930">
        <ele>149.2</ele>
        <time>2019-08-28T08:01:36Z</time>
      </trkpt>
      <trkpt lat="36.4172870" lon="-5.2392190">
        <ele>149.4</ele>
        <time>2019-08-28T08:01:37Z</time>
      </trkpt>
      <trkpt lat="36.4173130" lon="-5.2392470">
        <ele>149.6</ele>
        <time>2019-08-28T08:01:38Z</time>
      </trkpt>
      <trkpt lat="36.4173380" lon="-5.2392740">
        <ele>149.9</ele>
        <time>2019-08-28T08:01:39Z</time>
      </trkpt>
      <trkpt lat="36.4173640" lon="-5.2393000">
        <ele>150.1</ele>
        <time>2019-08-28T08:01:40Z</time>
      </trkpt>
      <trkpt lat="36.4173890" lon="-5.2393270">
        <ele>150.3</ele>
        <time>2019-08-28T08:01:41Z</time>
      </trkpt>
      <trkpt lat="36.4174130" lon="-5.2393540">
        <ele>150.6</ele>
        <time>2019-08-28T08:01:42Z</time>
      </trkpt>
      <trkpt lat="36.4174380" lon="-5.2393800">
        <ele>150.9</ele>
        <time>2019-08-28T08:01:43Z</time>
      </trkpt>
      <trkpt lat="36.4174620" lon="-5.2394060">
        <ele>151.2</ele>
        <time>2019-08-28T08:01:44Z</time>
      </trkpt>
      <trkpt lat="36.4174870" lon="-5.2394310">
        <ele>151.4</ele>
        <time>2019-08-28T08:01:45Z</time>
      </trkpt>
      <trkpt lat="36.4175110" lon="-5.2394570">
        <ele>151.7</ele>
        <time>2019-08-28T08:01:46Z</time>
      </trkpt>
      <trkpt lat="36.4175350" lon="-5.2394840">
        <ele>151.9</ele>
        <time>2019-08-28T08:01:47Z</time>
      </trkpt>
      <trkpt lat="36.4175600" lon="-5.2395100">
        <ele>152.2</ele>
        <time>2019-08-28T08:01:48Z</time>
      </trkpt>
      <trkpt lat="36.4175850" lon="-5.2395350">
        <ele>152.4</ele>
        <time>2019-08-28T08:01:49Z</time>
      </trkpt>
      <trkpt lat="36.4176110" lon="-5.2395610">
        <ele>152.7</ele>
        <time>2019-08-28T08:01:50Z</time>
      </trkpt>
      <trkpt lat="36.4176360" lon="-5.2395870">
        <ele>153.0</ele>
        <time>2019-08-28T08:01:51Z</time>
      </trkpt>
      <trkpt lat="36.4176610" lon="-5.2396130">
        <ele>153.2</ele>
        <time>2019-08-28T08:01:52Z</time>
      </trkpt>
      <trkpt lat="36.4176860" lon="-5.2396400">
        <ele>153.5</ele>
        <time>2019-08-28T08:01:53Z</time>
      </trkpt>
      <trkpt lat="36.4177120" lon="-5.2396670">
        <ele>153.8</ele>
        <time>2019-08-28T08:01:54Z</time>
      </trkpt>
      <trkpt lat="36.4177370" lon="-5.2396940">
        <ele>154.1</ele>
        <time>2019-08-28T08:01:55Z</time>
      </trkpt>
      <trkpt lat="36.4177610" lon="-5.2397200">
        <ele>154.5</ele>
        <time>2019-08-28T08:01:56Z</time>
      </trkpt>
      <trkpt lat="36.4177860" lon="-5.2397460">
        <ele>154.8</ele>
        <time>2019-08-28T08:01:57Z</time>
      </trkpt>
      <trkpt lat="36.4178100" lon="-5.2397720">
        <ele>155.2</ele>
        <time>2019-08-28T08:01:58Z</time>
      </trkpt>
      <trkpt lat="36.4178340" lon="-5.2397980">
        <ele>155.4</ele>
        <time>2019-08-28T08:01:59Z</time>
      </trkpt>
      <trkpt lat="36.4178580" lon="-5.2398230">
        <ele>155.7</ele>
        <time>2019-08-28T08:02:00Z</time>
      </trkpt>
      <trkpt lat="36.4178830" lon="-5.2398470">
        <ele>155.9</ele>
        <time>2019-08-28T08:02:01Z</time>
      </trkpt>
      <trkpt lat="36.4179070" lon="-5.2398720">
        <ele>156.2</ele>
        <time>2019-08-28T08:02:02Z</time>
      </trkpt>
      <trkpt lat="36.4179310" lon="-5.2398970">
        <ele>156.4</ele>
        <time>2019-08-28T08:02:03Z</time>
      </trkpt>
      <trkpt lat="36.4179560" lon="-5.2399230">
        <ele>156.7</ele>
        <time>2019-08-28T08:02:04Z</time>
      </trkpt>
      <trkpt lat="36.4179810" lon="-5.2399490">
        <ele>157.0</ele>
        <time>2019-08-28T08:02:05Z</time>
      </trkpt>
      <trkpt lat="36.4180050" lon="-5.2399750">
        <ele>157.3</ele>
        <time>2019-08-28T08:02:06Z</time>
      </trkpt>
      <trkpt lat="36.4180290" lon="-5.2400010">
        <ele>157.5</ele>
        <time>2019-08-28T08:02:07Z</time>
      </trkpt>
      <trkpt lat="36.4180540" lon="-5.2400280">
        <ele>157.8</ele>
        <time>2019-08-28T08:02:08Z</time>
      </trkpt>
      <trkpt lat="36.4180790" lon="-5.2400530">
        <ele>158.0</ele>
        <time>2019-08-28T08:02:09Z</time>
      </trkpt>
      <trkpt lat="36.4181040" lon="-5.2400790">
        <ele>158.3</ele>
        <time>2019-08-28T08:02:10Z</time>
      </trkpt>
      <trkpt lat="36.4181290" lon="-5.2401050">
        <ele>158.5</ele>
        <time>2019-08-28T08:02:11Z</time>
      </trkpt>
      <trkpt lat="36.4181540" lon="-5.2401300">
        <ele>158.7</ele>
        <time>2019-08-28T08:02:12Z</time>
      </trkpt>
      <trkpt lat="36.4181790" lon="-5.2401550">
        <ele>159.0</ele>
        <time>2019-08-28T08:02:13Z</time>
      </trkpt>
      <trkpt lat="36.4182030" lon="-5.2401810">
        <ele>159.2</ele>
        <time>2019-08-28T08:02:14Z</time>
      </trkpt>
      <trkpt lat="36.4182270" lon="-5.2402070">
        <ele>159.5</ele>
        <time>2019-08-28T08:02:15Z</time>
      </trkpt>
      <trkpt lat="36.4182510" lon="-5.2402320">
        <ele>159.7</ele>
        <time>2019-08-28T08:02:16Z</time>
      </trkpt>
      <trkpt lat="36.4182750" lon="-5.2402570">
        <ele>159.9</ele>
        <time>2019-08-28T08:02:17Z</time>
      </trkpt>
      <trkpt lat="36.4182990" lon="-5.2402830">
        <ele>160.2</ele>
        <time>2019-08-28T08:02:18Z</time>
      </trkpt>
      <trkpt lat="36.4183220" lon="-5.2403090">
        <ele>160.4</ele>
        <time>2019-08-28T08:02:19Z</time>
      </trkpt>
      <trkpt lat="36.4183460" lon="-5.2403350">
        <ele>160.7</ele>
        <time>2019-08-28T08:02:20Z</time>
      </trkpt>
      <trkpt lat="36.4183690" lon="-5.2403600">
        <ele>160.9</ele>
        <time>2019-08-28T08:02:21Z</time>
      </trkpt>
      <trkpt lat="36.4183930" lon="-5.2403840">
        <ele>161.1</ele>
        <time>2019-08-28T08:02:22Z</time>
      </trkpt>
      <trkpt lat="36.4184150" lon="-5.2404080">
        <ele>161.3</ele>
        <time>2019-08-28T08:02:23Z</time>
      </trkpt>
      <trkpt lat="36.4184370" lon="-5.2404330">
        <ele>161.6</ele>
        <time>2019-08-28T08:02:24Z</time>
      </trkpt>
      <trkpt lat="36.4184590" lon="-5.2404590">
        <ele>161.8</ele>
        <time>2019-08-28T08:02:25Z</time>
      </trkpt>
      <trkpt lat="36.4184810" lon="-5.2404860">
        <ele>162.0</ele>
        <time>2019-08-28T08:02:26Z</time>
      </trkpt>
      <trkpt lat="36.4185040" lon="-5.2405110">
        <ele>162.3</ele>
        <time>2019-08-28T08:02:27Z</time>
      </trkpt>
      <trkpt lat="36.4185270" lon="-5.2405370">
        <ele>162.5</ele>
        <time>2019-08-28T08:02:28Z</time>
      </trkpt>
      <trkpt lat="36.4185490" lon="-5.2405620">
        <ele>162.7</ele>
        <time>2019-08-28T08:02:29Z</time>
      </trkpt>
      <trkpt lat="36.4185720" lon="-5.2405880">
        <ele>163.0</ele>
        <time>2019-08-28T08:02:30Z</time>
      </trkpt>
      <trkpt lat="36.4185950" lon="-5.2406120">
        <ele>163.2</ele>
        <time>2019-08-28T08:02:31Z</time>
      </trkpt>
      <trkpt lat="36.4186190" lon="-5.2406360">
        <ele>163.4</ele>
        <time>2019-08-28T08:02:32Z</time>
      </trkpt>
      <trkpt lat="36.4186430" lon="-5.2406590">
        <ele>163.7</ele>
        <time>2019-08-28T08:02:33Z</time>
      </trkpt>
      <trkpt lat="36.4186670" lon="-5.2406830">
        <ele>163.9</ele>
        <time>2019-08-28T08:02:34Z</time>
      </trkpt>
      <trkpt lat="36.4186900" lon="-5.2407060">
        <ele>164.1</ele>
        <time>2019-08-28T08:02:35Z</time>
      </trkpt>
      <trkpt lat="36.4187140" lon="-5.2407290">
        <ele>164.4</ele>
        <time>2019-08-28T08:02:36Z</time>
      </trkpt>
      <trkpt lat="36.4187390" lon="-5.2407510">
        <ele>164.6</ele>
        <time>2019-08-28T08:02:37Z</time>
      </trkpt>
      <trkpt lat="36.4187630" lon="-5.2407740">
        <ele>164.8</ele>
        <time>2019-08-28T08:02:38Z</time>
      </trkpt>
      <trkpt lat="36.4187880" lon="-5.2407960">
        <ele>165.0</ele>
        <time>2019-08-28T08:02:39Z</time>
      </trkpt>
      <trkpt lat="36.4188130" lon="-5.2408180">
        <ele>165.2</ele>
        <time>2019-08-28T08:02:40Z</time>
      </trkpt>
      <trkpt lat="36.4188390" lon="-5.2408380">
        <ele>165.4</ele>
        <time>2019-08-28T08:02:41Z</time>
      </trkpt>
      <trkpt lat="36.4188650" lon="-5.2408560">
        <ele>165.7</ele>
        <time>2019-08-28T08:02:42Z</time>
      </trkpt>
      <trkpt lat="36.4188920" lon="-5.2408730">
        <ele>165.9</ele>
        <time>2019-08-28T08:02:43Z</time>
      </trkpt>
      <trkpt lat="36.4189180" lon="-5.2408890">
        <ele>166.1</ele>
        <time>2019-08-28T08:02:44Z</time>
      </trkpt>
      <trkpt lat="36.4189450" lon="-5.2409040">
        <ele>166.3</ele>
        <time>2019-08-28T08:02:45Z</time>
      </trkpt>
      <trkpt lat="36.4189710" lon="-5.2409180">
        <ele>166.5</ele>
        <time>2019-08-28T08:02:46Z</time>
      </trkpt>
      <trkpt lat="36.4189990" lon="-5.2409310">
        <ele>166.8</ele>
        <time>2019-08-28T08:02:47Z</time>
      </trkpt>
      <trkpt lat="36.4190270" lon="-5.2409420">
        <ele>167.0</ele>
        <time>2019-08-28T08:02:48Z</time>
      </trkpt>
      <trkpt lat="36.4190550" lon="-5.2409510">
        <ele>167.2</ele>
        <time>2019-08-28T08:02:49Z</time>
      </trkpt>
      <trkpt lat="36.4190840" lon="-5.2409580">
        <ele>167.4</ele>
        <time>2019-08-28T08:02:50Z</time>
      </trkpt>
      <trkpt lat="36.4191130" lon="-5.2409640">
        <ele>167.6</ele>
        <time>2019-08-28T08:02:51Z</time>
      </trkpt>
      <trkpt lat="36.4191420" lon="-5.2409670">
        <ele>167.9</ele>
        <time>2019-08-28T08:02:52Z</time>
      </trkpt>
      <trkpt lat="36.4191710" lon="-5.2409700">
        <ele>168.1</ele>
        <time>2019-08-28T08:02:53Z</time>
      </trkpt>
      <trkpt lat="36.4192010" lon="-5.2409710">
        <ele>168.3</ele>
        <time>2019-08-28T08:02:54Z</time>
      </trkpt>
      <trkpt lat="36.4192300" lon="-5.2409710">
        <ele>168.5</ele>
        <time>2019-08-28T08:02:55Z</time>
      </trkpt>
      <trkpt lat="36.4192590" lon="-5.2409700">
        <ele>168.7</ele>
        <time>2019-08-28T08:02:56Z</time>
      </trkpt>
      <trkpt lat="36.4192880" lon="-5.2409680">
        <ele>169.0</ele>
        <time>2019-08-28T08:02:57Z</time>
      </trkpt>
      <trkpt lat="36.4193170" lon="-5.2409640">
        <ele>169.2</ele>
        <time>2019-08-28T08:02:58Z</time>
      </trkpt>
      <trkpt lat="36.4193460" lon="-5.2409590">
        <ele>169.4</ele>
        <time>2019-08-28T08:02:59Z</time>
      </trkpt>
      <trkpt lat="36.4193750" lon="-5.2409530">
        <ele>169.6</ele>
        <time>2019-08-28T08:03:00Z</time>
      </trkpt>
      <trkpt lat="36.4194040" lon="-5.2409460">
        <ele>169.8</ele>
        <time>2019-08-28T08:03:01Z</time>
      </trkpt>
      <trkpt lat="36.4194330" lon="-5.2409380">
        <ele>170.0</ele>
        <time>2019-08-28T08:03:02Z</time>
      </trkpt>
      <trkpt lat="36.4194620" lon="-5.2409300">
        <ele>170.2</ele>
        <time>2019-08-28T08:03:03Z</time>
      </trkpt>
      <trkpt lat="36.4194900" lon="-5.2409220">
        <ele>170.3</ele>
        <time>2019-08-28T08:03:04Z</time>
      </trkpt>
      <trkpt lat="36.4195170" lon="-5.2409140">
        <ele>170.5</ele>
        <time>2019-08-28T08:03:05Z</time>
      </trkpt>
      <trkpt lat="36.4195440" lon="-5.2409050">
        <ele>170.7</ele>
        <time>2019-08-28T08:03:06Z</time>
      </trkpt>
      <trkpt lat="36.4195710" lon="-5.2408950">
        <ele>170.9</ele>
        <time>2019-08-28T08:03:07Z</time>
      </trkpt>
      <trkpt lat="36.4195960" lon="-5.2408840">
        <ele>171.0</ele>
        <time>2019-08-28T08:03:08Z</time>
      </trkpt>
      <trkpt lat="36.4196220" lon="-5.2408730">
        <ele>171.2</ele>
        <time>2019-08-28T08:03:09Z</time>
      </trkpt>
      <trkpt lat="36.4196490" lon="-5.2408610">
        <ele>171.3</ele>
        <time>2019-08-28T08:03:10Z</time>
      </trkpt>
      <trkpt lat="36.4196750" lon="-5.2408490">
        <ele>171.5</ele>
        <time>2019-08-28T08:03:11Z</time>
      </trkpt>
      <trkpt lat="36.4197020" lon="-5.2408370">
        <ele>171.7</ele>
        <time>2019-08-28T08:03:12Z</time>
      </trkpt>
      <trkpt lat="36.4197280" lon="-5.2408250">
        <ele>171.8</ele>
        <time>2019-08-28T08:03:13Z</time>
      </trkpt>
      <trkpt lat="36.4197530" lon="-5.2408140">
        <ele>171.9</ele>
        <time>2019-08-28T08:03:14Z</time>
      </trkpt>
      <trkpt lat="36.4197790" lon="-5.2408030">
        <ele>172.1</ele>
        <time>2019-08-28T08:03:15Z</time>
      </trkpt>
      <trkpt lat="36.4198060" lon="-5.2407930">
        <ele>172.2</ele>
        <time>2019-08-28T08:03:16Z</time>
      </trkpt>
      <trkpt lat="36.4198330" lon="-5.2407830">
        <ele>172.4</ele>
        <time>2019-08-28T08:03:17Z</time>
      </trkpt>
      <trkpt lat="36.4198590" lon="-5.2407720">
        <ele>172.5</ele>
        <time>2019-08-28T08:03:18Z</time>
      </trkpt>
      <trkpt lat="36.4198840" lon="-5.2407630">
        <ele>172.7</ele>
        <time>2019-08-28T08:03:19Z</time>
      </trkpt>
      <trkpt lat="36.4199110" lon="-5.2407550">
        <ele>172.8</ele>
        <time>2019-08-28T08:03:20Z</time>
      </trkpt>
      <trkpt lat="36.4199390" lon="-5.2407470">
        <ele>173.0</ele>
        <time>2019-08-28T08:03:21Z</time>
      </trkpt>
      <trkpt lat="36.4199690" lon="-5.2407420">
        <ele>173.1</ele>
        <time>2019-08-28T08:03:22Z</time>
      </trkpt>
      <trkpt lat="36.4200000" lon="-5.2407380">
        <ele>173.3</ele>
        <time>2019-08-28T08:03:23Z</time>
      </trkpt>
      <trkpt lat="36.4200280" lon="-5.2407350">
        <ele>173.5</ele>
        <time>2019-08-28T08:03:24Z</time>
      </trkpt>
      <trkpt lat="36.4200560" lon="-5.2407310">
        <ele>173.6</ele>
        <time>2019-08-28T08:03:25Z</time>
      </trkpt>
      <trkpt lat="36.4200830" lon="-5.2407290">
        <ele>173.8</ele>
        <time>2019-08-28T08:03:26Z</time>
      </trkpt>
      <trkpt lat="36.4201110" lon="-5.2407270">
        <ele>174.0</ele>
        <time>2019-08-28T08:03:27Z</time>
      </trkpt>
      <trkpt lat="36.4201390" lon="-5.2407270">
        <ele>174.2</ele>
        <time>2019-08-28T08:03:28Z</time>
      </trkpt>
      <trkpt lat="36.4201680" lon="-5.2407260">
        <ele>174.4</ele>
        <time>2019-08-28T08:03:29Z</time>
      </trkpt>
      <trkpt lat="36.4201970" lon="-5.2407280">
        <ele>174.6</ele>
        <time>2019-08-28T08:03:30Z</time>
      </trkpt>
      <trkpt lat="36.4202260" lon="-5.2407310">
        <ele>174.8</ele>
        <time>2019-08-28T08:03:31Z</time>
      </trkpt>
      <trkpt lat="36.4202550" lon="-5.2407360">
        <ele>175.0</ele>
        <time>2019-08-28T08:03:32Z</time>
      </trkpt>
      <trkpt lat="36.4202840" lon="-5.2407420">
        <ele>175.2</ele>
        <time>2019-08-28T08:03:33Z</time>
      </trkpt>
      <trkpt lat="36.4203130" lon="-5.2407490">
        <ele>175.5</ele>
        <time>2019-08-28T08:03:34Z</time>
      </trkpt>
      <trkpt lat="36.4203400" lon="-5.2407580">
        <ele>175.7</ele>
        <time>2019-08-28T08:03:35Z</time>
      </trkpt>
      <trkpt lat="36.4203680" lon="-5.2407690">
        <ele>175.9</ele>
        <time>2019-08-28T08:03:36Z</time>
      </trkpt>
      <trkpt lat="36.4203950" lon="-5.2407800">
        <ele>176.2</ele>
        <time>2019-08-28T08:03:37Z</time>
      </trkpt>
      <trkpt lat="36.4204230" lon="-5.2407930">
        <ele>176.4</ele>
        <time>2019-08-28T08:03:38Z</time>
      </trkpt>
      <trkpt lat="36.4204500" lon="-5.2408050">
        <ele>176.7</ele>
        <time>2019-08-28T08:03:39Z</time>
      </trkpt>
      <trkpt lat="36.4204770" lon="-5.2408190">
        <ele>176.9</ele>
        <time>2019-08-28T08:03:40Z</time>
      </trkpt>
      <trkpt lat="36.4205040" lon="-5.2408340">
        <ele>177.2</ele>
        <time>2019-08-28T08:03:41Z</time>
      </trkpt>
      <trkpt lat="36.4205300" lon="-5.2408500">
        <ele>177.4</ele>
        <time>2019-08-28T08:03:42Z</time>
      </trkpt>
      <trkpt lat="36.4205570" lon="-5.2408670">
        <ele>177.7</ele>
        <time>2019-08-28T08:03:43Z</time>
      </trkpt>
      <trkpt lat="36.4205830" lon="-5.2408830">
        <ele>177.9</ele>
        <time>2019-08-28T08:03:44Z</time>
      </trkpt>
      <trkpt lat="36.4206100" lon="-5.2408990">
        <ele>178.2</ele>
        <time>2019-08-28T08:03:45Z</time>
      </trkpt>
      <trkpt lat="36.4206370" lon="-5.2409150">
        <ele>178.4</ele>
        <time>2019-08-28T08:03:46Z</time>
      </trkpt>
      <trkpt lat="36.4206630" lon="-5.2409300">
        <ele>178.7</ele>
        <time>2019-08-28T08:03:47Z</time>
      </trkpt>
      <trkpt lat="36.4206880" lon="-5.2409450">
        <ele>178.9</ele>
        <time>2019-08-28T08:03:48Z</time>
      </trkpt>
      <trkpt lat="36.4207130" lon="-5.2409600">
        <ele>179.1</ele>
        <time>2019-08-28T08:03:49Z</time>
      </trkpt>
      <trkpt lat="36.4207380" lon="-5.2409730">
        <ele>179.3</ele>
        <time>2019-08-28T08:03:50Z</time>
      </trkpt>
      <trkpt lat="36.4207620" lon="-5.2409870">
        <ele>179.5</ele>
        <time>2019-08-28T08:03:51Z</time>
      </trkpt>
      <trkpt lat="36.4207860" lon="-5.2410010">
        <ele>179.7</ele>
        <time>2019-08-28T08:03:52Z</time>
      </trkpt>
      <trkpt lat="36.4208090" lon="-5.2410170">
        <ele>179.9</ele>
        <time>2019-08-28T08:03:53Z</time>
      </trkpt>
      <trkpt lat="36.4208330" lon="-5.2410330">
        <ele>180.1</ele>
        <time>2019-08-28T08:03:54Z</time>
      </trkpt>
      <trkpt lat="36.4208570" lon="-5.2410480">
        <ele>180.3</ele>
        <time>2019-08-28T08:03:55Z</time>
      </trkpt>
      <trkpt lat="36.4208820" lon="-5.2410620">
        <ele>180.5</ele>
        <time>2019-08-28T08:03:56Z</time>
      </trkpt>
      <trkpt lat="36.4209080" lon="-5.2410760">
        <ele>180.7</ele>
        <time>2019-08-28T08:03:57Z</time>
      </trkpt>
      <trkpt lat="36.4209330" lon="-5.2410900">
        <ele>180.9</ele>
        <time>2019-08-28T08:03:58Z</time>
      </trkpt>
      <trkpt lat="36.4209570" lon="-5.2411050">
        <ele>181.0</ele>
        <time>2019-08-28T08:03:59Z</time>
      </trkpt>
      <trkpt lat="36.4209810" lon="-5.2411200">
        <ele>181.2</ele>
        <time>2019-08-28T08:04:00Z</time>
      </trkpt>
      <trkpt lat="36.4210050" lon="-5.2411350">
        <ele>181.3</ele>
        <time>2019-08-28T08:04:01Z</time>
      </trkpt>
      <trkpt lat="36.4210300" lon="-5.2411490">
        <ele>181.5</ele>
        <time>2019-08-28T08:04:02Z</time>
      </trkpt>
      <trkpt lat="36.4210560" lon="-5.2411630">
        <ele>181.6</ele>
        <time>2019-08-28T08:04:03Z</time>
      </trkpt>
      <trkpt lat="36.4210810" lon="-5.2411790">
        <ele>181.8</ele>
        <time>2019-08-28T08:04:04Z</time>
      </trkpt>
      <trkpt lat="36.4211070" lon="-5.2411950">
        <ele>181.9</ele>
        <time>2019-08-28T08:04:05Z</time>
      </trkpt>
      <trkpt lat="36.4211320" lon="-5.2412120">
        <ele>182.0</ele>
        <time>2019-08-28T08:04:06Z</time>
      </trkpt>
      <trkpt lat="36.4211580" lon="-5.2412290">
        <ele>182.2</ele>
        <time>2019-08-28T08:04:07Z</time>
      </trkpt>
      <trkpt lat="36.4211850" lon="-5.2412450">
        <ele>182.3</ele>
        <time>2019-08-28T08:04:08Z</time>
      </trkpt>
      <trkpt lat="36.4212120" lon="-5.2412610">
        <ele>182.4</ele>
        <time>2019-08-28T08:04:09Z</time>
      </trkpt>
      <trkpt lat="36.4212390" lon="-5.2412750">
        <ele>182.5</ele>
        <time>2019-08-28T08:04:10Z</time>
      </trkpt>
      <trkpt lat="36.4212660" lon="-5.2412910">
        <ele>182.7</ele>
        <time>2019-08-28T08:04:11Z</time>
      </trkpt>
      <trkpt lat="36.4212920" lon="-5.2413060">
        <ele>182.8</ele>
        <time>2019-08-28T08:04:12Z</time>
      </trkpt>
      <trkpt lat="36.4213200" lon="-5.2413230">
        <ele>182.9</ele>
        <time>2019-08-28T08:04:13Z</time>
      </trkpt>
      <trkpt lat="36.4213480" lon="-5.2413390">
        <ele>183.0</ele>
        <time>2019-08-28T08:04:14Z</time>
      </trkpt>
      <trkpt lat="36.4213760" lon="-5.2413560">
        <ele>183.1</ele>
        <time>2019-08-28T08:04:15Z</time>
      </trkpt>
      <trkpt lat="36.4214050" lon="-5.2413720">
        <ele>183.2</ele>
        <time>2019-08-28T08:04:16Z</time>
      </trkpt>
      <trkpt lat="36.4214330" lon="-5.2413900">
        <ele>183.3</ele>
        <time>2019-08-28T08:04:17Z</time>
      </trkpt>
      <trkpt lat="36.4214620" lon="-5.2414080">
        <ele>183.4</ele>
        <time>2019-08-28T08:04:18Z</time>
      </trkpt>
      <trkpt lat="36.4214910" lon="-5.2414270">
        <ele>183.6</ele>
        <time>2019-08-28T08:04:19Z</time>
      </trkpt>
      <trkpt lat="36.4215200" lon="-5.2414460">
        <ele>183.7</ele>
        <time>2019-08-28T08:04:20Z</time>
      </trkpt>
      <trkpt lat="36.4215500" lon="-5.2414660">
        <ele>183.9</ele>
        <time>2019-08-28T08:04:21Z</time>
      </trkpt>
      <trkpt lat="36.4215780" lon="-5.2414860">
        <ele>184.0</ele>
        <time>2019-08-28T08:04:22Z</time>
      </trkpt>
      <trkpt lat="36.4216060" lon="-5.2415060">
        <ele>184.2</ele>
        <time>2019-08-28T08:04:23Z</time>
      </trkpt>
      <trkpt lat="36.4216340" lon="-5.2415260">
        <ele>184.3</ele>
        <time>2019-08-28T08:04:24Z</time>
      </trkpt>
      <trkpt lat="36.4216620" lon="-5.2415450">
        <ele>184.5</ele>
        <time>2019-08-28T08:04:25Z</time>
      </trkpt>
      <trkpt lat="36.4216900" lon="-5.2415630">
        <ele>184.7</ele>
        <time>2019-08-28T08:04:26Z</time>
      </trkpt>
      <trkpt lat="36.4217190" lon="-5.2415810">
        <ele>184.9</ele>
        <time>2019-08-28T08:04:27Z</time>
      </trkpt>
      <trkpt lat="36.4217480" lon="-5.2416000">
        <ele>185.1</ele>
        <time>2019-08-28T08:04:28Z</time>
      </trkpt>
      <trkpt lat="36.4217770" lon="-5.2416190">
        <ele>185.3</ele>
        <time>2019-08-28T08:04:29Z</time>
      </trkpt>
      <trkpt lat="36.4218060" lon="-5.2416380">
        <ele>185.6</ele>
        <time>2019-08-28T08:04:30Z</time>
      </trkpt>
      <trkpt lat="36.4218360" lon="-5.2416570">
        <ele>185.9</ele>
        <time>2019-08-28T08:04:31Z</time>
      </trkpt>
      <trkpt lat="36.4218640" lon="-5.2416770">
        <ele>186.1</ele>
        <time>2019-08-28T08:04:32Z</time>
      </trkpt>
      <trkpt lat="36.4218920" lon="-5.2416970">
        <ele>186.4</ele>
        <time>2019-08-28T08:04:33Z</time>
      </trkpt>
      <trkpt lat="36.4219210" lon="-5.2417170">
        <ele>186.6</ele>
        <time>2019-08-28T08:04:34Z</time>
      </trkpt>
      <trkpt lat="36.4219490" lon="-5.2417370">
        <ele>186.9</ele>
        <time>2019-08-28T08:04:35Z</time>
      </trkpt>
      <trkpt lat="36.4219770" lon="-5.2417570">
        <ele>187.2</ele>
        <time>2019-08-28T08:04:36Z</time>
      </trkpt>
      <trkpt lat="36.4220040" lon="-5.2417790">
        <ele>187.5</ele>
        <time>2019-08-28T08:04:37Z</time>
      </trkpt>
      <trkpt lat="36.4220330" lon="-5.2418030">
        <ele>187.8</ele>
        <time>2019-08-28T08:04:38Z</time>
      </trkpt>
      <trkpt lat="36.4220610" lon="-5.2418280">
        <ele>188.0</ele>
        <time>2019-08-28T08:04:39Z</time>
      </trkpt>
      <trkpt lat="36.4220890" lon="-5.2418540">
        <ele>188.3</ele>
        <time>2019-08-28T08:04:40Z</time>
      </trkpt>
      <trkpt lat="36.4221170" lon="-5.2418800">
        <ele>188.6</ele>
        <time>2019-08-28T08:04:41Z</time>
      </trkpt>
      <trkpt lat="36.4221450" lon="-5.2419050">
        <ele>188.9</ele>
        <time>2019-08-28T08:04:42Z</time>
      </trkpt>
      <trkpt lat="36.4221730" lon="-5.2419310">
        <ele>189.2</ele>
        <time>2019-08-28T08:04:43Z</time>
      </trkpt>
      <trkpt lat="36.4222020" lon="-5.2419560">
        <ele>189.5</ele>
        <time>2019-08-28T08:04:44Z</time>
      </trkpt>
      <trkpt lat="36.4222310" lon="-5.2419810">
        <ele>189.9</ele>
        <time>2019-08-28T08:04:45Z</time>
      </trkpt>
      <trkpt lat="36.4222580" lon="-5.2420060">
        <ele>190.2</ele>
        <time>2019-08-28T08:04:46Z</time>
      </trkpt>
      <trkpt lat="36.4222860" lon="-5.2420300">
        <ele>190.5</ele>
        <time>2019-08-28T08:04:47Z</time>
      </trkpt>
      <trkpt lat="36.4223150" lon="-5.2420540">
        <ele>190.8</ele>
        <time>2019-08-28T08:04:48Z</time>
      </trkpt>
      <trkpt lat="36.4223440" lon="-5.2420770">
        <ele>191.1</ele>
        <time>2019-08-28T08:04:49Z</time>
      </trkpt>
      <trkpt lat="36.4223730" lon="-5.2421000">
        <ele>191.4</ele>
        <time>2019-08-28T08:04:50Z</time>
      </trkpt>
      <trkpt lat="36.4224000" lon="-5.2421230">
        <ele>191.7</ele>
        <time>2019-08-28T08:04:51Z</time>
      </trkpt>
      <trkpt lat="36.4224270" lon="-5.2421450">
        <ele>191.9</ele>
        <time>2019-08-28T08:04:52Z</time>
      </trkpt>
      <trkpt lat="36.4224520" lon="-5.2421650">
        <ele>192.2</ele>
        <time>2019-08-28T08:04:53Z</time>
      </trkpt>
      <trkpt lat="36.4224770" lon="-5.2421850">
        <ele>192.4</ele>
        <time>2019-08-28T08:04:54Z</time>
      </trkpt>
      <trkpt lat="36.4225020" lon="-5.2422050">
        <ele>192.6</ele>
        <time>2019-08-28T08:04:55Z</time>
      </trkpt>
      <trkpt lat="36.4225260" lon="-5.2422260">
        <ele>192.9</ele>
        <time>2019-08-28T08:04:56Z</time>
      </trkpt>
      <trkpt lat="36.4225490" lon="-5.2422460">
        <ele>193.1</ele>
        <time>2019-08-28T08:04:57Z</time>
      </trkpt>
      <trkpt lat="36.4225730" lon="-5.2422650">
        <ele>193.3</ele>
        <time>2019-08-28T08:04:58Z</time>
      </trkpt>
      <trkpt lat="36.4225980" lon="-5.2422840">
        <ele>193.6</ele>
        <time>2019-08-28T08:04:59Z</time>
      </trkpt>
      <trkpt lat="36.4226240" lon="-5.2423000">
        <ele>193.8</ele>
        <time>2019-08-28T08:05:00Z</time>
      </trkpt>
      <trkpt lat="36.4226510" lon="-5.2423150">
        <ele>194.0</ele>
        <time>2019-08-28T08:05:01Z</time>
      </trkpt>
      <trkpt lat="36.4226770" lon="-5.2423300">
        <ele>194.2</ele>
        <time>2019-08-28T08:05:02Z</time>
      </trkpt>
      <trkpt lat="36.4227020" lon="-5.2423450">
        <ele>194.4</ele>
        <time>2019-08-28T08:05:03Z</time>
      </trkpt>
      <trkpt lat="36.4227270" lon="-5.2423600">
        <ele>194.6</ele>
        <time>2019-08-28T08:05:04Z</time>
      </trkpt>
      <trkpt lat="36.4227510" lon="-5.2423770">
        <ele>194.8</ele>
        <time>2019-08-28T08:05:05Z</time>
      </trkpt>
      <trkpt lat="36.4227770" lon="-5.2423930">
        <ele>195.0</ele>
        <time>2019-08-28T08:05:06Z</time>
      </trkpt>
      <trkpt lat="36.4228030" lon="-5.2424070">
        <ele>195.2</ele>
        <time>2019-08-28T08:05:07Z</time>
      </trkpt>
      <trkpt lat="36.4228290" lon="-5.2424210">
        <ele>195.4</ele>
        <time>2019-08-28T08:05:08Z</time>
      </trkpt>
      <trkpt lat="36.4228540" lon="-5.2424350">
        <ele>195.6</ele>
        <time>2019-08-28T08:05:09Z</time>
      </trkpt>
      <trkpt lat="36.4228780" lon="-5.2424490">
        <ele>195.8</ele>
        <time>2019-08-28T08:05:10Z</time>
      </trkpt>
      <trkpt lat="36.4229020" lon="-5.2424620">
        <ele>196.0</ele>
        <time>2019-08-28T08:05:11Z</time>
      </trkpt>
      <trkpt lat="36.4229250" lon="-5.2424740">
        <ele>196.2</ele>
        <time>2019-08-28T08:05:12Z</time>
      </trkpt>
      <trkpt lat="36.4229470" lon="-5.2424870">
        <ele>196.4</ele>
        <time>2019-08-28T08:05:13Z</time>
      </trkpt>
      <trkpt lat="36.4229690" lon="-5.2425020">
        <ele>196.5</ele>
        <time>2019-08-28T08:05:14Z</time>
      </trkpt>
      <trkpt lat="36.4229930" lon="-5.2425170">
        <ele>196.7</ele>
        <time>2019-08-28T08:05:15Z</time>
      </trkpt>
      <trkpt lat="36.4230180" lon="-5.2425290">
        <ele>196.9</ele>
        <time>2019-08-28T08:05:16Z</time>
      </trkpt>
      <trkpt lat="36.4230440" lon="-5.2425400">
        <ele>197.1</ele>
        <time>2019-08-28T08:05:17Z</time>
      </trkpt>
      <trkpt lat="36.4230700" lon="-5.2425520">
        <ele>197.3</ele>
        <time>2019-08-28T08:05:18Z</time>
      </trkpt>
      <trkpt lat="36.4230950" lon="-5.2425650">
        <ele>197.5</ele>
        <time>2019-08-28T08:05:19Z</time>
      </trkpt>
      <trkpt lat="36.4231200" lon="-5.2425790">
        <ele>197.7</ele>
        <time>2019-08-28T08:05:20Z</time>
      </trkpt>
      <trkpt lat="36.4231440" lon="-5.2425920">
        <ele>197.8</ele>
        <time>2019-08-28T08:05:21Z</time>
      </trkpt>
      <trkpt lat="36.4231680" lon="-5.2426050">
        <ele>198.0</ele>
        <time>2019-08-28T08:05:22Z</time>
      </trkpt>
      <trkpt lat="36.4231930" lon="-5.2426180">
        <ele>198.2</ele>
        <time>2019-08-28T08:05:23Z</time>
      </trkpt>
      <trkpt lat="36.4232200" lon="-5.2426310">
        <ele>198.4</ele>
        <time>2019-08-28T08:05:24Z</time>
      </trkpt>
      <trkpt lat="36.4232450" lon="-5.2426430">
        <ele>198.6</ele>
        <time>2019-08-28T08:05:25Z</time>
      </trkpt>
      <trkpt lat="36.4232720" lon="-5.2426560">
        <ele>198.8</ele>
        <time>2019-08-28T08:05:26Z</time>
      </trkpt>
      <trkpt lat="36.4232980" lon="-5.2426690">
        <ele>199.0</ele>
        <time>2019-08-28T08:05:27Z</time>
      </trkpt>
      <trkpt lat="36.4233250" lon="-5.2426830">
        <ele>199.2</ele>
        <time>2019-08-28T08:05:28Z</time>
      </trkpt>
      <trkpt lat="36.4233510" lon="-5.2426970">
        <ele>199.4</ele>
        <time>2019-08-28T08:05:29Z</time>
      </trkpt>
      <trkpt lat="36.4233770" lon="-5.2427100">
        <ele>199.6</ele>
        <time>2019-08-28T08:05:30Z</time>
      </trkpt>
      <trkpt lat="36.4234020" lon="-5.2427230">
        <ele>199.8</ele>
        <time>2019-08-28T08:05:31Z</time>
      </trkpt>
      <trkpt lat="36.4234270" lon="-5.2427350">
        <ele>200.0</ele>
        <time>2019-08-28T08:05:32Z</time>
      </trkpt>
      <trkpt lat="36.4234520" lon="-5.2427480">
        <ele>200.1</ele>
        <time>2019-08-28T08:05:33Z</time>
      </trkpt>
      <trkpt lat="36.4234780" lon="-5.2427600">
        <ele>200.3</ele>
        <time>2019-08-28T08:05:34Z</time>
      </trkpt>
      <trkpt lat="36.4235050" lon="-5.2427720">
        <ele>200.5</ele>
        <time>2019-08-28T08:05:35Z</time>
      </trkpt>
      <trkpt lat="36.4235310" lon="-5.2427830">
        <ele>200.7</ele>
        <time>2019-08-28T08:05:36Z</time>
      </trkpt>
      <trkpt lat="36.4235570" lon="-5.2427960">
        <ele>200.9</ele>
        <time>2019-08-28T08:05:37Z</time>
      </trkpt>
      <trkpt lat="36.4235820" lon="-5.2428100">
        <ele>201.1</ele>
        <time>2019-08-28T08:05:38Z</time>
      </trkpt>
      <trkpt lat="36.4236070" lon="-5.2428240">
        <ele>201.2</ele>
        <time>2019-08-28T08:05:39Z</time>
      </trkpt>
      <trkpt lat="36.4236330" lon="-5.2428370">
        <ele>201.4</ele>
        <time>2019-08-28T08:05:40Z</time>
      </trkpt>
      <trkpt lat="36.4236580" lon="-5.2428500">
        <ele>201.6</ele>
        <time>2019-08-28T08:05:41Z</time>
      </trkpt>
      <trkpt lat="36.4236830" lon="-5.2428630">
        <ele>201.8</ele>
        <time>2019-08-28T08:05:42Z</time>
      </trkpt>
      <trkpt lat="36.4237080" lon="-5.2428760">
        <ele>201.9</ele>
        <time>2019-08-28T08:05:43Z</time>
      </trkpt>
      <trkpt lat="36.4237330" lon="-5.2428900">
        <ele>202.1</ele>
        <time>2019-08-28T08:05:44Z</time>
      </trkpt>
      <trkpt lat="36.4237580" lon="-5.2429050">
        <ele>202.2</ele>
        <time>2019-08-28T08:05:45Z</time>
      </trkpt>
      <trkpt lat="36.4237830" lon="-5.2429200">
        <ele>202.4</ele>
        <time>2019-08-28T08:05:46Z</time>
      </trkpt>
      <trkpt lat="36.4238090" lon="-5.2429350">
        <ele>202.5</ele>
        <time>2019-08-28T08:05:47Z</time>
      </trkpt>
      <trkpt lat="36.4238360" lon="-5.2429490">
        <ele>202.7</ele>
        <time>2019-08-28T08:05:48Z</time>
      </trkpt>
      <trkpt lat="36.4238620" lon="-5.2429650">
        <ele>202.9</ele>
        <time>2019-08-28T08:05:49Z</time>
      </trkpt>
      <trkpt lat="36.4238860" lon="-5.2429820">
        <ele>203.0</ele>
        <time>2019-08-28T08:05:50Z</time>
      </trkpt>
      <trkpt lat="36.4239100" lon="-5.2430010">
        <ele>203.1</ele>
        <time>2019-08-28T08:05:51Z</time>
      </trkpt>
      <trkpt lat="36.4239360" lon="-5.2430190">
        <ele>203.3</ele>
        <time>2019-08-28T08:05:52Z</time>
      </trkpt>
      <trkpt lat="36.4239610" lon="-5.2430380">
        <ele>203.4</ele>
        <time>2019-08-28T08:05:53Z</time>
      </trkpt>
      <trkpt lat="36.4239860" lon="-5.2430570">
        <ele>203.6</ele>
        <time>2019-08-28T08:05:54Z</time>
      </trkpt>
      <trkpt lat="36.4240090" lon="-5.2430770">
        <ele>203.7</ele>
        <time>2019-08-28T08:05:55Z</time>
      </trkpt>
      <trkpt lat="36.4240330" lon="-5.2430980">
        <ele>203.8</ele>
        <time>2019-08-28T08:05:56Z</time>
      </trkpt>
      <trkpt lat="36.4240560" lon="-5.2431200">
        <ele>203.9</ele>
        <time>2019-08-28T08:05:57Z</time>
      </trkpt>
      <trkpt lat="36.4240800" lon="-5.2431440">
        <ele>204.1</ele>
        <time>2019-08-28T08:05:58Z</time>
      </trkpt>
      <trkpt lat="36.4241040" lon="-5.2431680">
        <ele>204.2</ele>
        <time>2019-08-28T08:05:59Z</time>
      </trkpt>
      <trkpt lat="36.4241270" lon="-5.2431940">
        <ele>204.3</ele>
        <time>2019-08-28T08:06:00Z</time>
      </trkpt>
      <trkpt lat="36.4241500" lon="-5.2432190">
        <ele>204.4</ele>
        <time>2019-08-28T08:06:01Z</time>
      </trkpt>
      <trkpt lat="36.4241720" lon="-5.2432460">
        <ele>204.5</ele>
        <time>2019-08-28T08:06:02Z</time>
      </trkpt>
      <trkpt lat="36.4241940" lon="-5.2432740">
        <ele>204.6</ele>
        <time>2019-08-28T08:06:03Z</time>
      </trkpt>
      <trkpt lat="36.4242170" lon="-5.2433030">
        <ele>204.7</ele>
        <time>2019-08-28T08:06:04Z</time>
      </trkpt>
      <trkpt lat="36.4242400" lon="-5.2433320">
        <ele>204.9</ele>
        <time>2019-08-28T08:06:05Z</time>
      </trkpt>
      <trkpt lat="36.4242620" lon="-5.2433630">
        <ele>205.0</ele>
        <time>2019-08-28T08:06:06Z</time>
      </trkpt>
      <trkpt lat="36.4242850" lon="-5.2433940">
        <ele>205.1</ele>
        <time>2019-08-28T08:06:07Z</time>
      </trkpt>
      <trkpt lat="36.4243070" lon="-5.2434260">
        <ele>205.2</ele>
        <time>2019-08-28T08:06:08Z</time>
      </trkpt>
      <trkpt lat="36.4243300" lon="-5.2434590">
        <ele>205.3</ele>
        <time>2019-08-28T08:06:09Z</time>
      </trkpt>
      <trkpt lat="36.4243520" lon="-5.2434920">
        <ele>205.4</ele>
        <time>2019-08-28T08:06:10Z</time>
      </trkpt>
      <trkpt lat="36.4243740" lon="-5.2435270">
        <ele>205.5</ele>
        <time>2019-08-28T08:06:11Z</time>
      </trkpt>
      <trkpt lat="36.4243970" lon="-5.2435620">
        <ele>205.7</ele>
        <time>2019-08-28T08:06:12Z</time>
      </trkpt>
      <trkpt lat="36.4244200" lon="-5.2435980">
        <ele>205.8</ele>
        <time>2019-08-28T08:06:13Z</time>
      </trkpt>
      <trkpt lat="36.4244420" lon="-5.2436340">
        <ele>205.9</ele>
        <time>2019-08-28T08:06:14Z</time>
      </trkpt>
      <trkpt lat="36.4244640" lon="-5.2436700">
        <ele>206.1</ele>
        <time>2019-08-28T08:06:15Z</time>
      </trkpt>
      <trkpt lat="36.4244870" lon="-5.2437060">
        <ele>206.2</ele>
        <time>2019-08-28T08:06:16Z</time>
      </trkpt>
      <trkpt lat="36.4245090" lon="-5.2437410">
        <ele>206.3</ele>
        <time>2019-08-28T08:06:17Z</time>
      </trkpt>
      <trkpt lat="36.4245320" lon="-5.2437760">
        <ele>206.5</ele>
        <time>2019-08-28T08:06:18Z</time>
      </trkpt>
      <trkpt lat="36.4245550" lon="-5.2438110">
        <ele>206.7</ele>
        <time>2019-08-28T08:06:19Z</time>
      </trkpt>
      <trkpt lat="36.4245770" lon="-5.2438460">
        <ele>206.9</ele>
        <time>2019-08-28T08:06:20Z</time>
      </trkpt>
      <trkpt lat="36.4245990" lon="-5.2438820">
        <ele>207.1</ele>
        <time>2019-08-28T08:06:21Z</time>
      </trkpt>
      <trkpt lat="36.4246210" lon="-5.2439180">
        <ele>207.3</ele>
        <time>2019-08-28T08:06:22Z</time>
      </trkpt>
      <trkpt lat="36.4246430" lon="-5.2439550">
        <ele>207.5</ele>
        <time>2019-08-28T08:06:23Z</time>
      </trkpt>
      <trkpt lat="36.4246670" lon="-5.2439900">
        <ele>207.7</ele>
        <time>2019-08-28T08:06:24Z</time>
      </trkpt>
      <trkpt lat="36.4246900" lon="-5.2440250">
        <ele>207.9</ele>
        <time>2019-08-28T08:06:25Z</time>
      </trkpt>
      <trkpt lat="36.4247150" lon="-5.2440600">
        <ele>208.1</ele>
        <time>2019-08-28T08:06:26Z</time>
      </trkpt>
      <trkpt lat="36.4247410" lon="-5.2440940">
        <ele>208.3</ele>
        <time>2019-08-28T08:06:27Z</time>
      </trkpt>
      <trkpt lat="36.4247680" lon="-5.2441280">
        <ele>208.5</ele>
        <time>2019-08-28T08:06:28Z</time>
      </trkpt>
      <trkpt lat="36.4247960" lon="-5.2441600">
        <ele>208.7</ele>
        <time>2019-08-28T08:06:29Z</time>
      </trkpt>
      <trkpt lat="36.4248250" lon="-5.2441900">
        <ele>208.8</ele>
        <time>2019-08-28T08:06:30Z</time>
      </trkpt>
      <trkpt lat="36.4248550" lon="-5.2442170">
        <ele>209.0</ele>
        <time>2019-08-28T08:06:31Z</time>
      </trkpt>
      <trkpt lat="36.4248860" lon="-5.2442420">
        <ele>209.2</ele>
        <time>2019-08-28T08:06:32Z</time>
      </trkpt>
      <trkpt lat="36.4249180" lon="-5.2442630">
        <ele>209.4</ele>
        <time>2019-08-28T08:06:33Z</time>
      </trkpt>
      <trkpt lat="36.4249510" lon="-5.2442820">
        <ele>209.6</ele>
        <time>2019-08-28T08:06:34Z</time>
      </trkpt>
      <trkpt lat="36.4249850" lon="-5.2442970">
        <ele>209.8</ele>
        <time>2019-08-28T08:06:35Z</time>
      </trkpt>
      <trkpt lat="36.4250180" lon="-5.2443030">
        <ele>210.0</ele>
        <time>2019-08-28T08:06:36Z</time>
      </trkpt>
      <trkpt lat="36.4250490" lon="-5.2443010">
        <ele>210.1</ele>
        <time>2019-08-28T08:06:37Z</time>
      </trkpt>
      <trkpt lat="36.4250810" lon="-5.2442950">
        <ele>210.3</ele>
        <time>2019-08-28T08:06:38Z</time>
      </trkpt>
      <trkpt lat="36.4251130" lon="-5.2442910">
        <ele>210.5</ele>
        <time>2019-08-28T08:06:39Z</time>
      </trkpt>
      <trkpt lat="36.4251460" lon="-5.2442890">
        <ele>210.7</ele>
        <time>2019-08-28T08:06:40Z</time>
      </trkpt>
      <trkpt lat="36.4251780" lon="-5.2442880">
        <ele>211.0</ele>
        <time>2019-08-28T08:06:41Z</time>
      </trkpt>
      <trkpt lat="36.4252080" lon="-5.2442860">
        <ele>211.2</ele>
        <time>2019-08-28T08:06:42Z</time>
      </trkpt>
      <trkpt lat="36.4252380" lon="-5.2442830">
        <ele>211.4</ele>
        <time>2019-08-28T08:06:43Z</time>
      </trkpt>
      <trkpt lat="36.4252680" lon="-5.2442790">
        <ele>211.6</ele>
        <time>2019-08-28T08:06:44Z</time>
      </trkpt>
      <trkpt lat="36.4252990" lon="-5.2442760">
        <ele>211.9</ele>
        <time>2019-08-28T08:06:45Z</time>
      </trkpt>
      <trkpt lat="36.4253310" lon="-5.2442740">
        <ele>212.1</ele>
        <time>2019-08-28T08:06:46Z</time>
      </trkpt>
      <trkpt lat="36.4253620" lon="-5.2442720">
        <ele>212.3</ele>
        <time>2019-08-28T08:06:47Z</time>
      </trkpt>
      <trkpt lat="36.4253930" lon="-5.2442700">
        <ele>212.5</ele>
        <time>2019-08-28T08:06:48Z</time>
      </trkpt>
      <trkpt lat="36.4254240" lon="-5.2442670">
        <ele>212.7</ele>
        <time>2019-08-28T08:06:49Z</time>
      </trkpt>
      <trkpt lat="36.4254540" lon="-5.2442640">
        <ele>212.9</ele>
        <time>2019-08-28T08:06:50Z</time>
      </trkpt>
      <trkpt lat="36.4254850" lon="-5.2442600">
        <ele>213.1</ele>
        <time>2019-08-28T08:06:51Z</time>
      </trkpt>
      <trkpt lat="36.4255170" lon="-5.2442580">
        <ele>213.3</ele>
        <time>2019-08-28T08:06:52Z</time>
      </trkpt>
      <trkpt lat="36.4255470" lon="-5.2442550">
        <ele>213.6</ele>
        <time>2019-08-28T08:06:53Z</time>
      </trkpt>
      <trkpt lat="36.4255780" lon="-5.2442510">
        <ele>213.8</ele>
        <time>2019-08-28T08:06:54Z</time>
      </trkpt>
      <trkpt lat="36.4256080" lon="-5.2442490">
        <ele>214.0</ele>
        <time>2019-08-28T08:06:55Z</time>
      </trkpt>
      <trkpt lat="36.4256380" lon="-5.2442480">
        <ele>214.2</ele>
        <time>2019-08-28T08:06:56Z</time>
      </trkpt>
      <trkpt lat="36.4256690" lon="-5.2442470">
        <ele>214.5</ele>
        <time>2019-08-28T08:06:57Z</time>
      </trkpt>
      <trkpt lat="36.4257000" lon="-5.2442460">
        <ele>214.7</ele>
        <time>2019-08-28T08:06:58Z</time>
      </trkpt>
      <trkpt lat="36.4257320" lon="-5.2442440">
        <ele>214.9</ele>
        <time>2019-08-28T08:06:59Z</time>
      </trkpt>
      <trkpt lat="36.4257640" lon="-5.2442420">
        <ele>215.1</ele>
        <time>2019-08-28T08:07:00Z</time>
      </trkpt>
      <trkpt lat="36.4257960" lon="-5.2442390">
        <ele>215.4</ele>
        <time>2019-08-28T08:07:01Z</time>
      </trkpt>
      <trkpt lat="36.4258270" lon="-5.2442380">
        <ele>215.6</ele>
        <time>2019-08-28T08:07:02Z</time>
      </trkpt>
      <trkpt lat="36.4258580" lon="-5.2442370">
        <ele>215.8</ele>
        <time>2019-08-28T08:07:03Z</time>
      </trkpt>
      <trkpt lat="36.4258900" lon="-5.2442360">
        <ele>216.0</ele>
        <time>2019-08-28T08:07:04Z</time>
      </trkpt>
      <trkpt lat="36.4259210" lon="-5.2442350">
        <ele>216.2</ele>
        <time>2019-08-28T08:07:05Z</time>
      </trkpt>
      <trkpt lat="36.4259530" lon="-5.2442330">
        <ele>216.4</ele>
        <time>2019-08-28T08:07:06Z</time>
      </trkpt>
      <trkpt lat="36.4259850" lon="-5.2442300">
        <ele>216.6</ele>
        <time>2019-08-28T08:07:07Z</time>
      </trkpt>
      <trkpt lat="36.4260160" lon="-5.2442260">
        <ele>216.8</ele>
        <time>2019-08-28T08:07:08Z</time>
      </trkpt>
      <trkpt lat="36.4260480" lon="-5.2442230">
        <ele>217.0</ele>
        <time>2019-08-28T08:07:09Z</time>
      </trkpt>
      <trkpt lat="36.4260800" lon="-5.2442200">
        <ele>217.2</ele>
        <time>2019-08-28T08:07:10Z</time>
      </trkpt>
      <trkpt lat="36.4261120" lon="-5.2442180">
        <ele>217.4</ele>
        <time>2019-08-28T08:07:11Z</time>
      </trkpt>
      <trkpt lat="36.4261440" lon="-5.2442160">
        <ele>217.6</ele>
        <time>2019-08-28T08:07:12Z</time>
      </trkpt>
      <trkpt lat="36.4261750" lon="-5.2442140">
        <ele>217.7</ele>
        <time>2019-08-28T08:07:13Z</time>
      </trkpt>
      <trkpt lat="36.4262070" lon="-5.2442120">
        <ele>217.9</ele>
        <time>2019-08-28T08:07:14Z</time>
      </trkpt>
      <trkpt lat="36.4262380" lon="-5.2442110">
        <ele>218.1</ele>
        <time>2019-08-28T08:07:15Z</time>
      </trkpt>
      <trkpt lat="36.4262690" lon="-5.2442100">
        <ele>218.3</ele>
        <time>2019-08-28T08:07:16Z</time>
      </trkpt>
      <trkpt lat="36.4263010" lon="-5.2442080">
        <ele>218.5</ele>
        <time>2019-08-28T08:07:17Z</time>
      </trkpt>
      <trkpt lat="36.4263320" lon="-5.2442060">
        <ele>218.7</ele>
        <time>2019-08-28T08:07:18Z</time>
      </trkpt>
      <trkpt lat="36.4263630" lon="-5.2442030">
        <ele>218.8</ele>
        <time>2019-08-28T08:07:19Z</time>
      </trkpt>
      <trkpt lat="36.4263950" lon="-5.2442000">
        <ele>219.0</ele>
        <time>2019-08-28T08:07:20Z</time>
      </trkpt>
      <trkpt lat="36.4264270" lon="-5.2441980">
        <ele>219.2</ele>
        <time>2019-08-28T08:07:21Z</time>
      </trkpt>
      <trkpt lat="36.4264590" lon="-5.2441960">
        <ele>219.4</ele>
        <time>2019-08-28T08:07:22Z</time>
      </trkpt>
      <trkpt lat="36.4264920" lon="-5.2441940">
        <ele>219.6</ele>
        <time>2019-08-28T08:07:23Z</time>
      </trkpt>
      <trkpt lat="36.4265250" lon="-5.2441940">
        <ele>219.8</ele>
        <time>2019-08-28T08:07:24Z</time>
      </trkpt>
      <trkpt lat="36.4265570" lon="-5.2441930">
        <ele>219.9</ele>
        <time>2019-08-28T08:07:25Z</time>
      </trkpt>
      <trkpt lat="36.4265890" lon="-5.2441930">
        <ele>220.1</ele>
        <time>2019-08-28T08:07:26Z</time>
      </trkpt>
      <trkpt lat="36.4266220" lon="-5.2441940">
        <ele>220.3</ele>
        <time>2019-08-28T08:07:27Z</time>
      </trkpt>
      <trkpt lat="36.4266560" lon="-5.2441960">
        <ele>220.5</ele>
        <time>2019-08-28T08:07:28Z</time>
      </trkpt>
      <trkpt lat="36.4266900" lon="-5.2441990">
        <ele>220.7</ele>
        <time>2019-08-28T08:07:29Z</time>
      </trkpt>
      <trkpt lat="36.4267240" lon="-5.2442030">
        <ele>220.8</ele>
        <time>2019-08-28T08:07:30Z</time>
      </trkpt>
      <trkpt lat="36.4267590" lon="-5.2442070">
        <ele>221.0</ele>
        <time>2019-08-28T08:07:31Z</time>
      </trkpt>
      <trkpt lat="36.4267960" lon="-5.2442120">
        <ele>221.2</ele>
        <time>2019-08-28T08:07:32Z</time>
      </trkpt>
      <trkpt lat="36.4268330" lon="-5.2442170">
        <ele>221.4</ele>
        <time>2019-08-28T08:07:33Z</time>
      </trkpt>
      <trkpt lat="36.4268710" lon="-5.2442230">
        <ele>221.7</ele>
        <time>2019-08-28T08:07:34Z</time>
      </trkpt>
      <trkpt lat="36.4269100" lon="-5.2442300">
        <ele>221.9</ele>
        <time>2019-08-28T08:07:35Z</time>
      </trkpt>
      <trkpt lat="36.4269490" lon="-5.2442380">
        <ele>222.2</ele>
        <time>2019-08-28T08:07:36Z</time>
      </trkpt>
      <trkpt lat="36.4269890" lon="-5.2442470">
        <ele>222.5</ele>
        <time>2019-08-28T08:07:37Z</time>
      </trkpt>
      <trkpt lat="36.4270300" lon="-5.2442560">
        <ele>222.7</ele>
        <time>2019-08-28T08:07:38Z</time>
      </trkpt>
      <trkpt lat="36.4270710" lon="-5.2442660">
        <ele>223.0</ele>
        <time>2019-08-28T08:07:39Z</time>
      </trkpt>
      <trkpt lat="36.4271130" lon="-5.2442740">
        <ele>223.3</ele>
        <time>2019-08-28T08:07:40Z</time>
      </trkpt>
      <trkpt lat="36.4271530" lon="-5.2442830">
        <ele>223.6</ele>
        <time>2019-08-28T08:07:41Z</time>
      </trkpt>
      <trkpt lat="36.4271930" lon="-5.2442920">
        <ele>223.9</ele>
        <time>2019-08-28T08:07:42Z</time>
      </trkpt>
      <trkpt lat="36.4272340" lon="-5.2443020">
        <ele>224.2</ele>
        <time>2019-08-28T08:07:43Z</time>
      </trkpt>
      <trkpt lat="36.4272750" lon="-5.2443110">
        <ele>224.5</ele>
        <time>2019-08-28T08:07:44Z</time>
      </trkpt>
      <trkpt lat="36.4273160" lon="-5.2443190">
        <ele>224.8</ele>
        <time>2019-08-28T08:07:45Z</time>
      </trkpt>
      <trkpt lat="36.4273570" lon="-5.2443270">
        <ele>225.1</ele>
        <time>2019-08-28T08:07:46Z</time>
      </trkpt>
      <trkpt lat="36.4273960" lon="-5.2443350">
        <ele>225.4</ele>
        <time>2019-08-28T08:07:47Z</time>
      </trkpt>
      <trkpt lat="36.4274340" lon="-5.2443430">
        <ele>225.7</ele>
        <time>2019-08-28T08:07:48Z</time>
      </trkpt>
      <trkpt lat="36.4274710" lon="-5.2443510">
        <ele>226.0</ele>
        <time>2019-08-28T08:07:49Z</time>
      </trkpt>
      <trkpt lat="36.4275070" lon="-5.2443590">
        <ele>226.2</ele>
        <time>2019-08-28T08:07:50Z</time>
      </trkpt>
      <trkpt lat="36.4275420" lon="-5.2443660">
        <ele>226.5</ele>
        <time>2019-08-28T08:07:51Z</time>
      </trkpt>
      <trkpt lat="36.4275760" lon="-5.2443730">
        <ele>226.7</ele>
        <time>2019-08-28T08:07:52Z</time>
      </trkpt>
      <trkpt lat="36.4276090" lon="-5.2443800">
        <ele>227.0</ele>
        <time>2019-08-28T08:07:53Z</time>
      </trkpt>
      <trkpt lat="36.4276410" lon="-5.2443900">
        <ele>227.3</ele>
        <time>2019-08-28T08:07:54Z</time>
      </trkpt>
      <trkpt lat="36.4276720" lon="-5.2444000">
        <ele>227.5</ele>
        <time>2019-08-28T08:07:55Z</time>
      </trkpt>
      <trkpt lat="36.4277030" lon="-5.2444100">
        <ele>227.8</ele>
        <time>2019-08-28T08:07:56Z</time>
      </trkpt>
      <trkpt lat="36.4277340" lon="-5.2444190">
        <ele>228.1</ele>
        <time>2019-08-28T08:07:57Z</time>
      </trkpt>
      <trkpt lat="36.4277630" lon="-5.2444280">
        <ele>228.3</ele>
        <time>2019-08-28T08:07:58Z</time>
      </trkpt>
      <trkpt lat="36.4277920" lon="-5.2444390">
        <ele>228.6</ele>
        <time>2019-08-28T08:07:59Z</time>
      </trkpt>
      <trkpt lat="36.4278200" lon="-5.2444490">
        <ele>228.9</ele>
        <time>2019-08-28T08:08:00Z</time>
      </trkpt>
      <trkpt lat="36.4278480" lon="-5.2444590">
        <ele>229.2</ele>
        <time>2019-08-28T08:08:01Z</time>
      </trkpt>
      <trkpt lat="36.4278770" lon="-5.2444690">
        <ele>229.5</ele>
        <time>2019-08-28T08:08:02Z</time>
      </trkpt>
      <trkpt lat="36.4279050" lon="-5.2444780">
        <ele>229.7</ele>
        <time>2019-08-28T08:08:03Z</time>
      </trkpt>
      <trkpt lat="36.4279340" lon="-5.2444880">
        <ele>230.0</ele>
        <time>2019-08-28T08:08:04Z</time>
      </trkpt>
      <trkpt lat="36.4279610" lon="-5.2444990">
        <ele>230.3</ele>
        <time>2019-08-28T08:08:05Z</time>
      </trkpt>
      <trkpt lat="36.4279890" lon="-5.2445110">
        <ele>230.6</ele>
        <time>2019-08-28T08:08:06Z</time>
      </trkpt>
      <trkpt lat="36.4280160" lon="-5.2445240">
        <ele>230.9</ele>
        <time>2019-08-28T08:08:07Z</time>
      </trkpt>
      <trkpt lat="36.4280440" lon="-5.2445370">
        <ele>231.2</ele>
        <time>2019-08-28T08:08:08Z</time>
      </trkpt>
      <trkpt lat="36.4280710" lon="-5.2445510">
        <ele>231.5</ele>
        <time>2019-08-28T08:08:09Z</time>
      </trkpt>
      <trkpt lat="36.4280990" lon="-5.2445640">
        <ele>231.9</ele>
        <time>2019-08-28T08:08:10Z</time>
      </trkpt>
      <trkpt lat="36.4281260" lon="-5.2445760">
        <ele>232.2</ele>
        <time>2019-08-28T08:08:11Z</time>
      </trkpt>
      <trkpt lat="36.4281520" lon="-5.2445900">
        <ele>232.5</ele>
        <time>2019-08-28T08:08:12Z</time>
      </trkpt>
      <trkpt lat="36.4281780" lon="-5.2446030">
        <ele>232.8</ele>
        <time>2019-08-28T08:08:13Z</time>
      </trkpt>
      <trkpt lat="36.4282030" lon="-5.2446170">
        <ele>233.1</ele>
        <time>2019-08-28T08:08:14Z</time>
      </trkpt>
      <trkpt lat="36.4282270" lon="-5.2446340">
        <ele>233.4</ele>
        <time>2019-08-28T08:08:15Z</time>
      </trkpt>
      <trkpt lat="36.4282510" lon="-5.2446530">
        <ele>233.7</ele>
        <time>2019-08-28T08:08:16Z</time>
      </trkpt>
      <trkpt lat="36.4282750" lon="-5.2446710">
        <ele>234.1</ele>
        <time>2019-08-28T08:08:17Z</time>
      </trkpt>
      <trkpt lat="36.4283000" lon="-5.2446870">
        <ele>234.4</ele>
        <time>2019-08-28T08:08:18Z</time>
      </trkpt>
      <trkpt lat="36.4283230" lon="-5.2447040">
        <ele>234.7</ele>
        <time>2019-08-28T08:08:19Z</time>
      </trkpt>
      <trkpt lat="36.4283450" lon="-5.2447220">
        <ele>235.0</ele>
        <time>2019-08-28T08:08:20Z</time>
      </trkpt>
      <trkpt lat="36.4283660" lon="-5.2447410">
        <ele>235.2</ele>
        <time>2019-08-28T08:08:21Z</time>
      </trkpt>
      <trkpt lat="36.4283870" lon="-5.2447620">
        <ele>235.5</ele>
        <time>2019-08-28T08:08:22Z</time>
      </trkpt>
      <trkpt lat="36.4284070" lon="-5.2447830">
        <ele>235.7</ele>
        <time>2019-08-28T08:08:23Z</time>
      </trkpt>
      <trkpt lat="36.4284270" lon="-5.2448050">
        <ele>236.0</ele>
        <time>2019-08-28T08:08:24Z</time>
      </trkpt>
      <trkpt lat="36.4284460" lon="-5.2448290">
        <ele>236.2</ele>
        <time>2019-08-28T08:08:25Z</time>
      </trkpt>
      <trkpt lat="36.4284640" lon="-5.2448540">
        <ele>236.4</ele>
        <time>2019-08-28T08:08:26Z</time>
      </trkpt>
      <trkpt lat="36.4284820" lon="-5.2448810">
        <ele>236.6</ele>
        <time>2019-08-28T08:08:27Z</time>
      </trkpt>
      <trkpt lat="36.4285000" lon="-5.2449090">
        <ele>236.8</ele>
        <time>2019-08-28T08:08:28Z</time>
      </trkpt>
      <trkpt lat="36.4285190" lon="-5.2449370">
        <ele>237.0</ele>
        <time>2019-08-28T08:08:29Z</time>
      </trkpt>
      <trkpt lat="36.4285380" lon="-5.2449640">
        <ele>237.1</ele>
        <time>2019-08-28T08:08:30Z</time>
      </trkpt>
      <trkpt lat="36.4285570" lon="-5.2449910">
        <ele>237.3</ele>
        <time>2019-08-28T08:08:31Z</time>
      </trkpt>
      <trkpt lat="36.4285750" lon="-5.2450180">
        <ele>237.5</ele>
        <time>2019-08-28T08:08:32Z</time>
      </trkpt>
      <trkpt lat="36.4285940" lon="-5.2450450">
        <ele>237.7</ele>
        <time>2019-08-28T08:08:33Z</time>
      </trkpt>
      <trkpt lat="36.4286120" lon="-5.2450720">
        <ele>237.8</ele>
        <time>2019-08-28T08:08:34Z</time>
      </trkpt>
      <trkpt lat="36.4286310" lon="-5.2450990">
        <ele>237.9</ele>
        <time>2019-08-28T08:08:35Z</time>
      </trkpt>
      <trkpt lat="36.4286500" lon="-5.2451260">
        <ele>238.1</ele>
        <time>2019-08-28T08:08:36Z</time>
      </trkpt>
      <trkpt lat="36.4286700" lon="-5.2451520">
        <ele>238.2</ele>
        <time>2019-08-28T08:08:37Z</time>
      </trkpt>
      <trkpt lat="36.4286900" lon="-5.2451780">
        <ele>238.3</ele>
        <time>2019-08-28T08:08:38Z</time>
      </trkpt>
      <trkpt lat="36.4287110" lon="-5.2452020">
        <ele>238.5</ele>
        <time>2019-08-28T08:08:39Z</time>
      </trkpt>
      <trkpt lat="36.4287330" lon="-5.2452250">
        <ele>238.6</ele>
        <time>2019-08-28T08:08:40Z</time>
      </trkpt>
      <trkpt lat="36.4287550" lon="-5.2452480">
        <ele>238.7</ele>
        <time>2019-08-28T08:08:41Z</time>
      </trkpt>
      <trkpt lat="36.4287780" lon="-5.2452700">
        <ele>238.8</ele>
        <time>2019-08-28T08:08:42Z</time>
      </trkpt>
      <trkpt lat="36.4288010" lon="-5.2452920">
        <ele>238.9</ele>
        <time>2019-08-28T08:08:43Z</time>
      </trkpt>
      <trkpt lat="36.4288240" lon="-5.2453120">
        <ele>239.1</ele>
        <time>2019-08-28T08:08:44Z</time>
      </trkpt>
      <trkpt lat="36.4288470" lon="-5.2453330">
        <ele>239.2</ele>
        <time>2019-08-28T08:08:45Z</time>
      </trkpt>
      <trkpt lat="36.4288710" lon="-5.2453530">
        <ele>239.3</ele>
        <time>2019-08-28T08:08:46Z</time>
      </trkpt>
      <trkpt lat="36.4288950" lon="-5.2453720">
        <ele>239.4</ele>
        <time>2019-08-28T08:08:47Z</time>
      </trkpt>
      <trkpt lat="36.4289190" lon="-5.2453910">
        <ele>239.5</ele>
        <time>2019-08-28T08:08:48Z</time>
      </trkpt>
      <trkpt lat="36.4289440" lon="-5.2454100">
        <ele>239.6</ele>
        <time>2019-08-28T08:08:49Z</time>
      </trkpt>
      <trkpt lat="36.4289690" lon="-5.2454270">
        <ele>239.7</ele>
        <time>2019-08-28T08:08:50Z</time>
      </trkpt>
      <trkpt lat="36.4289950" lon="-5.2454450">
        <ele>239.8</ele>
        <time>2019-08-28T08:08:51Z</time>
      </trkpt>
      <trkpt lat="36.4290200" lon="-5.2454630">
        <ele>239.9</ele>
        <time>2019-08-28T08:08:52Z</time>
      </trkpt>
      <trkpt lat="36.4290460" lon="-5.2454800">
        <ele>240.1</ele>
        <time>2019-08-28T08:08:53Z</time>
      </trkpt>
      <trkpt lat="36.4290730" lon="-5.2454960">
        <ele>240.2</ele>
        <time>2019-08-28T08:08:54Z</time>
      </trkpt>
      <trkpt lat="36.4291010" lon="-5.2455120">
        <ele>240.3</ele>
        <time>2019-08-28T08:08:55Z</time>
      </trkpt>
      <trkpt lat="36.4291290" lon="-5.2455270">
        <ele>240.4</ele>
        <time>2019-08-28T08:08:56Z</time>
      </trkpt>
      <trkpt lat="36.4291570" lon="-5.2455420">
        <ele>240.5</ele>
        <time>2019-08-28T08:08:57Z</time>
      </trkpt>
      <trkpt lat="36.4291850" lon="-5.2455560">
        <ele>240.6</ele>
        <time>2019-08-28T08:08:58Z</time>
      </trkpt>
      <trkpt lat="36.4292140" lon="-5.2455700">
        <ele>240.7</ele>
        <time>2019-08-28T08:08:59Z</time>
      </trkpt>
      <trkpt lat="36.4292440" lon="-5.2455830">
        <ele>240.9</ele>
        <time>2019-08-28T08:09:00Z</time>
      </trkpt>
      <trkpt lat="36.4292740" lon="-5.2455950">
        <ele>241.0</ele>
        <time>2019-08-28T08:09:01Z</time>
      </trkpt>
      <trkpt lat="36.4293040" lon="-5.2456060">
        <ele>241.1</ele>
        <time>2019-08-28T08:09:02Z</time>
      </trkpt>
      <trkpt lat="36.4293350" lon="-5.2456160">
        <ele>241.3</ele>
        <time>2019-08-28T08:09:03Z</time>
      </trkpt>
      <trkpt lat="36.4293660" lon="-5.2456250">
        <ele>241.4</ele>
        <time>2019-08-28T08:09:04Z</time>
      </trkpt>
      <trkpt lat="36.4293970" lon="-5.2456340">
        <ele>241.6</ele>
        <time>2019-08-28T08:09:05Z</time>
      </trkpt>
      <trkpt lat="36.4294290" lon="-5.2456420">
        <ele>241.7</ele>
        <time>2019-08-28T08:09:06Z</time>
      </trkpt>
      <trkpt lat="36.4294610" lon="-5.2456480">
        <ele>241.8</ele>
        <time>2019-08-28T08:09:07Z</time>
      </trkpt>
      <trkpt lat="36.4294930" lon="-5.2456530">
        <ele>242.0</ele>
        <time>2019-08-28T08:09:08Z</time>
      </trkpt>
      <trkpt lat="36.4295260" lon="-5.2456580">
        <ele>242.1</ele>
        <time>2019-08-28T08:09:09Z</time>
      </trkpt>
      <trkpt lat="36.4295580" lon="-5.2456620">
        <ele>242.3</ele>
        <time>2019-08-28T08:09:10Z</time>
      </trkpt>
      <trkpt lat="36.4295910" lon="-5.2456650">
        <ele>242.4</ele>
        <time>2019-08-28T08:09:11Z</time>
      </trkpt>
      <trkpt lat="36.4296240" lon="-5.2456670">
        <ele>242.6</ele>
        <time>2019-08-28T08:09:12Z</time>
      </trkpt>
      <trkpt lat="36.4296580" lon="-5.2456680">
        <ele>242.7</ele>
        <time>2019-08-28T08:09:13Z</time>
      </trkpt>
      <trkpt lat="36.4296910" lon="-5.2456690">
        <ele>242.8</ele>
        <time>2019-08-28T08:09:14Z</time>
      </trkpt>
      <trkpt lat="36.4297240" lon="-5.2456710">
        <ele>243.0</ele>
        <time>2019-08-28T08:09:15Z</time>
      </trkpt>
      <trkpt lat="36.4297580" lon="-5.2456710">
        <ele>243.1</ele>
        <time>2019-08-28T08:09:16Z</time>
      </trkpt>
      <trkpt lat="36.4297910" lon="-5.2456720">
        <ele>243.3</ele>
        <time>2019-08-28T08:09:17Z</time>
      </trkpt>
      <trkpt lat="36.4298230" lon="-5.2456720">
        <ele>243.4</ele>
        <time>2019-08-28T08:09:18Z</time>
      </trkpt>
      <trkpt lat="36.4298540" lon="-5.2456720">
        <ele>243.6</ele>
        <time>2019-08-28T08:09:19Z</time>
      </trkpt>
      <trkpt lat="36.4298860" lon="-5.2456720">
        <ele>243.7</ele>
        <time>2019-08-28T08:09:20Z</time>
      </trkpt>
      <trkpt lat="36.4299170" lon="-5.2456720">
        <ele>243.8</ele>
        <time>2019-08-28T08:09:21Z</time>
      </trkpt>
      <trkpt lat="36.4299490" lon="-5.2456720">
        <ele>243.9</ele>
        <time>2019-08-28T08:09:22Z</time>
      </trkpt>
      <trkpt lat="36.4299820" lon="-5.2456720">
        <ele>244.0</ele>
        <time>2019-08-28T08:09:23Z</time>
      </trkpt>
      <trkpt lat="36.4300150" lon="-5.2456720">
        <ele>244.1</ele>
        <time>2019-08-28T08:09:24Z</time>
      </trkpt>
      <trkpt lat="36.4300480" lon="-5.2456720">
        <ele>244.2</ele>
        <time>2019-08-28T08:09:25Z</time>
      </trkpt>
      <trkpt lat="36.4300820" lon="-5.2456720">
        <ele>244.3</ele>
        <time>2019-08-28T08:09:26Z</time>
      </trkpt>
      <trkpt lat="36.4301160" lon="-5.2456720">
        <ele>244.4</ele>
        <time>2019-08-28T08:09:27Z</time>
      </trkpt>
      <trkpt lat="36.4301500" lon="-5.2456720">
        <ele>244.5</ele>
        <time>2019-08-28T08:09:28Z</time>
      </trkpt>
      <trkpt lat="36.4301840" lon="-5.2456730">
        <ele>244.5</ele>
        <time>2019-08-28T08:09:29Z</time>
      </trkpt>
      <trkpt lat="36.4302190" lon="-5.2456740">
        <ele>244.6</ele>
        <time>2019-08-28T08:09:30Z</time>
      </trkpt>
      <trkpt lat="36.4302540" lon="-5.2456750">
        <ele>244.6</ele>
        <time>2019-08-28T08:09:31Z</time>
      </trkpt>
      <trkpt lat="36.4302890" lon="-5.2456760">
        <ele>244.7</ele>
        <time>2019-08-28T08:09:32Z</time>
      </trkpt>
      <trkpt lat="36.4303250" lon="-5.2456780">
        <ele>244.7</ele>
        <time>2019-08-28T08:09:33Z</time>
      </trkpt>
      <trkpt lat="36.4303610" lon="-5.2456800">
        <ele>244.8</ele>
        <time>2019-08-28T08:09:34Z</time>
      </trkpt>
      <trkpt lat="36.4303980" lon="-5.2456810">
        <ele>244.8</ele>
        <time>2019-08-28T08:09:35Z</time>
      </trkpt>
      <trkpt lat="36.4304360" lon="-5.2456830">
        <ele>244.8</ele>
        <time>2019-08-28T08:09:36Z</time>
      </trkpt>
      <trkpt lat="36.4304760" lon="-5.2456850">
        <ele>244.9</ele>
        <time>2019-08-28T08:09:37Z</time>
      </trkpt>
      <trkpt lat="36.4305170" lon="-5.2456870">
        <ele>244.9</ele>
        <time>2019-08-28T08:09:38Z</time>
      </trkpt>
      <trkpt lat="36.4305580" lon="-5.2456890">
        <ele>244.9</ele>
        <time>2019-08-28T08:09:39Z</time>
      </trkpt>
      <trkpt lat="36.4306010" lon="-5.2456910">
        <ele>244.9</ele>
        <time>2019-08-28T08:09:40Z</time>
      </trkpt>
      <trkpt lat="36.4306450" lon="-5.2456950">
        <ele>245.0</ele>
        <time>2019-08-28T08:09:41Z</time>
      </trkpt>
      <trkpt lat="36.4306910" lon="-5.2457000">
        <ele>245.0</ele>
        <time>2019-08-28T08:09:42Z</time>
      </trkpt>
      <trkpt lat="36.4307380" lon="-5.2457070">
        <ele>245.1</ele>
        <time>2019-08-28T08:09:43Z</time>
      </trkpt>
      <trkpt lat="36.4307860" lon="-5.2457130">
        <ele>245.2</ele>
        <time>2019-08-28T08:09:44Z</time>
      </trkpt>
      <trkpt lat="36.4308340" lon="-5.2457190">
        <ele>245.3</ele>
        <time>2019-08-28T08:09:45Z</time>
      </trkpt>
      <trkpt lat="36.4308830" lon="-5.2457260">
        <ele>245.5</ele>
        <time>2019-08-28T08:09:46Z</time>
      </trkpt>
      <trkpt lat="36.4309340" lon="-5.2457340">
        <ele>245.7</ele>
        <time>2019-08-28T08:09:47Z</time>
      </trkpt>
      <trkpt lat="36.4309850" lon="-5.2457410">
        <ele>245.9</ele>
        <time>2019-08-28T08:09:48Z</time>
      </trkpt>
      <trkpt lat="36.4310370" lon="-5.2457480">
        <ele>246.2</ele>
        <time>2019-08-28T08:09:49Z</time>
      </trkpt>
      <trkpt lat="36.4310910" lon="-5.2457550">
        <ele>246.6</ele>
        <time>2019-08-28T08:09:50Z</time>
      </trkpt>
      <trkpt lat="36.4311460" lon="-5.2457630">
        <ele>246.9</ele>
        <time>2019-08-28T08:09:51Z</time>
      </trkpt>
      <trkpt lat="36.4312040" lon="-5.2457710">
        <ele>247.3</ele>
        <time>2019-08-28T08:09:52Z</time>
      </trkpt>
      <trkpt lat="36.4312620" lon="-5.2457800">
        <ele>247.7</ele>
        <time>2019-08-28T08:09:53Z</time>
      </trkpt>
      <trkpt lat="36.4313220" lon="-5.2457900">
        <ele>248.1</ele>
        <time>2019-08-28T08:09:54Z</time>
      </trkpt>
      <trkpt lat="36.4313830" lon="-5.2457990">
        <ele>248.4</ele>
        <time>2019-08-28T08:09:55Z</time>
      </trkpt>
      <trkpt lat="36.4314460" lon="-5.2458080">
        <ele>248.7</ele>
        <time>2019-08-28T08:09:56Z</time>
      </trkpt>
      <trkpt lat="36.4315090" lon="-5.2458180">
        <ele>248.9</ele>
        <time>2019-08-28T08:09:57Z</time>
      </trkpt>
      <trkpt lat="36.4315720" lon="-5.2458280">
        <ele>249.1</ele>
        <time>2019-08-28T08:09:58Z</time>
      </trkpt>
      <trkpt lat="36.4316350" lon="-5.2458370">
        <ele>249.2</ele>
        <time>2019-08-28T08:09:59Z</time>
      </trkpt>
      <trkpt lat="36.4316970" lon="-5.2458460">
        <ele>249.2</ele>
        <time>2019-08-28T08:10:00Z</time>
      </trkpt>
      <trkpt lat="36.4317580" lon="-5.2458520">
        <ele>249.2</ele>
        <time>2019-08-28T08:10:01Z</time>
      </trkpt>
      <trkpt lat="36.4318190" lon="-5.2458570">
        <ele>249.2</ele>
        <time>2019-08-28T08:10:02Z</time>
      </trkpt>
      <trkpt lat="36.4318790" lon="-5.2458590">
        <ele>249.1</ele>
        <time>2019-08-28T08:10:03Z</time>
      </trkpt>
      <trkpt lat="36.4319390" lon="-5.2458580">
        <ele>249.1</ele>
        <time>2019-08-28T08:10:04Z</time>
      </trkpt>
      <trkpt lat="36.4319980" lon="-5.2458530">
        <ele>249.0</ele>
        <time>2019-08-28T08:10:05Z</time>
      </trkpt>
      <trkpt lat="36.4320550" lon="-5.2458440">
        <ele>249.0</ele>
        <time>2019-08-28T08:10:06Z</time>
      </trkpt>
      <trkpt lat="36.4321120" lon="-5.2458310">
        <ele>249.0</ele>
        <time>2019-08-28T08:10:07Z</time>
      </trkpt>
      <trkpt lat="36.4321680" lon="-5.2458140">
        <ele>249.0</ele>
        <time>2019-08-28T08:10:08Z</time>
      </trkpt>
      <trkpt lat="36.4322230" lon="-5.2457950">
        <ele>249.1</ele>
        <time>2019-08-28T08:10:09Z</time>
      </trkpt>
      <trkpt lat="36.4322770" lon="-5.2457710">
        <ele>249.1</ele>
        <time>2019-08-28T08:10:10Z</time>
      </trkpt>
      <trkpt lat="36.4323300" lon="-5.2457450">
        <ele>249.2</ele>
        <time>2019-08-28T08:10:11Z</time>
      </trkpt>
      <trkpt lat="36.4323810" lon="-5.2457170">
        <ele>249.4</ele>
        <time>2019-08-28T08:10:12Z</time>
      </trkpt>
      <trkpt lat="36.4324300" lon="-5.2456870">
        <ele>249.5</ele>
        <time>2019-08-28T08:10:13Z</time>
      </trkpt>
      <trkpt lat="36.4324780" lon="-5.2456540">
        <ele>249.0</ele>
        <time>2019-08-28T08:10:14Z</time>
      </trkpt>
      <trkpt lat="36.4325250" lon="-5.2456180">
        <ele>248.4</ele>
        <time>2019-08-28T08:10:15Z</time>
      </trkpt>
      <trkpt lat="36.4325690" lon="-5.2455790">
        <ele>247.9</ele>
        <time>2019-08-28T08:10:16Z</time>
      </trkpt>
      <trkpt lat="36.4326110" lon="-5.2455370">
        <ele>247.3</ele>
        <time>2019-08-28T08:10:17Z</time>
      </trkpt>
      <trkpt lat="36.4326510" lon="-5.2454920">
        <ele>246.8</ele>
        <time>2019-08-28T08:10:18Z</time>
      </trkpt>
      <trkpt lat="36.4326900" lon="-5.2454460">
        <ele>246.2</ele>
        <time>2019-08-28T08:10:19Z</time>
      </trkpt>
      <trkpt lat="36.4327280" lon="-5.2453990">
        <ele>245.6</ele>
        <time>2019-08-28T08:10:20Z</time>
      </trkpt>
      <trkpt lat="36.4327660" lon="-5.2453510">
        <ele>245.0</ele>
        <time>2019-08-28T08:10:21Z</time>
      </trkpt>
      <trkpt lat="36.4328020" lon="-5.2453020">
        <ele>244.4</ele>
        <time>2019-08-28T08:10:22Z</time>
      </trkpt>
      <trkpt lat="36.4328380" lon="-5.2452530">
        <ele>243.8</ele>
        <time>2019-08-28T08:10:23Z</time>
      </trkpt>
      <trkpt lat="36.4328750" lon="-5.2452040">
        <ele>243.6</ele>
        <time>2019-08-28T08:10:24Z</time>
      </trkpt>
      <trkpt lat="36.4329120" lon="-5.2451560">
        <ele>243.8</ele>
        <time>2019-08-28T08:10:25Z</time>
      </trkpt>
      <trkpt lat="36.4329480" lon="-5.2451080">
        <ele>244.0</ele>
        <time>2019-08-28T08:10:26Z</time>
      </trkpt>
      <trkpt lat="36.4329830" lon="-5.2450630">
        <ele>244.2</ele>
        <time>2019-08-28T08:10:27Z</time>
      </trkpt>
      <trkpt lat="36.4330160" lon="-5.2450190">
        <ele>244.4</ele>
        <time>2019-08-28T08:10:28Z</time>
      </trkpt>
      <trkpt lat="36.4330480" lon="-5.2449790">
        <ele>244.6</ele>
        <time>2019-08-28T08:10:29Z</time>
      </trkpt>
      <trkpt lat="36.4330770" lon="-5.2449410">
        <ele>244.8</ele>
        <time>2019-08-28T08:10:30Z</time>
      </trkpt>
      <trkpt lat="36.4331040" lon="-5.2449060">
        <ele>245.0</ele>
        <time>2019-08-28T08:10:31Z</time>
      </trkpt>
      <trkpt lat="36.4331310" lon="-5.2448730">
        <ele>245.2</ele>
        <time>2019-08-28T08:10:32Z</time>
      </trkpt>
      <trkpt lat="36.4331580" lon="-5.2448400">
        <ele>245.4</ele>
        <time>2019-08-28T08:10:33Z</time>
      </trkpt>
      <trkpt lat="36.4331830" lon="-5.2448080">
        <ele>245.6</ele>
        <time>2019-08-28T08:10:34Z</time>
      </trkpt>
      <trkpt lat="36.4332070" lon="-5.2447780">
        <ele>245.8</ele>
        <time>2019-08-28T08:10:35Z</time>
      </trkpt>
      <trkpt lat="36.4332310" lon="-5.2447500">
        <ele>245.9</ele>
        <time>2019-08-28T08:10:36Z</time>
      </trkpt>
      <trkpt lat="36.4332560" lon="-5.2447230">
        <ele>246.1</ele>
        <time>2019-08-28T08:10:37Z</time>
      </trkpt>
      <trkpt lat="36.4332810" lon="-5.2446950">
        <ele>246.3</ele>
        <time>2019-08-28T08:10:38Z</time>
      </trkpt>
      <trkpt lat="36.4333050" lon="-5.2446670">
        <ele>246.4</ele>
        <time>2019-08-28T08:10:39Z</time>
      </trkpt>
      <trkpt lat="36.4333290" lon="-5.2446400">
        <ele>246.6</ele>
        <time>2019-08-28T08:10:40Z</time>
      </trkpt>
      <trkpt lat="36.4333540" lon="-5.2446140">
        <ele>246.7</ele>
        <time>2019-08-28T08:10:41Z</time>
      </trkpt>
      <trkpt lat="36.4333780" lon="-5.2445880">
        <ele>246.9</ele>
        <time>2019-08-28T08:10:42Z</time>
      </trkpt>
      <trkpt lat="36.4334050" lon="-5.2445640">
        <ele>247.1</ele>
        <time>2019-08-28T08:10:43Z</time>
      </trkpt>
      <trkpt lat="36.4334330" lon="-5.2445410">
        <ele>247.2</ele>
        <time>2019-08-28T08:10:44Z</time>
      </trkpt>
      <trkpt lat="36.4334620" lon="-5.2445190">
        <ele>247.4</ele>
        <time>2019-08-28T08:10:45Z</time>
      </trkpt>
      <trkpt lat="36.4334930" lon="-5.2445000">
        <ele>247.5</ele>
        <time>2019-08-28T08:10:46Z</time>
      </trkpt>
      <trkpt lat="36.4335230" lon="-5.2444810">
        <ele>247.7</ele>
        <time>2019-08-28T08:10:47Z</time>
      </trkpt>
      <trkpt lat="36.4335520" lon="-5.2444630">
        <ele>247.9</ele>
        <time>2019-08-28T08:10:48Z</time>
      </trkpt>
      <trkpt lat="36.4335800" lon="-5.2444460">
        <ele>248.0</ele>
        <time>2019-08-28T08:10:49Z</time>
      </trkpt>
      <trkpt lat="36.4336080" lon="-5.2444310">
        <ele>248.2</ele>
        <time>2019-08-28T08:10:50Z</time>
      </trkpt>
      <trkpt lat="36.4336370" lon="-5.2444170">
        <ele>248.3</ele>
        <time>2019-08-28T08:10:51Z</time>
      </trkpt>
      <trkpt lat="36.4336660" lon="-5.2444030">
        <ele>248.5</ele>
        <time>2019-08-28T08:10:52Z</time>
      </trkpt>
      <trkpt lat="36.4336960" lon="-5.2443920">
        <ele>248.7</ele>
        <time>2019-08-28T08:10:53Z</time>
      </trkpt>
      <trkpt lat="36.4337260" lon="-5.2443830">
        <ele>248.8</ele>
        <time>2019-08-28T08:10:54Z</time>
      </trkpt>
      <trkpt lat="36.4337550" lon="-5.2443740">
        <ele>249.0</ele>
        <time>2019-08-28T08:10:55Z</time>
      </trkpt>
      <trkpt lat="36.4337830" lon="-5.2443650">
        <ele>249.1</ele>
        <time>2019-08-28T08:10:56Z</time>
      </trkpt>
      <trkpt lat="36.4338120" lon="-5.2443570">
        <ele>249.2</ele>
        <time>2019-08-28T08:10:57Z</time>
      </trkpt>
      <trkpt lat="36.4338400" lon="-5.2443500">
        <ele>249.3</ele>
        <time>2019-08-28T08:10:58Z</time>
      </trkpt>
      <trkpt lat="36.4338680" lon="-5.2443450">
        <ele>249.4</ele>
        <time>2019-08-28T08:10:59Z</time>
      </trkpt>
      <trkpt lat="36.4338960" lon="-5.2443390">
        <ele>249.5</ele>
        <time>2019-08-28T08:11:00Z</time>
      </trkpt>
      <trkpt lat="36.4339250" lon="-5.2443340">
        <ele>249.6</ele>
        <time>2019-08-28T08:11:01Z</time>
      </trkpt>
      <trkpt lat="36.4339530" lon="-5.2443280">
        <ele>249.8</ele>
        <time>2019-08-28T08:11:02Z</time>
      </trkpt>
      <trkpt lat="36.4339820" lon="-5.2443210">
        <ele>249.9</ele>
        <time>2019-08-28T08:11:03Z</time>
      </trkpt>
      <trkpt lat="36.4340100" lon="-5.2443150">
        <ele>250.0</ele>
        <time>2019-08-28T08:11:04Z</time>
      </trkpt>
      <trkpt lat="36.4340390" lon="-5.2443100">
        <ele>250.1</ele>
        <time>2019-08-28T08:11:05Z</time>
      </trkpt>
      <trkpt lat="36.4340670" lon="-5.2443060">
        <ele>250.2</ele>
        <time>2019-08-28T08:11:06Z</time>
      </trkpt>
      <trkpt lat="36.4340950" lon="-5.2443020">
        <ele>250.4</ele>
        <time>2019-08-28T08:11:07Z</time>
      </trkpt>
      <trkpt lat="36.4341230" lon="-5.2442980">
        <ele>250.5</ele>
        <time>2019-08-28T08:11:08Z</time>
      </trkpt>
      <trkpt lat="36.4341510" lon="-5.2442950">
        <ele>250.6</ele>
        <time>2019-08-28T08:11:09Z</time>
      </trkpt>
      <trkpt lat="36.4341790" lon="-5.2442920">
        <ele>250.7</ele>
        <time>2019-08-28T08:11:10Z</time>
      </trkpt>
      <trkpt lat="36.4342080" lon="-5.2442880">
        <ele>250.9</ele>
        <time>2019-08-28T08:11:11Z</time>
      </trkpt>
      <trkpt lat="36.4342370" lon="-5.2442840">
        <ele>251.0</ele>
        <time>2019-08-28T08:11:12Z</time>
      </trkpt>
      <trkpt lat="36.4342650" lon="-5.2442800">
        <ele>251.1</ele>
        <time>2019-08-28T08:11:13Z</time>
      </trkpt>
      <trkpt lat="36.4342940" lon="-5.2442770">
        <ele>251.2</ele>
        <time>2019-08-28T08:11:14Z</time>
      </trkpt>
      <trkpt lat="36.4343230" lon="-5.2442740">
        <ele>251.3</ele>
        <time>2019-08-28T08:11:15Z</time>
      </trkpt>
      <trkpt lat="36.4343520" lon="-5.2442700">
        <ele>251.5</ele>
        <time>2019-08-28T08:11:16Z</time>
      </trkpt>
      <trkpt lat="36.4343800" lon="-5.2442650">
        <ele>251.6</ele>
        <time>2019-08-28T08:11:17Z</time>
      </trkpt>
      <trkpt lat="36.4344090" lon="-5.2442600">
        <ele>251.7</ele>
        <time>2019-08-28T08:11:18Z</time>
      </trkpt>
      <trkpt lat="36.4344360" lon="-5.2442540">
        <ele>251.8</ele>
        <time>2019-08-28T08:11:19Z</time>
      </trkpt>
      <trkpt lat="36.4344630" lon="-5.2442490">
        <ele>252.0</ele>
        <time>2019-08-28T08:11:20Z</time>
      </trkpt>
      <trkpt lat="36.4344900" lon="-5.2442440">
        <ele>252.1</ele>
        <time>2019-08-28T08:11:21Z</time>
      </trkpt>
      <trkpt lat="36.4345170" lon="-5.2442390">
        <ele>252.2</ele>
        <time>2019-08-28T08:11:22Z</time>
      </trkpt>
      <trkpt lat="36.4345450" lon="-5.2442360">
        <ele>252.3</ele>
        <time>2019-08-28T08:11:23Z</time>
      </trkpt>
      <trkpt lat="36.4345730" lon="-5.2442340">
        <ele>252.4</ele>
        <time>2019-08-28T08:11:24Z</time>
      </trkpt>
      <trkpt lat="36.4346020" lon="-5.2442310">
        <ele>252.5</ele>
        <time>2019-08-28T08:11:25Z</time>
      </trkpt>
      <trkpt lat="36.4346300" lon="-5.2442280">
        <ele>252.6</ele>
        <time>2019-08-28T08:11:26Z</time>
      </trkpt>
      <trkpt lat="36.4346590" lon="-5.2442240">
        <ele>252.8</ele>
        <time>2019-08-28T08:11:27Z</time>
      </trkpt>
      <trkpt lat="36.4346880" lon="-5.2442190">
        <ele>252.9</ele>
        <time>2019-08-28T08:11:28Z</time>
      </trkpt>
      <trkpt lat="36.4347170" lon="-5.2442130">
        <ele>253.0</ele>
        <time>2019-08-28T08:11:29Z</time>
      </trkpt>
      <trkpt lat="36.4347460" lon="-5.2442070">
        <ele>253.1</ele>
        <time>2019-08-28T08:11:30Z</time>
      </trkpt>
      <trkpt lat="36.4347760" lon="-5.2442040">
        <ele>253.2</ele>
        <time>2019-08-28T08:11:31Z</time>
      </trkpt>
      <trkpt lat="36.4348060" lon="-5.2442000">
        <ele>253.4</ele>
        <time>2019-08-28T08:11:32Z</time>
      </trkpt>
      <trkpt lat="36.4348360" lon="-5.2441960">
        <ele>253.6</ele>
        <time>2019-08-28T08:11:33Z</time>
      </trkpt>
      <trkpt lat="36.4348660" lon="-5.2441900">
        <ele>253.7</ele>
        <time>2019-08-28T08:11:34Z</time>
      </trkpt>
      <trkpt lat="36.4348960" lon="-5.2441840">
        <ele>253.9</ele>
        <time>2019-08-28T08:11:35Z</time>
      </trkpt>
      <trkpt lat="36.4349260" lon="-5.2441790">
        <ele>254.0</ele>
        <time>2019-08-28T08:11:36Z</time>
      </trkpt>
      <trkpt lat="36.4349560" lon="-5.2441750">
        <ele>254.2</ele>
        <time>2019-08-28T08:11:37Z</time>
      </trkpt>
      <trkpt lat="36.4349860" lon="-5.2441700">
        <ele>254.3</ele>
        <time>2019-08-28T08:11:38Z</time>
      </trkpt>
      <trkpt lat="36.4350160" lon="-5.2441650">
        <ele>254.5</ele>
        <time>2019-08-28T08:11:39Z</time>
      </trkpt>
      <trkpt lat="36.4350460" lon="-5.2441590">
        <ele>254.6</ele>
        <time>2019-08-28T08:11:40Z</time>
      </trkpt>
      <trkpt lat="36.4350750" lon="-5.2441540">
        <ele>254.7</ele>
        <time>2019-08-28T08:11:41Z</time>
      </trkpt>
      <trkpt lat="36.4351040" lon="-5.2441500">
        <ele>254.8</ele>
        <time>2019-08-28T08:11:42Z</time>
      </trkpt>
      <trkpt lat="36.4351330" lon="-5.2441460">
        <ele>255.0</ele>
        <time>2019-08-28T08:11:43Z</time>
      </trkpt>
      <trkpt lat="36.4351610" lon="-5.2441410">
        <ele>255.1</ele>
        <time>2019-08-28T08:11:44Z</time>
      </trkpt>
      <trkpt lat="36.4351880" lon="-5.2441370">
        <ele>255.2</ele>
        <time>2019-08-28T08:11:45Z</time>
      </trkpt>
      <trkpt lat="36.4352160" lon="-5.2441340">
        <ele>255.3</ele>
        <time>2019-08-28T08:11:46Z</time>
      </trkpt>
      <trkpt lat="36.4352440" lon="-5.2441350">
        <ele>255.5</ele>
        <time>2019-08-28T08:11:47Z</time>
      </trkpt>
      <trkpt lat="36.4352710" lon="-5.2441400">
        <ele>255.6</ele>
        <time>2019-08-28T08:11:48Z</time>
      </trkpt>
      <trkpt lat="36.4352990" lon="-5.2441480">
        <ele>255.7</ele>
        <time>2019-08-28T08:11:49Z</time>
      </trkpt>
      <trkpt lat="36.4353270" lon="-5.2441590">
        <ele>256.2</ele>
        <time>2019-08-28T08:11:50Z</time>
      </trkpt>
      <trkpt lat="36.4353560" lon="-5.2441730">
        <ele>256.4</ele>
        <time>2019-08-28T08:11:51Z</time>
      </trkpt>
      <trkpt lat="36.4353850" lon="-5.2441870">
        <ele>256.6</ele>
        <time>2019-08-28T08:11:52Z</time>
      </trkpt>
      <trkpt lat="36.4354120" lon="-5.2442010">
        <ele>256.9</ele>
        <time>2019-08-28T08:11:53Z</time>
      </trkpt>
      <trkpt lat="36.4354390" lon="-5.2442150">
        <ele>257.1</ele>
        <time>2019-08-28T08:11:54Z</time>
      </trkpt>
      <trkpt lat="36.4354660" lon="-5.2442290">
        <ele>257.4</ele>
        <time>2019-08-28T08:11:55Z</time>
      </trkpt>
      <trkpt lat="36.4354930" lon="-5.2442430">
        <ele>257.6</ele>
        <time>2019-08-28T08:11:56Z</time>
      </trkpt>
      <trkpt lat="36.4355200" lon="-5.2442550">
        <ele>257.9</ele>
        <time>2019-08-28T08:11:57Z</time>
      </trkpt>
      <trkpt lat="36.4355460" lon="-5.2442680">
        <ele>258.1</ele>
        <time>2019-08-28T08:11:58Z</time>
      </trkpt>
      <trkpt lat="36.4355720" lon="-5.2442800">
        <ele>258.3</ele>
        <time>2019-08-28T08:11:59Z</time>
      </trkpt>
      <trkpt lat="36.4355980" lon="-5.2442930">
        <ele>258.5</ele>
        <time>2019-08-28T08:12:00Z</time>
      </trkpt>
      <trkpt lat="36.4356250" lon="-5.2443040">
        <ele>258.7</ele>
        <time>2019-08-28T08:12:01Z</time>
      </trkpt>
      <trkpt lat="36.4356510" lon="-5.2443160">
        <ele>258.9</ele>
        <time>2019-08-28T08:12:02Z</time>
      </trkpt>
      <trkpt lat="36.4356770" lon="-5.2443280">
        <ele>259.1</ele>
        <time>2019-08-28T08:12:03Z</time>
      </trkpt>
      <trkpt lat="36.4357020" lon="-5.2443400">
        <ele>259.3</ele>
        <time>2019-08-28T08:12:04Z</time>
      </trkpt>
      <trkpt lat="36.4357270" lon="-5.2443530">
        <ele>259.5</ele>
        <time>2019-08-28T08:12:05Z</time>
      </trkpt>
      <trkpt lat="36.4357520" lon="-5.2443660">
        <ele>259.7</ele>
        <time>2019-08-28T08:12:06Z</time>
      </trkpt>
      <trkpt lat="36.4357780" lon="-5.2443780">
        <ele>259.9</ele>
        <time>2019-08-28T08:12:07Z</time>
      </trkpt>
      <trkpt lat="36.4358040" lon="-5.2443900">
        <ele>260.0</ele>
        <time>2019-08-28T08:12:08Z</time>
      </trkpt>
      <trkpt lat="36.4358300" lon="-5.2444010">
        <ele>260.2</ele>
        <time>2019-08-28T08:12:09Z</time>
      </trkpt>
      <trkpt lat="36.4358580" lon="-5.2444110">
        <ele>260.4</ele>
        <time>2019-08-28T08:12:10Z</time>
      </trkpt>
      <trkpt lat="36.4358850" lon="-5.2444210">
        <ele>260.6</ele>
        <time>2019-08-28T08:12:11Z</time>
      </trkpt>
      <trkpt lat="36.4359120" lon="-5.2444310">
        <ele>260.7</ele>
        <time>2019-08-28T08:12:12Z</time>
      </trkpt>
      <trkpt lat="36.4359380" lon="-5.2444420">
        <ele>260.9</ele>
        <time>2019-08-28T08:12:13Z</time>
      </trkpt>
      <trkpt lat="36.4359640" lon="-5.2444520">
        <ele>261.1</ele>
        <time>2019-08-28T08:12:14Z</time>
      </trkpt>
      <trkpt lat="36.4359910" lon="-5.2444620">
        <ele>261.3</ele>
        <time>2019-08-28T08:12:15Z</time>
      </trkpt>
      <trkpt lat="36.4360170" lon="-5.2444710">
        <ele>261.4</ele>
        <time>2019-08-28T08:12:16Z</time>
      </trkpt>
      <trkpt lat="36.4360440" lon="-5.2444810">
        <ele>261.6</ele>
        <time>2019-08-28T08:12:17Z</time>
      </trkpt>
      <trkpt lat="36.4360700" lon="-5.2444910">
        <ele>261.8</ele>
        <time>2019-08-28T08:12:18Z</time>
      </trkpt>
      <trkpt lat="36.4360960" lon="-5.2445010">
        <ele>262.0</ele>
        <time>2019-08-28T08:12:19Z</time>
      </trkpt>
      <trkpt lat="36.4361210" lon="-5.2445090">
        <ele>262.2</ele>
        <time>2019-08-28T08:12:20Z</time>
      </trkpt>
      <trkpt lat="36.4361470" lon="-5.2445170">
        <ele>262.4</ele>
        <time>2019-08-28T08:12:21Z</time>
      </trkpt>
      <trkpt lat="36.4361740" lon="-5.2445240">
        <ele>262.6</ele>
        <time>2019-08-28T08:12:22Z</time>
      </trkpt>
      <trkpt lat="36.4362010" lon="-5.2445290">
        <ele>262.8</ele>
        <time>2019-08-28T08:12:23Z</time>
      </trkpt>
      <trkpt lat="36.4362280" lon="-5.2445330">
        <ele>263.0</ele>
        <time>2019-08-28T08:12:24Z</time>
      </trkpt>
      <trkpt lat="36.4362560" lon="-5.2445370">
        <ele>263.3</ele>
        <time>2019-08-28T08:12:25Z</time>
      </trkpt>
      <trkpt lat="36.4362830" lon="-5.2445410">
        <ele>263.5</ele>
        <time>2019-08-28T08:12:26Z</time>
      </trkpt>
      <trkpt lat="36.4363110" lon="-5.2445460">
        <ele>263.7</ele>
        <time>2019-08-28T08:12:27Z</time>
      </trkpt>
      <trkpt lat="36.4363380" lon="-5.2445500">
        <ele>264.0</ele>
        <time>2019-08-28T08:12:28Z</time>
      </trkpt>
      <trkpt lat="36.4363660" lon="-5.2445540">
        <ele>264.2</ele>
        <time>2019-08-28T08:12:29Z</time>
      </trkpt>
      <trkpt lat="36.4363920" lon="-5.2445570">
        <ele>264.4</ele>
        <time>2019-08-28T08:12:30Z</time>
      </trkpt>
      <trkpt lat="36.4364200" lon="-5.2445590">
        <ele>264.6</ele>
        <time>2019-08-28T08:12:31Z</time>
      </trkpt>
      <trkpt lat="36.4364470" lon="-5.2445610">
        <ele>264.8</ele>
        <time>2019-08-28T08:12:32Z</time>
      </trkpt>
      <trkpt lat="36.4364750" lon="-5.2445630">
        <ele>265.0</ele>
        <time>2019-08-28T08:12:33Z</time>
      </trkpt>
      <trkpt lat="36.4365020" lon="-5.2445640">
        <ele>265.1</ele>
        <time>2019-08-28T08:12:34Z</time>
      </trkpt>
      <trkpt lat="36.4365300" lon="-5.2445650">
        <ele>265.3</ele>
        <time>2019-08-28T08:12:35Z</time>
      </trkpt>
      <trkpt lat="36.4365580" lon="-5.2445660">
        <ele>265.4</ele>
        <time>2019-08-28T08:12:36Z</time>
      </trkpt>
      <trkpt lat="36.4365850" lon="-5.2445670">
        <ele>265.6</ele>
        <time>2019-08-28T08:12:37Z</time>
      </trkpt>
      <trkpt lat="36.4366130" lon="-5.2445680">
        <ele>265.7</ele>
        <time>2019-08-28T08:12:38Z</time>
      </trkpt>
      <trkpt lat="36.4366400" lon="-5.2445690">
        <ele>265.9</ele>
        <time>2019-08-28T08:12:39Z</time>
      </trkpt>
      <trkpt lat="36.4366680" lon="-5.2445690">
        <ele>266.1</ele>
        <time>2019-08-28T08:12:40Z</time>
      </trkpt>
      <trkpt lat="36.4366960" lon="-5.2445700">
        <ele>266.2</ele>
        <time>2019-08-28T08:12:41Z</time>
      </trkpt>
      <trkpt lat="36.4367240" lon="-5.2445710">
        <ele>266.4</ele>
        <time>2019-08-28T08:12:42Z</time>
      </trkpt>
      <trkpt lat="36.4367520" lon="-5.2445710">
        <ele>266.6</ele>
        <time>2019-08-28T08:12:43Z</time>
      </trkpt>
      <trkpt lat="36.4367800" lon="-5.2445710">
        <ele>266.8</ele>
        <time>2019-08-28T08:12:44Z</time>
      </trkpt>
      <trkpt lat="36.4368080" lon="-5.2445710">
        <ele>267.0</ele>
        <time>2019-08-28T08:12:45Z</time>
      </trkpt>
      <trkpt lat="36.4368350" lon="-5.2445710">
        <ele>267.2</ele>
        <time>2019-08-28T08:12:46Z</time>
      </trkpt>
      <trkpt lat="36.4368630" lon="-5.2445700">
        <ele>267.4</ele>
        <time>2019-08-28T08:12:47Z</time>
      </trkpt>
      <trkpt lat="36.4368910" lon="-5.2445690">
        <ele>267.6</ele>
        <time>2019-08-28T08:12:48Z</time>
      </trkpt>
      <trkpt lat="36.4369180" lon="-5.2445670">
        <ele>267.8</ele>
        <time>2019-08-28T08:12:49Z</time>
      </trkpt>
      <trkpt lat="36.4369460" lon="-5.2445650">
        <ele>268.0</ele>
        <time>2019-08-28T08:12:50Z</time>
      </trkpt>
      <trkpt lat="36.4369740" lon="-5.2445630">
        <ele>268.2</ele>
        <time>2019-08-28T08:12:51Z</time>
      </trkpt>
      <trkpt lat="36.4370020" lon="-5.2445630">
        <ele>268.4</ele>
        <time>2019-08-28T08:12:52Z</time>
      </trkpt>
      <trkpt lat="36.4370300" lon="-5.2445610">
        <ele>268.6</ele>
        <time>2019-08-28T08:12:53Z</time>
      </trkpt>
      <trkpt lat="36.4370590" lon="-5.2445590">
        <ele>268.8</ele>
        <time>2019-08-28T08:12:54Z</time>
      </trkpt>
      <trkpt lat="36.4370870" lon="-5.2445550">
        <ele>269.0</ele>
        <time>2019-08-28T08:12:55Z</time>
      </trkpt>
      <trkpt lat="36.4371160" lon="-5.2445510">
        <ele>269.2</ele>
        <time>2019-08-28T08:12:56Z</time>
      </trkpt>
      <trkpt lat="36.4371450" lon="-5.2445450">
        <ele>269.4</ele>
        <time>2019-08-28T08:12:57Z</time>
      </trkpt>
      <trkpt lat="36.4371740" lon="-5.2445400">
        <ele>269.6</ele>
        <time>2019-08-28T08:12:58Z</time>
      </trkpt>
      <trkpt lat="36.4372030" lon="-5.2445350">
        <ele>269.8</ele>
        <time>2019-08-28T08:12:59Z</time>
      </trkpt>
      <trkpt lat="36.4372320" lon="-5.2445300">
        <ele>270.0</ele>
        <time>2019-08-28T08:13:00Z</time>
      </trkpt>
      <trkpt lat="36.4372620" lon="-5.2445240">
        <ele>270.2</ele>
        <time>2019-08-28T08:13:01Z</time>
      </trkpt>
      <trkpt lat="36.4372910" lon="-5.2445180">
        <ele>270.4</ele>
        <time>2019-08-28T08:13:02Z</time>
      </trkpt>
      <trkpt lat="36.4373200" lon="-5.2445110">
        <ele>270.6</ele>
        <time>2019-08-28T08:13:03Z</time>
      </trkpt>
      <trkpt lat="36.4373500" lon="-5.2445050">
        <ele>270.8</ele>
        <time>2019-08-28T08:13:04Z</time>
      </trkpt>
      <trkpt lat="36.4373800" lon="-5.2444990">
        <ele>271.0</ele>
        <time>2019-08-28T08:13:05Z</time>
      </trkpt>
      <trkpt lat="36.4374090" lon="-5.2444930">
        <ele>271.2</ele>
        <time>2019-08-28T08:13:06Z</time>
      </trkpt>
      <trkpt lat="36.4374400" lon="-5.2444870">
        <ele>271.4</ele>
        <time>2019-08-28T08:13:07Z</time>
      </trkpt>
      <trkpt lat="36.4374690" lon="-5.2444810">
        <ele>271.5</ele>
        <time>2019-08-28T08:13:08Z</time>
      </trkpt>
      <trkpt lat="36.4374990" lon="-5.2444750">
        <ele>271.7</ele>
        <time>2019-08-28T08:13:09Z</time>
      </trkpt>
      <trkpt lat="36.4375280" lon="-5.2444690">
        <ele>271.9</ele>
        <time>2019-08-28T08:13:10Z</time>
      </trkpt>
      <trkpt lat="36.4375580" lon="-5.2444630">
        <ele>272.0</ele>
        <time>2019-08-28T08:13:11Z</time>
      </trkpt>
      <trkpt lat="36.4375880" lon="-5.2444570">
        <ele>272.2</ele>
        <time>2019-08-28T08:13:12Z</time>
      </trkpt>
      <trkpt lat="36.4376180" lon="-5.2444510">
        <ele>272.4</ele>
        <time>2019-08-28T08:13:13Z</time>
      </trkpt>
      <trkpt lat="36.4376490" lon="-5.2444450">
        <ele>272.5</ele>
        <time>2019-08-28T08:13:14Z</time>
      </trkpt>
      <trkpt lat="36.4376790" lon="-5.2444390">
        <ele>272.7</ele>
        <time>2019-08-28T08:13:15Z</time>
      </trkpt>
      <trkpt lat="36.4377100" lon="-5.2444340">
        <ele>272.9</ele>
        <time>2019-08-28T08:13:16Z</time>
      </trkpt>
      <trkpt lat="36.4377410" lon="-5.2444280">
        <ele>273.0</ele>
        <time>2019-08-28T08:13:17Z</time>
      </trkpt>
      <trkpt lat="36.4377710" lon="-5.2444210">
        <ele>273.2</ele>
        <time>2019-08-28T08:13:18Z</time>
      </trkpt>
      <trkpt lat="36.4378020" lon="-5.2444140">
        <ele>273.3</ele>
        <time>2019-08-28T08:13:19Z</time>
      </trkpt>
      <trkpt lat="36.4378320" lon="-5.2444090">
        <ele>273.5</ele>
        <time>2019-08-28T08:13:20Z</time>
      </trkpt>
      <trkpt lat="36.4378630" lon="-5.2444050">
        <ele>273.6</ele>
        <time>2019-08-28T08:13:21Z</time>
      </trkpt>
      <trkpt lat="36.4378930" lon="-5.2444010">
        <ele>273.8</ele>
        <time>2019-08-28T08:13:22Z</time>
      </trkpt>
      <trkpt lat="36.4379230" lon="-5.2443950">
        <ele>273.9</ele>
        <time>2019-08-28T08:13:23Z</time>
      </trkpt>
      <trkpt lat="36.4379540" lon="-5.2443890">
        <ele>274.1</ele>
        <time>2019-08-28T08:13:24Z</time>
      </trkpt>
      <trkpt lat="36.4379840" lon="-5.2443820">
        <ele>274.3</ele>
        <time>2019-08-28T08:13:25Z</time>
      </trkpt>
      <trkpt lat="36.4380140" lon="-5.2443750">
        <ele>274.4</ele>
        <time>2019-08-28T08:13:26Z</time>
      </trkpt>
      <trkpt lat="36.4380450" lon="-5.2443680">
        <ele>274.6</ele>
        <time>2019-08-28T08:13:27Z</time>
      </trkpt>
      <trkpt lat="36.4380760" lon="-5.2443620">
        <ele>274.7</ele>
        <time>2019-08-28T08:13:28Z</time>
      </trkpt>
      <trkpt lat="36.4381070" lon="-5.2443560">
        <ele>274.9</ele>
        <time>2019-08-28T08:13:29Z</time>
      </trkpt>
      <trkpt lat="36.4381380" lon="-5.2443510">
        <ele>275.0</ele>
        <time>2019-08-28T08:13:30Z</time>
      </trkpt>
      <trkpt lat="36.4381690" lon="-5.2443450">
        <ele>275.2</ele>
        <time>2019-08-28T08:13:31Z</time>
      </trkpt>
      <trkpt lat="36.4382000" lon="-5.2443390">
        <ele>275.3</ele>
        <time>2019-08-28T08:13:32Z</time>
      </trkpt>
      <trkpt lat="36.4382320" lon="-5.2443320">
        <ele>275.5</ele>
        <time>2019-08-28T08:13:33Z</time>
      </trkpt>
      <trkpt lat="36.4382630" lon="-5.2443250">
        <ele>275.6</ele>
        <time>2019-08-28T08:13:34Z</time>
      </trkpt>
      <trkpt lat="36.4382950" lon="-5.2443190">
        <ele>275.8</ele>
        <time>2019-08-28T08:13:35Z</time>
      </trkpt>
      <trkpt lat="36.4383280" lon="-5.2443130">
        <ele>275.9</ele>
        <time>2019-08-28T08:13:36Z</time>
      </trkpt>
      <trkpt lat="36.4383600" lon="-5.2443060">
        <ele>276.1</ele>
        <time>2019-08-28T08:13:37Z</time>
      </trkpt>
      <trkpt lat="36.4383920" lon="-5.2442990">
        <ele>276.3</ele>
        <time>2019-08-28T08:13:38Z</time>
      </trkpt>
      <trkpt lat="36.4384240" lon="-5.2442920">
        <ele>276.4</ele>
        <time>2019-08-28T08:13:39Z</time>
      </trkpt>
      <trkpt lat="36.4384560" lon="-5.2442860">
        <ele>276.6</ele>
        <time>2019-08-28T08:13:40Z</time>
      </trkpt>
      <trkpt lat="36.4384880" lon="-5.2442780">
        <ele>276.8</ele>
        <time>2019-08-28T08:13:41Z</time>
      </trkpt>
      <trkpt lat="36.4385190" lon="-5.2442710">
        <ele>276.9</ele>
        <time>2019-08-28T08:13:42Z</time>
      </trkpt>
      <trkpt lat="36.4385510" lon="-5.2442630">
        <ele>277.1</ele>
        <time>2019-08-28T08:13:43Z</time>
      </trkpt>
      <trkpt lat="36.4385820" lon="-5.2442550">
        <ele>277.3</ele>
        <time>2019-08-28T08:13:44Z</time>
      </trkpt>
      <trkpt lat="36.4386140" lon="-5.2442460">
        <ele>277.4</ele>
        <time>2019-08-28T08:13:45Z</time>
      </trkpt>
      <trkpt lat="36.4386460" lon="-5.2442360">
        <ele>277.6</ele>
        <time>2019-08-28T08:13:46Z</time>
      </trkpt>
      <trkpt lat="36.4386780" lon="-5.2442250">
        <ele>277.7</ele>
        <time>2019-08-28T08:13:47Z</time>
      </trkpt>
      <trkpt lat="36.4387090" lon="-5.2442130">
        <ele>277.9</ele>
        <time>2019-08-28T08:13:48Z</time>
      </trkpt>
      <trkpt lat="36.4387410" lon="-5.2442010">
        <ele>278.0</ele>
        <time>2019-08-28T08:13:49Z</time>
      </trkpt>
      <trkpt lat="36.4387720" lon="-5.2441880">
        <ele>278.1</ele>
        <time>2019-08-28T08:13:50Z</time>
      </trkpt>
      <trkpt lat="36.4388030" lon="-5.2441740">
        <ele>278.3</ele>
        <time>2019-08-28T08:13:51Z</time>
      </trkpt>
      <trkpt lat="36.4388340" lon="-5.2441600">
        <ele>278.4</ele>
        <time>2019-08-28T08:13:52Z</time>
      </trkpt>
      <trkpt lat="36.4388650" lon="-5.2441450">
        <ele>278.5</ele>
        <time>2019-08-28T08:13:53Z</time>
      </trkpt>
      <trkpt lat="36.4388970" lon="-5.2441300">
        <ele>278.6</ele>
        <time>2019-08-28T08:13:54Z</time>
      </trkpt>
      <trkpt lat="36.4389290" lon="-5.2441130">
        <ele>278.7</ele>
        <time>2019-08-28T08:13:55Z</time>
      </trkpt>
      <trkpt lat="36.4389600" lon="-5.2440950">
        <ele>278.8</ele>
        <time>2019-08-28T08:13:56Z</time>
      </trkpt>
      <trkpt lat="36.4389920" lon="-5.2440760">
        <ele>279.0</ele>
        <time>2019-08-28T08:13:57Z</time>
      </trkpt>
      <trkpt lat="36.4390250" lon="-5.2440580">
        <ele>279.1</ele>
        <time>2019-08-28T08:13:58Z</time>
      </trkpt>
      <trkpt lat="36.4390560" lon="-5.2440380">
        <ele>279.2</ele>
        <time>2019-08-28T08:13:59Z</time>
      </trkpt>
      <trkpt lat="36.4390870" lon="-5.2440170">
        <ele>279.3</ele>
        <time>2019-08-28T08:14:00Z</time>
      </trkpt>
      <trkpt lat="36.4391170" lon="-5.2439960">
        <ele>279.4</ele>
        <time>2019-08-28T08:14:01Z</time>
      </trkpt>
      <trkpt lat="36.4391480" lon="-5.2439740">
        <ele>279.5</ele>
        <time>2019-08-28T08:14:02Z</time>
      </trkpt>
      <trkpt lat="36.4391780" lon="-5.2439530">
        <ele>279.6</ele>
        <time>2019-08-28T08:14:03Z</time>
      </trkpt>
      <trkpt lat="36.4392070" lon="-5.2439330">
        <ele>279.7</ele>
        <time>2019-08-28T08:14:04Z</time>
      </trkpt>
      <trkpt lat="36.4392370" lon="-5.2439110">
        <ele>279.9</ele>
        <time>2019-08-28T08:14:05Z</time>
      </trkpt>
      <trkpt lat="36.4392650" lon="-5.2438890">
        <ele>280.0</ele>
        <time>2019-08-28T08:14:06Z</time>
      </trkpt>
      <trkpt lat="36.4392930" lon="-5.2438660">
        <ele>280.1</ele>
        <time>2019-08-28T08:14:07Z</time>
      </trkpt>
      <trkpt lat="36.4393200" lon="-5.2438410">
        <ele>280.2</ele>
        <time>2019-08-28T08:14:08Z</time>
      </trkpt>
      <trkpt lat="36.4393470" lon="-5.2438160">
        <ele>280.3</ele>
        <time>2019-08-28T08:14:09Z</time>
      </trkpt>
      <trkpt lat="36.4393750" lon="-5.2437910">
        <ele>280.4</ele>
        <time>2019-08-28T08:14:10Z</time>
      </trkpt>
      <trkpt lat="36.4394020" lon="-5.2437660">
        <ele>280.5</ele>
        <time>2019-08-28T08:14:11Z</time>
      </trkpt>
      <trkpt lat="36.4394270" lon="-5.2437400">
        <ele>280.6</ele>
        <time>2019-08-28T08:14:12Z</time>
      </trkpt>
      <trkpt lat="36.4394520" lon="-5.2437130">
        <ele>280.8</ele>
        <time>2019-08-28T08:14:13Z</time>
      </trkpt>
      <trkpt lat="36.4394750" lon="-5.2436840">
        <ele>280.9</ele>
        <time>2019-08-28T08:14:14Z</time>
      </trkpt>
      <trkpt lat="36.4394980" lon="-5.2436540">
        <ele>281.0</ele>
        <time>2019-08-28T08:14:15Z</time>
      </trkpt>
      <trkpt lat="36.4395200" lon="-5.2436230">
        <ele>281.1</ele>
        <time>2019-08-28T08:14:16Z</time>
      </trkpt>
      <trkpt lat="36.4395420" lon="-5.2435920">
        <ele>281.2</ele>
        <time>2019-08-28T08:14:17Z</time>
      </trkpt>
      <trkpt lat="36.4395630" lon="-5.2435610">
        <ele>281.3</ele>
        <time>2019-08-28T08:14:18Z</time>
      </trkpt>
      <trkpt lat="36.4395840" lon="-5.2435300">
        <ele>281.4</ele>
        <time>2019-08-28T08:14:19Z</time>
      </trkpt>
      <trkpt lat="36.4396050" lon="-5.2435000">
        <ele>281.6</ele>
        <time>2019-08-28T08:14:20Z</time>
      </trkpt>
      <trkpt lat="36.4396250" lon="-5.2434710">
        <ele>281.7</ele>
        <time>2019-08-28T08:14:21Z</time>
      </trkpt>
      <trkpt lat="36.4396450" lon="-5.2434430">
        <ele>281.8</ele>
        <time>2019-08-28T08:14:22Z</time>
      </trkpt>
      <trkpt lat="36.4396640" lon="-5.2434160">
        <ele>281.9</ele>
        <time>2019-08-28T08:14:23Z</time>
      </trkpt>
      <trkpt lat="36.4396830" lon="-5.2433870">
        <ele>282.0</ele>
        <time>2019-08-28T08:14:24Z</time>
      </trkpt>
      <trkpt lat="36.4397020" lon="-5.2433590">
        <ele>282.1</ele>
        <time>2019-08-28T08:14:25Z</time>
      </trkpt>
      <trkpt lat="36.4397210" lon="-5.2433300">
        <ele>282.2</ele>
        <time>2019-08-28T08:14:26Z</time>
      </trkpt>
      <trkpt lat="36.4397400" lon="-5.2433010">
        <ele>282.3</ele>
        <time>2019-08-28T08:14:27Z</time>
      </trkpt>
      <trkpt lat="36.4397590" lon="-5.2432720">
        <ele>282.4</ele>
        <time>2019-08-28T08:14:28Z</time>
      </trkpt>
      <trkpt lat="36.4397780" lon="-5.2432440">
        <ele>282.5</ele>
        <time>2019-08-28T08:14:29Z</time>
      </trkpt>
      <trkpt lat="36.4397960" lon="-5.2432150">
        <ele>282.7</ele>
        <time>2019-08-28T08:14:30Z</time>
      </trkpt>
      <trkpt lat="36.4398150" lon="-5.2431880">
        <ele>282.8</ele>
        <time>2019-08-28T08:14:31Z</time>
      </trkpt>
      <trkpt lat="36.4398350" lon="-5.2431610">
        <ele>282.9</ele>
        <time>2019-08-28T08:14:32Z</time>
      </trkpt>
      <trkpt lat="36.4398540" lon="-5.2431340">
        <ele>283.0</ele>
        <time>2019-08-28T08:14:33Z</time>
      </trkpt>
      <trkpt lat="36.4398750" lon="-5.2431080">
        <ele>283.2</ele>
        <time>2019-08-28T08:14:34Z</time>
      </trkpt>
      <trkpt lat="36.4398950" lon="-5.2430820">
        <ele>283.3</ele>
        <time>2019-08-28T08:14:35Z</time>
      </trkpt>
      <trkpt lat="36.4399150" lon="-5.2430560">
        <ele>283.5</ele>
        <time>2019-08-28T08:14:36Z</time>
      </trkpt>
      <trkpt lat="36.4399340" lon="-5.2430280">
        <ele>283.6</ele>
        <time>2019-08-28T08:14:37Z</time>
      </trkpt>
      <trkpt lat="36.4399530" lon="-5.2430010">
        <ele>283.8</ele>
        <time>2019-08-28T08:14:38Z</time>
      </trkpt>
      <trkpt lat="36.4399730" lon="-5.2429750">
        <ele>284.0</ele>
        <time>2019-08-28T08:14:39Z</time>
      </trkpt>
      <trkpt lat="36.4399950" lon="-5.2429510">
        <ele>284.2</ele>
        <time>2019-08-28T08:14:40Z</time>
      </trkpt>
      <trkpt lat="36.4400170" lon="-5.2429290">
        <ele>284.4</ele>
        <time>2019-08-28T08:14:41Z</time>
      </trkpt>
      <trkpt lat="36.4400390" lon="-5.2429080">
        <ele>284.6</ele>
        <time>2019-08-28T08:14:42Z</time>
      </trkpt>
      <trkpt lat="36.4400610" lon="-5.2428860">
        <ele>284.8</ele>
        <time>2019-08-28T08:14:43Z</time>
      </trkpt>
      <trkpt lat="36.4400820" lon="-5.2428630">
        <ele>285.0</ele>
        <time>2019-08-28T08:14:44Z</time>
      </trkpt>
      <trkpt lat="36.4401020" lon="-5.2428390">
        <ele>285.2</ele>
        <time>2019-08-28T08:14:45Z</time>
      </trkpt>
      <trkpt lat="36.4401210" lon="-5.2428140">
        <ele>285.5</ele>
        <time>2019-08-28T08:14:46Z</time>
      </trkpt>
      <trkpt lat="36.4401400" lon="-5.2427890">
        <ele>285.7</ele>
        <time>2019-08-28T08:14:47Z</time>
      </trkpt>
      <trkpt lat="36.4401610" lon="-5.2427640">
        <ele>285.9</ele>
        <time>2019-08-28T08:14:48Z</time>
      </trkpt>
      <trkpt lat="36.4401820" lon="-5.2427400">
        <ele>286.1</ele>
        <time>2019-08-28T08:14:49Z</time>
      </trkpt>
      <trkpt lat="36.4402050" lon="-5.2427160">
        <ele>286.3</ele>
        <time>2019-08-28T08:14:50Z</time>
      </trkpt>
      <trkpt lat="36.4402270" lon="-5.2426950">
        <ele>286.6</ele>
        <time>2019-08-28T08:14:51Z</time>
      </trkpt>
      <trkpt lat="36.4402490" lon="-5.2426730">
        <ele>286.8</ele>
        <time>2019-08-28T08:14:52Z</time>
      </trkpt>
      <trkpt lat="36.4402690" lon="-5.2426500">
        <ele>287.0</ele>
        <time>2019-08-28T08:14:53Z</time>
      </trkpt>
      <trkpt lat="36.4402900" lon="-5.2426270">
        <ele>287.2</ele>
        <time>2019-08-28T08:14:54Z</time>
      </trkpt>
      <trkpt lat="36.4403110" lon="-5.2426040">
        <ele>287.4</ele>
        <time>2019-08-28T08:14:55Z</time>
      </trkpt>
      <trkpt lat="36.4403320" lon="-5.2425810">
        <ele>287.6</ele>
        <time>2019-08-28T08:14:56Z</time>
      </trkpt>
      <trkpt lat="36.4403530" lon="-5.2425570">
        <ele>287.8</ele>
        <time>2019-08-28T08:14:57Z</time>
      </trkpt>
      <trkpt lat="36.4403750" lon="-5.2425330">
        <ele>288.0</ele>
        <time>2019-08-28T08:14:58Z</time>
      </trkpt>
      <trkpt lat="36.4403960" lon="-5.2425100">
        <ele>288.2</ele>
        <time>2019-08-28T08:14:59Z</time>
      </trkpt>
      <trkpt lat="36.4404170" lon="-5.2424890">
        <ele>288.5</ele>
        <time>2019-08-28T08:15:00Z</time>
      </trkpt>
      <trkpt lat="36.4404390" lon="-5.2424680">
        <ele>288.7</ele>
        <time>2019-08-28T08:15:01Z</time>
      </trkpt>
      <trkpt lat="36.4404620" lon="-5.2424480">
        <ele>289.0</ele>
        <time>2019-08-28T08:15:02Z</time>
      </trkpt>
      <trkpt lat="36.4404870" lon="-5.2424290">
        <ele>289.2</ele>
        <time>2019-08-28T08:15:03Z</time>
      </trkpt>
      <trkpt lat="36.4405140" lon="-5.2424120">
        <ele>289.5</ele>
        <time>2019-08-28T08:15:04Z</time>
      </trkpt>
      <trkpt lat="36.4405430" lon="-5.2423980">
        <ele>289.8</ele>
        <time>2019-08-28T08:15:05Z</time>
      </trkpt>
      <trkpt lat="36.4405720" lon="-5.2423900">
        <ele>290.1</ele>
        <time>2019-08-28T08:15:06Z</time>
      </trkpt>
      <trkpt lat="36.4406010" lon="-5.2423900">
        <ele>290.4</ele>
        <time>2019-08-28T08:15:07Z</time>
      </trkpt>
      <trkpt lat="36.4406300" lon="-5.2423980">
        <ele>290.7</ele>
        <time>2019-08-28T08:15:08Z</time>
      </trkpt>
      <trkpt lat="36.4406600" lon="-5.2424140">
        <ele>291.0</ele>
        <time>2019-08-28T08:15:09Z</time>
      </trkpt>
      <trkpt lat="36.4406890" lon="-5.2424360">
        <ele>291.3</ele>
        <time>2019-08-28T08:15:10Z</time>
      </trkpt>
      <trkpt lat="36.4407120" lon="-5.2424630">
        <ele>291.6</ele>
        <time>2019-08-28T08:15:11Z</time>
      </trkpt>
      <trkpt lat="36.4407310" lon="-5.2424950">
        <ele>291.8</ele>
        <time>2019-08-28T08:15:12Z</time>
      </trkpt>
      <trkpt lat="36.4407470" lon="-5.2425300">
        <ele>292.1</ele>
        <time>2019-08-28T08:15:13Z</time>
      </trkpt>
      <trkpt lat="36.4407610" lon="-5.2425670">
        <ele>292.3</ele>
        <time>2019-08-28T08:15:14Z</time>
      </trkpt>
      <trkpt lat="36.4407740" lon="-5.2426050">
        <ele>292.6</ele>
        <time>2019-08-28T08:15:15Z</time>
      </trkpt>
      <trkpt lat="36.4407850" lon="-5.2426430">
        <ele>292.8</ele>
        <time>2019-08-28T08:15:16Z</time>
      </trkpt>
      <trkpt lat="36.4407930" lon="-5.2426830">
        <ele>293.0</ele>
        <time>2019-08-28T08:15:17Z</time>
      </trkpt>
      <trkpt lat="36.4408000" lon="-5.2427250">
        <ele>293.1</ele>
        <time>2019-08-28T08:15:18Z</time>
      </trkpt>
      <trkpt lat="36.4408060" lon="-5.2427670">
        <ele>293.3</ele>
        <time>2019-08-28T08:15:19Z</time>
      </trkpt>
      <trkpt lat="36.4408130" lon="-5.2428100">
        <ele>293.5</ele>
        <time>2019-08-28T08:15:20Z</time>
      </trkpt>
      <trkpt lat="36.4408180" lon="-5.2428540">
        <ele>293.6</ele>
        <time>2019-08-28T08:15:21Z</time>
      </trkpt>
      <trkpt lat="36.4408230" lon="-5.2428990">
        <ele>293.8</ele>
        <time>2019-08-28T08:15:22Z</time>
      </trkpt>
      <trkpt lat="36.4408270" lon="-5.2429460">
        <ele>294.0</ele>
        <time>2019-08-28T08:15:23Z</time>
      </trkpt>
      <trkpt lat="36.4408320" lon="-5.2429940">
        <ele>294.1</ele>
        <time>2019-08-28T08:15:24Z</time>
      </trkpt>
      <trkpt lat="36.4408360" lon="-5.2430440">
        <ele>294.2</ele>
        <time>2019-08-28T08:15:25Z</time>
      </trkpt>
      <trkpt lat="36.4408410" lon="-5.2430930">
        <ele>294.4</ele>
        <time>2019-08-28T08:15:26Z</time>
      </trkpt>
      <trkpt lat="36.4408450" lon="-5.2431440">
        <ele>294.5</ele>
        <time>2019-08-28T08:15:27Z</time>
      </trkpt>
      <trkpt lat="36.4408500" lon="-5.2431950">
        <ele>294.6</ele>
        <time>2019-08-28T08:15:28Z</time>
      </trkpt>
      <trkpt lat="36.4408540" lon="-5.2432480">
        <ele>294.7</ele>
        <time>2019-08-28T08:15:29Z</time>
      </trkpt>
      <trkpt lat="36.4408590" lon="-5.2432990">
        <ele>294.8</ele>
        <time>2019-08-28T08:15:30Z</time>
      </trkpt>
      <trkpt lat="36.4408640" lon="-5.2433540">
        <ele>294.9</ele>
        <time>2019-08-28T08:15:31Z</time>
      </trkpt>
      <trkpt lat="36.4408690" lon="-5.2434090">
        <ele>295.0</ele>
        <time>2019-08-28T08:15:32Z</time>
      </trkpt>
      <trkpt lat="36.4408750" lon="-5.2434650">
        <ele>295.0</ele>
        <time>2019-08-28T08:15:33Z</time>
      </trkpt>
      <trkpt lat="36.4408820" lon="-5.2435210">
        <ele>295.1</ele>
        <time>2019-08-28T08:15:34Z</time>
      </trkpt>
      <trkpt lat="36.4408920" lon="-5.2435780">
        <ele>295.1</ele>
        <time>2019-08-28T08:15:35Z</time>
      </trkpt>
      <trkpt lat="36.4409050" lon="-5.2436340">
        <ele>295.2</ele>
        <time>2019-08-28T08:15:36Z</time>
      </trkpt>
      <trkpt lat="36.4409200" lon="-5.2436890">
        <ele>295.2</ele>
        <time>2019-08-28T08:15:37Z</time>
      </trkpt>
      <trkpt lat="36.4409390" lon="-5.2437440">
        <ele>295.2</ele>
        <time>2019-08-28T08:15:38Z</time>
      </trkpt>
      <trkpt lat="36.4409600" lon="-5.2437970">
        <ele>295.2</ele>
        <time>2019-08-28T08:15:39Z</time>
      </trkpt>
      <trkpt lat="36.4409830" lon="-5.2438470">
        <ele>295.2</ele>
        <time>2019-08-28T08:15:40Z</time>
      </trkpt>
      <trkpt lat="36.4410110" lon="-5.2438930">
        <ele>295.2</ele>
        <time>2019-08-28T08:15:41Z</time>
      </trkpt>
      <trkpt lat="36.4410410" lon="-5.2439380">
        <ele>295.2</ele>
        <time>2019-08-28T08:15:42Z</time>
      </trkpt>
      <trkpt lat="36.4410710" lon="-5.2439820">
        <ele>295.2</ele>
        <time>2019-08-28T08:15:43Z</time>
      </trkpt>
      <trkpt lat="36.4410990" lon="-5.2440280">
        <ele>295.2</ele>
        <time>2019-08-28T08:15:44Z</time>
      </trkpt>
      <trkpt lat="36.4411270" lon="-5.2440760">
        <ele>295.2</ele>
        <time>2019-08-28T08:15:45Z</time>
      </trkpt>
      <trkpt lat="36.4411540" lon="-5.2441250">
        <ele>295.4</ele>
        <time>2019-08-28T08:15:46Z</time>
      </trkpt>
      <trkpt lat="36.4411810" lon="-5.2441740">
        <ele>295.4</ele>
        <time>2019-08-28T08:15:47Z</time>
      </trkpt>
      <trkpt lat="36.4412070" lon="-5.2442210">
        <ele>295.5</ele>
        <time>2019-08-28T08:15:48Z</time>
      </trkpt>
      <trkpt lat="36.4412340" lon="-5.2442690">
        <ele>295.6</ele>
        <time>2019-08-28T08:15:49Z</time>
      </trkpt>
      <trkpt lat="36.4412600" lon="-5.2443150">
        <ele>295.7</ele>
        <time>2019-08-28T08:15:50Z</time>
      </trkpt>
      <trkpt lat="36.4412870" lon="-5.2443630">
        <ele>295.8</ele>
        <time>2019-08-28T08:15:51Z</time>
      </trkpt>
      <trkpt lat="36.4413130" lon="-5.2444110">
        <ele>295.8</ele>
        <time>2019-08-28T08:15:52Z</time>
      </trkpt>
      <trkpt lat="36.4413390" lon="-5.2444600">
        <ele>295.8</ele>
        <time>2019-08-28T08:15:53Z</time>
      </trkpt>
      <trkpt lat="36.4413630" lon="-5.2445100">
        <ele>295.8</ele>
        <time>2019-08-28T08:15:54Z</time>
      </trkpt>
      <trkpt lat="36.4413850" lon="-5.2445610">
        <ele>295.8</ele>
        <time>2019-08-28T08:15:55Z</time>
      </trkpt>
      <trkpt lat="36.4414080" lon="-5.2446120">
        <ele>295.7</ele>
        <time>2019-08-28T08:15:56Z</time>
      </trkpt>
      <trkpt lat="36.4414320" lon="-5.2446620">
        <ele>295.7</ele>
        <time>2019-08-28T08:15:57Z</time>
      </trkpt>
      <trkpt lat="36.4414560" lon="-5.2447120">
        <ele>295.7</ele>
        <time>2019-08-28T08:15:58Z</time>
      </trkpt>
      <trkpt lat="36.4414800" lon="-5.2447640">
        <ele>295.6</ele>
        <time>2019-08-28T08:15:59Z</time>
      </trkpt>
      <trkpt lat="36.4415020" lon="-5.2448190">
        <ele>295.6</ele>
        <time>2019-08-28T08:16:00Z</time>
      </trkpt>
      <trkpt lat="36.4415220" lon="-5.2448750">
        <ele>295.6</ele>
        <time>2019-08-28T08:16:01Z</time>
      </trkpt>
      <trkpt lat="36.4415420" lon="-5.2449320">
        <ele>295.6</ele>
        <time>2019-08-28T08:16:02Z</time>
      </trkpt>
      <trkpt lat="36.4415630" lon="-5.2449900">
        <ele>295.7</ele>
        <time>2019-08-28T08:16:03Z</time>
      </trkpt>
      <trkpt lat="36.4415860" lon="-5.2450450">
        <ele>295.8</ele>
        <time>2019-08-28T08:16:04Z</time>
      </trkpt>
      <trkpt lat="36.4416110" lon="-5.2450990">
        <ele>295.9</ele>
        <time>2019-08-28T08:16:05Z</time>
      </trkpt>
      <trkpt lat="36.4416360" lon="-5.2451490">
        <ele>296.0</ele>
        <time>2019-08-28T08:16:06Z</time>
      </trkpt>
      <trkpt lat="36.4416590" lon="-5.2451980">
        <ele>296.1</ele>
        <time>2019-08-28T08:16:07Z</time>
      </trkpt>
      <trkpt lat="36.4416810" lon="-5.2452460">
        <ele>296.3</ele>
        <time>2019-08-28T08:16:08Z</time>
      </trkpt>
      <trkpt lat="36.4417020" lon="-5.2452940">
        <ele>296.4</ele>
        <time>2019-08-28T08:16:09Z</time>
      </trkpt>
      <trkpt lat="36.4417220" lon="-5.2453400">
        <ele>296.6</ele>
        <time>2019-08-28T08:16:10Z</time>
      </trkpt>
      <trkpt lat="36.4417410" lon="-5.2453830">
        <ele>296.7</ele>
        <time>2019-08-28T08:16:11Z</time>
      </trkpt>
      <trkpt lat="36.4417580" lon="-5.2454240">
        <ele>296.9</ele>
        <time>2019-08-28T08:16:12Z</time>
      </trkpt>
      <trkpt lat="36.4417730" lon="-5.2454640">
        <ele>297.0</ele>
        <time>2019-08-28T08:16:13Z</time>
      </trkpt>
      <trkpt lat="36.4417870" lon="-5.2455020">
        <ele>297.2</ele>
        <time>2019-08-28T08:16:14Z</time>
      </trkpt>
      <trkpt lat="36.4418010" lon="-5.2455380">
        <ele>297.4</ele>
        <time>2019-08-28T08:16:15Z</time>
      </trkpt>
      <trkpt lat="36.4418150" lon="-5.2455730">
        <ele>297.6</ele>
        <time>2019-08-28T08:16:16Z</time>
      </trkpt>
      <trkpt lat="36.4418280" lon="-5.2456070">
        <ele>297.8</ele>
        <time>2019-08-28T08:16:17Z</time>
      </trkpt>
      <trkpt lat="36.4418410" lon="-5.2456410">
        <ele>298.0</ele>
        <time>2019-08-28T08:16:18Z</time>
      </trkpt>
      <trkpt lat="36.4418530" lon="-5.2456740">
        <ele>298.2</ele>
        <time>2019-08-28T08:16:19Z</time>
      </trkpt>
      <trkpt lat="36.4418670" lon="-5.2457070">
        <ele>298.4</ele>
        <time>2019-08-28T08:16:20Z</time>
      </trkpt>
      <trkpt lat="36.4418800" lon="-5.2457380">
        <ele>298.5</ele>
        <time>2019-08-28T08:16:21Z</time>
      </trkpt>
      <trkpt lat="36.4418920" lon="-5.2457690">
        <ele>298.7</ele>
        <time>2019-08-28T08:16:22Z</time>
      </trkpt>
      <trkpt lat="36.4419040" lon="-5.2458000">
        <ele>298.9</ele>
        <time>2019-08-28T08:16:23Z</time>
      </trkpt>
      <trkpt lat="36.4419150" lon="-5.2458310">
        <ele>299.1</ele>
        <time>2019-08-28T08:16:24Z</time>
      </trkpt>
      <trkpt lat="36.4419270" lon="-5.2458610">
        <ele>299.3</ele>
        <time>2019-08-28T08:16:25Z</time>
      </trkpt>
      <trkpt lat="36.4419400" lon="-5.2458900">
        <ele>299.5</ele>
        <time>2019-08-28T08:16:26Z</time>
      </trkpt>
      <trkpt lat="36.4419540" lon="-5.2459180">
        <ele>299.6</ele>
        <time>2019-08-28T08:16:27Z</time>
      </trkpt>
      <trkpt lat="36.4419670" lon="-5.2459470">
        <ele>299.8</ele>
        <time>2019-08-28T08:16:28Z</time>
      </trkpt>
      <trkpt lat="36.4419800" lon="-5.2459760">
        <ele>300.0</ele>
        <time>2019-08-28T08:16:29Z</time>
      </trkpt>
      <trkpt lat="36.4419920" lon="-5.2460040">
        <ele>300.1</ele>
        <time>2019-08-28T08:16:30Z</time>
      </trkpt>
      <trkpt lat="36.4420040" lon="-5.2460330">
        <ele>300.3</ele>
        <time>2019-08-28T08:16:31Z</time>
      </trkpt>
      <trkpt lat="36.4420160" lon="-5.2460620">
        <ele>300.5</ele>
        <time>2019-08-28T08:16:32Z</time>
      </trkpt>
      <trkpt lat="36.4420280" lon="-5.2460910">
        <ele>300.6</ele>
        <time>2019-08-28T08:16:33Z</time>
      </trkpt>
      <trkpt lat="36.4420400" lon="-5.2461190">
        <ele>300.8</ele>
        <time>2019-08-28T08:16:34Z</time>
      </trkpt>
      <trkpt lat="36.4420520" lon="-5.2461490">
        <ele>301.0</ele>
        <time>2019-08-28T08:16:35Z</time>
      </trkpt>
      <trkpt lat="36.4420640" lon="-5.2461790">
        <ele>301.1</ele>
        <time>2019-08-28T08:16:36Z</time>
      </trkpt>
      <trkpt lat="36.4420770" lon="-5.2462090">
        <ele>301.3</ele>
        <time>2019-08-28T08:16:37Z</time>
      </trkpt>
      <trkpt lat="36.4420900" lon="-5.2462380">
        <ele>301.4</ele>
        <time>2019-08-28T08:16:38Z</time>
      </trkpt>
      <trkpt lat="36.4421040" lon="-5.2462680">
        <ele>301.6</ele>
        <time>2019-08-28T08:16:39Z</time>
      </trkpt>
      <trkpt lat="36.4421170" lon="-5.2462970">
        <ele>301.8</ele>
        <time>2019-08-28T08:16:40Z</time>
      </trkpt>
      <trkpt lat="36.4421300" lon="-5.2463260">
        <ele>301.9</ele>
        <time>2019-08-28T08:16:41Z</time>
      </trkpt>
      <trkpt lat="36.4421440" lon="-5.2463550">
        <ele>302.1</ele>
        <time>2019-08-28T08:16:42Z</time>
      </trkpt>
      <trkpt lat="36.4421590" lon="-5.2463830">
        <ele>302.3</ele>
        <time>2019-08-28T08:16:43Z</time>
      </trkpt>
      <trkpt lat="36.4421750" lon="-5.2464090">
        <ele>302.5</ele>
        <time>2019-08-28T08:16:44Z</time>
      </trkpt>
      <trkpt lat="36.4421910" lon="-5.2464360">
        <ele>302.6</ele>
        <time>2019-08-28T08:16:45Z</time>
      </trkpt>
      <trkpt lat="36.4422050" lon="-5.2464630">
        <ele>302.8</ele>
        <time>2019-08-28T08:16:46Z</time>
      </trkpt>
      <trkpt lat="36.4422200" lon="-5.2464900">
        <ele>303.0</ele>
        <time>2019-08-28T08:16:47Z</time>
      </trkpt>
      <trkpt lat="36.4422340" lon="-5.2465170">
        <ele>303.1</ele>
        <time>2019-08-28T08:16:48Z</time>
      </trkpt>
      <trkpt lat="36.4422490" lon="-5.2465430">
        <ele>303.3</ele>
        <time>2019-08-28T08:16:49Z</time>
      </trkpt>
      <trkpt lat="36.4422640" lon="-5.2465680">
        <ele>303.5</ele>
        <time>2019-08-28T08:16:50Z</time>
      </trkpt>
      <trkpt lat="36.4422780" lon="-5.2465950">
        <ele>303.6</ele>
        <time>2019-08-28T08:16:51Z</time>
      </trkpt>
      <trkpt lat="36.4422900" lon="-5.2466230">
        <ele>303.8</ele>
        <time>2019-08-28T08:16:52Z</time>
      </trkpt>
      <trkpt lat="36.4423010" lon="-5.2466520">
        <ele>304.0</ele>
        <time>2019-08-28T08:16:53Z</time>
      </trkpt>
      <trkpt lat="36.4423110" lon="-5.2466820">
        <ele>304.2</ele>
        <time>2019-08-28T08:16:54Z</time>
      </trkpt>
      <trkpt lat="36.4423200" lon="-5.2467130">
        <ele>304.4</ele>
        <time>2019-08-28T08:16:55Z</time>
      </trkpt>
      <trkpt lat="36.4423290" lon="-5.2467430">
        <ele>304.5</ele>
        <time>2019-08-28T08:16:56Z</time>
      </trkpt>
      <trkpt lat="36.4423380" lon="-5.2467730">
        <ele>304.7</ele>
        <time>2019-08-28T08:16:57Z</time>
      </trkpt>
      <trkpt lat="36.4423460" lon="-5.2468040">
        <ele>304.9</ele>
        <time>2019-08-28T08:16:58Z</time>
      </trkpt>
      <trkpt lat="36.4423530" lon="-5.2468350">
        <ele>305.1</ele>
        <time>2019-08-28T08:16:59Z</time>
      </trkpt>
      <trkpt lat="36.4423590" lon="-5.2468660">
        <ele>305.4</ele>
        <time>2019-08-28T08:17:00Z</time>
      </trkpt>
      <trkpt lat="36.4423650" lon="-5.2468970">
        <ele>305.6</ele>
        <time>2019-08-28T08:17:01Z</time>
      </trkpt>
      <trkpt lat="36.4423700" lon="-5.2469270">
        <ele>305.8</ele>
        <time>2019-08-28T08:17:02Z</time>
      </trkpt>
      <trkpt lat="36.4423760" lon="-5.2469580">
        <ele>306.0</ele>
        <time>2019-08-28T08:17:03Z</time>
      </trkpt>
      <trkpt lat="36.4423820" lon="-5.2469880">
        <ele>306.2</ele>
        <time>2019-08-28T08:17:04Z</time>
      </trkpt>
      <trkpt lat="36.4423870" lon="-5.2470180">
        <ele>306.4</ele>
        <time>2019-08-28T08:17:05Z</time>
      </trkpt>
      <trkpt lat="36.4423940" lon="-5.2470480">
        <ele>306.7</ele>
        <time>2019-08-28T08:17:06Z</time>
      </trkpt>
      <trkpt lat="36.4424020" lon="-5.2470790">
        <ele>306.9</ele>
        <time>2019-08-28T08:17:07Z</time>
      </trkpt>
      <trkpt lat="36.4424120" lon="-5.2471080">
        <ele>307.1</ele>
        <time>2019-08-28T08:17:08Z</time>
      </trkpt>
      <trkpt lat="36.4424230" lon="-5.2471370">
        <ele>307.3</ele>
        <time>2019-08-28T08:17:09Z</time>
      </trkpt>
      <trkpt lat="36.4424350" lon="-5.2471660">
        <ele>307.5</ele>
        <time>2019-08-28T08:17:10Z</time>
      </trkpt>
      <trkpt lat="36.4424490" lon="-5.2471930">
        <ele>307.7</ele>
        <time>2019-08-28T08:17:11Z</time>
      </trkpt>
      <trkpt lat="36.4424660" lon="-5.2472190">
        <ele>307.9</ele>
        <time>2019-08-28T08:17:12Z</time>
      </trkpt>
      <trkpt lat="36.4424840" lon="-5.2472430">
        <ele>308.1</ele>
        <time>2019-08-28T08:17:13Z</time>
      </trkpt>
      <trkpt lat="36.4425020" lon="-5.2472660">
        <ele>308.3</ele>
        <time>2019-08-28T08:17:14Z</time>
      </trkpt>
      <trkpt lat="36.4425200" lon="-5.2472900">
        <ele>308.5</ele>
        <time>2019-08-28T08:17:15Z</time>
      </trkpt>
      <trkpt lat="36.4425390" lon="-5.2473140">
        <ele>308.7</ele>
        <time>2019-08-28T08:17:16Z</time>
      </trkpt>
      <trkpt lat="36.4425570" lon="-5.2473370">
        <ele>308.9</ele>
        <time>2019-08-28T08:17:17Z</time>
      </trkpt>
      <trkpt lat="36.4425750" lon="-5.2473610">
        <ele>309.2</ele>
        <time>2019-08-28T08:17:18Z</time>
      </trkpt>
      <trkpt lat="36.4425940" lon="-5.2473850">
        <ele>309.4</ele>
        <time>2019-08-28T08:17:19Z</time>
      </trkpt>
      <trkpt lat="36.4426130" lon="-5.2474080">
        <ele>309.6</ele>
        <time>2019-08-28T08:17:20Z</time>
      </trkpt>
      <trkpt lat="36.4426330" lon="-5.2474300">
        <ele>309.9</ele>
        <time>2019-08-28T08:17:21Z</time>
      </trkpt>
      <trkpt lat="36.4426540" lon="-5.2474530">
        <ele>310.1</ele>
        <time>2019-08-28T08:17:22Z</time>
      </trkpt>
      <trkpt lat="36.4426740" lon="-5.2474760">
        <ele>310.4</ele>
        <time>2019-08-28T08:17:23Z</time>
      </trkpt>
      <trkpt lat="36.4426950" lon="-5.2474990">
        <ele>310.8</ele>
        <time>2019-08-28T08:17:24Z</time>
      </trkpt>
      <trkpt lat="36.4427150" lon="-5.2475230">
        <ele>311.0</ele>
        <time>2019-08-28T08:17:25Z</time>
      </trkpt>
      <trkpt lat="36.4427370" lon="-5.2475480">
        <ele>311.1</ele>
        <time>2019-08-28T08:17:26Z</time>
      </trkpt>
      <trkpt lat="36.4427590" lon="-5.2475730">
        <ele>311.3</ele>
        <time>2019-08-28T08:17:27Z</time>
      </trkpt>
      <trkpt lat="36.4427810" lon="-5.2475980">
        <ele>311.5</ele>
        <time>2019-08-28T08:17:28Z</time>
      </trkpt>
      <trkpt lat="36.4428030" lon="-5.2476230">
        <ele>311.7</ele>
        <time>2019-08-28T08:17:29Z</time>
      </trkpt>
      <trkpt lat="36.4428250" lon="-5.2476480">
        <ele>311.8</ele>
        <time>2019-08-28T08:17:30Z</time>
      </trkpt>
      <trkpt lat="36.4428460" lon="-5.2476730">
        <ele>312.0</ele>
        <time>2019-08-28T08:17:31Z</time>
      </trkpt>
      <trkpt lat="36.4428690" lon="-5.2476980">
        <ele>312.2</ele>
        <time>2019-08-28T08:17:32Z</time>
      </trkpt>
      <trkpt lat="36.4428910" lon="-5.2477230">
        <ele>312.4</ele>
        <time>2019-08-28T08:17:33Z</time>
      </trkpt>
      <trkpt lat="36.4429130" lon="-5.2477480">
        <ele>312.5</ele>
        <time>2019-08-28T08:17:34Z</time>
      </trkpt>
      <trkpt lat="36.4429340" lon="-5.2477740">
        <ele>312.7</ele>
        <time>2019-08-28T08:17:35Z</time>
      </trkpt>
      <trkpt lat="36.4429570" lon="-5.2478000">
        <ele>312.8</ele>
        <time>2019-08-28T08:17:36Z</time>
      </trkpt>
      <trkpt lat="36.4429800" lon="-5.2478280">
        <ele>313.0</ele>
        <time>2019-08-28T08:17:37Z</time>
      </trkpt>
      <trkpt lat="36.4430050" lon="-5.2478550">
        <ele>313.2</ele>
        <time>2019-08-28T08:17:38Z</time>
      </trkpt>
      <trkpt lat="36.4430300" lon="-5.2478810">
        <ele>313.3</ele>
        <time>2019-08-28T08:17:39Z</time>
      </trkpt>
      <trkpt lat="36.4430560" lon="-5.2479060">
        <ele>313.5</ele>
        <time>2019-08-28T08:17:40Z</time>
      </trkpt>
      <trkpt lat="36.4430830" lon="-5.2479300">
        <ele>313.6</ele>
        <time>2019-08-28T08:17:41Z</time>
      </trkpt>
      <trkpt lat="36.4431110" lon="-5.2479530">
        <ele>313.8</ele>
        <time>2019-08-28T08:17:42Z</time>
      </trkpt>
      <trkpt lat="36.4431400" lon="-5.2479740">
        <ele>313.9</ele>
        <time>2019-08-28T08:17:43Z</time>
      </trkpt>
      <trkpt lat="36.4431720" lon="-5.2479940">
        <ele>314.0</ele>
        <time>2019-08-28T08:17:44Z</time>
      </trkpt>
      <trkpt lat="36.4432050" lon="-5.2480130">
        <ele>314.2</ele>
        <time>2019-08-28T08:17:45Z</time>
      </trkpt>
      <trkpt lat="36.4432380" lon="-5.2480320">
        <ele>314.3</ele>
        <time>2019-08-28T08:17:46Z</time>
      </trkpt>
      <trkpt lat="36.4432730" lon="-5.2480490">
        <ele>314.6</ele>
        <time>2019-08-28T08:17:47Z</time>
      </trkpt>
      <trkpt lat="36.4433090" lon="-5.2480640">
        <ele>315.3</ele>
        <time>2019-08-28T08:17:48Z</time>
      </trkpt>
      <trkpt lat="36.4433470" lon="-5.2480770">
        <ele>315.9</ele>
        <time>2019-08-28T08:17:49Z</time>
      </trkpt>
      <trkpt lat="36.4433850" lon="-5.2480900">
        <ele>316.6</ele>
        <time>2019-08-28T08:17:50Z</time>
      </trkpt>
      <trkpt lat="36.4434240" lon="-5.2481030">
        <ele>317.3</ele>
        <time>2019-08-28T08:17:51Z</time>
      </trkpt>
      <trkpt lat="36.4434630" lon="-5.2481150">
        <ele>318.0</ele>
        <time>2019-08-28T08:17:52Z</time>
      </trkpt>
      <trkpt lat="36.4435020" lon="-5.2481280">
        <ele>318.6</ele>
        <time>2019-08-28T08:17:53Z</time>
      </trkpt>
      <trkpt lat="36.4435410" lon="-5.2481400">
        <ele>319.3</ele>
        <time>2019-08-28T08:17:54Z</time>
      </trkpt>
      <trkpt lat="36.4435810" lon="-5.2481530">
        <ele>319.9</ele>
        <time>2019-08-28T08:17:55Z</time>
      </trkpt>
      <trkpt lat="36.4436200" lon="-5.2481670">
        <ele>320.5</ele>
        <time>2019-08-28T08:17:56Z</time>
      </trkpt>
      <trkpt lat="36.4436600" lon="-5.2481810">
        <ele>321.1</ele>
        <time>2019-08-28T08:17:57Z</time>
      </trkpt>
      <trkpt lat="36.4437000" lon="-5.2481950">
        <ele>321.7</ele>
        <time>2019-08-28T08:17:58Z</time>
      </trkpt>
      <trkpt lat="36.4437410" lon="-5.2482090">
        <ele>322.4</ele>
        <time>2019-08-28T08:17:59Z</time>
      </trkpt>
      <trkpt lat="36.4437810" lon="-5.2482250">
        <ele>322.9</ele>
        <time>2019-08-28T08:18:00Z</time>
      </trkpt>
      <trkpt lat="36.4438220" lon="-5.2482410">
        <ele>323.5</ele>
        <time>2019-08-28T08:18:01Z</time>
      </trkpt>
      <trkpt lat="36.4438620" lon="-5.2482590">
        <ele>324.1</ele>
        <time>2019-08-28T08:18:02Z</time>
      </trkpt>
      <trkpt lat="36.4439020" lon="-5.2482770">
        <ele>324.6</ele>
        <time>2019-08-28T08:18:03Z</time>
      </trkpt>
      <trkpt lat="36.4439420" lon="-5.2482940">
        <ele>325.1</ele>
        <time>2019-08-28T08:18:04Z</time>
      </trkpt>
      <trkpt lat="36.4439820" lon="-5.2483110">
        <ele>325.7</ele>
        <time>2019-08-28T08:18:05Z</time>
      </trkpt>
      <trkpt lat="36.4440220" lon="-5.2483280">
        <ele>326.2</ele>
        <time>2019-08-28T08:18:06Z</time>
      </trkpt>
      <trkpt lat="36.4440600" lon="-5.2483460">
        <ele>326.7</ele>
        <time>2019-08-28T08:18:07Z</time>
      </trkpt>
      <trkpt lat="36.4440970" lon="-5.2483640">
        <ele>327.1</ele>
        <time>2019-08-28T08:18:08Z</time>
      </trkpt>
      <trkpt lat="36.4441320" lon="-5.2483820">
        <ele>327.5</ele>
        <time>2019-08-28T08:18:09Z</time>
      </trkpt>
      <trkpt lat="36.4441660" lon="-5.2484000">
        <ele>327.9</ele>
        <time>2019-08-28T08:18:10Z</time>
      </trkpt>
      <trkpt lat="36.4441990" lon="-5.2484180">
        <ele>328.3</ele>
        <time>2019-08-28T08:18:11Z</time>
      </trkpt>
      <trkpt lat="36.4442310" lon="-5.2484360">
        <ele>328.7</ele>
        <time>2019-08-28T08:18:12Z</time>
      </trkpt>
      <trkpt lat="36.4442620" lon="-5.2484510">
        <ele>329.1</ele>
        <time>2019-08-28T08:18:13Z</time>
      </trkpt>
      <trkpt lat="36.4442920" lon="-5.2484650">
        <ele>329.4</ele>
        <time>2019-08-28T08:18:14Z</time>
      </trkpt>
      <trkpt lat="36.4443210" lon="-5.2484780">
        <ele>329.8</ele>
        <time>2019-08-28T08:18:15Z</time>
      </trkpt>
      <trkpt lat="36.4443490" lon="-5.2484910">
        <ele>330.1</ele>
        <time>2019-08-28T08:18:16Z</time>
      </trkpt>
      <trkpt lat="36.4443770" lon="-5.2485030">
        <ele>330.4</ele>
        <time>2019-08-28T08:18:17Z</time>
      </trkpt>
      <trkpt lat="36.4444030" lon="-5.2485160">
        <ele>330.7</ele>
        <time>2019-08-28T08:18:18Z</time>
      </trkpt>
      <trkpt lat="36.4444280" lon="-5.2485290">
        <ele>330.9</ele>
        <time>2019-08-28T08:18:19Z</time>
      </trkpt>
      <trkpt lat="36.4444530" lon="-5.2485430">
        <ele>331.2</ele>
        <time>2019-08-28T08:18:20Z</time>
      </trkpt>
      <trkpt lat="36.4444770" lon="-5.2485560">
        <ele>331.5</ele>
        <time>2019-08-28T08:18:21Z</time>
      </trkpt>
      <trkpt lat="36.4445020" lon="-5.2485700">
        <ele>331.7</ele>
        <time>2019-08-28T08:18:22Z</time>
      </trkpt>
      <trkpt lat="36.4445260" lon="-5.2485840">
        <ele>332.0</ele>
        <time>2019-08-28T08:18:23Z</time>
      </trkpt>
      <trkpt lat="36.4445500" lon="-5.2485980">
        <ele>332.2</ele>
        <time>2019-08-28T08:18:24Z</time>
      </trkpt>
      <trkpt lat="36.4445730" lon="-5.2486120">
        <ele>332.4</ele>
        <time>2019-08-28T08:18:25Z</time>
      </trkpt>
      <trkpt lat="36.4445970" lon="-5.2486260">
        <ele>332.7</ele>
        <time>2019-08-28T08:18:26Z</time>
      </trkpt>
      <trkpt lat="36.4446210" lon="-5.2486400">
        <ele>332.9</ele>
        <time>2019-08-28T08:18:27Z</time>
      </trkpt>
      <trkpt lat="36.4446450" lon="-5.2486530">
        <ele>333.1</ele>
        <time>2019-08-28T08:18:28Z</time>
      </trkpt>
      <trkpt lat="36.4446690" lon="-5.2486680">
        <ele>333.3</ele>
        <time>2019-08-28T08:18:29Z</time>
      </trkpt>
      <trkpt lat="36.4446930" lon="-5.2486840">
        <ele>333.5</ele>
        <time>2019-08-28T08:18:30Z</time>
      </trkpt>
      <trkpt lat="36.4447170" lon="-5.2487020">
        <ele>333.7</ele>
        <time>2019-08-28T08:18:31Z</time>
      </trkpt>
      <trkpt lat="36.4447410" lon="-5.2487190">
        <ele>333.9</ele>
        <time>2019-08-28T08:18:32Z</time>
      </trkpt>
      <trkpt lat="36.4447640" lon="-5.2487350">
        <ele>334.0</ele>
        <time>2019-08-28T08:18:33Z</time>
      </trkpt>
      <trkpt lat="36.4447880" lon="-5.2487520">
        <ele>334.2</ele>
        <time>2019-08-28T08:18:34Z</time>
      </trkpt>
      <trkpt lat="36.4448120" lon="-5.2487690">
        <ele>334.3</ele>
        <time>2019-08-28T08:18:35Z</time>
      </trkpt>
      <trkpt lat="36.4448350" lon="-5.2487840">
        <ele>334.5</ele>
        <time>2019-08-28T08:18:36Z</time>
      </trkpt>
      <trkpt lat="36.4448580" lon="-5.2487980">
        <ele>334.6</ele>
        <time>2019-08-28T08:18:37Z</time>
      </trkpt>
      <trkpt lat="36.4448810" lon="-5.2488130">
        <ele>334.7</ele>
        <time>2019-08-28T08:18:38Z</time>
      </trkpt>
      <trkpt lat="36.4449070" lon="-5.2488260">
        <ele>334.9</ele>
        <time>2019-08-28T08:18:39Z</time>
      </trkpt>
      <trkpt lat="36.4449330" lon="-5.2488380">
        <ele>335.0</ele>
        <time>2019-08-28T08:18:40Z</time>
      </trkpt>
      <trkpt lat="36.4449590" lon="-5.2488490">
        <ele>335.1</ele>
        <time>2019-08-28T08:18:41Z</time>
      </trkpt>
      <trkpt lat="36.4449850" lon="-5.2488610">
        <ele>335.2</ele>
        <time>2019-08-28T08:18:42Z</time>
      </trkpt>
      <trkpt lat="36.4450110" lon="-5.2488730">
        <ele>335.3</ele>
        <time>2019-08-28T08:18:43Z</time>
      </trkpt>
      <trkpt lat="36.4450370" lon="-5.2488830">
        <ele>335.4</ele>
        <time>2019-08-28T08:18:44Z</time>
      </trkpt>
      <trkpt lat="36.4450620" lon="-5.2488930">
        <ele>335.5</ele>
        <time>2019-08-28T08:18:45Z</time>
      </trkpt>
      <trkpt lat="36.4450860" lon="-5.2489030">
        <ele>335.6</ele>
        <time>2019-08-28T08:18:46Z</time>
      </trkpt>
      <trkpt lat="36.4451100" lon="-5.2489120">
        <ele>335.7</ele>
        <time>2019-08-28T08:18:47Z</time>
      </trkpt>
      <trkpt lat="36.4451330" lon="-5.2489210">
        <ele>335.8</ele>
        <time>2019-08-28T08:18:48Z</time>
      </trkpt>
      <trkpt lat="36.4451570" lon="-5.2489300">
        <ele>335.9</ele>
        <time>2019-08-28T08:18:49Z</time>
      </trkpt>
      <trkpt lat="36.4451800" lon="-5.2489380">
        <ele>336.0</ele>
        <time>2019-08-28T08:18:50Z</time>
      </trkpt>
      <trkpt lat="36.4452040" lon="-5.2489460">
        <ele>336.1</ele>
        <time>2019-08-28T08:18:51Z</time>
      </trkpt>
      <trkpt lat="36.4452270" lon="-5.2489540">
        <ele>336.2</ele>
        <time>2019-08-28T08:18:52Z</time>
      </trkpt>
      <trkpt lat="36.4452510" lon="-5.2489620">
        <ele>336.3</ele>
        <time>2019-08-28T08:18:53Z</time>
      </trkpt>
      <trkpt lat="36.4452730" lon="-5.2489710">
        <ele>336.4</ele>
        <time>2019-08-28T08:18:54Z</time>
      </trkpt>
      <trkpt lat="36.4452950" lon="-5.2489810">
        <ele>336.5</ele>
        <time>2019-08-28T08:18:55Z</time>
      </trkpt>
      <trkpt lat="36.4453170" lon="-5.2489890">
        <ele>336.7</ele>
        <time>2019-08-28T08:18:56Z</time>
      </trkpt>
      <trkpt lat="36.4453390" lon="-5.2489970">
        <ele>336.8</ele>
        <time>2019-08-28T08:18:57Z</time>
      </trkpt>
      <trkpt lat="36.4453610" lon="-5.2490050">
        <ele>336.9</ele>
        <time>2019-08-28T08:18:58Z</time>
      </trkpt>
      <trkpt lat="36.4453840" lon="-5.2490130">
        <ele>337.0</ele>
        <time>2019-08-28T08:18:59Z</time>
      </trkpt>
      <trkpt lat="36.4454060" lon="-5.2490200">
        <ele>337.1</ele>
        <time>2019-08-28T08:19:00Z</time>
      </trkpt>
      <trkpt lat="36.4454290" lon="-5.2490270">
        <ele>337.3</ele>
        <time>2019-08-28T08:19:01Z</time>
      </trkpt>
      <trkpt lat="36.4454520" lon="-5.2490350">
        <ele>337.4</ele>
        <time>2019-08-28T08:19:02Z</time>
      </trkpt>
      <trkpt lat="36.4454750" lon="-5.2490440">
        <ele>337.6</ele>
        <time>2019-08-28T08:19:03Z</time>
      </trkpt>
      <trkpt lat="36.4454990" lon="-5.2490520">
        <ele>337.7</ele>
        <time>2019-08-28T08:19:04Z</time>
      </trkpt>
      <trkpt lat="36.4455220" lon="-5.2490610">
        <ele>337.9</ele>
        <time>2019-08-28T08:19:05Z</time>
      </trkpt>
      <trkpt lat="36.4455460" lon="-5.2490710">
        <ele>338.1</ele>
        <time>2019-08-28T08:19:06Z</time>
      </trkpt>
      <trkpt lat="36.4455700" lon="-5.2490810">
        <ele>338.2</ele>
        <time>2019-08-28T08:19:07Z</time>
      </trkpt>
      <trkpt lat="36.4455950" lon="-5.2490900">
        <ele>338.4</ele>
        <time>2019-08-28T08:19:08Z</time>
      </trkpt>
      <trkpt lat="36.4456200" lon="-5.2490990">
        <ele>338.6</ele>
        <time>2019-08-28T08:19:09Z</time>
      </trkpt>
      <trkpt lat="36.4456470" lon="-5.2491080">
        <ele>338.8</ele>
        <time>2019-08-28T08:19:10Z</time>
      </trkpt>
      <trkpt lat="36.4456730" lon="-5.2491170">
        <ele>339.1</ele>
        <time>2019-08-28T08:19:11Z</time>
      </trkpt>
      <trkpt lat="36.4456990" lon="-5.2491270">
        <ele>339.3</ele>
        <time>2019-08-28T08:19:12Z</time>
      </trkpt>
      <trkpt lat="36.4457250" lon="-5.2491360">
        <ele>339.5</ele>
        <time>2019-08-28T08:19:13Z</time>
      </trkpt>
      <trkpt lat="36.4457520" lon="-5.2491450">
        <ele>339.7</ele>
        <time>2019-08-28T08:19:14Z</time>
      </trkpt>
      <trkpt lat="36.4457780" lon="-5.2491540">
        <ele>340.0</ele>
        <time>2019-08-28T08:19:15Z</time>
      </trkpt>
      <trkpt lat="36.4458060" lon="-5.2491630">
        <ele>340.2</ele>
        <time>2019-08-28T08:19:16Z</time>
      </trkpt>
      <trkpt lat="36.4458330" lon="-5.2491720">
        <ele>340.5</ele>
        <time>2019-08-28T08:19:17Z</time>
      </trkpt>
      <trkpt lat="36.4458620" lon="-5.2491820">
        <ele>340.8</ele>
        <time>2019-08-28T08:19:18Z</time>
      </trkpt>
      <trkpt lat="36.4458920" lon="-5.2491940">
        <ele>341.0</ele>
        <time>2019-08-28T08:19:19Z</time>
      </trkpt>
      <trkpt lat="36.4459230" lon="-5.2492050">
        <ele>341.3</ele>
        <time>2019-08-28T08:19:20Z</time>
      </trkpt>
      <trkpt lat="36.4459540" lon="-5.2492160">
        <ele>341.6</ele>
        <time>2019-08-28T08:19:21Z</time>
      </trkpt>
      <trkpt lat="36.4459850" lon="-5.2492260">
        <ele>341.9</ele>
        <time>2019-08-28T08:19:22Z</time>
      </trkpt>
      <trkpt lat="36.4460150" lon="-5.2492360">
        <ele>342.2</ele>
        <time>2019-08-28T08:19:23Z</time>
      </trkpt>
      <trkpt lat="36.4460450" lon="-5.2492470">
        <ele>342.6</ele>
        <time>2019-08-28T08:19:24Z</time>
      </trkpt>
      <trkpt lat="36.4460760" lon="-5.2492580">
        <ele>343.0</ele>
        <time>2019-08-28T08:19:25Z</time>
      </trkpt>
      <trkpt lat="36.4461060" lon="-5.2492690">
        <ele>343.4</ele>
        <time>2019-08-28T08:19:26Z</time>
      </trkpt>
      <trkpt lat="36.4461370" lon="-5.2492800">
        <ele>343.8</ele>
        <time>2019-08-28T08:19:27Z</time>
      </trkpt>
      <trkpt lat="36.4461680" lon="-5.2492910">
        <ele>344.2</ele>
        <time>2019-08-28T08:19:28Z</time>
      </trkpt>
      <trkpt lat="36.4461990" lon="-5.2493020">
        <ele>344.7</ele>
        <time>2019-08-28T08:19:29Z</time>
      </trkpt>
      <trkpt lat="36.4462300" lon="-5.2493130">
        <ele>345.0</ele>
        <time>2019-08-28T08:19:30Z</time>
      </trkpt>
      <trkpt lat="36.4462600" lon="-5.2493240">
        <ele>345.2</ele>
        <time>2019-08-28T08:19:31Z</time>
      </trkpt>
      <trkpt lat="36.4462910" lon="-5.2493360">
        <ele>345.4</ele>
        <time>2019-08-28T08:19:32Z</time>
      </trkpt>
      <trkpt lat="36.4463210" lon="-5.2493490">
        <ele>345.7</ele>
        <time>2019-08-28T08:19:33Z</time>
      </trkpt>
      <trkpt lat="36.4463500" lon="-5.2493640">
        <ele>345.9</ele>
        <time>2019-08-28T08:19:34Z</time>
      </trkpt>
      <trkpt lat="36.4463800" lon="-5.2493820">
        <ele>346.2</ele>
        <time>2019-08-28T08:19:35Z</time>
      </trkpt>
      <trkpt lat="36.4464100" lon="-5.2494020">
        <ele>346.4</ele>
        <time>2019-08-28T08:19:36Z</time>
      </trkpt>
      <trkpt lat="36.4464400" lon="-5.2494230">
        <ele>346.7</ele>
        <time>2019-08-28T08:19:37Z</time>
      </trkpt>
      <trkpt lat="36.4464690" lon="-5.2494450">
        <ele>347.0</ele>
        <time>2019-08-28T08:19:38Z</time>
      </trkpt>
      <trkpt lat="36.4464970" lon="-5.2494680">
        <ele>347.3</ele>
        <time>2019-08-28T08:19:39Z</time>
      </trkpt>
      <trkpt lat="36.4465240" lon="-5.2494930">
        <ele>347.7</ele>
        <time>2019-08-28T08:19:40Z</time>
      </trkpt>
      <trkpt lat="36.4465510" lon="-5.2495200">
        <ele>348.0</ele>
        <time>2019-08-28T08:19:41Z</time>
      </trkpt>
      <trkpt lat="36.4465780" lon="-5.2495490">
        <ele>348.4</ele>
        <time>2019-08-28T08:19:42Z</time>
      </trkpt>
      <trkpt lat="36.4466050" lon="-5.2495770">
        <ele>348.8</ele>
        <time>2019-08-28T08:19:43Z</time>
      </trkpt>
      <trkpt lat="36.4466320" lon="-5.2496070">
        <ele>349.2</ele>
        <time>2019-08-28T08:19:44Z</time>
      </trkpt>
      <trkpt lat="36.4466560" lon="-5.2496380">
        <ele>349.6</ele>
        <time>2019-08-28T08:19:45Z</time>
      </trkpt>
      <trkpt lat="36.4466800" lon="-5.2496720">
        <ele>349.8</ele>
        <time>2019-08-28T08:19:46Z</time>
      </trkpt>
      <trkpt lat="36.4467020" lon="-5.2497050">
        <ele>350.1</ele>
        <time>2019-08-28T08:19:47Z</time>
      </trkpt>
      <trkpt lat="36.4467240" lon="-5.2497380">
        <ele>350.3</ele>
        <time>2019-08-28T08:19:48Z</time>
      </trkpt>
      <trkpt lat="36.4467460" lon="-5.2497710">
        <ele>350.6</ele>
        <time>2019-08-28T08:19:49Z</time>
      </trkpt>
      <trkpt lat="36.4467670" lon="-5.2498030">
        <ele>350.8</ele>
        <time>2019-08-28T08:19:50Z</time>
      </trkpt>
      <trkpt lat="36.4467870" lon="-5.2498360">
        <ele>351.0</ele>
        <time>2019-08-28T08:19:51Z</time>
      </trkpt>
      <trkpt lat="36.4468070" lon="-5.2498710">
        <ele>351.3</ele>
        <time>2019-08-28T08:19:52Z</time>
      </trkpt>
      <trkpt lat="36.4468270" lon="-5.2499050">
        <ele>351.5</ele>
        <time>2019-08-28T08:19:53Z</time>
      </trkpt>
      <trkpt lat="36.4468470" lon="-5.2499390">
        <ele>351.8</ele>
        <time>2019-08-28T08:19:54Z</time>
      </trkpt>
      <trkpt lat="36.4468660" lon="-5.2499730">
        <ele>352.0</ele>
        <time>2019-08-28T08:19:55Z</time>
      </trkpt>
      <trkpt lat="36.4468860" lon="-5.2500060">
        <ele>352.2</ele>
        <time>2019-08-28T08:19:56Z</time>
      </trkpt>
      <trkpt lat="36.4469050" lon="-5.2500400">
        <ele>352.5</ele>
        <time>2019-08-28T08:19:57Z</time>
      </trkpt>
      <trkpt lat="36.4469250" lon="-5.2500730">
        <ele>352.7</ele>
        <time>2019-08-28T08:19:58Z</time>
      </trkpt>
      <trkpt lat="36.4469450" lon="-5.2501060">
        <ele>352.9</ele>
        <time>2019-08-28T08:19:59Z</time>
      </trkpt>
      <trkpt lat="36.4469650" lon="-5.2501390">
        <ele>353.2</ele>
        <time>2019-08-28T08:20:00Z</time>
      </trkpt>
      <trkpt lat="36.4469840" lon="-5.2501720">
        <ele>353.4</ele>
        <time>2019-08-28T08:20:01Z</time>
      </trkpt>
      <trkpt lat="36.4470040" lon="-5.2502040">
        <ele>353.7</ele>
        <time>2019-08-28T08:20:02Z</time>
      </trkpt>
      <trkpt lat="36.4470230" lon="-5.2502370">
        <ele>354.0</ele>
        <time>2019-08-28T08:20:03Z</time>
      </trkpt>
      <trkpt lat="36.4470420" lon="-5.2502690">
        <ele>354.3</ele>
        <time>2019-08-28T08:20:04Z</time>
      </trkpt>
      <trkpt lat="36.4470610" lon="-5.2503010">
        <ele>354.6</ele>
        <time>2019-08-28T08:20:05Z</time>
      </trkpt>
      <trkpt lat="36.4470800" lon="-5.2503330">
        <ele>354.9</ele>
        <time>2019-08-28T08:20:06Z</time>
      </trkpt>
      <trkpt lat="36.4471000" lon="-5.2503640">
        <ele>355.3</ele>
        <time>2019-08-28T08:20:07Z</time>
      </trkpt>
      <trkpt lat="36.4471200" lon="-5.2503940">
        <ele>355.6</ele>
        <time>2019-08-28T08:20:08Z</time>
      </trkpt>
      <trkpt lat="36.4471400" lon="-5.2504240">
        <ele>355.9</ele>
        <time>2019-08-28T08:20:09Z</time>
      </trkpt>
      <trkpt lat="36.4471580" lon="-5.2504550">
        <ele>356.2</ele>
        <time>2019-08-28T08:20:10Z</time>
      </trkpt>
      <trkpt lat="36.4471760" lon="-5.2504860">
        <ele>356.4</ele>
        <time>2019-08-28T08:20:11Z</time>
      </trkpt>
      <trkpt lat="36.4471930" lon="-5.2505170">
        <ele>356.6</ele>
        <time>2019-08-28T08:20:12Z</time>
      </trkpt>
      <trkpt lat="36.4472110" lon="-5.2505490">
        <ele>356.9</ele>
        <time>2019-08-28T08:20:13Z</time>
      </trkpt>
      <trkpt lat="36.4472290" lon="-5.2505820">
        <ele>357.1</ele>
        <time>2019-08-28T08:20:14Z</time>
      </trkpt>
      <trkpt lat="36.4472460" lon="-5.2506140">
        <ele>357.3</ele>
        <time>2019-08-28T08:20:15Z</time>
      </trkpt>
      <trkpt lat="36.4472620" lon="-5.2506470">
        <ele>357.6</ele>
        <time>2019-08-28T08:20:16Z</time>
      </trkpt>
      <trkpt lat="36.4472780" lon="-5.2506790">
        <ele>357.8</ele>
        <time>2019-08-28T08:20:17Z</time>
      </trkpt>
      <trkpt lat="36.4472910" lon="-5.2507130">
        <ele>358.0</ele>
        <time>2019-08-28T08:20:18Z</time>
      </trkpt>
      <trkpt lat="36.4473020" lon="-5.2507480">
        <ele>358.3</ele>
        <time>2019-08-28T08:20:19Z</time>
      </trkpt>
      <trkpt lat="36.4473110" lon="-5.2507840">
        <ele>358.5</ele>
        <time>2019-08-28T08:20:20Z</time>
      </trkpt>
      <trkpt lat="36.4473180" lon="-5.2508210">
        <ele>358.8</ele>
        <time>2019-08-28T08:20:21Z</time>
      </trkpt>
      <trkpt lat="36.4473230" lon="-5.2508580">
        <ele>359.1</ele>
        <time>2019-08-28T08:20:22Z</time>
      </trkpt>
      <trkpt lat="36.4473260" lon="-5.2508940">
        <ele>359.3</ele>
        <time>2019-08-28T08:20:23Z</time>
      </trkpt>
      <trkpt lat="36.4473280" lon="-5.2509310">
        <ele>359.6</ele>
        <time>2019-08-28T08:20:24Z</time>
      </trkpt>
      <trkpt lat="36.4473270" lon="-5.2509680">
        <ele>359.8</ele>
        <time>2019-08-28T08:20:25Z</time>
      </trkpt>
      <trkpt lat="36.4473250" lon="-5.2510050">
        <ele>360.1</ele>
        <time>2019-08-28T08:20:26Z</time>
      </trkpt>
      <trkpt lat="36.4473200" lon="-5.2510420">
        <ele>360.4</ele>
        <time>2019-08-28T08:20:27Z</time>
      </trkpt>
      <trkpt lat="36.4473130" lon="-5.2510790">
        <ele>360.7</ele>
        <time>2019-08-28T08:20:28Z</time>
      </trkpt>
      <trkpt lat="36.4473040" lon="-5.2511150">
        <ele>361.0</ele>
        <time>2019-08-28T08:20:29Z</time>
      </trkpt>
      <trkpt lat="36.4472910" lon="-5.2511500">
        <ele>361.3</ele>
        <time>2019-08-28T08:20:30Z</time>
      </trkpt>
      <trkpt lat="36.4472760" lon="-5.2511830">
        <ele>361.6</ele>
        <time>2019-08-28T08:20:31Z</time>
      </trkpt>
      <trkpt lat="36.4472590" lon="-5.2512150">
        <ele>361.9</ele>
        <time>2019-08-28T08:20:32Z</time>
      </trkpt>
      <trkpt lat="36.4472380" lon="-5.2512460">
        <ele>362.2</ele>
        <time>2019-08-28T08:20:33Z</time>
      </trkpt>
      <trkpt lat="36.4472160" lon="-5.2512760">
        <ele>362.6</ele>
        <time>2019-08-28T08:20:34Z</time>
      </trkpt>
      <trkpt lat="36.4471910" lon="-5.2513020">
        <ele>363.0</ele>
        <time>2019-08-28T08:20:35Z</time>
      </trkpt>
      <trkpt lat="36.4471640" lon="-5.2513230">
        <ele>363.3</ele>
        <time>2019-08-28T08:20:36Z</time>
      </trkpt>
      <trkpt lat="36.4471360" lon="-5.2513410">
        <ele>363.7</ele>
        <time>2019-08-28T08:20:37Z</time>
      </trkpt>
      <trkpt lat="36.4471060" lon="-5.2513520">
        <ele>364.1</ele>
        <time>2019-08-28T08:20:38Z</time>
      </trkpt>
      <trkpt lat="36.4470750" lon="-5.2513580">
        <ele>364.4</ele>
        <time>2019-08-28T08:20:39Z</time>
      </trkpt>
      <trkpt lat="36.4470420" lon="-5.2513580">
        <ele>364.7</ele>
        <time>2019-08-28T08:20:40Z</time>
      </trkpt>
      <trkpt lat="36.4470100" lon="-5.2513530">
        <ele>365.0</ele>
        <time>2019-08-28T08:20:41Z</time>
      </trkpt>
      <trkpt lat="36.4469790" lon="-5.2513450">
        <ele>365.3</ele>
        <time>2019-08-28T08:20:42Z</time>
      </trkpt>
      <trkpt lat="36.4469480" lon="-5.2513340">
        <ele>365.6</ele>
        <time>2019-08-28T08:20:43Z</time>
      </trkpt>
      <trkpt lat="36.4469170" lon="-5.2513200">
        <ele>365.9</ele>
        <time>2019-08-28T08:20:44Z</time>
      </trkpt>
      <trkpt lat="36.4468870" lon="-5.2513030">
        <ele>366.2</ele>
        <time>2019-08-28T08:20:45Z</time>
      </trkpt>
      <trkpt lat="36.4468570" lon="-5.2512840">
        <ele>366.5</ele>
        <time>2019-08-28T08:20:46Z</time>
      </trkpt>
      <trkpt lat="36.4468270" lon="-5.2512650">
        <ele>366.8</ele>
        <time>2019-08-28T08:20:47Z</time>
      </trkpt>
      <trkpt lat="36.4467950" lon="-5.2512480">
        <ele>367.1</ele>
        <time>2019-08-28T08:20:48Z</time>
      </trkpt>
      <trkpt lat="36.4467630" lon="-5.2512360">
        <ele>367.4</ele>
        <time>2019-08-28T08:20:49Z</time>
      </trkpt>
      <trkpt lat="36.4467300" lon="-5.2512260">
        <ele>367.7</ele>
        <time>2019-08-28T08:20:50Z</time>
      </trkpt>
      <trkpt lat="36.4466970" lon="-5.2512180">
        <ele>368.0</ele>
        <time>2019-08-28T08:20:51Z</time>
      </trkpt>
      <trkpt lat="36.4466630" lon="-5.2512100">
        <ele>368.3</ele>
        <time>2019-08-28T08:20:52Z</time>
      </trkpt>
      <trkpt lat="36.4466290" lon="-5.2512050">
        <ele>368.6</ele>
        <time>2019-08-28T08:20:53Z</time>
      </trkpt>
      <trkpt lat="36.4465940" lon="-5.2512030">
        <ele>368.9</ele>
        <time>2019-08-28T08:20:54Z</time>
      </trkpt>
      <trkpt lat="36.4465590" lon="-5.2512050">
        <ele>369.3</ele>
        <time>2019-08-28T08:20:55Z</time>
      </trkpt>
      <trkpt lat="36.4465250" lon="-5.2512050">
        <ele>369.6</ele>
        <time>2019-08-28T08:20:56Z</time>
      </trkpt>
      <trkpt lat="36.4464890" lon="-5.2512080">
        <ele>369.9</ele>
        <time>2019-08-28T08:20:57Z</time>
      </trkpt>
      <trkpt lat="36.4464540" lon="-5.2512140">
        <ele>370.3</ele>
        <time>2019-08-28T08:20:58Z</time>
      </trkpt>
      <trkpt lat="36.4464200" lon="-5.2512260">
        <ele>370.6</ele>
        <time>2019-08-28T08:20:59Z</time>
      </trkpt>
      <trkpt lat="36.4463870" lon="-5.2512410">
        <ele>370.9</ele>
        <time>2019-08-28T08:21:00Z</time>
      </trkpt>
      <trkpt lat="36.4463540" lon="-5.2512580">
        <ele>371.0</ele>
        <time>2019-08-28T08:21:01Z</time>
      </trkpt>
      <trkpt lat="36.4463220" lon="-5.2512770">
        <ele>371.0</ele>
        <time>2019-08-28T08:21:02Z</time>
      </trkpt>
      <trkpt lat="36.4462900" lon="-5.2512980">
        <ele>371.1</ele>
        <time>2019-08-28T08:21:03Z</time>
      </trkpt>
      <trkpt lat="36.4462570" lon="-5.2513190">
        <ele>371.1</ele>
        <time>2019-08-28T08:21:04Z</time>
      </trkpt>
      <trkpt lat="36.4462250" lon="-5.2513410">
        <ele>371.2</ele>
        <time>2019-08-28T08:21:05Z</time>
      </trkpt>
      <trkpt lat="36.4461920" lon="-5.2513630">
        <ele>371.2</ele>
        <time>2019-08-28T08:21:06Z</time>
      </trkpt>
      <trkpt lat="36.4461570" lon="-5.2513850">
        <ele>371.3</ele>
        <time>2019-08-28T08:21:07Z</time>
      </trkpt>
      <trkpt lat="36.4461230" lon="-5.2514080">
        <ele>371.4</ele>
        <time>2019-08-28T08:21:08Z</time>
      </trkpt>
      <trkpt lat="36.4460880" lon="-5.2514320">
        <ele>371.5</ele>
        <time>2019-08-28T08:21:09Z</time>
      </trkpt>
      <trkpt lat="36.4460520" lon="-5.2514560">
        <ele>371.6</ele>
        <time>2019-08-28T08:21:10Z</time>
      </trkpt>
      <trkpt lat="36.4460160" lon="-5.2514810">
        <ele>371.8</ele>
        <time>2019-08-28T08:21:11Z</time>
      </trkpt>
      <trkpt lat="36.4459790" lon="-5.2515080">
        <ele>371.9</ele>
        <time>2019-08-28T08:21:12Z</time>
      </trkpt>
      <trkpt lat="36.4459430" lon="-5.2515360">
        <ele>372.0</ele>
        <time>2019-08-28T08:21:13Z</time>
      </trkpt>
      <trkpt lat="36.4459080" lon="-5.2515690">
        <ele>372.2</ele>
        <time>2019-08-28T08:21:14Z</time>
      </trkpt>
      <trkpt lat="36.4458760" lon="-5.2516070">
        <ele>372.3</ele>
        <time>2019-08-28T08:21:15Z</time>
      </trkpt>
      <trkpt lat="36.4458480" lon="-5.2516510">
        <ele>372.4</ele>
        <time>2019-08-28T08:21:16Z</time>
      </trkpt>
      <trkpt lat="36.4458230" lon="-5.2516990">
        <ele>372.6</ele>
        <time>2019-08-28T08:21:17Z</time>
      </trkpt>
      <trkpt lat="36.4458020" lon="-5.2517510">
        <ele>372.7</ele>
        <time>2019-08-28T08:21:18Z</time>
      </trkpt>
      <trkpt lat="36.4457860" lon="-5.2518060">
        <ele>372.9</ele>
        <time>2019-08-28T08:21:19Z</time>
      </trkpt>
      <trkpt lat="36.4457740" lon="-5.2518650">
        <ele>373.1</ele>
        <time>2019-08-28T08:21:20Z</time>
      </trkpt>
      <trkpt lat="36.4457680" lon="-5.2519250">
        <ele>373.4</ele>
        <time>2019-08-28T08:21:21Z</time>
      </trkpt>
      <trkpt lat="36.4457650" lon="-5.2519870">
        <ele>373.6</ele>
        <time>2019-08-28T08:21:22Z</time>
      </trkpt>
      <trkpt lat="36.4457650" lon="-5.2520510">
        <ele>373.8</ele>
        <time>2019-08-28T08:21:23Z</time>
      </trkpt>
      <trkpt lat="36.4457680" lon="-5.2521160">
        <ele>374.1</ele>
        <time>2019-08-28T08:21:24Z</time>
      </trkpt>
      <trkpt lat="36.4457730" lon="-5.2521810">
        <ele>374.4</ele>
        <time>2019-08-28T08:21:25Z</time>
      </trkpt>
      <trkpt lat="36.4457820" lon="-5.2522450">
        <ele>374.7</ele>
        <time>2019-08-28T08:21:26Z</time>
      </trkpt>
      <trkpt lat="36.4457930" lon="-5.2523080">
        <ele>375.0</ele>
        <time>2019-08-28T08:21:27Z</time>
      </trkpt>
      <trkpt lat="36.4458050" lon="-5.2523720">
        <ele>375.4</ele>
        <time>2019-08-28T08:21:28Z</time>
      </trkpt>
      <trkpt lat="36.4458150" lon="-5.2524340">
        <ele>375.8</ele>
        <time>2019-08-28T08:21:29Z</time>
      </trkpt>
      <trkpt lat="36.4458250" lon="-5.2524970">
        <ele>376.2</ele>
        <time>2019-08-28T08:21:30Z</time>
      </trkpt>
      <trkpt lat="36.4458350" lon="-5.2525570">
        <ele>376.5</ele>
        <time>2019-08-28T08:21:31Z</time>
      </trkpt>
      <trkpt lat="36.4458450" lon="-5.2526160">
        <ele>376.9</ele>
        <time>2019-08-28T08:21:32Z</time>
      </trkpt>
      <trkpt lat="36.4458550" lon="-5.2526740">
        <ele>377.3</ele>
        <time>2019-08-28T08:21:33Z</time>
      </trkpt>
      <trkpt lat="36.4458640" lon="-5.2527300">
        <ele>377.7</ele>
        <time>2019-08-28T08:21:34Z</time>
      </trkpt>
      <trkpt lat="36.4458700" lon="-5.2527860">
        <ele>378.0</ele>
        <time>2019-08-28T08:21:35Z</time>
      </trkpt>
      <trkpt lat="36.4458760" lon="-5.2528400">
        <ele>378.4</ele>
        <time>2019-08-28T08:21:36Z</time>
      </trkpt>
      <trkpt lat="36.4458830" lon="-5.2528910">
        <ele>378.7</ele>
        <time>2019-08-28T08:21:37Z</time>
      </trkpt>
      <trkpt lat="36.4458930" lon="-5.2529410">
        <ele>379.0</ele>
        <time>2019-08-28T08:21:38Z</time>
      </trkpt>
      <trkpt lat="36.4459030" lon="-5.2529910">
        <ele>379.3</ele>
        <time>2019-08-28T08:21:39Z</time>
      </trkpt>
      <trkpt lat="36.4459140" lon="-5.2530410">
        <ele>379.7</ele>
        <time>2019-08-28T08:21:40Z</time>
      </trkpt>
      <trkpt lat="36.4459250" lon="-5.2530890">
        <ele>380.0</ele>
        <time>2019-08-28T08:21:41Z</time>
      </trkpt>
      <trkpt lat="36.4459370" lon="-5.2531370">
        <ele>380.3</ele>
        <time>2019-08-28T08:21:42Z</time>
      </trkpt>
      <trkpt lat="36.4459490" lon="-5.2531860">
        <ele>380.6</ele>
        <time>2019-08-28T08:21:43Z</time>
      </trkpt>
      <trkpt lat="36.4459610" lon="-5.2532360">
        <ele>381.0</ele>
        <time>2019-08-28T08:21:44Z</time>
      </trkpt>
      <trkpt lat="36.4459730" lon="-5.2532850">
        <ele>381.3</ele>
        <time>2019-08-28T08:21:45Z</time>
      </trkpt>
      <trkpt lat="36.4459870" lon="-5.2533340">
        <ele>381.7</ele>
        <time>2019-08-28T08:21:46Z</time>
      </trkpt>
      <trkpt lat="36.4460010" lon="-5.2533820">
        <ele>382.1</ele>
        <time>2019-08-28T08:21:47Z</time>
      </trkpt>
      <trkpt lat="36.4460140" lon="-5.2534310">
        <ele>382.4</ele>
        <time>2019-08-28T08:21:48Z</time>
      </trkpt>
      <trkpt lat="36.4460270" lon="-5.2534800">
        <ele>382.8</ele>
        <time>2019-08-28T08:21:49Z</time>
      </trkpt>
      <trkpt lat="36.4460410" lon="-5.2535300">
        <ele>383.2</ele>
        <time>2019-08-28T08:21:50Z</time>
      </trkpt>
      <trkpt lat="36.4460560" lon="-5.2535790">
        <ele>383.6</ele>
        <time>2019-08-28T08:21:51Z</time>
      </trkpt>
      <trkpt lat="36.4460720" lon="-5.2536270">
        <ele>384.0</ele>
        <time>2019-08-28T08:21:52Z</time>
      </trkpt>
      <trkpt lat="36.4460890" lon="-5.2536760">
        <ele>384.5</ele>
        <time>2019-08-28T08:21:53Z</time>
      </trkpt>
      <trkpt lat="36.4461050" lon="-5.2537250">
        <ele>384.9</ele>
        <time>2019-08-28T08:21:54Z</time>
      </trkpt>
      <trkpt lat="36.4461190" lon="-5.2537750">
        <ele>385.3</ele>
        <time>2019-08-28T08:21:55Z</time>
      </trkpt>
      <trkpt lat="36.4461330" lon="-5.2538260">
        <ele>385.7</ele>
        <time>2019-08-28T08:21:56Z</time>
      </trkpt>
      <trkpt lat="36.4461480" lon="-5.2538750">
        <ele>386.1</ele>
        <time>2019-08-28T08:21:57Z</time>
      </trkpt>
      <trkpt lat="36.4461630" lon="-5.2539240">
        <ele>386.6</ele>
        <time>2019-08-28T08:21:58Z</time>
      </trkpt>
      <trkpt lat="36.4461780" lon="-5.2539730">
        <ele>386.9</ele>
        <time>2019-08-28T08:21:59Z</time>
      </trkpt>
      <trkpt lat="36.4461940" lon="-5.2540220">
        <ele>387.3</ele>
        <time>2019-08-28T08:22:00Z</time>
      </trkpt>
      <trkpt lat="36.4462100" lon="-5.2540720">
        <ele>387.7</ele>
        <time>2019-08-28T08:22:01Z</time>
      </trkpt>
      <trkpt lat="36.4462260" lon="-5.2541220">
        <ele>388.1</ele>
        <time>2019-08-28T08:22:02Z</time>
      </trkpt>
      <trkpt lat="36.4462440" lon="-5.2541720">
        <ele>388.5</ele>
        <time>2019-08-28T08:22:03Z</time>
      </trkpt>
      <trkpt lat="36.4462630" lon="-5.2542210">
        <ele>388.8</ele>
        <time>2019-08-28T08:22:04Z</time>
      </trkpt>
      <trkpt lat="36.4462830" lon="-5.2542690">
        <ele>389.1</ele>
        <time>2019-08-28T08:22:05Z</time>
      </trkpt>
      <trkpt lat="36.4463040" lon="-5.2543170">
        <ele>389.4</ele>
        <time>2019-08-28T08:22:06Z</time>
      </trkpt>
      <trkpt lat="36.4463270" lon="-5.2543630">
        <ele>389.6</ele>
        <time>2019-08-28T08:22:07Z</time>
      </trkpt>
      <trkpt lat="36.4463510" lon="-5.2544090">
        <ele>389.9</ele>
        <time>2019-08-28T08:22:08Z</time>
      </trkpt>
      <trkpt lat="36.4463750" lon="-5.2544550">
        <ele>390.1</ele>
        <time>2019-08-28T08:22:09Z</time>
      </trkpt>
      <trkpt lat="36.4463990" lon="-5.2545010">
        <ele>390.3</ele>
        <time>2019-08-28T08:22:10Z</time>
      </trkpt>
      <trkpt lat="36.4464200" lon="-5.2545490">
        <ele>390.4</ele>
        <time>2019-08-28T08:22:11Z</time>
      </trkpt>
      <trkpt lat="36.4464360" lon="-5.2546000">
        <ele>390.6</ele>
        <time>2019-08-28T08:22:12Z</time>
      </trkpt>
      <trkpt lat="36.4464460" lon="-5.2546550">
        <ele>390.4</ele>
        <time>2019-08-28T08:22:13Z</time>
      </trkpt>
      <trkpt lat="36.4464500" lon="-5.2547140">
        <ele>390.2</ele>
        <time>2019-08-28T08:22:14Z</time>
      </trkpt>
      <trkpt lat="36.4464500" lon="-5.2547700">
        <ele>390.0</ele>
        <time>2019-08-28T08:22:15Z</time>
      </trkpt>
      <trkpt lat="36.4464470" lon="-5.2548230">
        <ele>389.7</ele>
        <time>2019-08-28T08:22:16Z</time>
      </trkpt>
      <trkpt lat="36.4464430" lon="-5.2548730">
        <ele>389.5</ele>
        <time>2019-08-28T08:22:17Z</time>
      </trkpt>
      <trkpt lat="36.4464370" lon="-5.2549240">
        <ele>389.3</ele>
        <time>2019-08-28T08:22:18Z</time>
      </trkpt>
      <trkpt lat="36.4464340" lon="-5.2549770">
        <ele>389.1</ele>
        <time>2019-08-28T08:22:19Z</time>
      </trkpt>
      <trkpt lat="36.4464360" lon="-5.2550290">
        <ele>388.9</ele>
        <time>2019-08-28T08:22:20Z</time>
      </trkpt>
      <trkpt lat="36.4464420" lon="-5.2550830">
        <ele>388.7</ele>
        <time>2019-08-28T08:22:21Z</time>
      </trkpt>
      <trkpt lat="36.4464520" lon="-5.2551360">
        <ele>388.4</ele>
        <time>2019-08-28T08:22:22Z</time>
      </trkpt>
      <trkpt lat="36.4464660" lon="-5.2551890">
        <ele>388.4</ele>
        <time>2019-08-28T08:22:23Z</time>
      </trkpt>
      <trkpt lat="36.4464880" lon="-5.2552390">
        <ele>388.4</ele>
        <time>2019-08-28T08:22:24Z</time>
      </trkpt>
      <trkpt lat="36.4465170" lon="-5.2552850">
        <ele>388.4</ele>
        <time>2019-08-28T08:22:25Z</time>
      </trkpt>
      <trkpt lat="36.4465510" lon="-5.2553290">
        <ele>388.6</ele>
        <time>2019-08-28T08:22:26Z</time>
      </trkpt>
      <trkpt lat="36.4465850" lon="-5.2553710">
        <ele>389.0</ele>
        <time>2019-08-28T08:22:27Z</time>
      </trkpt>
      <trkpt lat="36.4466190" lon="-5.2554120">
        <ele>389.3</ele>
        <time>2019-08-28T08:22:28Z</time>
      </trkpt>
      <trkpt lat="36.4466560" lon="-5.2554520">
        <ele>389.7</ele>
        <time>2019-08-28T08:22:29Z</time>
      </trkpt>
      <trkpt lat="36.4466940" lon="-5.2554910">
        <ele>390.1</ele>
        <time>2019-08-28T08:22:30Z</time>
      </trkpt>
      <trkpt lat="36.4467330" lon="-5.2555310">
        <ele>390.5</ele>
        <time>2019-08-28T08:22:31Z</time>
      </trkpt>
      <trkpt lat="36.4467730" lon="-5.2555710">
        <ele>390.9</ele>
        <time>2019-08-28T08:22:32Z</time>
      </trkpt>
      <trkpt lat="36.4468170" lon="-5.2556080">
        <ele>391.3</ele>
        <time>2019-08-28T08:22:33Z</time>
      </trkpt>
      <trkpt lat="36.4468630" lon="-5.2556430">
        <ele>391.7</ele>
        <time>2019-08-28T08:22:34Z</time>
      </trkpt>
      <trkpt lat="36.4469100" lon="-5.2556770">
        <ele>392.1</ele>
        <time>2019-08-28T08:22:35Z</time>
      </trkpt>
      <trkpt lat="36.4469550" lon="-5.2557100">
        <ele>392.5</ele>
        <time>2019-08-28T08:22:36Z</time>
      </trkpt>
      <trkpt lat="36.4469980" lon="-5.2557440">
        <ele>392.9</ele>
        <time>2019-08-28T08:22:37Z</time>
      </trkpt>
      <trkpt lat="36.4470410" lon="-5.2557780">
        <ele>393.2</ele>
        <time>2019-08-28T08:22:38Z</time>
      </trkpt>
      <trkpt lat="36.4470820" lon="-5.2558100">
        <ele>393.6</ele>
        <time>2019-08-28T08:22:39Z</time>
      </trkpt>
      <trkpt lat="36.4471230" lon="-5.2558410">
        <ele>393.9</ele>
        <time>2019-08-28T08:22:40Z</time>
      </trkpt>
      <trkpt lat="36.4471620" lon="-5.2558700">
        <ele>394.1</ele>
        <time>2019-08-28T08:22:41Z</time>
      </trkpt>
      <trkpt lat="36.4472020" lon="-5.2558980">
        <ele>394.4</ele>
        <time>2019-08-28T08:22:42Z</time>
      </trkpt>
      <trkpt lat="36.4472400" lon="-5.2559260">
        <ele>394.6</ele>
        <time>2019-08-28T08:22:43Z</time>
      </trkpt>
      <trkpt lat="36.4472770" lon="-5.2559550">
        <ele>394.8</ele>
        <time>2019-08-28T08:22:44Z</time>
      </trkpt>
      <trkpt lat="36.4473110" lon="-5.2559850">
        <ele>395.0</ele>
        <time>2019-08-28T08:22:45Z</time>
      </trkpt>
      <trkpt lat="36.4473430" lon="-5.2560160">
        <ele>395.2</ele>
        <time>2019-08-28T08:22:46Z</time>
      </trkpt>
      <trkpt lat="36.4473760" lon="-5.2560470">
        <ele>395.4</ele>
        <time>2019-08-28T08:22:47Z</time>
      </trkpt>
      <trkpt lat="36.4474110" lon="-5.2560750">
        <ele>396.2</ele>
        <time>2019-08-28T08:22:48Z</time>
      </trkpt>
      <trkpt lat="36.4474460" lon="-5.2561020">
        <ele>396.7</ele>
        <time>2019-08-28T08:22:49Z</time>
      </trkpt>
      <trkpt lat="36.4474820" lon="-5.2561280">
        <ele>397.3</ele>
        <time>2019-08-28T08:22:50Z</time>
      </trkpt>
      <trkpt lat="36.4475180" lon="-5.2561560">
        <ele>397.7</ele>
        <time>2019-08-28T08:22:51Z</time>
      </trkpt>
      <trkpt lat="36.4475530" lon="-5.2561830">
        <ele>398.2</ele>
        <time>2019-08-28T08:22:52Z</time>
      </trkpt>
      <trkpt lat="36.4475890" lon="-5.2562080">
        <ele>398.6</ele>
        <time>2019-08-28T08:22:53Z</time>
      </trkpt>
      <trkpt lat="36.4476250" lon="-5.2562320">
        <ele>399.0</ele>
        <time>2019-08-28T08:22:54Z</time>
      </trkpt>
      <trkpt lat="36.4476630" lon="-5.2562530">
        <ele>399.4</ele>
        <time>2019-08-28T08:22:55Z</time>
      </trkpt>
      <trkpt lat="36.4477030" lon="-5.2562730">
        <ele>400.0</ele>
        <time>2019-08-28T08:22:56Z</time>
      </trkpt>
      <trkpt lat="36.4477430" lon="-5.2562920">
        <ele>400.6</ele>
        <time>2019-08-28T08:22:57Z</time>
      </trkpt>
      <trkpt lat="36.4477830" lon="-5.2563110">
        <ele>401.2</ele>
        <time>2019-08-28T08:22:58Z</time>
      </trkpt>
      <trkpt lat="36.4478200" lon="-5.2563310">
        <ele>401.8</ele>
        <time>2019-08-28T08:22:59Z</time>
      </trkpt>
      <trkpt lat="36.4478580" lon="-5.2563490">
        <ele>402.4</ele>
        <time>2019-08-28T08:23:00Z</time>
      </trkpt>
      <trkpt lat="36.4478960" lon="-5.2563670">
        <ele>403.0</ele>
        <time>2019-08-28T08:23:01Z</time>
      </trkpt>
      <trkpt lat="36.4479320" lon="-5.2563860">
        <ele>403.5</ele>
        <time>2019-08-28T08:23:02Z</time>
      </trkpt>
      <trkpt lat="36.4479680" lon="-5.2564070">
        <ele>404.1</ele>
        <time>2019-08-28T08:23:03Z</time>
      </trkpt>
      <trkpt lat="36.4480030" lon="-5.2564280">
        <ele>404.6</ele>
        <time>2019-08-28T08:23:04Z</time>
      </trkpt>
      <trkpt lat="36.4480400" lon="-5.2564460">
        <ele>405.2</ele>
        <time>2019-08-28T08:23:05Z</time>
      </trkpt>
      <trkpt lat="36.4480740" lon="-5.2564650">
        <ele>405.8</ele>
        <time>2019-08-28T08:23:06Z</time>
      </trkpt>
      <trkpt lat="36.4481070" lon="-5.2564850">
        <ele>406.4</ele>
        <time>2019-08-28T08:23:07Z</time>
      </trkpt>
      <trkpt lat="36.4481390" lon="-5.2565060">
        <ele>407.0</ele>
        <time>2019-08-28T08:23:08Z</time>
      </trkpt>
      <trkpt lat="36.4481730" lon="-5.2565260">
        <ele>407.8</ele>
        <time>2019-08-28T08:23:09Z</time>
      </trkpt>
      <trkpt lat="36.4482040" lon="-5.2565530">
        <ele>408.6</ele>
        <time>2019-08-28T08:23:10Z</time>
      </trkpt>
      <trkpt lat="36.4482320" lon="-5.2565860">
        <ele>409.4</ele>
        <time>2019-08-28T08:23:11Z</time>
      </trkpt>
      <trkpt lat="36.4482520" lon="-5.2566300">
        <ele>410.7</ele>
        <time>2019-08-28T08:23:12Z</time>
      </trkpt>
      <trkpt lat="36.4482590" lon="-5.2566870">
        <ele>410.6</ele>
        <time>2019-08-28T08:23:13Z</time>
      </trkpt>
      <trkpt lat="36.4482630" lon="-5.2567450">
        <ele>410.2</ele>
        <time>2019-08-28T08:23:14Z</time>
      </trkpt>
      <trkpt lat="36.4482640" lon="-5.2568000">
        <ele>409.9</ele>
        <time>2019-08-28T08:23:15Z</time>
      </trkpt>
      <trkpt lat="36.4482700" lon="-5.2568450">
        <ele>409.6</ele>
        <time>2019-08-28T08:23:16Z</time>
      </trkpt>
      <trkpt lat="36.4482690" lon="-5.2568930">
        <ele>409.2</ele>
        <time>2019-08-28T08:23:17Z</time>
      </trkpt>
      <trkpt lat="36.4482600" lon="-5.2569470">
        <ele>409.2</ele>
        <time>2019-08-28T08:23:18Z</time>
      </trkpt>
      <trkpt lat="36.4482440" lon="-5.2569990">
        <ele>409.4</ele>
        <time>2019-08-28T08:23:19Z</time>
      </trkpt>
      <trkpt lat="36.4482230" lon="-5.2570430">
        <ele>409.6</ele>
        <time>2019-08-28T08:23:20Z</time>
      </trkpt>
      <trkpt lat="36.4481980" lon="-5.2570800">
        <ele>409.8</ele>
        <time>2019-08-28T08:23:21Z</time>
      </trkpt>
      <trkpt lat="36.4481700" lon="-5.2571150">
        <ele>410.0</ele>
        <time>2019-08-28T08:23:22Z</time>
      </trkpt>
      <trkpt lat="36.4481420" lon="-5.2571510">
        <ele>410.1</ele>
        <time>2019-08-28T08:23:23Z</time>
      </trkpt>
      <trkpt lat="36.4481160" lon="-5.2571870">
        <ele>410.2</ele>
        <time>2019-08-28T08:23:24Z</time>
      </trkpt>
      <trkpt lat="36.4480900" lon="-5.2572240">
        <ele>410.3</ele>
        <time>2019-08-28T08:23:25Z</time>
      </trkpt>
      <trkpt lat="36.4480660" lon="-5.2572600">
        <ele>410.4</ele>
        <time>2019-08-28T08:23:26Z</time>
      </trkpt>
      <trkpt lat="36.4480440" lon="-5.2572970">
        <ele>410.4</ele>
        <time>2019-08-28T08:23:27Z</time>
      </trkpt>
      <trkpt lat="36.4480260" lon="-5.2573390">
        <ele>410.4</ele>
        <time>2019-08-28T08:23:28Z</time>
      </trkpt>
      <trkpt lat="36.4480110" lon="-5.2573870">
        <ele>410.5</ele>
        <time>2019-08-28T08:23:29Z</time>
      </trkpt>
      <trkpt lat="36.4480000" lon="-5.2574410">
        <ele>410.4</ele>
        <time>2019-08-28T08:23:30Z</time>
      </trkpt>
      <trkpt lat="36.4479970" lon="-5.2574980">
        <ele>410.4</ele>
        <time>2019-08-28T08:23:31Z</time>
      </trkpt>
      <trkpt lat="36.4480010" lon="-5.2575570">
        <ele>410.4</ele>
        <time>2019-08-28T08:23:32Z</time>
      </trkpt>
      <trkpt lat="36.4480120" lon="-5.2576170">
        <ele>410.2</ele>
        <time>2019-08-28T08:23:33Z</time>
      </trkpt>
      <trkpt lat="36.4480220" lon="-5.2576790">
        <ele>410.0</ele>
        <time>2019-08-28T08:23:34Z</time>
      </trkpt>
      <trkpt lat="36.4480340" lon="-5.2577430">
        <ele>409.8</ele>
        <time>2019-08-28T08:23:35Z</time>
      </trkpt>
      <trkpt lat="36.4480500" lon="-5.2578100">
        <ele>409.5</ele>
        <time>2019-08-28T08:23:36Z</time>
      </trkpt>
      <trkpt lat="36.4480750" lon="-5.2578780">
        <ele>409.1</ele>
        <time>2019-08-28T08:23:37Z</time>
      </trkpt>
      <trkpt lat="36.4481080" lon="-5.2579480">
        <ele>408.6</ele>
        <time>2019-08-28T08:23:38Z</time>
      </trkpt>
      <trkpt lat="36.4481490" lon="-5.2580190">
        <ele>408.0</ele>
        <time>2019-08-28T08:23:39Z</time>
      </trkpt>
      <trkpt lat="36.4481990" lon="-5.2580910">
        <ele>407.3</ele>
        <time>2019-08-28T08:23:40Z</time>
      </trkpt>
      <trkpt lat="36.4482600" lon="-5.2581580">
        <ele>406.4</ele>
        <time>2019-08-28T08:23:41Z</time>
      </trkpt>
      <trkpt lat="36.4483420" lon="-5.2582080">
        <ele>405.4</ele>
        <time>2019-08-28T08:23:42Z</time>
      </trkpt>
      <trkpt lat="36.4484440" lon="-5.2582350">
        <ele>404.3</ele>
        <time>2019-08-28T08:23:43Z</time>
      </trkpt>
      <trkpt lat="36.4485580" lon="-5.2582470">
        <ele>403.3</ele>
        <time>2019-08-28T08:23:44Z</time>
      </trkpt>
      <trkpt lat="36.4486760" lon="-5.2582530">
        <ele>402.2</ele>
        <time>2019-08-28T08:23:45Z</time>
      </trkpt>
      <trkpt lat="36.4487860" lon="-5.2582640">
        <ele>401.1</ele>
        <time>2019-08-28T08:23:46Z</time>
      </trkpt>
      <trkpt lat="36.4488950" lon="-5.2582810">
        <ele>400.1</ele>
        <time>2019-08-28T08:23:47Z</time>
      </trkpt>
      <trkpt lat="36.4490040" lon="-5.2583170">
        <ele>399.0</ele>
        <time>2019-08-28T08:23:48Z</time>
      </trkpt>
      <trkpt lat="36.4491120" lon="-5.2583820">
        <ele>397.8</ele>
        <time>2019-08-28T08:23:49Z</time>
      </trkpt>
      <trkpt lat="36.4492170" lon="-5.2584740">
        <ele>396.6</ele>
        <time>2019-08-28T08:23:50Z</time>
      </trkpt>
      <trkpt lat="36.4493040" lon="-5.2585890">
        <ele>395.6</ele>
        <time>2019-08-28T08:23:51Z</time>
      </trkpt>
      <trkpt lat="36.4493840" lon="-5.2587110">
        <ele>394.5</ele>
        <time>2019-08-28T08:23:52Z</time>
      </trkpt>
      <trkpt lat="36.4494700" lon="-5.2588270">
        <ele>393.4</ele>
        <time>2019-08-28T08:23:53Z</time>
      </trkpt>
      <trkpt lat="36.4495730" lon="-5.2589280">
        <ele>392.3</ele>
        <time>2019-08-28T08:23:54Z</time>
      </trkpt>
      <trkpt lat="36.4496890" lon="-5.2590140">
        <ele>391.1</ele>
        <time>2019-08-28T08:23:55Z</time>
      </trkpt>
      <trkpt lat="36.4498160" lon="-5.2590750">
        <ele>389.9</ele>
        <time>2019-08-28T08:23:56Z</time>
      </trkpt>
      <trkpt lat="36.4499490" lon="-5.2591180">
        <ele>388.5</ele>
        <time>2019-08-28T08:23:57Z</time>
      </trkpt>
      <trkpt lat="36.4500810" lon="-5.2591510">
        <ele>387.2</ele>
        <time>2019-08-28T08:23:58Z</time>
      </trkpt>
      <trkpt lat="36.4502050" lon="-5.2591850">
        <ele>386.0</ele>
        <time>2019-08-28T08:23:59Z</time>
      </trkpt>
      <trkpt lat="36.4503240" lon="-5.2592170">
        <ele>384.9</ele>
        <time>2019-08-28T08:24:00Z</time>
      </trkpt>
      <trkpt lat="36.4504390" lon="-5.2592480">
        <ele>383.9</ele>
        <time>2019-08-28T08:24:01Z</time>
      </trkpt>
      <trkpt lat="36.4505460" lon="-5.2592830">
        <ele>383.1</ele>
        <time>2019-08-28T08:24:02Z</time>
      </trkpt>
      <trkpt lat="36.4506510" lon="-5.2593270">
        <ele>382.6</ele>
        <time>2019-08-28T08:24:03Z</time>
      </trkpt>
      <trkpt lat="36.4507540" lon="-5.2593780">
        <ele>382.6</ele>
        <time>2019-08-28T08:24:04Z</time>
      </trkpt>
      <trkpt lat="36.4508570" lon="-5.2594360">
        <ele>382.6</ele>
        <time>2019-08-28T08:24:05Z</time>
      </trkpt>
      <trkpt lat="36.4509310" lon="-5.2595040">
        <ele>382.6</ele>
        <time>2019-08-28T08:24:06Z</time>
      </trkpt>
      <trkpt lat="36.4509670" lon="-5.2595850">
        <ele>382.6</ele>
        <time>2019-08-28T08:24:07Z</time>
      </trkpt>
      <trkpt lat="36.4509530" lon="-5.2596850">
        <ele>382.7</ele>
        <time>2019-08-28T08:24:08Z</time>
      </trkpt>
      <trkpt lat="36.4509100" lon="-5.2597820">
        <ele>383.0</ele>
        <time>2019-08-28T08:24:09Z</time>
      </trkpt>
      <trkpt lat="36.4508330" lon="-5.2598830">
        <ele>383.6</ele>
        <time>2019-08-28T08:24:10Z</time>
      </trkpt>
      <trkpt lat="36.4507300" lon="-5.2599600">
        <ele>384.1</ele>
        <time>2019-08-28T08:24:11Z</time>
      </trkpt>
      <trkpt lat="36.4506220" lon="-5.2600280">
        <ele>384.9</ele>
        <time>2019-08-28T08:24:12Z</time>
      </trkpt>
      <trkpt lat="36.4505280" lon="-5.2600800">
        <ele>385.4</ele>
        <time>2019-08-28T08:24:13Z</time>
      </trkpt>
      <trkpt lat="36.4504550" lon="-5.2601300">
        <ele>385.8</ele>
        <time>2019-08-28T08:24:14Z</time>
      </trkpt>
      <trkpt lat="36.4503900" lon="-5.2601740">
        <ele>386.2</ele>
        <time>2019-08-28T08:24:15Z</time>
      </trkpt>
      <trkpt lat="36.4503190" lon="-5.2602170">
        <ele>386.6</ele>
        <time>2019-08-28T08:24:16Z</time>
      </trkpt>
      <trkpt lat="36.4502510" lon="-5.2602590">
        <ele>387.0</ele>
        <time>2019-08-28T08:24:17Z</time>
      </trkpt>
      <trkpt lat="36.4501830" lon="-5.2602980">
        <ele>387.3</ele>
        <time>2019-08-28T08:24:18Z</time>
      </trkpt>
      <trkpt lat="36.4501240" lon="-5.2603320">
        <ele>387.6</ele>
        <time>2019-08-28T08:24:19Z</time>
      </trkpt>
      <trkpt lat="36.4500600" lon="-5.2603670">
        <ele>387.9</ele>
        <time>2019-08-28T08:24:20Z</time>
      </trkpt>
      <trkpt lat="36.4499990" lon="-5.2604010">
        <ele>388.2</ele>
        <time>2019-08-28T08:24:21Z</time>
      </trkpt>
      <trkpt lat="36.4499390" lon="-5.2604340">
        <ele>388.5</ele>
        <time>2019-08-28T08:24:22Z</time>
      </trkpt>
      <trkpt lat="36.4498820" lon="-5.2604650">
        <ele>388.8</ele>
        <time>2019-08-28T08:24:23Z</time>
      </trkpt>
      <trkpt lat="36.4498220" lon="-5.2604970">
        <ele>389.3</ele>
        <time>2019-08-28T08:24:24Z</time>
      </trkpt>
      <trkpt lat="36.4497610" lon="-5.2605280">
        <ele>389.7</ele>
        <time>2019-08-28T08:24:25Z</time>
      </trkpt>
      <trkpt lat="36.4497050" lon="-5.2605560">
        <ele>390.0</ele>
        <time>2019-08-28T08:24:26Z</time>
      </trkpt>
      <trkpt lat="36.4496510" lon="-5.2605830">
        <ele>390.3</ele>
        <time>2019-08-28T08:24:27Z</time>
      </trkpt>
      <trkpt lat="36.4496000" lon="-5.2606130">
        <ele>390.6</ele>
        <time>2019-08-28T08:24:28Z</time>
      </trkpt>
      <trkpt lat="36.4495540" lon="-5.2606500">
        <ele>390.8</ele>
        <time>2019-08-28T08:24:29Z</time>
      </trkpt>
      <trkpt lat="36.4495150" lon="-5.2606920">
        <ele>391.0</ele>
        <time>2019-08-28T08:24:30Z</time>
      </trkpt>
      <trkpt lat="36.4494810" lon="-5.2607400">
        <ele>391.2</ele>
        <time>2019-08-28T08:24:31Z</time>
      </trkpt>
      <trkpt lat="36.4494520" lon="-5.2607910">
        <ele>391.3</ele>
        <time>2019-08-28T08:24:32Z</time>
      </trkpt>
      <trkpt lat="36.4494300" lon="-5.2608470">
        <ele>391.5</ele>
        <time>2019-08-28T08:24:33Z</time>
      </trkpt>
      <trkpt lat="36.4494150" lon="-5.2609060">
        <ele>391.5</ele>
        <time>2019-08-28T08:24:34Z</time>
      </trkpt>
      <trkpt lat="36.4494060" lon="-5.2609680">
        <ele>391.6</ele>
        <time>2019-08-28T08:24:35Z</time>
      </trkpt>
      <trkpt lat="36.4494050" lon="-5.2610330">
        <ele>391.6</ele>
        <time>2019-08-28T08:24:36Z</time>
      </trkpt>
      <trkpt lat="36.4494110" lon="-5.2611010">
        <ele>391.7</ele>
        <time>2019-08-28T08:24:37Z</time>
      </trkpt>
      <trkpt lat="36.4494290" lon="-5.2611710">
        <ele>391.7</ele>
        <time>2019-08-28T08:24:38Z</time>
      </trkpt>
      <trkpt lat="36.4494520" lon="-5.2612370">
        <ele>391.7</ele>
        <time>2019-08-28T08:24:39Z</time>
      </trkpt>
      <trkpt lat="36.4494800" lon="-5.2613010">
        <ele>391.8</ele>
        <time>2019-08-28T08:24:40Z</time>
      </trkpt>
      <trkpt lat="36.4495100" lon="-5.2613580">
        <ele>391.8</ele>
        <time>2019-08-28T08:24:41Z</time>
      </trkpt>
      <trkpt lat="36.4495530" lon="-5.2614050">
        <ele>391.8</ele>
        <time>2019-08-28T08:24:42Z</time>
      </trkpt>
      <trkpt lat="36.4496020" lon="-5.2614490">
        <ele>391.8</ele>
        <time>2019-08-28T08:24:43Z</time>
      </trkpt>
      <trkpt lat="36.4496560" lon="-5.2614900">
        <ele>391.9</ele>
        <time>2019-08-28T08:24:44Z</time>
      </trkpt>
      <trkpt lat="36.4497020" lon="-5.2615370">
        <ele>391.9</ele>
        <time>2019-08-28T08:24:45Z</time>
      </trkpt>
      <trkpt lat="36.4497470" lon="-5.2615850">
        <ele>391.9</ele>
        <time>2019-08-28T08:24:46Z</time>
      </trkpt>
      <trkpt lat="36.4497920" lon="-5.2616310">
        <ele>391.9</ele>
        <time>2019-08-28T08:24:47Z</time>
      </trkpt>
      <trkpt lat="36.4498400" lon="-5.2616750">
        <ele>391.9</ele>
        <time>2019-08-28T08:24:48Z</time>
      </trkpt>
      <trkpt lat="36.4498990" lon="-5.2617060">
        <ele>391.9</ele>
        <time>2019-08-28T08:24:49Z</time>
      </trkpt>
      <trkpt lat="36.4499580" lon="-5.2617330">
        <ele>391.8</ele>
        <time>2019-08-28T08:24:50Z</time>
      </trkpt>
      <trkpt lat="36.4500200" lon="-5.2617520">
        <ele>391.8</ele>
        <time>2019-08-28T08:24:51Z</time>
      </trkpt>
      <trkpt lat="36.4500890" lon="-5.2617550">
        <ele>391.7</ele>
        <time>2019-08-28T08:24:52Z</time>
      </trkpt>
      <trkpt lat="36.4501630" lon="-5.2617440">
        <ele>391.6</ele>
        <time>2019-08-28T08:24:53Z</time>
      </trkpt>
      <trkpt lat="36.4502380" lon="-5.2617250">
        <ele>391.5</ele>
        <time>2019-08-28T08:24:54Z</time>
      </trkpt>
      <trkpt lat="36.4503030" lon="-5.2617100">
        <ele>391.4</ele>
        <time>2019-08-28T08:24:55Z</time>
      </trkpt>
      <trkpt lat="36.4503660" lon="-5.2616970">
        <ele>391.4</ele>
        <time>2019-08-28T08:24:56Z</time>
      </trkpt>
      <trkpt lat="36.4504310" lon="-5.2616840">
        <ele>391.3</ele>
        <time>2019-08-28T08:24:57Z</time>
      </trkpt>
      <trkpt lat="36.4504960" lon="-5.2616770">
        <ele>391.2</ele>
        <time>2019-08-28T08:24:58Z</time>
      </trkpt>
      <trkpt lat="36.4505620" lon="-5.2616750">
        <ele>391.1</ele>
        <time>2019-08-28T08:24:59Z</time>
      </trkpt>
      <trkpt lat="36.4506300" lon="-5.2616750">
        <ele>390.9</ele>
        <time>2019-08-28T08:25:00Z</time>
      </trkpt>
      <trkpt lat="36.4506990" lon="-5.2616790">
        <ele>390.8</ele>
        <time>2019-08-28T08:25:01Z</time>
      </trkpt>
      <trkpt lat="36.4507710" lon="-5.2616860">
        <ele>390.6</ele>
        <time>2019-08-28T08:25:02Z</time>
      </trkpt>
      <trkpt lat="36.4508440" lon="-5.2616980">
        <ele>390.4</ele>
        <time>2019-08-28T08:25:03Z</time>
      </trkpt>
      <trkpt lat="36.4509180" lon="-5.2617170">
        <ele>390.0</ele>
        <time>2019-08-28T08:25:04Z</time>
      </trkpt>
      <trkpt lat="36.4509920" lon="-5.2617450">
        <ele>389.7</ele>
        <time>2019-08-28T08:25:05Z</time>
      </trkpt>
      <trkpt lat="36.4510660" lon="-5.2617840">
        <ele>389.2</ele>
        <time>2019-08-28T08:25:06Z</time>
      </trkpt>
      <trkpt lat="36.4511340" lon="-5.2618310">
        <ele>388.6</ele>
        <time>2019-08-28T08:25:07Z</time>
      </trkpt>
      <trkpt lat="36.4511790" lon="-5.2619050">
        <ele>388.0</ele>
        <time>2019-08-28T08:25:08Z</time>
      </trkpt>
      <trkpt lat="36.4512000" lon="-5.2619960">
        <ele>387.5</ele>
        <time>2019-08-28T08:25:09Z</time>
      </trkpt>
      <trkpt lat="36.4512040" lon="-5.2620930">
        <ele>387.1</ele>
        <time>2019-08-28T08:25:10Z</time>
      </trkpt>
      <trkpt lat="36.4511780" lon="-5.2621910">
        <ele>386.6</ele>
        <time>2019-08-28T08:25:11Z</time>
      </trkpt>
      <trkpt lat="36.4511030" lon="-5.2622950">
        <ele>385.8</ele>
        <time>2019-08-28T08:25:12Z</time>
      </trkpt>
      <trkpt lat="36.4509800" lon="-5.2624040">
        <ele>384.9</ele>
        <time>2019-08-28T08:25:13Z</time>
      </trkpt>
      <trkpt lat="36.4508500" lon="-5.2624980">
        <ele>384.4</ele>
        <time>2019-08-28T08:25:14Z</time>
      </trkpt>
      <trkpt lat="36.4507370" lon="-5.2625810">
        <ele>384.0</ele>
        <time>2019-08-28T08:25:15Z</time>
      </trkpt>
      <trkpt lat="36.4506410" lon="-5.2626590">
        <ele>383.6</ele>
        <time>2019-08-28T08:25:16Z</time>
      </trkpt>
      <trkpt lat="36.4505500" lon="-5.2627340">
        <ele>382.9</ele>
        <time>2019-08-28T08:25:17Z</time>
      </trkpt>
      <trkpt lat="36.4504600" lon="-5.2628040">
        <ele>382.5</ele>
        <time>2019-08-28T08:25:18Z</time>
      </trkpt>
      <trkpt lat="36.4503700" lon="-5.2628710">
        <ele>382.2</ele>
        <time>2019-08-28T08:25:19Z</time>
      </trkpt>
      <trkpt lat="36.4502810" lon="-5.2629400">
        <ele>381.6</ele>
        <time>2019-08-28T08:25:20Z</time>
      </trkpt>
      <trkpt lat="36.4501970" lon="-5.2630120">
        <ele>381.1</ele>
        <time>2019-08-28T08:25:21Z</time>
      </trkpt>
      <trkpt lat="36.4501220" lon="-5.2630920">
        <ele>380.6</ele>
        <time>2019-08-28T08:25:22Z</time>
      </trkpt>
      <trkpt lat="36.4500530" lon="-5.2631820">
        <ele>380.1</ele>
        <time>2019-08-28T08:25:23Z</time>
      </trkpt>
      <trkpt lat="36.4499960" lon="-5.2632890">
        <ele>379.7</ele>
        <time>2019-08-28T08:25:24Z</time>
      </trkpt>
      <trkpt lat="36.4499550" lon="-5.2634130">
        <ele>379.2</ele>
        <time>2019-08-28T08:25:25Z</time>
      </trkpt>
      <trkpt lat="36.4499340" lon="-5.2635470">
        <ele>378.8</ele>
        <time>2019-08-28T08:25:26Z</time>
      </trkpt>
      <trkpt lat="36.4499330" lon="-5.2636810">
        <ele>378.3</ele>
        <time>2019-08-28T08:25:27Z</time>
      </trkpt>
      <trkpt lat="36.4499500" lon="-5.2638070">
        <ele>377.9</ele>
        <time>2019-08-28T08:25:28Z</time>
      </trkpt>
      <trkpt lat="36.4499790" lon="-5.2639350">
        <ele>377.5</ele>
        <time>2019-08-28T08:25:29Z</time>
      </trkpt>
      <trkpt lat="36.4500150" lon="-5.2640630">
        <ele>377.1</ele>
        <time>2019-08-28T08:25:30Z</time>
      </trkpt>
      <trkpt lat="36.4500540" lon="-5.2641840">
        <ele>376.8</ele>
        <time>2019-08-28T08:25:31Z</time>
      </trkpt>
      <trkpt lat="36.4500930" lon="-5.2642960">
        <ele>376.3</ele>
        <time>2019-08-28T08:25:32Z</time>
      </trkpt>
      <trkpt lat="36.4501300" lon="-5.2643970">
        <ele>376.0</ele>
        <time>2019-08-28T08:25:33Z</time>
      </trkpt>
      <trkpt lat="36.4501660" lon="-5.2644940">
        <ele>375.6</ele>
        <time>2019-08-28T08:25:34Z</time>
      </trkpt>
      <trkpt lat="36.4502090" lon="-5.2645870">
        <ele>375.4</ele>
        <time>2019-08-28T08:25:35Z</time>
      </trkpt>
      <trkpt lat="36.4502620" lon="-5.2646770">
        <ele>375.5</ele>
        <time>2019-08-28T08:25:36Z</time>
      </trkpt>
      <trkpt lat="36.4503350" lon="-5.2647500">
        <ele>375.8</ele>
        <time>2019-08-28T08:25:37Z</time>
      </trkpt>
      <trkpt lat="36.4504200" lon="-5.2648130">
        <ele>376.3</ele>
        <time>2019-08-28T08:25:38Z</time>
      </trkpt>
      <trkpt lat="36.4505080" lon="-5.2648680">
        <ele>376.6</ele>
        <time>2019-08-28T08:25:39Z</time>
      </trkpt>
      <trkpt lat="36.4505830" lon="-5.2649350">
        <ele>376.9</ele>
        <time>2019-08-28T08:25:40Z</time>
      </trkpt>
      <trkpt lat="36.4506510" lon="-5.2650050">
        <ele>378.2</ele>
        <time>2019-08-28T08:25:41Z</time>
      </trkpt>
      <trkpt lat="36.4507060" lon="-5.2650690">
        <ele>378.8</ele>
        <time>2019-08-28T08:25:42Z</time>
      </trkpt>
      <trkpt lat="36.4507190" lon="-5.2651500">
        <ele>379.2</ele>
        <time>2019-08-28T08:25:43Z</time>
      </trkpt>
      <trkpt lat="36.4506940" lon="-5.2652300">
        <ele>379.6</ele>
        <time>2019-08-28T08:25:44Z</time>
      </trkpt>
      <trkpt lat="36.4506560" lon="-5.2652910">
        <ele>380.0</ele>
        <time>2019-08-28T08:25:45Z</time>
      </trkpt>
      <trkpt lat="36.4506460" lon="-5.2652960">
        <ele>380.1</ele>
        <time>2019-08-28T08:25:46Z</time>
      </trkpt>
      <trkpt lat="36.4506100" lon="-5.2652750">
        <ele>380.3</ele>
        <time>2019-08-28T08:25:47Z</time>
      </trkpt>
      <trkpt lat="36.4505820" lon="-5.2652670">
        <ele>380.5</ele>
        <time>2019-08-28T08:25:48Z</time>
      </trkpt>
      <trkpt lat="36.4505540" lon="-5.2652590">
        <ele>380.6</ele>
        <time>2019-08-28T08:25:49Z</time>
      </trkpt>
      <trkpt lat="36.4505260" lon="-5.2652510">
        <ele>380.8</ele>
        <time>2019-08-28T08:25:50Z</time>
      </trkpt>
      <trkpt lat="36.4504980" lon="-5.2652420">
        <ele>381.0</ele>
        <time>2019-08-28T08:25:51Z</time>
      </trkpt>
      <trkpt lat="36.4504700" lon="-5.2652340">
        <ele>381.1</ele>
        <time>2019-08-28T08:25:52Z</time>
      </trkpt>
      <trkpt lat="36.4504420" lon="-5.2652260">
        <ele>381.3</ele>
        <time>2019-08-28T08:25:53Z</time>
      </trkpt>
      <trkpt lat="36.4504140" lon="-5.2652180">
        <ele>381.5</ele>
        <time>2019-08-28T08:25:54Z</time>
      </trkpt>
      <trkpt lat="36.4503860" lon="-5.2652100">
        <ele>381.7</ele>
        <time>2019-08-28T08:25:55Z</time>
      </trkpt>
      <trkpt lat="36.4503470" lon="-5.2652230">
        <ele>381.9</ele>
        <time>2019-08-28T08:25:56Z</time>
      </trkpt>
      <trkpt lat="36.4503110" lon="-5.2652320">
        <ele>382.2</ele>
        <time>2019-08-28T08:25:57Z</time>
      </trkpt>
      <trkpt lat="36.4502760" lon="-5.2652350">
        <ele>382.5</ele>
        <time>2019-08-28T08:25:58Z</time>
      </trkpt>
      <trkpt lat="36.4502420" lon="-5.2652370">
        <ele>382.8</ele>
        <time>2019-08-28T08:25:59Z</time>
      </trkpt>
      <trkpt lat="36.4502060" lon="-5.2652440">
        <ele>383.2</ele>
        <time>2019-08-28T08:26:00Z</time>
      </trkpt>
      <trkpt lat="36.4501710" lon="-5.2652550">
        <ele>383.6</ele>
        <time>2019-08-28T08:26:01Z</time>
      </trkpt>
      <trkpt lat="36.4501340" lon="-5.2652680">
        <ele>383.9</ele>
        <time>2019-08-28T08:26:02Z</time>
      </trkpt>
      <trkpt lat="36.4500970" lon="-5.2652810">
        <ele>384.2</ele>
        <time>2019-08-28T08:26:03Z</time>
      </trkpt>
      <trkpt lat="36.4500580" lon="-5.2652930">
        <ele>384.5</ele>
        <time>2019-08-28T08:26:04Z</time>
      </trkpt>
      <trkpt lat="36.4500190" lon="-5.2653050">
        <ele>384.8</ele>
        <time>2019-08-28T08:26:05Z</time>
      </trkpt>
      <trkpt lat="36.4499780" lon="-5.2653180">
        <ele>385.1</ele>
        <time>2019-08-28T08:26:06Z</time>
      </trkpt>
      <trkpt lat="36.4499380" lon="-5.2653310">
        <ele>385.6</ele>
        <time>2019-08-28T08:26:07Z</time>
      </trkpt>
      <trkpt lat="36.4498970" lon="-5.2653460">
        <ele>386.0</ele>
        <time>2019-08-28T08:26:08Z</time>
      </trkpt>
      <trkpt lat="36.4498570" lon="-5.2653620">
        <ele>386.4</ele>
        <time>2019-08-28T08:26:09Z</time>
      </trkpt>
      <trkpt lat="36.4498160" lon="-5.2653780">
        <ele>386.9</ele>
        <time>2019-08-28T08:26:10Z</time>
      </trkpt>
      <trkpt lat="36.4497770" lon="-5.2653930">
        <ele>387.2</ele>
        <time>2019-08-28T08:26:11Z</time>
      </trkpt>
      <trkpt lat="36.4497370" lon="-5.2654060">
        <ele>387.5</ele>
        <time>2019-08-28T08:26:12Z</time>
      </trkpt>
      <trkpt lat="36.4496980" lon="-5.2654190">
        <ele>387.8</ele>
        <time>2019-08-28T08:26:13Z</time>
      </trkpt>
      <trkpt lat="36.4496600" lon="-5.2654320">
        <ele>388.1</ele>
        <time>2019-08-28T08:26:14Z</time>
      </trkpt>
      <trkpt lat="36.4496230" lon="-5.2654480">
        <ele>388.4</ele>
        <time>2019-08-28T08:26:15Z</time>
      </trkpt>
      <trkpt lat="36.4495860" lon="-5.2654640">
        <ele>388.8</ele>
        <time>2019-08-28T08:26:16Z</time>
      </trkpt>
      <trkpt lat="36.4495500" lon="-5.2654820">
        <ele>389.2</ele>
        <time>2019-08-28T08:26:17Z</time>
      </trkpt>
      <trkpt lat="36.4495150" lon="-5.2655010">
        <ele>389.5</ele>
        <time>2019-08-28T08:26:18Z</time>
      </trkpt>
      <trkpt lat="36.4494820" lon="-5.2655210">
        <ele>389.8</ele>
        <time>2019-08-28T08:26:19Z</time>
      </trkpt>
      <trkpt lat="36.4494500" lon="-5.2655420">
        <ele>390.1</ele>
        <time>2019-08-28T08:26:20Z</time>
      </trkpt>
      <trkpt lat="36.4494190" lon="-5.2655660">
        <ele>390.4</ele>
        <time>2019-08-28T08:26:21Z</time>
      </trkpt>
      <trkpt lat="36.4493910" lon="-5.2655940">
        <ele>390.6</ele>
        <time>2019-08-28T08:26:22Z</time>
      </trkpt>
      <trkpt lat="36.4493640" lon="-5.2656240">
        <ele>390.9</ele>
        <time>2019-08-28T08:26:23Z</time>
      </trkpt>
      <trkpt lat="36.4493400" lon="-5.2656550">
        <ele>391.1</ele>
        <time>2019-08-28T08:26:24Z</time>
      </trkpt>
      <trkpt lat="36.4493170" lon="-5.2656860">
        <ele>391.2</ele>
        <time>2019-08-28T08:26:25Z</time>
      </trkpt>
      <trkpt lat="36.4492980" lon="-5.2657220">
        <ele>391.4</ele>
        <time>2019-08-28T08:26:26Z</time>
      </trkpt>
      <trkpt lat="36.4492830" lon="-5.2657610">
        <ele>391.6</ele>
        <time>2019-08-28T08:26:27Z</time>
      </trkpt>
      <trkpt lat="36.4492730" lon="-5.2658000">
        <ele>391.8</ele>
        <time>2019-08-28T08:26:28Z</time>
      </trkpt>
      <trkpt lat="36.4492660" lon="-5.2658380">
        <ele>391.9</ele>
        <time>2019-08-28T08:26:29Z</time>
      </trkpt>
      <trkpt lat="36.4492630" lon="-5.2658770">
        <ele>392.0</ele>
        <time>2019-08-28T08:26:30Z</time>
      </trkpt>
      <trkpt lat="36.4492620" lon="-5.2659180">
        <ele>392.1</ele>
        <time>2019-08-28T08:26:31Z</time>
      </trkpt>
      <trkpt lat="36.4492650" lon="-5.2659590">
        <ele>392.2</ele>
        <time>2019-08-28T08:26:32Z</time>
      </trkpt>
      <trkpt lat="36.4492730" lon="-5.2660000">
        <ele>392.3</ele>
        <time>2019-08-28T08:26:33Z</time>
      </trkpt>
      <trkpt lat="36.4492840" lon="-5.2660410">
        <ele>392.4</ele>
        <time>2019-08-28T08:26:34Z</time>
      </trkpt>
      <trkpt lat="36.4492990" lon="-5.2660800">
        <ele>392.5</ele>
        <time>2019-08-28T08:26:35Z</time>
      </trkpt>
      <trkpt lat="36.4493180" lon="-5.2661180">
        <ele>392.6</ele>
        <time>2019-08-28T08:26:36Z</time>
      </trkpt>
      <trkpt lat="36.4493390" lon="-5.2661540">
        <ele>392.7</ele>
        <time>2019-08-28T08:26:37Z</time>
      </trkpt>
      <trkpt lat="36.4493630" lon="-5.2661870">
        <ele>392.8</ele>
        <time>2019-08-28T08:26:38Z</time>
      </trkpt>
      <trkpt lat="36.4493880" lon="-5.2662200">
        <ele>393.0</ele>
        <time>2019-08-28T08:26:39Z</time>
      </trkpt>
      <trkpt lat="36.4494130" lon="-5.2662510">
        <ele>393.1</ele>
        <time>2019-08-28T08:26:40Z</time>
      </trkpt>
      <trkpt lat="36.4494390" lon="-5.2662810">
        <ele>393.2</ele>
        <time>2019-08-28T08:26:41Z</time>
      </trkpt>
      <trkpt lat="36.4494660" lon="-5.2663100">
        <ele>393.4</ele>
        <time>2019-08-28T08:26:42Z</time>
      </trkpt>
      <trkpt lat="36.4494940" lon="-5.2663390">
        <ele>393.5</ele>
        <time>2019-08-28T08:26:43Z</time>
      </trkpt>
      <trkpt lat="36.4495220" lon="-5.2663670">
        <ele>393.6</ele>
        <time>2019-08-28T08:26:44Z</time>
      </trkpt>
      <trkpt lat="36.4495500" lon="-5.2663950">
        <ele>393.7</ele>
        <time>2019-08-28T08:26:45Z</time>
      </trkpt>
      <trkpt lat="36.4495770" lon="-5.2664230">
        <ele>393.8</ele>
        <time>2019-08-28T08:26:46Z</time>
      </trkpt>
      <trkpt lat="36.4496040" lon="-5.2664510">
        <ele>394.0</ele>
        <time>2019-08-28T08:26:47Z</time>
      </trkpt>
      <trkpt lat="36.4496300" lon="-5.2664780">
        <ele>394.1</ele>
        <time>2019-08-28T08:26:48Z</time>
      </trkpt>
      <trkpt lat="36.4496550" lon="-5.2665050">
        <ele>394.2</ele>
        <time>2019-08-28T08:26:49Z</time>
      </trkpt>
      <trkpt lat="36.4496790" lon="-5.2665340">
        <ele>394.4</ele>
        <time>2019-08-28T08:26:50Z</time>
      </trkpt>
      <trkpt lat="36.4497020" lon="-5.2665650">
        <ele>394.5</ele>
        <time>2019-08-28T08:26:51Z</time>
      </trkpt>
      <trkpt lat="36.4497220" lon="-5.2665990">
        <ele>394.7</ele>
        <time>2019-08-28T08:26:52Z</time>
      </trkpt>
      <trkpt lat="36.4497400" lon="-5.2666330">
        <ele>394.9</ele>
        <time>2019-08-28T08:26:53Z</time>
      </trkpt>
      <trkpt lat="36.4497560" lon="-5.2666680">
        <ele>395.1</ele>
        <time>2019-08-28T08:26:54Z</time>
      </trkpt>
      <trkpt lat="36.4497660" lon="-5.2667060">
        <ele>395.3</ele>
        <time>2019-08-28T08:26:55Z</time>
      </trkpt>
      <trkpt lat="36.4497690" lon="-5.2667510">
        <ele>395.5</ele>
        <time>2019-08-28T08:26:56Z</time>
      </trkpt>
      <trkpt lat="36.4497660" lon="-5.2667990">
        <ele>395.7</ele>
        <time>2019-08-28T08:26:57Z</time>
      </trkpt>
      <trkpt lat="36.4497570" lon="-5.2668480">
        <ele>395.9</ele>
        <time>2019-08-28T08:26:58Z</time>
      </trkpt>
      <trkpt lat="36.4497430" lon="-5.2668930">
        <ele>396.1</ele>
        <time>2019-08-28T08:26:59Z</time>
      </trkpt>
      <trkpt lat="36.4497260" lon="-5.2669360">
        <ele>396.3</ele>
        <time>2019-08-28T08:27:00Z</time>
      </trkpt>
      <trkpt lat="36.4497060" lon="-5.2669760">
        <ele>396.5</ele>
        <time>2019-08-28T08:27:01Z</time>
      </trkpt>
      <trkpt lat="36.4496840" lon="-5.2670130">
        <ele>396.7</ele>
        <time>2019-08-28T08:27:02Z</time>
      </trkpt>
      <trkpt lat="36.4496590" lon="-5.2670450">
        <ele>397.0</ele>
        <time>2019-08-28T08:27:03Z</time>
      </trkpt>
      <trkpt lat="36.4496300" lon="-5.2670740">
        <ele>397.2</ele>
        <time>2019-08-28T08:27:04Z</time>
      </trkpt>
      <trkpt lat="36.4496000" lon="-5.2670990">
        <ele>397.4</ele>
        <time>2019-08-28T08:27:05Z</time>
      </trkpt>
      <trkpt lat="36.4495690" lon="-5.2671190">
        <ele>397.7</ele>
        <time>2019-08-28T08:27:06Z</time>
      </trkpt>
      <trkpt lat="36.4495360" lon="-5.2671350">
        <ele>398.0</ele>
        <time>2019-08-28T08:27:07Z</time>
      </trkpt>
      <trkpt lat="36.4495030" lon="-5.2671460">
        <ele>398.2</ele>
        <time>2019-08-28T08:27:08Z</time>
      </trkpt>
      <trkpt lat="36.4494700" lon="-5.2671540">
        <ele>398.5</ele>
        <time>2019-08-28T08:27:09Z</time>
      </trkpt>
      <trkpt lat="36.4494360" lon="-5.2671600">
        <ele>398.8</ele>
        <time>2019-08-28T08:27:10Z</time>
      </trkpt>
      <trkpt lat="36.4494030" lon="-5.2671650">
        <ele>399.1</ele>
        <time>2019-08-28T08:27:11Z</time>
      </trkpt>
      <trkpt lat="36.4493700" lon="-5.2671710">
        <ele>399.3</ele>
        <time>2019-08-28T08:27:12Z</time>
      </trkpt>
      <trkpt lat="36.4493370" lon="-5.2671780">
        <ele>399.6</ele>
        <time>2019-08-28T08:27:13Z</time>
      </trkpt>
      <trkpt lat="36.4493030" lon="-5.2671860">
        <ele>400.0</ele>
        <time>2019-08-28T08:27:14Z</time>
      </trkpt>
      <trkpt lat="36.4492700" lon="-5.2671970">
        <ele>400.3</ele>
        <time>2019-08-28T08:27:15Z</time>
      </trkpt>
      <trkpt lat="36.4492370" lon="-5.2672080">
        <ele>400.5</ele>
        <time>2019-08-28T08:27:16Z</time>
      </trkpt>
      <trkpt lat="36.4492060" lon="-5.2672210">
        <ele>400.7</ele>
        <time>2019-08-28T08:27:17Z</time>
      </trkpt>
      <trkpt lat="36.4491750" lon="-5.2672350">
        <ele>400.9</ele>
        <time>2019-08-28T08:27:18Z</time>
      </trkpt>
      <trkpt lat="36.4491450" lon="-5.2672510">
        <ele>401.0</ele>
        <time>2019-08-28T08:27:19Z</time>
      </trkpt>
      <trkpt lat="36.4491160" lon="-5.2672680">
        <ele>401.2</ele>
        <time>2019-08-28T08:27:20Z</time>
      </trkpt>
      <trkpt lat="36.4490880" lon="-5.2672880">
        <ele>401.4</ele>
        <time>2019-08-28T08:27:21Z</time>
      </trkpt>
      <trkpt lat="36.4490620" lon="-5.2673080">
        <ele>401.5</ele>
        <time>2019-08-28T08:27:22Z</time>
      </trkpt>
      <trkpt lat="36.4490380" lon="-5.2673310">
        <ele>401.6</ele>
        <time>2019-08-28T08:27:23Z</time>
      </trkpt>
      <trkpt lat="36.4490150" lon="-5.2673550">
        <ele>401.7</ele>
        <time>2019-08-28T08:27:24Z</time>
      </trkpt>
      <trkpt lat="36.4489930" lon="-5.2673800">
        <ele>401.8</ele>
        <time>2019-08-28T08:27:25Z</time>
      </trkpt>
      <trkpt lat="36.4489700" lon="-5.2674040">
        <ele>401.9</ele>
        <time>2019-08-28T08:27:26Z</time>
      </trkpt>
      <trkpt lat="36.4489470" lon="-5.2674270">
        <ele>402.0</ele>
        <time>2019-08-28T08:27:27Z</time>
      </trkpt>
      <trkpt lat="36.4489230" lon="-5.2674510">
        <ele>402.2</ele>
        <time>2019-08-28T08:27:28Z</time>
      </trkpt>
      <trkpt lat="36.4488980" lon="-5.2674720">
        <ele>402.3</ele>
        <time>2019-08-28T08:27:29Z</time>
      </trkpt>
      <trkpt lat="36.4488710" lon="-5.2674910">
        <ele>402.5</ele>
        <time>2019-08-28T08:27:30Z</time>
      </trkpt>
      <trkpt lat="36.4488420" lon="-5.2675080">
        <ele>402.6</ele>
        <time>2019-08-28T08:27:31Z</time>
      </trkpt>
      <trkpt lat="36.4488130" lon="-5.2675250">
        <ele>402.7</ele>
        <time>2019-08-28T08:27:32Z</time>
      </trkpt>
      <trkpt lat="36.4487830" lon="-5.2675430">
        <ele>402.9</ele>
        <time>2019-08-28T08:27:33Z</time>
      </trkpt>
      <trkpt lat="36.4487520" lon="-5.2675590">
        <ele>403.0</ele>
        <time>2019-08-28T08:27:34Z</time>
      </trkpt>
      <trkpt lat="36.4487210" lon="-5.2675740">
        <ele>403.2</ele>
        <time>2019-08-28T08:27:35Z</time>
      </trkpt>
      <trkpt lat="36.4486890" lon="-5.2675900">
        <ele>403.4</ele>
        <time>2019-08-28T08:27:36Z</time>
      </trkpt>
      <trkpt lat="36.4486560" lon="-5.2676050">
        <ele>403.6</ele>
        <time>2019-08-28T08:27:37Z</time>
      </trkpt>
      <trkpt lat="36.4486240" lon="-5.2676190">
        <ele>403.9</ele>
        <time>2019-08-28T08:27:38Z</time>
      </trkpt>
      <trkpt lat="36.4485900" lon="-5.2676320">
        <ele>404.1</ele>
        <time>2019-08-28T08:27:39Z</time>
      </trkpt>
      <trkpt lat="36.4485560" lon="-5.2676440">
        <ele>404.3</ele>
        <time>2019-08-28T08:27:40Z</time>
      </trkpt>
      <trkpt lat="36.4485220" lon="-5.2676520">
        <ele>404.5</ele>
        <time>2019-08-28T08:27:41Z</time>
      </trkpt>
      <trkpt lat="36.4484880" lon="-5.2676560">
        <ele>404.7</ele>
        <time>2019-08-28T08:27:42Z</time>
      </trkpt>
      <trkpt lat="36.4484560" lon="-5.2676530">
        <ele>404.8</ele>
        <time>2019-08-28T08:27:43Z</time>
      </trkpt>
      <trkpt lat="36.4484230" lon="-5.2676380">
        <ele>405.1</ele>
        <time>2019-08-28T08:27:44Z</time>
      </trkpt>
      <trkpt lat="36.4483910" lon="-5.2676180">
        <ele>405.3</ele>
        <time>2019-08-28T08:27:45Z</time>
      </trkpt>
      <trkpt lat="36.4483600" lon="-5.2675940">
        <ele>405.5</ele>
        <time>2019-08-28T08:27:46Z</time>
      </trkpt>
      <trkpt lat="36.4483310" lon="-5.2675700">
        <ele>405.9</ele>
        <time>2019-08-28T08:27:47Z</time>
      </trkpt>
      <trkpt lat="36.4483050" lon="-5.2675420">
        <ele>406.2</ele>
        <time>2019-08-28T08:27:48Z</time>
      </trkpt>
      <trkpt lat="36.4482800" lon="-5.2675120">
        <ele>406.4</ele>
        <time>2019-08-28T08:27:49Z</time>
      </trkpt>
      <trkpt lat="36.4482540" lon="-5.2674830">
        <ele>406.7</ele>
        <time>2019-08-28T08:27:50Z</time>
      </trkpt>
      <trkpt lat="36.4482290" lon="-5.2674540">
        <ele>406.9</ele>
        <time>2019-08-28T08:27:51Z</time>
      </trkpt>
      <trkpt lat="36.4482040" lon="-5.2674250">
        <ele>407.3</ele>
        <time>2019-08-28T08:27:52Z</time>
      </trkpt>
      <trkpt lat="36.4481790" lon="-5.2673960">
        <ele>407.6</ele>
        <time>2019-08-28T08:27:53Z</time>
      </trkpt>
      <trkpt lat="36.4481540" lon="-5.2673680">
        <ele>408.0</ele>
        <time>2019-08-28T08:27:54Z</time>
      </trkpt>
      <trkpt lat="36.4481300" lon="-5.2673400">
        <ele>408.3</ele>
        <time>2019-08-28T08:27:55Z</time>
      </trkpt>
      <trkpt lat="36.4481060" lon="-5.2673130">
        <ele>408.5</ele>
        <time>2019-08-28T08:27:56Z</time>
      </trkpt>
      <trkpt lat="36.4480810" lon="-5.2672870">
        <ele>408.7</ele>
        <time>2019-08-28T08:27:57Z</time>
      </trkpt>
      <trkpt lat="36.4480550" lon="-5.2672620">
        <ele>409.0</ele>
        <time>2019-08-28T08:27:58Z</time>
      </trkpt>
      <trkpt lat="36.4480280" lon="-5.2672390">
        <ele>409.2</ele>
        <time>2019-08-28T08:27:59Z</time>
      </trkpt>
      <trkpt lat="36.4480010" lon="-5.2672170">
        <ele>409.5</ele>
        <time>2019-08-28T08:28:00Z</time>
      </trkpt>
      <trkpt lat="36.4479720" lon="-5.2671970">
        <ele>409.9</ele>
        <time>2019-08-28T08:28:01Z</time>
      </trkpt>
      <trkpt lat="36.4479430" lon="-5.2671810">
        <ele>410.1</ele>
        <time>2019-08-28T08:28:02Z</time>
      </trkpt>
      <trkpt lat="36.4479130" lon="-5.2671670">
        <ele>410.3</ele>
        <time>2019-08-28T08:28:03Z</time>
      </trkpt>
      <trkpt lat="36.4478810" lon="-5.2671560">
        <ele>410.5</ele>
        <time>2019-08-28T08:28:04Z</time>
      </trkpt>
      <trkpt lat="36.4478480" lon="-5.2671480">
        <ele>410.7</ele>
        <time>2019-08-28T08:28:05Z</time>
      </trkpt>
      <trkpt lat="36.4478160" lon="-5.2671430">
        <ele>410.9</ele>
        <time>2019-08-28T08:28:06Z</time>
      </trkpt>
      <trkpt lat="36.4477830" lon="-5.2671400">
        <ele>411.2</ele>
        <time>2019-08-28T08:28:07Z</time>
      </trkpt>
      <trkpt lat="36.4477510" lon="-5.2671400">
        <ele>411.4</ele>
        <time>2019-08-28T08:28:08Z</time>
      </trkpt>
      <trkpt lat="36.4477200" lon="-5.2671430">
        <ele>411.7</ele>
        <time>2019-08-28T08:28:09Z</time>
      </trkpt>
      <trkpt lat="36.4476900" lon="-5.2671520">
        <ele>411.9</ele>
        <time>2019-08-28T08:28:10Z</time>
      </trkpt>
      <trkpt lat="36.4476600" lon="-5.2671640">
        <ele>412.1</ele>
        <time>2019-08-28T08:28:11Z</time>
      </trkpt>
      <trkpt lat="36.4476320" lon="-5.2671800">
        <ele>412.3</ele>
        <time>2019-08-28T08:28:12Z</time>
      </trkpt>
      <trkpt lat="36.4476040" lon="-5.2672010">
        <ele>412.6</ele>
        <time>2019-08-28T08:28:13Z</time>
      </trkpt>
      <trkpt lat="36.4475770" lon="-5.2672240">
        <ele>412.8</ele>
        <time>2019-08-28T08:28:14Z</time>
      </trkpt>
      <trkpt lat="36.4475500" lon="-5.2672480">
        <ele>413.0</ele>
        <time>2019-08-28T08:28:15Z</time>
      </trkpt>
      <trkpt lat="36.4475210" lon="-5.2672700">
        <ele>413.1</ele>
        <time>2019-08-28T08:28:16Z</time>
      </trkpt>
      <trkpt lat="36.4474910" lon="-5.2672920">
        <ele>413.3</ele>
        <time>2019-08-28T08:28:17Z</time>
      </trkpt>
      <trkpt lat="36.4474600" lon="-5.2673130">
        <ele>413.5</ele>
        <time>2019-08-28T08:28:18Z</time>
      </trkpt>
      <trkpt lat="36.4474280" lon="-5.2673320">
        <ele>413.7</ele>
        <time>2019-08-28T08:28:19Z</time>
      </trkpt>
      <trkpt lat="36.4473950" lon="-5.2673480">
        <ele>413.9</ele>
        <time>2019-08-28T08:28:20Z</time>
      </trkpt>
      <trkpt lat="36.4473610" lon="-5.2673600">
        <ele>414.1</ele>
        <time>2019-08-28T08:28:21Z</time>
      </trkpt>
      <trkpt lat="36.4473250" lon="-5.2673660">
        <ele>414.2</ele>
        <time>2019-08-28T08:28:22Z</time>
      </trkpt>
      <trkpt lat="36.4472890" lon="-5.2673650">
        <ele>414.4</ele>
        <time>2019-08-28T08:28:23Z</time>
      </trkpt>
      <trkpt lat="36.4472520" lon="-5.2673570">
        <ele>414.5</ele>
        <time>2019-08-28T08:28:24Z</time>
      </trkpt>
      <trkpt lat="36.4472150" lon="-5.2673420">
        <ele>414.7</ele>
        <time>2019-08-28T08:28:25Z</time>
      </trkpt>
      <trkpt lat="36.4471790" lon="-5.2673220">
        <ele>414.9</ele>
        <time>2019-08-28T08:28:26Z</time>
      </trkpt>
      <trkpt lat="36.4471440" lon="-5.2672980">
        <ele>415.2</ele>
        <time>2019-08-28T08:28:27Z</time>
      </trkpt>
      <trkpt lat="36.4471080" lon="-5.2672730">
        <ele>415.4</ele>
        <time>2019-08-28T08:28:28Z</time>
      </trkpt>
      <trkpt lat="36.4470730" lon="-5.2672490">
        <ele>415.6</ele>
        <time>2019-08-28T08:28:29Z</time>
      </trkpt>
      <trkpt lat="36.4470370" lon="-5.2672250">
        <ele>415.8</ele>
        <time>2019-08-28T08:28:30Z</time>
      </trkpt>
      <trkpt lat="36.4470010" lon="-5.2672020">
        <ele>416.0</ele>
        <time>2019-08-28T08:28:31Z</time>
      </trkpt>
      <trkpt lat="36.4469660" lon="-5.2671780">
        <ele>416.2</ele>
        <time>2019-08-28T08:28:32Z</time>
      </trkpt>
      <trkpt lat="36.4469310" lon="-5.2671530">
        <ele>416.3</ele>
        <time>2019-08-28T08:28:33Z</time>
      </trkpt>
      <trkpt lat="36.4468950" lon="-5.2671300">
        <ele>416.5</ele>
        <time>2019-08-28T08:28:34Z</time>
      </trkpt>
      <trkpt lat="36.4468590" lon="-5.2671080">
        <ele>416.7</ele>
        <time>2019-08-28T08:28:35Z</time>
      </trkpt>
      <trkpt lat="36.4468230" lon="-5.2670870">
        <ele>416.8</ele>
        <time>2019-08-28T08:28:36Z</time>
      </trkpt>
      <trkpt lat="36.4467870" lon="-5.2670670">
        <ele>417.0</ele>
        <time>2019-08-28T08:28:37Z</time>
      </trkpt>
      <trkpt lat="36.4467510" lon="-5.2670490">
        <ele>417.3</ele>
        <time>2019-08-28T08:28:38Z</time>
      </trkpt>
      <trkpt lat="36.4467140" lon="-5.2670330">
        <ele>417.6</ele>
        <time>2019-08-28T08:28:39Z</time>
      </trkpt>
      <trkpt lat="36.4466770" lon="-5.2670190">
        <ele>417.8</ele>
        <time>2019-08-28T08:28:40Z</time>
      </trkpt>
      <trkpt lat="36.4466410" lon="-5.2670060">
        <ele>418.0</ele>
        <time>2019-08-28T08:28:41Z</time>
      </trkpt>
      <trkpt lat="36.4466040" lon="-5.2669920">
        <ele>418.2</ele>
        <time>2019-08-28T08:28:42Z</time>
      </trkpt>
      <trkpt lat="36.4465680" lon="-5.2669800">
        <ele>418.4</ele>
        <time>2019-08-28T08:28:43Z</time>
      </trkpt>
      <trkpt lat="36.4465320" lon="-5.2669670">
        <ele>418.6</ele>
        <time>2019-08-28T08:28:44Z</time>
      </trkpt>
      <trkpt lat="36.4464960" lon="-5.2669550">
        <ele>418.8</ele>
        <time>2019-08-28T08:28:45Z</time>
      </trkpt>
      <trkpt lat="36.4464610" lon="-5.2669420">
        <ele>419.1</ele>
        <time>2019-08-28T08:28:46Z</time>
      </trkpt>
      <trkpt lat="36.4464270" lon="-5.2669300">
        <ele>419.3</ele>
        <time>2019-08-28T08:28:47Z</time>
      </trkpt>
      <trkpt lat="36.4463930" lon="-5.2669180">
        <ele>419.5</ele>
        <time>2019-08-28T08:28:48Z</time>
      </trkpt>
      <trkpt lat="36.4463590" lon="-5.2669060">
        <ele>419.7</ele>
        <time>2019-08-28T08:28:49Z</time>
      </trkpt>
      <trkpt lat="36.4463260" lon="-5.2668940">
        <ele>419.9</ele>
        <time>2019-08-28T08:28:50Z</time>
      </trkpt>
      <trkpt lat="36.4462920" lon="-5.2668820">
        <ele>420.2</ele>
        <time>2019-08-28T08:28:51Z</time>
      </trkpt>
      <trkpt lat="36.4462580" lon="-5.2668710">
        <ele>420.4</ele>
        <time>2019-08-28T08:28:52Z</time>
      </trkpt>
      <trkpt lat="36.4462240" lon="-5.2668590">
        <ele>420.7</ele>
        <time>2019-08-28T08:28:53Z</time>
      </trkpt>
      <trkpt lat="36.4461900" lon="-5.2668480">
        <ele>421.0</ele>
        <time>2019-08-28T08:28:54Z</time>
      </trkpt>
      <trkpt lat="36.4461560" lon="-5.2668380">
        <ele>421.4</ele>
        <time>2019-08-28T08:28:55Z</time>
      </trkpt>
      <trkpt lat="36.4461220" lon="-5.2668260">
        <ele>421.7</ele>
        <time>2019-08-28T08:28:56Z</time>
      </trkpt>
      <trkpt lat="36.4460870" lon="-5.2668160">
        <ele>422.1</ele>
        <time>2019-08-28T08:28:57Z</time>
      </trkpt>
      <trkpt lat="36.4460520" lon="-5.2668060">
        <ele>422.4</ele>
        <time>2019-08-28T08:28:58Z</time>
      </trkpt>
      <trkpt lat="36.4460170" lon="-5.2667980">
        <ele>422.7</ele>
        <time>2019-08-28T08:28:59Z</time>
      </trkpt>
      <trkpt lat="36.4459800" lon="-5.2667920">
        <ele>422.9</ele>
        <time>2019-08-28T08:29:00Z</time>
      </trkpt>
      <trkpt lat="36.4459430" lon="-5.2667880">
        <ele>423.2</ele>
        <time>2019-08-28T08:29:01Z</time>
      </trkpt>
      <trkpt lat="36.4459070" lon="-5.2667830">
        <ele>423.5</ele>
        <time>2019-08-28T08:29:02Z</time>
      </trkpt>
      <trkpt lat="36.4458700" lon="-5.2667790">
        <ele>423.8</ele>
        <time>2019-08-28T08:29:03Z</time>
      </trkpt>
      <trkpt lat="36.4458340" lon="-5.2667760">
        <ele>424.0</ele>
        <time>2019-08-28T08:29:04Z</time>
      </trkpt>
      <trkpt lat="36.4457970" lon="-5.2667740">
        <ele>424.3</ele>
        <time>2019-08-28T08:29:05Z</time>
      </trkpt>
      <trkpt lat="36.4457610" lon="-5.2667740">
        <ele>424.6</ele>
        <time>2019-08-28T08:29:06Z</time>
      </trkpt>
      <trkpt lat="36.4457250" lon="-5.2667760">
        <ele>424.8</ele>
        <time>2019-08-28T08:29:07Z</time>
      </trkpt>
      <trkpt lat="36.4456880" lon="-5.2667800">
        <ele>425.1</ele>
        <time>2019-08-28T08:29:08Z</time>
      </trkpt>
      <trkpt lat="36.4456510" lon="-5.2667860">
        <ele>425.3</ele>
        <time>2019-08-28T08:29:09Z</time>
      </trkpt>
      <trkpt lat="36.4456130" lon="-5.2667930">
        <ele>425.6</ele>
        <time>2019-08-28T08:29:10Z</time>
      </trkpt>
      <trkpt lat="36.4455740" lon="-5.2668020">
        <ele>426.0</ele>
        <time>2019-08-28T08:29:11Z</time>
      </trkpt>
      <trkpt lat="36.4455360" lon="-5.2668120">
        <ele>426.3</ele>
        <time>2019-08-28T08:29:12Z</time>
      </trkpt>
      <trkpt lat="36.4454980" lon="-5.2668230">
        <ele>426.7</ele>
        <time>2019-08-28T08:29:13Z</time>
      </trkpt>
      <trkpt lat="36.4454590" lon="-5.2668350">
        <ele>427.1</ele>
        <time>2019-08-28T08:29:14Z</time>
      </trkpt>
      <trkpt lat="36.4454210" lon="-5.2668490">
        <ele>427.4</ele>
        <time>2019-08-28T08:29:15Z</time>
      </trkpt>
      <trkpt lat="36.4453830" lon="-5.2668650">
        <ele>427.8</ele>
        <time>2019-08-28T08:29:16Z</time>
      </trkpt>
      <trkpt lat="36.4453460" lon="-5.2668810">
        <ele>428.1</ele>
        <time>2019-08-28T08:29:17Z</time>
      </trkpt>
      <trkpt lat="36.4453070" lon="-5.2668970">
        <ele>428.5</ele>
        <time>2019-08-28T08:29:18Z</time>
      </trkpt>
      <trkpt lat="36.4452690" lon="-5.2669120">
        <ele>428.8</ele>
        <time>2019-08-28T08:29:19Z</time>
      </trkpt>
      <trkpt lat="36.4452310" lon="-5.2669270">
        <ele>429.1</ele>
        <time>2019-08-28T08:29:20Z</time>
      </trkpt>
      <trkpt lat="36.4451920" lon="-5.2669430">
        <ele>429.4</ele>
        <time>2019-08-28T08:29:21Z</time>
      </trkpt>
      <trkpt lat="36.4451520" lon="-5.2669590">
        <ele>429.6</ele>
        <time>2019-08-28T08:29:22Z</time>
      </trkpt>
      <trkpt lat="36.4451120" lon="-5.2669760">
        <ele>429.9</ele>
        <time>2019-08-28T08:29:23Z</time>
      </trkpt>
      <trkpt lat="36.4450710" lon="-5.2669930">
        <ele>430.2</ele>
        <time>2019-08-28T08:29:24Z</time>
      </trkpt>
      <trkpt lat="36.4450300" lon="-5.2670110">
        <ele>430.5</ele>
        <time>2019-08-28T08:29:25Z</time>
      </trkpt>
      <trkpt lat="36.4449880" lon="-5.2670280">
        <ele>430.8</ele>
        <time>2019-08-28T08:29:26Z</time>
      </trkpt>
      <trkpt lat="36.4449460" lon="-5.2670450">
        <ele>431.2</ele>
        <time>2019-08-28T08:29:27Z</time>
      </trkpt>
      <trkpt lat="36.4449030" lon="-5.2670620">
        <ele>431.4</ele>
        <time>2019-08-28T08:29:28Z</time>
      </trkpt>
      <trkpt lat="36.4448600" lon="-5.2670810">
        <ele>431.7</ele>
        <time>2019-08-28T08:29:29Z</time>
      </trkpt>
      <trkpt lat="36.4448160" lon="-5.2671000">
        <ele>432.0</ele>
        <time>2019-08-28T08:29:30Z</time>
      </trkpt>
      <trkpt lat="36.4447730" lon="-5.2671190">
        <ele>432.3</ele>
        <time>2019-08-28T08:29:31Z</time>
      </trkpt>
      <trkpt lat="36.4447310" lon="-5.2671390">
        <ele>432.7</ele>
        <time>2019-08-28T08:29:32Z</time>
      </trkpt>
      <trkpt lat="36.4446900" lon="-5.2671610">
        <ele>432.9</ele>
        <time>2019-08-28T08:29:33Z</time>
      </trkpt>
      <trkpt lat="36.4446500" lon="-5.2671870">
        <ele>433.2</ele>
        <time>2019-08-28T08:29:34Z</time>
      </trkpt>
      <trkpt lat="36.4446130" lon="-5.2672170">
        <ele>433.5</ele>
        <time>2019-08-28T08:29:35Z</time>
      </trkpt>
      <trkpt lat="36.4445780" lon="-5.2672500">
        <ele>433.8</ele>
        <time>2019-08-28T08:29:36Z</time>
      </trkpt>
      <trkpt lat="36.4445470" lon="-5.2672850">
        <ele>434.1</ele>
        <time>2019-08-28T08:29:37Z</time>
      </trkpt>
      <trkpt lat="36.4445190" lon="-5.2673230">
        <ele>434.4</ele>
        <time>2019-08-28T08:29:38Z</time>
      </trkpt>
      <trkpt lat="36.4444920" lon="-5.2673630">
        <ele>434.5</ele>
        <time>2019-08-28T08:29:39Z</time>
      </trkpt>
      <trkpt lat="36.4444680" lon="-5.2674040">
        <ele>434.7</ele>
        <time>2019-08-28T08:29:40Z</time>
      </trkpt>
      <trkpt lat="36.4444450" lon="-5.2674500">
        <ele>434.8</ele>
        <time>2019-08-28T08:29:41Z</time>
      </trkpt>
      <trkpt lat="36.4444250" lon="-5.2675020">
        <ele>434.9</ele>
        <time>2019-08-28T08:29:42Z</time>
      </trkpt>
      <trkpt lat="36.4444090" lon="-5.2675580">
        <ele>435.0</ele>
        <time>2019-08-28T08:29:43Z</time>
      </trkpt>
      <trkpt lat="36.4443950" lon="-5.2676170">
        <ele>435.1</ele>
        <time>2019-08-28T08:29:44Z</time>
      </trkpt>
      <trkpt lat="36.4443830" lon="-5.2676770">
        <ele>435.1</ele>
        <time>2019-08-28T08:29:45Z</time>
      </trkpt>
      <trkpt lat="36.4443740" lon="-5.2677400">
        <ele>435.1</ele>
        <time>2019-08-28T08:29:46Z</time>
      </trkpt>
      <trkpt lat="36.4443670" lon="-5.2678040">
        <ele>435.1</ele>
        <time>2019-08-28T08:29:47Z</time>
      </trkpt>
      <trkpt lat="36.4443600" lon="-5.2678680">
        <ele>435.1</ele>
        <time>2019-08-28T08:29:48Z</time>
      </trkpt>
      <trkpt lat="36.4443520" lon="-5.2679320">
        <ele>435.0</ele>
        <time>2019-08-28T08:29:49Z</time>
      </trkpt>
      <trkpt lat="36.4443430" lon="-5.2679980">
        <ele>435.0</ele>
        <time>2019-08-28T08:29:50Z</time>
      </trkpt>
      <trkpt lat="36.4443340" lon="-5.2680640">
        <ele>435.3</ele>
        <time>2019-08-28T08:29:51Z</time>
      </trkpt>
      <trkpt lat="36.4443250" lon="-5.2681320">
        <ele>435.5</ele>
        <time>2019-08-28T08:29:52Z</time>
      </trkpt>
      <trkpt lat="36.4443150" lon="-5.2682010">
        <ele>435.7</ele>
        <time>2019-08-28T08:29:53Z</time>
      </trkpt>
      <trkpt lat="36.4443050" lon="-5.2682720">
        <ele>435.9</ele>
        <time>2019-08-28T08:29:54Z</time>
      </trkpt>
      <trkpt lat="36.4442950" lon="-5.2683430">
        <ele>436.0</ele>
        <time>2019-08-28T08:29:55Z</time>
      </trkpt>
      <trkpt lat="36.4442850" lon="-5.2684120">
        <ele>436.1</ele>
        <time>2019-08-28T08:29:56Z</time>
      </trkpt>
      <trkpt lat="36.4442760" lon="-5.2684800">
        <ele>436.1</ele>
        <time>2019-08-28T08:29:57Z</time>
      </trkpt>
      <trkpt lat="36.4442670" lon="-5.2685460">
        <ele>436.2</ele>
        <time>2019-08-28T08:29:58Z</time>
      </trkpt>
      <trkpt lat="36.4442590" lon="-5.2686090">
        <ele>436.2</ele>
        <time>2019-08-28T08:29:59Z</time>
      </trkpt>
      <trkpt lat="36.4442510" lon="-5.2686710">
        <ele>436.2</ele>
        <time>2019-08-28T08:30:00Z</time>
      </trkpt>
      <trkpt lat="36.4442450" lon="-5.2687300">
        <ele>436.2</ele>
        <time>2019-08-28T08:30:01Z</time>
      </trkpt>
      <trkpt lat="36.4442400" lon="-5.2687870">
        <ele>436.2</ele>
        <time>2019-08-28T08:30:02Z</time>
      </trkpt>
      <trkpt lat="36.4442380" lon="-5.2688410">
        <ele>436.1</ele>
        <time>2019-08-28T08:30:03Z</time>
      </trkpt>
      <trkpt lat="36.4442360" lon="-5.2688920">
        <ele>436.1</ele>
        <time>2019-08-28T08:30:04Z</time>
      </trkpt>
      <trkpt lat="36.4442360" lon="-5.2689430">
        <ele>436.1</ele>
        <time>2019-08-28T08:30:05Z</time>
      </trkpt>
      <trkpt lat="36.4442350" lon="-5.2689970">
        <ele>436.0</ele>
        <time>2019-08-28T08:30:06Z</time>
      </trkpt>
      <trkpt lat="36.4442380" lon="-5.2690510">
        <ele>435.6</ele>
        <time>2019-08-28T08:30:07Z</time>
      </trkpt>
      <trkpt lat="36.4442450" lon="-5.2691060">
        <ele>435.1</ele>
        <time>2019-08-28T08:30:08Z</time>
      </trkpt>
      <trkpt lat="36.4442570" lon="-5.2691590">
        <ele>434.6</ele>
        <time>2019-08-28T08:30:09Z</time>
      </trkpt>
      <trkpt lat="36.4442750" lon="-5.2692110">
        <ele>434.2</ele>
        <time>2019-08-28T08:30:10Z</time>
      </trkpt>
      <trkpt lat="36.4442950" lon="-5.2692610">
        <ele>433.7</ele>
        <time>2019-08-28T08:30:11Z</time>
      </trkpt>
      <trkpt lat="36.4443180" lon="-5.2693110">
        <ele>433.2</ele>
        <time>2019-08-28T08:30:12Z</time>
      </trkpt>
      <trkpt lat="36.4443440" lon="-5.2693630">
        <ele>432.7</ele>
        <time>2019-08-28T08:30:13Z</time>
      </trkpt>
      <trkpt lat="36.4443760" lon="-5.2694170">
        <ele>431.4</ele>
        <time>2019-08-28T08:30:14Z</time>
      </trkpt>
      <trkpt lat="36.4444130" lon="-5.2694730">
        <ele>430.7</ele>
        <time>2019-08-28T08:30:15Z</time>
      </trkpt>
      <trkpt lat="36.4444600" lon="-5.2695280">
        <ele>430.4</ele>
        <time>2019-08-28T08:30:16Z</time>
      </trkpt>
      <trkpt lat="36.4445110" lon="-5.2695860">
        <ele>431.0</ele>
        <time>2019-08-28T08:30:17Z</time>
      </trkpt>
      <trkpt lat="36.4445660" lon="-5.2696480">
        <ele>431.7</ele>
        <time>2019-08-28T08:30:18Z</time>
      </trkpt>
      <trkpt lat="36.4446200" lon="-5.2697160">
        <ele>432.4</ele>
        <time>2019-08-28T08:30:19Z</time>
      </trkpt>
      <trkpt lat="36.4446750" lon="-5.2697850">
        <ele>433.2</ele>
        <time>2019-08-28T08:30:20Z</time>
      </trkpt>
      <trkpt lat="36.4447320" lon="-5.2698530">
        <ele>434.0</ele>
        <time>2019-08-28T08:30:21Z</time>
      </trkpt>
      <trkpt lat="36.4447920" lon="-5.2699180">
        <ele>434.6</ele>
        <time>2019-08-28T08:30:22Z</time>
      </trkpt>
      <trkpt lat="36.4448520" lon="-5.2699790">
        <ele>435.0</ele>
        <time>2019-08-28T08:30:23Z</time>
      </trkpt>
      <trkpt lat="36.4449150" lon="-5.2700360">
        <ele>435.4</ele>
        <time>2019-08-28T08:30:24Z</time>
      </trkpt>
      <trkpt lat="36.4449870" lon="-5.2700870">
        <ele>435.7</ele>
        <time>2019-08-28T08:30:25Z</time>
      </trkpt>
      <trkpt lat="36.4450680" lon="-5.2701340">
        <ele>435.9</ele>
        <time>2019-08-28T08:30:26Z</time>
      </trkpt>
      <trkpt lat="36.4451550" lon="-5.2701760">
        <ele>436.1</ele>
        <time>2019-08-28T08:30:27Z</time>
      </trkpt>
      <trkpt lat="36.4452410" lon="-5.2702130">
        <ele>436.4</ele>
        <time>2019-08-28T08:30:28Z</time>
      </trkpt>
      <trkpt lat="36.4453250" lon="-5.2702440">
        <ele>436.5</ele>
        <time>2019-08-28T08:30:29Z</time>
      </trkpt>
      <trkpt lat="36.4454080" lon="-5.2702690">
        <ele>436.7</ele>
        <time>2019-08-28T08:30:30Z</time>
      </trkpt>
      <trkpt lat="36.4454890" lon="-5.2702960">
        <ele>436.9</ele>
        <time>2019-08-28T08:30:31Z</time>
      </trkpt>
      <trkpt lat="36.4455660" lon="-5.2703260">
        <ele>437.1</ele>
        <time>2019-08-28T08:30:32Z</time>
      </trkpt>
      <trkpt lat="36.4456370" lon="-5.2703660">
        <ele>436.4</ele>
        <time>2019-08-28T08:30:33Z</time>
      </trkpt>
      <trkpt lat="36.4456840" lon="-5.2704360">
        <ele>435.2</ele>
        <time>2019-08-28T08:30:34Z</time>
      </trkpt>
      <trkpt lat="36.4457020" lon="-5.2705330">
        <ele>433.8</ele>
        <time>2019-08-28T08:30:35Z</time>
      </trkpt>
      <trkpt lat="36.4457010" lon="-5.2706290">
        <ele>432.5</ele>
        <time>2019-08-28T08:30:36Z</time>
      </trkpt>
      <trkpt lat="36.4456830" lon="-5.2707100">
        <ele>431.3</ele>
        <time>2019-08-28T08:30:37Z</time>
      </trkpt>
      <trkpt lat="36.4456470" lon="-5.2707690">
        <ele>430.4</ele>
        <time>2019-08-28T08:30:38Z</time>
      </trkpt>
      <trkpt lat="36.4455960" lon="-5.2708170">
        <ele>429.4</ele>
        <time>2019-08-28T08:30:39Z</time>
      </trkpt>
      <trkpt lat="36.4455460" lon="-5.2708460">
        <ele>428.6</ele>
        <time>2019-08-28T08:30:40Z</time>
      </trkpt>
      <trkpt lat="36.4455010" lon="-5.2708710">
        <ele>428.0</ele>
        <time>2019-08-28T08:30:41Z</time>
      </trkpt>
      <trkpt lat="36.4454520" lon="-5.2708990">
        <ele>427.3</ele>
        <time>2019-08-28T08:30:42Z</time>
      </trkpt>
      <trkpt lat="36.4453980" lon="-5.2709310">
        <ele>426.5</ele>
        <time>2019-08-28T08:30:43Z</time>
      </trkpt>
      <trkpt lat="36.4453480" lon="-5.2709590">
        <ele>425.9</ele>
        <time>2019-08-28T08:30:44Z</time>
      </trkpt>
      <trkpt lat="36.4453040" lon="-5.2709870">
        <ele>425.3</ele>
        <time>2019-08-28T08:30:45Z</time>
      </trkpt>
      <trkpt lat="36.4452620" lon="-5.2710200">
        <ele>424.7</ele>
        <time>2019-08-28T08:30:46Z</time>
      </trkpt>
      <trkpt lat="36.4452210" lon="-5.2710620">
        <ele>424.0</ele>
        <time>2019-08-28T08:30:47Z</time>
      </trkpt>
      <trkpt lat="36.4451820" lon="-5.2711120">
        <ele>423.4</ele>
        <time>2019-08-28T08:30:48Z</time>
      </trkpt>
      <trkpt lat="36.4451490" lon="-5.2711670">
        <ele>422.8</ele>
        <time>2019-08-28T08:30:49Z</time>
      </trkpt>
      <trkpt lat="36.4451240" lon="-5.2712280">
        <ele>422.1</ele>
        <time>2019-08-28T08:30:50Z</time>
      </trkpt>
      <trkpt lat="36.4451070" lon="-5.2712920">
        <ele>421.6</ele>
        <time>2019-08-28T08:30:51Z</time>
      </trkpt>
      <trkpt lat="36.4451000" lon="-5.2713580">
        <ele>420.9</ele>
        <time>2019-08-28T08:30:52Z</time>
      </trkpt>
      <trkpt lat="36.4451030" lon="-5.2714230">
        <ele>420.2</ele>
        <time>2019-08-28T08:30:53Z</time>
      </trkpt>
      <trkpt lat="36.4451100" lon="-5.2714860">
        <ele>419.5</ele>
        <time>2019-08-28T08:30:54Z</time>
      </trkpt>
      <trkpt lat="36.4451190" lon="-5.2715470">
        <ele>418.8</ele>
        <time>2019-08-28T08:30:55Z</time>
      </trkpt>
      <trkpt lat="36.4451280" lon="-5.2716040">
        <ele>418.2</ele>
        <time>2019-08-28T08:30:56Z</time>
      </trkpt>
      <trkpt lat="36.4451370" lon="-5.2716580">
        <ele>417.7</ele>
        <time>2019-08-28T08:30:57Z</time>
      </trkpt>
      <trkpt lat="36.4451450" lon="-5.2717100">
        <ele>417.2</ele>
        <time>2019-08-28T08:30:58Z</time>
      </trkpt>
      <trkpt lat="36.4451540" lon="-5.2717580">
        <ele>416.7</ele>
        <time>2019-08-28T08:30:59Z</time>
      </trkpt>
      <trkpt lat="36.4451610" lon="-5.2718030">
        <ele>416.3</ele>
        <time>2019-08-28T08:31:00Z</time>
      </trkpt>
      <trkpt lat="36.4451640" lon="-5.2718450">
        <ele>415.9</ele>
        <time>2019-08-28T08:31:01Z</time>
      </trkpt>
      <trkpt lat="36.4451610" lon="-5.2718860">
        <ele>415.6</ele>
        <time>2019-08-28T08:31:02Z</time>
      </trkpt>
      <trkpt lat="36.4451550" lon="-5.2719240">
        <ele>415.2</ele>
        <time>2019-08-28T08:31:03Z</time>
      </trkpt>
      <trkpt lat="36.4451470" lon="-5.2719600">
        <ele>412.9</ele>
        <time>2019-08-28T08:31:04Z</time>
      </trkpt>
      <trkpt lat="36.4451370" lon="-5.2719950">
        <ele>412.7</ele>
        <time>2019-08-28T08:31:05Z</time>
      </trkpt>
      <trkpt lat="36.4451270" lon="-5.2720260">
        <ele>412.5</ele>
        <time>2019-08-28T08:31:06Z</time>
      </trkpt>
      <trkpt lat="36.4451150" lon="-5.2720550">
        <ele>412.4</ele>
        <time>2019-08-28T08:31:07Z</time>
      </trkpt>
      <trkpt lat="36.4451040" lon="-5.2720830">
        <ele>412.2</ele>
        <time>2019-08-28T08:31:08Z</time>
      </trkpt>
      <trkpt lat="36.4450930" lon="-5.2721100">
        <ele>412.1</ele>
        <time>2019-08-28T08:31:09Z</time>
      </trkpt>
      <trkpt lat="36.4450810" lon="-5.2721310">
        <ele>412.0</ele>
        <time>2019-08-28T08:31:10Z</time>
      </trkpt>
      <trkpt lat="36.4450690" lon="-5.2721440">
        <ele>411.9</ele>
        <time>2019-08-28T08:31:11Z</time>
      </trkpt>
      <trkpt lat="36.4450540" lon="-5.2721500">
        <ele>411.8</ele>
        <time>2019-08-28T08:31:12Z</time>
      </trkpt>
      <trkpt lat="36.4450420" lon="-5.2721540">
        <ele>411.7</ele>
        <time>2019-08-28T08:31:13Z</time>
      </trkpt>
      <trkpt lat="36.4450330" lon="-5.2721610">
        <ele>411.6</ele>
        <time>2019-08-28T08:31:14Z</time>
      </trkpt>
      <trkpt lat="36.4450290" lon="-5.2721690">
        <ele>411.6</ele>
        <time>2019-08-28T08:31:15Z</time>
      </trkpt>
      <trkpt lat="36.4450280" lon="-5.2721740">
        <ele>411.5</ele>
        <time>2019-08-28T08:31:16Z</time>
      </trkpt>
      <trkpt lat="36.4450270" lon="-5.2721790">
        <ele>411.5</ele>
        <time>2019-08-28T08:31:17Z</time>
      </trkpt>
      <trkpt lat="36.4450280" lon="-5.2721820">
        <ele>411.5</ele>
        <time>2019-08-28T08:31:18Z</time>
      </trkpt>
      <trkpt lat="36.4450290" lon="-5.2721850">
        <ele>411.5</ele>
        <time>2019-08-28T08:31:19Z</time>
      </trkpt>
      <trkpt lat="36.4450290" lon="-5.2721850">
        <ele>411.5</ele>
        <time>2019-08-28T08:31:20Z</time>
      </trkpt>
      <trkpt lat="36.4450300" lon="-5.2721840">
        <ele>411.5</ele>
        <time>2019-08-28T08:31:21Z</time>
      </trkpt>
      <trkpt lat="36.4450300" lon="-5.2721830">
        <ele>411.5</ele>
        <time>2019-08-28T08:31:22Z</time>
      </trkpt>
      <trkpt lat="36.4450300" lon="-5.2721830">
        <ele>411.5</ele>
        <time>2019-08-28T08:31:23Z</time>
      </trkpt>
      <trkpt lat="36.4450290" lon="-5.2721820">
        <ele>411.5</ele>
        <time>2019-08-28T08:31:24Z</time>
      </trkpt>
      <trkpt lat="36.4450490" lon="-5.2721570">
        <ele>411.3</ele>
        <time>2019-08-28T08:37:07Z</time>
      </trkpt>
      <trkpt lat="36.4450490" lon="-5.2721490">
        <ele>411.3</ele>
        <time>2019-08-28T08:37:08Z</time>
      </trkpt>
      <trkpt lat="36.4450480" lon="-5.2721420">
        <ele>411.2</ele>
        <time>2019-08-28T08:37:09Z</time>
      </trkpt>
      <trkpt lat="36.4450490" lon="-5.2721370">
        <ele>411.2</ele>
        <time>2019-08-28T08:37:10Z</time>
      </trkpt>
      <trkpt lat="36.4450540" lon="-5.2721320">
        <ele>411.2</ele>
        <time>2019-08-28T08:37:11Z</time>
      </trkpt>
      <trkpt lat="36.4450600" lon="-5.2721280">
        <ele>411.1</ele>
        <time>2019-08-28T08:37:12Z</time>
      </trkpt>
      <trkpt lat="36.4450720" lon="-5.2721270">
        <ele>411.0</ele>
        <time>2019-08-28T08:37:13Z</time>
      </trkpt>
      <trkpt lat="36.4450830" lon="-5.2721250">
        <ele>411.0</ele>
        <time>2019-08-28T08:37:14Z</time>
      </trkpt>
      <trkpt lat="36.4450930" lon="-5.2721170">
        <ele>410.9</ele>
        <time>2019-08-28T08:37:15Z</time>
      </trkpt>
      <trkpt lat="36.4450990" lon="-5.2721030">
        <ele>410.8</ele>
        <time>2019-08-28T08:37:16Z</time>
      </trkpt>
      <trkpt lat="36.4451020" lon="-5.2720860">
        <ele>410.7</ele>
        <time>2019-08-28T08:37:17Z</time>
      </trkpt>
      <trkpt lat="36.4451080" lon="-5.2720690">
        <ele>410.7</ele>
        <time>2019-08-28T08:37:18Z</time>
      </trkpt>
      <trkpt lat="36.4451170" lon="-5.2720520">
        <ele>410.6</ele>
        <time>2019-08-28T08:37:19Z</time>
      </trkpt>
      <trkpt lat="36.4451300" lon="-5.2720380">
        <ele>411.2</ele>
        <time>2019-08-28T08:37:20Z</time>
      </trkpt>
      <trkpt lat="36.4451480" lon="-5.2720310">
        <ele>411.9</ele>
        <time>2019-08-28T08:37:21Z</time>
      </trkpt>
      <trkpt lat="36.4451750" lon="-5.2720340">
        <ele>412.7</ele>
        <time>2019-08-28T08:37:22Z</time>
      </trkpt>
      <trkpt lat="36.4452040" lon="-5.2720460">
        <ele>413.7</ele>
        <time>2019-08-28T08:37:23Z</time>
      </trkpt>
      <trkpt lat="36.4452330" lon="-5.2720700">
        <ele>413.3</ele>
        <time>2019-08-28T08:37:24Z</time>
      </trkpt>
      <trkpt lat="36.4452560" lon="-5.2721050">
        <ele>412.8</ele>
        <time>2019-08-28T08:37:25Z</time>
      </trkpt>
      <trkpt lat="36.4452780" lon="-5.2721470">
        <ele>412.3</ele>
        <time>2019-08-28T08:37:26Z</time>
      </trkpt>
      <trkpt lat="36.4453000" lon="-5.2721910">
        <ele>411.8</ele>
        <time>2019-08-28T08:37:27Z</time>
      </trkpt>
      <trkpt lat="36.4453240" lon="-5.2722340">
        <ele>411.3</ele>
        <time>2019-08-28T08:37:28Z</time>
      </trkpt>
      <trkpt lat="36.4453570" lon="-5.2722720">
        <ele>410.7</ele>
        <time>2019-08-28T08:37:29Z</time>
      </trkpt>
      <trkpt lat="36.4453970" lon="-5.2723050">
        <ele>410.1</ele>
        <time>2019-08-28T08:37:30Z</time>
      </trkpt>
      <trkpt lat="36.4454410" lon="-5.2723340">
        <ele>409.8</ele>
        <time>2019-08-28T08:37:31Z</time>
      </trkpt>
      <trkpt lat="36.4454840" lon="-5.2723630">
        <ele>409.9</ele>
        <time>2019-08-28T08:37:32Z</time>
      </trkpt>
      <trkpt lat="36.4455280" lon="-5.2723910">
        <ele>410.0</ele>
        <time>2019-08-28T08:37:33Z</time>
      </trkpt>
      <trkpt lat="36.4455740" lon="-5.2724180">
        <ele>410.1</ele>
        <time>2019-08-28T08:37:34Z</time>
      </trkpt>
      <trkpt lat="36.4456210" lon="-5.2724420">
        <ele>410.2</ele>
        <time>2019-08-28T08:37:35Z</time>
      </trkpt>
      <trkpt lat="36.4456680" lon="-5.2724630">
        <ele>410.3</ele>
        <time>2019-08-28T08:37:36Z</time>
      </trkpt>
      <trkpt lat="36.4457160" lon="-5.2724840">
        <ele>410.4</ele>
        <time>2019-08-28T08:37:37Z</time>
      </trkpt>
      <trkpt lat="36.4457640" lon="-5.2725040">
        <ele>410.6</ele>
        <time>2019-08-28T08:37:38Z</time>
      </trkpt>
      <trkpt lat="36.4458110" lon="-5.2725240">
        <ele>410.7</ele>
        <time>2019-08-28T08:37:39Z</time>
      </trkpt>
      <trkpt lat="36.4458590" lon="-5.2725420">
        <ele>410.9</ele>
        <time>2019-08-28T08:37:40Z</time>
      </trkpt>
      <trkpt lat="36.4459060" lon="-5.2725620">
        <ele>411.1</ele>
        <time>2019-08-28T08:37:41Z</time>
      </trkpt>
      <trkpt lat="36.4459530" lon="-5.2725810">
        <ele>411.5</ele>
        <time>2019-08-28T08:37:42Z</time>
      </trkpt>
      <trkpt lat="36.4460000" lon="-5.2726020">
        <ele>412.0</ele>
        <time>2019-08-28T08:37:43Z</time>
      </trkpt>
      <trkpt lat="36.4460470" lon="-5.2726220">
        <ele>412.5</ele>
        <time>2019-08-28T08:37:44Z</time>
      </trkpt>
      <trkpt lat="36.4460970" lon="-5.2726440">
        <ele>412.9</ele>
        <time>2019-08-28T08:37:45Z</time>
      </trkpt>
      <trkpt lat="36.4461470" lon="-5.2726660">
        <ele>413.4</ele>
        <time>2019-08-28T08:37:46Z</time>
      </trkpt>
      <trkpt lat="36.4462010" lon="-5.2726860">
        <ele>414.1</ele>
        <time>2019-08-28T08:37:47Z</time>
      </trkpt>
      <trkpt lat="36.4462580" lon="-5.2727060">
        <ele>414.8</ele>
        <time>2019-08-28T08:37:48Z</time>
      </trkpt>
      <trkpt lat="36.4463160" lon="-5.2727270">
        <ele>414.0</ele>
        <time>2019-08-28T08:37:49Z</time>
      </trkpt>
      <trkpt lat="36.4463740" lon="-5.2727550">
        <ele>413.1</ele>
        <time>2019-08-28T08:37:50Z</time>
      </trkpt>
      <trkpt lat="36.4464330" lon="-5.2727910">
        <ele>412.1</ele>
        <time>2019-08-28T08:37:51Z</time>
      </trkpt>
      <trkpt lat="36.4464940" lon="-5.2728340">
        <ele>411.0</ele>
        <time>2019-08-28T08:37:52Z</time>
      </trkpt>
      <trkpt lat="36.4465560" lon="-5.2728840">
        <ele>409.8</ele>
        <time>2019-08-28T08:37:53Z</time>
      </trkpt>
      <trkpt lat="36.4466180" lon="-5.2729360">
        <ele>408.5</ele>
        <time>2019-08-28T08:37:54Z</time>
      </trkpt>
      <trkpt lat="36.4466790" lon="-5.2729900">
        <ele>406.2</ele>
        <time>2019-08-28T08:37:55Z</time>
      </trkpt>
      <trkpt lat="36.4467390" lon="-5.2730430">
        <ele>405.8</ele>
        <time>2019-08-28T08:37:56Z</time>
      </trkpt>
      <trkpt lat="36.4468000" lon="-5.2730860">
        <ele>404.4</ele>
        <time>2019-08-28T08:37:57Z</time>
      </trkpt>
      <trkpt lat="36.4468590" lon="-5.2731200">
        <ele>403.7</ele>
        <time>2019-08-28T08:37:58Z</time>
      </trkpt>
      <trkpt lat="36.4469250" lon="-5.2731330">
        <ele>403.1</ele>
        <time>2019-08-28T08:37:59Z</time>
      </trkpt>
      <trkpt lat="36.4469900" lon="-5.2731360">
        <ele>402.6</ele>
        <time>2019-08-28T08:38:00Z</time>
      </trkpt>
      <trkpt lat="36.4470620" lon="-5.2731140">
        <ele>402.1</ele>
        <time>2019-08-28T08:38:01Z</time>
      </trkpt>
      <trkpt lat="36.4471330" lon="-5.2730770">
        <ele>401.6</ele>
        <time>2019-08-28T08:38:02Z</time>
      </trkpt>
      <trkpt lat="36.4472060" lon="-5.2730210">
        <ele>400.9</ele>
        <time>2019-08-28T08:38:03Z</time>
      </trkpt>
      <trkpt lat="36.4472740" lon="-5.2729610">
        <ele>400.2</ele>
        <time>2019-08-28T08:38:04Z</time>
      </trkpt>
      <trkpt lat="36.4473400" lon="-5.2728970">
        <ele>399.6</ele>
        <time>2019-08-28T08:38:05Z</time>
      </trkpt>
      <trkpt lat="36.4474040" lon="-5.2728320">
        <ele>399.2</ele>
        <time>2019-08-28T08:38:06Z</time>
      </trkpt>
      <trkpt lat="36.4474700" lon="-5.2727730">
        <ele>398.8</ele>
        <time>2019-08-28T08:38:07Z</time>
      </trkpt>
      <trkpt lat="36.4475320" lon="-5.2727270">
        <ele>398.3</ele>
        <time>2019-08-28T08:38:08Z</time>
      </trkpt>
      <trkpt lat="36.4476010" lon="-5.2726930">
        <ele>398.0</ele>
        <time>2019-08-28T08:38:09Z</time>
      </trkpt>
      <trkpt lat="36.4476760" lon="-5.2726750">
        <ele>397.6</ele>
        <time>2019-08-28T08:38:10Z</time>
      </trkpt>
      <trkpt lat="36.4477640" lon="-5.2726810">
        <ele>397.0</ele>
        <time>2019-08-28T08:38:11Z</time>
      </trkpt>
      <trkpt lat="36.4478400" lon="-5.2727230">
        <ele>396.5</ele>
        <time>2019-08-28T08:38:12Z</time>
      </trkpt>
      <trkpt lat="36.4479110" lon="-5.2727880">
        <ele>396.1</ele>
        <time>2019-08-28T08:38:13Z</time>
      </trkpt>
      <trkpt lat="36.4479730" lon="-5.2728600">
        <ele>395.7</ele>
        <time>2019-08-28T08:38:14Z</time>
      </trkpt>
      <trkpt lat="36.4480350" lon="-5.2729320">
        <ele>395.4</ele>
        <time>2019-08-28T08:38:15Z</time>
      </trkpt>
      <trkpt lat="36.4480960" lon="-5.2730090">
        <ele>395.0</ele>
        <time>2019-08-28T08:38:16Z</time>
      </trkpt>
      <trkpt lat="36.4481590" lon="-5.2730850">
        <ele>394.5</ele>
        <time>2019-08-28T08:38:17Z</time>
      </trkpt>
      <trkpt lat="36.4482270" lon="-5.2731570">
        <ele>394.0</ele>
        <time>2019-08-28T08:38:18Z</time>
      </trkpt>
      <trkpt lat="36.4482970" lon="-5.2732220">
        <ele>393.3</ele>
        <time>2019-08-28T08:38:19Z</time>
      </trkpt>
      <trkpt lat="36.4483770" lon="-5.2732700">
        <ele>392.7</ele>
        <time>2019-08-28T08:38:20Z</time>
      </trkpt>
      <trkpt lat="36.4484620" lon="-5.2733070">
        <ele>392.1</ele>
        <time>2019-08-28T08:38:21Z</time>
      </trkpt>
      <trkpt lat="36.4485510" lon="-5.2733400">
        <ele>391.6</ele>
        <time>2019-08-28T08:38:22Z</time>
      </trkpt>
      <trkpt lat="36.4486360" lon="-5.2733850">
        <ele>391.1</ele>
        <time>2019-08-28T08:38:23Z</time>
      </trkpt>
      <trkpt lat="36.4487200" lon="-5.2734370">
        <ele>390.4</ele>
        <time>2019-08-28T08:38:24Z</time>
      </trkpt>
      <trkpt lat="36.4488070" lon="-5.2734850">
        <ele>389.6</ele>
        <time>2019-08-28T08:38:25Z</time>
      </trkpt>
      <trkpt lat="36.4488980" lon="-5.2735220">
        <ele>389.1</ele>
        <time>2019-08-28T08:38:26Z</time>
      </trkpt>
      <trkpt lat="36.4489920" lon="-5.2735420">
        <ele>388.6</ele>
        <time>2019-08-28T08:38:27Z</time>
      </trkpt>
      <trkpt lat="36.4490870" lon="-5.2735560">
        <ele>388.3</ele>
        <time>2019-08-28T08:38:28Z</time>
      </trkpt>
      <trkpt lat="36.4491760" lon="-5.2735810">
        <ele>388.0</ele>
        <time>2019-08-28T08:38:29Z</time>
      </trkpt>
      <trkpt lat="36.4492600" lon="-5.2736280">
        <ele>387.7</ele>
        <time>2019-08-28T08:38:30Z</time>
      </trkpt>
      <trkpt lat="36.4493400" lon="-5.2736890">
        <ele>387.4</ele>
        <time>2019-08-28T08:38:31Z</time>
      </trkpt>
      <trkpt lat="36.4494220" lon="-5.2737470">
        <ele>387.1</ele>
        <time>2019-08-28T08:38:32Z</time>
      </trkpt>
      <trkpt lat="36.4495040" lon="-5.2738000">
        <ele>386.8</ele>
        <time>2019-08-28T08:38:33Z</time>
      </trkpt>
      <trkpt lat="36.4495870" lon="-5.2738470">
        <ele>386.5</ele>
        <time>2019-08-28T08:38:34Z</time>
      </trkpt>
      <trkpt lat="36.4496680" lon="-5.2738920">
        <ele>386.2</ele>
        <time>2019-08-28T08:38:35Z</time>
      </trkpt>
      <trkpt lat="36.4497450" lon="-5.2739330">
        <ele>385.8</ele>
        <time>2019-08-28T08:38:36Z</time>
      </trkpt>
      <trkpt lat="36.4498190" lon="-5.2739720">
        <ele>385.5</ele>
        <time>2019-08-28T08:38:37Z</time>
      </trkpt>
      <trkpt lat="36.4498870" lon="-5.2740100">
        <ele>385.2</ele>
        <time>2019-08-28T08:38:38Z</time>
      </trkpt>
      <trkpt lat="36.4499440" lon="-5.2740550">
        <ele>384.7</ele>
        <time>2019-08-28T08:38:39Z</time>
      </trkpt>
      <trkpt lat="36.4499890" lon="-5.2741150">
        <ele>384.3</ele>
        <time>2019-08-28T08:38:40Z</time>
      </trkpt>
      <trkpt lat="36.4500380" lon="-5.2741770">
        <ele>383.8</ele>
        <time>2019-08-28T08:38:41Z</time>
      </trkpt>
      <trkpt lat="36.4500990" lon="-5.2742360">
        <ele>383.4</ele>
        <time>2019-08-28T08:38:42Z</time>
      </trkpt>
      <trkpt lat="36.4501740" lon="-5.2742820">
        <ele>382.8</ele>
        <time>2019-08-28T08:38:43Z</time>
      </trkpt>
      <trkpt lat="36.4502680" lon="-5.2742940">
        <ele>383.2</ele>
        <time>2019-08-28T08:38:44Z</time>
      </trkpt>
      <trkpt lat="36.4503700" lon="-5.2742770">
        <ele>383.6</ele>
        <time>2019-08-28T08:38:45Z</time>
      </trkpt>
      <trkpt lat="36.4504730" lon="-5.2742300">
        <ele>386.2</ele>
        <time>2019-08-28T08:38:46Z</time>
      </trkpt>
      <trkpt lat="36.4505550" lon="-5.2741860">
        <ele>387.6</ele>
        <time>2019-08-28T08:38:47Z</time>
      </trkpt>
      <trkpt lat="36.4506290" lon="-5.2741390">
        <ele>388.9</ele>
        <time>2019-08-28T08:38:48Z</time>
      </trkpt>
      <trkpt lat="36.4507020" lon="-5.2740910">
        <ele>390.4</ele>
        <time>2019-08-28T08:38:49Z</time>
      </trkpt>
      <trkpt lat="36.4507780" lon="-5.2740430">
        <ele>392.1</ele>
        <time>2019-08-28T08:38:50Z</time>
      </trkpt>
      <trkpt lat="36.4508530" lon="-5.2740120">
        <ele>393.3</ele>
        <time>2019-08-28T08:38:51Z</time>
      </trkpt>
      <trkpt lat="36.4509210" lon="-5.2740170">
        <ele>392.4</ele>
        <time>2019-08-28T08:38:52Z</time>
      </trkpt>
      <trkpt lat="36.4509960" lon="-5.2740540">
        <ele>391.3</ele>
        <time>2019-08-28T08:38:53Z</time>
      </trkpt>
      <trkpt lat="36.4510730" lon="-5.2741100">
        <ele>389.6</ele>
        <time>2019-08-28T08:38:54Z</time>
      </trkpt>
      <trkpt lat="36.4511530" lon="-5.2741680">
        <ele>387.2</ele>
        <time>2019-08-28T08:38:55Z</time>
      </trkpt>
      <trkpt lat="36.4512190" lon="-5.2742390">
        <ele>385.3</ele>
        <time>2019-08-28T08:38:56Z</time>
      </trkpt>
      <trkpt lat="36.4512750" lon="-5.2743270">
        <ele>384.5</ele>
        <time>2019-08-28T08:38:57Z</time>
      </trkpt>
      <trkpt lat="36.4513260" lon="-5.2744240">
        <ele>383.1</ele>
        <time>2019-08-28T08:38:58Z</time>
      </trkpt>
      <trkpt lat="36.4513810" lon="-5.2745230">
        <ele>382.5</ele>
        <time>2019-08-28T08:38:59Z</time>
      </trkpt>
      <trkpt lat="36.4514460" lon="-5.2746140">
        <ele>383.6</ele>
        <time>2019-08-28T08:39:00Z</time>
      </trkpt>
      <trkpt lat="36.4515230" lon="-5.2746950">
        <ele>383.7</ele>
        <time>2019-08-28T08:39:01Z</time>
      </trkpt>
      <trkpt lat="36.4516060" lon="-5.2747690">
        <ele>382.8</ele>
        <time>2019-08-28T08:39:02Z</time>
      </trkpt>
      <trkpt lat="36.4516880" lon="-5.2748430">
        <ele>382.0</ele>
        <time>2019-08-28T08:39:03Z</time>
      </trkpt>
      <trkpt lat="36.4517630" lon="-5.2749200">
        <ele>381.2</ele>
        <time>2019-08-28T08:39:04Z</time>
      </trkpt>
      <trkpt lat="36.4518240" lon="-5.2750030">
        <ele>380.4</ele>
        <time>2019-08-28T08:39:05Z</time>
      </trkpt>
      <trkpt lat="36.4518520" lon="-5.2751030">
        <ele>379.7</ele>
        <time>2019-08-28T08:39:06Z</time>
      </trkpt>
      <trkpt lat="36.4518150" lon="-5.2752630">
        <ele>378.8</ele>
        <time>2019-08-28T08:39:07Z</time>
      </trkpt>
      <trkpt lat="36.4517500" lon="-5.2754430">
        <ele>377.8</ele>
        <time>2019-08-28T08:39:08Z</time>
      </trkpt>
      <trkpt lat="36.4516740" lon="-5.2756250">
        <ele>376.5</ele>
        <time>2019-08-28T08:39:09Z</time>
      </trkpt>
      <trkpt lat="36.4516270" lon="-5.2757650">
        <ele>375.4</ele>
        <time>2019-08-28T08:39:10Z</time>
      </trkpt>
      <trkpt lat="36.4515860" lon="-5.2759030">
        <ele>374.1</ele>
        <time>2019-08-28T08:39:11Z</time>
      </trkpt>
      <trkpt lat="36.4515620" lon="-5.2760440">
        <ele>372.8</ele>
        <time>2019-08-28T08:39:12Z</time>
      </trkpt>
      <trkpt lat="36.4515570" lon="-5.2761930">
        <ele>371.3</ele>
        <time>2019-08-28T08:39:13Z</time>
      </trkpt>
      <trkpt lat="36.4515690" lon="-5.2763470">
        <ele>369.9</ele>
        <time>2019-08-28T08:39:14Z</time>
      </trkpt>
      <trkpt lat="36.4515900" lon="-5.2765040">
        <ele>368.4</ele>
        <time>2019-08-28T08:39:15Z</time>
      </trkpt>
      <trkpt lat="36.4516140" lon="-5.2766650">
        <ele>367.0</ele>
        <time>2019-08-28T08:39:16Z</time>
      </trkpt>
      <trkpt lat="36.4516370" lon="-5.2768290">
        <ele>365.3</ele>
        <time>2019-08-28T08:39:17Z</time>
      </trkpt>
      <trkpt lat="36.4516600" lon="-5.2769950">
        <ele>363.6</ele>
        <time>2019-08-28T08:39:18Z</time>
      </trkpt>
      <trkpt lat="36.4516830" lon="-5.2771610">
        <ele>362.6</ele>
        <time>2019-08-28T08:39:19Z</time>
      </trkpt>
      <trkpt lat="36.4517050" lon="-5.2773260">
        <ele>361.5</ele>
        <time>2019-08-28T08:39:20Z</time>
      </trkpt>
      <trkpt lat="36.4517190" lon="-5.2774880">
        <ele>360.5</ele>
        <time>2019-08-28T08:39:21Z</time>
      </trkpt>
      <trkpt lat="36.4517230" lon="-5.2776430">
        <ele>359.5</ele>
        <time>2019-08-28T08:39:22Z</time>
      </trkpt>
      <trkpt lat="36.4517060" lon="-5.2777910">
        <ele>358.6</ele>
        <time>2019-08-28T08:39:23Z</time>
      </trkpt>
      <trkpt lat="36.4516610" lon="-5.2779330">
        <ele>357.9</ele>
        <time>2019-08-28T08:39:24Z</time>
      </trkpt>
      <trkpt lat="36.4515830" lon="-5.2780750">
        <ele>357.2</ele>
        <time>2019-08-28T08:39:25Z</time>
      </trkpt>
      <trkpt lat="36.4514920" lon="-5.2782080">
        <ele>356.7</ele>
        <time>2019-08-28T08:39:26Z</time>
      </trkpt>
      <trkpt lat="36.4514010" lon="-5.2783300">
        <ele>356.7</ele>
        <time>2019-08-28T08:39:27Z</time>
      </trkpt>
      <trkpt lat="36.4513140" lon="-5.2784220">
        <ele>356.9</ele>
        <time>2019-08-28T08:39:28Z</time>
      </trkpt>
      <trkpt lat="36.4512230" lon="-5.2784880">
        <ele>357.4</ele>
        <time>2019-08-28T08:39:29Z</time>
      </trkpt>
      <trkpt lat="36.4511340" lon="-5.2785220">
        <ele>357.8</ele>
        <time>2019-08-28T08:39:30Z</time>
      </trkpt>
      <trkpt lat="36.4510490" lon="-5.2785350">
        <ele>358.4</ele>
        <time>2019-08-28T08:39:31Z</time>
      </trkpt>
      <trkpt lat="36.4509660" lon="-5.2785270">
        <ele>359.0</ele>
        <time>2019-08-28T08:39:32Z</time>
      </trkpt>
      <trkpt lat="36.4508820" lon="-5.2784830">
        <ele>359.6</ele>
        <time>2019-08-28T08:39:33Z</time>
      </trkpt>
      <trkpt lat="36.4508050" lon="-5.2784190">
        <ele>360.3</ele>
        <time>2019-08-28T08:39:34Z</time>
      </trkpt>
      <trkpt lat="36.4507350" lon="-5.2783500">
        <ele>361.0</ele>
        <time>2019-08-28T08:39:35Z</time>
      </trkpt>
      <trkpt lat="36.4506770" lon="-5.2782970">
        <ele>361.6</ele>
        <time>2019-08-28T08:39:36Z</time>
      </trkpt>
      <trkpt lat="36.4506250" lon="-5.2782520">
        <ele>362.2</ele>
        <time>2019-08-28T08:39:37Z</time>
      </trkpt>
      <trkpt lat="36.4505790" lon="-5.2782090">
        <ele>362.8</ele>
        <time>2019-08-28T08:39:38Z</time>
      </trkpt>
      <trkpt lat="36.4505380" lon="-5.2781670">
        <ele>363.3</ele>
        <time>2019-08-28T08:39:39Z</time>
      </trkpt>
      <trkpt lat="36.4504990" lon="-5.2781230">
        <ele>363.7</ele>
        <time>2019-08-28T08:39:40Z</time>
      </trkpt>
      <trkpt lat="36.4504630" lon="-5.2780770">
        <ele>364.1</ele>
        <time>2019-08-28T08:39:41Z</time>
      </trkpt>
      <trkpt lat="36.4504270" lon="-5.2780320">
        <ele>364.4</ele>
        <time>2019-08-28T08:39:42Z</time>
      </trkpt>
      <trkpt lat="36.4503910" lon="-5.2779900">
        <ele>364.6</ele>
        <time>2019-08-28T08:39:43Z</time>
      </trkpt>
      <trkpt lat="36.4503570" lon="-5.2779510">
        <ele>364.8</ele>
        <time>2019-08-28T08:39:44Z</time>
      </trkpt>
      <trkpt lat="36.4503240" lon="-5.2779150">
        <ele>365.0</ele>
        <time>2019-08-28T08:39:45Z</time>
      </trkpt>
      <trkpt lat="36.4502910" lon="-5.2778790">
        <ele>365.2</ele>
        <time>2019-08-28T08:39:46Z</time>
      </trkpt>
      <trkpt lat="36.4502580" lon="-5.2778420">
        <ele>365.3</ele>
        <time>2019-08-28T08:39:47Z</time>
      </trkpt>
      <trkpt lat="36.4502240" lon="-5.2778040">
        <ele>365.5</ele>
        <time>2019-08-28T08:39:48Z</time>
      </trkpt>
      <trkpt lat="36.4501890" lon="-5.2777650">
        <ele>365.7</ele>
        <time>2019-08-28T08:39:49Z</time>
      </trkpt>
      <trkpt lat="36.4501550" lon="-5.2777250">
        <ele>365.9</ele>
        <time>2019-08-28T08:39:50Z</time>
      </trkpt>
      <trkpt lat="36.4501210" lon="-5.2776850">
        <ele>366.1</ele>
        <time>2019-08-28T08:39:51Z</time>
      </trkpt>
      <trkpt lat="36.4500870" lon="-5.2776460">
        <ele>366.3</ele>
        <time>2019-08-28T08:39:52Z</time>
      </trkpt>
      <trkpt lat="36.4500530" lon="-5.2776070">
        <ele>366.5</ele>
        <time>2019-08-28T08:39:53Z</time>
      </trkpt>
      <trkpt lat="36.4500180" lon="-5.2775680">
        <ele>366.7</ele>
        <time>2019-08-28T08:39:54Z</time>
      </trkpt>
      <trkpt lat="36.4499820" lon="-5.2775320">
        <ele>366.9</ele>
        <time>2019-08-28T08:39:55Z</time>
      </trkpt>
      <trkpt lat="36.4499430" lon="-5.2774980">
        <ele>367.0</ele>
        <time>2019-08-28T08:39:56Z</time>
      </trkpt>
      <trkpt lat="36.4499030" lon="-5.2774680">
        <ele>367.1</ele>
        <time>2019-08-28T08:39:57Z</time>
      </trkpt>
      <trkpt lat="36.4498580" lon="-5.2774430">
        <ele>367.3</ele>
        <time>2019-08-28T08:39:58Z</time>
      </trkpt>
      <trkpt lat="36.4498100" lon="-5.2774220">
        <ele>367.3</ele>
        <time>2019-08-28T08:39:59Z</time>
      </trkpt>
      <trkpt lat="36.4497600" lon="-5.2774040">
        <ele>367.3</ele>
        <time>2019-08-28T08:40:00Z</time>
      </trkpt>
      <trkpt lat="36.4497100" lon="-5.2773880">
        <ele>367.2</ele>
        <time>2019-08-28T08:40:01Z</time>
      </trkpt>
      <trkpt lat="36.4496590" lon="-5.2773750">
        <ele>367.1</ele>
        <time>2019-08-28T08:40:02Z</time>
      </trkpt>
      <trkpt lat="36.4496080" lon="-5.2773630">
        <ele>366.9</ele>
        <time>2019-08-28T08:40:03Z</time>
      </trkpt>
      <trkpt lat="36.4495550" lon="-5.2773530">
        <ele>366.6</ele>
        <time>2019-08-28T08:40:04Z</time>
      </trkpt>
      <trkpt lat="36.4494990" lon="-5.2773450">
        <ele>366.3</ele>
        <time>2019-08-28T08:40:05Z</time>
      </trkpt>
      <trkpt lat="36.4494390" lon="-5.2773420">
        <ele>366.0</ele>
        <time>2019-08-28T08:40:06Z</time>
      </trkpt>
      <trkpt lat="36.4493750" lon="-5.2773400">
        <ele>365.7</ele>
        <time>2019-08-28T08:40:07Z</time>
      </trkpt>
      <trkpt lat="36.4493080" lon="-5.2773380">
        <ele>365.2</ele>
        <time>2019-08-28T08:40:08Z</time>
      </trkpt>
      <trkpt lat="36.4492380" lon="-5.2773300">
        <ele>364.8</ele>
        <time>2019-08-28T08:40:09Z</time>
      </trkpt>
      <trkpt lat="36.4491670" lon="-5.2773120">
        <ele>364.3</ele>
        <time>2019-08-28T08:40:10Z</time>
      </trkpt>
      <trkpt lat="36.4490950" lon="-5.2772840">
        <ele>363.8</ele>
        <time>2019-08-28T08:40:11Z</time>
      </trkpt>
      <trkpt lat="36.4490240" lon="-5.2772440">
        <ele>363.4</ele>
        <time>2019-08-28T08:40:12Z</time>
      </trkpt>
      <trkpt lat="36.4489530" lon="-5.2771880">
        <ele>362.9</ele>
        <time>2019-08-28T08:40:13Z</time>
      </trkpt>
      <trkpt lat="36.4488870" lon="-5.2771140">
        <ele>362.5</ele>
        <time>2019-08-28T08:40:14Z</time>
      </trkpt>
      <trkpt lat="36.4488240" lon="-5.2770290">
        <ele>362.2</ele>
        <time>2019-08-28T08:40:15Z</time>
      </trkpt>
      <trkpt lat="36.4487640" lon="-5.2769430">
        <ele>361.8</ele>
        <time>2019-08-28T08:40:16Z</time>
      </trkpt>
      <trkpt lat="36.4487030" lon="-5.2768630">
        <ele>361.5</ele>
        <time>2019-08-28T08:40:17Z</time>
      </trkpt>
      <trkpt lat="36.4486420" lon="-5.2767860">
        <ele>361.2</ele>
        <time>2019-08-28T08:40:18Z</time>
      </trkpt>
      <trkpt lat="36.4485790" lon="-5.2767140">
        <ele>361.0</ele>
        <time>2019-08-28T08:40:19Z</time>
      </trkpt>
      <trkpt lat="36.4485150" lon="-5.2766450">
        <ele>360.7</ele>
        <time>2019-08-28T08:40:20Z</time>
      </trkpt>
      <trkpt lat="36.4484480" lon="-5.2765790">
        <ele>360.6</ele>
        <time>2019-08-28T08:40:21Z</time>
      </trkpt>
      <trkpt lat="36.4483800" lon="-5.2765180">
        <ele>360.6</ele>
        <time>2019-08-28T08:40:22Z</time>
      </trkpt>
      <trkpt lat="36.4483100" lon="-5.2764630">
        <ele>360.6</ele>
        <time>2019-08-28T08:40:23Z</time>
      </trkpt>
      <trkpt lat="36.4482390" lon="-5.2764170">
        <ele>360.6</ele>
        <time>2019-08-28T08:40:24Z</time>
      </trkpt>
      <trkpt lat="36.4481670" lon="-5.2763810">
        <ele>360.7</ele>
        <time>2019-08-28T08:40:25Z</time>
      </trkpt>
      <trkpt lat="36.4480980" lon="-5.2763560">
        <ele>360.9</ele>
        <time>2019-08-28T08:40:26Z</time>
      </trkpt>
      <trkpt lat="36.4480320" lon="-5.2763450">
        <ele>361.0</ele>
        <time>2019-08-28T08:40:27Z</time>
      </trkpt>
      <trkpt lat="36.4479740" lon="-5.2763490">
        <ele>361.2</ele>
        <time>2019-08-28T08:40:28Z</time>
      </trkpt>
      <trkpt lat="36.4479250" lon="-5.2763700">
        <ele>361.3</ele>
        <time>2019-08-28T08:40:29Z</time>
      </trkpt>
      <trkpt lat="36.4478830" lon="-5.2763980">
        <ele>361.5</ele>
        <time>2019-08-28T08:40:30Z</time>
      </trkpt>
      <trkpt lat="36.4478460" lon="-5.2764310">
        <ele>361.7</ele>
        <time>2019-08-28T08:40:31Z</time>
      </trkpt>
      <trkpt lat="36.4478110" lon="-5.2764690">
        <ele>361.9</ele>
        <time>2019-08-28T08:40:32Z</time>
      </trkpt>
      <trkpt lat="36.4477790" lon="-5.2765110">
        <ele>362.2</ele>
        <time>2019-08-28T08:40:33Z</time>
      </trkpt>
      <trkpt lat="36.4477470" lon="-5.2765540">
        <ele>362.5</ele>
        <time>2019-08-28T08:40:34Z</time>
      </trkpt>
      <trkpt lat="36.4477180" lon="-5.2765970">
        <ele>362.9</ele>
        <time>2019-08-28T08:40:35Z</time>
      </trkpt>
      <trkpt lat="36.4476920" lon="-5.2766440">
        <ele>363.2</ele>
        <time>2019-08-28T08:40:36Z</time>
      </trkpt>
      <trkpt lat="36.4476700" lon="-5.2766930">
        <ele>363.6</ele>
        <time>2019-08-28T08:40:37Z</time>
      </trkpt>
      <trkpt lat="36.4476490" lon="-5.2767420">
        <ele>364.1</ele>
        <time>2019-08-28T08:40:38Z</time>
      </trkpt>
      <trkpt lat="36.4476290" lon="-5.2767880">
        <ele>364.5</ele>
        <time>2019-08-28T08:40:39Z</time>
      </trkpt>
      <trkpt lat="36.4476080" lon="-5.2768320">
        <ele>364.9</ele>
        <time>2019-08-28T08:40:40Z</time>
      </trkpt>
      <trkpt lat="36.4475880" lon="-5.2768780">
        <ele>365.3</ele>
        <time>2019-08-28T08:40:41Z</time>
      </trkpt>
      <trkpt lat="36.4475670" lon="-5.2769270">
        <ele>365.7</ele>
        <time>2019-08-28T08:40:42Z</time>
      </trkpt>
      <trkpt lat="36.4475460" lon="-5.2769780">
        <ele>366.0</ele>
        <time>2019-08-28T08:40:43Z</time>
      </trkpt>
      <trkpt lat="36.4475230" lon="-5.2770280">
        <ele>366.3</ele>
        <time>2019-08-28T08:40:44Z</time>
      </trkpt>
      <trkpt lat="36.4474980" lon="-5.2770750">
        <ele>366.5</ele>
        <time>2019-08-28T08:40:45Z</time>
      </trkpt>
      <trkpt lat="36.4474710" lon="-5.2771170">
        <ele>366.6</ele>
        <time>2019-08-28T08:40:46Z</time>
      </trkpt>
      <trkpt lat="36.4474430" lon="-5.2771550">
        <ele>366.7</ele>
        <time>2019-08-28T08:40:47Z</time>
      </trkpt>
      <trkpt lat="36.4474140" lon="-5.2771910">
        <ele>366.8</ele>
        <time>2019-08-28T08:40:48Z</time>
      </trkpt>
      <trkpt lat="36.4473850" lon="-5.2772250">
        <ele>366.9</ele>
        <time>2019-08-28T08:40:49Z</time>
      </trkpt>
      <trkpt lat="36.4473540" lon="-5.2772550">
        <ele>367.0</ele>
        <time>2019-08-28T08:40:50Z</time>
      </trkpt>
      <trkpt lat="36.4473230" lon="-5.2772820">
        <ele>367.2</ele>
        <time>2019-08-28T08:40:51Z</time>
      </trkpt>
      <trkpt lat="36.4472910" lon="-5.2773070">
        <ele>367.3</ele>
        <time>2019-08-28T08:40:52Z</time>
      </trkpt>
      <trkpt lat="36.4472600" lon="-5.2773290">
        <ele>367.5</ele>
        <time>2019-08-28T08:40:53Z</time>
      </trkpt>
      <trkpt lat="36.4472270" lon="-5.2773510">
        <ele>367.7</ele>
        <time>2019-08-28T08:40:54Z</time>
      </trkpt>
      <trkpt lat="36.4471940" lon="-5.2773710">
        <ele>367.9</ele>
        <time>2019-08-28T08:40:55Z</time>
      </trkpt>
      <trkpt lat="36.4471600" lon="-5.2773880">
        <ele>368.1</ele>
        <time>2019-08-28T08:40:56Z</time>
      </trkpt>
      <trkpt lat="36.4471260" lon="-5.2774030">
        <ele>368.3</ele>
        <time>2019-08-28T08:40:57Z</time>
      </trkpt>
      <trkpt lat="36.4470910" lon="-5.2774170">
        <ele>368.5</ele>
        <time>2019-08-28T08:40:58Z</time>
      </trkpt>
      <trkpt lat="36.4470570" lon="-5.2774330">
        <ele>368.7</ele>
        <time>2019-08-28T08:40:59Z</time>
      </trkpt>
      <trkpt lat="36.4470240" lon="-5.2774490">
        <ele>368.9</ele>
        <time>2019-08-28T08:41:00Z</time>
      </trkpt>
      <trkpt lat="36.4469920" lon="-5.2774620">
        <ele>369.1</ele>
        <time>2019-08-28T08:41:01Z</time>
      </trkpt>
      <trkpt lat="36.4469610" lon="-5.2774750">
        <ele>369.3</ele>
        <time>2019-08-28T08:41:02Z</time>
      </trkpt>
      <trkpt lat="36.4469300" lon="-5.2774870">
        <ele>369.5</ele>
        <time>2019-08-28T08:41:03Z</time>
      </trkpt>
      <trkpt lat="36.4468990" lon="-5.2774990">
        <ele>369.6</ele>
        <time>2019-08-28T08:41:04Z</time>
      </trkpt>
      <trkpt lat="36.4468690" lon="-5.2775110">
        <ele>369.8</ele>
        <time>2019-08-28T08:41:05Z</time>
      </trkpt>
      <trkpt lat="36.4468380" lon="-5.2775220">
        <ele>370.0</ele>
        <time>2019-08-28T08:41:06Z</time>
      </trkpt>
      <trkpt lat="36.4468080" lon="-5.2775340">
        <ele>370.1</ele>
        <time>2019-08-28T08:41:07Z</time>
      </trkpt>
      <trkpt lat="36.4467780" lon="-5.2775460">
        <ele>370.3</ele>
        <time>2019-08-28T08:41:08Z</time>
      </trkpt>
      <trkpt lat="36.4467490" lon="-5.2775580">
        <ele>370.5</ele>
        <time>2019-08-28T08:41:09Z</time>
      </trkpt>
      <trkpt lat="36.4467200" lon="-5.2775700">
        <ele>370.7</ele>
        <time>2019-08-28T08:41:10Z</time>
      </trkpt>
      <trkpt lat="36.4466920" lon="-5.2775810">
        <ele>370.9</ele>
        <time>2019-08-28T08:41:11Z</time>
      </trkpt>
      <trkpt lat="36.4466640" lon="-5.2775890">
        <ele>371.1</ele>
        <time>2019-08-28T08:41:12Z</time>
      </trkpt>
      <trkpt lat="36.4466360" lon="-5.2775960">
        <ele>371.3</ele>
        <time>2019-08-28T08:41:13Z</time>
      </trkpt>
      <trkpt lat="36.4466100" lon="-5.2776060">
        <ele>371.5</ele>
        <time>2019-08-28T08:41:14Z</time>
      </trkpt>
      <trkpt lat="36.4465850" lon="-5.2776190">
        <ele>371.8</ele>
        <time>2019-08-28T08:41:15Z</time>
      </trkpt>
      <trkpt lat="36.4465600" lon="-5.2776340">
        <ele>372.1</ele>
        <time>2019-08-28T08:41:16Z</time>
      </trkpt>
      <trkpt lat="36.4465360" lon="-5.2776480">
        <ele>372.3</ele>
        <time>2019-08-28T08:41:17Z</time>
      </trkpt>
      <trkpt lat="36.4465120" lon="-5.2776620">
        <ele>372.6</ele>
        <time>2019-08-28T08:41:18Z</time>
      </trkpt>
      <trkpt lat="36.4464880" lon="-5.2776750">
        <ele>372.9</ele>
        <time>2019-08-28T08:41:19Z</time>
      </trkpt>
      <trkpt lat="36.4464650" lon="-5.2776880">
        <ele>373.1</ele>
        <time>2019-08-28T08:41:20Z</time>
      </trkpt>
      <trkpt lat="36.4464430" lon="-5.2777050">
        <ele>373.4</ele>
        <time>2019-08-28T08:41:21Z</time>
      </trkpt>
      <trkpt lat="36.4464230" lon="-5.2777250">
        <ele>373.7</ele>
        <time>2019-08-28T08:41:22Z</time>
      </trkpt>
      <trkpt lat="36.4464030" lon="-5.2777460">
        <ele>374.0</ele>
        <time>2019-08-28T08:41:23Z</time>
      </trkpt>
      <trkpt lat="36.4463830" lon="-5.2777660">
        <ele>374.3</ele>
        <time>2019-08-28T08:41:24Z</time>
      </trkpt>
      <trkpt lat="36.4463640" lon="-5.2777880">
        <ele>374.6</ele>
        <time>2019-08-28T08:41:25Z</time>
      </trkpt>
      <trkpt lat="36.4463460" lon="-5.2778130">
        <ele>374.9</ele>
        <time>2019-08-28T08:41:26Z</time>
      </trkpt>
      <trkpt lat="36.4463290" lon="-5.2778380">
        <ele>375.1</ele>
        <time>2019-08-28T08:41:27Z</time>
      </trkpt>
      <trkpt lat="36.4463120" lon="-5.2778640">
        <ele>375.4</ele>
        <time>2019-08-28T08:41:28Z</time>
      </trkpt>
      <trkpt lat="36.4462950" lon="-5.2778890">
        <ele>375.7</ele>
        <time>2019-08-28T08:41:29Z</time>
      </trkpt>
      <trkpt lat="36.4462790" lon="-5.2779160">
        <ele>376.0</ele>
        <time>2019-08-28T08:41:30Z</time>
      </trkpt>
      <trkpt lat="36.4462650" lon="-5.2779440">
        <ele>376.3</ele>
        <time>2019-08-28T08:41:31Z</time>
      </trkpt>
      <trkpt lat="36.4462510" lon="-5.2779730">
        <ele>376.6</ele>
        <time>2019-08-28T08:41:32Z</time>
      </trkpt>
      <trkpt lat="36.4462390" lon="-5.2780020">
        <ele>376.9</ele>
        <time>2019-08-28T08:41:33Z</time>
      </trkpt>
      <trkpt lat="36.4462290" lon="-5.2780320">
        <ele>377.2</ele>
        <time>2019-08-28T08:41:34Z</time>
      </trkpt>
      <trkpt lat="36.4462210" lon="-5.2780630">
        <ele>377.5</ele>
        <time>2019-08-28T08:41:35Z</time>
      </trkpt>
      <trkpt lat="36.4462150" lon="-5.2780950">
        <ele>377.8</ele>
        <time>2019-08-28T08:41:36Z</time>
      </trkpt>
      <trkpt lat="36.4462100" lon="-5.2781290">
        <ele>378.1</ele>
        <time>2019-08-28T08:41:37Z</time>
      </trkpt>
      <trkpt lat="36.4462060" lon="-5.2781630">
        <ele>378.4</ele>
        <time>2019-08-28T08:41:38Z</time>
      </trkpt>
      <trkpt lat="36.4462030" lon="-5.2781960">
        <ele>378.7</ele>
        <time>2019-08-28T08:41:39Z</time>
      </trkpt>
      <trkpt lat="36.4462030" lon="-5.2782300">
        <ele>378.9</ele>
        <time>2019-08-28T08:41:40Z</time>
      </trkpt>
      <trkpt lat="36.4462050" lon="-5.2782630">
        <ele>379.2</ele>
        <time>2019-08-28T08:41:41Z</time>
      </trkpt>
      <trkpt lat="36.4462080" lon="-5.2782970">
        <ele>379.5</ele>
        <time>2019-08-28T08:41:42Z</time>
      </trkpt>
      <trkpt lat="36.4462120" lon="-5.2783310">
        <ele>379.8</ele>
        <time>2019-08-28T08:41:43Z</time>
      </trkpt>
      <trkpt lat="36.4462180" lon="-5.2783650">
        <ele>380.0</ele>
        <time>2019-08-28T08:41:44Z</time>
      </trkpt>
      <trkpt lat="36.4462250" lon="-5.2784000">
        <ele>380.3</ele>
        <time>2019-08-28T08:41:45Z</time>
      </trkpt>
      <trkpt lat="36.4462330" lon="-5.2784350">
        <ele>380.5</ele>
        <time>2019-08-28T08:41:46Z</time>
      </trkpt>
      <trkpt lat="36.4462430" lon="-5.2784680">
        <ele>380.7</ele>
        <time>2019-08-28T08:41:47Z</time>
      </trkpt>
      <trkpt lat="36.4462540" lon="-5.2785010">
        <ele>380.9</ele>
        <time>2019-08-28T08:41:48Z</time>
      </trkpt>
      <trkpt lat="36.4462660" lon="-5.2785330">
        <ele>381.1</ele>
        <time>2019-08-28T08:41:49Z</time>
      </trkpt>
      <trkpt lat="36.4462780" lon="-5.2785650">
        <ele>381.4</ele>
        <time>2019-08-28T08:41:50Z</time>
      </trkpt>
      <trkpt lat="36.4462910" lon="-5.2785970">
        <ele>381.6</ele>
        <time>2019-08-28T08:41:51Z</time>
      </trkpt>
      <trkpt lat="36.4463050" lon="-5.2786290">
        <ele>381.8</ele>
        <time>2019-08-28T08:41:52Z</time>
      </trkpt>
      <trkpt lat="36.4463190" lon="-5.2786610">
        <ele>382.1</ele>
        <time>2019-08-28T08:41:53Z</time>
      </trkpt>
      <trkpt lat="36.4463340" lon="-5.2786920">
        <ele>382.2</ele>
        <time>2019-08-28T08:41:54Z</time>
      </trkpt>
      <trkpt lat="36.4463500" lon="-5.2787230">
        <ele>382.1</ele>
        <time>2019-08-28T08:41:55Z</time>
      </trkpt>
      <trkpt lat="36.4463660" lon="-5.2787550">
        <ele>382.1</ele>
        <time>2019-08-28T08:41:56Z</time>
      </trkpt>
      <trkpt lat="36.4463820" lon="-5.2787850">
        <ele>382.1</ele>
        <time>2019-08-28T08:41:57Z</time>
      </trkpt>
      <trkpt lat="36.4463990" lon="-5.2788150">
        <ele>382.1</ele>
        <time>2019-08-28T08:41:58Z</time>
      </trkpt>
      <trkpt lat="36.4464170" lon="-5.2788450">
        <ele>382.0</ele>
        <time>2019-08-28T08:41:59Z</time>
      </trkpt>
      <trkpt lat="36.4464350" lon="-5.2788740">
        <ele>382.0</ele>
        <time>2019-08-28T08:42:00Z</time>
      </trkpt>
      <trkpt lat="36.4464530" lon="-5.2789030">
        <ele>382.0</ele>
        <time>2019-08-28T08:42:01Z</time>
      </trkpt>
      <trkpt lat="36.4464700" lon="-5.2789310">
        <ele>381.9</ele>
        <time>2019-08-28T08:42:02Z</time>
      </trkpt>
      <trkpt lat="36.4464880" lon="-5.2789600">
        <ele>381.9</ele>
        <time>2019-08-28T08:42:03Z</time>
      </trkpt>
      <trkpt lat="36.4465050" lon="-5.2789890">
        <ele>381.9</ele>
        <time>2019-08-28T08:42:04Z</time>
      </trkpt>
      <trkpt lat="36.4465220" lon="-5.2790190">
        <ele>381.9</ele>
        <time>2019-08-28T08:42:05Z</time>
      </trkpt>
      <trkpt lat="36.4465390" lon="-5.2790480">
        <ele>381.8</ele>
        <time>2019-08-28T08:42:06Z</time>
      </trkpt>
      <trkpt lat="36.4465560" lon="-5.2790770">
        <ele>381.8</ele>
        <time>2019-08-28T08:42:07Z</time>
      </trkpt>
      <trkpt lat="36.4465740" lon="-5.2791050">
        <ele>381.7</ele>
        <time>2019-08-28T08:42:08Z</time>
      </trkpt>
      <trkpt lat="36.4465920" lon="-5.2791330">
        <ele>381.7</ele>
        <time>2019-08-28T08:42:09Z</time>
      </trkpt>
      <trkpt lat="36.4466090" lon="-5.2791590">
        <ele>381.7</ele>
        <time>2019-08-28T08:42:10Z</time>
      </trkpt>
      <trkpt lat="36.4466280" lon="-5.2791870">
        <ele>381.6</ele>
        <time>2019-08-28T08:42:11Z</time>
      </trkpt>
      <trkpt lat="36.4466470" lon="-5.2792170">
        <ele>381.6</ele>
        <time>2019-08-28T08:42:12Z</time>
      </trkpt>
      <trkpt lat="36.4466660" lon="-5.2792500">
        <ele>381.5</ele>
        <time>2019-08-28T08:42:13Z</time>
      </trkpt>
      <trkpt lat="36.4466830" lon="-5.2792820">
        <ele>381.5</ele>
        <time>2019-08-28T08:42:14Z</time>
      </trkpt>
      <trkpt lat="36.4467000" lon="-5.2793140">
        <ele>381.4</ele>
        <time>2019-08-28T08:42:15Z</time>
      </trkpt>
      <trkpt lat="36.4467170" lon="-5.2793470">
        <ele>381.4</ele>
        <time>2019-08-28T08:42:16Z</time>
      </trkpt>
      <trkpt lat="36.4467350" lon="-5.2793820">
        <ele>381.3</ele>
        <time>2019-08-28T08:42:17Z</time>
      </trkpt>
      <trkpt lat="36.4467520" lon="-5.2794170">
        <ele>381.1</ele>
        <time>2019-08-28T08:42:18Z</time>
      </trkpt>
      <trkpt lat="36.4467700" lon="-5.2794530">
        <ele>381.0</ele>
        <time>2019-08-28T08:42:19Z</time>
      </trkpt>
      <trkpt lat="36.4467880" lon="-5.2794900">
        <ele>380.8</ele>
        <time>2019-08-28T08:42:20Z</time>
      </trkpt>
      <trkpt lat="36.4468070" lon="-5.2795300">
        <ele>380.6</ele>
        <time>2019-08-28T08:42:21Z</time>
      </trkpt>
      <trkpt lat="36.4468230" lon="-5.2795740">
        <ele>380.4</ele>
        <time>2019-08-28T08:42:22Z</time>
      </trkpt>
      <trkpt lat="36.4468380" lon="-5.2796220">
        <ele>380.2</ele>
        <time>2019-08-28T08:42:23Z</time>
      </trkpt>
      <trkpt lat="36.4468520" lon="-5.2796740">
        <ele>380.0</ele>
        <time>2019-08-28T08:42:24Z</time>
      </trkpt>
      <trkpt lat="36.4468660" lon="-5.2797270">
        <ele>379.8</ele>
        <time>2019-08-28T08:42:25Z</time>
      </trkpt>
      <trkpt lat="36.4468810" lon="-5.2797830">
        <ele>379.5</ele>
        <time>2019-08-28T08:42:26Z</time>
      </trkpt>
      <trkpt lat="36.4468940" lon="-5.2798420">
        <ele>379.2</ele>
        <time>2019-08-28T08:42:27Z</time>
      </trkpt>
      <trkpt lat="36.4469040" lon="-5.2799050">
        <ele>378.9</ele>
        <time>2019-08-28T08:42:28Z</time>
      </trkpt>
      <trkpt lat="36.4469100" lon="-5.2799740">
        <ele>378.6</ele>
        <time>2019-08-28T08:42:29Z</time>
      </trkpt>
      <trkpt lat="36.4469110" lon="-5.2800480">
        <ele>378.2</ele>
        <time>2019-08-28T08:42:30Z</time>
      </trkpt>
      <trkpt lat="36.4469070" lon="-5.2801270">
        <ele>377.7</ele>
        <time>2019-08-28T08:42:31Z</time>
      </trkpt>
      <trkpt lat="36.4468970" lon="-5.2802090">
        <ele>377.2</ele>
        <time>2019-08-28T08:42:32Z</time>
      </trkpt>
      <trkpt lat="36.4468830" lon="-5.2802960">
        <ele>376.8</ele>
        <time>2019-08-28T08:42:33Z</time>
      </trkpt>
      <trkpt lat="36.4468650" lon="-5.2803860">
        <ele>376.2</ele>
        <time>2019-08-28T08:42:34Z</time>
      </trkpt>
      <trkpt lat="36.4468440" lon="-5.2804790">
        <ele>375.6</ele>
        <time>2019-08-28T08:42:35Z</time>
      </trkpt>
      <trkpt lat="36.4468210" lon="-5.2805750">
        <ele>375.0</ele>
        <time>2019-08-28T08:42:36Z</time>
      </trkpt>
      <trkpt lat="36.4467970" lon="-5.2806760">
        <ele>374.4</ele>
        <time>2019-08-28T08:42:37Z</time>
      </trkpt>
      <trkpt lat="36.4467700" lon="-5.2807810">
        <ele>373.8</ele>
        <time>2019-08-28T08:42:38Z</time>
      </trkpt>
      <trkpt lat="36.4467430" lon="-5.2808890">
        <ele>373.4</ele>
        <time>2019-08-28T08:42:39Z</time>
      </trkpt>
      <trkpt lat="36.4467150" lon="-5.2810000">
        <ele>373.0</ele>
        <time>2019-08-28T08:42:40Z</time>
      </trkpt>
      <trkpt lat="36.4466870" lon="-5.2811150">
        <ele>372.6</ele>
        <time>2019-08-28T08:42:41Z</time>
      </trkpt>
      <trkpt lat="36.4466600" lon="-5.2812330">
        <ele>372.1</ele>
        <time>2019-08-28T08:42:42Z</time>
      </trkpt>
      <trkpt lat="36.4466340" lon="-5.2813530">
        <ele>371.6</ele>
        <time>2019-08-28T08:42:43Z</time>
      </trkpt>
      <trkpt lat="36.4466090" lon="-5.2814750">
        <ele>371.0</ele>
        <time>2019-08-28T08:42:44Z</time>
      </trkpt>
      <trkpt lat="36.4465880" lon="-5.2816000">
        <ele>370.7</ele>
        <time>2019-08-28T08:42:45Z</time>
      </trkpt>
      <trkpt lat="36.4465730" lon="-5.2817260">
        <ele>370.6</ele>
        <time>2019-08-28T08:42:46Z</time>
      </trkpt>
      <trkpt lat="36.4465680" lon="-5.2818530">
        <ele>370.5</ele>
        <time>2019-08-28T08:42:47Z</time>
      </trkpt>
      <trkpt lat="36.4465740" lon="-5.2819810">
        <ele>370.4</ele>
        <time>2019-08-28T08:42:48Z</time>
      </trkpt>
      <trkpt lat="36.4465860" lon="-5.2821080">
        <ele>370.3</ele>
        <time>2019-08-28T08:42:49Z</time>
      </trkpt>
      <trkpt lat="36.4466050" lon="-5.2822330">
        <ele>370.2</ele>
        <time>2019-08-28T08:42:50Z</time>
      </trkpt>
      <trkpt lat="36.4466320" lon="-5.2823520">
        <ele>370.1</ele>
        <time>2019-08-28T08:42:51Z</time>
      </trkpt>
      <trkpt lat="36.4466630" lon="-5.2824680">
        <ele>370.0</ele>
        <time>2019-08-28T08:42:52Z</time>
      </trkpt>
      <trkpt lat="36.4466950" lon="-5.2825800">
        <ele>369.6</ele>
        <time>2019-08-28T08:42:53Z</time>
      </trkpt>
      <trkpt lat="36.4467230" lon="-5.2826920">
        <ele>369.1</ele>
        <time>2019-08-28T08:42:54Z</time>
      </trkpt>
      <trkpt lat="36.4467530" lon="-5.2828020">
        <ele>368.8</ele>
        <time>2019-08-28T08:42:55Z</time>
      </trkpt>
      <trkpt lat="36.4467850" lon="-5.2829100">
        <ele>368.6</ele>
        <time>2019-08-28T08:42:56Z</time>
      </trkpt>
      <trkpt lat="36.4468160" lon="-5.2830170">
        <ele>368.5</ele>
        <time>2019-08-28T08:42:57Z</time>
      </trkpt>
      <trkpt lat="36.4468480" lon="-5.2831240">
        <ele>368.4</ele>
        <time>2019-08-28T08:42:58Z</time>
      </trkpt>
      <trkpt lat="36.4468790" lon="-5.2832300">
        <ele>368.2</ele>
        <time>2019-08-28T08:42:59Z</time>
      </trkpt>
      <trkpt lat="36.4469090" lon="-5.2833370">
        <ele>368.1</ele>
        <time>2019-08-28T08:43:00Z</time>
      </trkpt>
      <trkpt lat="36.4469380" lon="-5.2834430">
        <ele>367.9</ele>
        <time>2019-08-28T08:43:01Z</time>
      </trkpt>
      <trkpt lat="36.4469670" lon="-5.2835500">
        <ele>367.7</ele>
        <time>2019-08-28T08:43:02Z</time>
      </trkpt>
      <trkpt lat="36.4469980" lon="-5.2836560">
        <ele>367.4</ele>
        <time>2019-08-28T08:43:03Z</time>
      </trkpt>
      <trkpt lat="36.4470290" lon="-5.2837620">
        <ele>366.9</ele>
        <time>2019-08-28T08:43:04Z</time>
      </trkpt>
      <trkpt lat="36.4470610" lon="-5.2838680">
        <ele>366.6</ele>
        <time>2019-08-28T08:43:05Z</time>
      </trkpt>
      <trkpt lat="36.4470930" lon="-5.2839760">
        <ele>366.3</ele>
        <time>2019-08-28T08:43:06Z</time>
      </trkpt>
      <trkpt lat="36.4471250" lon="-5.2840850">
        <ele>366.1</ele>
        <time>2019-08-28T08:43:07Z</time>
      </trkpt>
      <trkpt lat="36.4471580" lon="-5.2841940">
        <ele>365.8</ele>
        <time>2019-08-28T08:43:08Z</time>
      </trkpt>
      <trkpt lat="36.4471890" lon="-5.2843050">
        <ele>365.6</ele>
        <time>2019-08-28T08:43:09Z</time>
      </trkpt>
      <trkpt lat="36.4472210" lon="-5.2844160">
        <ele>365.4</ele>
        <time>2019-08-28T08:43:10Z</time>
      </trkpt>
      <trkpt lat="36.4472520" lon="-5.2845270">
        <ele>364.9</ele>
        <time>2019-08-28T08:43:11Z</time>
      </trkpt>
      <trkpt lat="36.4472830" lon="-5.2846390">
        <ele>364.5</ele>
        <time>2019-08-28T08:43:12Z</time>
      </trkpt>
      <trkpt lat="36.4473150" lon="-5.2847510">
        <ele>364.2</ele>
        <time>2019-08-28T08:43:13Z</time>
      </trkpt>
      <trkpt lat="36.4473470" lon="-5.2848630">
        <ele>363.9</ele>
        <time>2019-08-28T08:43:14Z</time>
      </trkpt>
      <trkpt lat="36.4473780" lon="-5.2849740">
        <ele>363.7</ele>
        <time>2019-08-28T08:43:15Z</time>
      </trkpt>
      <trkpt lat="36.4474100" lon="-5.2850850">
        <ele>363.4</ele>
        <time>2019-08-28T08:43:16Z</time>
      </trkpt>
      <trkpt lat="36.4474430" lon="-5.2851960">
        <ele>363.1</ele>
        <time>2019-08-28T08:43:17Z</time>
      </trkpt>
      <trkpt lat="36.4474770" lon="-5.2853070">
        <ele>362.6</ele>
        <time>2019-08-28T08:43:18Z</time>
      </trkpt>
      <trkpt lat="36.4475100" lon="-5.2854200">
        <ele>362.0</ele>
        <time>2019-08-28T08:43:19Z</time>
      </trkpt>
      <trkpt lat="36.4475430" lon="-5.2855330">
        <ele>361.7</ele>
        <time>2019-08-28T08:43:20Z</time>
      </trkpt>
      <trkpt lat="36.4475760" lon="-5.2856470">
        <ele>361.4</ele>
        <time>2019-08-28T08:43:21Z</time>
      </trkpt>
      <trkpt lat="36.4476110" lon="-5.2857630">
        <ele>360.9</ele>
        <time>2019-08-28T08:43:22Z</time>
      </trkpt>
      <trkpt lat="36.4476460" lon="-5.2858790">
        <ele>360.2</ele>
        <time>2019-08-28T08:43:23Z</time>
      </trkpt>
      <trkpt lat="36.4476810" lon="-5.2859980">
        <ele>359.6</ele>
        <time>2019-08-28T08:43:24Z</time>
      </trkpt>
      <trkpt lat="36.4477170" lon="-5.2861180">
        <ele>358.9</ele>
        <time>2019-08-28T08:43:25Z</time>
      </trkpt>
      <trkpt lat="36.4477540" lon="-5.2862410">
        <ele>358.0</ele>
        <time>2019-08-28T08:43:26Z</time>
      </trkpt>
      <trkpt lat="36.4477910" lon="-5.2863660">
        <ele>357.2</ele>
        <time>2019-08-28T08:43:27Z</time>
      </trkpt>
      <trkpt lat="36.4478280" lon="-5.2864920">
        <ele>356.6</ele>
        <time>2019-08-28T08:43:28Z</time>
      </trkpt>
      <trkpt lat="36.4478660" lon="-5.2866200">
        <ele>355.7</ele>
        <time>2019-08-28T08:43:29Z</time>
      </trkpt>
      <trkpt lat="36.4479040" lon="-5.2867470">
        <ele>355.2</ele>
        <time>2019-08-28T08:43:30Z</time>
      </trkpt>
      <trkpt lat="36.4479410" lon="-5.2868780">
        <ele>354.8</ele>
        <time>2019-08-28T08:43:31Z</time>
      </trkpt>
      <trkpt lat="36.4479790" lon="-5.2870100">
        <ele>354.1</ele>
        <time>2019-08-28T08:43:32Z</time>
      </trkpt>
      <trkpt lat="36.4480180" lon="-5.2871440">
        <ele>353.2</ele>
        <time>2019-08-28T08:43:33Z</time>
      </trkpt>
      <trkpt lat="36.4480580" lon="-5.2872780">
        <ele>352.5</ele>
        <time>2019-08-28T08:43:34Z</time>
      </trkpt>
      <trkpt lat="36.4480970" lon="-5.2874130">
        <ele>351.5</ele>
        <time>2019-08-28T08:43:35Z</time>
      </trkpt>
      <trkpt lat="36.4481360" lon="-5.2875490">
        <ele>350.7</ele>
        <time>2019-08-28T08:43:36Z</time>
      </trkpt>
      <trkpt lat="36.4481750" lon="-5.2876870">
        <ele>350.0</ele>
        <time>2019-08-28T08:43:37Z</time>
      </trkpt>
      <trkpt lat="36.4482150" lon="-5.2878260">
        <ele>349.0</ele>
        <time>2019-08-28T08:43:38Z</time>
      </trkpt>
      <trkpt lat="36.4482550" lon="-5.2879660">
        <ele>348.2</ele>
        <time>2019-08-28T08:43:39Z</time>
      </trkpt>
      <trkpt lat="36.4482930" lon="-5.2881070">
        <ele>347.3</ele>
        <time>2019-08-28T08:43:40Z</time>
      </trkpt>
      <trkpt lat="36.4483290" lon="-5.2882500">
        <ele>346.3</ele>
        <time>2019-08-28T08:43:41Z</time>
      </trkpt>
      <trkpt lat="36.4483600" lon="-5.2883940">
        <ele>345.4</ele>
        <time>2019-08-28T08:43:42Z</time>
      </trkpt>
      <trkpt lat="36.4483860" lon="-5.2885380">
        <ele>344.4</ele>
        <time>2019-08-28T08:43:43Z</time>
      </trkpt>
      <trkpt lat="36.4484060" lon="-5.2886810">
        <ele>343.7</ele>
        <time>2019-08-28T08:43:44Z</time>
      </trkpt>
      <trkpt lat="36.4484190" lon="-5.2888240">
        <ele>342.7</ele>
        <time>2019-08-28T08:43:45Z</time>
      </trkpt>
      <trkpt lat="36.4484240" lon="-5.2889680">
        <ele>341.6</ele>
        <time>2019-08-28T08:43:46Z</time>
      </trkpt>
      <trkpt lat="36.4484180" lon="-5.2891110">
        <ele>340.4</ele>
        <time>2019-08-28T08:43:47Z</time>
      </trkpt>
      <trkpt lat="36.4484040" lon="-5.2892520">
        <ele>339.2</ele>
        <time>2019-08-28T08:43:48Z</time>
      </trkpt>
      <trkpt lat="36.4483860" lon="-5.2893880">
        <ele>338.4</ele>
        <time>2019-08-28T08:43:49Z</time>
      </trkpt>
      <trkpt lat="36.4483670" lon="-5.2895160">
        <ele>337.2</ele>
        <time>2019-08-28T08:43:50Z</time>
      </trkpt>
      <trkpt lat="36.4483530" lon="-5.2896360">
        <ele>336.1</ele>
        <time>2019-08-28T08:43:51Z</time>
      </trkpt>
      <trkpt lat="36.4483460" lon="-5.2897470">
        <ele>335.3</ele>
        <time>2019-08-28T08:43:52Z</time>
      </trkpt>
      <trkpt lat="36.4483530" lon="-5.2898500">
        <ele>334.7</ele>
        <time>2019-08-28T08:43:53Z</time>
      </trkpt>
      <trkpt lat="36.4483790" lon="-5.2899400">
        <ele>333.9</ele>
        <time>2019-08-28T08:43:54Z</time>
      </trkpt>
      <trkpt lat="36.4484240" lon="-5.2900120">
        <ele>330.5</ele>
        <time>2019-08-28T08:43:55Z</time>
      </trkpt>
      <trkpt lat="36.4484860" lon="-5.2900620">
        <ele>329.7</ele>
        <time>2019-08-28T08:43:56Z</time>
      </trkpt>
      <trkpt lat="36.4485600" lon="-5.2900980">
        <ele>329.0</ele>
        <time>2019-08-28T08:43:57Z</time>
      </trkpt>
      <trkpt lat="36.4486380" lon="-5.2901300">
        <ele>328.5</ele>
        <time>2019-08-28T08:43:58Z</time>
      </trkpt>
      <trkpt lat="36.4487190" lon="-5.2901630">
        <ele>328.0</ele>
        <time>2019-08-28T08:43:59Z</time>
      </trkpt>
      <trkpt lat="36.4488020" lon="-5.2901990">
        <ele>327.6</ele>
        <time>2019-08-28T08:44:00Z</time>
      </trkpt>
      <trkpt lat="36.4488850" lon="-5.2902360">
        <ele>327.2</ele>
        <time>2019-08-28T08:44:01Z</time>
      </trkpt>
      <trkpt lat="36.4489700" lon="-5.2902740">
        <ele>326.8</ele>
        <time>2019-08-28T08:44:02Z</time>
      </trkpt>
      <trkpt lat="36.4490560" lon="-5.2903120">
        <ele>326.4</ele>
        <time>2019-08-28T08:44:03Z</time>
      </trkpt>
      <trkpt lat="36.4491410" lon="-5.2903500">
        <ele>325.9</ele>
        <time>2019-08-28T08:44:04Z</time>
      </trkpt>
      <trkpt lat="36.4492270" lon="-5.2903900">
        <ele>325.4</ele>
        <time>2019-08-28T08:44:05Z</time>
      </trkpt>
      <trkpt lat="36.4493130" lon="-5.2904310">
        <ele>324.9</ele>
        <time>2019-08-28T08:44:06Z</time>
      </trkpt>
      <trkpt lat="36.4493990" lon="-5.2904720">
        <ele>324.5</ele>
        <time>2019-08-28T08:44:07Z</time>
      </trkpt>
      <trkpt lat="36.4494860" lon="-5.2905100">
        <ele>324.1</ele>
        <time>2019-08-28T08:44:08Z</time>
      </trkpt>
      <trkpt lat="36.4495730" lon="-5.2905480">
        <ele>323.7</ele>
        <time>2019-08-28T08:44:09Z</time>
      </trkpt>
      <trkpt lat="36.4496610" lon="-5.2905850">
        <ele>323.4</ele>
        <time>2019-08-28T08:44:10Z</time>
      </trkpt>
      <trkpt lat="36.4497490" lon="-5.2906250">
        <ele>323.1</ele>
        <time>2019-08-28T08:44:11Z</time>
      </trkpt>
      <trkpt lat="36.4498380" lon="-5.2906650">
        <ele>322.8</ele>
        <time>2019-08-28T08:44:12Z</time>
      </trkpt>
      <trkpt lat="36.4499270" lon="-5.2907030">
        <ele>322.6</ele>
        <time>2019-08-28T08:44:13Z</time>
      </trkpt>
      <trkpt lat="36.4500190" lon="-5.2907410">
        <ele>322.4</ele>
        <time>2019-08-28T08:44:14Z</time>
      </trkpt>
      <trkpt lat="36.4501110" lon="-5.2907780">
        <ele>322.2</ele>
        <time>2019-08-28T08:44:15Z</time>
      </trkpt>
      <trkpt lat="36.4502040" lon="-5.2908170">
        <ele>322.0</ele>
        <time>2019-08-28T08:44:16Z</time>
      </trkpt>
      <trkpt lat="36.4502980" lon="-5.2908560">
        <ele>321.8</ele>
        <time>2019-08-28T08:44:17Z</time>
      </trkpt>
      <trkpt lat="36.4503920" lon="-5.2908940">
        <ele>321.6</ele>
        <time>2019-08-28T08:44:18Z</time>
      </trkpt>
      <trkpt lat="36.4504880" lon="-5.2909320">
        <ele>321.4</ele>
        <time>2019-08-28T08:44:19Z</time>
      </trkpt>
      <trkpt lat="36.4505850" lon="-5.2909660">
        <ele>321.2</ele>
        <time>2019-08-28T08:44:20Z</time>
      </trkpt>
      <trkpt lat="36.4506850" lon="-5.2909970">
        <ele>320.9</ele>
        <time>2019-08-28T08:44:21Z</time>
      </trkpt>
      <trkpt lat="36.4507860" lon="-5.2910240">
        <ele>320.7</ele>
        <time>2019-08-28T08:44:22Z</time>
      </trkpt>
      <trkpt lat="36.4508890" lon="-5.2910490">
        <ele>320.4</ele>
        <time>2019-08-28T08:44:23Z</time>
      </trkpt>
      <trkpt lat="36.4509940" lon="-5.2910710">
        <ele>320.2</ele>
        <time>2019-08-28T08:44:24Z</time>
      </trkpt>
      <trkpt lat="36.4511000" lon="-5.2910920">
        <ele>319.8</ele>
        <time>2019-08-28T08:44:25Z</time>
      </trkpt>
      <trkpt lat="36.4512070" lon="-5.2911140">
        <ele>319.4</ele>
        <time>2019-08-28T08:44:26Z</time>
      </trkpt>
      <trkpt lat="36.4513150" lon="-5.2911360">
        <ele>319.0</ele>
        <time>2019-08-28T08:44:27Z</time>
      </trkpt>
      <trkpt lat="36.4514240" lon="-5.2911590">
        <ele>318.5</ele>
        <time>2019-08-28T08:44:28Z</time>
      </trkpt>
      <trkpt lat="36.4515350" lon="-5.2911850">
        <ele>318.0</ele>
        <time>2019-08-28T08:44:29Z</time>
      </trkpt>
      <trkpt lat="36.4516460" lon="-5.2912140">
        <ele>317.6</ele>
        <time>2019-08-28T08:44:30Z</time>
      </trkpt>
      <trkpt lat="36.4517570" lon="-5.2912490">
        <ele>317.2</ele>
        <time>2019-08-28T08:44:31Z</time>
      </trkpt>
      <trkpt lat="36.4518660" lon="-5.2912930">
        <ele>316.8</ele>
        <time>2019-08-28T08:44:32Z</time>
      </trkpt>
      <trkpt lat="36.4519720" lon="-5.2913470">
        <ele>316.5</ele>
        <time>2019-08-28T08:44:33Z</time>
      </trkpt>
      <trkpt lat="36.4520750" lon="-5.2914090">
        <ele>316.2</ele>
        <time>2019-08-28T08:44:34Z</time>
      </trkpt>
      <trkpt lat="36.4521760" lon="-5.2914740">
        <ele>315.8</ele>
        <time>2019-08-28T08:44:35Z</time>
      </trkpt>
      <trkpt lat="36.4522780" lon="-5.2915410">
        <ele>315.4</ele>
        <time>2019-08-28T08:44:36Z</time>
      </trkpt>
      <trkpt lat="36.4523790" lon="-5.2916110">
        <ele>315.0</ele>
        <time>2019-08-28T08:44:37Z</time>
      </trkpt>
      <trkpt lat="36.4524780" lon="-5.2916860">
        <ele>314.6</ele>
        <time>2019-08-28T08:44:38Z</time>
      </trkpt>
      <trkpt lat="36.4525720" lon="-5.2917670">
        <ele>314.1</ele>
        <time>2019-08-28T08:44:39Z</time>
      </trkpt>
      <trkpt lat="36.4526610" lon="-5.2918550">
        <ele>313.7</ele>
        <time>2019-08-28T08:44:40Z</time>
      </trkpt>
      <trkpt lat="36.4527460" lon="-5.2919470">
        <ele>313.3</ele>
        <time>2019-08-28T08:44:41Z</time>
      </trkpt>
      <trkpt lat="36.4528280" lon="-5.2920420">
        <ele>312.8</ele>
        <time>2019-08-28T08:44:42Z</time>
      </trkpt>
      <trkpt lat="36.4529100" lon="-5.2921380">
        <ele>312.3</ele>
        <time>2019-08-28T08:44:43Z</time>
      </trkpt>
      <trkpt lat="36.4529920" lon="-5.2922340">
        <ele>311.8</ele>
        <time>2019-08-28T08:44:44Z</time>
      </trkpt>
      <trkpt lat="36.4530760" lon="-5.2923260">
        <ele>311.3</ele>
        <time>2019-08-28T08:44:45Z</time>
      </trkpt>
      <trkpt lat="36.4531620" lon="-5.2924110">
        <ele>310.9</ele>
        <time>2019-08-28T08:44:46Z</time>
      </trkpt>
      <trkpt lat="36.4532520" lon="-5.2924850">
        <ele>310.5</ele>
        <time>2019-08-28T08:44:47Z</time>
      </trkpt>
      <trkpt lat="36.4533430" lon="-5.2925500">
        <ele>310.2</ele>
        <time>2019-08-28T08:44:48Z</time>
      </trkpt>
      <trkpt lat="36.4534310" lon="-5.2926100">
        <ele>310.0</ele>
        <time>2019-08-28T08:44:49Z</time>
      </trkpt>
      <trkpt lat="36.4535140" lon="-5.2926670">
        <ele>309.9</ele>
        <time>2019-08-28T08:44:50Z</time>
      </trkpt>
      <trkpt lat="36.4535930" lon="-5.2927210">
        <ele>309.8</ele>
        <time>2019-08-28T08:44:51Z</time>
      </trkpt>
      <trkpt lat="36.4536690" lon="-5.2927710">
        <ele>309.8</ele>
        <time>2019-08-28T08:44:52Z</time>
      </trkpt>
      <trkpt lat="36.4537420" lon="-5.2928180">
        <ele>309.8</ele>
        <time>2019-08-28T08:44:53Z</time>
      </trkpt>
      <trkpt lat="36.4538100" lon="-5.2928620">
        <ele>309.8</ele>
        <time>2019-08-28T08:44:54Z</time>
      </trkpt>
      <trkpt lat="36.4538740" lon="-5.2929040">
        <ele>309.8</ele>
        <time>2019-08-28T08:44:55Z</time>
      </trkpt>
      <trkpt lat="36.4539350" lon="-5.2929430">
        <ele>309.9</ele>
        <time>2019-08-28T08:44:56Z</time>
      </trkpt>
      <trkpt lat="36.4539930" lon="-5.2929770">
        <ele>310.1</ele>
        <time>2019-08-28T08:44:57Z</time>
      </trkpt>
      <trkpt lat="36.4540480" lon="-5.2930090">
        <ele>310.3</ele>
        <time>2019-08-28T08:44:58Z</time>
      </trkpt>
      <trkpt lat="36.4541010" lon="-5.2930370">
        <ele>310.7</ele>
        <time>2019-08-28T08:44:59Z</time>
      </trkpt>
      <trkpt lat="36.4541520" lon="-5.2930630">
        <ele>311.1</ele>
        <time>2019-08-28T08:45:00Z</time>
      </trkpt>
      <trkpt lat="36.4542000" lon="-5.2930850">
        <ele>311.7</ele>
        <time>2019-08-28T08:45:01Z</time>
      </trkpt>
      <trkpt lat="36.4542460" lon="-5.2931040">
        <ele>312.4</ele>
        <time>2019-08-28T08:45:02Z</time>
      </trkpt>
      <trkpt lat="36.4542890" lon="-5.2931200">
        <ele>313.1</ele>
        <time>2019-08-28T08:45:03Z</time>
      </trkpt>
      <trkpt lat="36.4543310" lon="-5.2931340">
        <ele>313.8</ele>
        <time>2019-08-28T08:45:04Z</time>
      </trkpt>
      <trkpt lat="36.4543730" lon="-5.2931460">
        <ele>314.6</ele>
        <time>2019-08-28T08:45:05Z</time>
      </trkpt>
      <trkpt lat="36.4544130" lon="-5.2931550">
        <ele>315.4</ele>
        <time>2019-08-28T08:45:06Z</time>
      </trkpt>
      <trkpt lat="36.4544520" lon="-5.2931630">
        <ele>316.1</ele>
        <time>2019-08-28T08:45:07Z</time>
      </trkpt>
      <trkpt lat="36.4544890" lon="-5.2931710">
        <ele>316.8</ele>
        <time>2019-08-28T08:45:08Z</time>
      </trkpt>
      <trkpt lat="36.4545240" lon="-5.2931780">
        <ele>317.4</ele>
        <time>2019-08-28T08:45:09Z</time>
      </trkpt>
      <trkpt lat="36.4545590" lon="-5.2931840">
        <ele>318.1</ele>
        <time>2019-08-28T08:45:10Z</time>
      </trkpt>
      <trkpt lat="36.4545930" lon="-5.2931910">
        <ele>318.7</ele>
        <time>2019-08-28T08:45:11Z</time>
      </trkpt>
      <trkpt lat="36.4546280" lon="-5.2931970">
        <ele>319.1</ele>
        <time>2019-08-28T08:45:12Z</time>
      </trkpt>
      <trkpt lat="36.4546620" lon="-5.2932040">
        <ele>319.5</ele>
        <time>2019-08-28T08:45:13Z</time>
      </trkpt>
      <trkpt lat="36.4546960" lon="-5.2932100">
        <ele>319.8</ele>
        <time>2019-08-28T08:45:14Z</time>
      </trkpt>
      <trkpt lat="36.4547290" lon="-5.2932170">
        <ele>320.2</ele>
        <time>2019-08-28T08:45:15Z</time>
      </trkpt>
      <trkpt lat="36.4547620" lon="-5.2932230">
        <ele>320.6</ele>
        <time>2019-08-28T08:45:16Z</time>
      </trkpt>
      <trkpt lat="36.4547940" lon="-5.2932280">
        <ele>320.9</ele>
        <time>2019-08-28T08:45:17Z</time>
      </trkpt>
      <trkpt lat="36.4548260" lon="-5.2932340">
        <ele>321.2</ele>
        <time>2019-08-28T08:45:18Z</time>
      </trkpt>
      <trkpt lat="36.4548570" lon="-5.2932420">
        <ele>321.6</ele>
        <time>2019-08-28T08:45:19Z</time>
      </trkpt>
      <trkpt lat="36.4548880" lon="-5.2932500">
        <ele>321.9</ele>
        <time>2019-08-28T08:45:20Z</time>
      </trkpt>
      <trkpt lat="36.4549190" lon="-5.2932580">
        <ele>322.2</ele>
        <time>2019-08-28T08:45:21Z</time>
      </trkpt>
      <trkpt lat="36.4549490" lon="-5.2932640">
        <ele>322.4</ele>
        <time>2019-08-28T08:45:22Z</time>
      </trkpt>
      <trkpt lat="36.4549800" lon="-5.2932680">
        <ele>322.7</ele>
        <time>2019-08-28T08:45:23Z</time>
      </trkpt>
      <trkpt lat="36.4550110" lon="-5.2932730">
        <ele>323.0</ele>
        <time>2019-08-28T08:45:24Z</time>
      </trkpt>
      <trkpt lat="36.4550410" lon="-5.2932790">
        <ele>323.3</ele>
        <time>2019-08-28T08:45:25Z</time>
      </trkpt>
      <trkpt lat="36.4550710" lon="-5.2932850">
        <ele>323.6</ele>
        <time>2019-08-28T08:45:26Z</time>
      </trkpt>
      <trkpt lat="36.4551000" lon="-5.2932910">
        <ele>323.8</ele>
        <time>2019-08-28T08:45:27Z</time>
      </trkpt>
      <trkpt lat="36.4551300" lon="-5.2932980">
        <ele>324.1</ele>
        <time>2019-08-28T08:45:28Z</time>
      </trkpt>
      <trkpt lat="36.4551600" lon="-5.2933050">
        <ele>324.4</ele>
        <time>2019-08-28T08:45:29Z</time>
      </trkpt>
      <trkpt lat="36.4551900" lon="-5.2933110">
        <ele>324.7</ele>
        <time>2019-08-28T08:45:30Z</time>
      </trkpt>
      <trkpt lat="36.4552200" lon="-5.2933150">
        <ele>324.9</ele>
        <time>2019-08-28T08:45:31Z</time>
      </trkpt>
      <trkpt lat="36.4552490" lon="-5.2933200">
        <ele>325.2</ele>
        <time>2019-08-28T08:45:32Z</time>
      </trkpt>
      <trkpt lat="36.4552780" lon="-5.2933250">
        <ele>325.4</ele>
        <time>2019-08-28T08:45:33Z</time>
      </trkpt>
      <trkpt lat="36.4553080" lon="-5.2933310">
        <ele>325.7</ele>
        <time>2019-08-28T08:45:34Z</time>
      </trkpt>
      <trkpt lat="36.4553370" lon="-5.2933370">
        <ele>326.0</ele>
        <time>2019-08-28T08:45:35Z</time>
      </trkpt>
      <trkpt lat="36.4553670" lon="-5.2933430">
        <ele>326.2</ele>
        <time>2019-08-28T08:45:36Z</time>
      </trkpt>
      <trkpt lat="36.4553970" lon="-5.2933480">
        <ele>326.5</ele>
        <time>2019-08-28T08:45:37Z</time>
      </trkpt>
      <trkpt lat="36.4554270" lon="-5.2933530">
        <ele>326.8</ele>
        <time>2019-08-28T08:45:38Z</time>
      </trkpt>
      <trkpt lat="36.4554570" lon="-5.2933570">
        <ele>327.1</ele>
        <time>2019-08-28T08:45:39Z</time>
      </trkpt>
      <trkpt lat="36.4554870" lon="-5.2933620">
        <ele>327.4</ele>
        <time>2019-08-28T08:45:40Z</time>
      </trkpt>
      <trkpt lat="36.4555180" lon="-5.2933670">
        <ele>327.6</ele>
        <time>2019-08-28T08:45:41Z</time>
      </trkpt>
      <trkpt lat="36.4555480" lon="-5.2933730">
        <ele>327.9</ele>
        <time>2019-08-28T08:45:42Z</time>
      </trkpt>
      <trkpt lat="36.4555780" lon="-5.2933800">
        <ele>328.2</ele>
        <time>2019-08-28T08:45:43Z</time>
      </trkpt>
      <trkpt lat="36.4556080" lon="-5.2933860">
        <ele>328.5</ele>
        <time>2019-08-28T08:45:44Z</time>
      </trkpt>
      <trkpt lat="36.4556370" lon="-5.2933910">
        <ele>328.7</ele>
        <time>2019-08-28T08:45:45Z</time>
      </trkpt>
      <trkpt lat="36.4556670" lon="-5.2933950">
        <ele>329.1</ele>
        <time>2019-08-28T08:45:46Z</time>
      </trkpt>
      <trkpt lat="36.4556960" lon="-5.2934000">
        <ele>329.3</ele>
        <time>2019-08-28T08:45:47Z</time>
      </trkpt>
      <trkpt lat="36.4557250" lon="-5.2934050">
        <ele>329.6</ele>
        <time>2019-08-28T08:45:48Z</time>
      </trkpt>
      <trkpt lat="36.4557540" lon="-5.2934100">
        <ele>329.9</ele>
        <time>2019-08-28T08:45:49Z</time>
      </trkpt>
      <trkpt lat="36.4557830" lon="-5.2934140">
        <ele>330.3</ele>
        <time>2019-08-28T08:45:50Z</time>
      </trkpt>
      <trkpt lat="36.4558120" lon="-5.2934190">
        <ele>330.6</ele>
        <time>2019-08-28T08:45:51Z</time>
      </trkpt>
      <trkpt lat="36.4558420" lon="-5.2934240">
        <ele>330.9</ele>
        <time>2019-08-28T08:45:52Z</time>
      </trkpt>
      <trkpt lat="36.4558710" lon="-5.2934300">
        <ele>331.2</ele>
        <time>2019-08-28T08:45:53Z</time>
      </trkpt>
      <trkpt lat="36.4559000" lon="-5.2934360">
        <ele>331.5</ele>
        <time>2019-08-28T08:45:54Z</time>
      </trkpt>
      <trkpt lat="36.4559290" lon="-5.2934410">
        <ele>331.9</ele>
        <time>2019-08-28T08:45:55Z</time>
      </trkpt>
      <trkpt lat="36.4559590" lon="-5.2934470">
        <ele>332.2</ele>
        <time>2019-08-28T08:45:56Z</time>
      </trkpt>
      <trkpt lat="36.4559880" lon="-5.2934520">
        <ele>332.5</ele>
        <time>2019-08-28T08:45:57Z</time>
      </trkpt>
      <trkpt lat="36.4560180" lon="-5.2934570">
        <ele>332.8</ele>
        <time>2019-08-28T08:45:58Z</time>
      </trkpt>
      <trkpt lat="36.4560470" lon="-5.2934620">
        <ele>333.1</ele>
        <time>2019-08-28T08:45:59Z</time>
      </trkpt>
      <trkpt lat="36.4560760" lon="-5.2934680">
        <ele>333.4</ele>
        <time>2019-08-28T08:46:00Z</time>
      </trkpt>
      <trkpt lat="36.4561050" lon="-5.2934730">
        <ele>333.7</ele>
        <time>2019-08-28T08:46:01Z</time>
      </trkpt>
      <trkpt lat="36.4561340" lon="-5.2934780">
        <ele>334.0</ele>
        <time>2019-08-28T08:46:02Z</time>
      </trkpt>
      <trkpt lat="36.4561640" lon="-5.2934820">
        <ele>334.3</ele>
        <time>2019-08-28T08:46:03Z</time>
      </trkpt>
      <trkpt lat="36.4561930" lon="-5.2934870">
        <ele>334.6</ele>
        <time>2019-08-28T08:46:04Z</time>
      </trkpt>
      <trkpt lat="36.4562240" lon="-5.2934920">
        <ele>334.9</ele>
        <time>2019-08-28T08:46:05Z</time>
      </trkpt>
      <trkpt lat="36.4562540" lon="-5.2934980">
        <ele>335.3</ele>
        <time>2019-08-28T08:46:06Z</time>
      </trkpt>
      <trkpt lat="36.4562830" lon="-5.2935040">
        <ele>335.6</ele>
        <time>2019-08-28T08:46:07Z</time>
      </trkpt>
      <trkpt lat="36.4563130" lon="-5.2935100">
        <ele>335.9</ele>
        <time>2019-08-28T08:46:08Z</time>
      </trkpt>
      <trkpt lat="36.4563430" lon="-5.2935140">
        <ele>336.1</ele>
        <time>2019-08-28T08:46:09Z</time>
      </trkpt>
      <trkpt lat="36.4563730" lon="-5.2935190">
        <ele>336.4</ele>
        <time>2019-08-28T08:46:10Z</time>
      </trkpt>
      <trkpt lat="36.4564030" lon="-5.2935240">
        <ele>336.7</ele>
        <time>2019-08-28T08:46:11Z</time>
      </trkpt>
      <trkpt lat="36.4564330" lon="-5.2935310">
        <ele>337.0</ele>
        <time>2019-08-28T08:46:12Z</time>
      </trkpt>
      <trkpt lat="36.4564630" lon="-5.2935390">
        <ele>337.3</ele>
        <time>2019-08-28T08:46:13Z</time>
      </trkpt>
      <trkpt lat="36.4564940" lon="-5.2935470">
        <ele>337.5</ele>
        <time>2019-08-28T08:46:14Z</time>
      </trkpt>
      <trkpt lat="36.4565250" lon="-5.2935560">
        <ele>337.8</ele>
        <time>2019-08-28T08:46:15Z</time>
      </trkpt>
      <trkpt lat="36.4565570" lon="-5.2935650">
        <ele>338.1</ele>
        <time>2019-08-28T08:46:16Z</time>
      </trkpt>
      <trkpt lat="36.4565890" lon="-5.2935760">
        <ele>338.3</ele>
        <time>2019-08-28T08:46:17Z</time>
      </trkpt>
      <trkpt lat="36.4566200" lon="-5.2935890">
        <ele>338.5</ele>
        <time>2019-08-28T08:46:18Z</time>
      </trkpt>
      <trkpt lat="36.4566520" lon="-5.2936020">
        <ele>338.7</ele>
        <time>2019-08-28T08:46:19Z</time>
      </trkpt>
      <trkpt lat="36.4566830" lon="-5.2936170">
        <ele>338.9</ele>
        <time>2019-08-28T08:46:20Z</time>
      </trkpt>
      <trkpt lat="36.4567140" lon="-5.2936330">
        <ele>339.1</ele>
        <time>2019-08-28T08:46:21Z</time>
      </trkpt>
      <trkpt lat="36.4567450" lon="-5.2936500">
        <ele>339.3</ele>
        <time>2019-08-28T08:46:22Z</time>
      </trkpt>
      <trkpt lat="36.4567750" lon="-5.2936670">
        <ele>339.4</ele>
        <time>2019-08-28T08:46:23Z</time>
      </trkpt>
      <trkpt lat="36.4568050" lon="-5.2936850">
        <ele>339.6</ele>
        <time>2019-08-28T08:46:24Z</time>
      </trkpt>
      <trkpt lat="36.4568330" lon="-5.2937020">
        <ele>339.7</ele>
        <time>2019-08-28T08:46:25Z</time>
      </trkpt>
      <trkpt lat="36.4568620" lon="-5.2937210">
        <ele>339.9</ele>
        <time>2019-08-28T08:46:26Z</time>
      </trkpt>
      <trkpt lat="36.4568900" lon="-5.2937400">
        <ele>340.1</ele>
        <time>2019-08-28T08:46:27Z</time>
      </trkpt>
      <trkpt lat="36.4569180" lon="-5.2937590">
        <ele>340.2</ele>
        <time>2019-08-28T08:46:28Z</time>
      </trkpt>
      <trkpt lat="36.4569460" lon="-5.2937790">
        <ele>340.4</ele>
        <time>2019-08-28T08:46:29Z</time>
      </trkpt>
      <trkpt lat="36.4569740" lon="-5.2937990">
        <ele>340.5</ele>
        <time>2019-08-28T08:46:30Z</time>
      </trkpt>
      <trkpt lat="36.4570020" lon="-5.2938190">
        <ele>340.7</ele>
        <time>2019-08-28T08:46:31Z</time>
      </trkpt>
      <trkpt lat="36.4570290" lon="-5.2938390">
        <ele>340.8</ele>
        <time>2019-08-28T08:46:32Z</time>
      </trkpt>
      <trkpt lat="36.4570560" lon="-5.2938590">
        <ele>341.0</ele>
        <time>2019-08-28T08:46:33Z</time>
      </trkpt>
      <trkpt lat="36.4570830" lon="-5.2938790">
        <ele>341.2</ele>
        <time>2019-08-28T08:46:34Z</time>
      </trkpt>
      <trkpt lat="36.4571100" lon="-5.2938980">
        <ele>341.3</ele>
        <time>2019-08-28T08:46:35Z</time>
      </trkpt>
      <trkpt lat="36.4571360" lon="-5.2939180">
        <ele>341.5</ele>
        <time>2019-08-28T08:46:36Z</time>
      </trkpt>
      <trkpt lat="36.4571630" lon="-5.2939380">
        <ele>341.7</ele>
        <time>2019-08-28T08:46:37Z</time>
      </trkpt>
      <trkpt lat="36.4571910" lon="-5.2939590">
        <ele>341.9</ele>
        <time>2019-08-28T08:46:38Z</time>
      </trkpt>
      <trkpt lat="36.4572180" lon="-5.2939800">
        <ele>342.1</ele>
        <time>2019-08-28T08:46:39Z</time>
      </trkpt>
      <trkpt lat="36.4572460" lon="-5.2940000">
        <ele>342.2</ele>
        <time>2019-08-28T08:46:40Z</time>
      </trkpt>
      <trkpt lat="36.4572750" lon="-5.2940210">
        <ele>342.4</ele>
        <time>2019-08-28T08:46:41Z</time>
      </trkpt>
      <trkpt lat="36.4573040" lon="-5.2940410">
        <ele>342.6</ele>
        <time>2019-08-28T08:46:42Z</time>
      </trkpt>
      <trkpt lat="36.4573320" lon="-5.2940620">
        <ele>342.7</ele>
        <time>2019-08-28T08:46:43Z</time>
      </trkpt>
      <trkpt lat="36.4573610" lon="-5.2940840">
        <ele>342.9</ele>
        <time>2019-08-28T08:46:44Z</time>
      </trkpt>
      <trkpt lat="36.4573900" lon="-5.2941060">
        <ele>343.0</ele>
        <time>2019-08-28T08:46:45Z</time>
      </trkpt>
      <trkpt lat="36.4574190" lon="-5.2941290">
        <ele>343.1</ele>
        <time>2019-08-28T08:46:46Z</time>
      </trkpt>
      <trkpt lat="36.4574470" lon="-5.2941520">
        <ele>343.2</ele>
        <time>2019-08-28T08:46:47Z</time>
      </trkpt>
      <trkpt lat="36.4574770" lon="-5.2941750">
        <ele>343.4</ele>
        <time>2019-08-28T08:46:48Z</time>
      </trkpt>
      <trkpt lat="36.4575060" lon="-5.2941980">
        <ele>343.5</ele>
        <time>2019-08-28T08:46:49Z</time>
      </trkpt>
      <trkpt lat="36.4575360" lon="-5.2942200">
        <ele>343.6</ele>
        <time>2019-08-28T08:46:50Z</time>
      </trkpt>
      <trkpt lat="36.4575670" lon="-5.2942430">
        <ele>343.7</ele>
        <time>2019-08-28T08:46:51Z</time>
      </trkpt>
      <trkpt lat="36.4575980" lon="-5.2942650">
        <ele>343.8</ele>
        <time>2019-08-28T08:46:52Z</time>
      </trkpt>
      <trkpt lat="36.4576290" lon="-5.2942870">
        <ele>344.0</ele>
        <time>2019-08-28T08:46:53Z</time>
      </trkpt>
      <trkpt lat="36.4576600" lon="-5.2943090">
        <ele>344.1</ele>
        <time>2019-08-28T08:46:54Z</time>
      </trkpt>
      <trkpt lat="36.4576910" lon="-5.2943310">
        <ele>344.2</ele>
        <time>2019-08-28T08:46:55Z</time>
      </trkpt>
      <trkpt lat="36.4577220" lon="-5.2943510">
        <ele>344.3</ele>
        <time>2019-08-28T08:46:56Z</time>
      </trkpt>
      <trkpt lat="36.4577530" lon="-5.2943710">
        <ele>344.4</ele>
        <time>2019-08-28T08:46:57Z</time>
      </trkpt>
      <trkpt lat="36.4577860" lon="-5.2943890">
        <ele>344.6</ele>
        <time>2019-08-28T08:46:58Z</time>
      </trkpt>
      <trkpt lat="36.4578200" lon="-5.2944070">
        <ele>344.7</ele>
        <time>2019-08-28T08:46:59Z</time>
      </trkpt>
      <trkpt lat="36.4578560" lon="-5.2944250">
        <ele>344.8</ele>
        <time>2019-08-28T08:47:00Z</time>
      </trkpt>
      <trkpt lat="36.4578920" lon="-5.2944430">
        <ele>344.9</ele>
        <time>2019-08-28T08:47:01Z</time>
      </trkpt>
      <trkpt lat="36.4579290" lon="-5.2944620">
        <ele>345.0</ele>
        <time>2019-08-28T08:47:02Z</time>
      </trkpt>
      <trkpt lat="36.4579670" lon="-5.2944810">
        <ele>345.1</ele>
        <time>2019-08-28T08:47:03Z</time>
      </trkpt>
      <trkpt lat="36.4580060" lon="-5.2945000">
        <ele>345.2</ele>
        <time>2019-08-28T08:47:04Z</time>
      </trkpt>
      <trkpt lat="36.4580450" lon="-5.2945200">
        <ele>345.3</ele>
        <time>2019-08-28T08:47:05Z</time>
      </trkpt>
      <trkpt lat="36.4580850" lon="-5.2945400">
        <ele>345.4</ele>
        <time>2019-08-28T08:47:06Z</time>
      </trkpt>
      <trkpt lat="36.4581270" lon="-5.2945610">
        <ele>345.5</ele>
        <time>2019-08-28T08:47:07Z</time>
      </trkpt>
      <trkpt lat="36.4581700" lon="-5.2945820">
        <ele>345.5</ele>
        <time>2019-08-28T08:47:08Z</time>
      </trkpt>
      <trkpt lat="36.4582140" lon="-5.2946030">
        <ele>345.6</ele>
        <time>2019-08-28T08:47:09Z</time>
      </trkpt>
      <trkpt lat="36.4582600" lon="-5.2946250">
        <ele>345.7</ele>
        <time>2019-08-28T08:47:10Z</time>
      </trkpt>
      <trkpt lat="36.4583060" lon="-5.2946490">
        <ele>345.7</ele>
        <time>2019-08-28T08:47:11Z</time>
      </trkpt>
      <trkpt lat="36.4583530" lon="-5.2946730">
        <ele>345.7</ele>
        <time>2019-08-28T08:47:12Z</time>
      </trkpt>
      <trkpt lat="36.4584000" lon="-5.2946970">
        <ele>345.7</ele>
        <time>2019-08-28T08:47:13Z</time>
      </trkpt>
      <trkpt lat="36.4584490" lon="-5.2947210">
        <ele>345.7</ele>
        <time>2019-08-28T08:47:14Z</time>
      </trkpt>
      <trkpt lat="36.4584990" lon="-5.2947440">
        <ele>345.7</ele>
        <time>2019-08-28T08:47:15Z</time>
      </trkpt>
      <trkpt lat="36.4585490" lon="-5.2947680">
        <ele>345.7</ele>
        <time>2019-08-28T08:47:16Z</time>
      </trkpt>
      <trkpt lat="36.4586000" lon="-5.2947930">
        <ele>345.8</ele>
        <time>2019-08-28T08:47:17Z</time>
      </trkpt>
      <trkpt lat="36.4586520" lon="-5.2948180">
        <ele>345.8</ele>
        <time>2019-08-28T08:47:18Z</time>
      </trkpt>
      <trkpt lat="36.4587050" lon="-5.2948430">
        <ele>345.8</ele>
        <time>2019-08-28T08:47:19Z</time>
      </trkpt>
      <trkpt lat="36.4587580" lon="-5.2948680">
        <ele>345.8</ele>
        <time>2019-08-28T08:47:20Z</time>
      </trkpt>
      <trkpt lat="36.4588130" lon="-5.2948940">
        <ele>345.8</ele>
        <time>2019-08-28T08:47:21Z</time>
      </trkpt>
      <trkpt lat="36.4588690" lon="-5.2949200">
        <ele>345.8</ele>
        <time>2019-08-28T08:47:22Z</time>
      </trkpt>
      <trkpt lat="36.4589260" lon="-5.2949450">
        <ele>345.8</ele>
        <time>2019-08-28T08:47:23Z</time>
      </trkpt>
      <trkpt lat="36.4589870" lon="-5.2949680">
        <ele>345.8</ele>
        <time>2019-08-28T08:47:24Z</time>
      </trkpt>
      <trkpt lat="36.4590510" lon="-5.2949860">
        <ele>345.8</ele>
        <time>2019-08-28T08:47:25Z</time>
      </trkpt>
      <trkpt lat="36.4591170" lon="-5.2950000">
        <ele>345.8</ele>
        <time>2019-08-28T08:47:26Z</time>
      </trkpt>
      <trkpt lat="36.4591860" lon="-5.2950090">
        <ele>345.8</ele>
        <time>2019-08-28T08:47:27Z</time>
      </trkpt>
      <trkpt lat="36.4592600" lon="-5.2950140">
        <ele>345.8</ele>
        <time>2019-08-28T08:47:28Z</time>
      </trkpt>
      <trkpt lat="36.4593360" lon="-5.2950160">
        <ele>345.8</ele>
        <time>2019-08-28T08:47:29Z</time>
      </trkpt>
      <trkpt lat="36.4594150" lon="-5.2950140">
        <ele>345.7</ele>
        <time>2019-08-28T08:47:30Z</time>
      </trkpt>
      <trkpt lat="36.4594950" lon="-5.2950110">
        <ele>345.7</ele>
        <time>2019-08-28T08:47:31Z</time>
      </trkpt>
      <trkpt lat="36.4595770" lon="-5.2950070">
        <ele>345.6</ele>
        <time>2019-08-28T08:47:32Z</time>
      </trkpt>
      <trkpt lat="36.4596590" lon="-5.2950010">
        <ele>345.4</ele>
        <time>2019-08-28T08:47:33Z</time>
      </trkpt>
      <trkpt lat="36.4597410" lon="-5.2949940">
        <ele>345.1</ele>
        <time>2019-08-28T08:47:34Z</time>
      </trkpt>
      <trkpt lat="36.4598240" lon="-5.2949870">
        <ele>344.7</ele>
        <time>2019-08-28T08:47:35Z</time>
      </trkpt>
      <trkpt lat="36.4599070" lon="-5.2949790">
        <ele>344.2</ele>
        <time>2019-08-28T08:47:36Z</time>
      </trkpt>
      <trkpt lat="36.4599890" lon="-5.2949710">
        <ele>343.7</ele>
        <time>2019-08-28T08:47:37Z</time>
      </trkpt>
      <trkpt lat="36.4600720" lon="-5.2949630">
        <ele>343.2</ele>
        <time>2019-08-28T08:47:38Z</time>
      </trkpt>
      <trkpt lat="36.4601550" lon="-5.2949550">
        <ele>342.6</ele>
        <time>2019-08-28T08:47:39Z</time>
      </trkpt>
      <trkpt lat="36.4602390" lon="-5.2949470">
        <ele>342.1</ele>
        <time>2019-08-28T08:47:40Z</time>
      </trkpt>
      <trkpt lat="36.4603230" lon="-5.2949390">
        <ele>341.6</ele>
        <time>2019-08-28T08:47:41Z</time>
      </trkpt>
      <trkpt lat="36.4604070" lon="-5.2949320">
        <ele>341.2</ele>
        <time>2019-08-28T08:47:42Z</time>
      </trkpt>
      <trkpt lat="36.4604910" lon="-5.2949250">
        <ele>340.8</ele>
        <time>2019-08-28T08:47:43Z</time>
      </trkpt>
      <trkpt lat="36.4605750" lon="-5.2949190">
        <ele>340.5</ele>
        <time>2019-08-28T08:47:44Z</time>
      </trkpt>
      <trkpt lat="36.4606600" lon="-5.2949130">
        <ele>340.1</ele>
        <time>2019-08-28T08:47:45Z</time>
      </trkpt>
      <trkpt lat="36.4607450" lon="-5.2949050">
        <ele>339.8</ele>
        <time>2019-08-28T08:47:46Z</time>
      </trkpt>
      <trkpt lat="36.4608300" lon="-5.2948980">
        <ele>339.6</ele>
        <time>2019-08-28T08:47:47Z</time>
      </trkpt>
      <trkpt lat="36.4609150" lon="-5.2948900">
        <ele>339.4</ele>
        <time>2019-08-28T08:47:48Z</time>
      </trkpt>
      <trkpt lat="36.4609990" lon="-5.2948840">
        <ele>339.2</ele>
        <time>2019-08-28T08:47:49Z</time>
      </trkpt>
      <trkpt lat="36.4610810" lon="-5.2948770">
        <ele>339.0</ele>
        <time>2019-08-28T08:47:50Z</time>
      </trkpt>
      <trkpt lat="36.4611610" lon="-5.2948710">
        <ele>338.9</ele>
        <time>2019-08-28T08:47:51Z</time>
      </trkpt>
      <trkpt lat="36.4612380" lon="-5.2948660">
        <ele>338.8</ele>
        <time>2019-08-28T08:47:52Z</time>
      </trkpt>
      <trkpt lat="36.4613130" lon="-5.2948630">
        <ele>338.8</ele>
        <time>2019-08-28T08:47:53Z</time>
      </trkpt>
      <trkpt lat="36.4613850" lon="-5.2948590">
        <ele>338.8</ele>
        <time>2019-08-28T08:47:54Z</time>
      </trkpt>
      <trkpt lat="36.4614540" lon="-5.2948530">
        <ele>338.7</ele>
        <time>2019-08-28T08:47:55Z</time>
      </trkpt>
      <trkpt lat="36.4615200" lon="-5.2948480">
        <ele>338.7</ele>
        <time>2019-08-28T08:47:56Z</time>
      </trkpt>
      <trkpt lat="36.4615830" lon="-5.2948420">
        <ele>338.7</ele>
        <time>2019-08-28T08:47:57Z</time>
      </trkpt>
      <trkpt lat="36.4616420" lon="-5.2948370">
        <ele>338.7</ele>
        <time>2019-08-28T08:47:58Z</time>
      </trkpt>
      <trkpt lat="36.4616980" lon="-5.2948310">
        <ele>338.8</ele>
        <time>2019-08-28T08:47:59Z</time>
      </trkpt>
      <trkpt lat="36.4617530" lon="-5.2948240">
        <ele>338.8</ele>
        <time>2019-08-28T08:48:00Z</time>
      </trkpt>
      <trkpt lat="36.4618060" lon="-5.2948170">
        <ele>338.9</ele>
        <time>2019-08-28T08:48:01Z</time>
      </trkpt>
      <trkpt lat="36.4618580" lon="-5.2948100">
        <ele>339.0</ele>
        <time>2019-08-28T08:48:02Z</time>
      </trkpt>
      <trkpt lat="36.4619090" lon="-5.2948040">
        <ele>339.1</ele>
        <time>2019-08-28T08:48:03Z</time>
      </trkpt>
      <trkpt lat="36.4619590" lon="-5.2947980">
        <ele>339.4</ele>
        <time>2019-08-28T08:48:04Z</time>
      </trkpt>
      <trkpt lat="36.4620070" lon="-5.2947930">
        <ele>339.6</ele>
        <time>2019-08-28T08:48:05Z</time>
      </trkpt>
      <trkpt lat="36.4620540" lon="-5.2947890">
        <ele>340.0</ele>
        <time>2019-08-28T08:48:06Z</time>
      </trkpt>
      <trkpt lat="36.4621010" lon="-5.2947860">
        <ele>340.3</ele>
        <time>2019-08-28T08:48:07Z</time>
      </trkpt>
      <trkpt lat="36.4621470" lon="-5.2947830">
        <ele>340.7</ele>
        <time>2019-08-28T08:48:08Z</time>
      </trkpt>
      <trkpt lat="36.4621910" lon="-5.2947800">
        <ele>341.1</ele>
        <time>2019-08-28T08:48:09Z</time>
      </trkpt>
      <trkpt lat="36.4622340" lon="-5.2947760">
        <ele>341.5</ele>
        <time>2019-08-28T08:48:10Z</time>
      </trkpt>
      <trkpt lat="36.4622760" lon="-5.2947730">
        <ele>341.8</ele>
        <time>2019-08-28T08:48:11Z</time>
      </trkpt>
      <trkpt lat="36.4623160" lon="-5.2947690">
        <ele>342.1</ele>
        <time>2019-08-28T08:48:12Z</time>
      </trkpt>
      <trkpt lat="36.4623540" lon="-5.2947650">
        <ele>342.4</ele>
        <time>2019-08-28T08:48:13Z</time>
      </trkpt>
      <trkpt lat="36.4623920" lon="-5.2947610">
        <ele>342.7</ele>
        <time>2019-08-28T08:48:14Z</time>
      </trkpt>
      <trkpt lat="36.4624300" lon="-5.2947570">
        <ele>342.9</ele>
        <time>2019-08-28T08:48:15Z</time>
      </trkpt>
      <trkpt lat="36.4624670" lon="-5.2947540">
        <ele>343.2</ele>
        <time>2019-08-28T08:48:16Z</time>
      </trkpt>
      <trkpt lat="36.4625040" lon="-5.2947500">
        <ele>343.4</ele>
        <time>2019-08-28T08:48:17Z</time>
      </trkpt>
      <trkpt lat="36.4625400" lon="-5.2947480">
        <ele>343.6</ele>
        <time>2019-08-28T08:48:18Z</time>
      </trkpt>
      <trkpt lat="36.4625760" lon="-5.2947450">
        <ele>343.8</ele>
        <time>2019-08-28T08:48:19Z</time>
      </trkpt>
      <trkpt lat="36.4626110" lon="-5.2947420">
        <ele>344.0</ele>
        <time>2019-08-28T08:48:20Z</time>
      </trkpt>
      <trkpt lat="36.4626460" lon="-5.2947400">
        <ele>344.2</ele>
        <time>2019-08-28T08:48:21Z</time>
      </trkpt>
      <trkpt lat="36.4626800" lon="-5.2947380">
        <ele>344.4</ele>
        <time>2019-08-28T08:48:22Z</time>
      </trkpt>
      <trkpt lat="36.4627140" lon="-5.2947370">
        <ele>344.6</ele>
        <time>2019-08-28T08:48:23Z</time>
      </trkpt>
      <trkpt lat="36.4627470" lon="-5.2947340">
        <ele>344.8</ele>
        <time>2019-08-28T08:48:24Z</time>
      </trkpt>
      <trkpt lat="36.4627810" lon="-5.2947310">
        <ele>345.1</ele>
        <time>2019-08-28T08:48:25Z</time>
      </trkpt>
      <trkpt lat="36.4628150" lon="-5.2947270">
        <ele>345.3</ele>
        <time>2019-08-28T08:48:26Z</time>
      </trkpt>
      <trkpt lat="36.4628480" lon="-5.2947240">
        <ele>345.6</ele>
        <time>2019-08-28T08:48:27Z</time>
      </trkpt>
      <trkpt lat="36.4628810" lon="-5.2947220">
        <ele>345.8</ele>
        <time>2019-08-28T08:48:28Z</time>
      </trkpt>
      <trkpt lat="36.4629140" lon="-5.2947200">
        <ele>346.1</ele>
        <time>2019-08-28T08:48:29Z</time>
      </trkpt>
      <trkpt lat="36.4629470" lon="-5.2947180">
        <ele>346.4</ele>
        <time>2019-08-28T08:48:30Z</time>
      </trkpt>
      <trkpt lat="36.4629810" lon="-5.2947160">
        <ele>346.7</ele>
        <time>2019-08-28T08:48:31Z</time>
      </trkpt>
      <trkpt lat="36.4630140" lon="-5.2947140">
        <ele>346.9</ele>
        <time>2019-08-28T08:48:32Z</time>
      </trkpt>
      <trkpt lat="36.4630470" lon="-5.2947110">
        <ele>347.2</ele>
        <time>2019-08-28T08:48:33Z</time>
      </trkpt>
      <trkpt lat="36.4630800" lon="-5.2947070">
        <ele>347.5</ele>
        <time>2019-08-28T08:48:34Z</time>
      </trkpt>
      <trkpt lat="36.4631130" lon="-5.2947040">
        <ele>347.7</ele>
        <time>2019-08-28T08:48:35Z</time>
      </trkpt>
      <trkpt lat="36.4631460" lon="-5.2947020">
        <ele>348.0</ele>
        <time>2019-08-28T08:48:36Z</time>
      </trkpt>
      <trkpt lat="36.4631790" lon="-5.2947000">
        <ele>348.2</ele>
        <time>2019-08-28T08:48:37Z</time>
      </trkpt>
      <trkpt lat="36.4632110" lon="-5.2946970">
        <ele>348.5</ele>
        <time>2019-08-28T08:48:38Z</time>
      </trkpt>
      <trkpt lat="36.4632440" lon="-5.2946930">
        <ele>348.7</ele>
        <time>2019-08-28T08:48:39Z</time>
      </trkpt>
      <trkpt lat="36.4632760" lon="-5.2946900">
        <ele>349.0</ele>
        <time>2019-08-28T08:48:40Z</time>
      </trkpt>
      <trkpt lat="36.4633090" lon="-5.2946860">
        <ele>349.3</ele>
        <time>2019-08-28T08:48:41Z</time>
      </trkpt>
      <trkpt lat="36.4633420" lon="-5.2946820">
        <ele>349.5</ele>
        <time>2019-08-28T08:48:42Z</time>
      </trkpt>
      <trkpt lat="36.4633750" lon="-5.2946790">
        <ele>349.8</ele>
        <time>2019-08-28T08:48:43Z</time>
      </trkpt>
      <trkpt lat="36.4634080" lon="-5.2946770">
        <ele>350.1</ele>
        <time>2019-08-28T08:48:44Z</time>
      </trkpt>
      <trkpt lat="36.4634400" lon="-5.2946740">
        <ele>350.3</ele>
        <time>2019-08-28T08:48:45Z</time>
      </trkpt>
      <trkpt lat="36.4634730" lon="-5.2946710">
        <ele>350.6</ele>
        <time>2019-08-28T08:48:46Z</time>
      </trkpt>
      <trkpt lat="36.4635050" lon="-5.2946670">
        <ele>350.8</ele>
        <time>2019-08-28T08:48:47Z</time>
      </trkpt>
      <trkpt lat="36.4635370" lon="-5.2946630">
        <ele>351.1</ele>
        <time>2019-08-28T08:48:48Z</time>
      </trkpt>
      <trkpt lat="36.4635690" lon="-5.2946590">
        <ele>351.3</ele>
        <time>2019-08-28T08:48:49Z</time>
      </trkpt>
      <trkpt lat="36.4636010" lon="-5.2946550">
        <ele>351.6</ele>
        <time>2019-08-28T08:48:50Z</time>
      </trkpt>
      <trkpt lat="36.4636340" lon="-5.2946510">
        <ele>351.9</ele>
        <time>2019-08-28T08:48:51Z</time>
      </trkpt>
      <trkpt lat="36.4636660" lon="-5.2946480">
        <ele>352.1</ele>
        <time>2019-08-28T08:48:52Z</time>
      </trkpt>
      <trkpt lat="36.4636980" lon="-5.2946450">
        <ele>352.3</ele>
        <time>2019-08-28T08:48:53Z</time>
      </trkpt>
      <trkpt lat="36.4637300" lon="-5.2946410">
        <ele>352.6</ele>
        <time>2019-08-28T08:48:54Z</time>
      </trkpt>
      <trkpt lat="36.4637610" lon="-5.2946360">
        <ele>352.8</ele>
        <time>2019-08-28T08:48:55Z</time>
      </trkpt>
      <trkpt lat="36.4637910" lon="-5.2946320">
        <ele>353.0</ele>
        <time>2019-08-28T08:48:56Z</time>
      </trkpt>
      <trkpt lat="36.4638200" lon="-5.2946290">
        <ele>353.2</ele>
        <time>2019-08-28T08:48:57Z</time>
      </trkpt>
      <trkpt lat="36.4638490" lon="-5.2946260">
        <ele>353.4</ele>
        <time>2019-08-28T08:48:58Z</time>
      </trkpt>
      <trkpt lat="36.4638790" lon="-5.2946240">
        <ele>353.6</ele>
        <time>2019-08-28T08:48:59Z</time>
      </trkpt>
      <trkpt lat="36.4639070" lon="-5.2946200">
        <ele>353.8</ele>
        <time>2019-08-28T08:49:00Z</time>
      </trkpt>
      <trkpt lat="36.4639360" lon="-5.2946170">
        <ele>354.0</ele>
        <time>2019-08-28T08:49:01Z</time>
      </trkpt>
      <trkpt lat="36.4639660" lon="-5.2946140">
        <ele>354.2</ele>
        <time>2019-08-28T08:49:02Z</time>
      </trkpt>
      <trkpt lat="36.4639950" lon="-5.2946100">
        <ele>354.4</ele>
        <time>2019-08-28T08:49:03Z</time>
      </trkpt>
      <trkpt lat="36.4640250" lon="-5.2946050">
        <ele>354.6</ele>
        <time>2019-08-28T08:49:04Z</time>
      </trkpt>
      <trkpt lat="36.4640540" lon="-5.2946000">
        <ele>354.8</ele>
        <time>2019-08-28T08:49:05Z</time>
      </trkpt>
      <trkpt lat="36.4640840" lon="-5.2945960">
        <ele>355.0</ele>
        <time>2019-08-28T08:49:06Z</time>
      </trkpt>
      <trkpt lat="36.4641140" lon="-5.2945910">
        <ele>355.2</ele>
        <time>2019-08-28T08:49:07Z</time>
      </trkpt>
      <trkpt lat="36.4641440" lon="-5.2945870">
        <ele>355.4</ele>
        <time>2019-08-28T08:49:08Z</time>
      </trkpt>
      <trkpt lat="36.4641740" lon="-5.2945840">
        <ele>355.7</ele>
        <time>2019-08-28T08:49:09Z</time>
      </trkpt>
      <trkpt lat="36.4642040" lon="-5.2945800">
        <ele>356.0</ele>
        <time>2019-08-28T08:49:10Z</time>
      </trkpt>
      <trkpt lat="36.4642340" lon="-5.2945750">
        <ele>356.3</ele>
        <time>2019-08-28T08:49:11Z</time>
      </trkpt>
      <trkpt lat="36.4642640" lon="-5.2945710">
        <ele>356.5</ele>
        <time>2019-08-28T08:49:12Z</time>
      </trkpt>
      <trkpt lat="36.4642940" lon="-5.2945670">
        <ele>356.8</ele>
        <time>2019-08-28T08:49:13Z</time>
      </trkpt>
      <trkpt lat="36.4643230" lon="-5.2945630">
        <ele>357.1</ele>
        <time>2019-08-28T08:49:14Z</time>
      </trkpt>
      <trkpt lat="36.4643530" lon="-5.2945600">
        <ele>357.5</ele>
        <time>2019-08-28T08:49:15Z</time>
      </trkpt>
      <trkpt lat="36.4643830" lon="-5.2945560">
        <ele>357.8</ele>
        <time>2019-08-28T08:49:16Z</time>
      </trkpt>
      <trkpt lat="36.4644120" lon="-5.2945510">
        <ele>358.1</ele>
        <time>2019-08-28T08:49:17Z</time>
      </trkpt>
      <trkpt lat="36.4644420" lon="-5.2945460">
        <ele>358.5</ele>
        <time>2019-08-28T08:49:18Z</time>
      </trkpt>
      <trkpt lat="36.4644710" lon="-5.2945420">
        <ele>358.8</ele>
        <time>2019-08-28T08:49:19Z</time>
      </trkpt>
      <trkpt lat="36.4645010" lon="-5.2945390">
        <ele>359.1</ele>
        <time>2019-08-28T08:49:20Z</time>
      </trkpt>
      <trkpt lat="36.4645310" lon="-5.2945350">
        <ele>359.4</ele>
        <time>2019-08-28T08:49:21Z</time>
      </trkpt>
      <trkpt lat="36.4645610" lon="-5.2945320">
        <ele>359.7</ele>
        <time>2019-08-28T08:49:22Z</time>
      </trkpt>
      <trkpt lat="36.4645920" lon="-5.2945280">
        <ele>360.1</ele>
        <time>2019-08-28T08:49:23Z</time>
      </trkpt>
      <trkpt lat="36.4646220" lon="-5.2945240">
        <ele>360.4</ele>
        <time>2019-08-28T08:49:24Z</time>
      </trkpt>
      <trkpt lat="36.4646530" lon="-5.2945190">
        <ele>360.6</ele>
        <time>2019-08-28T08:49:25Z</time>
      </trkpt>
      <trkpt lat="36.4646830" lon="-5.2945140">
        <ele>360.9</ele>
        <time>2019-08-28T08:49:26Z</time>
      </trkpt>
      <trkpt lat="36.4647150" lon="-5.2945100">
        <ele>361.2</ele>
        <time>2019-08-28T08:49:27Z</time>
      </trkpt>
      <trkpt lat="36.4647460" lon="-5.2945060">
        <ele>361.4</ele>
        <time>2019-08-28T08:49:28Z</time>
      </trkpt>
      <trkpt lat="36.4647770" lon="-5.2945010">
        <ele>361.7</ele>
        <time>2019-08-28T08:49:29Z</time>
      </trkpt>
      <trkpt lat="36.4648080" lon="-5.2944980">
        <ele>361.8</ele>
        <time>2019-08-28T08:49:30Z</time>
      </trkpt>
      <trkpt lat="36.4648390" lon="-5.2944940">
        <ele>362.0</ele>
        <time>2019-08-28T08:49:31Z</time>
      </trkpt>
      <trkpt lat="36.4648700" lon="-5.2944900">
        <ele>362.2</ele>
        <time>2019-08-28T08:49:32Z</time>
      </trkpt>
      <trkpt lat="36.4649010" lon="-5.2944840">
        <ele>362.4</ele>
        <time>2019-08-28T08:49:33Z</time>
      </trkpt>
      <trkpt lat="36.4649310" lon="-5.2944790">
        <ele>362.5</ele>
        <time>2019-08-28T08:49:34Z</time>
      </trkpt>
      <trkpt lat="36.4649620" lon="-5.2944730">
        <ele>362.6</ele>
        <time>2019-08-28T08:49:35Z</time>
      </trkpt>
      <trkpt lat="36.4649930" lon="-5.2944680">
        <ele>362.8</ele>
        <time>2019-08-28T08:49:36Z</time>
      </trkpt>
      <trkpt lat="36.4650240" lon="-5.2944620">
        <ele>362.9</ele>
        <time>2019-08-28T08:49:37Z</time>
      </trkpt>
      <trkpt lat="36.4650550" lon="-5.2944570">
        <ele>363.0</ele>
        <time>2019-08-28T08:49:38Z</time>
      </trkpt>
      <trkpt lat="36.4650850" lon="-5.2944530">
        <ele>363.1</ele>
        <time>2019-08-28T08:49:39Z</time>
      </trkpt>
      <trkpt lat="36.4651160" lon="-5.2944490">
        <ele>363.3</ele>
        <time>2019-08-28T08:49:40Z</time>
      </trkpt>
      <trkpt lat="36.4651470" lon="-5.2944460">
        <ele>363.4</ele>
        <time>2019-08-28T08:49:41Z</time>
      </trkpt>
      <trkpt lat="36.4651770" lon="-5.2944410">
        <ele>363.5</ele>
        <time>2019-08-28T08:49:42Z</time>
      </trkpt>
      <trkpt lat="36.4652080" lon="-5.2944360">
        <ele>363.6</ele>
        <time>2019-08-28T08:49:43Z</time>
      </trkpt>
      <trkpt lat="36.4652390" lon="-5.2944310">
        <ele>363.7</ele>
        <time>2019-08-28T08:49:44Z</time>
      </trkpt>
      <trkpt lat="36.4652700" lon="-5.2944260">
        <ele>363.8</ele>
        <time>2019-08-28T08:49:45Z</time>
      </trkpt>
      <trkpt lat="36.4653000" lon="-5.2944210">
        <ele>363.9</ele>
        <time>2019-08-28T08:49:46Z</time>
      </trkpt>
      <trkpt lat="36.4653310" lon="-5.2944160">
        <ele>364.0</ele>
        <time>2019-08-28T08:49:47Z</time>
      </trkpt>
      <trkpt lat="36.4653620" lon="-5.2944110">
        <ele>364.2</ele>
        <time>2019-08-28T08:49:48Z</time>
      </trkpt>
      <trkpt lat="36.4653930" lon="-5.2944070">
        <ele>364.3</ele>
        <time>2019-08-28T08:49:49Z</time>
      </trkpt>
      <trkpt lat="36.4654240" lon="-5.2944030">
        <ele>364.4</ele>
        <time>2019-08-28T08:49:50Z</time>
      </trkpt>
      <trkpt lat="36.4654550" lon="-5.2943990">
        <ele>364.6</ele>
        <time>2019-08-28T08:49:51Z</time>
      </trkpt>
      <trkpt lat="36.4654870" lon="-5.2943950">
        <ele>364.7</ele>
        <time>2019-08-28T08:49:52Z</time>
      </trkpt>
      <trkpt lat="36.4655190" lon="-5.2943910">
        <ele>364.9</ele>
        <time>2019-08-28T08:49:53Z</time>
      </trkpt>
      <trkpt lat="36.4655500" lon="-5.2943870">
        <ele>365.1</ele>
        <time>2019-08-28T08:49:54Z</time>
      </trkpt>
      <trkpt lat="36.4655810" lon="-5.2943830">
        <ele>365.2</ele>
        <time>2019-08-28T08:49:55Z</time>
      </trkpt>
      <trkpt lat="36.4656130" lon="-5.2943780">
        <ele>365.4</ele>
        <time>2019-08-28T08:49:56Z</time>
      </trkpt>
      <trkpt lat="36.4656440" lon="-5.2943720">
        <ele>365.6</ele>
        <time>2019-08-28T08:49:57Z</time>
      </trkpt>
      <trkpt lat="36.4656750" lon="-5.2943650">
        <ele>365.9</ele>
        <time>2019-08-28T08:49:58Z</time>
      </trkpt>
      <trkpt lat="36.4657060" lon="-5.2943590">
        <ele>366.1</ele>
        <time>2019-08-28T08:49:59Z</time>
      </trkpt>
      <trkpt lat="36.4657360" lon="-5.2943530">
        <ele>366.3</ele>
        <time>2019-08-28T08:50:00Z</time>
      </trkpt>
      <trkpt lat="36.4657670" lon="-5.2943470">
        <ele>366.5</ele>
        <time>2019-08-28T08:50:01Z</time>
      </trkpt>
      <trkpt lat="36.4657980" lon="-5.2943420">
        <ele>366.7</ele>
        <time>2019-08-28T08:50:02Z</time>
      </trkpt>
      <trkpt lat="36.4658290" lon="-5.2943370">
        <ele>367.0</ele>
        <time>2019-08-28T08:50:03Z</time>
      </trkpt>
      <trkpt lat="36.4658600" lon="-5.2943320">
        <ele>367.2</ele>
        <time>2019-08-28T08:50:04Z</time>
      </trkpt>
      <trkpt lat="36.4658910" lon="-5.2943280">
        <ele>367.4</ele>
        <time>2019-08-28T08:50:05Z</time>
      </trkpt>
      <trkpt lat="36.4659220" lon="-5.2943240">
        <ele>367.6</ele>
        <time>2019-08-28T08:50:06Z</time>
      </trkpt>
      <trkpt lat="36.4659540" lon="-5.2943190">
        <ele>367.9</ele>
        <time>2019-08-28T08:50:07Z</time>
      </trkpt>
      <trkpt lat="36.4659850" lon="-5.2943130">
        <ele>368.2</ele>
        <time>2019-08-28T08:50:08Z</time>
      </trkpt>
      <trkpt lat="36.4660160" lon="-5.2943080">
        <ele>368.4</ele>
        <time>2019-08-28T08:50:09Z</time>
      </trkpt>
      <trkpt lat="36.4660470" lon="-5.2943030">
        <ele>368.7</ele>
        <time>2019-08-28T08:50:10Z</time>
      </trkpt>
      <trkpt lat="36.4660790" lon="-5.2942980">
        <ele>369.1</ele>
        <time>2019-08-28T08:50:11Z</time>
      </trkpt>
      <trkpt lat="36.4661100" lon="-5.2942920">
        <ele>369.4</ele>
        <time>2019-08-28T08:50:12Z</time>
      </trkpt>
      <trkpt lat="36.4661410" lon="-5.2942870">
        <ele>369.7</ele>
        <time>2019-08-28T08:50:13Z</time>
      </trkpt>
      <trkpt lat="36.4661720" lon="-5.2942810">
        <ele>370.0</ele>
        <time>2019-08-28T08:50:14Z</time>
      </trkpt>
      <trkpt lat="36.4662030" lon="-5.2942740">
        <ele>370.3</ele>
        <time>2019-08-28T08:50:15Z</time>
      </trkpt>
      <trkpt lat="36.4662340" lon="-5.2942690">
        <ele>370.6</ele>
        <time>2019-08-28T08:50:16Z</time>
      </trkpt>
      <trkpt lat="36.4662640" lon="-5.2942630">
        <ele>370.9</ele>
        <time>2019-08-28T08:50:17Z</time>
      </trkpt>
      <trkpt lat="36.4662940" lon="-5.2942590">
        <ele>371.1</ele>
        <time>2019-08-28T08:50:18Z</time>
      </trkpt>
      <trkpt lat="36.4663240" lon="-5.2942560">
        <ele>371.4</ele>
        <time>2019-08-28T08:50:19Z</time>
      </trkpt>
      <trkpt lat="36.4663550" lon="-5.2942530">
        <ele>371.6</ele>
        <time>2019-08-28T08:50:20Z</time>
      </trkpt>
      <trkpt lat="36.4663860" lon="-5.2942510">
        <ele>371.8</ele>
        <time>2019-08-28T08:50:21Z</time>
      </trkpt>
      <trkpt lat="36.4664160" lon="-5.2942470">
        <ele>372.0</ele>
        <time>2019-08-28T08:50:22Z</time>
      </trkpt>
      <trkpt lat="36.4664470" lon="-5.2942420">
        <ele>372.2</ele>
        <time>2019-08-28T08:50:23Z</time>
      </trkpt>
      <trkpt lat="36.4664790" lon="-5.2942370">
        <ele>372.4</ele>
        <time>2019-08-28T08:50:24Z</time>
      </trkpt>
      <trkpt lat="36.4665100" lon="-5.2942330">
        <ele>372.6</ele>
        <time>2019-08-28T08:50:25Z</time>
      </trkpt>
      <trkpt lat="36.4665420" lon="-5.2942280">
        <ele>372.7</ele>
        <time>2019-08-28T08:50:26Z</time>
      </trkpt>
      <trkpt lat="36.4665740" lon="-5.2942220">
        <ele>372.9</ele>
        <time>2019-08-28T08:50:27Z</time>
      </trkpt>
      <trkpt lat="36.4666050" lon="-5.2942150">
        <ele>373.1</ele>
        <time>2019-08-28T08:50:28Z</time>
      </trkpt>
      <trkpt lat="36.4666370" lon="-5.2942090">
        <ele>373.3</ele>
        <time>2019-08-28T08:50:29Z</time>
      </trkpt>
      <trkpt lat="36.4666690" lon="-5.2942040">
        <ele>373.5</ele>
        <time>2019-08-28T08:50:30Z</time>
      </trkpt>
      <trkpt lat="36.4667010" lon="-5.2942000">
        <ele>373.7</ele>
        <time>2019-08-28T08:50:31Z</time>
      </trkpt>
      <trkpt lat="36.4667330" lon="-5.2941950">
        <ele>373.8</ele>
        <time>2019-08-28T08:50:32Z</time>
      </trkpt>
      <trkpt lat="36.4667660" lon="-5.2941890">
        <ele>374.1</ele>
        <time>2019-08-28T08:50:33Z</time>
      </trkpt>
      <trkpt lat="36.4667980" lon="-5.2941840">
        <ele>374.3</ele>
        <time>2019-08-28T08:50:34Z</time>
      </trkpt>
      <trkpt lat="36.4668310" lon="-5.2941790">
        <ele>374.5</ele>
        <time>2019-08-28T08:50:35Z</time>
      </trkpt>
      <trkpt lat="36.4668640" lon="-5.2941740">
        <ele>374.7</ele>
        <time>2019-08-28T08:50:36Z</time>
      </trkpt>
      <trkpt lat="36.4668960" lon="-5.2941700">
        <ele>374.9</ele>
        <time>2019-08-28T08:50:37Z</time>
      </trkpt>
      <trkpt lat="36.4669290" lon="-5.2941660">
        <ele>375.1</ele>
        <time>2019-08-28T08:50:38Z</time>
      </trkpt>
      <trkpt lat="36.4669610" lon="-5.2941620">
        <ele>375.3</ele>
        <time>2019-08-28T08:50:39Z</time>
      </trkpt>
      <trkpt lat="36.4669940" lon="-5.2941570">
        <ele>375.5</ele>
        <time>2019-08-28T08:50:40Z</time>
      </trkpt>
      <trkpt lat="36.4670260" lon="-5.2941520">
        <ele>375.7</ele>
        <time>2019-08-28T08:50:41Z</time>
      </trkpt>
      <trkpt lat="36.4670580" lon="-5.2941470">
        <ele>375.9</ele>
        <time>2019-08-28T08:50:42Z</time>
      </trkpt>
      <trkpt lat="36.4670900" lon="-5.2941420">
        <ele>376.1</ele>
        <time>2019-08-28T08:50:43Z</time>
      </trkpt>
      <trkpt lat="36.4671220" lon="-5.2941370">
        <ele>376.3</ele>
        <time>2019-08-28T08:50:44Z</time>
      </trkpt>
      <trkpt lat="36.4671530" lon="-5.2941320">
        <ele>376.5</ele>
        <time>2019-08-28T08:50:45Z</time>
      </trkpt>
      <trkpt lat="36.4671850" lon="-5.2941280">
        <ele>376.6</ele>
        <time>2019-08-28T08:50:46Z</time>
      </trkpt>
      <trkpt lat="36.4672160" lon="-5.2941250">
        <ele>376.8</ele>
        <time>2019-08-28T08:50:47Z</time>
      </trkpt>
      <trkpt lat="36.4672470" lon="-5.2941210">
        <ele>377.0</ele>
        <time>2019-08-28T08:50:48Z</time>
      </trkpt>
      <trkpt lat="36.4672790" lon="-5.2941180">
        <ele>377.1</ele>
        <time>2019-08-28T08:50:49Z</time>
      </trkpt>
      <trkpt lat="36.4673110" lon="-5.2941150">
        <ele>377.3</ele>
        <time>2019-08-28T08:50:50Z</time>
      </trkpt>
      <trkpt lat="36.4673430" lon="-5.2941100">
        <ele>377.5</ele>
        <time>2019-08-28T08:50:51Z</time>
      </trkpt>
      <trkpt lat="36.4673750" lon="-5.2941060">
        <ele>377.6</ele>
        <time>2019-08-28T08:50:52Z</time>
      </trkpt>
      <trkpt lat="36.4674070" lon="-5.2941020">
        <ele>377.8</ele>
        <time>2019-08-28T08:50:53Z</time>
      </trkpt>
      <trkpt lat="36.4674400" lon="-5.2940980">
        <ele>377.9</ele>
        <time>2019-08-28T08:50:54Z</time>
      </trkpt>
      <trkpt lat="36.4674730" lon="-5.2940950">
        <ele>378.1</ele>
        <time>2019-08-28T08:50:55Z</time>
      </trkpt>
      <trkpt lat="36.4675050" lon="-5.2940910">
        <ele>378.3</ele>
        <time>2019-08-28T08:50:56Z</time>
      </trkpt>
      <trkpt lat="36.4675380" lon="-5.2940870">
        <ele>378.4</ele>
        <time>2019-08-28T08:50:57Z</time>
      </trkpt>
      <trkpt lat="36.4675710" lon="-5.2940830">
        <ele>378.6</ele>
        <time>2019-08-28T08:50:58Z</time>
      </trkpt>
      <trkpt lat="36.4676030" lon="-5.2940790">
        <ele>378.8</ele>
        <time>2019-08-28T08:50:59Z</time>
      </trkpt>
      <trkpt lat="36.4676360" lon="-5.2940750">
        <ele>379.1</ele>
        <time>2019-08-28T08:51:00Z</time>
      </trkpt>
      <trkpt lat="36.4676690" lon="-5.2940710">
        <ele>379.3</ele>
        <time>2019-08-28T08:51:01Z</time>
      </trkpt>
      <trkpt lat="36.4677020" lon="-5.2940680">
        <ele>379.6</ele>
        <time>2019-08-28T08:51:02Z</time>
      </trkpt>
      <trkpt lat="36.4677340" lon="-5.2940650">
        <ele>379.8</ele>
        <time>2019-08-28T08:51:03Z</time>
      </trkpt>
      <trkpt lat="36.4677660" lon="-5.2940600">
        <ele>380.1</ele>
        <time>2019-08-28T08:51:04Z</time>
      </trkpt>
      <trkpt lat="36.4677980" lon="-5.2940550">
        <ele>380.3</ele>
        <time>2019-08-28T08:51:05Z</time>
      </trkpt>
      <trkpt lat="36.4678290" lon="-5.2940490">
        <ele>380.5</ele>
        <time>2019-08-28T08:51:06Z</time>
      </trkpt>
      <trkpt lat="36.4678610" lon="-5.2940450">
        <ele>380.8</ele>
        <time>2019-08-28T08:51:07Z</time>
      </trkpt>
      <trkpt lat="36.4678930" lon="-5.2940400">
        <ele>381.0</ele>
        <time>2019-08-28T08:51:08Z</time>
      </trkpt>
      <trkpt lat="36.4679250" lon="-5.2940360">
        <ele>381.2</ele>
        <time>2019-08-28T08:51:09Z</time>
      </trkpt>
      <trkpt lat="36.4679570" lon="-5.2940310">
        <ele>381.4</ele>
        <time>2019-08-28T08:51:10Z</time>
      </trkpt>
      <trkpt lat="36.4679890" lon="-5.2940270">
        <ele>381.6</ele>
        <time>2019-08-28T08:51:11Z</time>
      </trkpt>
      <trkpt lat="36.4680210" lon="-5.2940220">
        <ele>381.7</ele>
        <time>2019-08-28T08:51:12Z</time>
      </trkpt>
      <trkpt lat="36.4680530" lon="-5.2940180">
        <ele>381.9</ele>
        <time>2019-08-28T08:51:13Z</time>
      </trkpt>
      <trkpt lat="36.4680850" lon="-5.2940130">
        <ele>382.1</ele>
        <time>2019-08-28T08:51:14Z</time>
      </trkpt>
      <trkpt lat="36.4681170" lon="-5.2940080">
        <ele>382.2</ele>
        <time>2019-08-28T08:51:15Z</time>
      </trkpt>
      <trkpt lat="36.4681490" lon="-5.2940030">
        <ele>382.4</ele>
        <time>2019-08-28T08:51:16Z</time>
      </trkpt>
      <trkpt lat="36.4681820" lon="-5.2939970">
        <ele>382.5</ele>
        <time>2019-08-28T08:51:17Z</time>
      </trkpt>
      <trkpt lat="36.4682150" lon="-5.2939920">
        <ele>382.7</ele>
        <time>2019-08-28T08:51:18Z</time>
      </trkpt>
      <trkpt lat="36.4682480" lon="-5.2939870">
        <ele>382.8</ele>
        <time>2019-08-28T08:51:19Z</time>
      </trkpt>
      <trkpt lat="36.4682820" lon="-5.2939820">
        <ele>383.0</ele>
        <time>2019-08-28T08:51:20Z</time>
      </trkpt>
      <trkpt lat="36.4683150" lon="-5.2939780">
        <ele>383.2</ele>
        <time>2019-08-28T08:51:21Z</time>
      </trkpt>
      <trkpt lat="36.4683470" lon="-5.2939730">
        <ele>383.3</ele>
        <time>2019-08-28T08:51:22Z</time>
      </trkpt>
      <trkpt lat="36.4683800" lon="-5.2939680">
        <ele>383.5</ele>
        <time>2019-08-28T08:51:23Z</time>
      </trkpt>
      <trkpt lat="36.4684110" lon="-5.2939630">
        <ele>383.7</ele>
        <time>2019-08-28T08:51:24Z</time>
      </trkpt>
      <trkpt lat="36.4684430" lon="-5.2939570">
        <ele>383.9</ele>
        <time>2019-08-28T08:51:25Z</time>
      </trkpt>
      <trkpt lat="36.4684740" lon="-5.2939520">
        <ele>384.1</ele>
        <time>2019-08-28T08:51:26Z</time>
      </trkpt>
      <trkpt lat="36.4685060" lon="-5.2939480">
        <ele>384.3</ele>
        <time>2019-08-28T08:51:27Z</time>
      </trkpt>
      <trkpt lat="36.4685390" lon="-5.2939430">
        <ele>384.5</ele>
        <time>2019-08-28T08:51:28Z</time>
      </trkpt>
      <trkpt lat="36.4685720" lon="-5.2939390">
        <ele>384.7</ele>
        <time>2019-08-28T08:51:29Z</time>
      </trkpt>
      <trkpt lat="36.4686040" lon="-5.2939340">
        <ele>384.9</ele>
        <time>2019-08-28T08:51:30Z</time>
      </trkpt>
      <trkpt lat="36.4686370" lon="-5.2939280">
        <ele>385.2</ele>
        <time>2019-08-28T08:51:31Z</time>
      </trkpt>
      <trkpt lat="36.4686690" lon="-5.2939210">
        <ele>385.4</ele>
        <time>2019-08-28T08:51:32Z</time>
      </trkpt>
      <trkpt lat="36.4687010" lon="-5.2939150">
        <ele>385.6</ele>
        <time>2019-08-28T08:51:33Z</time>
      </trkpt>
      <trkpt lat="36.4687340" lon="-5.2939100">
        <ele>385.7</ele>
        <time>2019-08-28T08:51:34Z</time>
      </trkpt>
      <trkpt lat="36.4687660" lon="-5.2939050">
        <ele>385.9</ele>
        <time>2019-08-28T08:51:35Z</time>
      </trkpt>
      <trkpt lat="36.4687980" lon="-5.2939010">
        <ele>386.0</ele>
        <time>2019-08-28T08:51:36Z</time>
      </trkpt>
      <trkpt lat="36.4688310" lon="-5.2938970">
        <ele>386.2</ele>
        <time>2019-08-28T08:51:37Z</time>
      </trkpt>
      <trkpt lat="36.4688630" lon="-5.2938930">
        <ele>386.3</ele>
        <time>2019-08-28T08:51:38Z</time>
      </trkpt>
      <trkpt lat="36.4688950" lon="-5.2938870">
        <ele>386.5</ele>
        <time>2019-08-28T08:51:39Z</time>
      </trkpt>
      <trkpt lat="36.4689280" lon="-5.2938810">
        <ele>386.6</ele>
        <time>2019-08-28T08:51:40Z</time>
      </trkpt>
      <trkpt lat="36.4689610" lon="-5.2938750">
        <ele>386.7</ele>
        <time>2019-08-28T08:51:41Z</time>
      </trkpt>
      <trkpt lat="36.4689950" lon="-5.2938700">
        <ele>386.9</ele>
        <time>2019-08-28T08:51:42Z</time>
      </trkpt>
      <trkpt lat="36.4690290" lon="-5.2938650">
        <ele>387.1</ele>
        <time>2019-08-28T08:51:43Z</time>
      </trkpt>
      <trkpt lat="36.4690630" lon="-5.2938610">
        <ele>387.3</ele>
        <time>2019-08-28T08:51:44Z</time>
      </trkpt>
      <trkpt lat="36.4690980" lon="-5.2938570">
        <ele>387.5</ele>
        <time>2019-08-28T08:51:45Z</time>
      </trkpt>
      <trkpt lat="36.4691320" lon="-5.2938540">
        <ele>387.7</ele>
        <time>2019-08-28T08:51:46Z</time>
      </trkpt>
      <trkpt lat="36.4691660" lon="-5.2938520">
        <ele>387.9</ele>
        <time>2019-08-28T08:51:47Z</time>
      </trkpt>
      <trkpt lat="36.4692010" lon="-5.2938510">
        <ele>388.1</ele>
        <time>2019-08-28T08:51:48Z</time>
      </trkpt>
      <trkpt lat="36.4692360" lon="-5.2938510">
        <ele>388.4</ele>
        <time>2019-08-28T08:51:49Z</time>
      </trkpt>
      <trkpt lat="36.4692720" lon="-5.2938520">
        <ele>388.6</ele>
        <time>2019-08-28T08:51:50Z</time>
      </trkpt>
      <trkpt lat="36.4693070" lon="-5.2938540">
        <ele>388.8</ele>
        <time>2019-08-28T08:51:51Z</time>
      </trkpt>
      <trkpt lat="36.4693420" lon="-5.2938570">
        <ele>389.1</ele>
        <time>2019-08-28T08:51:52Z</time>
      </trkpt>
      <trkpt lat="36.4693770" lon="-5.2938610">
        <ele>389.3</ele>
        <time>2019-08-28T08:51:53Z</time>
      </trkpt>
      <trkpt lat="36.4694120" lon="-5.2938650">
        <ele>389.4</ele>
        <time>2019-08-28T08:51:54Z</time>
      </trkpt>
      <trkpt lat="36.4694470" lon="-5.2938700">
        <ele>389.6</ele>
        <time>2019-08-28T08:51:55Z</time>
      </trkpt>
      <trkpt lat="36.4694810" lon="-5.2938770">
        <ele>389.7</ele>
        <time>2019-08-28T08:51:56Z</time>
      </trkpt>
      <trkpt lat="36.4695150" lon="-5.2938840">
        <ele>389.9</ele>
        <time>2019-08-28T08:51:57Z</time>
      </trkpt>
      <trkpt lat="36.4695470" lon="-5.2938920">
        <ele>390.0</ele>
        <time>2019-08-28T08:51:58Z</time>
      </trkpt>
      <trkpt lat="36.4695800" lon="-5.2939020">
        <ele>390.1</ele>
        <time>2019-08-28T08:51:59Z</time>
      </trkpt>
      <trkpt lat="36.4696120" lon="-5.2939110">
        <ele>390.3</ele>
        <time>2019-08-28T08:52:00Z</time>
      </trkpt>
      <trkpt lat="36.4696440" lon="-5.2939220">
        <ele>390.4</ele>
        <time>2019-08-28T08:52:01Z</time>
      </trkpt>
      <trkpt lat="36.4696760" lon="-5.2939330">
        <ele>390.6</ele>
        <time>2019-08-28T08:52:02Z</time>
      </trkpt>
      <trkpt lat="36.4697080" lon="-5.2939440">
        <ele>390.7</ele>
        <time>2019-08-28T08:52:03Z</time>
      </trkpt>
      <trkpt lat="36.4697400" lon="-5.2939550">
        <ele>390.9</ele>
        <time>2019-08-28T08:52:04Z</time>
      </trkpt>
      <trkpt lat="36.4697720" lon="-5.2939670">
        <ele>391.0</ele>
        <time>2019-08-28T08:52:05Z</time>
      </trkpt>
      <trkpt lat="36.4698040" lon="-5.2939790">
        <ele>391.2</ele>
        <time>2019-08-28T08:52:06Z</time>
      </trkpt>
      <trkpt lat="36.4698350" lon="-5.2939930">
        <ele>391.4</ele>
        <time>2019-08-28T08:52:07Z</time>
      </trkpt>
      <trkpt lat="36.4698670" lon="-5.2940070">
        <ele>391.6</ele>
        <time>2019-08-28T08:52:08Z</time>
      </trkpt>
      <trkpt lat="36.4698980" lon="-5.2940210">
        <ele>391.8</ele>
        <time>2019-08-28T08:52:09Z</time>
      </trkpt>
      <trkpt lat="36.4699290" lon="-5.2940340">
        <ele>392.0</ele>
        <time>2019-08-28T08:52:10Z</time>
      </trkpt>
      <trkpt lat="36.4699610" lon="-5.2940480">
        <ele>392.2</ele>
        <time>2019-08-28T08:52:11Z</time>
      </trkpt>
      <trkpt lat="36.4699930" lon="-5.2940610">
        <ele>392.4</ele>
        <time>2019-08-28T08:52:12Z</time>
      </trkpt>
      <trkpt lat="36.4700240" lon="-5.2940750">
        <ele>392.6</ele>
        <time>2019-08-28T08:52:13Z</time>
      </trkpt>
      <trkpt lat="36.4700550" lon="-5.2940890">
        <ele>392.8</ele>
        <time>2019-08-28T08:52:14Z</time>
      </trkpt>
      <trkpt lat="36.4700860" lon="-5.2941030">
        <ele>393.0</ele>
        <time>2019-08-28T08:52:15Z</time>
      </trkpt>
      <trkpt lat="36.4701170" lon="-5.2941160">
        <ele>393.1</ele>
        <time>2019-08-28T08:52:16Z</time>
      </trkpt>
      <trkpt lat="36.4701480" lon="-5.2941290">
        <ele>393.3</ele>
        <time>2019-08-28T08:52:17Z</time>
      </trkpt>
      <trkpt lat="36.4701800" lon="-5.2941400">
        <ele>393.5</ele>
        <time>2019-08-28T08:52:18Z</time>
      </trkpt>
      <trkpt lat="36.4702120" lon="-5.2941510">
        <ele>393.7</ele>
        <time>2019-08-28T08:52:19Z</time>
      </trkpt>
      <trkpt lat="36.4702440" lon="-5.2941610">
        <ele>393.9</ele>
        <time>2019-08-28T08:52:20Z</time>
      </trkpt>
      <trkpt lat="36.4702760" lon="-5.2941710">
        <ele>394.1</ele>
        <time>2019-08-28T08:52:21Z</time>
      </trkpt>
      <trkpt lat="36.4703080" lon="-5.2941810">
        <ele>394.3</ele>
        <time>2019-08-28T08:52:22Z</time>
      </trkpt>
      <trkpt lat="36.4703410" lon="-5.2941920">
        <ele>394.5</ele>
        <time>2019-08-28T08:52:23Z</time>
      </trkpt>
      <trkpt lat="36.4703730" lon="-5.2942030">
        <ele>394.7</ele>
        <time>2019-08-28T08:52:24Z</time>
      </trkpt>
      <trkpt lat="36.4704060" lon="-5.2942140">
        <ele>394.9</ele>
        <time>2019-08-28T08:52:25Z</time>
      </trkpt>
      <trkpt lat="36.4704390" lon="-5.2942260">
        <ele>395.1</ele>
        <time>2019-08-28T08:52:26Z</time>
      </trkpt>
      <trkpt lat="36.4704720" lon="-5.2942370">
        <ele>395.3</ele>
        <time>2019-08-28T08:52:27Z</time>
      </trkpt>
      <trkpt lat="36.4705060" lon="-5.2942480">
        <ele>395.5</ele>
        <time>2019-08-28T08:52:28Z</time>
      </trkpt>
      <trkpt lat="36.4705400" lon="-5.2942580">
        <ele>395.7</ele>
        <time>2019-08-28T08:52:29Z</time>
      </trkpt>
      <trkpt lat="36.4705740" lon="-5.2942680">
        <ele>395.9</ele>
        <time>2019-08-28T08:52:30Z</time>
      </trkpt>
      <trkpt lat="36.4706080" lon="-5.2942780">
        <ele>396.2</ele>
        <time>2019-08-28T08:52:31Z</time>
      </trkpt>
      <trkpt lat="36.4706420" lon="-5.2942870">
        <ele>396.4</ele>
        <time>2019-08-28T08:52:32Z</time>
      </trkpt>
      <trkpt lat="36.4706760" lon="-5.2942950">
        <ele>396.6</ele>
        <time>2019-08-28T08:52:33Z</time>
      </trkpt>
      <trkpt lat="36.4707100" lon="-5.2943020">
        <ele>396.8</ele>
        <time>2019-08-28T08:52:34Z</time>
      </trkpt>
      <trkpt lat="36.4707450" lon="-5.2943070">
        <ele>397.0</ele>
        <time>2019-08-28T08:52:35Z</time>
      </trkpt>
      <trkpt lat="36.4707790" lon="-5.2943120">
        <ele>397.3</ele>
        <time>2019-08-28T08:52:36Z</time>
      </trkpt>
      <trkpt lat="36.4708140" lon="-5.2943140">
        <ele>397.5</ele>
        <time>2019-08-28T08:52:37Z</time>
      </trkpt>
      <trkpt lat="36.4708490" lon="-5.2943150">
        <ele>397.7</ele>
        <time>2019-08-28T08:52:38Z</time>
      </trkpt>
      <trkpt lat="36.4708850" lon="-5.2943130">
        <ele>397.9</ele>
        <time>2019-08-28T08:52:39Z</time>
      </trkpt>
      <trkpt lat="36.4709200" lon="-5.2943090">
        <ele>398.2</ele>
        <time>2019-08-28T08:52:40Z</time>
      </trkpt>
      <trkpt lat="36.4709540" lon="-5.2943010">
        <ele>398.4</ele>
        <time>2019-08-28T08:52:41Z</time>
      </trkpt>
      <trkpt lat="36.4709890" lon="-5.2942890">
        <ele>398.6</ele>
        <time>2019-08-28T08:52:42Z</time>
      </trkpt>
      <trkpt lat="36.4710220" lon="-5.2942740">
        <ele>398.8</ele>
        <time>2019-08-28T08:52:43Z</time>
      </trkpt>
      <trkpt lat="36.4710550" lon="-5.2942540">
        <ele>399.0</ele>
        <time>2019-08-28T08:52:44Z</time>
      </trkpt>
      <trkpt lat="36.4710870" lon="-5.2942310">
        <ele>399.1</ele>
        <time>2019-08-28T08:52:45Z</time>
      </trkpt>
      <trkpt lat="36.4711180" lon="-5.2942050">
        <ele>399.3</ele>
        <time>2019-08-28T08:52:46Z</time>
      </trkpt>
      <trkpt lat="36.4711480" lon="-5.2941780">
        <ele>399.5</ele>
        <time>2019-08-28T08:52:47Z</time>
      </trkpt>
      <trkpt lat="36.4711780" lon="-5.2941500">
        <ele>399.6</ele>
        <time>2019-08-28T08:52:48Z</time>
      </trkpt>
      <trkpt lat="36.4712080" lon="-5.2941190">
        <ele>399.7</ele>
        <time>2019-08-28T08:52:49Z</time>
      </trkpt>
      <trkpt lat="36.4712380" lon="-5.2940860">
        <ele>399.8</ele>
        <time>2019-08-28T08:52:50Z</time>
      </trkpt>
      <trkpt lat="36.4712700" lon="-5.2940510">
        <ele>399.9</ele>
        <time>2019-08-28T08:52:51Z</time>
      </trkpt>
      <trkpt lat="36.4713030" lon="-5.2940140">
        <ele>400.0</ele>
        <time>2019-08-28T08:52:52Z</time>
      </trkpt>
      <trkpt lat="36.4713370" lon="-5.2939740">
        <ele>400.0</ele>
        <time>2019-08-28T08:52:53Z</time>
      </trkpt>
      <trkpt lat="36.4713700" lon="-5.2939310">
        <ele>400.1</ele>
        <time>2019-08-28T08:52:54Z</time>
      </trkpt>
      <trkpt lat="36.4714040" lon="-5.2938870">
        <ele>400.1</ele>
        <time>2019-08-28T08:52:55Z</time>
      </trkpt>
      <trkpt lat="36.4714380" lon="-5.2938430">
        <ele>400.1</ele>
        <time>2019-08-28T08:52:56Z</time>
      </trkpt>
      <trkpt lat="36.4714750" lon="-5.2937980">
        <ele>400.1</ele>
        <time>2019-08-28T08:52:57Z</time>
      </trkpt>
      <trkpt lat="36.4715120" lon="-5.2937520">
        <ele>400.1</ele>
        <time>2019-08-28T08:52:58Z</time>
      </trkpt>
      <trkpt lat="36.4715500" lon="-5.2937070">
        <ele>400.1</ele>
        <time>2019-08-28T08:52:59Z</time>
      </trkpt>
      <trkpt lat="36.4715890" lon="-5.2936620">
        <ele>400.1</ele>
        <time>2019-08-28T08:53:00Z</time>
      </trkpt>
      <trkpt lat="36.4716290" lon="-5.2936170">
        <ele>400.1</ele>
        <time>2019-08-28T08:53:01Z</time>
      </trkpt>
      <trkpt lat="36.4716700" lon="-5.2935730">
        <ele>400.1</ele>
        <time>2019-08-28T08:53:02Z</time>
      </trkpt>
      <trkpt lat="36.4717120" lon="-5.2935290">
        <ele>400.1</ele>
        <time>2019-08-28T08:53:03Z</time>
      </trkpt>
      <trkpt lat="36.4717570" lon="-5.2934850">
        <ele>400.1</ele>
        <time>2019-08-28T08:53:04Z</time>
      </trkpt>
      <trkpt lat="36.4718080" lon="-5.2934430">
        <ele>400.1</ele>
        <time>2019-08-28T08:53:05Z</time>
      </trkpt>
      <trkpt lat="36.4718630" lon="-5.2934050">
        <ele>400.0</ele>
        <time>2019-08-28T08:53:06Z</time>
      </trkpt>
      <trkpt lat="36.4719200" lon="-5.2933750">
        <ele>400.0</ele>
        <time>2019-08-28T08:53:07Z</time>
      </trkpt>
      <trkpt lat="36.4719790" lon="-5.2933500">
        <ele>400.0</ele>
        <time>2019-08-28T08:53:08Z</time>
      </trkpt>
      <trkpt lat="36.4720380" lon="-5.2933310">
        <ele>400.0</ele>
        <time>2019-08-28T08:53:09Z</time>
      </trkpt>
      <trkpt lat="36.4720980" lon="-5.2933150">
        <ele>400.0</ele>
        <time>2019-08-28T08:53:10Z</time>
      </trkpt>
      <trkpt lat="36.4721590" lon="-5.2933040">
        <ele>399.9</ele>
        <time>2019-08-28T08:53:11Z</time>
      </trkpt>
      <trkpt lat="36.4722200" lon="-5.2932930">
        <ele>399.9</ele>
        <time>2019-08-28T08:53:12Z</time>
      </trkpt>
      <trkpt lat="36.4722820" lon="-5.2932830">
        <ele>399.9</ele>
        <time>2019-08-28T08:53:13Z</time>
      </trkpt>
      <trkpt lat="36.4723430" lon="-5.2932720">
        <ele>399.9</ele>
        <time>2019-08-28T08:53:14Z</time>
      </trkpt>
      <trkpt lat="36.4724040" lon="-5.2932600">
        <ele>399.9</ele>
        <time>2019-08-28T08:53:15Z</time>
      </trkpt>
      <trkpt lat="36.4724660" lon="-5.2932490">
        <ele>399.9</ele>
        <time>2019-08-28T08:53:16Z</time>
      </trkpt>
      <trkpt lat="36.4725270" lon="-5.2932380">
        <ele>399.9</ele>
        <time>2019-08-28T08:53:17Z</time>
      </trkpt>
      <trkpt lat="36.4725880" lon="-5.2932260">
        <ele>400.0</ele>
        <time>2019-08-28T08:53:18Z</time>
      </trkpt>
      <trkpt lat="36.4726490" lon="-5.2932120">
        <ele>400.0</ele>
        <time>2019-08-28T08:53:19Z</time>
      </trkpt>
      <trkpt lat="36.4727110" lon="-5.2931990">
        <ele>400.0</ele>
        <time>2019-08-28T08:53:20Z</time>
      </trkpt>
      <trkpt lat="36.4727720" lon="-5.2931850">
        <ele>400.1</ele>
        <time>2019-08-28T08:53:21Z</time>
      </trkpt>
      <trkpt lat="36.4728340" lon="-5.2931720">
        <ele>400.2</ele>
        <time>2019-08-28T08:53:22Z</time>
      </trkpt>
      <trkpt lat="36.4728960" lon="-5.2931590">
        <ele>400.2</ele>
        <time>2019-08-28T08:53:23Z</time>
      </trkpt>
      <trkpt lat="36.4729580" lon="-5.2931450">
        <ele>400.3</ele>
        <time>2019-08-28T08:53:24Z</time>
      </trkpt>
      <trkpt lat="36.4730200" lon="-5.2931320">
        <ele>400.4</ele>
        <time>2019-08-28T08:53:25Z</time>
      </trkpt>
      <trkpt lat="36.4730830" lon="-5.2931180">
        <ele>400.5</ele>
        <time>2019-08-28T08:53:26Z</time>
      </trkpt>
      <trkpt lat="36.4731460" lon="-5.2931050">
        <ele>400.5</ele>
        <time>2019-08-28T08:53:27Z</time>
      </trkpt>
      <trkpt lat="36.4732080" lon="-5.2930920">
        <ele>400.6</ele>
        <time>2019-08-28T08:53:28Z</time>
      </trkpt>
      <trkpt lat="36.4732710" lon="-5.2930800">
        <ele>400.7</ele>
        <time>2019-08-28T08:53:29Z</time>
      </trkpt>
      <trkpt lat="36.4733340" lon="-5.2930690">
        <ele>400.8</ele>
        <time>2019-08-28T08:53:30Z</time>
      </trkpt>
      <trkpt lat="36.4733980" lon="-5.2930600">
        <ele>400.8</ele>
        <time>2019-08-28T08:53:31Z</time>
      </trkpt>
      <trkpt lat="36.4734610" lon="-5.2930530">
        <ele>400.9</ele>
        <time>2019-08-28T08:53:32Z</time>
      </trkpt>
      <trkpt lat="36.4735250" lon="-5.2930500">
        <ele>401.0</ele>
        <time>2019-08-28T08:53:33Z</time>
      </trkpt>
      <trkpt lat="36.4735900" lon="-5.2930490">
        <ele>401.1</ele>
        <time>2019-08-28T08:53:34Z</time>
      </trkpt>
      <trkpt lat="36.4736550" lon="-5.2930510">
        <ele>401.1</ele>
        <time>2019-08-28T08:53:35Z</time>
      </trkpt>
      <trkpt lat="36.4737200" lon="-5.2930550">
        <ele>401.2</ele>
        <time>2019-08-28T08:53:36Z</time>
      </trkpt>
      <trkpt lat="36.4737860" lon="-5.2930620">
        <ele>401.3</ele>
        <time>2019-08-28T08:53:37Z</time>
      </trkpt>
      <trkpt lat="36.4738520" lon="-5.2930720">
        <ele>401.3</ele>
        <time>2019-08-28T08:53:38Z</time>
      </trkpt>
      <trkpt lat="36.4739180" lon="-5.2930860">
        <ele>401.2</ele>
        <time>2019-08-28T08:53:39Z</time>
      </trkpt>
      <trkpt lat="36.4739840" lon="-5.2931040">
        <ele>401.2</ele>
        <time>2019-08-28T08:53:40Z</time>
      </trkpt>
      <trkpt lat="36.4740480" lon="-5.2931320">
        <ele>401.2</ele>
        <time>2019-08-28T08:53:41Z</time>
      </trkpt>
      <trkpt lat="36.4741110" lon="-5.2931690">
        <ele>401.1</ele>
        <time>2019-08-28T08:53:42Z</time>
      </trkpt>
      <trkpt lat="36.4741690" lon="-5.2932160">
        <ele>401.1</ele>
        <time>2019-08-28T08:53:43Z</time>
      </trkpt>
      <trkpt lat="36.4742230" lon="-5.2932710">
        <ele>401.0</ele>
        <time>2019-08-28T08:53:44Z</time>
      </trkpt>
      <trkpt lat="36.4742740" lon="-5.2933320">
        <ele>401.0</ele>
        <time>2019-08-28T08:53:45Z</time>
      </trkpt>
      <trkpt lat="36.4743220" lon="-5.2933960">
        <ele>400.9</ele>
        <time>2019-08-28T08:53:46Z</time>
      </trkpt>
      <trkpt lat="36.4743690" lon="-5.2934630">
        <ele>400.8</ele>
        <time>2019-08-28T08:53:47Z</time>
      </trkpt>
      <trkpt lat="36.4744160" lon="-5.2935280">
        <ele>400.8</ele>
        <time>2019-08-28T08:53:48Z</time>
      </trkpt>
      <trkpt lat="36.4744650" lon="-5.2935920">
        <ele>400.8</ele>
        <time>2019-08-28T08:53:49Z</time>
      </trkpt>
      <trkpt lat="36.4745150" lon="-5.2936540">
        <ele>400.7</ele>
        <time>2019-08-28T08:53:50Z</time>
      </trkpt>
      <trkpt lat="36.4745670" lon="-5.2937120">
        <ele>400.7</ele>
        <time>2019-08-28T08:53:51Z</time>
      </trkpt>
      <trkpt lat="36.4746210" lon="-5.2937660">
        <ele>400.6</ele>
        <time>2019-08-28T08:53:52Z</time>
      </trkpt>
      <trkpt lat="36.4746780" lon="-5.2938160">
        <ele>400.6</ele>
        <time>2019-08-28T08:53:53Z</time>
      </trkpt>
      <trkpt lat="36.4747400" lon="-5.2938560">
        <ele>400.5</ele>
        <time>2019-08-28T08:53:54Z</time>
      </trkpt>
      <trkpt lat="36.4748070" lon="-5.2938870">
        <ele>400.4</ele>
        <time>2019-08-28T08:53:55Z</time>
      </trkpt>
      <trkpt lat="36.4748790" lon="-5.2939090">
        <ele>400.3</ele>
        <time>2019-08-28T08:53:56Z</time>
      </trkpt>
      <trkpt lat="36.4749520" lon="-5.2939250">
        <ele>400.2</ele>
        <time>2019-08-28T08:53:57Z</time>
      </trkpt>
      <trkpt lat="36.4750260" lon="-5.2939370">
        <ele>400.1</ele>
        <time>2019-08-28T08:53:58Z</time>
      </trkpt>
      <trkpt lat="36.4751010" lon="-5.2939480">
        <ele>399.9</ele>
        <time>2019-08-28T08:53:59Z</time>
      </trkpt>
      <trkpt lat="36.4751770" lon="-5.2939560">
        <ele>399.7</ele>
        <time>2019-08-28T08:54:00Z</time>
      </trkpt>
      <trkpt lat="36.4752550" lon="-5.2939630">
        <ele>399.6</ele>
        <time>2019-08-28T08:54:01Z</time>
      </trkpt>
      <trkpt lat="36.4753340" lon="-5.2939700">
        <ele>399.4</ele>
        <time>2019-08-28T08:54:02Z</time>
      </trkpt>
      <trkpt lat="36.4754150" lon="-5.2939770">
        <ele>399.2</ele>
        <time>2019-08-28T08:54:03Z</time>
      </trkpt>
      <trkpt lat="36.4754980" lon="-5.2939840">
        <ele>399.1</ele>
        <time>2019-08-28T08:54:04Z</time>
      </trkpt>
      <trkpt lat="36.4755820" lon="-5.2939930">
        <ele>398.9</ele>
        <time>2019-08-28T08:54:05Z</time>
      </trkpt>
      <trkpt lat="36.4756670" lon="-5.2940060">
        <ele>398.7</ele>
        <time>2019-08-28T08:54:06Z</time>
      </trkpt>
      <trkpt lat="36.4757530" lon="-5.2940260">
        <ele>398.4</ele>
        <time>2019-08-28T08:54:07Z</time>
      </trkpt>
      <trkpt lat="36.4758380" lon="-5.2940500">
        <ele>398.1</ele>
        <time>2019-08-28T08:54:08Z</time>
      </trkpt>
      <trkpt lat="36.4759240" lon="-5.2940760">
        <ele>397.8</ele>
        <time>2019-08-28T08:54:09Z</time>
      </trkpt>
      <trkpt lat="36.4760090" lon="-5.2941010">
        <ele>397.5</ele>
        <time>2019-08-28T08:54:10Z</time>
      </trkpt>
      <trkpt lat="36.4760960" lon="-5.2941260">
        <ele>397.2</ele>
        <time>2019-08-28T08:54:11Z</time>
      </trkpt>
      <trkpt lat="36.4761830" lon="-5.2941490">
        <ele>396.9</ele>
        <time>2019-08-28T08:54:12Z</time>
      </trkpt>
      <trkpt lat="36.4762700" lon="-5.2941710">
        <ele>396.5</ele>
        <time>2019-08-28T08:54:13Z</time>
      </trkpt>
      <trkpt lat="36.4763590" lon="-5.2941920">
        <ele>396.2</ele>
        <time>2019-08-28T08:54:14Z</time>
      </trkpt>
      <trkpt lat="36.4764500" lon="-5.2942100">
        <ele>396.0</ele>
        <time>2019-08-28T08:54:15Z</time>
      </trkpt>
      <trkpt lat="36.4765420" lon="-5.2942230">
        <ele>395.8</ele>
        <time>2019-08-28T08:54:16Z</time>
      </trkpt>
      <trkpt lat="36.4766370" lon="-5.2942280">
        <ele>395.7</ele>
        <time>2019-08-28T08:54:17Z</time>
      </trkpt>
      <trkpt lat="36.4767330" lon="-5.2942240">
        <ele>395.6</ele>
        <time>2019-08-28T08:54:18Z</time>
      </trkpt>
      <trkpt lat="36.4768290" lon="-5.2942110">
        <ele>395.4</ele>
        <time>2019-08-28T08:54:19Z</time>
      </trkpt>
      <trkpt lat="36.4769270" lon="-5.2941890">
        <ele>395.2</ele>
        <time>2019-08-28T08:54:20Z</time>
      </trkpt>
      <trkpt lat="36.4770250" lon="-5.2941590">
        <ele>394.8</ele>
        <time>2019-08-28T08:54:21Z</time>
      </trkpt>
      <trkpt lat="36.4771260" lon="-5.2941240">
        <ele>394.4</ele>
        <time>2019-08-28T08:54:22Z</time>
      </trkpt>
      <trkpt lat="36.4772310" lon="-5.2940890">
        <ele>393.9</ele>
        <time>2019-08-28T08:54:23Z</time>
      </trkpt>
      <trkpt lat="36.4773420" lon="-5.2940640">
        <ele>393.4</ele>
        <time>2019-08-28T08:54:24Z</time>
      </trkpt>
      <trkpt lat="36.4774560" lon="-5.2940580">
        <ele>392.8</ele>
        <time>2019-08-28T08:54:25Z</time>
      </trkpt>
      <trkpt lat="36.4775730" lon="-5.2940750">
        <ele>392.0</ele>
        <time>2019-08-28T08:54:26Z</time>
      </trkpt>
      <trkpt lat="36.4776880" lon="-5.2941100">
        <ele>391.1</ele>
        <time>2019-08-28T08:54:27Z</time>
      </trkpt>
      <trkpt lat="36.4778050" lon="-5.2941600">
        <ele>390.1</ele>
        <time>2019-08-28T08:54:28Z</time>
      </trkpt>
      <trkpt lat="36.4779230" lon="-5.2942160">
        <ele>389.1</ele>
        <time>2019-08-28T08:54:29Z</time>
      </trkpt>
      <trkpt lat="36.4780420" lon="-5.2942760">
        <ele>387.9</ele>
        <time>2019-08-28T08:54:30Z</time>
      </trkpt>
      <trkpt lat="36.4781630" lon="-5.2943370">
        <ele>386.7</ele>
        <time>2019-08-28T08:54:31Z</time>
      </trkpt>
      <trkpt lat="36.4782840" lon="-5.2943990">
        <ele>385.5</ele>
        <time>2019-08-28T08:54:32Z</time>
      </trkpt>
      <trkpt lat="36.4784080" lon="-5.2944620">
        <ele>383.5</ele>
        <time>2019-08-28T08:54:33Z</time>
      </trkpt>
      <trkpt lat="36.4785320" lon="-5.2945270">
        <ele>381.6</ele>
        <time>2019-08-28T08:54:34Z</time>
      </trkpt>
      <trkpt lat="36.4786560" lon="-5.2945920">
        <ele>380.2</ele>
        <time>2019-08-28T08:54:35Z</time>
      </trkpt>
      <trkpt lat="36.4787790" lon="-5.2946600">
        <ele>378.9</ele>
        <time>2019-08-28T08:54:36Z</time>
      </trkpt>
      <trkpt lat="36.4789020" lon="-5.2947310">
        <ele>377.7</ele>
        <time>2019-08-28T08:54:37Z</time>
      </trkpt>
      <trkpt lat="36.4790250" lon="-5.2948040">
        <ele>376.4</ele>
        <time>2019-08-28T08:54:38Z</time>
      </trkpt>
      <trkpt lat="36.4791490" lon="-5.2948680">
        <ele>375.3</ele>
        <time>2019-08-28T08:54:39Z</time>
      </trkpt>
      <trkpt lat="36.4792720" lon="-5.2949120">
        <ele>374.1</ele>
        <time>2019-08-28T08:54:40Z</time>
      </trkpt>
      <trkpt lat="36.4793940" lon="-5.2949300">
        <ele>373.0</ele>
        <time>2019-08-28T08:54:41Z</time>
      </trkpt>
      <trkpt lat="36.4795170" lon="-5.2949230">
        <ele>371.8</ele>
        <time>2019-08-28T08:54:42Z</time>
      </trkpt>
      <trkpt lat="36.4796370" lon="-5.2948910">
        <ele>370.8</ele>
        <time>2019-08-28T08:54:43Z</time>
      </trkpt>
      <trkpt lat="36.4797550" lon="-5.2948400">
        <ele>370.0</ele>
        <time>2019-08-28T08:54:44Z</time>
      </trkpt>
      <trkpt lat="36.4798620" lon="-5.2947660">
        <ele>369.0</ele>
        <time>2019-08-28T08:54:45Z</time>
      </trkpt>
      <trkpt lat="36.4799460" lon="-5.2946700">
        <ele>368.1</ele>
        <time>2019-08-28T08:54:46Z</time>
      </trkpt>
      <trkpt lat="36.4800060" lon="-5.2945520">
        <ele>367.1</ele>
        <time>2019-08-28T08:54:47Z</time>
      </trkpt>
      <trkpt lat="36.4800540" lon="-5.2944210">
        <ele>366.1</ele>
        <time>2019-08-28T08:54:48Z</time>
      </trkpt>
      <trkpt lat="36.4801020" lon="-5.2942860">
        <ele>365.1</ele>
        <time>2019-08-28T08:54:49Z</time>
      </trkpt>
      <trkpt lat="36.4801570" lon="-5.2941500">
        <ele>364.1</ele>
        <time>2019-08-28T08:54:50Z</time>
      </trkpt>
      <trkpt lat="36.4802210" lon="-5.2940180">
        <ele>363.2</ele>
        <time>2019-08-28T08:54:51Z</time>
      </trkpt>
      <trkpt lat="36.4802890" lon="-5.2938860">
        <ele>362.4</ele>
        <time>2019-08-28T08:54:52Z</time>
      </trkpt>
      <trkpt lat="36.4803560" lon="-5.2937490">
        <ele>361.6</ele>
        <time>2019-08-28T08:54:53Z</time>
      </trkpt>
      <trkpt lat="36.4804150" lon="-5.2936040">
        <ele>360.8</ele>
        <time>2019-08-28T08:54:54Z</time>
      </trkpt>
      <trkpt lat="36.4804740" lon="-5.2934550">
        <ele>360.0</ele>
        <time>2019-08-28T08:54:55Z</time>
      </trkpt>
      <trkpt lat="36.4805390" lon="-5.2933070">
        <ele>359.3</ele>
        <time>2019-08-28T08:54:56Z</time>
      </trkpt>
      <trkpt lat="36.4806120" lon="-5.2931630">
        <ele>358.6</ele>
        <time>2019-08-28T08:54:57Z</time>
      </trkpt>
      <trkpt lat="36.4806950" lon="-5.2930240">
        <ele>357.6</ele>
        <time>2019-08-28T08:54:58Z</time>
      </trkpt>
      <trkpt lat="36.4807830" lon="-5.2928870">
        <ele>356.6</ele>
        <time>2019-08-28T08:54:59Z</time>
      </trkpt>
      <trkpt lat="36.4808750" lon="-5.2927500">
        <ele>355.6</ele>
        <time>2019-08-28T08:55:00Z</time>
      </trkpt>
      <trkpt lat="36.4809650" lon="-5.2926090">
        <ele>354.5</ele>
        <time>2019-08-28T08:55:01Z</time>
      </trkpt>
      <trkpt lat="36.4810560" lon="-5.2924670">
        <ele>353.4</ele>
        <time>2019-08-28T08:55:02Z</time>
      </trkpt>
      <trkpt lat="36.4811500" lon="-5.2923290">
        <ele>352.1</ele>
        <time>2019-08-28T08:55:03Z</time>
      </trkpt>
      <trkpt lat="36.4812520" lon="-5.2922040">
        <ele>350.7</ele>
        <time>2019-08-28T08:55:04Z</time>
      </trkpt>
      <trkpt lat="36.4813630" lon="-5.2920980">
        <ele>349.1</ele>
        <time>2019-08-28T08:55:05Z</time>
      </trkpt>
      <trkpt lat="36.4814850" lon="-5.2920130">
        <ele>347.6</ele>
        <time>2019-08-28T08:55:06Z</time>
      </trkpt>
      <trkpt lat="36.4816160" lon="-5.2919480">
        <ele>346.0</ele>
        <time>2019-08-28T08:55:07Z</time>
      </trkpt>
      <trkpt lat="36.4817510" lon="-5.2918980">
        <ele>344.6</ele>
        <time>2019-08-28T08:55:08Z</time>
      </trkpt>
      <trkpt lat="36.4818870" lon="-5.2918570">
        <ele>343.4</ele>
        <time>2019-08-28T08:55:09Z</time>
      </trkpt>
      <trkpt lat="36.4820240" lon="-5.2918220">
        <ele>342.4</ele>
        <time>2019-08-28T08:55:10Z</time>
      </trkpt>
      <trkpt lat="36.4821610" lon="-5.2917870">
        <ele>341.6</ele>
        <time>2019-08-28T08:55:11Z</time>
      </trkpt>
      <trkpt lat="36.4822970" lon="-5.2917520">
        <ele>340.9</ele>
        <time>2019-08-28T08:55:12Z</time>
      </trkpt>
      <trkpt lat="36.4824310" lon="-5.2917170">
        <ele>340.3</ele>
        <time>2019-08-28T08:55:13Z</time>
      </trkpt>
      <trkpt lat="36.4825640" lon="-5.2916810">
        <ele>339.7</ele>
        <time>2019-08-28T08:55:14Z</time>
      </trkpt>
      <trkpt lat="36.4826950" lon="-5.2916450">
        <ele>339.2</ele>
        <time>2019-08-28T08:55:15Z</time>
      </trkpt>
      <trkpt lat="36.4828260" lon="-5.2916100">
        <ele>338.8</ele>
        <time>2019-08-28T08:55:16Z</time>
      </trkpt>
      <trkpt lat="36.4829550" lon="-5.2915770">
        <ele>338.4</ele>
        <time>2019-08-28T08:55:17Z</time>
      </trkpt>
      <trkpt lat="36.4830820" lon="-5.2915450">
        <ele>337.9</ele>
        <time>2019-08-28T08:55:18Z</time>
      </trkpt>
      <trkpt lat="36.4832080" lon="-5.2915140">
        <ele>337.3</ele>
        <time>2019-08-28T08:55:19Z</time>
      </trkpt>
      <trkpt lat="36.4833320" lon="-5.2914800">
        <ele>336.6</ele>
        <time>2019-08-28T08:55:20Z</time>
      </trkpt>
      <trkpt lat="36.4834540" lon="-5.2914440">
        <ele>335.8</ele>
        <time>2019-08-28T08:55:21Z</time>
      </trkpt>
      <trkpt lat="36.4835740" lon="-5.2914060">
        <ele>335.0</ele>
        <time>2019-08-28T08:55:22Z</time>
      </trkpt>
      <trkpt lat="36.4836920" lon="-5.2913660">
        <ele>334.3</ele>
        <time>2019-08-28T08:55:23Z</time>
      </trkpt>
      <trkpt lat="36.4838090" lon="-5.2913240">
        <ele>333.8</ele>
        <time>2019-08-28T08:55:24Z</time>
      </trkpt>
      <trkpt lat="36.4839240" lon="-5.2912820">
        <ele>333.4</ele>
        <time>2019-08-28T08:55:25Z</time>
      </trkpt>
      <trkpt lat="36.4840370" lon="-5.2912400">
        <ele>333.2</ele>
        <time>2019-08-28T08:55:26Z</time>
      </trkpt>
      <trkpt lat="36.4841480" lon="-5.2911940">
        <ele>333.2</ele>
        <time>2019-08-28T08:55:27Z</time>
      </trkpt>
      <trkpt lat="36.4842570" lon="-5.2911450">
        <ele>333.2</ele>
        <time>2019-08-28T08:55:28Z</time>
      </trkpt>
      <trkpt lat="36.4843650" lon="-5.2910930">
        <ele>333.2</ele>
        <time>2019-08-28T08:55:29Z</time>
      </trkpt>
      <trkpt lat="36.4844710" lon="-5.2910420">
        <ele>333.1</ele>
        <time>2019-08-28T08:55:30Z</time>
      </trkpt>
      <trkpt lat="36.4845770" lon="-5.2909900">
        <ele>333.0</ele>
        <time>2019-08-28T08:55:31Z</time>
      </trkpt>
      <trkpt lat="36.4846820" lon="-5.2909380">
        <ele>332.8</ele>
        <time>2019-08-28T08:55:32Z</time>
      </trkpt>
      <trkpt lat="36.4847860" lon="-5.2908860">
        <ele>332.5</ele>
        <time>2019-08-28T08:55:33Z</time>
      </trkpt>
      <trkpt lat="36.4848910" lon="-5.2908350">
        <ele>332.2</ele>
        <time>2019-08-28T08:55:34Z</time>
      </trkpt>
      <trkpt lat="36.4849960" lon="-5.2907860">
        <ele>331.7</ele>
        <time>2019-08-28T08:55:35Z</time>
      </trkpt>
      <trkpt lat="36.4851010" lon="-5.2907390">
        <ele>331.1</ele>
        <time>2019-08-28T08:55:36Z</time>
      </trkpt>
      <trkpt lat="36.4852050" lon="-5.2906920">
        <ele>330.6</ele>
        <time>2019-08-28T08:55:37Z</time>
      </trkpt>
      <trkpt lat="36.4853100" lon="-5.2906470">
        <ele>330.1</ele>
        <time>2019-08-28T08:55:38Z</time>
      </trkpt>
      <trkpt lat="36.4854140" lon="-5.2906040">
        <ele>329.7</ele>
        <time>2019-08-28T08:55:39Z</time>
      </trkpt>
      <trkpt lat="36.4855170" lon="-5.2905630">
        <ele>329.2</ele>
        <time>2019-08-28T08:55:40Z</time>
      </trkpt>
      <trkpt lat="36.4856200" lon="-5.2905200">
        <ele>328.8</ele>
        <time>2019-08-28T08:55:41Z</time>
      </trkpt>
      <trkpt lat="36.4857220" lon="-5.2904770">
        <ele>328.3</ele>
        <time>2019-08-28T08:55:42Z</time>
      </trkpt>
      <trkpt lat="36.4858240" lon="-5.2904300">
        <ele>327.9</ele>
        <time>2019-08-28T08:55:43Z</time>
      </trkpt>
      <trkpt lat="36.4859260" lon="-5.2903810">
        <ele>327.5</ele>
        <time>2019-08-28T08:55:44Z</time>
      </trkpt>
      <trkpt lat="36.4860270" lon="-5.2903290">
        <ele>327.2</ele>
        <time>2019-08-28T08:55:45Z</time>
      </trkpt>
      <trkpt lat="36.4861290" lon="-5.2902760">
        <ele>327.0</ele>
        <time>2019-08-28T08:55:46Z</time>
      </trkpt>
      <trkpt lat="36.4862310" lon="-5.2902230">
        <ele>326.8</ele>
        <time>2019-08-28T08:55:47Z</time>
      </trkpt>
      <trkpt lat="36.4863340" lon="-5.2901660">
        <ele>326.5</ele>
        <time>2019-08-28T08:55:48Z</time>
      </trkpt>
      <trkpt lat="36.4864380" lon="-5.2901050">
        <ele>326.2</ele>
        <time>2019-08-28T08:55:49Z</time>
      </trkpt>
      <trkpt lat="36.4865430" lon="-5.2900430">
        <ele>325.8</ele>
        <time>2019-08-28T08:55:50Z</time>
      </trkpt>
      <trkpt lat="36.4866500" lon="-5.2899780">
        <ele>325.3</ele>
        <time>2019-08-28T08:55:51Z</time>
      </trkpt>
      <trkpt lat="36.4867600" lon="-5.2899120">
        <ele>324.8</ele>
        <time>2019-08-28T08:55:52Z</time>
      </trkpt>
      <trkpt lat="36.4868720" lon="-5.2898440">
        <ele>324.3</ele>
        <time>2019-08-28T08:55:53Z</time>
      </trkpt>
      <trkpt lat="36.4869870" lon="-5.2897740">
        <ele>323.5</ele>
        <time>2019-08-28T08:55:54Z</time>
      </trkpt>
      <trkpt lat="36.4871060" lon="-5.2897050">
        <ele>322.6</ele>
        <time>2019-08-28T08:55:55Z</time>
      </trkpt>
      <trkpt lat="36.4872320" lon="-5.2896410">
        <ele>321.6</ele>
        <time>2019-08-28T08:55:56Z</time>
      </trkpt>
      <trkpt lat="36.4873610" lon="-5.2895800">
        <ele>320.8</ele>
        <time>2019-08-28T08:55:57Z</time>
      </trkpt>
      <trkpt lat="36.4874950" lon="-5.2895220">
        <ele>319.8</ele>
        <time>2019-08-28T08:55:58Z</time>
      </trkpt>
      <trkpt lat="36.4876330" lon="-5.2894640">
        <ele>318.5</ele>
        <time>2019-08-28T08:55:59Z</time>
      </trkpt>
      <trkpt lat="36.4877740" lon="-5.2894080">
        <ele>316.9</ele>
        <time>2019-08-28T08:56:00Z</time>
      </trkpt>
      <trkpt lat="36.4879190" lon="-5.2893550">
        <ele>315.6</ele>
        <time>2019-08-28T08:56:01Z</time>
      </trkpt>
      <trkpt lat="36.4880670" lon="-5.2893030">
        <ele>313.7</ele>
        <time>2019-08-28T08:56:02Z</time>
      </trkpt>
      <trkpt lat="36.4882180" lon="-5.2892530">
        <ele>311.8</ele>
        <time>2019-08-28T08:56:03Z</time>
      </trkpt>
      <trkpt lat="36.4883710" lon="-5.2892040">
        <ele>310.3</ele>
        <time>2019-08-28T08:56:04Z</time>
      </trkpt>
      <trkpt lat="36.4885260" lon="-5.2891530">
        <ele>308.7</ele>
        <time>2019-08-28T08:56:05Z</time>
      </trkpt>
      <trkpt lat="36.4886810" lon="-5.2891020">
        <ele>307.3</ele>
        <time>2019-08-28T08:56:06Z</time>
      </trkpt>
      <trkpt lat="36.4888380" lon="-5.2890510">
        <ele>306.0</ele>
        <time>2019-08-28T08:56:07Z</time>
      </trkpt>
      <trkpt lat="36.4889950" lon="-5.2890020">
        <ele>304.1</ele>
        <time>2019-08-28T08:56:08Z</time>
      </trkpt>
      <trkpt lat="36.4891510" lon="-5.2889540">
        <ele>302.5</ele>
        <time>2019-08-28T08:56:09Z</time>
      </trkpt>
      <trkpt lat="36.4893060" lon="-5.2889060">
        <ele>300.9</ele>
        <time>2019-08-28T08:56:10Z</time>
      </trkpt>
      <trkpt lat="36.4894560" lon="-5.2888620">
        <ele>299.4</ele>
        <time>2019-08-28T08:56:11Z</time>
      </trkpt>
      <trkpt lat="36.4896020" lon="-5.2888230">
        <ele>297.7</ele>
        <time>2019-08-28T08:56:12Z</time>
      </trkpt>
      <trkpt lat="36.4897430" lon="-5.2887910">
        <ele>295.9</ele>
        <time>2019-08-28T08:56:13Z</time>
      </trkpt>
      <trkpt lat="36.4898770" lon="-5.2887670">
        <ele>294.2</ele>
        <time>2019-08-28T08:56:14Z</time>
      </trkpt>
      <trkpt lat="36.4900050" lon="-5.2887560">
        <ele>292.3</ele>
        <time>2019-08-28T08:56:15Z</time>
      </trkpt>
      <trkpt lat="36.4901230" lon="-5.2887620">
        <ele>290.8</ele>
        <time>2019-08-28T08:56:16Z</time>
      </trkpt>
      <trkpt lat="36.4902340" lon="-5.2887890">
        <ele>289.4</ele>
        <time>2019-08-28T08:56:17Z</time>
      </trkpt>
      <trkpt lat="36.4903380" lon="-5.2888280">
        <ele>288.2</ele>
        <time>2019-08-28T08:56:18Z</time>
      </trkpt>
      <trkpt lat="36.4904320" lon="-5.2888770">
        <ele>287.0</ele>
        <time>2019-08-28T08:56:19Z</time>
      </trkpt>
      <trkpt lat="36.4905030" lon="-5.2889340">
        <ele>286.1</ele>
        <time>2019-08-28T08:56:20Z</time>
      </trkpt>
      <trkpt lat="36.4905490" lon="-5.2890020">
        <ele>285.2</ele>
        <time>2019-08-28T08:56:21Z</time>
      </trkpt>
      <trkpt lat="36.4905760" lon="-5.2890770">
        <ele>284.3</ele>
        <time>2019-08-28T08:56:22Z</time>
      </trkpt>
      <trkpt lat="36.4905730" lon="-5.2891660">
        <ele>283.3</ele>
        <time>2019-08-28T08:56:23Z</time>
      </trkpt>
      <trkpt lat="36.4905110" lon="-5.2892820">
        <ele>281.7</ele>
        <time>2019-08-28T08:56:24Z</time>
      </trkpt>
      <trkpt lat="36.4903960" lon="-5.2894230">
        <ele>279.5</ele>
        <time>2019-08-28T08:56:25Z</time>
      </trkpt>
      <trkpt lat="36.4902550" lon="-5.2895720">
        <ele>276.8</ele>
        <time>2019-08-28T08:56:26Z</time>
      </trkpt>
      <trkpt lat="36.4901290" lon="-5.2897080">
        <ele>274.7</ele>
        <time>2019-08-28T08:56:27Z</time>
      </trkpt>
      <trkpt lat="36.4900160" lon="-5.2898360">
        <ele>273.0</ele>
        <time>2019-08-28T08:56:28Z</time>
      </trkpt>
      <trkpt lat="36.4899130" lon="-5.2899700">
        <ele>271.5</ele>
        <time>2019-08-28T08:56:29Z</time>
      </trkpt>
      <trkpt lat="36.4898210" lon="-5.2901160">
        <ele>270.2</ele>
        <time>2019-08-28T08:56:30Z</time>
      </trkpt>
      <trkpt lat="36.4897440" lon="-5.2902710">
        <ele>268.9</ele>
        <time>2019-08-28T08:56:31Z</time>
      </trkpt>
      <trkpt lat="36.4896820" lon="-5.2904260">
        <ele>267.9</ele>
        <time>2019-08-28T08:56:32Z</time>
      </trkpt>
      <trkpt lat="36.4896380" lon="-5.2905780">
        <ele>266.9</ele>
        <time>2019-08-28T08:56:33Z</time>
      </trkpt>
      <trkpt lat="36.4896180" lon="-5.2907310">
        <ele>265.9</ele>
        <time>2019-08-28T08:56:34Z</time>
      </trkpt>
      <trkpt lat="36.4896230" lon="-5.2908820">
        <ele>265.1</ele>
        <time>2019-08-28T08:56:35Z</time>
      </trkpt>
      <trkpt lat="36.4896480" lon="-5.2910290">
        <ele>264.2</ele>
        <time>2019-08-28T08:56:36Z</time>
      </trkpt>
      <trkpt lat="36.4896870" lon="-5.2911670">
        <ele>263.5</ele>
        <time>2019-08-28T08:56:37Z</time>
      </trkpt>
      <trkpt lat="36.4897380" lon="-5.2912970">
        <ele>262.9</ele>
        <time>2019-08-28T08:56:38Z</time>
      </trkpt>
      <trkpt lat="36.4897960" lon="-5.2914200">
        <ele>262.4</ele>
        <time>2019-08-28T08:56:39Z</time>
      </trkpt>
      <trkpt lat="36.4898550" lon="-5.2915400">
        <ele>262.0</ele>
        <time>2019-08-28T08:56:40Z</time>
      </trkpt>
      <trkpt lat="36.4899130" lon="-5.2916600">
        <ele>261.6</ele>
        <time>2019-08-28T08:56:41Z</time>
      </trkpt>
      <trkpt lat="36.4899640" lon="-5.2917850">
        <ele>261.2</ele>
        <time>2019-08-28T08:56:42Z</time>
      </trkpt>
      <trkpt lat="36.4900040" lon="-5.2919190">
        <ele>260.7</ele>
        <time>2019-08-28T08:56:43Z</time>
      </trkpt>
      <trkpt lat="36.4900290" lon="-5.2920600">
        <ele>260.1</ele>
        <time>2019-08-28T08:56:44Z</time>
      </trkpt>
      <trkpt lat="36.4900380" lon="-5.2922040">
        <ele>259.3</ele>
        <time>2019-08-28T08:56:45Z</time>
      </trkpt>
      <trkpt lat="36.4900310" lon="-5.2923480">
        <ele>258.5</ele>
        <time>2019-08-28T08:56:46Z</time>
      </trkpt>
      <trkpt lat="36.4900120" lon="-5.2924880">
        <ele>257.7</ele>
        <time>2019-08-28T08:56:47Z</time>
      </trkpt>
      <trkpt lat="36.4899800" lon="-5.2926260">
        <ele>256.8</ele>
        <time>2019-08-28T08:56:48Z</time>
      </trkpt>
      <trkpt lat="36.4899400" lon="-5.2927610">
        <ele>255.9</ele>
        <time>2019-08-28T08:56:49Z</time>
      </trkpt>
      <trkpt lat="36.4898940" lon="-5.2928980">
        <ele>255.1</ele>
        <time>2019-08-28T08:56:50Z</time>
      </trkpt>
      <trkpt lat="36.4898460" lon="-5.2930340">
        <ele>254.3</ele>
        <time>2019-08-28T08:56:51Z</time>
      </trkpt>
      <trkpt lat="36.4897980" lon="-5.2931690">
        <ele>253.5</ele>
        <time>2019-08-28T08:56:52Z</time>
      </trkpt>
      <trkpt lat="36.4897520" lon="-5.2933050">
        <ele>252.8</ele>
        <time>2019-08-28T08:56:53Z</time>
      </trkpt>
      <trkpt lat="36.4897070" lon="-5.2934410">
        <ele>252.2</ele>
        <time>2019-08-28T08:56:54Z</time>
      </trkpt>
      <trkpt lat="36.4896620" lon="-5.2935760">
        <ele>251.8</ele>
        <time>2019-08-28T08:56:55Z</time>
      </trkpt>
      <trkpt lat="36.4896160" lon="-5.2937100">
        <ele>251.5</ele>
        <time>2019-08-28T08:56:56Z</time>
      </trkpt>
      <trkpt lat="36.4895700" lon="-5.2938430">
        <ele>251.0</ele>
        <time>2019-08-28T08:56:57Z</time>
      </trkpt>
      <trkpt lat="36.4895240" lon="-5.2939760">
        <ele>250.5</ele>
        <time>2019-08-28T08:56:58Z</time>
      </trkpt>
      <trkpt lat="36.4894790" lon="-5.2941090">
        <ele>250.1</ele>
        <time>2019-08-28T08:56:59Z</time>
      </trkpt>
      <trkpt lat="36.4894330" lon="-5.2942410">
        <ele>249.7</ele>
        <time>2019-08-28T08:57:00Z</time>
      </trkpt>
      <trkpt lat="36.4893850" lon="-5.2943750">
        <ele>249.1</ele>
        <time>2019-08-28T08:57:01Z</time>
      </trkpt>
      <trkpt lat="36.4893360" lon="-5.2945080">
        <ele>248.0</ele>
        <time>2019-08-28T08:57:02Z</time>
      </trkpt>
      <trkpt lat="36.4892860" lon="-5.2946410">
        <ele>247.1</ele>
        <time>2019-08-28T08:57:03Z</time>
      </trkpt>
      <trkpt lat="36.4892350" lon="-5.2947710">
        <ele>245.9</ele>
        <time>2019-08-28T08:57:04Z</time>
      </trkpt>
      <trkpt lat="36.4891780" lon="-5.2948970">
        <ele>244.6</ele>
        <time>2019-08-28T08:57:05Z</time>
      </trkpt>
      <trkpt lat="36.4891130" lon="-5.2950170">
        <ele>243.3</ele>
        <time>2019-08-28T08:57:06Z</time>
      </trkpt>
      <trkpt lat="36.4890390" lon="-5.2951280">
        <ele>242.0</ele>
        <time>2019-08-28T08:57:07Z</time>
      </trkpt>
      <trkpt lat="36.4889580" lon="-5.2952340">
        <ele>240.8</ele>
        <time>2019-08-28T08:57:08Z</time>
      </trkpt>
      <trkpt lat="36.4888700" lon="-5.2953360">
        <ele>239.7</ele>
        <time>2019-08-28T08:57:09Z</time>
      </trkpt>
      <trkpt lat="36.4887780" lon="-5.2954360">
        <ele>238.7</ele>
        <time>2019-08-28T08:57:10Z</time>
      </trkpt>
      <trkpt lat="36.4886840" lon="-5.2955350">
        <ele>237.7</ele>
        <time>2019-08-28T08:57:11Z</time>
      </trkpt>
      <trkpt lat="36.4885910" lon="-5.2956350">
        <ele>236.7</ele>
        <time>2019-08-28T08:57:12Z</time>
      </trkpt>
      <trkpt lat="36.4884970" lon="-5.2957340">
        <ele>235.8</ele>
        <time>2019-08-28T08:57:13Z</time>
      </trkpt>
      <trkpt lat="36.4884040" lon="-5.2958340">
        <ele>235.2</ele>
        <time>2019-08-28T08:57:14Z</time>
      </trkpt>
      <trkpt lat="36.4883100" lon="-5.2959330">
        <ele>234.5</ele>
        <time>2019-08-28T08:57:15Z</time>
      </trkpt>
      <trkpt lat="36.4882160" lon="-5.2960320">
        <ele>233.8</ele>
        <time>2019-08-28T08:57:16Z</time>
      </trkpt>
      <trkpt lat="36.4881220" lon="-5.2961290">
        <ele>233.4</ele>
        <time>2019-08-28T08:57:17Z</time>
      </trkpt>
      <trkpt lat="36.4880280" lon="-5.2962250">
        <ele>233.0</ele>
        <time>2019-08-28T08:57:18Z</time>
      </trkpt>
      <trkpt lat="36.4879340" lon="-5.2963200">
        <ele>232.6</ele>
        <time>2019-08-28T08:57:19Z</time>
      </trkpt>
      <trkpt lat="36.4878420" lon="-5.2964150">
        <ele>232.3</ele>
        <time>2019-08-28T08:57:20Z</time>
      </trkpt>
      <trkpt lat="36.4877580" lon="-5.2965140">
        <ele>232.0</ele>
        <time>2019-08-28T08:57:21Z</time>
      </trkpt>
      <trkpt lat="36.4876890" lon="-5.2966210">
        <ele>231.6</ele>
        <time>2019-08-28T08:57:22Z</time>
      </trkpt>
      <trkpt lat="36.4876430" lon="-5.2967350">
        <ele>231.2</ele>
        <time>2019-08-28T08:57:23Z</time>
      </trkpt>
      <trkpt lat="36.4876180" lon="-5.2968540">
        <ele>230.7</ele>
        <time>2019-08-28T08:57:24Z</time>
      </trkpt>
      <trkpt lat="36.4876200" lon="-5.2969670">
        <ele>229.9</ele>
        <time>2019-08-28T08:57:25Z</time>
      </trkpt>
      <trkpt lat="36.4876490" lon="-5.2970700">
        <ele>229.0</ele>
        <time>2019-08-28T08:57:26Z</time>
      </trkpt>
      <trkpt lat="36.4877080" lon="-5.2971550">
        <ele>227.8</ele>
        <time>2019-08-28T08:57:27Z</time>
      </trkpt>
      <trkpt lat="36.4877900" lon="-5.2972140">
        <ele>226.7</ele>
        <time>2019-08-28T08:57:28Z</time>
      </trkpt>
      <trkpt lat="36.4878890" lon="-5.2972490">
        <ele>225.5</ele>
        <time>2019-08-28T08:57:29Z</time>
      </trkpt>
      <trkpt lat="36.4879990" lon="-5.2972610">
        <ele>224.3</ele>
        <time>2019-08-28T08:57:30Z</time>
      </trkpt>
      <trkpt lat="36.4881110" lon="-5.2972590">
        <ele>223.0</ele>
        <time>2019-08-28T08:57:31Z</time>
      </trkpt>
      <trkpt lat="36.4882260" lon="-5.2972430">
        <ele>221.8</ele>
        <time>2019-08-28T08:57:32Z</time>
      </trkpt>
      <trkpt lat="36.4883430" lon="-5.2972140">
        <ele>220.6</ele>
        <time>2019-08-28T08:57:33Z</time>
      </trkpt>
      <trkpt lat="36.4884630" lon="-5.2971790">
        <ele>219.4</ele>
        <time>2019-08-28T08:57:34Z</time>
      </trkpt>
      <trkpt lat="36.4885870" lon="-5.2971430">
        <ele>218.2</ele>
        <time>2019-08-28T08:57:35Z</time>
      </trkpt>
      <trkpt lat="36.4887140" lon="-5.2971090">
        <ele>217.0</ele>
        <time>2019-08-28T08:57:36Z</time>
      </trkpt>
      <trkpt lat="36.4888430" lon="-5.2970750">
        <ele>215.9</ele>
        <time>2019-08-28T08:57:37Z</time>
      </trkpt>
      <trkpt lat="36.4889740" lon="-5.2970410">
        <ele>214.9</ele>
        <time>2019-08-28T08:57:38Z</time>
      </trkpt>
      <trkpt lat="36.4891050" lon="-5.2970080">
        <ele>213.9</ele>
        <time>2019-08-28T08:57:39Z</time>
      </trkpt>
      <trkpt lat="36.4892380" lon="-5.2969760">
        <ele>212.9</ele>
        <time>2019-08-28T08:57:40Z</time>
      </trkpt>
      <trkpt lat="36.4893700" lon="-5.2969450">
        <ele>212.0</ele>
        <time>2019-08-28T08:57:41Z</time>
      </trkpt>
      <trkpt lat="36.4895030" lon="-5.2969160">
        <ele>211.1</ele>
        <time>2019-08-28T08:57:42Z</time>
      </trkpt>
      <trkpt lat="36.4896360" lon="-5.2968870">
        <ele>210.5</ele>
        <time>2019-08-28T08:57:43Z</time>
      </trkpt>
      <trkpt lat="36.4897700" lon="-5.2968570">
        <ele>209.9</ele>
        <time>2019-08-28T08:57:44Z</time>
      </trkpt>
      <trkpt lat="36.4899030" lon="-5.2968260">
        <ele>209.3</ele>
        <time>2019-08-28T08:57:45Z</time>
      </trkpt>
      <trkpt lat="36.4900370" lon="-5.2967930">
        <ele>208.6</ele>
        <time>2019-08-28T08:57:46Z</time>
      </trkpt>
      <trkpt lat="36.4901690" lon="-5.2967590">
        <ele>207.9</ele>
        <time>2019-08-28T08:57:47Z</time>
      </trkpt>
      <trkpt lat="36.4903020" lon="-5.2967260">
        <ele>207.1</ele>
        <time>2019-08-28T08:57:48Z</time>
      </trkpt>
      <trkpt lat="36.4904350" lon="-5.2966930">
        <ele>206.2</ele>
        <time>2019-08-28T08:57:49Z</time>
      </trkpt>
      <trkpt lat="36.4905660" lon="-5.2966610">
        <ele>205.4</ele>
        <time>2019-08-28T08:57:50Z</time>
      </trkpt>
      <trkpt lat="36.4906970" lon="-5.2966290">
        <ele>204.5</ele>
        <time>2019-08-28T08:57:51Z</time>
      </trkpt>
      <trkpt lat="36.4908260" lon="-5.2965980">
        <ele>203.7</ele>
        <time>2019-08-28T08:57:52Z</time>
      </trkpt>
      <trkpt lat="36.4909540" lon="-5.2965680">
        <ele>202.8</ele>
        <time>2019-08-28T08:57:53Z</time>
      </trkpt>
      <trkpt lat="36.4910810" lon="-5.2965410">
        <ele>202.2</ele>
        <time>2019-08-28T08:57:54Z</time>
      </trkpt>
      <trkpt lat="36.4912080" lon="-5.2965220">
        <ele>201.2</ele>
        <time>2019-08-28T08:57:55Z</time>
      </trkpt>
      <trkpt lat="36.4913330" lon="-5.2965160">
        <ele>200.5</ele>
        <time>2019-08-28T08:57:56Z</time>
      </trkpt>
      <trkpt lat="36.4914570" lon="-5.2965230">
        <ele>199.9</ele>
        <time>2019-08-28T08:57:57Z</time>
      </trkpt>
      <trkpt lat="36.4915800" lon="-5.2965400">
        <ele>199.4</ele>
        <time>2019-08-28T08:57:58Z</time>
      </trkpt>
      <trkpt lat="36.4917010" lon="-5.2965630">
        <ele>199.1</ele>
        <time>2019-08-28T08:57:59Z</time>
      </trkpt>
      <trkpt lat="36.4918200" lon="-5.2965860">
        <ele>198.8</ele>
        <time>2019-08-28T08:58:00Z</time>
      </trkpt>
      <trkpt lat="36.4919390" lon="-5.2966070">
        <ele>198.5</ele>
        <time>2019-08-28T08:58:01Z</time>
      </trkpt>
      <trkpt lat="36.4920570" lon="-5.2966220">
        <ele>198.1</ele>
        <time>2019-08-28T08:58:02Z</time>
      </trkpt>
      <trkpt lat="36.4921760" lon="-5.2966290">
        <ele>197.6</ele>
        <time>2019-08-28T08:58:03Z</time>
      </trkpt>
      <trkpt lat="36.4922950" lon="-5.2966300">
        <ele>197.1</ele>
        <time>2019-08-28T08:58:04Z</time>
      </trkpt>
      <trkpt lat="36.4924130" lon="-5.2966240">
        <ele>196.5</ele>
        <time>2019-08-28T08:58:05Z</time>
      </trkpt>
      <trkpt lat="36.4925310" lon="-5.2966120">
        <ele>196.0</ele>
        <time>2019-08-28T08:58:06Z</time>
      </trkpt>
      <trkpt lat="36.4926480" lon="-5.2965950">
        <ele>195.6</ele>
        <time>2019-08-28T08:58:07Z</time>
      </trkpt>
      <trkpt lat="36.4927640" lon="-5.2965750">
        <ele>195.2</ele>
        <time>2019-08-28T08:58:08Z</time>
      </trkpt>
      <trkpt lat="36.4928800" lon="-5.2965500">
        <ele>194.7</ele>
        <time>2019-08-28T08:58:09Z</time>
      </trkpt>
      <trkpt lat="36.4929950" lon="-5.2965210">
        <ele>194.2</ele>
        <time>2019-08-28T08:58:10Z</time>
      </trkpt>
      <trkpt lat="36.4931100" lon="-5.2964850">
        <ele>193.7</ele>
        <time>2019-08-28T08:58:11Z</time>
      </trkpt>
      <trkpt lat="36.4932230" lon="-5.2964410">
        <ele>193.1</ele>
        <time>2019-08-28T08:58:12Z</time>
      </trkpt>
      <trkpt lat="36.4933340" lon="-5.2963860">
        <ele>192.4</ele>
        <time>2019-08-28T08:58:13Z</time>
      </trkpt>
      <trkpt lat="36.4934410" lon="-5.2963220">
        <ele>191.7</ele>
        <time>2019-08-28T08:58:14Z</time>
      </trkpt>
      <trkpt lat="36.4935450" lon="-5.2962480">
        <ele>191.0</ele>
        <time>2019-08-28T08:58:15Z</time>
      </trkpt>
      <trkpt lat="36.4936460" lon="-5.2961660">
        <ele>190.4</ele>
        <time>2019-08-28T08:58:16Z</time>
      </trkpt>
      <trkpt lat="36.4937430" lon="-5.2960770">
        <ele>189.8</ele>
        <time>2019-08-28T08:58:17Z</time>
      </trkpt>
      <trkpt lat="36.4938370" lon="-5.2959800">
        <ele>189.2</ele>
        <time>2019-08-28T08:58:18Z</time>
      </trkpt>
      <trkpt lat="36.4939270" lon="-5.2958760">
        <ele>188.6</ele>
        <time>2019-08-28T08:58:19Z</time>
      </trkpt>
      <trkpt lat="36.4940110" lon="-5.2957630">
        <ele>188.0</ele>
        <time>2019-08-28T08:58:20Z</time>
      </trkpt>
      <trkpt lat="36.4940890" lon="-5.2956410">
        <ele>187.2</ele>
        <time>2019-08-28T08:58:21Z</time>
      </trkpt>
      <trkpt lat="36.4941630" lon="-5.2955110">
        <ele>186.2</ele>
        <time>2019-08-28T08:58:22Z</time>
      </trkpt>
      <trkpt lat="36.4942350" lon="-5.2953780">
        <ele>185.1</ele>
        <time>2019-08-28T08:58:23Z</time>
      </trkpt>
      <trkpt lat="36.4943080" lon="-5.2952440">
        <ele>183.8</ele>
        <time>2019-08-28T08:58:24Z</time>
      </trkpt>
      <trkpt lat="36.4943840" lon="-5.2951150">
        <ele>182.6</ele>
        <time>2019-08-28T08:58:25Z</time>
      </trkpt>
      <trkpt lat="36.4944670" lon="-5.2949950">
        <ele>181.4</ele>
        <time>2019-08-28T08:58:26Z</time>
      </trkpt>
      <trkpt lat="36.4945590" lon="-5.2948950">
        <ele>180.3</ele>
        <time>2019-08-28T08:58:27Z</time>
      </trkpt>
      <trkpt lat="36.4946650" lon="-5.2948210">
        <ele>179.5</ele>
        <time>2019-08-28T08:58:28Z</time>
      </trkpt>
      <trkpt lat="36.4947830" lon="-5.2947790">
        <ele>178.4</ele>
        <time>2019-08-28T08:58:29Z</time>
      </trkpt>
      <trkpt lat="36.4949090" lon="-5.2947630">
        <ele>177.6</ele>
        <time>2019-08-28T08:58:30Z</time>
      </trkpt>
      <trkpt lat="36.4950380" lon="-5.2947660">
        <ele>176.7</ele>
        <time>2019-08-28T08:58:31Z</time>
      </trkpt>
      <trkpt lat="36.4951680" lon="-5.2947790">
        <ele>175.9</ele>
        <time>2019-08-28T08:58:32Z</time>
      </trkpt>
      <trkpt lat="36.4953000" lon="-5.2947990">
        <ele>175.0</ele>
        <time>2019-08-28T08:58:33Z</time>
      </trkpt>
      <trkpt lat="36.4954330" lon="-5.2948240">
        <ele>174.1</ele>
        <time>2019-08-28T08:58:34Z</time>
      </trkpt>
      <trkpt lat="36.4955660" lon="-5.2948550">
        <ele>173.0</ele>
        <time>2019-08-28T08:58:35Z</time>
      </trkpt>
      <trkpt lat="36.4957000" lon="-5.2948890">
        <ele>171.6</ele>
        <time>2019-08-28T08:58:36Z</time>
      </trkpt>
      <trkpt lat="36.4958350" lon="-5.2949270">
        <ele>170.3</ele>
        <time>2019-08-28T08:58:37Z</time>
      </trkpt>
      <trkpt lat="36.4959710" lon="-5.2949670">
        <ele>169.1</ele>
        <time>2019-08-28T08:58:38Z</time>
      </trkpt>
      <trkpt lat="36.4961080" lon="-5.2950090">
        <ele>167.8</ele>
        <time>2019-08-28T08:58:39Z</time>
      </trkpt>
      <trkpt lat="36.4962450" lon="-5.2950570">
        <ele>166.5</ele>
        <time>2019-08-28T08:58:40Z</time>
      </trkpt>
      <trkpt lat="36.4963800" lon="-5.2951100">
        <ele>165.2</ele>
        <time>2019-08-28T08:58:41Z</time>
      </trkpt>
      <trkpt lat="36.4965090" lon="-5.2951660">
        <ele>163.8</ele>
        <time>2019-08-28T08:58:42Z</time>
      </trkpt>
      <trkpt lat="36.4966280" lon="-5.2952250">
        <ele>162.5</ele>
        <time>2019-08-28T08:58:43Z</time>
      </trkpt>
      <trkpt lat="36.4967370" lon="-5.2952880">
        <ele>161.2</ele>
        <time>2019-08-28T08:58:44Z</time>
      </trkpt>
      <trkpt lat="36.4968380" lon="-5.2953610">
        <ele>159.8</ele>
        <time>2019-08-28T08:58:45Z</time>
      </trkpt>
      <trkpt lat="36.4969340" lon="-5.2954510">
        <ele>158.3</ele>
        <time>2019-08-28T08:58:46Z</time>
      </trkpt>
      <trkpt lat="36.4970150" lon="-5.2955670">
        <ele>156.7</ele>
        <time>2019-08-28T08:58:47Z</time>
      </trkpt>
      <trkpt lat="36.4970760" lon="-5.2957070">
        <ele>154.9</ele>
        <time>2019-08-28T08:58:48Z</time>
      </trkpt>
      <trkpt lat="36.4971120" lon="-5.2958730">
        <ele>153.2</ele>
        <time>2019-08-28T08:58:49Z</time>
      </trkpt>
      <trkpt lat="36.4971310" lon="-5.2960490">
        <ele>151.6</ele>
        <time>2019-08-28T08:58:50Z</time>
      </trkpt>
      <trkpt lat="36.4971360" lon="-5.2962290">
        <ele>150.1</ele>
        <time>2019-08-28T08:58:51Z</time>
      </trkpt>
      <trkpt lat="36.4971360" lon="-5.2964060">
        <ele>148.8</ele>
        <time>2019-08-28T08:58:52Z</time>
      </trkpt>
      <trkpt lat="36.4971300" lon="-5.2965820">
        <ele>147.6</ele>
        <time>2019-08-28T08:58:53Z</time>
      </trkpt>
      <trkpt lat="36.4971210" lon="-5.2967580">
        <ele>146.4</ele>
        <time>2019-08-28T08:58:54Z</time>
      </trkpt>
      <trkpt lat="36.4971120" lon="-5.2969370">
        <ele>145.1</ele>
        <time>2019-08-28T08:58:55Z</time>
      </trkpt>
      <trkpt lat="36.4971030" lon="-5.2971170">
        <ele>143.9</ele>
        <time>2019-08-28T08:58:56Z</time>
      </trkpt>
      <trkpt lat="36.4970940" lon="-5.2972970">
        <ele>142.8</ele>
        <time>2019-08-28T08:58:57Z</time>
      </trkpt>
      <trkpt lat="36.4970830" lon="-5.2974780">
        <ele>141.5</ele>
        <time>2019-08-28T08:58:58Z</time>
      </trkpt>
      <trkpt lat="36.4970710" lon="-5.2976590">
        <ele>140.3</ele>
        <time>2019-08-28T08:58:59Z</time>
      </trkpt>
      <trkpt lat="36.4970590" lon="-5.2978410">
        <ele>139.0</ele>
        <time>2019-08-28T08:59:00Z</time>
      </trkpt>
      <trkpt lat="36.4970490" lon="-5.2980230">
        <ele>137.7</ele>
        <time>2019-08-28T08:59:01Z</time>
      </trkpt>
      <trkpt lat="36.4970400" lon="-5.2982030">
        <ele>136.6</ele>
        <time>2019-08-28T08:59:02Z</time>
      </trkpt>
      <trkpt lat="36.4970330" lon="-5.2983800">
        <ele>135.5</ele>
        <time>2019-08-28T08:59:03Z</time>
      </trkpt>
      <trkpt lat="36.4970250" lon="-5.2985530">
        <ele>134.5</ele>
        <time>2019-08-28T08:59:04Z</time>
      </trkpt>
      <trkpt lat="36.4970150" lon="-5.2987220">
        <ele>133.6</ele>
        <time>2019-08-28T08:59:05Z</time>
      </trkpt>
      <trkpt lat="36.4970010" lon="-5.2988880">
        <ele>132.7</ele>
        <time>2019-08-28T08:59:06Z</time>
      </trkpt>
      <trkpt lat="36.4969780" lon="-5.2990500">
        <ele>131.7</ele>
        <time>2019-08-28T08:59:07Z</time>
      </trkpt>
      <trkpt lat="36.4969450" lon="-5.2992080">
        <ele>130.8</ele>
        <time>2019-08-28T08:59:08Z</time>
      </trkpt>
      <trkpt lat="36.4969030" lon="-5.2993620">
        <ele>129.8</ele>
        <time>2019-08-28T08:59:09Z</time>
      </trkpt>
      <trkpt lat="36.4968520" lon="-5.2995130">
        <ele>128.7</ele>
        <time>2019-08-28T08:59:10Z</time>
      </trkpt>
      <trkpt lat="36.4967960" lon="-5.2996630">
        <ele>127.5</ele>
        <time>2019-08-28T08:59:11Z</time>
      </trkpt>
      <trkpt lat="36.4967370" lon="-5.2998120">
        <ele>126.3</ele>
        <time>2019-08-28T08:59:12Z</time>
      </trkpt>
      <trkpt lat="36.4966760" lon="-5.2999620">
        <ele>125.0</ele>
        <time>2019-08-28T08:59:13Z</time>
      </trkpt>
      <trkpt lat="36.4966150" lon="-5.3001130">
        <ele>123.7</ele>
        <time>2019-08-28T08:59:14Z</time>
      </trkpt>
      <trkpt lat="36.4965550" lon="-5.3002630">
        <ele>122.3</ele>
        <time>2019-08-28T08:59:15Z</time>
      </trkpt>
      <trkpt lat="36.4964940" lon="-5.3004130">
        <ele>120.9</ele>
        <time>2019-08-28T08:59:16Z</time>
      </trkpt>
      <trkpt lat="36.4964340" lon="-5.3005600">
        <ele>119.6</ele>
        <time>2019-08-28T08:59:17Z</time>
      </trkpt>
      <trkpt lat="36.4963730" lon="-5.3007050">
        <ele>118.5</ele>
        <time>2019-08-28T08:59:18Z</time>
      </trkpt>
      <trkpt lat="36.4963100" lon="-5.3008440">
        <ele>117.4</ele>
        <time>2019-08-28T08:59:19Z</time>
      </trkpt>
      <trkpt lat="36.4962460" lon="-5.3009770">
        <ele>116.5</ele>
        <time>2019-08-28T08:59:20Z</time>
      </trkpt>
      <trkpt lat="36.4961760" lon="-5.3011010">
        <ele>115.8</ele>
        <time>2019-08-28T08:59:21Z</time>
      </trkpt>
      <trkpt lat="36.4961010" lon="-5.3012140">
        <ele>115.2</ele>
        <time>2019-08-28T08:59:22Z</time>
      </trkpt>
      <trkpt lat="36.4960190" lon="-5.3013180">
        <ele>114.6</ele>
        <time>2019-08-28T08:59:23Z</time>
      </trkpt>
      <trkpt lat="36.4959330" lon="-5.3014150">
        <ele>114.1</ele>
        <time>2019-08-28T08:59:24Z</time>
      </trkpt>
      <trkpt lat="36.4958460" lon="-5.3015090">
        <ele>113.5</ele>
        <time>2019-08-28T08:59:25Z</time>
      </trkpt>
      <trkpt lat="36.4957560" lon="-5.3015970">
        <ele>112.9</ele>
        <time>2019-08-28T08:59:26Z</time>
      </trkpt>
      <trkpt lat="36.4956670" lon="-5.3016860">
        <ele>112.1</ele>
        <time>2019-08-28T08:59:27Z</time>
      </trkpt>
      <trkpt lat="36.4955790" lon="-5.3017770">
        <ele>111.3</ele>
        <time>2019-08-28T08:59:28Z</time>
      </trkpt>
      <trkpt lat="36.4954940" lon="-5.3018720">
        <ele>110.4</ele>
        <time>2019-08-28T08:59:29Z</time>
      </trkpt>
      <trkpt lat="36.4954120" lon="-5.3019670">
        <ele>109.5</ele>
        <time>2019-08-28T08:59:30Z</time>
      </trkpt>
      <trkpt lat="36.4953310" lon="-5.3020630">
        <ele>108.6</ele>
        <time>2019-08-28T08:59:31Z</time>
      </trkpt>
      <trkpt lat="36.4952520" lon="-5.3021560">
        <ele>107.8</ele>
        <time>2019-08-28T08:59:32Z</time>
      </trkpt>
      <trkpt lat="36.4951750" lon="-5.3022480">
        <ele>107.0</ele>
        <time>2019-08-28T08:59:33Z</time>
      </trkpt>
      <trkpt lat="36.4950990" lon="-5.3023380">
        <ele>106.4</ele>
        <time>2019-08-28T08:59:34Z</time>
      </trkpt>
      <trkpt lat="36.4950230" lon="-5.3024260">
        <ele>105.8</ele>
        <time>2019-08-28T08:59:35Z</time>
      </trkpt>
      <trkpt lat="36.4949490" lon="-5.3025130">
        <ele>105.4</ele>
        <time>2019-08-28T08:59:36Z</time>
      </trkpt>
      <trkpt lat="36.4948750" lon="-5.3025990">
        <ele>104.9</ele>
        <time>2019-08-28T08:59:37Z</time>
      </trkpt>
      <trkpt lat="36.4948010" lon="-5.3026840">
        <ele>104.6</ele>
        <time>2019-08-28T08:59:38Z</time>
      </trkpt>
      <trkpt lat="36.4947270" lon="-5.3027670">
        <ele>104.3</ele>
        <time>2019-08-28T08:59:39Z</time>
      </trkpt>
      <trkpt lat="36.4946520" lon="-5.3028490">
        <ele>104.0</ele>
        <time>2019-08-28T08:59:40Z</time>
      </trkpt>
      <trkpt lat="36.4945740" lon="-5.3029290">
        <ele>103.7</ele>
        <time>2019-08-28T08:59:41Z</time>
      </trkpt>
      <trkpt lat="36.4944950" lon="-5.3030080">
        <ele>103.5</ele>
        <time>2019-08-28T08:59:42Z</time>
      </trkpt>
      <trkpt lat="36.4944140" lon="-5.3030860">
        <ele>103.3</ele>
        <time>2019-08-28T08:59:43Z</time>
      </trkpt>
      <trkpt lat="36.4943310" lon="-5.3031640">
        <ele>103.1</ele>
        <time>2019-08-28T08:59:44Z</time>
      </trkpt>
      <trkpt lat="36.4942480" lon="-5.3032430">
        <ele>103.0</ele>
        <time>2019-08-28T08:59:45Z</time>
      </trkpt>
      <trkpt lat="36.4941620" lon="-5.3033220">
        <ele>102.8</ele>
        <time>2019-08-28T08:59:46Z</time>
      </trkpt>
      <trkpt lat="36.4940750" lon="-5.3034010">
        <ele>102.6</ele>
        <time>2019-08-28T08:59:47Z</time>
      </trkpt>
      <trkpt lat="36.4939860" lon="-5.3034800">
        <ele>102.4</ele>
        <time>2019-08-28T08:59:48Z</time>
      </trkpt>
      <trkpt lat="36.4938940" lon="-5.3035590">
        <ele>102.1</ele>
        <time>2019-08-28T08:59:49Z</time>
      </trkpt>
      <trkpt lat="36.4938030" lon="-5.3036410">
        <ele>101.7</ele>
        <time>2019-08-28T08:59:50Z</time>
      </trkpt>
      <trkpt lat="36.4937100" lon="-5.3037240">
        <ele>101.2</ele>
        <time>2019-08-28T08:59:51Z</time>
      </trkpt>
      <trkpt lat="36.4936170" lon="-5.3038090">
        <ele>100.7</ele>
        <time>2019-08-28T08:59:52Z</time>
      </trkpt>
      <trkpt lat="36.4935220" lon="-5.3038950">
        <ele>99.9</ele>
        <time>2019-08-28T08:59:53Z</time>
      </trkpt>
      <trkpt lat="36.4934260" lon="-5.3039830">
        <ele>99.1</ele>
        <time>2019-08-28T08:59:54Z</time>
      </trkpt>
      <trkpt lat="36.4933290" lon="-5.3040710">
        <ele>98.1</ele>
        <time>2019-08-28T08:59:55Z</time>
      </trkpt>
      <trkpt lat="36.4932290" lon="-5.3041570">
        <ele>97.2</ele>
        <time>2019-08-28T08:59:56Z</time>
      </trkpt>
      <trkpt lat="36.4931290" lon="-5.3042420">
        <ele>96.2</ele>
        <time>2019-08-28T08:59:57Z</time>
      </trkpt>
      <trkpt lat="36.4930280" lon="-5.3043270">
        <ele>95.2</ele>
        <time>2019-08-28T08:59:58Z</time>
      </trkpt>
      <trkpt lat="36.4929300" lon="-5.3044140">
        <ele>94.2</ele>
        <time>2019-08-28T08:59:59Z</time>
      </trkpt>
      <trkpt lat="36.4928320" lon="-5.3045000">
        <ele>93.2</ele>
        <time>2019-08-28T09:00:00Z</time>
      </trkpt>
      <trkpt lat="36.4927350" lon="-5.3045850">
        <ele>92.2</ele>
        <time>2019-08-28T09:00:01Z</time>
      </trkpt>
      <trkpt lat="36.4926410" lon="-5.3046710">
        <ele>91.1</ele>
        <time>2019-08-28T09:00:02Z</time>
      </trkpt>
      <trkpt lat="36.4925520" lon="-5.3047630">
        <ele>90.1</ele>
        <time>2019-08-28T09:00:03Z</time>
      </trkpt>
      <trkpt lat="36.4924720" lon="-5.3048650">
        <ele>89.0</ele>
        <time>2019-08-28T09:00:04Z</time>
      </trkpt>
      <trkpt lat="36.4924010" lon="-5.3049770">
        <ele>87.9</ele>
        <time>2019-08-28T09:00:05Z</time>
      </trkpt>
      <trkpt lat="36.4923400" lon="-5.3050980">
        <ele>86.8</ele>
        <time>2019-08-28T09:00:06Z</time>
      </trkpt>
      <trkpt lat="36.4922930" lon="-5.3052270">
        <ele>85.8</ele>
        <time>2019-08-28T09:00:07Z</time>
      </trkpt>
      <trkpt lat="36.4922630" lon="-5.3053620">
        <ele>84.8</ele>
        <time>2019-08-28T09:00:08Z</time>
      </trkpt>
      <trkpt lat="36.4922520" lon="-5.3054990">
        <ele>83.8</ele>
        <time>2019-08-28T09:00:09Z</time>
      </trkpt>
      <trkpt lat="36.4922610" lon="-5.3056320">
        <ele>83.5</ele>
        <time>2019-08-28T09:00:10Z</time>
      </trkpt>
      <trkpt lat="36.4922910" lon="-5.3057540">
        <ele>84.2</ele>
        <time>2019-08-28T09:00:11Z</time>
      </trkpt>
      <trkpt lat="36.4923390" lon="-5.3058650">
        <ele>84.8</ele>
        <time>2019-08-28T09:00:12Z</time>
      </trkpt>
      <trkpt lat="36.4923970" lon="-5.3059680">
        <ele>85.4</ele>
        <time>2019-08-28T09:00:13Z</time>
      </trkpt>
      <trkpt lat="36.4924590" lon="-5.3060660">
        <ele>86.1</ele>
        <time>2019-08-28T09:00:14Z</time>
      </trkpt>
      <trkpt lat="36.4925190" lon="-5.3061630">
        <ele>86.7</ele>
        <time>2019-08-28T09:00:15Z</time>
      </trkpt>
      <trkpt lat="36.4925800" lon="-5.3062580">
        <ele>87.4</ele>
        <time>2019-08-28T09:00:16Z</time>
      </trkpt>
      <trkpt lat="36.4926410" lon="-5.3063500">
        <ele>88.1</ele>
        <time>2019-08-28T09:00:17Z</time>
      </trkpt>
      <trkpt lat="36.4927020" lon="-5.3064410">
        <ele>88.8</ele>
        <time>2019-08-28T09:00:18Z</time>
      </trkpt>
      <trkpt lat="36.4927590" lon="-5.3065310">
        <ele>90.7</ele>
        <time>2019-08-28T09:00:19Z</time>
      </trkpt>
      <trkpt lat="36.4928120" lon="-5.3066210">
        <ele>92.3</ele>
        <time>2019-08-28T09:00:20Z</time>
      </trkpt>
      <trkpt lat="36.4928560" lon="-5.3067090">
        <ele>93.7</ele>
        <time>2019-08-28T09:00:21Z</time>
      </trkpt>
      <trkpt lat="36.4928920" lon="-5.3067950">
        <ele>95.2</ele>
        <time>2019-08-28T09:00:22Z</time>
      </trkpt>
      <trkpt lat="36.4929180" lon="-5.3068800">
        <ele>96.7</ele>
        <time>2019-08-28T09:00:23Z</time>
      </trkpt>
      <trkpt lat="36.4929380" lon="-5.3069640">
        <ele>99.3</ele>
        <time>2019-08-28T09:00:24Z</time>
      </trkpt>
      <trkpt lat="36.4929530" lon="-5.3070450">
        <ele>100.2</ele>
        <time>2019-08-28T09:00:25Z</time>
      </trkpt>
      <trkpt lat="36.4929610" lon="-5.3071210">
        <ele>101.0</ele>
        <time>2019-08-28T09:00:26Z</time>
      </trkpt>
      <trkpt lat="36.4929570" lon="-5.3071940">
        <ele>101.7</ele>
        <time>2019-08-28T09:00:27Z</time>
      </trkpt>
      <trkpt lat="36.4929460" lon="-5.3072620">
        <ele>102.4</ele>
        <time>2019-08-28T09:00:28Z</time>
      </trkpt>
      <trkpt lat="36.4929290" lon="-5.3073260">
        <ele>103.0</ele>
        <time>2019-08-28T09:00:29Z</time>
      </trkpt>
      <trkpt lat="36.4929130" lon="-5.3073790">
        <ele>103.5</ele>
        <time>2019-08-28T09:00:30Z</time>
      </trkpt>
      <trkpt lat="36.4928930" lon="-5.3074180">
        <ele>104.0</ele>
        <time>2019-08-28T09:00:31Z</time>
      </trkpt>
      <trkpt lat="36.4928750" lon="-5.3074510">
        <ele>104.3</ele>
        <time>2019-08-28T09:00:32Z</time>
      </trkpt>
      <trkpt lat="36.4928560" lon="-5.3074810">
        <ele>104.7</ele>
        <time>2019-08-28T09:00:33Z</time>
      </trkpt>
      <trkpt lat="36.4928400" lon="-5.3075130">
        <ele>105.0</ele>
        <time>2019-08-28T09:00:34Z</time>
      </trkpt>
      <trkpt lat="36.4928260" lon="-5.3075430">
        <ele>105.3</ele>
        <time>2019-08-28T09:00:35Z</time>
      </trkpt>
      <trkpt lat="36.4928140" lon="-5.3075730">
        <ele>105.6</ele>
        <time>2019-08-28T09:00:36Z</time>
      </trkpt>
      <trkpt lat="36.4928010" lon="-5.3076030">
        <ele>105.9</ele>
        <time>2019-08-28T09:00:37Z</time>
      </trkpt>
      <trkpt lat="36.4927880" lon="-5.3076330">
        <ele>106.2</ele>
        <time>2019-08-28T09:00:38Z</time>
      </trkpt>
      <trkpt lat="36.4927740" lon="-5.3076650">
        <ele>106.5</ele>
        <time>2019-08-28T09:00:39Z</time>
      </trkpt>
      <trkpt lat="36.4927590" lon="-5.3076950">
        <ele>106.8</ele>
        <time>2019-08-28T09:00:40Z</time>
      </trkpt>
      <trkpt lat="36.4927430" lon="-5.3077240">
        <ele>107.1</ele>
        <time>2019-08-28T09:00:41Z</time>
      </trkpt>
      <trkpt lat="36.4927280" lon="-5.3077500">
        <ele>107.4</ele>
        <time>2019-08-28T09:00:42Z</time>
      </trkpt>
      <trkpt lat="36.4927120" lon="-5.3077740">
        <ele>107.7</ele>
        <time>2019-08-28T09:00:43Z</time>
      </trkpt>
      <trkpt lat="36.4926960" lon="-5.3077970">
        <ele>108.0</ele>
        <time>2019-08-28T09:00:44Z</time>
      </trkpt>
      <trkpt lat="36.4926810" lon="-5.3078200">
        <ele>108.2</ele>
        <time>2019-08-28T09:00:45Z</time>
      </trkpt>
      <trkpt lat="36.4926660" lon="-5.3078420">
        <ele>108.5</ele>
        <time>2019-08-28T09:00:46Z</time>
      </trkpt>
      <trkpt lat="36.4926510" lon="-5.3078640">
        <ele>108.7</ele>
        <time>2019-08-28T09:00:47Z</time>
      </trkpt>
      <trkpt lat="36.4926370" lon="-5.3078880">
        <ele>109.0</ele>
        <time>2019-08-28T09:00:48Z</time>
      </trkpt>
      <trkpt lat="36.4926230" lon="-5.3079130">
        <ele>109.2</ele>
        <time>2019-08-28T09:00:49Z</time>
      </trkpt>
      <trkpt lat="36.4926110" lon="-5.3079390">
        <ele>109.5</ele>
        <time>2019-08-28T09:00:50Z</time>
      </trkpt>
      <trkpt lat="36.4925970" lon="-5.3079640">
        <ele>109.7</ele>
        <time>2019-08-28T09:00:51Z</time>
      </trkpt>
      <trkpt lat="36.4925830" lon="-5.3079890">
        <ele>110.0</ele>
        <time>2019-08-28T09:00:52Z</time>
      </trkpt>
      <trkpt lat="36.4925680" lon="-5.3080120">
        <ele>110.2</ele>
        <time>2019-08-28T09:00:53Z</time>
      </trkpt>
      <trkpt lat="36.4925530" lon="-5.3080360">
        <ele>110.5</ele>
        <time>2019-08-28T09:00:54Z</time>
      </trkpt>
      <trkpt lat="36.4925390" lon="-5.3080600">
        <ele>110.8</ele>
        <time>2019-08-28T09:00:55Z</time>
      </trkpt>
      <trkpt lat="36.4925240" lon="-5.3080830">
        <ele>111.0</ele>
        <time>2019-08-28T09:00:56Z</time>
      </trkpt>
      <trkpt lat="36.4925080" lon="-5.3081050">
        <ele>111.3</ele>
        <time>2019-08-28T09:00:57Z</time>
      </trkpt>
      <trkpt lat="36.4924910" lon="-5.3081280">
        <ele>111.6</ele>
        <time>2019-08-28T09:00:58Z</time>
      </trkpt>
      <trkpt lat="36.4924720" lon="-5.3081490">
        <ele>111.9</ele>
        <time>2019-08-28T09:00:59Z</time>
      </trkpt>
      <trkpt lat="36.4924520" lon="-5.3081670">
        <ele>112.2</ele>
        <time>2019-08-28T09:01:00Z</time>
      </trkpt>
      <trkpt lat="36.4924310" lon="-5.3081840">
        <ele>112.5</ele>
        <time>2019-08-28T09:01:01Z</time>
      </trkpt>
      <trkpt lat="36.4924090" lon="-5.3082000">
        <ele>112.8</ele>
        <time>2019-08-28T09:01:02Z</time>
      </trkpt>
      <trkpt lat="36.4923870" lon="-5.3082160">
        <ele>113.1</ele>
        <time>2019-08-28T09:01:03Z</time>
      </trkpt>
      <trkpt lat="36.4923650" lon="-5.3082270">
        <ele>113.3</ele>
        <time>2019-08-28T09:01:04Z</time>
      </trkpt>
      <trkpt lat="36.4923410" lon="-5.3082370">
        <ele>113.6</ele>
        <time>2019-08-28T09:01:05Z</time>
      </trkpt>
      <trkpt lat="36.4923170" lon="-5.3082460">
        <ele>113.9</ele>
        <time>2019-08-28T09:01:06Z</time>
      </trkpt>
      <trkpt lat="36.4922920" lon="-5.3082560">
        <ele>114.3</ele>
        <time>2019-08-28T09:01:07Z</time>
      </trkpt>
      <trkpt lat="36.4922670" lon="-5.3082640">
        <ele>114.6</ele>
        <time>2019-08-28T09:01:08Z</time>
      </trkpt>
      <trkpt lat="36.4922430" lon="-5.3082720">
        <ele>114.9</ele>
        <time>2019-08-28T09:01:09Z</time>
      </trkpt>
      <trkpt lat="36.4922190" lon="-5.3082800">
        <ele>115.2</ele>
        <time>2019-08-28T09:01:10Z</time>
      </trkpt>
      <trkpt lat="36.4921950" lon="-5.3082870">
        <ele>115.5</ele>
        <time>2019-08-28T09:01:11Z</time>
      </trkpt>
      <trkpt lat="36.4921710" lon="-5.3082910">
        <ele>115.8</ele>
        <time>2019-08-28T09:01:12Z</time>
      </trkpt>
      <trkpt lat="36.4921470" lon="-5.3082950">
        <ele>116.1</ele>
        <time>2019-08-28T09:01:13Z</time>
      </trkpt>
      <trkpt lat="36.4921230" lon="-5.3083000">
        <ele>116.4</ele>
        <time>2019-08-28T09:01:14Z</time>
      </trkpt>
      <trkpt lat="36.4921010" lon="-5.3083030">
        <ele>116.7</ele>
        <time>2019-08-28T09:01:15Z</time>
      </trkpt>
      <trkpt lat="36.4920810" lon="-5.3083020">
        <ele>117.0</ele>
        <time>2019-08-28T09:01:16Z</time>
      </trkpt>
      <trkpt lat="36.4920600" lon="-5.3082980">
        <ele>117.2</ele>
        <time>2019-08-28T09:01:17Z</time>
      </trkpt>
      <trkpt lat="36.4920370" lon="-5.3082940">
        <ele>117.6</ele>
        <time>2019-08-28T09:01:18Z</time>
      </trkpt>
      <trkpt lat="36.4920140" lon="-5.3082920">
        <ele>117.9</ele>
        <time>2019-08-28T09:01:19Z</time>
      </trkpt>
      <trkpt lat="36.4919910" lon="-5.3082900">
        <ele>118.2</ele>
        <time>2019-08-28T09:01:20Z</time>
      </trkpt>
      <trkpt lat="36.4919700" lon="-5.3082880">
        <ele>118.5</ele>
        <time>2019-08-28T09:01:21Z</time>
      </trkpt>
      <trkpt lat="36.4919490" lon="-5.3082910">
        <ele>118.8</ele>
        <time>2019-08-28T09:01:22Z</time>
      </trkpt>
      <trkpt lat="36.4919280" lon="-5.3082990">
        <ele>119.1</ele>
        <time>2019-08-28T09:01:23Z</time>
      </trkpt>
      <trkpt lat="36.4919070" lon="-5.3083120">
        <ele>119.4</ele>
        <time>2019-08-28T09:01:24Z</time>
      </trkpt>
      <trkpt lat="36.4918860" lon="-5.3083240">
        <ele>119.6</ele>
        <time>2019-08-28T09:01:25Z</time>
      </trkpt>
      <trkpt lat="36.4918660" lon="-5.3083380">
        <ele>119.9</ele>
        <time>2019-08-28T09:01:26Z</time>
      </trkpt>
      <trkpt lat="36.4918460" lon="-5.3083570">
        <ele>120.2</ele>
        <time>2019-08-28T09:01:27Z</time>
      </trkpt>
      <trkpt lat="36.4918280" lon="-5.3083780">
        <ele>120.5</ele>
        <time>2019-08-28T09:01:28Z</time>
      </trkpt>
      <trkpt lat="36.4918110" lon="-5.3083970">
        <ele>120.8</ele>
        <time>2019-08-28T09:01:29Z</time>
      </trkpt>
      <trkpt lat="36.4917960" lon="-5.3084170">
        <ele>121.1</ele>
        <time>2019-08-28T09:01:30Z</time>
      </trkpt>
      <trkpt lat="36.4917820" lon="-5.3084380">
        <ele>121.4</ele>
        <time>2019-08-28T09:01:31Z</time>
      </trkpt>
      <trkpt lat="36.4917710" lon="-5.3084620">
        <ele>121.7</ele>
        <time>2019-08-28T09:01:32Z</time>
      </trkpt>
      <trkpt lat="36.4917620" lon="-5.3084880">
        <ele>122.0</ele>
        <time>2019-08-28T09:01:33Z</time>
      </trkpt>
      <trkpt lat="36.4917570" lon="-5.3085200">
        <ele>122.4</ele>
        <time>2019-08-28T09:01:34Z</time>
      </trkpt>
      <trkpt lat="36.4917520" lon="-5.3085570">
        <ele>122.8</ele>
        <time>2019-08-28T09:01:35Z</time>
      </trkpt>
      <trkpt lat="36.4917480" lon="-5.3085970">
        <ele>123.2</ele>
        <time>2019-08-28T09:01:36Z</time>
      </trkpt>
      <trkpt lat="36.4917430" lon="-5.3086400">
        <ele>123.6</ele>
        <time>2019-08-28T09:01:37Z</time>
      </trkpt>
      <trkpt lat="36.4917380" lon="-5.3086830">
        <ele>124.1</ele>
        <time>2019-08-28T09:01:38Z</time>
      </trkpt>
      <trkpt lat="36.4917320" lon="-5.3087270">
        <ele>124.5</ele>
        <time>2019-08-28T09:01:39Z</time>
      </trkpt>
      <trkpt lat="36.4917270" lon="-5.3087690">
        <ele>124.9</ele>
        <time>2019-08-28T09:01:40Z</time>
      </trkpt>
      <trkpt lat="36.4917220" lon="-5.3088080">
        <ele>125.3</ele>
        <time>2019-08-28T09:01:41Z</time>
      </trkpt>
      <trkpt lat="36.4917190" lon="-5.3088450">
        <ele>125.6</ele>
        <time>2019-08-28T09:01:42Z</time>
      </trkpt>
      <trkpt lat="36.4917170" lon="-5.3088800">
        <ele>125.9</ele>
        <time>2019-08-28T09:01:43Z</time>
      </trkpt>
      <trkpt lat="36.4917150" lon="-5.3089150">
        <ele>126.2</ele>
        <time>2019-08-28T09:01:44Z</time>
      </trkpt>
      <trkpt lat="36.4917110" lon="-5.3089500">
        <ele>126.5</ele>
        <time>2019-08-28T09:01:45Z</time>
      </trkpt>
      <trkpt lat="36.4917050" lon="-5.3089850">
        <ele>126.8</ele>
        <time>2019-08-28T09:01:46Z</time>
      </trkpt>
      <trkpt lat="36.4917000" lon="-5.3090190">
        <ele>127.1</ele>
        <time>2019-08-28T09:01:47Z</time>
      </trkpt>
      <trkpt lat="36.4916960" lon="-5.3090520">
        <ele>127.3</ele>
        <time>2019-08-28T09:01:48Z</time>
      </trkpt>
      <trkpt lat="36.4916910" lon="-5.3090850">
        <ele>127.6</ele>
        <time>2019-08-28T09:01:49Z</time>
      </trkpt>
      <trkpt lat="36.4916870" lon="-5.3091160">
        <ele>127.8</ele>
        <time>2019-08-28T09:01:50Z</time>
      </trkpt>
      <trkpt lat="36.4916820" lon="-5.3091470">
        <ele>128.0</ele>
        <time>2019-08-28T09:01:51Z</time>
      </trkpt>
      <trkpt lat="36.4916760" lon="-5.3091770">
        <ele>128.3</ele>
        <time>2019-08-28T09:01:52Z</time>
      </trkpt>
      <trkpt lat="36.4916680" lon="-5.3092040">
        <ele>128.5</ele>
        <time>2019-08-28T09:01:53Z</time>
      </trkpt>
      <trkpt lat="36.4916590" lon="-5.3092320">
        <ele>128.7</ele>
        <time>2019-08-28T09:01:54Z</time>
      </trkpt>
      <trkpt lat="36.4916490" lon="-5.3092590">
        <ele>128.9</ele>
        <time>2019-08-28T09:01:55Z</time>
      </trkpt>
      <trkpt lat="36.4916400" lon="-5.3092850">
        <ele>129.0</ele>
        <time>2019-08-28T09:01:56Z</time>
      </trkpt>
      <trkpt lat="36.4916310" lon="-5.3093100">
        <ele>129.2</ele>
        <time>2019-08-28T09:01:57Z</time>
      </trkpt>
      <trkpt lat="36.4916200" lon="-5.3093350">
        <ele>129.4</ele>
        <time>2019-08-28T09:01:58Z</time>
      </trkpt>
      <trkpt lat="36.4916090" lon="-5.3093590">
        <ele>129.6</ele>
        <time>2019-08-28T09:01:59Z</time>
      </trkpt>
      <trkpt lat="36.4915990" lon="-5.3093830">
        <ele>129.8</ele>
        <time>2019-08-28T09:02:00Z</time>
      </trkpt>
      <trkpt lat="36.4915880" lon="-5.3094060">
        <ele>129.9</ele>
        <time>2019-08-28T09:02:01Z</time>
      </trkpt>
      <trkpt lat="36.4915770" lon="-5.3094290">
        <ele>130.1</ele>
        <time>2019-08-28T09:02:02Z</time>
      </trkpt>
      <trkpt lat="36.4915660" lon="-5.3094530">
        <ele>130.3</ele>
        <time>2019-08-28T09:02:03Z</time>
      </trkpt>
      <trkpt lat="36.4915550" lon="-5.3094760">
        <ele>130.4</ele>
        <time>2019-08-28T09:02:04Z</time>
      </trkpt>
      <trkpt lat="36.4915430" lon="-5.3094970">
        <ele>130.6</ele>
        <time>2019-08-28T09:02:05Z</time>
      </trkpt>
      <trkpt lat="36.4915310" lon="-5.3095170">
        <ele>130.7</ele>
        <time>2019-08-28T09:02:06Z</time>
      </trkpt>
      <trkpt lat="36.4915180" lon="-5.3095380">
        <ele>130.9</ele>
        <time>2019-08-28T09:02:07Z</time>
      </trkpt>
      <trkpt lat="36.4915060" lon="-5.3095590">
        <ele>131.0</ele>
        <time>2019-08-28T09:02:08Z</time>
      </trkpt>
      <trkpt lat="36.4914960" lon="-5.3095810">
        <ele>131.2</ele>
        <time>2019-08-28T09:02:09Z</time>
      </trkpt>
      <trkpt lat="36.4914850" lon="-5.3096030">
        <ele>131.3</ele>
        <time>2019-08-28T09:02:10Z</time>
      </trkpt>
      <trkpt lat="36.4914730" lon="-5.3096260">
        <ele>131.5</ele>
        <time>2019-08-28T09:02:11Z</time>
      </trkpt>
      <trkpt lat="36.4914610" lon="-5.3096490">
        <ele>131.6</ele>
        <time>2019-08-28T09:02:12Z</time>
      </trkpt>
      <trkpt lat="36.4914470" lon="-5.3096710">
        <ele>131.8</ele>
        <time>2019-08-28T09:02:13Z</time>
      </trkpt>
      <trkpt lat="36.4914340" lon="-5.3096930">
        <ele>132.0</ele>
        <time>2019-08-28T09:02:14Z</time>
      </trkpt>
      <trkpt lat="36.4914220" lon="-5.3097150">
        <ele>132.1</ele>
        <time>2019-08-28T09:02:15Z</time>
      </trkpt>
      <trkpt lat="36.4914100" lon="-5.3097390">
        <ele>132.3</ele>
        <time>2019-08-28T09:02:16Z</time>
      </trkpt>
      <trkpt lat="36.4913990" lon="-5.3097620">
        <ele>132.4</ele>
        <time>2019-08-28T09:02:17Z</time>
      </trkpt>
      <trkpt lat="36.4913880" lon="-5.3097860">
        <ele>132.5</ele>
        <time>2019-08-28T09:02:18Z</time>
      </trkpt>
      <trkpt lat="36.4913800" lon="-5.3098100">
        <ele>132.7</ele>
        <time>2019-08-28T09:02:19Z</time>
      </trkpt>
      <trkpt lat="36.4913730" lon="-5.3098360">
        <ele>132.8</ele>
        <time>2019-08-28T09:02:20Z</time>
      </trkpt>
      <trkpt lat="36.4913670" lon="-5.3098630">
        <ele>132.9</ele>
        <time>2019-08-28T09:02:21Z</time>
      </trkpt>
      <trkpt lat="36.4913620" lon="-5.3098900">
        <ele>133.0</ele>
        <time>2019-08-28T09:02:22Z</time>
      </trkpt>
      <trkpt lat="36.4913580" lon="-5.3099200">
        <ele>133.2</ele>
        <time>2019-08-28T09:02:23Z</time>
      </trkpt>
      <trkpt lat="36.4913560" lon="-5.3099490">
        <ele>133.3</ele>
        <time>2019-08-28T09:02:24Z</time>
      </trkpt>
      <trkpt lat="36.4913570" lon="-5.3099790">
        <ele>133.4</ele>
        <time>2019-08-28T09:02:25Z</time>
      </trkpt>
      <trkpt lat="36.4913610" lon="-5.3100090">
        <ele>133.6</ele>
        <time>2019-08-28T09:02:26Z</time>
      </trkpt>
      <trkpt lat="36.4913670" lon="-5.3100430">
        <ele>133.8</ele>
        <time>2019-08-28T09:02:27Z</time>
      </trkpt>
      <trkpt lat="36.4913760" lon="-5.3100750">
        <ele>134.0</ele>
        <time>2019-08-28T09:02:28Z</time>
      </trkpt>
      <trkpt lat="36.4913870" lon="-5.3101050">
        <ele>134.1</ele>
        <time>2019-08-28T09:02:29Z</time>
      </trkpt>
      <trkpt lat="36.4914010" lon="-5.3101310">
        <ele>134.3</ele>
        <time>2019-08-28T09:02:30Z</time>
      </trkpt>
      <trkpt lat="36.4914170" lon="-5.3101570">
        <ele>134.5</ele>
        <time>2019-08-28T09:02:31Z</time>
      </trkpt>
      <trkpt lat="36.4914360" lon="-5.3101800">
        <ele>134.6</ele>
        <time>2019-08-28T09:02:32Z</time>
      </trkpt>
      <trkpt lat="36.4914560" lon="-5.3102010">
        <ele>134.8</ele>
        <time>2019-08-28T09:02:33Z</time>
      </trkpt>
      <trkpt lat="36.4914800" lon="-5.3102170">
        <ele>135.0</ele>
        <time>2019-08-28T09:02:34Z</time>
      </trkpt>
      <trkpt lat="36.4915050" lon="-5.3102280">
        <ele>135.2</ele>
        <time>2019-08-28T09:02:35Z</time>
      </trkpt>
      <trkpt lat="36.4915310" lon="-5.3102330">
        <ele>135.4</ele>
        <time>2019-08-28T09:02:36Z</time>
      </trkpt>
      <trkpt lat="36.4915590" lon="-5.3102310">
        <ele>135.6</ele>
        <time>2019-08-28T09:02:37Z</time>
      </trkpt>
      <trkpt lat="36.4915880" lon="-5.3102200">
        <ele>135.7</ele>
        <time>2019-08-28T09:02:38Z</time>
      </trkpt>
      <trkpt lat="36.4916180" lon="-5.3102060">
        <ele>136.0</ele>
        <time>2019-08-28T09:02:39Z</time>
      </trkpt>
      <trkpt lat="36.4916450" lon="-5.3101880">
        <ele>136.1</ele>
        <time>2019-08-28T09:02:40Z</time>
      </trkpt>
      <trkpt lat="36.4916710" lon="-5.3101700">
        <ele>136.3</ele>
        <time>2019-08-28T09:02:41Z</time>
      </trkpt>
      <trkpt lat="36.4916970" lon="-5.3101480">
        <ele>136.5</ele>
        <time>2019-08-28T09:02:42Z</time>
      </trkpt>
      <trkpt lat="36.4917220" lon="-5.3101240">
        <ele>136.7</ele>
        <time>2019-08-28T09:02:43Z</time>
      </trkpt>
      <trkpt lat="36.4917460" lon="-5.3100990">
        <ele>136.9</ele>
        <time>2019-08-28T09:02:44Z</time>
      </trkpt>
      <trkpt lat="36.4917710" lon="-5.3100730">
        <ele>137.0</ele>
        <time>2019-08-28T09:02:45Z</time>
      </trkpt>
      <trkpt lat="36.4917950" lon="-5.3100470">
        <ele>137.2</ele>
        <time>2019-08-28T09:02:46Z</time>
      </trkpt>
      <trkpt lat="36.4918200" lon="-5.3100210">
        <ele>137.4</ele>
        <time>2019-08-28T09:02:47Z</time>
      </trkpt>
      <trkpt lat="36.4918460" lon="-5.3099940">
        <ele>137.6</ele>
        <time>2019-08-28T09:02:48Z</time>
      </trkpt>
      <trkpt lat="36.4918720" lon="-5.3099660">
        <ele>137.8</ele>
        <time>2019-08-28T09:02:49Z</time>
      </trkpt>
      <trkpt lat="36.4918980" lon="-5.3099380">
        <ele>138.0</ele>
        <time>2019-08-28T09:02:50Z</time>
      </trkpt>
      <trkpt lat="36.4919250" lon="-5.3099090">
        <ele>138.1</ele>
        <time>2019-08-28T09:02:51Z</time>
      </trkpt>
      <trkpt lat="36.4919510" lon="-5.3098800">
        <ele>138.3</ele>
        <time>2019-08-28T09:02:52Z</time>
      </trkpt>
      <trkpt lat="36.4919780" lon="-5.3098510">
        <ele>138.5</ele>
        <time>2019-08-28T09:02:53Z</time>
      </trkpt>
      <trkpt lat="36.4920040" lon="-5.3098220">
        <ele>138.7</ele>
        <time>2019-08-28T09:02:54Z</time>
      </trkpt>
      <trkpt lat="36.4920300" lon="-5.3097930">
        <ele>138.9</ele>
        <time>2019-08-28T09:02:55Z</time>
      </trkpt>
      <trkpt lat="36.4920550" lon="-5.3097660">
        <ele>139.1</ele>
        <time>2019-08-28T09:02:56Z</time>
      </trkpt>
      <trkpt lat="36.4920790" lon="-5.3097390">
        <ele>139.3</ele>
        <time>2019-08-28T09:02:57Z</time>
      </trkpt>
      <trkpt lat="36.4921020" lon="-5.3097120">
        <ele>139.5</ele>
        <time>2019-08-28T09:02:58Z</time>
      </trkpt>
      <trkpt lat="36.4921240" lon="-5.3096850">
        <ele>139.7</ele>
        <time>2019-08-28T09:02:59Z</time>
      </trkpt>
      <trkpt lat="36.4921450" lon="-5.3096590">
        <ele>139.9</ele>
        <time>2019-08-28T09:03:00Z</time>
      </trkpt>
      <trkpt lat="36.4921660" lon="-5.3096330">
        <ele>140.0</ele>
        <time>2019-08-28T09:03:01Z</time>
      </trkpt>
      <trkpt lat="36.4921880" lon="-5.3096080">
        <ele>140.2</ele>
        <time>2019-08-28T09:03:02Z</time>
      </trkpt>
      <trkpt lat="36.4922090" lon="-5.3095830">
        <ele>140.5</ele>
        <time>2019-08-28T09:03:03Z</time>
      </trkpt>
      <trkpt lat="36.4922300" lon="-5.3095600">
        <ele>140.7</ele>
        <time>2019-08-28T09:03:04Z</time>
      </trkpt>
      <trkpt lat="36.4922510" lon="-5.3095390">
        <ele>140.9</ele>
        <time>2019-08-28T09:03:05Z</time>
      </trkpt>
      <trkpt lat="36.4922730" lon="-5.3095210">
        <ele>141.1</ele>
        <time>2019-08-28T09:03:06Z</time>
      </trkpt>
      <trkpt lat="36.4922960" lon="-5.3095040">
        <ele>141.3</ele>
        <time>2019-08-28T09:03:07Z</time>
      </trkpt>
      <trkpt lat="36.4923200" lon="-5.3094890">
        <ele>141.5</ele>
        <time>2019-08-28T09:03:08Z</time>
      </trkpt>
      <trkpt lat="36.4923430" lon="-5.3094780">
        <ele>141.7</ele>
        <time>2019-08-28T09:03:09Z</time>
      </trkpt>
      <trkpt lat="36.4923680" lon="-5.3094720">
        <ele>141.9</ele>
        <time>2019-08-28T09:03:10Z</time>
      </trkpt>
      <trkpt lat="36.4923940" lon="-5.3094710">
        <ele>142.2</ele>
        <time>2019-08-28T09:03:11Z</time>
      </trkpt>
      <trkpt lat="36.4924210" lon="-5.3094740">
        <ele>142.4</ele>
        <time>2019-08-28T09:03:12Z</time>
      </trkpt>
      <trkpt lat="36.4924480" lon="-5.3094800">
        <ele>142.6</ele>
        <time>2019-08-28T09:03:13Z</time>
      </trkpt>
      <trkpt lat="36.4924760" lon="-5.3094920">
        <ele>142.8</ele>
        <time>2019-08-28T09:03:14Z</time>
      </trkpt>
      <trkpt lat="36.4925020" lon="-5.3095080">
        <ele>143.0</ele>
        <time>2019-08-28T09:03:15Z</time>
      </trkpt>
      <trkpt lat="36.4925270" lon="-5.3095300">
        <ele>143.2</ele>
        <time>2019-08-28T09:03:16Z</time>
      </trkpt>
      <trkpt lat="36.4925460" lon="-5.3095580">
        <ele>143.4</ele>
        <time>2019-08-28T09:03:17Z</time>
      </trkpt>
      <trkpt lat="36.4925590" lon="-5.3095940">
        <ele>143.6</ele>
        <time>2019-08-28T09:03:18Z</time>
      </trkpt>
      <trkpt lat="36.4925640" lon="-5.3096370">
        <ele>143.8</ele>
        <time>2019-08-28T09:03:19Z</time>
      </trkpt>
      <trkpt lat="36.4925640" lon="-5.3096830">
        <ele>144.0</ele>
        <time>2019-08-28T09:03:20Z</time>
      </trkpt>
      <trkpt lat="36.4925600" lon="-5.3097300">
        <ele>144.2</ele>
        <time>2019-08-28T09:03:21Z</time>
      </trkpt>
      <trkpt lat="36.4925520" lon="-5.3097780">
        <ele>144.4</ele>
        <time>2019-08-28T09:03:22Z</time>
      </trkpt>
      <trkpt lat="36.4925380" lon="-5.3098250">
        <ele>144.6</ele>
        <time>2019-08-28T09:03:23Z</time>
      </trkpt>
      <trkpt lat="36.4925190" lon="-5.3098700">
        <ele>144.8</ele>
        <time>2019-08-28T09:03:24Z</time>
      </trkpt>
      <trkpt lat="36.4924970" lon="-5.3099120">
        <ele>144.9</ele>
        <time>2019-08-28T09:03:25Z</time>
      </trkpt>
      <trkpt lat="36.4924730" lon="-5.3099510">
        <ele>145.1</ele>
        <time>2019-08-28T09:03:26Z</time>
      </trkpt>
      <trkpt lat="36.4924480" lon="-5.3099880">
        <ele>145.3</ele>
        <time>2019-08-28T09:03:27Z</time>
      </trkpt>
      <trkpt lat="36.4924200" lon="-5.3100240">
        <ele>145.5</ele>
        <time>2019-08-28T09:03:28Z</time>
      </trkpt>
      <trkpt lat="36.4923910" lon="-5.3100600">
        <ele>145.7</ele>
        <time>2019-08-28T09:03:29Z</time>
      </trkpt>
      <trkpt lat="36.4923610" lon="-5.3100940">
        <ele>145.9</ele>
        <time>2019-08-28T09:03:30Z</time>
      </trkpt>
      <trkpt lat="36.4923300" lon="-5.3101260">
        <ele>146.1</ele>
        <time>2019-08-28T09:03:31Z</time>
      </trkpt>
      <trkpt lat="36.4922980" lon="-5.3101560">
        <ele>146.4</ele>
        <time>2019-08-28T09:03:32Z</time>
      </trkpt>
      <trkpt lat="36.4922670" lon="-5.3101840">
        <ele>146.6</ele>
        <time>2019-08-28T09:03:33Z</time>
      </trkpt>
      <trkpt lat="36.4922360" lon="-5.3102120">
        <ele>146.8</ele>
        <time>2019-08-28T09:03:34Z</time>
      </trkpt>
      <trkpt lat="36.4922060" lon="-5.3102390">
        <ele>147.0</ele>
        <time>2019-08-28T09:03:35Z</time>
      </trkpt>
      <trkpt lat="36.4921780" lon="-5.3102670">
        <ele>147.3</ele>
        <time>2019-08-28T09:03:36Z</time>
      </trkpt>
      <trkpt lat="36.4921520" lon="-5.3102970">
        <ele>147.5</ele>
        <time>2019-08-28T09:03:37Z</time>
      </trkpt>
      <trkpt lat="36.4921290" lon="-5.3103310">
        <ele>147.8</ele>
        <time>2019-08-28T09:03:38Z</time>
      </trkpt>
      <trkpt lat="36.4921070" lon="-5.3103660">
        <ele>148.0</ele>
        <time>2019-08-28T09:03:39Z</time>
      </trkpt>
      <trkpt lat="36.4920900" lon="-5.3104030">
        <ele>148.3</ele>
        <time>2019-08-28T09:03:40Z</time>
      </trkpt>
      <trkpt lat="36.4920770" lon="-5.3104420">
        <ele>148.5</ele>
        <time>2019-08-28T09:03:41Z</time>
      </trkpt>
      <trkpt lat="36.4920650" lon="-5.3104830">
        <ele>148.8</ele>
        <time>2019-08-28T09:03:42Z</time>
      </trkpt>
      <trkpt lat="36.4920540" lon="-5.3105220">
        <ele>149.0</ele>
        <time>2019-08-28T09:03:43Z</time>
      </trkpt>
      <trkpt lat="36.4920450" lon="-5.3105620">
        <ele>149.3</ele>
        <time>2019-08-28T09:03:44Z</time>
      </trkpt>
      <trkpt lat="36.4920370" lon="-5.3106020">
        <ele>149.5</ele>
        <time>2019-08-28T09:03:45Z</time>
      </trkpt>
      <trkpt lat="36.4920320" lon="-5.3106420">
        <ele>149.8</ele>
        <time>2019-08-28T09:03:46Z</time>
      </trkpt>
      <trkpt lat="36.4920270" lon="-5.3106820">
        <ele>150.1</ele>
        <time>2019-08-28T09:03:47Z</time>
      </trkpt>
      <trkpt lat="36.4920220" lon="-5.3107230">
        <ele>150.3</ele>
        <time>2019-08-28T09:03:48Z</time>
      </trkpt>
      <trkpt lat="36.4920180" lon="-5.3107640">
        <ele>150.6</ele>
        <time>2019-08-28T09:03:49Z</time>
      </trkpt>
      <trkpt lat="36.4920140" lon="-5.3108040">
        <ele>150.9</ele>
        <time>2019-08-28T09:03:50Z</time>
      </trkpt>
      <trkpt lat="36.4920090" lon="-5.3108450">
        <ele>151.2</ele>
        <time>2019-08-28T09:03:51Z</time>
      </trkpt>
      <trkpt lat="36.4920050" lon="-5.3108840">
        <ele>151.4</ele>
        <time>2019-08-28T09:03:52Z</time>
      </trkpt>
      <trkpt lat="36.4919990" lon="-5.3109220">
        <ele>151.7</ele>
        <time>2019-08-28T09:03:53Z</time>
      </trkpt>
      <trkpt lat="36.4919920" lon="-5.3109590">
        <ele>152.0</ele>
        <time>2019-08-28T09:03:54Z</time>
      </trkpt>
      <trkpt lat="36.4919820" lon="-5.3109950">
        <ele>152.2</ele>
        <time>2019-08-28T09:03:55Z</time>
      </trkpt>
      <trkpt lat="36.4919700" lon="-5.3110310">
        <ele>152.5</ele>
        <time>2019-08-28T09:03:56Z</time>
      </trkpt>
      <trkpt lat="36.4919560" lon="-5.3110650">
        <ele>152.7</ele>
        <time>2019-08-28T09:03:57Z</time>
      </trkpt>
      <trkpt lat="36.4919410" lon="-5.3110990">
        <ele>153.0</ele>
        <time>2019-08-28T09:03:58Z</time>
      </trkpt>
      <trkpt lat="36.4919240" lon="-5.3111310">
        <ele>153.3</ele>
        <time>2019-08-28T09:03:59Z</time>
      </trkpt>
      <trkpt lat="36.4919050" lon="-5.3111610">
        <ele>153.6</ele>
        <time>2019-08-28T09:04:00Z</time>
      </trkpt>
      <trkpt lat="36.4918830" lon="-5.3111900">
        <ele>153.9</ele>
        <time>2019-08-28T09:04:01Z</time>
      </trkpt>
      <trkpt lat="36.4918580" lon="-5.3112170">
        <ele>154.2</ele>
        <time>2019-08-28T09:04:02Z</time>
      </trkpt>
      <trkpt lat="36.4918310" lon="-5.3112410">
        <ele>154.5</ele>
        <time>2019-08-28T09:04:03Z</time>
      </trkpt>
      <trkpt lat="36.4918020" lon="-5.3112620">
        <ele>154.9</ele>
        <time>2019-08-28T09:04:04Z</time>
      </trkpt>
      <trkpt lat="36.4917730" lon="-5.3112810">
        <ele>155.2</ele>
        <time>2019-08-28T09:04:05Z</time>
      </trkpt>
      <trkpt lat="36.4917440" lon="-5.3112980">
        <ele>155.5</ele>
        <time>2019-08-28T09:04:06Z</time>
      </trkpt>
      <trkpt lat="36.4917150" lon="-5.3113150">
        <ele>155.8</ele>
        <time>2019-08-28T09:04:07Z</time>
      </trkpt>
      <trkpt lat="36.4916860" lon="-5.3113320">
        <ele>156.2</ele>
        <time>2019-08-28T09:04:08Z</time>
      </trkpt>
      <trkpt lat="36.4916560" lon="-5.3113520">
        <ele>156.5</ele>
        <time>2019-08-28T09:04:09Z</time>
      </trkpt>
      <trkpt lat="36.4916280" lon="-5.3113720">
        <ele>156.8</ele>
        <time>2019-08-28T09:04:10Z</time>
      </trkpt>
      <trkpt lat="36.4916000" lon="-5.3113930">
        <ele>157.1</ele>
        <time>2019-08-28T09:04:11Z</time>
      </trkpt>
      <trkpt lat="36.4915730" lon="-5.3114160">
        <ele>157.5</ele>
        <time>2019-08-28T09:04:12Z</time>
      </trkpt>
      <trkpt lat="36.4915460" lon="-5.3114430">
        <ele>157.8</ele>
        <time>2019-08-28T09:04:13Z</time>
      </trkpt>
      <trkpt lat="36.4915220" lon="-5.3114720">
        <ele>158.1</ele>
        <time>2019-08-28T09:04:14Z</time>
      </trkpt>
      <trkpt lat="36.4915000" lon="-5.3115020">
        <ele>158.4</ele>
        <time>2019-08-28T09:04:15Z</time>
      </trkpt>
      <trkpt lat="36.4914790" lon="-5.3115330">
        <ele>158.8</ele>
        <time>2019-08-28T09:04:16Z</time>
      </trkpt>
      <trkpt lat="36.4914600" lon="-5.3115650">
        <ele>159.1</ele>
        <time>2019-08-28T09:04:17Z</time>
      </trkpt>
      <trkpt lat="36.4914430" lon="-5.3115970">
        <ele>159.5</ele>
        <time>2019-08-28T09:04:18Z</time>
      </trkpt>
      <trkpt lat="36.4914310" lon="-5.3116320">
        <ele>159.8</ele>
        <time>2019-08-28T09:04:19Z</time>
      </trkpt>
      <trkpt lat="36.4914230" lon="-5.3116690">
        <ele>160.1</ele>
        <time>2019-08-28T09:04:20Z</time>
      </trkpt>
      <trkpt lat="36.4914190" lon="-5.3117090">
        <ele>160.5</ele>
        <time>2019-08-28T09:04:21Z</time>
      </trkpt>
      <trkpt lat="36.4914150" lon="-5.3117450">
        <ele>160.8</ele>
        <time>2019-08-28T09:04:22Z</time>
      </trkpt>
      <trkpt lat="36.4914140" lon="-5.3117800">
        <ele>161.1</ele>
        <time>2019-08-28T09:04:23Z</time>
      </trkpt>
      <trkpt lat="36.4914150" lon="-5.3118140">
        <ele>161.3</ele>
        <time>2019-08-28T09:04:24Z</time>
      </trkpt>
      <trkpt lat="36.4914190" lon="-5.3118470">
        <ele>161.6</ele>
        <time>2019-08-28T09:04:25Z</time>
      </trkpt>
      <trkpt lat="36.4914250" lon="-5.3118800">
        <ele>161.8</ele>
        <time>2019-08-28T09:04:26Z</time>
      </trkpt>
      <trkpt lat="36.4914330" lon="-5.3119120">
        <ele>162.1</ele>
        <time>2019-08-28T09:04:27Z</time>
      </trkpt>
      <trkpt lat="36.4914420" lon="-5.3119430">
        <ele>162.3</ele>
        <time>2019-08-28T09:04:28Z</time>
      </trkpt>
      <trkpt lat="36.4914510" lon="-5.3119730">
        <ele>162.6</ele>
        <time>2019-08-28T09:04:29Z</time>
      </trkpt>
      <trkpt lat="36.4914600" lon="-5.3120030">
        <ele>162.8</ele>
        <time>2019-08-28T09:04:30Z</time>
      </trkpt>
      <trkpt lat="36.4914700" lon="-5.3120340">
        <ele>163.1</ele>
        <time>2019-08-28T09:04:31Z</time>
      </trkpt>
      <trkpt lat="36.4914810" lon="-5.3120650">
        <ele>163.4</ele>
        <time>2019-08-28T09:04:32Z</time>
      </trkpt>
      <trkpt lat="36.4914920" lon="-5.3120960">
        <ele>163.6</ele>
        <time>2019-08-28T09:04:33Z</time>
      </trkpt>
      <trkpt lat="36.4915030" lon="-5.3121250">
        <ele>163.8</ele>
        <time>2019-08-28T09:04:34Z</time>
      </trkpt>
      <trkpt lat="36.4915150" lon="-5.3121550">
        <ele>164.1</ele>
        <time>2019-08-28T09:04:35Z</time>
      </trkpt>
      <trkpt lat="36.4915270" lon="-5.3121850">
        <ele>164.3</ele>
        <time>2019-08-28T09:04:36Z</time>
      </trkpt>
      <trkpt lat="36.4915400" lon="-5.3122150">
        <ele>164.6</ele>
        <time>2019-08-28T09:04:37Z</time>
      </trkpt>
      <trkpt lat="36.4915540" lon="-5.3122430">
        <ele>164.8</ele>
        <time>2019-08-28T09:04:38Z</time>
      </trkpt>
      <trkpt lat="36.4915690" lon="-5.3122700">
        <ele>165.0</ele>
        <time>2019-08-28T09:04:39Z</time>
      </trkpt>
      <trkpt lat="36.4915830" lon="-5.3122960">
        <ele>165.3</ele>
        <time>2019-08-28T09:04:40Z</time>
      </trkpt>
      <trkpt lat="36.4915990" lon="-5.3123210">
        <ele>165.5</ele>
        <time>2019-08-28T09:04:41Z</time>
      </trkpt>
      <trkpt lat="36.4916140" lon="-5.3123460">
        <ele>165.7</ele>
        <time>2019-08-28T09:04:42Z</time>
      </trkpt>
      <trkpt lat="36.4916310" lon="-5.3123690">
        <ele>165.9</ele>
        <time>2019-08-28T09:04:43Z</time>
      </trkpt>
      <trkpt lat="36.4916480" lon="-5.3123920">
        <ele>166.2</ele>
        <time>2019-08-28T09:04:44Z</time>
      </trkpt>
      <trkpt lat="36.4916660" lon="-5.3124140">
        <ele>166.4</ele>
        <time>2019-08-28T09:04:45Z</time>
      </trkpt>
      <trkpt lat="36.4916860" lon="-5.3124350">
        <ele>166.7</ele>
        <time>2019-08-28T09:04:46Z</time>
      </trkpt>
      <trkpt lat="36.4917080" lon="-5.3124540">
        <ele>166.9</ele>
        <time>2019-08-28T09:04:47Z</time>
      </trkpt>
      <trkpt lat="36.4917320" lon="-5.3124700">
        <ele>167.2</ele>
        <time>2019-08-28T09:04:48Z</time>
      </trkpt>
      <trkpt lat="36.4917570" lon="-5.3124850">
        <ele>167.5</ele>
        <time>2019-08-28T09:04:49Z</time>
      </trkpt>
      <trkpt lat="36.4917800" lon="-5.3124990">
        <ele>167.8</ele>
        <time>2019-08-28T09:04:50Z</time>
      </trkpt>
      <trkpt lat="36.4918040" lon="-5.3125100">
        <ele>168.0</ele>
        <time>2019-08-28T09:04:51Z</time>
      </trkpt>
      <trkpt lat="36.4918300" lon="-5.3125150">
        <ele>168.3</ele>
        <time>2019-08-28T09:04:52Z</time>
      </trkpt>
      <trkpt lat="36.4918570" lon="-5.3125160">
        <ele>168.5</ele>
        <time>2019-08-28T09:04:53Z</time>
      </trkpt>
      <trkpt lat="36.4918830" lon="-5.3125170">
        <ele>168.8</ele>
        <time>2019-08-28T09:04:54Z</time>
      </trkpt>
      <trkpt lat="36.4919080" lon="-5.3125220">
        <ele>169.1</ele>
        <time>2019-08-28T09:04:55Z</time>
      </trkpt>
      <trkpt lat="36.4919340" lon="-5.3125250">
        <ele>169.3</ele>
        <time>2019-08-28T09:04:56Z</time>
      </trkpt>
      <trkpt lat="36.4919610" lon="-5.3125250">
        <ele>169.6</ele>
        <time>2019-08-28T09:04:57Z</time>
      </trkpt>
      <trkpt lat="36.4919880" lon="-5.3125250">
        <ele>169.9</ele>
        <time>2019-08-28T09:04:58Z</time>
      </trkpt>
      <trkpt lat="36.4920150" lon="-5.3125270">
        <ele>170.1</ele>
        <time>2019-08-28T09:04:59Z</time>
      </trkpt>
      <trkpt lat="36.4920430" lon="-5.3125280">
        <ele>170.4</ele>
        <time>2019-08-28T09:05:00Z</time>
      </trkpt>
      <trkpt lat="36.4920710" lon="-5.3125290">
        <ele>170.7</ele>
        <time>2019-08-28T09:05:01Z</time>
      </trkpt>
      <trkpt lat="36.4920990" lon="-5.3125300">
        <ele>170.9</ele>
        <time>2019-08-28T09:05:02Z</time>
      </trkpt>
      <trkpt lat="36.4921270" lon="-5.3125320">
        <ele>171.2</ele>
        <time>2019-08-28T09:05:03Z</time>
      </trkpt>
      <trkpt lat="36.4921540" lon="-5.3125350">
        <ele>171.4</ele>
        <time>2019-08-28T09:05:04Z</time>
      </trkpt>
      <trkpt lat="36.4921810" lon="-5.3125380">
        <ele>171.7</ele>
        <time>2019-08-28T09:05:05Z</time>
      </trkpt>
      <trkpt lat="36.4922080" lon="-5.3125420">
        <ele>171.9</ele>
        <time>2019-08-28T09:05:06Z</time>
      </trkpt>
      <trkpt lat="36.4922350" lon="-5.3125450">
        <ele>172.2</ele>
        <time>2019-08-28T09:05:07Z</time>
      </trkpt>
      <trkpt lat="36.4922630" lon="-5.3125480">
        <ele>172.4</ele>
        <time>2019-08-28T09:05:08Z</time>
      </trkpt>
      <trkpt lat="36.4922900" lon="-5.3125500">
        <ele>172.6</ele>
        <time>2019-08-28T09:05:09Z</time>
      </trkpt>
      <trkpt lat="36.4923170" lon="-5.3125510">
        <ele>172.9</ele>
        <time>2019-08-28T09:05:10Z</time>
      </trkpt>
      <trkpt lat="36.4923450" lon="-5.3125510">
        <ele>173.1</ele>
        <time>2019-08-28T09:05:11Z</time>
      </trkpt>
      <trkpt lat="36.4923720" lon="-5.3125520">
        <ele>173.3</ele>
        <time>2019-08-28T09:05:12Z</time>
      </trkpt>
      <trkpt lat="36.4923990" lon="-5.3125530">
        <ele>173.5</ele>
        <time>2019-08-28T09:05:13Z</time>
      </trkpt>
      <trkpt lat="36.4924260" lon="-5.3125540">
        <ele>173.8</ele>
        <time>2019-08-28T09:05:14Z</time>
      </trkpt>
      <trkpt lat="36.4924530" lon="-5.3125560">
        <ele>174.0</ele>
        <time>2019-08-28T09:05:15Z</time>
      </trkpt>
      <trkpt lat="36.4924800" lon="-5.3125570">
        <ele>174.2</ele>
        <time>2019-08-28T09:05:16Z</time>
      </trkpt>
      <trkpt lat="36.4925070" lon="-5.3125590">
        <ele>174.4</ele>
        <time>2019-08-28T09:05:17Z</time>
      </trkpt>
      <trkpt lat="36.4925330" lon="-5.3125610">
        <ele>174.6</ele>
        <time>2019-08-28T09:05:18Z</time>
      </trkpt>
      <trkpt lat="36.4925600" lon="-5.3125630">
        <ele>174.8</ele>
        <time>2019-08-28T09:05:19Z</time>
      </trkpt>
      <trkpt lat="36.4925870" lon="-5.3125630">
        <ele>175.0</ele>
        <time>2019-08-28T09:05:20Z</time>
      </trkpt>
      <trkpt lat="36.4926150" lon="-5.3125630">
        <ele>175.2</ele>
        <time>2019-08-28T09:05:21Z</time>
      </trkpt>
      <trkpt lat="36.4926440" lon="-5.3125620">
        <ele>175.4</ele>
        <time>2019-08-28T09:05:22Z</time>
      </trkpt>
      <trkpt lat="36.4926720" lon="-5.3125620">
        <ele>175.7</ele>
        <time>2019-08-28T09:05:23Z</time>
      </trkpt>
      <trkpt lat="36.4927000" lon="-5.3125620">
        <ele>175.9</ele>
        <time>2019-08-28T09:05:24Z</time>
      </trkpt>
      <trkpt lat="36.4927280" lon="-5.3125620">
        <ele>176.1</ele>
        <time>2019-08-28T09:05:25Z</time>
      </trkpt>
      <trkpt lat="36.4927560" lon="-5.3125620">
        <ele>176.3</ele>
        <time>2019-08-28T09:05:26Z</time>
      </trkpt>
      <trkpt lat="36.4927840" lon="-5.3125630">
        <ele>176.5</ele>
        <time>2019-08-28T09:05:27Z</time>
      </trkpt>
      <trkpt lat="36.4928120" lon="-5.3125640">
        <ele>176.7</ele>
        <time>2019-08-28T09:05:28Z</time>
      </trkpt>
      <trkpt lat="36.4928400" lon="-5.3125640">
        <ele>176.9</ele>
        <time>2019-08-28T09:05:29Z</time>
      </trkpt>
      <trkpt lat="36.4928700" lon="-5.3125630">
        <ele>177.1</ele>
        <time>2019-08-28T09:05:30Z</time>
      </trkpt>
      <trkpt lat="36.4928990" lon="-5.3125610">
        <ele>177.3</ele>
        <time>2019-08-28T09:05:31Z</time>
      </trkpt>
      <trkpt lat="36.4929280" lon="-5.3125580">
        <ele>177.5</ele>
        <time>2019-08-28T09:05:32Z</time>
      </trkpt>
      <trkpt lat="36.4929570" lon="-5.3125550">
        <ele>177.7</ele>
        <time>2019-08-28T09:05:33Z</time>
      </trkpt>
      <trkpt lat="36.4929860" lon="-5.3125510">
        <ele>177.9</ele>
        <time>2019-08-28T09:05:34Z</time>
      </trkpt>
      <trkpt lat="36.4930140" lon="-5.3125460">
        <ele>178.1</ele>
        <time>2019-08-28T09:05:35Z</time>
      </trkpt>
      <trkpt lat="36.4930430" lon="-5.3125410">
        <ele>178.3</ele>
        <time>2019-08-28T09:05:36Z</time>
      </trkpt>
      <trkpt lat="36.4930710" lon="-5.3125340">
        <ele>178.5</ele>
        <time>2019-08-28T09:05:37Z</time>
      </trkpt>
      <trkpt lat="36.4930990" lon="-5.3125250">
        <ele>178.7</ele>
        <time>2019-08-28T09:05:38Z</time>
      </trkpt>
      <trkpt lat="36.4931270" lon="-5.3125160">
        <ele>178.9</ele>
        <time>2019-08-28T09:05:39Z</time>
      </trkpt>
      <trkpt lat="36.4931550" lon="-5.3125060">
        <ele>179.0</ele>
        <time>2019-08-28T09:05:40Z</time>
      </trkpt>
      <trkpt lat="36.4931820" lon="-5.3124940">
        <ele>179.2</ele>
        <time>2019-08-28T09:05:41Z</time>
      </trkpt>
      <trkpt lat="36.4932090" lon="-5.3124810">
        <ele>179.4</ele>
        <time>2019-08-28T09:05:42Z</time>
      </trkpt>
      <trkpt lat="36.4932360" lon="-5.3124670">
        <ele>179.5</ele>
        <time>2019-08-28T09:05:43Z</time>
      </trkpt>
      <trkpt lat="36.4932620" lon="-5.3124510">
        <ele>179.7</ele>
        <time>2019-08-28T09:05:44Z</time>
      </trkpt>
      <trkpt lat="36.4932870" lon="-5.3124340">
        <ele>179.9</ele>
        <time>2019-08-28T09:05:45Z</time>
      </trkpt>
      <trkpt lat="36.4933120" lon="-5.3124160">
        <ele>180.0</ele>
        <time>2019-08-28T09:05:46Z</time>
      </trkpt>
      <trkpt lat="36.4933360" lon="-5.3123970">
        <ele>180.2</ele>
        <time>2019-08-28T09:05:47Z</time>
      </trkpt>
      <trkpt lat="36.4933600" lon="-5.3123760">
        <ele>180.4</ele>
        <time>2019-08-28T09:05:48Z</time>
      </trkpt>
      <trkpt lat="36.4933830" lon="-5.3123550">
        <ele>180.5</ele>
        <time>2019-08-28T09:05:49Z</time>
      </trkpt>
      <trkpt lat="36.4934050" lon="-5.3123310">
        <ele>180.7</ele>
        <time>2019-08-28T09:05:50Z</time>
      </trkpt>
      <trkpt lat="36.4934260" lon="-5.3123050">
        <ele>180.9</ele>
        <time>2019-08-28T09:05:51Z</time>
      </trkpt>
      <trkpt lat="36.4934460" lon="-5.3122790">
        <ele>181.0</ele>
        <time>2019-08-28T09:05:52Z</time>
      </trkpt>
      <trkpt lat="36.4934660" lon="-5.3122520">
        <ele>181.2</ele>
        <time>2019-08-28T09:05:53Z</time>
      </trkpt>
      <trkpt lat="36.4934850" lon="-5.3122240">
        <ele>181.4</ele>
        <time>2019-08-28T09:05:54Z</time>
      </trkpt>
      <trkpt lat="36.4935040" lon="-5.3121950">
        <ele>181.6</ele>
        <time>2019-08-28T09:05:55Z</time>
      </trkpt>
      <trkpt lat="36.4935210" lon="-5.3121660">
        <ele>181.8</ele>
        <time>2019-08-28T09:05:56Z</time>
      </trkpt>
      <trkpt lat="36.4935370" lon="-5.3121360">
        <ele>181.9</ele>
        <time>2019-08-28T09:05:57Z</time>
      </trkpt>
      <trkpt lat="36.4935520" lon="-5.3121060">
        <ele>182.1</ele>
        <time>2019-08-28T09:05:58Z</time>
      </trkpt>
      <trkpt lat="36.4935680" lon="-5.3120750">
        <ele>182.3</ele>
        <time>2019-08-28T09:05:59Z</time>
      </trkpt>
      <trkpt lat="36.4935830" lon="-5.3120440">
        <ele>182.4</ele>
        <time>2019-08-28T09:06:00Z</time>
      </trkpt>
      <trkpt lat="36.4935970" lon="-5.3120120">
        <ele>182.6</ele>
        <time>2019-08-28T09:06:01Z</time>
      </trkpt>
      <trkpt lat="36.4936100" lon="-5.3119790">
        <ele>182.8</ele>
        <time>2019-08-28T09:06:02Z</time>
      </trkpt>
      <trkpt lat="36.4936230" lon="-5.3119450">
        <ele>182.9</ele>
        <time>2019-08-28T09:06:03Z</time>
      </trkpt>
      <trkpt lat="36.4936370" lon="-5.3119120">
        <ele>183.1</ele>
        <time>2019-08-28T09:06:04Z</time>
      </trkpt>
      <trkpt lat="36.4936500" lon="-5.3118780">
        <ele>183.3</ele>
        <time>2019-08-28T09:06:05Z</time>
      </trkpt>
      <trkpt lat="36.4936640" lon="-5.3118450">
        <ele>183.5</ele>
        <time>2019-08-28T09:06:06Z</time>
      </trkpt>
      <trkpt lat="36.4936770" lon="-5.3118110">
        <ele>183.7</ele>
        <time>2019-08-28T09:06:07Z</time>
      </trkpt>
      <trkpt lat="36.4936910" lon="-5.3117770">
        <ele>183.9</ele>
        <time>2019-08-28T09:06:08Z</time>
      </trkpt>
      <trkpt lat="36.4937040" lon="-5.3117430">
        <ele>184.1</ele>
        <time>2019-08-28T09:06:09Z</time>
      </trkpt>
      <trkpt lat="36.4937160" lon="-5.3117090">
        <ele>184.4</ele>
        <time>2019-08-28T09:06:10Z</time>
      </trkpt>
      <trkpt lat="36.4937270" lon="-5.3116730">
        <ele>184.6</ele>
        <time>2019-08-28T09:06:11Z</time>
      </trkpt>
      <trkpt lat="36.4937380" lon="-5.3116380">
        <ele>184.8</ele>
        <time>2019-08-28T09:06:12Z</time>
      </trkpt>
      <trkpt lat="36.4937490" lon="-5.3116020">
        <ele>185.0</ele>
        <time>2019-08-28T09:06:13Z</time>
      </trkpt>
      <trkpt lat="36.4937600" lon="-5.3115660">
        <ele>185.3</ele>
        <time>2019-08-28T09:06:14Z</time>
      </trkpt>
      <trkpt lat="36.4937710" lon="-5.3115310">
        <ele>185.5</ele>
        <time>2019-08-28T09:06:15Z</time>
      </trkpt>
      <trkpt lat="36.4937820" lon="-5.3114950">
        <ele>185.7</ele>
        <time>2019-08-28T09:06:16Z</time>
      </trkpt>
      <trkpt lat="36.4937940" lon="-5.3114600">
        <ele>186.0</ele>
        <time>2019-08-28T09:06:17Z</time>
      </trkpt>
      <trkpt lat="36.4938040" lon="-5.3114250">
        <ele>186.2</ele>
        <time>2019-08-28T09:06:18Z</time>
      </trkpt>
      <trkpt lat="36.4938140" lon="-5.3113900">
        <ele>186.5</ele>
        <time>2019-08-28T09:06:19Z</time>
      </trkpt>
      <trkpt lat="36.4938240" lon="-5.3113550">
        <ele>186.7</ele>
        <time>2019-08-28T09:06:20Z</time>
      </trkpt>
      <trkpt lat="36.4938340" lon="-5.3113210">
        <ele>186.9</ele>
        <time>2019-08-28T09:06:21Z</time>
      </trkpt>
      <trkpt lat="36.4938440" lon="-5.3112860">
        <ele>187.2</ele>
        <time>2019-08-28T09:06:22Z</time>
      </trkpt>
      <trkpt lat="36.4938540" lon="-5.3112520">
        <ele>187.4</ele>
        <time>2019-08-28T09:06:23Z</time>
      </trkpt>
      <trkpt lat="36.4938640" lon="-5.3112170">
        <ele>187.7</ele>
        <time>2019-08-28T09:06:24Z</time>
      </trkpt>
      <trkpt lat="36.4938750" lon="-5.3111830">
        <ele>187.9</ele>
        <time>2019-08-28T09:06:25Z</time>
      </trkpt>
      <trkpt lat="36.4938850" lon="-5.3111490">
        <ele>188.1</ele>
        <time>2019-08-28T09:06:26Z</time>
      </trkpt>
      <trkpt lat="36.4938950" lon="-5.3111150">
        <ele>188.4</ele>
        <time>2019-08-28T09:06:27Z</time>
      </trkpt>
      <trkpt lat="36.4939050" lon="-5.3110810">
        <ele>188.6</ele>
        <time>2019-08-28T09:06:28Z</time>
      </trkpt>
      <trkpt lat="36.4939170" lon="-5.3110490">
        <ele>188.8</ele>
        <time>2019-08-28T09:06:29Z</time>
      </trkpt>
      <trkpt lat="36.4939280" lon="-5.3110170">
        <ele>189.1</ele>
        <time>2019-08-28T09:06:30Z</time>
      </trkpt>
      <trkpt lat="36.4939400" lon="-5.3109850">
        <ele>189.3</ele>
        <time>2019-08-28T09:06:31Z</time>
      </trkpt>
      <trkpt lat="36.4939530" lon="-5.3109540">
        <ele>189.5</ele>
        <time>2019-08-28T09:06:32Z</time>
      </trkpt>
      <trkpt lat="36.4939660" lon="-5.3109230">
        <ele>189.7</ele>
        <time>2019-08-28T09:06:33Z</time>
      </trkpt>
      <trkpt lat="36.4939810" lon="-5.3108930">
        <ele>190.0</ele>
        <time>2019-08-28T09:06:34Z</time>
      </trkpt>
      <trkpt lat="36.4939960" lon="-5.3108650">
        <ele>190.2</ele>
        <time>2019-08-28T09:06:35Z</time>
      </trkpt>
      <trkpt lat="36.4940130" lon="-5.3108370">
        <ele>190.4</ele>
        <time>2019-08-28T09:06:36Z</time>
      </trkpt>
      <trkpt lat="36.4940310" lon="-5.3108100">
        <ele>190.6</ele>
        <time>2019-08-28T09:06:37Z</time>
      </trkpt>
      <trkpt lat="36.4940510" lon="-5.3107830">
        <ele>190.8</ele>
        <time>2019-08-28T09:06:38Z</time>
      </trkpt>
      <trkpt lat="36.4940710" lon="-5.3107570">
        <ele>191.0</ele>
        <time>2019-08-28T09:06:39Z</time>
      </trkpt>
      <trkpt lat="36.4940920" lon="-5.3107330">
        <ele>191.2</ele>
        <time>2019-08-28T09:06:40Z</time>
      </trkpt>
      <trkpt lat="36.4941140" lon="-5.3107090">
        <ele>191.4</ele>
        <time>2019-08-28T09:06:41Z</time>
      </trkpt>
      <trkpt lat="36.4941380" lon="-5.3106870">
        <ele>191.6</ele>
        <time>2019-08-28T09:06:42Z</time>
      </trkpt>
      <trkpt lat="36.4941610" lon="-5.3106650">
        <ele>191.8</ele>
        <time>2019-08-28T09:06:43Z</time>
      </trkpt>
      <trkpt lat="36.4941850" lon="-5.3106460">
        <ele>192.0</ele>
        <time>2019-08-28T09:06:44Z</time>
      </trkpt>
      <trkpt lat="36.4942080" lon="-5.3106270">
        <ele>192.2</ele>
        <time>2019-08-28T09:06:45Z</time>
      </trkpt>
      <trkpt lat="36.4942320" lon="-5.3106100">
        <ele>192.3</ele>
        <time>2019-08-28T09:06:46Z</time>
      </trkpt>
      <trkpt lat="36.4942570" lon="-5.3105950">
        <ele>192.5</ele>
        <time>2019-08-28T09:06:47Z</time>
      </trkpt>
      <trkpt lat="36.4942830" lon="-5.3105820">
        <ele>192.7</ele>
        <time>2019-08-28T09:06:48Z</time>
      </trkpt>
      <trkpt lat="36.4943090" lon="-5.3105690">
        <ele>192.9</ele>
        <time>2019-08-28T09:06:49Z</time>
      </trkpt>
      <trkpt lat="36.4943360" lon="-5.3105550">
        <ele>193.1</ele>
        <time>2019-08-28T09:06:50Z</time>
      </trkpt>
      <trkpt lat="36.4943620" lon="-5.3105420">
        <ele>193.3</ele>
        <time>2019-08-28T09:06:51Z</time>
      </trkpt>
      <trkpt lat="36.4943880" lon="-5.3105310">
        <ele>193.4</ele>
        <time>2019-08-28T09:06:52Z</time>
      </trkpt>
      <trkpt lat="36.4944150" lon="-5.3105210">
        <ele>193.7</ele>
        <time>2019-08-28T09:06:53Z</time>
      </trkpt>
      <trkpt lat="36.4944420" lon="-5.3105130">
        <ele>193.9</ele>
        <time>2019-08-28T09:06:54Z</time>
      </trkpt>
      <trkpt lat="36.4944680" lon="-5.3105050">
        <ele>194.2</ele>
        <time>2019-08-28T09:06:55Z</time>
      </trkpt>
      <trkpt lat="36.4944950" lon="-5.3104990">
        <ele>194.4</ele>
        <time>2019-08-28T09:06:56Z</time>
      </trkpt>
      <trkpt lat="36.4945230" lon="-5.3104940">
        <ele>194.7</ele>
        <time>2019-08-28T09:06:57Z</time>
      </trkpt>
      <trkpt lat="36.4945520" lon="-5.3104920">
        <ele>194.9</ele>
        <time>2019-08-28T09:06:58Z</time>
      </trkpt>
      <trkpt lat="36.4945820" lon="-5.3104920">
        <ele>195.2</ele>
        <time>2019-08-28T09:06:59Z</time>
      </trkpt>
      <trkpt lat="36.4946110" lon="-5.3104960">
        <ele>195.4</ele>
        <time>2019-08-28T09:07:00Z</time>
      </trkpt>
      <trkpt lat="36.4946390" lon="-5.3105040">
        <ele>195.7</ele>
        <time>2019-08-28T09:07:01Z</time>
      </trkpt>
      <trkpt lat="36.4946660" lon="-5.3105160">
        <ele>195.9</ele>
        <time>2019-08-28T09:07:02Z</time>
      </trkpt>
      <trkpt lat="36.4946930" lon="-5.3105290">
        <ele>196.2</ele>
        <time>2019-08-28T09:07:03Z</time>
      </trkpt>
      <trkpt lat="36.4947180" lon="-5.3105440">
        <ele>196.5</ele>
        <time>2019-08-28T09:07:04Z</time>
      </trkpt>
      <trkpt lat="36.4947430" lon="-5.3105610">
        <ele>196.7</ele>
        <time>2019-08-28T09:07:05Z</time>
      </trkpt>
      <trkpt lat="36.4947660" lon="-5.3105810">
        <ele>197.0</ele>
        <time>2019-08-28T09:07:06Z</time>
      </trkpt>
      <trkpt lat="36.4947900" lon="-5.3106030">
        <ele>197.3</ele>
        <time>2019-08-28T09:07:07Z</time>
      </trkpt>
      <trkpt lat="36.4948130" lon="-5.3106280">
        <ele>197.6</ele>
        <time>2019-08-28T09:07:08Z</time>
      </trkpt>
      <trkpt lat="36.4948360" lon="-5.3106520">
        <ele>197.8</ele>
        <time>2019-08-28T09:07:09Z</time>
      </trkpt>
      <trkpt lat="36.4948560" lon="-5.3106780">
        <ele>198.0</ele>
        <time>2019-08-28T09:07:10Z</time>
      </trkpt>
      <trkpt lat="36.4948730" lon="-5.3107080">
        <ele>198.2</ele>
        <time>2019-08-28T09:07:11Z</time>
      </trkpt>
      <trkpt lat="36.4948880" lon="-5.3107410">
        <ele>198.4</ele>
        <time>2019-08-28T09:07:12Z</time>
      </trkpt>
      <trkpt lat="36.4949030" lon="-5.3107740">
        <ele>198.6</ele>
        <time>2019-08-28T09:07:13Z</time>
      </trkpt>
      <trkpt lat="36.4949170" lon="-5.3108060">
        <ele>198.8</ele>
        <time>2019-08-28T09:07:14Z</time>
      </trkpt>
      <trkpt lat="36.4949300" lon="-5.3108380">
        <ele>199.1</ele>
        <time>2019-08-28T09:07:15Z</time>
      </trkpt>
      <trkpt lat="36.4949440" lon="-5.3108700">
        <ele>199.3</ele>
        <time>2019-08-28T09:07:16Z</time>
      </trkpt>
      <trkpt lat="36.4949580" lon="-5.3109000">
        <ele>199.6</ele>
        <time>2019-08-28T09:07:17Z</time>
      </trkpt>
      <trkpt lat="36.4949710" lon="-5.3109310">
        <ele>199.8</ele>
        <time>2019-08-28T09:07:18Z</time>
      </trkpt>
      <trkpt lat="36.4949840" lon="-5.3109630">
        <ele>200.0</ele>
        <time>2019-08-28T09:07:19Z</time>
      </trkpt>
      <trkpt lat="36.4949950" lon="-5.3109940">
        <ele>200.3</ele>
        <time>2019-08-28T09:07:20Z</time>
      </trkpt>
      <trkpt lat="36.4950060" lon="-5.3110240">
        <ele>200.5</ele>
        <time>2019-08-28T09:07:21Z</time>
      </trkpt>
      <trkpt lat="36.4950150" lon="-5.3110540">
        <ele>200.7</ele>
        <time>2019-08-28T09:07:22Z</time>
      </trkpt>
      <trkpt lat="36.4950230" lon="-5.3110840">
        <ele>200.9</ele>
        <time>2019-08-28T09:07:23Z</time>
      </trkpt>
      <trkpt lat="36.4950300" lon="-5.3111150">
        <ele>201.1</ele>
        <time>2019-08-28T09:07:24Z</time>
      </trkpt>
      <trkpt lat="36.4950360" lon="-5.3111460">
        <ele>201.3</ele>
        <time>2019-08-28T09:07:25Z</time>
      </trkpt>
      <trkpt lat="36.4950400" lon="-5.3111790">
        <ele>201.5</ele>
        <time>2019-08-28T09:07:26Z</time>
      </trkpt>
      <trkpt lat="36.4950420" lon="-5.3112130">
        <ele>201.7</ele>
        <time>2019-08-28T09:07:27Z</time>
      </trkpt>
      <trkpt lat="36.4950410" lon="-5.3112470">
        <ele>201.9</ele>
        <time>2019-08-28T09:07:28Z</time>
      </trkpt>
      <trkpt lat="36.4950380" lon="-5.3112820">
        <ele>202.1</ele>
        <time>2019-08-28T09:07:29Z</time>
      </trkpt>
      <trkpt lat="36.4950350" lon="-5.3113180">
        <ele>202.3</ele>
        <time>2019-08-28T09:07:30Z</time>
      </trkpt>
      <trkpt lat="36.4950300" lon="-5.3113540">
        <ele>202.6</ele>
        <time>2019-08-28T09:07:31Z</time>
      </trkpt>
      <trkpt lat="36.4950250" lon="-5.3113880">
        <ele>202.8</ele>
        <time>2019-08-28T09:07:32Z</time>
      </trkpt>
      <trkpt lat="36.4950200" lon="-5.3114210">
        <ele>203.1</ele>
        <time>2019-08-28T09:07:33Z</time>
      </trkpt>
      <trkpt lat="36.4950130" lon="-5.3114550">
        <ele>203.3</ele>
        <time>2019-08-28T09:07:34Z</time>
      </trkpt>
      <trkpt lat="36.4950040" lon="-5.3114900">
        <ele>203.5</ele>
        <time>2019-08-28T09:07:35Z</time>
      </trkpt>
      <trkpt lat="36.4949960" lon="-5.3115260">
        <ele>203.8</ele>
        <time>2019-08-28T09:07:36Z</time>
      </trkpt>
      <trkpt lat="36.4949880" lon="-5.3115610">
        <ele>204.1</ele>
        <time>2019-08-28T09:07:37Z</time>
      </trkpt>
      <trkpt lat="36.4949810" lon="-5.3115950">
        <ele>204.3</ele>
        <time>2019-08-28T09:07:38Z</time>
      </trkpt>
      <trkpt lat="36.4949740" lon="-5.3116310">
        <ele>204.6</ele>
        <time>2019-08-28T09:07:39Z</time>
      </trkpt>
      <trkpt lat="36.4949670" lon="-5.3116660">
        <ele>204.8</ele>
        <time>2019-08-28T09:07:40Z</time>
      </trkpt>
      <trkpt lat="36.4949610" lon="-5.3117020">
        <ele>205.0</ele>
        <time>2019-08-28T09:07:41Z</time>
      </trkpt>
      <trkpt lat="36.4949550" lon="-5.3117380">
        <ele>205.3</ele>
        <time>2019-08-28T09:07:42Z</time>
      </trkpt>
      <trkpt lat="36.4949480" lon="-5.3117740">
        <ele>205.5</ele>
        <time>2019-08-28T09:07:43Z</time>
      </trkpt>
      <trkpt lat="36.4949410" lon="-5.3118090">
        <ele>205.8</ele>
        <time>2019-08-28T09:07:44Z</time>
      </trkpt>
      <trkpt lat="36.4949350" lon="-5.3118450">
        <ele>206.0</ele>
        <time>2019-08-28T09:07:45Z</time>
      </trkpt>
      <trkpt lat="36.4949280" lon="-5.3118810">
        <ele>206.2</ele>
        <time>2019-08-28T09:07:46Z</time>
      </trkpt>
      <trkpt lat="36.4949210" lon="-5.3119160">
        <ele>206.5</ele>
        <time>2019-08-28T09:07:47Z</time>
      </trkpt>
      <trkpt lat="36.4949150" lon="-5.3119510">
        <ele>206.7</ele>
        <time>2019-08-28T09:07:48Z</time>
      </trkpt>
      <trkpt lat="36.4949090" lon="-5.3119860">
        <ele>206.9</ele>
        <time>2019-08-28T09:07:49Z</time>
      </trkpt>
      <trkpt lat="36.4949030" lon="-5.3120200">
        <ele>207.1</ele>
        <time>2019-08-28T09:07:50Z</time>
      </trkpt>
      <trkpt lat="36.4948980" lon="-5.3120540">
        <ele>207.3</ele>
        <time>2019-08-28T09:07:51Z</time>
      </trkpt>
      <trkpt lat="36.4948930" lon="-5.3120870">
        <ele>207.5</ele>
        <time>2019-08-28T09:07:52Z</time>
      </trkpt>
      <trkpt lat="36.4948880" lon="-5.3121210">
        <ele>207.7</ele>
        <time>2019-08-28T09:07:53Z</time>
      </trkpt>
      <trkpt lat="36.4948840" lon="-5.3121560">
        <ele>208.0</ele>
        <time>2019-08-28T09:07:54Z</time>
      </trkpt>
      <trkpt lat="36.4948810" lon="-5.3121910">
        <ele>208.1</ele>
        <time>2019-08-28T09:07:55Z</time>
      </trkpt>
      <trkpt lat="36.4948780" lon="-5.3122260">
        <ele>208.3</ele>
        <time>2019-08-28T09:07:56Z</time>
      </trkpt>
      <trkpt lat="36.4948740" lon="-5.3122610">
        <ele>208.5</ele>
        <time>2019-08-28T09:07:57Z</time>
      </trkpt>
      <trkpt lat="36.4948690" lon="-5.3122960">
        <ele>208.7</ele>
        <time>2019-08-28T09:07:58Z</time>
      </trkpt>
      <trkpt lat="36.4948650" lon="-5.3123310">
        <ele>208.9</ele>
        <time>2019-08-28T09:07:59Z</time>
      </trkpt>
      <trkpt lat="36.4948620" lon="-5.3123660">
        <ele>209.1</ele>
        <time>2019-08-28T09:08:00Z</time>
      </trkpt>
      <trkpt lat="36.4948600" lon="-5.3124010">
        <ele>209.3</ele>
        <time>2019-08-28T09:08:01Z</time>
      </trkpt>
      <trkpt lat="36.4948580" lon="-5.3124360">
        <ele>209.5</ele>
        <time>2019-08-28T09:08:02Z</time>
      </trkpt>
      <trkpt lat="36.4948550" lon="-5.3124720">
        <ele>209.7</ele>
        <time>2019-08-28T09:08:03Z</time>
      </trkpt>
      <trkpt lat="36.4948520" lon="-5.3125060">
        <ele>209.9</ele>
        <time>2019-08-28T09:08:04Z</time>
      </trkpt>
      <trkpt lat="36.4948500" lon="-5.3125410">
        <ele>210.1</ele>
        <time>2019-08-28T09:08:05Z</time>
      </trkpt>
      <trkpt lat="36.4948480" lon="-5.3125750">
        <ele>210.3</ele>
        <time>2019-08-28T09:08:06Z</time>
      </trkpt>
      <trkpt lat="36.4948470" lon="-5.3126090">
        <ele>210.5</ele>
        <time>2019-08-28T09:08:07Z</time>
      </trkpt>
      <trkpt lat="36.4948470" lon="-5.3126430">
        <ele>210.7</ele>
        <time>2019-08-28T09:08:08Z</time>
      </trkpt>
      <trkpt lat="36.4948480" lon="-5.3126770">
        <ele>210.9</ele>
        <time>2019-08-28T09:08:09Z</time>
      </trkpt>
      <trkpt lat="36.4948500" lon="-5.3127120">
        <ele>211.1</ele>
        <time>2019-08-28T09:08:10Z</time>
      </trkpt>
      <trkpt lat="36.4948520" lon="-5.3127470">
        <ele>211.3</ele>
        <time>2019-08-28T09:08:11Z</time>
      </trkpt>
      <trkpt lat="36.4948560" lon="-5.3127820">
        <ele>211.5</ele>
        <time>2019-08-28T09:08:12Z</time>
      </trkpt>
      <trkpt lat="36.4948600" lon="-5.3128160">
        <ele>211.7</ele>
        <time>2019-08-28T09:08:13Z</time>
      </trkpt>
      <trkpt lat="36.4948650" lon="-5.3128510">
        <ele>211.9</ele>
        <time>2019-08-28T09:08:14Z</time>
      </trkpt>
      <trkpt lat="36.4948700" lon="-5.3128850">
        <ele>212.1</ele>
        <time>2019-08-28T09:08:15Z</time>
      </trkpt>
      <trkpt lat="36.4948760" lon="-5.3129200">
        <ele>212.3</ele>
        <time>2019-08-28T09:08:16Z</time>
      </trkpt>
      <trkpt lat="36.4948820" lon="-5.3129560">
        <ele>212.6</ele>
        <time>2019-08-28T09:08:17Z</time>
      </trkpt>
      <trkpt lat="36.4948890" lon="-5.3129910">
        <ele>212.8</ele>
        <time>2019-08-28T09:08:18Z</time>
      </trkpt>
      <trkpt lat="36.4948950" lon="-5.3130260">
        <ele>213.0</ele>
        <time>2019-08-28T09:08:19Z</time>
      </trkpt>
      <trkpt lat="36.4949010" lon="-5.3130620">
        <ele>213.3</ele>
        <time>2019-08-28T09:08:20Z</time>
      </trkpt>
      <trkpt lat="36.4949080" lon="-5.3130970">
        <ele>213.5</ele>
        <time>2019-08-28T09:08:21Z</time>
      </trkpt>
      <trkpt lat="36.4949140" lon="-5.3131320">
        <ele>213.8</ele>
        <time>2019-08-28T09:08:22Z</time>
      </trkpt>
      <trkpt lat="36.4949200" lon="-5.3131670">
        <ele>214.0</ele>
        <time>2019-08-28T09:08:23Z</time>
      </trkpt>
      <trkpt lat="36.4949270" lon="-5.3132020">
        <ele>214.3</ele>
        <time>2019-08-28T09:08:24Z</time>
      </trkpt>
      <trkpt lat="36.4949340" lon="-5.3132360">
        <ele>214.6</ele>
        <time>2019-08-28T09:08:25Z</time>
      </trkpt>
      <trkpt lat="36.4949380" lon="-5.3132710">
        <ele>214.8</ele>
        <time>2019-08-28T09:08:26Z</time>
      </trkpt>
      <trkpt lat="36.4949400" lon="-5.3133070">
        <ele>215.1</ele>
        <time>2019-08-28T09:08:27Z</time>
      </trkpt>
      <trkpt lat="36.4949380" lon="-5.3133450">
        <ele>215.4</ele>
        <time>2019-08-28T09:08:28Z</time>
      </trkpt>
      <trkpt lat="36.4949350" lon="-5.3133830">
        <ele>215.7</ele>
        <time>2019-08-28T09:08:29Z</time>
      </trkpt>
      <trkpt lat="36.4949300" lon="-5.3134240">
        <ele>216.0</ele>
        <time>2019-08-28T09:08:30Z</time>
      </trkpt>
      <trkpt lat="36.4949220" lon="-5.3134650">
        <ele>216.3</ele>
        <time>2019-08-28T09:08:31Z</time>
      </trkpt>
      <trkpt lat="36.4949120" lon="-5.3135060">
        <ele>216.7</ele>
        <time>2019-08-28T09:08:32Z</time>
      </trkpt>
      <trkpt lat="36.4949020" lon="-5.3135460">
        <ele>217.0</ele>
        <time>2019-08-28T09:08:33Z</time>
      </trkpt>
      <trkpt lat="36.4948910" lon="-5.3135840">
        <ele>217.3</ele>
        <time>2019-08-28T09:08:34Z</time>
      </trkpt>
      <trkpt lat="36.4948790" lon="-5.3136220">
        <ele>217.6</ele>
        <time>2019-08-28T09:08:35Z</time>
      </trkpt>
      <trkpt lat="36.4948680" lon="-5.3136580">
        <ele>217.9</ele>
        <time>2019-08-28T09:08:36Z</time>
      </trkpt>
      <trkpt lat="36.4948570" lon="-5.3136930">
        <ele>218.2</ele>
        <time>2019-08-28T09:08:37Z</time>
      </trkpt>
      <trkpt lat="36.4948440" lon="-5.3137260">
        <ele>218.5</ele>
        <time>2019-08-28T09:08:38Z</time>
      </trkpt>
      <trkpt lat="36.4948300" lon="-5.3137580">
        <ele>218.8</ele>
        <time>2019-08-28T09:08:39Z</time>
      </trkpt>
      <trkpt lat="36.4948150" lon="-5.3137910">
        <ele>219.1</ele>
        <time>2019-08-28T09:08:40Z</time>
      </trkpt>
      <trkpt lat="36.4948020" lon="-5.3138230">
        <ele>219.3</ele>
        <time>2019-08-28T09:08:41Z</time>
      </trkpt>
      <trkpt lat="36.4947880" lon="-5.3138560">
        <ele>219.6</ele>
        <time>2019-08-28T09:08:42Z</time>
      </trkpt>
      <trkpt lat="36.4947760" lon="-5.3138870">
        <ele>219.8</ele>
        <time>2019-08-28T09:08:43Z</time>
      </trkpt>
      <trkpt lat="36.4947630" lon="-5.3139180">
        <ele>220.1</ele>
        <time>2019-08-28T09:08:44Z</time>
      </trkpt>
      <trkpt lat="36.4947500" lon="-5.3139480">
        <ele>220.3</ele>
        <time>2019-08-28T09:08:45Z</time>
      </trkpt>
      <trkpt lat="36.4947370" lon="-5.3139780">
        <ele>220.5</ele>
        <time>2019-08-28T09:08:46Z</time>
      </trkpt>
      <trkpt lat="36.4947240" lon="-5.3140070">
        <ele>220.7</ele>
        <time>2019-08-28T09:08:47Z</time>
      </trkpt>
      <trkpt lat="36.4947110" lon="-5.3140370">
        <ele>220.9</ele>
        <time>2019-08-28T09:08:48Z</time>
      </trkpt>
      <trkpt lat="36.4946990" lon="-5.3140670">
        <ele>221.1</ele>
        <time>2019-08-28T09:08:49Z</time>
      </trkpt>
      <trkpt lat="36.4946850" lon="-5.3140980">
        <ele>221.3</ele>
        <time>2019-08-28T09:08:50Z</time>
      </trkpt>
      <trkpt lat="36.4946710" lon="-5.3141300">
        <ele>221.5</ele>
        <time>2019-08-28T09:08:51Z</time>
      </trkpt>
      <trkpt lat="36.4946560" lon="-5.3141620">
        <ele>221.7</ele>
        <time>2019-08-28T09:08:52Z</time>
      </trkpt>
      <trkpt lat="36.4946420" lon="-5.3141950">
        <ele>221.9</ele>
        <time>2019-08-28T09:08:53Z</time>
      </trkpt>
      <trkpt lat="36.4946300" lon="-5.3142270">
        <ele>222.1</ele>
        <time>2019-08-28T09:08:54Z</time>
      </trkpt>
      <trkpt lat="36.4946180" lon="-5.3142590">
        <ele>222.3</ele>
        <time>2019-08-28T09:08:55Z</time>
      </trkpt>
      <trkpt lat="36.4946060" lon="-5.3142900">
        <ele>222.5</ele>
        <time>2019-08-28T09:08:56Z</time>
      </trkpt>
      <trkpt lat="36.4945940" lon="-5.3143200">
        <ele>222.6</ele>
        <time>2019-08-28T09:08:57Z</time>
      </trkpt>
      <trkpt lat="36.4945820" lon="-5.3143510">
        <ele>222.8</ele>
        <time>2019-08-28T09:08:58Z</time>
      </trkpt>
      <trkpt lat="36.4945710" lon="-5.3143830">
        <ele>222.9</ele>
        <time>2019-08-28T09:08:59Z</time>
      </trkpt>
      <trkpt lat="36.4945620" lon="-5.3144160">
        <ele>223.1</ele>
        <time>2019-08-28T09:09:00Z</time>
      </trkpt>
      <trkpt lat="36.4945540" lon="-5.3144480">
        <ele>223.2</ele>
        <time>2019-08-28T09:09:01Z</time>
      </trkpt>
      <trkpt lat="36.4945470" lon="-5.3144810">
        <ele>223.4</ele>
        <time>2019-08-28T09:09:02Z</time>
      </trkpt>
      <trkpt lat="36.4945400" lon="-5.3145130">
        <ele>223.5</ele>
        <time>2019-08-28T09:09:03Z</time>
      </trkpt>
      <trkpt lat="36.4945350" lon="-5.3145450">
        <ele>223.6</ele>
        <time>2019-08-28T09:09:04Z</time>
      </trkpt>
      <trkpt lat="36.4945310" lon="-5.3145760">
        <ele>223.8</ele>
        <time>2019-08-28T09:09:05Z</time>
      </trkpt>
      <trkpt lat="36.4945270" lon="-5.3146080">
        <ele>223.9</ele>
        <time>2019-08-28T09:09:06Z</time>
      </trkpt>
      <trkpt lat="36.4945230" lon="-5.3146390">
        <ele>224.1</ele>
        <time>2019-08-28T09:09:07Z</time>
      </trkpt>
      <trkpt lat="36.4945200" lon="-5.3146710">
        <ele>224.2</ele>
        <time>2019-08-28T09:09:08Z</time>
      </trkpt>
      <trkpt lat="36.4945180" lon="-5.3147020">
        <ele>224.4</ele>
        <time>2019-08-28T09:09:09Z</time>
      </trkpt>
      <trkpt lat="36.4945170" lon="-5.3147330">
        <ele>224.5</ele>
        <time>2019-08-28T09:09:10Z</time>
      </trkpt>
      <trkpt lat="36.4945170" lon="-5.3147650">
        <ele>224.7</ele>
        <time>2019-08-28T09:09:11Z</time>
      </trkpt>
      <trkpt lat="36.4945180" lon="-5.3147970">
        <ele>224.8</ele>
        <time>2019-08-28T09:09:12Z</time>
      </trkpt>
      <trkpt lat="36.4945230" lon="-5.3148300">
        <ele>225.0</ele>
        <time>2019-08-28T09:09:13Z</time>
      </trkpt>
      <trkpt lat="36.4945310" lon="-5.3148630">
        <ele>225.1</ele>
        <time>2019-08-28T09:09:14Z</time>
      </trkpt>
      <trkpt lat="36.4945410" lon="-5.3148950">
        <ele>225.3</ele>
        <time>2019-08-28T09:09:15Z</time>
      </trkpt>
      <trkpt lat="36.4945540" lon="-5.3149270">
        <ele>225.5</ele>
        <time>2019-08-28T09:09:16Z</time>
      </trkpt>
      <trkpt lat="36.4945700" lon="-5.3149580">
        <ele>225.6</ele>
        <time>2019-08-28T09:09:17Z</time>
      </trkpt>
      <trkpt lat="36.4945870" lon="-5.3149890">
        <ele>225.8</ele>
        <time>2019-08-28T09:09:18Z</time>
      </trkpt>
      <trkpt lat="36.4946050" lon="-5.3150190">
        <ele>226.0</ele>
        <time>2019-08-28T09:09:19Z</time>
      </trkpt>
      <trkpt lat="36.4946240" lon="-5.3150470">
        <ele>226.2</ele>
        <time>2019-08-28T09:09:20Z</time>
      </trkpt>
      <trkpt lat="36.4946440" lon="-5.3150740">
        <ele>226.5</ele>
        <time>2019-08-28T09:09:21Z</time>
      </trkpt>
      <trkpt lat="36.4946630" lon="-5.3151000">
        <ele>226.7</ele>
        <time>2019-08-28T09:09:22Z</time>
      </trkpt>
      <trkpt lat="36.4946830" lon="-5.3151270">
        <ele>227.0</ele>
        <time>2019-08-28T09:09:23Z</time>
      </trkpt>
      <trkpt lat="36.4947020" lon="-5.3151540">
        <ele>227.2</ele>
        <time>2019-08-28T09:09:24Z</time>
      </trkpt>
      <trkpt lat="36.4947220" lon="-5.3151790">
        <ele>227.4</ele>
        <time>2019-08-28T09:09:25Z</time>
      </trkpt>
      <trkpt lat="36.4947420" lon="-5.3152050">
        <ele>227.6</ele>
        <time>2019-08-28T09:09:26Z</time>
      </trkpt>
      <trkpt lat="36.4947620" lon="-5.3152310">
        <ele>227.8</ele>
        <time>2019-08-28T09:09:27Z</time>
      </trkpt>
      <trkpt lat="36.4947820" lon="-5.3152560">
        <ele>228.0</ele>
        <time>2019-08-28T09:09:28Z</time>
      </trkpt>
      <trkpt lat="36.4948030" lon="-5.3152800">
        <ele>228.3</ele>
        <time>2019-08-28T09:09:29Z</time>
      </trkpt>
      <trkpt lat="36.4948230" lon="-5.3153060">
        <ele>228.6</ele>
        <time>2019-08-28T09:09:30Z</time>
      </trkpt>
      <trkpt lat="36.4948440" lon="-5.3153310">
        <ele>228.8</ele>
        <time>2019-08-28T09:09:31Z</time>
      </trkpt>
      <trkpt lat="36.4948650" lon="-5.3153570">
        <ele>229.0</ele>
        <time>2019-08-28T09:09:32Z</time>
      </trkpt>
      <trkpt lat="36.4948860" lon="-5.3153820">
        <ele>229.2</ele>
        <time>2019-08-28T09:09:33Z</time>
      </trkpt>
      <trkpt lat="36.4949080" lon="-5.3154080">
        <ele>229.4</ele>
        <time>2019-08-28T09:09:34Z</time>
      </trkpt>
      <trkpt lat="36.4949300" lon="-5.3154330">
        <ele>229.6</ele>
        <time>2019-08-28T09:09:35Z</time>
      </trkpt>
      <trkpt lat="36.4949510" lon="-5.3154580">
        <ele>229.8</ele>
        <time>2019-08-28T09:09:36Z</time>
      </trkpt>
      <trkpt lat="36.4949730" lon="-5.3154830">
        <ele>230.0</ele>
        <time>2019-08-28T09:09:37Z</time>
      </trkpt>
      <trkpt lat="36.4949950" lon="-5.3155070">
        <ele>230.2</ele>
        <time>2019-08-28T09:09:38Z</time>
      </trkpt>
      <trkpt lat="36.4950170" lon="-5.3155330">
        <ele>230.4</ele>
        <time>2019-08-28T09:09:39Z</time>
      </trkpt>
      <trkpt lat="36.4950380" lon="-5.3155620">
        <ele>230.6</ele>
        <time>2019-08-28T09:09:40Z</time>
      </trkpt>
      <trkpt lat="36.4950610" lon="-5.3155890">
        <ele>230.8</ele>
        <time>2019-08-28T09:09:41Z</time>
      </trkpt>
      <trkpt lat="36.4950840" lon="-5.3156170">
        <ele>231.0</ele>
        <time>2019-08-28T09:09:42Z</time>
      </trkpt>
      <trkpt lat="36.4951070" lon="-5.3156420">
        <ele>231.2</ele>
        <time>2019-08-28T09:09:43Z</time>
      </trkpt>
      <trkpt lat="36.4951300" lon="-5.3156690">
        <ele>231.4</ele>
        <time>2019-08-28T09:09:44Z</time>
      </trkpt>
      <trkpt lat="36.4951530" lon="-5.3156970">
        <ele>231.6</ele>
        <time>2019-08-28T09:09:45Z</time>
      </trkpt>
      <trkpt lat="36.4951760" lon="-5.3157250">
        <ele>231.8</ele>
        <time>2019-08-28T09:09:46Z</time>
      </trkpt>
      <trkpt lat="36.4951990" lon="-5.3157540">
        <ele>232.0</ele>
        <time>2019-08-28T09:09:47Z</time>
      </trkpt>
      <trkpt lat="36.4952210" lon="-5.3157840">
        <ele>232.2</ele>
        <time>2019-08-28T09:09:48Z</time>
      </trkpt>
      <trkpt lat="36.4952410" lon="-5.3158160">
        <ele>232.4</ele>
        <time>2019-08-28T09:09:49Z</time>
      </trkpt>
      <trkpt lat="36.4952590" lon="-5.3158510">
        <ele>232.6</ele>
        <time>2019-08-28T09:09:50Z</time>
      </trkpt>
      <trkpt lat="36.4952760" lon="-5.3158870">
        <ele>232.9</ele>
        <time>2019-08-28T09:09:51Z</time>
      </trkpt>
      <trkpt lat="36.4952920" lon="-5.3159250">
        <ele>233.1</ele>
        <time>2019-08-28T09:09:52Z</time>
      </trkpt>
      <trkpt lat="36.4953060" lon="-5.3159620">
        <ele>233.3</ele>
        <time>2019-08-28T09:09:53Z</time>
      </trkpt>
      <trkpt lat="36.4953180" lon="-5.3160020">
        <ele>233.6</ele>
        <time>2019-08-28T09:09:54Z</time>
      </trkpt>
      <trkpt lat="36.4953280" lon="-5.3160430">
        <ele>233.8</ele>
        <time>2019-08-28T09:09:55Z</time>
      </trkpt>
      <trkpt lat="36.4953360" lon="-5.3160860">
        <ele>234.0</ele>
        <time>2019-08-28T09:09:56Z</time>
      </trkpt>
      <trkpt lat="36.4953430" lon="-5.3161290">
        <ele>234.3</ele>
        <time>2019-08-28T09:09:57Z</time>
      </trkpt>
      <trkpt lat="36.4953500" lon="-5.3161720">
        <ele>234.5</ele>
        <time>2019-08-28T09:09:58Z</time>
      </trkpt>
      <trkpt lat="36.4953550" lon="-5.3162150">
        <ele>234.8</ele>
        <time>2019-08-28T09:09:59Z</time>
      </trkpt>
      <trkpt lat="36.4953580" lon="-5.3162590">
        <ele>235.0</ele>
        <time>2019-08-28T09:10:00Z</time>
      </trkpt>
      <trkpt lat="36.4953600" lon="-5.3163040">
        <ele>235.3</ele>
        <time>2019-08-28T09:10:01Z</time>
      </trkpt>
      <trkpt lat="36.4953610" lon="-5.3163490">
        <ele>235.6</ele>
        <time>2019-08-28T09:10:02Z</time>
      </trkpt>
      <trkpt lat="36.4953610" lon="-5.3163930">
        <ele>235.8</ele>
        <time>2019-08-28T09:10:03Z</time>
      </trkpt>
      <trkpt lat="36.4953610" lon="-5.3164370">
        <ele>236.1</ele>
        <time>2019-08-28T09:10:04Z</time>
      </trkpt>
      <trkpt lat="36.4953600" lon="-5.3164810">
        <ele>236.3</ele>
        <time>2019-08-28T09:10:05Z</time>
      </trkpt>
      <trkpt lat="36.4953590" lon="-5.3165240">
        <ele>236.6</ele>
        <time>2019-08-28T09:10:06Z</time>
      </trkpt>
      <trkpt lat="36.4953570" lon="-5.3165670">
        <ele>236.8</ele>
        <time>2019-08-28T09:10:07Z</time>
      </trkpt>
      <trkpt lat="36.4953550" lon="-5.3166090">
        <ele>237.1</ele>
        <time>2019-08-28T09:10:08Z</time>
      </trkpt>
      <trkpt lat="36.4953530" lon="-5.3166520">
        <ele>237.3</ele>
        <time>2019-08-28T09:10:09Z</time>
      </trkpt>
      <trkpt lat="36.4953510" lon="-5.3166950">
        <ele>237.5</ele>
        <time>2019-08-28T09:10:10Z</time>
      </trkpt>
      <trkpt lat="36.4953490" lon="-5.3167390">
        <ele>237.8</ele>
        <time>2019-08-28T09:10:11Z</time>
      </trkpt>
      <trkpt lat="36.4953480" lon="-5.3167820">
        <ele>238.0</ele>
        <time>2019-08-28T09:10:12Z</time>
      </trkpt>
      <trkpt lat="36.4953470" lon="-5.3168250">
        <ele>238.3</ele>
        <time>2019-08-28T09:10:13Z</time>
      </trkpt>
      <trkpt lat="36.4953440" lon="-5.3168680">
        <ele>238.5</ele>
        <time>2019-08-28T09:10:14Z</time>
      </trkpt>
      <trkpt lat="36.4953400" lon="-5.3169110">
        <ele>238.7</ele>
        <time>2019-08-28T09:10:15Z</time>
      </trkpt>
      <trkpt lat="36.4953370" lon="-5.3169550">
        <ele>239.0</ele>
        <time>2019-08-28T09:10:16Z</time>
      </trkpt>
      <trkpt lat="36.4953330" lon="-5.3169980">
        <ele>239.2</ele>
        <time>2019-08-28T09:10:17Z</time>
      </trkpt>
      <trkpt lat="36.4953310" lon="-5.3170400">
        <ele>239.4</ele>
        <time>2019-08-28T09:10:18Z</time>
      </trkpt>
      <trkpt lat="36.4953280" lon="-5.3170830">
        <ele>239.7</ele>
        <time>2019-08-28T09:10:19Z</time>
      </trkpt>
      <trkpt lat="36.4953240" lon="-5.3171250">
        <ele>239.9</ele>
        <time>2019-08-28T09:10:20Z</time>
      </trkpt>
      <trkpt lat="36.4953190" lon="-5.3171680">
        <ele>240.1</ele>
        <time>2019-08-28T09:10:21Z</time>
      </trkpt>
      <trkpt lat="36.4953120" lon="-5.3172110">
        <ele>240.3</ele>
        <time>2019-08-28T09:10:22Z</time>
      </trkpt>
      <trkpt lat="36.4953050" lon="-5.3172550">
        <ele>240.6</ele>
        <time>2019-08-28T09:10:23Z</time>
      </trkpt>
      <trkpt lat="36.4952970" lon="-5.3172980">
        <ele>240.8</ele>
        <time>2019-08-28T09:10:24Z</time>
      </trkpt>
      <trkpt lat="36.4952910" lon="-5.3173410">
        <ele>241.0</ele>
        <time>2019-08-28T09:10:25Z</time>
      </trkpt>
      <trkpt lat="36.4952850" lon="-5.3173830">
        <ele>241.3</ele>
        <time>2019-08-28T09:10:26Z</time>
      </trkpt>
      <trkpt lat="36.4952790" lon="-5.3174260">
        <ele>241.5</ele>
        <time>2019-08-28T09:10:27Z</time>
      </trkpt>
      <trkpt lat="36.4952720" lon="-5.3174670">
        <ele>241.7</ele>
        <time>2019-08-28T09:10:28Z</time>
      </trkpt>
      <trkpt lat="36.4952660" lon="-5.3175070">
        <ele>241.9</ele>
        <time>2019-08-28T09:10:29Z</time>
      </trkpt>
      <trkpt lat="36.4952590" lon="-5.3175460">
        <ele>242.1</ele>
        <time>2019-08-28T09:10:30Z</time>
      </trkpt>
      <trkpt lat="36.4952530" lon="-5.3175860">
        <ele>242.3</ele>
        <time>2019-08-28T09:10:31Z</time>
      </trkpt>
      <trkpt lat="36.4952470" lon="-5.3176250">
        <ele>242.5</ele>
        <time>2019-08-28T09:10:32Z</time>
      </trkpt>
      <trkpt lat="36.4952400" lon="-5.3176640">
        <ele>242.7</ele>
        <time>2019-08-28T09:10:33Z</time>
      </trkpt>
      <trkpt lat="36.4952330" lon="-5.3177030">
        <ele>242.9</ele>
        <time>2019-08-28T09:10:34Z</time>
      </trkpt>
      <trkpt lat="36.4952270" lon="-5.3177420">
        <ele>243.1</ele>
        <time>2019-08-28T09:10:35Z</time>
      </trkpt>
      <trkpt lat="36.4952210" lon="-5.3177820">
        <ele>243.3</ele>
        <time>2019-08-28T09:10:36Z</time>
      </trkpt>
      <trkpt lat="36.4952140" lon="-5.3178220">
        <ele>243.5</ele>
        <time>2019-08-28T09:10:37Z</time>
      </trkpt>
      <trkpt lat="36.4952070" lon="-5.3178610">
        <ele>243.6</ele>
        <time>2019-08-28T09:10:38Z</time>
      </trkpt>
      <trkpt lat="36.4952000" lon="-5.3179000">
        <ele>243.8</ele>
        <time>2019-08-28T09:10:39Z</time>
      </trkpt>
      <trkpt lat="36.4951930" lon="-5.3179400">
        <ele>244.0</ele>
        <time>2019-08-28T09:10:40Z</time>
      </trkpt>
      <trkpt lat="36.4951860" lon="-5.3179790">
        <ele>244.2</ele>
        <time>2019-08-28T09:10:41Z</time>
      </trkpt>
      <trkpt lat="36.4951780" lon="-5.3180180">
        <ele>244.3</ele>
        <time>2019-08-28T09:10:42Z</time>
      </trkpt>
      <trkpt lat="36.4951710" lon="-5.3180570">
        <ele>244.5</ele>
        <time>2019-08-28T09:10:43Z</time>
      </trkpt>
      <trkpt lat="36.4951640" lon="-5.3180960">
        <ele>244.7</ele>
        <time>2019-08-28T09:10:44Z</time>
      </trkpt>
      <trkpt lat="36.4951570" lon="-5.3181360">
        <ele>244.8</ele>
        <time>2019-08-28T09:10:45Z</time>
      </trkpt>
      <trkpt lat="36.4951500" lon="-5.3181750">
        <ele>245.0</ele>
        <time>2019-08-28T09:10:46Z</time>
      </trkpt>
      <trkpt lat="36.4951430" lon="-5.3182140">
        <ele>245.2</ele>
        <time>2019-08-28T09:10:47Z</time>
      </trkpt>
      <trkpt lat="36.4951360" lon="-5.3182520">
        <ele>245.3</ele>
        <time>2019-08-28T09:10:48Z</time>
      </trkpt>
      <trkpt lat="36.4951290" lon="-5.3182890">
        <ele>245.4</ele>
        <time>2019-08-28T09:10:49Z</time>
      </trkpt>
      <trkpt lat="36.4951230" lon="-5.3183260">
        <ele>245.4</ele>
        <time>2019-08-28T09:10:50Z</time>
      </trkpt>
      <trkpt lat="36.4951160" lon="-5.3183630">
        <ele>245.3</ele>
        <time>2019-08-28T09:10:51Z</time>
      </trkpt>
      <trkpt lat="36.4951100" lon="-5.3184010">
        <ele>245.2</ele>
        <time>2019-08-28T09:10:52Z</time>
      </trkpt>
      <trkpt lat="36.4951030" lon="-5.3184380">
        <ele>245.2</ele>
        <time>2019-08-28T09:10:53Z</time>
      </trkpt>
      <trkpt lat="36.4950970" lon="-5.3184760">
        <ele>245.1</ele>
        <time>2019-08-28T09:10:54Z</time>
      </trkpt>
      <trkpt lat="36.4950910" lon="-5.3185140">
        <ele>245.0</ele>
        <time>2019-08-28T09:10:55Z</time>
      </trkpt>
      <trkpt lat="36.4950850" lon="-5.3185520">
        <ele>245.0</ele>
        <time>2019-08-28T09:10:56Z</time>
      </trkpt>
      <trkpt lat="36.4950790" lon="-5.3185890">
        <ele>244.9</ele>
        <time>2019-08-28T09:10:57Z</time>
      </trkpt>
      <trkpt lat="36.4950740" lon="-5.3186270">
        <ele>245.5</ele>
        <time>2019-08-28T09:10:58Z</time>
      </trkpt>
      <trkpt lat="36.4950680" lon="-5.3186650">
        <ele>245.7</ele>
        <time>2019-08-28T09:10:59Z</time>
      </trkpt>
      <trkpt lat="36.4950640" lon="-5.3187020">
        <ele>246.0</ele>
        <time>2019-08-28T09:11:00Z</time>
      </trkpt>
      <trkpt lat="36.4950590" lon="-5.3187400">
        <ele>246.2</ele>
        <time>2019-08-28T09:11:01Z</time>
      </trkpt>
      <trkpt lat="36.4950570" lon="-5.3187790">
        <ele>246.4</ele>
        <time>2019-08-28T09:11:02Z</time>
      </trkpt>
      <trkpt lat="36.4950550" lon="-5.3188170">
        <ele>246.7</ele>
        <time>2019-08-28T09:11:03Z</time>
      </trkpt>
      <trkpt lat="36.4950540" lon="-5.3188560">
        <ele>246.9</ele>
        <time>2019-08-28T09:11:04Z</time>
      </trkpt>
      <trkpt lat="36.4950540" lon="-5.3188940">
        <ele>247.1</ele>
        <time>2019-08-28T09:11:05Z</time>
      </trkpt>
      <trkpt lat="36.4950560" lon="-5.3189330">
        <ele>247.3</ele>
        <time>2019-08-28T09:11:06Z</time>
      </trkpt>
      <trkpt lat="36.4950600" lon="-5.3189730">
        <ele>247.6</ele>
        <time>2019-08-28T09:11:07Z</time>
      </trkpt>
      <trkpt lat="36.4950640" lon="-5.3190130">
        <ele>247.8</ele>
        <time>2019-08-28T09:11:08Z</time>
      </trkpt>
      <trkpt lat="36.4950700" lon="-5.3190530">
        <ele>248.0</ele>
        <time>2019-08-28T09:11:09Z</time>
      </trkpt>
      <trkpt lat="36.4950770" lon="-5.3190930">
        <ele>248.3</ele>
        <time>2019-08-28T09:11:10Z</time>
      </trkpt>
      <trkpt lat="36.4950850" lon="-5.3191330">
        <ele>248.5</ele>
        <time>2019-08-28T09:11:11Z</time>
      </trkpt>
      <trkpt lat="36.4950930" lon="-5.3191730">
        <ele>248.7</ele>
        <time>2019-08-28T09:11:12Z</time>
      </trkpt>
      <trkpt lat="36.4951010" lon="-5.3192130">
        <ele>249.0</ele>
        <time>2019-08-28T09:11:13Z</time>
      </trkpt>
      <trkpt lat="36.4951090" lon="-5.3192540">
        <ele>249.2</ele>
        <time>2019-08-28T09:11:14Z</time>
      </trkpt>
      <trkpt lat="36.4951180" lon="-5.3192930">
        <ele>249.4</ele>
        <time>2019-08-28T09:11:15Z</time>
      </trkpt>
      <trkpt lat="36.4951270" lon="-5.3193320">
        <ele>249.7</ele>
        <time>2019-08-28T09:11:16Z</time>
      </trkpt>
      <trkpt lat="36.4951360" lon="-5.3193710">
        <ele>249.9</ele>
        <time>2019-08-28T09:11:17Z</time>
      </trkpt>
      <trkpt lat="36.4951450" lon="-5.3194100">
        <ele>250.1</ele>
        <time>2019-08-28T09:11:18Z</time>
      </trkpt>
      <trkpt lat="36.4951550" lon="-5.3194480">
        <ele>250.4</ele>
        <time>2019-08-28T09:11:19Z</time>
      </trkpt>
      <trkpt lat="36.4951640" lon="-5.3194860">
        <ele>250.6</ele>
        <time>2019-08-28T09:11:20Z</time>
      </trkpt>
      <trkpt lat="36.4951730" lon="-5.3195230">
        <ele>250.9</ele>
        <time>2019-08-28T09:11:21Z</time>
      </trkpt>
      <trkpt lat="36.4951830" lon="-5.3195600">
        <ele>251.1</ele>
        <time>2019-08-28T09:11:22Z</time>
      </trkpt>
      <trkpt lat="36.4951920" lon="-5.3195960">
        <ele>251.4</ele>
        <time>2019-08-28T09:11:23Z</time>
      </trkpt>
      <trkpt lat="36.4952010" lon="-5.3196320">
        <ele>251.6</ele>
        <time>2019-08-28T09:11:24Z</time>
      </trkpt>
      <trkpt lat="36.4952090" lon="-5.3196670">
        <ele>251.9</ele>
        <time>2019-08-28T09:11:25Z</time>
      </trkpt>
      <trkpt lat="36.4952170" lon="-5.3197030">
        <ele>252.1</ele>
        <time>2019-08-28T09:11:26Z</time>
      </trkpt>
      <trkpt lat="36.4952240" lon="-5.3197380">
        <ele>252.4</ele>
        <time>2019-08-28T09:11:27Z</time>
      </trkpt>
      <trkpt lat="36.4952330" lon="-5.3197730">
        <ele>252.7</ele>
        <time>2019-08-28T09:11:28Z</time>
      </trkpt>
      <trkpt lat="36.4952420" lon="-5.3198060">
        <ele>252.9</ele>
        <time>2019-08-28T09:11:29Z</time>
      </trkpt>
      <trkpt lat="36.4952510" lon="-5.3198390">
        <ele>253.2</ele>
        <time>2019-08-28T09:11:30Z</time>
      </trkpt>
      <trkpt lat="36.4952590" lon="-5.3198710">
        <ele>253.5</ele>
        <time>2019-08-28T09:11:31Z</time>
      </trkpt>
      <trkpt lat="36.4952670" lon="-5.3199030">
        <ele>253.7</ele>
        <time>2019-08-28T09:11:32Z</time>
      </trkpt>
      <trkpt lat="36.4952740" lon="-5.3199350">
        <ele>254.0</ele>
        <time>2019-08-28T09:11:33Z</time>
      </trkpt>
      <trkpt lat="36.4952810" lon="-5.3199670">
        <ele>254.3</ele>
        <time>2019-08-28T09:11:34Z</time>
      </trkpt>
      <trkpt lat="36.4952890" lon="-5.3200000">
        <ele>254.5</ele>
        <time>2019-08-28T09:11:35Z</time>
      </trkpt>
      <trkpt lat="36.4952970" lon="-5.3200330">
        <ele>254.8</ele>
        <time>2019-08-28T09:11:36Z</time>
      </trkpt>
      <trkpt lat="36.4953060" lon="-5.3200660">
        <ele>255.1</ele>
        <time>2019-08-28T09:11:37Z</time>
      </trkpt>
      <trkpt lat="36.4953160" lon="-5.3200970">
        <ele>255.4</ele>
        <time>2019-08-28T09:11:38Z</time>
      </trkpt>
      <trkpt lat="36.4953270" lon="-5.3201290">
        <ele>255.6</ele>
        <time>2019-08-28T09:11:39Z</time>
      </trkpt>
      <trkpt lat="36.4953390" lon="-5.3201610">
        <ele>255.9</ele>
        <time>2019-08-28T09:11:40Z</time>
      </trkpt>
      <trkpt lat="36.4953520" lon="-5.3201910">
        <ele>256.2</ele>
        <time>2019-08-28T09:11:41Z</time>
      </trkpt>
      <trkpt lat="36.4953670" lon="-5.3202200">
        <ele>256.5</ele>
        <time>2019-08-28T09:11:42Z</time>
      </trkpt>
      <trkpt lat="36.4953820" lon="-5.3202470">
        <ele>256.7</ele>
        <time>2019-08-28T09:11:43Z</time>
      </trkpt>
      <trkpt lat="36.4953990" lon="-5.3202730">
        <ele>257.0</ele>
        <time>2019-08-28T09:11:44Z</time>
      </trkpt>
      <trkpt lat="36.4954170" lon="-5.3202970">
        <ele>257.2</ele>
        <time>2019-08-28T09:11:45Z</time>
      </trkpt>
      <trkpt lat="36.4954360" lon="-5.3203190">
        <ele>257.5</ele>
        <time>2019-08-28T09:11:46Z</time>
      </trkpt>
      <trkpt lat="36.4954550" lon="-5.3203390">
        <ele>257.7</ele>
        <time>2019-08-28T09:11:47Z</time>
      </trkpt>
      <trkpt lat="36.4954760" lon="-5.3203560">
        <ele>258.0</ele>
        <time>2019-08-28T09:11:48Z</time>
      </trkpt>
      <trkpt lat="36.4954980" lon="-5.3203730">
        <ele>258.3</ele>
        <time>2019-08-28T09:11:49Z</time>
      </trkpt>
      <trkpt lat="36.4955200" lon="-5.3203880">
        <ele>258.5</ele>
        <time>2019-08-28T09:11:50Z</time>
      </trkpt>
      <trkpt lat="36.4955430" lon="-5.3204020">
        <ele>258.8</ele>
        <time>2019-08-28T09:11:51Z</time>
      </trkpt>
      <trkpt lat="36.4955650" lon="-5.3204140">
        <ele>259.1</ele>
        <time>2019-08-28T09:11:52Z</time>
      </trkpt>
      <trkpt lat="36.4955880" lon="-5.3204250">
        <ele>259.4</ele>
        <time>2019-08-28T09:11:53Z</time>
      </trkpt>
      <trkpt lat="36.4956120" lon="-5.3204330">
        <ele>259.6</ele>
        <time>2019-08-28T09:11:54Z</time>
      </trkpt>
      <trkpt lat="36.4956360" lon="-5.3204390">
        <ele>259.8</ele>
        <time>2019-08-28T09:11:55Z</time>
      </trkpt>
      <trkpt lat="36.4956600" lon="-5.3204410">
        <ele>260.0</ele>
        <time>2019-08-28T09:11:56Z</time>
      </trkpt>
      <trkpt lat="36.4956830" lon="-5.3204390">
        <ele>260.2</ele>
        <time>2019-08-28T09:11:57Z</time>
      </trkpt>
      <trkpt lat="36.4957060" lon="-5.3204340">
        <ele>260.5</ele>
        <time>2019-08-28T09:11:58Z</time>
      </trkpt>
      <trkpt lat="36.4957290" lon="-5.3204260">
        <ele>260.8</ele>
        <time>2019-08-28T09:11:59Z</time>
      </trkpt>
      <trkpt lat="36.4957520" lon="-5.3204160">
        <ele>261.1</ele>
        <time>2019-08-28T09:12:00Z</time>
      </trkpt>
      <trkpt lat="36.4957720" lon="-5.3204060">
        <ele>261.4</ele>
        <time>2019-08-28T09:12:01Z</time>
      </trkpt>
      <trkpt lat="36.4957930" lon="-5.3203950">
        <ele>261.8</ele>
        <time>2019-08-28T09:12:02Z</time>
      </trkpt>
      <trkpt lat="36.4958130" lon="-5.3203830">
        <ele>262.0</ele>
        <time>2019-08-28T09:12:03Z</time>
      </trkpt>
      <trkpt lat="36.4958340" lon="-5.3203670">
        <ele>262.3</ele>
        <time>2019-08-28T09:12:04Z</time>
      </trkpt>
      <trkpt lat="36.4958520" lon="-5.3203490">
        <ele>262.6</ele>
        <time>2019-08-28T09:12:05Z</time>
      </trkpt>
      <trkpt lat="36.4958680" lon="-5.3203280">
        <ele>262.9</ele>
        <time>2019-08-28T09:12:06Z</time>
      </trkpt>
      <trkpt lat="36.4958820" lon="-5.3203050">
        <ele>263.3</ele>
        <time>2019-08-28T09:12:07Z</time>
      </trkpt>
      <trkpt lat="36.4958940" lon="-5.3202820">
        <ele>263.6</ele>
        <time>2019-08-28T09:12:08Z</time>
      </trkpt>
      <trkpt lat="36.4959050" lon="-5.3202570">
        <ele>263.9</ele>
        <time>2019-08-28T09:12:09Z</time>
      </trkpt>
      <trkpt lat="36.4959150" lon="-5.3202320">
        <ele>264.3</ele>
        <time>2019-08-28T09:12:10Z</time>
      </trkpt>
      <trkpt lat="36.4959250" lon="-5.3202070">
        <ele>264.6</ele>
        <time>2019-08-28T09:12:11Z</time>
      </trkpt>
      <trkpt lat="36.4959350" lon="-5.3201800">
        <ele>265.0</ele>
        <time>2019-08-28T09:12:12Z</time>
      </trkpt>
      <trkpt lat="36.4959440" lon="-5.3201510">
        <ele>265.3</ele>
        <time>2019-08-28T09:12:13Z</time>
      </trkpt>
      <trkpt lat="36.4959530" lon="-5.3201220">
        <ele>265.7</ele>
        <time>2019-08-28T09:12:14Z</time>
      </trkpt>
      <trkpt lat="36.4959620" lon="-5.3200910">
        <ele>266.0</ele>
        <time>2019-08-28T09:12:15Z</time>
      </trkpt>
      <trkpt lat="36.4959700" lon="-5.3200600">
        <ele>266.4</ele>
        <time>2019-08-28T09:12:16Z</time>
      </trkpt>
      <trkpt lat="36.4959770" lon="-5.3200280">
        <ele>266.8</ele>
        <time>2019-08-28T09:12:17Z</time>
      </trkpt>
      <trkpt lat="36.4959820" lon="-5.3199970">
        <ele>267.1</ele>
        <time>2019-08-28T09:12:18Z</time>
      </trkpt>
      <trkpt lat="36.4959870" lon="-5.3199650">
        <ele>267.4</ele>
        <time>2019-08-28T09:12:19Z</time>
      </trkpt>
      <trkpt lat="36.4959920" lon="-5.3199340">
        <ele>267.7</ele>
        <time>2019-08-28T09:12:20Z</time>
      </trkpt>
      <trkpt lat="36.4959960" lon="-5.3199020">
        <ele>268.0</ele>
        <time>2019-08-28T09:12:21Z</time>
      </trkpt>
      <trkpt lat="36.4960000" lon="-5.3198700">
        <ele>268.3</ele>
        <time>2019-08-28T09:12:22Z</time>
      </trkpt>
      <trkpt lat="36.4960050" lon="-5.3198370">
        <ele>268.6</ele>
        <time>2019-08-28T09:12:23Z</time>
      </trkpt>
      <trkpt lat="36.4960090" lon="-5.3198050">
        <ele>268.9</ele>
        <time>2019-08-28T09:12:24Z</time>
      </trkpt>
      <trkpt lat="36.4960140" lon="-5.3197730">
        <ele>269.2</ele>
        <time>2019-08-28T09:12:25Z</time>
      </trkpt>
      <trkpt lat="36.4960170" lon="-5.3197410">
        <ele>269.5</ele>
        <time>2019-08-28T09:12:26Z</time>
      </trkpt>
      <trkpt lat="36.4960200" lon="-5.3197090">
        <ele>269.7</ele>
        <time>2019-08-28T09:12:27Z</time>
      </trkpt>
      <trkpt lat="36.4960230" lon="-5.3196770">
        <ele>270.0</ele>
        <time>2019-08-28T09:12:28Z</time>
      </trkpt>
      <trkpt lat="36.4960270" lon="-5.3196450">
        <ele>270.3</ele>
        <time>2019-08-28T09:12:29Z</time>
      </trkpt>
      <trkpt lat="36.4960300" lon="-5.3196130">
        <ele>270.5</ele>
        <time>2019-08-28T09:12:30Z</time>
      </trkpt>
      <trkpt lat="36.4960330" lon="-5.3195810">
        <ele>270.8</ele>
        <time>2019-08-28T09:12:31Z</time>
      </trkpt>
      <trkpt lat="36.4960370" lon="-5.3195490">
        <ele>271.0</ele>
        <time>2019-08-28T09:12:32Z</time>
      </trkpt>
      <trkpt lat="36.4960420" lon="-5.3195170">
        <ele>271.3</ele>
        <time>2019-08-28T09:12:33Z</time>
      </trkpt>
      <trkpt lat="36.4960470" lon="-5.3194850">
        <ele>271.6</ele>
        <time>2019-08-28T09:12:34Z</time>
      </trkpt>
      <trkpt lat="36.4960510" lon="-5.3194520">
        <ele>271.8</ele>
        <time>2019-08-28T09:12:35Z</time>
      </trkpt>
      <trkpt lat="36.4960550" lon="-5.3194200">
        <ele>272.1</ele>
        <time>2019-08-28T09:12:36Z</time>
      </trkpt>
      <trkpt lat="36.4960610" lon="-5.3193880">
        <ele>272.4</ele>
        <time>2019-08-28T09:12:37Z</time>
      </trkpt>
      <trkpt lat="36.4960690" lon="-5.3193560">
        <ele>272.6</ele>
        <time>2019-08-28T09:12:38Z</time>
      </trkpt>
      <trkpt lat="36.4960780" lon="-5.3193250">
        <ele>272.9</ele>
        <time>2019-08-28T09:12:39Z</time>
      </trkpt>
      <trkpt lat="36.4960890" lon="-5.3192940">
        <ele>273.2</ele>
        <time>2019-08-28T09:12:40Z</time>
      </trkpt>
      <trkpt lat="36.4961000" lon="-5.3192640">
        <ele>273.4</ele>
        <time>2019-08-28T09:12:41Z</time>
      </trkpt>
      <trkpt lat="36.4961110" lon="-5.3192340">
        <ele>273.7</ele>
        <time>2019-08-28T09:12:42Z</time>
      </trkpt>
      <trkpt lat="36.4961230" lon="-5.3192060">
        <ele>273.9</ele>
        <time>2019-08-28T09:12:43Z</time>
      </trkpt>
      <trkpt lat="36.4961360" lon="-5.3191800">
        <ele>274.2</ele>
        <time>2019-08-28T09:12:44Z</time>
      </trkpt>
      <trkpt lat="36.4961520" lon="-5.3191550">
        <ele>274.5</ele>
        <time>2019-08-28T09:12:45Z</time>
      </trkpt>
      <trkpt lat="36.4961680" lon="-5.3191310">
        <ele>274.7</ele>
        <time>2019-08-28T09:12:46Z</time>
      </trkpt>
      <trkpt lat="36.4961850" lon="-5.3191080">
        <ele>275.0</ele>
        <time>2019-08-28T09:12:47Z</time>
      </trkpt>
      <trkpt lat="36.4962040" lon="-5.3190860">
        <ele>275.3</ele>
        <time>2019-08-28T09:12:48Z</time>
      </trkpt>
      <trkpt lat="36.4962230" lon="-5.3190640">
        <ele>275.5</ele>
        <time>2019-08-28T09:12:49Z</time>
      </trkpt>
      <trkpt lat="36.4962430" lon="-5.3190430">
        <ele>275.8</ele>
        <time>2019-08-28T09:12:50Z</time>
      </trkpt>
      <trkpt lat="36.4962630" lon="-5.3190230">
        <ele>276.1</ele>
        <time>2019-08-28T09:12:51Z</time>
      </trkpt>
      <trkpt lat="36.4962830" lon="-5.3190040">
        <ele>276.4</ele>
        <time>2019-08-28T09:12:52Z</time>
      </trkpt>
      <trkpt lat="36.4963050" lon="-5.3189870">
        <ele>276.7</ele>
        <time>2019-08-28T09:12:53Z</time>
      </trkpt>
      <trkpt lat="36.4963280" lon="-5.3189710">
        <ele>277.0</ele>
        <time>2019-08-28T09:12:54Z</time>
      </trkpt>
      <trkpt lat="36.4963530" lon="-5.3189570">
        <ele>277.4</ele>
        <time>2019-08-28T09:12:55Z</time>
      </trkpt>
      <trkpt lat="36.4963780" lon="-5.3189420">
        <ele>277.7</ele>
        <time>2019-08-28T09:12:56Z</time>
      </trkpt>
      <trkpt lat="36.4964030" lon="-5.3189290">
        <ele>278.0</ele>
        <time>2019-08-28T09:12:57Z</time>
      </trkpt>
      <trkpt lat="36.4964280" lon="-5.3189180">
        <ele>278.3</ele>
        <time>2019-08-28T09:12:58Z</time>
      </trkpt>
      <trkpt lat="36.4964520" lon="-5.3189100">
        <ele>278.6</ele>
        <time>2019-08-28T09:12:59Z</time>
      </trkpt>
      <trkpt lat="36.4964760" lon="-5.3189030">
        <ele>278.9</ele>
        <time>2019-08-28T09:13:00Z</time>
      </trkpt>
      <trkpt lat="36.4964980" lon="-5.3188980">
        <ele>279.2</ele>
        <time>2019-08-28T09:13:01Z</time>
      </trkpt>
      <trkpt lat="36.4965190" lon="-5.3188960">
        <ele>279.5</ele>
        <time>2019-08-28T09:13:02Z</time>
      </trkpt>
      <trkpt lat="36.4965390" lon="-5.3188970">
        <ele>279.8</ele>
        <time>2019-08-28T09:13:03Z</time>
      </trkpt>
      <trkpt lat="36.4965600" lon="-5.3189000">
        <ele>280.1</ele>
        <time>2019-08-28T09:13:04Z</time>
      </trkpt>
      <trkpt lat="36.4965810" lon="-5.3189040">
        <ele>280.4</ele>
        <time>2019-08-28T09:13:05Z</time>
      </trkpt>
      <trkpt lat="36.4966020" lon="-5.3189080">
        <ele>280.7</ele>
        <time>2019-08-28T09:13:06Z</time>
      </trkpt>
      <trkpt lat="36.4966230" lon="-5.3189140">
        <ele>281.0</ele>
        <time>2019-08-28T09:13:07Z</time>
      </trkpt>
      <trkpt lat="36.4966440" lon="-5.3189230">
        <ele>281.3</ele>
        <time>2019-08-28T09:13:08Z</time>
      </trkpt>
      <trkpt lat="36.4966640" lon="-5.3189350">
        <ele>281.7</ele>
        <time>2019-08-28T09:13:09Z</time>
      </trkpt>
      <trkpt lat="36.4966840" lon="-5.3189490">
        <ele>282.1</ele>
        <time>2019-08-28T09:13:10Z</time>
      </trkpt>
      <trkpt lat="36.4967030" lon="-5.3189670">
        <ele>282.4</ele>
        <time>2019-08-28T09:13:11Z</time>
      </trkpt>
      <trkpt lat="36.4967200" lon="-5.3189880">
        <ele>282.8</ele>
        <time>2019-08-28T09:13:12Z</time>
      </trkpt>
      <trkpt lat="36.4967370" lon="-5.3190100">
        <ele>283.3</ele>
        <time>2019-08-28T09:13:13Z</time>
      </trkpt>
      <trkpt lat="36.4967530" lon="-5.3190330">
        <ele>283.7</ele>
        <time>2019-08-28T09:13:14Z</time>
      </trkpt>
      <trkpt lat="36.4967670" lon="-5.3190580">
        <ele>284.1</ele>
        <time>2019-08-28T09:13:15Z</time>
      </trkpt>
      <trkpt lat="36.4967790" lon="-5.3190870">
        <ele>284.6</ele>
        <time>2019-08-28T09:13:16Z</time>
      </trkpt>
      <trkpt lat="36.4967890" lon="-5.3191170">
        <ele>285.3</ele>
        <time>2019-08-28T09:13:17Z</time>
      </trkpt>
      <trkpt lat="36.4967960" lon="-5.3191510">
        <ele>285.7</ele>
        <time>2019-08-28T09:13:18Z</time>
      </trkpt>
      <trkpt lat="36.4968000" lon="-5.3191860">
        <ele>286.0</ele>
        <time>2019-08-28T09:13:19Z</time>
      </trkpt>
      <trkpt lat="36.4968020" lon="-5.3192230">
        <ele>286.3</ele>
        <time>2019-08-28T09:13:20Z</time>
      </trkpt>
      <trkpt lat="36.4968050" lon="-5.3192580">
        <ele>286.6</ele>
        <time>2019-08-28T09:13:21Z</time>
      </trkpt>
      <trkpt lat="36.4968060" lon="-5.3192910">
        <ele>286.9</ele>
        <time>2019-08-28T09:13:22Z</time>
      </trkpt>
      <trkpt lat="36.4968050" lon="-5.3193250">
        <ele>287.2</ele>
        <time>2019-08-28T09:13:23Z</time>
      </trkpt>
      <trkpt lat="36.4968030" lon="-5.3193590">
        <ele>287.4</ele>
        <time>2019-08-28T09:13:24Z</time>
      </trkpt>
      <trkpt lat="36.4968010" lon="-5.3193940">
        <ele>287.7</ele>
        <time>2019-08-28T09:13:25Z</time>
      </trkpt>
      <trkpt lat="36.4967970" lon="-5.3194280">
        <ele>288.0</ele>
        <time>2019-08-28T09:13:26Z</time>
      </trkpt>
      <trkpt lat="36.4967930" lon="-5.3194620">
        <ele>288.3</ele>
        <time>2019-08-28T09:13:27Z</time>
      </trkpt>
      <trkpt lat="36.4967890" lon="-5.3194970">
        <ele>288.5</ele>
        <time>2019-08-28T09:13:28Z</time>
      </trkpt>
      <trkpt lat="36.4967860" lon="-5.3195320">
        <ele>288.8</ele>
        <time>2019-08-28T09:13:29Z</time>
      </trkpt>
      <trkpt lat="36.4967830" lon="-5.3195670">
        <ele>289.0</ele>
        <time>2019-08-28T09:13:30Z</time>
      </trkpt>
      <trkpt lat="36.4967790" lon="-5.3196010">
        <ele>289.3</ele>
        <time>2019-08-28T09:13:31Z</time>
      </trkpt>
      <trkpt lat="36.4967760" lon="-5.3196360">
        <ele>289.5</ele>
        <time>2019-08-28T09:13:32Z</time>
      </trkpt>
      <trkpt lat="36.4967720" lon="-5.3196710">
        <ele>289.8</ele>
        <time>2019-08-28T09:13:33Z</time>
      </trkpt>
      <trkpt lat="36.4967680" lon="-5.3197050">
        <ele>290.0</ele>
        <time>2019-08-28T09:13:34Z</time>
      </trkpt>
      <trkpt lat="36.4967650" lon="-5.3197380">
        <ele>290.2</ele>
        <time>2019-08-28T09:13:35Z</time>
      </trkpt>
      <trkpt lat="36.4967610" lon="-5.3197710">
        <ele>290.4</ele>
        <time>2019-08-28T09:13:36Z</time>
      </trkpt>
      <trkpt lat="36.4967570" lon="-5.3198050">
        <ele>290.6</ele>
        <time>2019-08-28T09:13:37Z</time>
      </trkpt>
      <trkpt lat="36.4967540" lon="-5.3198380">
        <ele>290.8</ele>
        <time>2019-08-28T09:13:38Z</time>
      </trkpt>
      <trkpt lat="36.4967510" lon="-5.3198720">
        <ele>291.0</ele>
        <time>2019-08-28T09:13:39Z</time>
      </trkpt>
      <trkpt lat="36.4967470" lon="-5.3199060">
        <ele>291.2</ele>
        <time>2019-08-28T09:13:40Z</time>
      </trkpt>
      <trkpt lat="36.4967440" lon="-5.3199400">
        <ele>291.4</ele>
        <time>2019-08-28T09:13:41Z</time>
      </trkpt>
      <trkpt lat="36.4967390" lon="-5.3199730">
        <ele>291.5</ele>
        <time>2019-08-28T09:13:42Z</time>
      </trkpt>
      <trkpt lat="36.4967350" lon="-5.3200070">
        <ele>291.7</ele>
        <time>2019-08-28T09:13:43Z</time>
      </trkpt>
      <trkpt lat="36.4967320" lon="-5.3200410">
        <ele>291.9</ele>
        <time>2019-08-28T09:13:44Z</time>
      </trkpt>
      <trkpt lat="36.4967290" lon="-5.3200760">
        <ele>292.1</ele>
        <time>2019-08-28T09:13:45Z</time>
      </trkpt>
      <trkpt lat="36.4967260" lon="-5.3201110">
        <ele>292.2</ele>
        <time>2019-08-28T09:13:46Z</time>
      </trkpt>
      <trkpt lat="36.4967230" lon="-5.3201460">
        <ele>292.4</ele>
        <time>2019-08-28T09:13:47Z</time>
      </trkpt>
      <trkpt lat="36.4967210" lon="-5.3201800">
        <ele>292.5</ele>
        <time>2019-08-28T09:13:48Z</time>
      </trkpt>
      <trkpt lat="36.4967200" lon="-5.3202150">
        <ele>292.7</ele>
        <time>2019-08-28T09:13:49Z</time>
      </trkpt>
      <trkpt lat="36.4967180" lon="-5.3202490">
        <ele>292.8</ele>
        <time>2019-08-28T09:13:50Z</time>
      </trkpt>
      <trkpt lat="36.4967150" lon="-5.3202830">
        <ele>292.9</ele>
        <time>2019-08-28T09:13:51Z</time>
      </trkpt>
      <trkpt lat="36.4967120" lon="-5.3203160">
        <ele>293.0</ele>
        <time>2019-08-28T09:13:52Z</time>
      </trkpt>
      <trkpt lat="36.4967090" lon="-5.3203490">
        <ele>293.2</ele>
        <time>2019-08-28T09:13:53Z</time>
      </trkpt>
      <trkpt lat="36.4967050" lon="-5.3203810">
        <ele>293.3</ele>
        <time>2019-08-28T09:13:54Z</time>
      </trkpt>
      <trkpt lat="36.4967010" lon="-5.3204140">
        <ele>293.4</ele>
        <time>2019-08-28T09:13:55Z</time>
      </trkpt>
      <trkpt lat="36.4966990" lon="-5.3204450">
        <ele>293.5</ele>
        <time>2019-08-28T09:13:56Z</time>
      </trkpt>
      <trkpt lat="36.4966970" lon="-5.3204760">
        <ele>293.5</ele>
        <time>2019-08-28T09:13:57Z</time>
      </trkpt>
      <trkpt lat="36.4966950" lon="-5.3205070">
        <ele>293.6</ele>
        <time>2019-08-28T09:13:58Z</time>
      </trkpt>
      <trkpt lat="36.4966930" lon="-5.3205390">
        <ele>293.7</ele>
        <time>2019-08-28T09:13:59Z</time>
      </trkpt>
      <trkpt lat="36.4966920" lon="-5.3205700">
        <ele>293.8</ele>
        <time>2019-08-28T09:14:00Z</time>
      </trkpt>
      <trkpt lat="36.4966910" lon="-5.3206030">
        <ele>293.9</ele>
        <time>2019-08-28T09:14:01Z</time>
      </trkpt>
      <trkpt lat="36.4966890" lon="-5.3206360">
        <ele>294.0</ele>
        <time>2019-08-28T09:14:02Z</time>
      </trkpt>
      <trkpt lat="36.4966870" lon="-5.3206690">
        <ele>294.1</ele>
        <time>2019-08-28T09:14:03Z</time>
      </trkpt>
      <trkpt lat="36.4966860" lon="-5.3207030">
        <ele>294.2</ele>
        <time>2019-08-28T09:14:04Z</time>
      </trkpt>
      <trkpt lat="36.4966850" lon="-5.3207350">
        <ele>294.3</ele>
        <time>2019-08-28T09:14:05Z</time>
      </trkpt>
      <trkpt lat="36.4966840" lon="-5.3207680">
        <ele>294.3</ele>
        <time>2019-08-28T09:14:06Z</time>
      </trkpt>
      <trkpt lat="36.4966840" lon="-5.3208010">
        <ele>294.4</ele>
        <time>2019-08-28T09:14:07Z</time>
      </trkpt>
      <trkpt lat="36.4966850" lon="-5.3208350">
        <ele>294.5</ele>
        <time>2019-08-28T09:14:08Z</time>
      </trkpt>
      <trkpt lat="36.4966870" lon="-5.3208680">
        <ele>294.6</ele>
        <time>2019-08-28T09:14:09Z</time>
      </trkpt>
      <trkpt lat="36.4966910" lon="-5.3209020">
        <ele>294.7</ele>
        <time>2019-08-28T09:14:10Z</time>
      </trkpt>
      <trkpt lat="36.4966960" lon="-5.3209340">
        <ele>294.8</ele>
        <time>2019-08-28T09:14:11Z</time>
      </trkpt>
      <trkpt lat="36.4967020" lon="-5.3209660">
        <ele>294.9</ele>
        <time>2019-08-28T09:14:12Z</time>
      </trkpt>
      <trkpt lat="36.4967090" lon="-5.3209970">
        <ele>295.0</ele>
        <time>2019-08-28T09:14:13Z</time>
      </trkpt>
      <trkpt lat="36.4967170" lon="-5.3210270">
        <ele>295.1</ele>
        <time>2019-08-28T09:14:14Z</time>
      </trkpt>
      <trkpt lat="36.4967260" lon="-5.3210570">
        <ele>295.2</ele>
        <time>2019-08-28T09:14:15Z</time>
      </trkpt>
      <trkpt lat="36.4967350" lon="-5.3210870">
        <ele>295.4</ele>
        <time>2019-08-28T09:14:16Z</time>
      </trkpt>
      <trkpt lat="36.4967440" lon="-5.3211170">
        <ele>295.5</ele>
        <time>2019-08-28T09:14:17Z</time>
      </trkpt>
      <trkpt lat="36.4967560" lon="-5.3211460">
        <ele>295.6</ele>
        <time>2019-08-28T09:14:18Z</time>
      </trkpt>
      <trkpt lat="36.4967690" lon="-5.3211760">
        <ele>295.7</ele>
        <time>2019-08-28T09:14:19Z</time>
      </trkpt>
      <trkpt lat="36.4967830" lon="-5.3212060">
        <ele>295.9</ele>
        <time>2019-08-28T09:14:20Z</time>
      </trkpt>
      <trkpt lat="36.4967970" lon="-5.3212350">
        <ele>296.0</ele>
        <time>2019-08-28T09:14:21Z</time>
      </trkpt>
      <trkpt lat="36.4968130" lon="-5.3212620">
        <ele>296.2</ele>
        <time>2019-08-28T09:14:22Z</time>
      </trkpt>
      <trkpt lat="36.4968310" lon="-5.3212860">
        <ele>296.3</ele>
        <time>2019-08-28T09:14:23Z</time>
      </trkpt>
      <trkpt lat="36.4968490" lon="-5.3213090">
        <ele>296.5</ele>
        <time>2019-08-28T09:14:24Z</time>
      </trkpt>
      <trkpt lat="36.4968670" lon="-5.3213290">
        <ele>296.6</ele>
        <time>2019-08-28T09:14:25Z</time>
      </trkpt>
      <trkpt lat="36.4968860" lon="-5.3213490">
        <ele>296.8</ele>
        <time>2019-08-28T09:14:26Z</time>
      </trkpt>
      <trkpt lat="36.4969050" lon="-5.3213690">
        <ele>297.0</ele>
        <time>2019-08-28T09:14:27Z</time>
      </trkpt>
      <trkpt lat="36.4969250" lon="-5.3213880">
        <ele>297.2</ele>
        <time>2019-08-28T09:14:28Z</time>
      </trkpt>
      <trkpt lat="36.4969450" lon="-5.3214070">
        <ele>297.4</ele>
        <time>2019-08-28T09:14:29Z</time>
      </trkpt>
      <trkpt lat="36.4969660" lon="-5.3214260">
        <ele>297.6</ele>
        <time>2019-08-28T09:14:30Z</time>
      </trkpt>
      <trkpt lat="36.4969870" lon="-5.3214450">
        <ele>297.9</ele>
        <time>2019-08-28T09:14:31Z</time>
      </trkpt>
      <trkpt lat="36.4970090" lon="-5.3214640">
        <ele>298.2</ele>
        <time>2019-08-28T09:14:32Z</time>
      </trkpt>
      <trkpt lat="36.4970300" lon="-5.3214840">
        <ele>298.4</ele>
        <time>2019-08-28T09:14:33Z</time>
      </trkpt>
      <trkpt lat="36.4970510" lon="-5.3215040">
        <ele>298.7</ele>
        <time>2019-08-28T09:14:34Z</time>
      </trkpt>
      <trkpt lat="36.4970710" lon="-5.3215240">
        <ele>299.0</ele>
        <time>2019-08-28T09:14:35Z</time>
      </trkpt>
      <trkpt lat="36.4970910" lon="-5.3215440">
        <ele>299.3</ele>
        <time>2019-08-28T09:14:36Z</time>
      </trkpt>
      <trkpt lat="36.4971110" lon="-5.3215650">
        <ele>299.6</ele>
        <time>2019-08-28T09:14:37Z</time>
      </trkpt>
      <trkpt lat="36.4971310" lon="-5.3215850">
        <ele>299.9</ele>
        <time>2019-08-28T09:14:38Z</time>
      </trkpt>
      <trkpt lat="36.4971510" lon="-5.3216060">
        <ele>300.2</ele>
        <time>2019-08-28T09:14:39Z</time>
      </trkpt>
      <trkpt lat="36.4971690" lon="-5.3216290">
        <ele>300.5</ele>
        <time>2019-08-28T09:14:40Z</time>
      </trkpt>
      <trkpt lat="36.4971860" lon="-5.3216520">
        <ele>300.8</ele>
        <time>2019-08-28T09:14:41Z</time>
      </trkpt>
      <trkpt lat="36.4972020" lon="-5.3216770">
        <ele>301.1</ele>
        <time>2019-08-28T09:14:42Z</time>
      </trkpt>
      <trkpt lat="36.4972190" lon="-5.3217020">
        <ele>301.4</ele>
        <time>2019-08-28T09:14:43Z</time>
      </trkpt>
      <trkpt lat="36.4972350" lon="-5.3217280">
        <ele>301.7</ele>
        <time>2019-08-28T09:14:44Z</time>
      </trkpt>
      <trkpt lat="36.4972510" lon="-5.3217560">
        <ele>302.0</ele>
        <time>2019-08-28T09:14:45Z</time>
      </trkpt>
      <trkpt lat="36.4972650" lon="-5.3217850">
        <ele>302.3</ele>
        <time>2019-08-28T09:14:46Z</time>
      </trkpt>
      <trkpt lat="36.4972790" lon="-5.3218160">
        <ele>302.6</ele>
        <time>2019-08-28T09:14:47Z</time>
      </trkpt>
      <trkpt lat="36.4972920" lon="-5.3218470">
        <ele>303.0</ele>
        <time>2019-08-28T09:14:48Z</time>
      </trkpt>
      <trkpt lat="36.4973050" lon="-5.3218800">
        <ele>303.3</ele>
        <time>2019-08-28T09:14:49Z</time>
      </trkpt>
      <trkpt lat="36.4973170" lon="-5.3219140">
        <ele>303.6</ele>
        <time>2019-08-28T09:14:50Z</time>
      </trkpt>
      <trkpt lat="36.4973290" lon="-5.3219490">
        <ele>304.0</ele>
        <time>2019-08-28T09:14:51Z</time>
      </trkpt>
      <trkpt lat="36.4973380" lon="-5.3219860">
        <ele>304.3</ele>
        <time>2019-08-28T09:14:52Z</time>
      </trkpt>
      <trkpt lat="36.4973460" lon="-5.3220250">
        <ele>304.6</ele>
        <time>2019-08-28T09:14:53Z</time>
      </trkpt>
      <trkpt lat="36.4973510" lon="-5.3220650">
        <ele>304.9</ele>
        <time>2019-08-28T09:14:54Z</time>
      </trkpt>
      <trkpt lat="36.4973540" lon="-5.3221050">
        <ele>305.2</ele>
        <time>2019-08-28T09:14:55Z</time>
      </trkpt>
      <trkpt lat="36.4973560" lon="-5.3221440">
        <ele>305.5</ele>
        <time>2019-08-28T09:14:56Z</time>
      </trkpt>
      <trkpt lat="36.4973550" lon="-5.3221830">
        <ele>305.8</ele>
        <time>2019-08-28T09:14:57Z</time>
      </trkpt>
      <trkpt lat="36.4973520" lon="-5.3222220">
        <ele>306.1</ele>
        <time>2019-08-28T09:14:58Z</time>
      </trkpt>
      <trkpt lat="36.4973490" lon="-5.3222600">
        <ele>306.4</ele>
        <time>2019-08-28T09:14:59Z</time>
      </trkpt>
      <trkpt lat="36.4973430" lon="-5.3222980">
        <ele>306.7</ele>
        <time>2019-08-28T09:15:00Z</time>
      </trkpt>
      <trkpt lat="36.4973370" lon="-5.3223350">
        <ele>306.9</ele>
        <time>2019-08-28T09:15:01Z</time>
      </trkpt>
      <trkpt lat="36.4973280" lon="-5.3223730">
        <ele>307.2</ele>
        <time>2019-08-28T09:15:02Z</time>
      </trkpt>
      <trkpt lat="36.4973170" lon="-5.3224090">
        <ele>307.4</ele>
        <time>2019-08-28T09:15:03Z</time>
      </trkpt>
      <trkpt lat="36.4973040" lon="-5.3224450">
        <ele>307.7</ele>
        <time>2019-08-28T09:15:04Z</time>
      </trkpt>
      <trkpt lat="36.4972890" lon="-5.3224800">
        <ele>307.9</ele>
        <time>2019-08-28T09:15:05Z</time>
      </trkpt>
      <trkpt lat="36.4972730" lon="-5.3225140">
        <ele>308.1</ele>
        <time>2019-08-28T09:15:06Z</time>
      </trkpt>
      <trkpt lat="36.4972540" lon="-5.3225480">
        <ele>308.3</ele>
        <time>2019-08-28T09:15:07Z</time>
      </trkpt>
      <trkpt lat="36.4972340" lon="-5.3225810">
        <ele>308.5</ele>
        <time>2019-08-28T09:15:08Z</time>
      </trkpt>
      <trkpt lat="36.4972130" lon="-5.3226140">
        <ele>308.6</ele>
        <time>2019-08-28T09:15:09Z</time>
      </trkpt>
      <trkpt lat="36.4971910" lon="-5.3226480">
        <ele>308.8</ele>
        <time>2019-08-28T09:15:10Z</time>
      </trkpt>
      <trkpt lat="36.4971670" lon="-5.3226800">
        <ele>309.0</ele>
        <time>2019-08-28T09:15:11Z</time>
      </trkpt>
      <trkpt lat="36.4971410" lon="-5.3227110">
        <ele>309.1</ele>
        <time>2019-08-28T09:15:12Z</time>
      </trkpt>
      <trkpt lat="36.4971130" lon="-5.3227400">
        <ele>309.3</ele>
        <time>2019-08-28T09:15:13Z</time>
      </trkpt>
      <trkpt lat="36.4970840" lon="-5.3227670">
        <ele>309.5</ele>
        <time>2019-08-28T09:15:14Z</time>
      </trkpt>
      <trkpt lat="36.4970550" lon="-5.3227940">
        <ele>309.8</ele>
        <time>2019-08-28T09:15:15Z</time>
      </trkpt>
      <trkpt lat="36.4970260" lon="-5.3228200">
        <ele>310.0</ele>
        <time>2019-08-28T09:15:16Z</time>
      </trkpt>
      <trkpt lat="36.4969960" lon="-5.3228460">
        <ele>310.2</ele>
        <time>2019-08-28T09:15:17Z</time>
      </trkpt>
      <trkpt lat="36.4969670" lon="-5.3228710">
        <ele>310.4</ele>
        <time>2019-08-28T09:15:18Z</time>
      </trkpt>
      <trkpt lat="36.4969370" lon="-5.3228930">
        <ele>310.7</ele>
        <time>2019-08-28T09:15:19Z</time>
      </trkpt>
      <trkpt lat="36.4969080" lon="-5.3229140">
        <ele>310.9</ele>
        <time>2019-08-28T09:15:20Z</time>
      </trkpt>
      <trkpt lat="36.4968800" lon="-5.3229340">
        <ele>311.0</ele>
        <time>2019-08-28T09:15:21Z</time>
      </trkpt>
      <trkpt lat="36.4968520" lon="-5.3229510">
        <ele>311.2</ele>
        <time>2019-08-28T09:15:22Z</time>
      </trkpt>
      <trkpt lat="36.4968220" lon="-5.3229650">
        <ele>311.4</ele>
        <time>2019-08-28T09:15:23Z</time>
      </trkpt>
      <trkpt lat="36.4967930" lon="-5.3229780">
        <ele>311.6</ele>
        <time>2019-08-28T09:15:24Z</time>
      </trkpt>
      <trkpt lat="36.4967640" lon="-5.3229900">
        <ele>311.7</ele>
        <time>2019-08-28T09:15:25Z</time>
      </trkpt>
      <trkpt lat="36.4967340" lon="-5.3230000">
        <ele>311.9</ele>
        <time>2019-08-28T09:15:26Z</time>
      </trkpt>
      <trkpt lat="36.4967050" lon="-5.3230070">
        <ele>312.2</ele>
        <time>2019-08-28T09:15:27Z</time>
      </trkpt>
      <trkpt lat="36.4966750" lon="-5.3230120">
        <ele>312.4</ele>
        <time>2019-08-28T09:15:28Z</time>
      </trkpt>
      <trkpt lat="36.4966450" lon="-5.3230160">
        <ele>312.7</ele>
        <time>2019-08-28T09:15:29Z</time>
      </trkpt>
      <trkpt lat="36.4966160" lon="-5.3230190">
        <ele>312.9</ele>
        <time>2019-08-28T09:15:30Z</time>
      </trkpt>
      <trkpt lat="36.4965870" lon="-5.3230210">
        <ele>313.2</ele>
        <time>2019-08-28T09:15:31Z</time>
      </trkpt>
      <trkpt lat="36.4965580" lon="-5.3230220">
        <ele>313.4</ele>
        <time>2019-08-28T09:15:32Z</time>
      </trkpt>
      <trkpt lat="36.4965290" lon="-5.3230230">
        <ele>313.7</ele>
        <time>2019-08-28T09:15:33Z</time>
      </trkpt>
      <trkpt lat="36.4965000" lon="-5.3230240">
        <ele>314.0</ele>
        <time>2019-08-28T09:15:34Z</time>
      </trkpt>
      <trkpt lat="36.4964710" lon="-5.3230280">
        <ele>314.3</ele>
        <time>2019-08-28T09:15:35Z</time>
      </trkpt>
      <trkpt lat="36.4964430" lon="-5.3230340">
        <ele>314.6</ele>
        <time>2019-08-28T09:15:36Z</time>
      </trkpt>
      <trkpt lat="36.4964150" lon="-5.3230400">
        <ele>314.9</ele>
        <time>2019-08-28T09:15:37Z</time>
      </trkpt>
      <trkpt lat="36.4963880" lon="-5.3230500">
        <ele>315.2</ele>
        <time>2019-08-28T09:15:38Z</time>
      </trkpt>
      <trkpt lat="36.4963630" lon="-5.3230650">
        <ele>315.4</ele>
        <time>2019-08-28T09:15:39Z</time>
      </trkpt>
      <trkpt lat="36.4963420" lon="-5.3230870">
        <ele>315.7</ele>
        <time>2019-08-28T09:15:40Z</time>
      </trkpt>
      <trkpt lat="36.4963270" lon="-5.3231180">
        <ele>316.0</ele>
        <time>2019-08-28T09:15:41Z</time>
      </trkpt>
      <trkpt lat="36.4963160" lon="-5.3231520">
        <ele>316.4</ele>
        <time>2019-08-28T09:15:42Z</time>
      </trkpt>
      <trkpt lat="36.4963100" lon="-5.3231870">
        <ele>316.7</ele>
        <time>2019-08-28T09:15:43Z</time>
      </trkpt>
      <trkpt lat="36.4963090" lon="-5.3232200">
        <ele>317.0</ele>
        <time>2019-08-28T09:15:44Z</time>
      </trkpt>
      <trkpt lat="36.4963110" lon="-5.3232520">
        <ele>317.2</ele>
        <time>2019-08-28T09:15:45Z</time>
      </trkpt>
      <trkpt lat="36.4963160" lon="-5.3232840">
        <ele>317.5</ele>
        <time>2019-08-28T09:15:46Z</time>
      </trkpt>
      <trkpt lat="36.4963250" lon="-5.3233150">
        <ele>317.7</ele>
        <time>2019-08-28T09:15:47Z</time>
      </trkpt>
      <trkpt lat="36.4963370" lon="-5.3233430">
        <ele>317.9</ele>
        <time>2019-08-28T09:15:48Z</time>
      </trkpt>
      <trkpt lat="36.4963510" lon="-5.3233710">
        <ele>318.1</ele>
        <time>2019-08-28T09:15:49Z</time>
      </trkpt>
      <trkpt lat="36.4963680" lon="-5.3233970">
        <ele>318.4</ele>
        <time>2019-08-28T09:15:50Z</time>
      </trkpt>
      <trkpt lat="36.4963870" lon="-5.3234220">
        <ele>318.6</ele>
        <time>2019-08-28T09:15:51Z</time>
      </trkpt>
      <trkpt lat="36.4964070" lon="-5.3234450">
        <ele>318.8</ele>
        <time>2019-08-28T09:15:52Z</time>
      </trkpt>
      <trkpt lat="36.4964270" lon="-5.3234680">
        <ele>319.0</ele>
        <time>2019-08-28T09:15:53Z</time>
      </trkpt>
      <trkpt lat="36.4964480" lon="-5.3234910">
        <ele>319.2</ele>
        <time>2019-08-28T09:15:54Z</time>
      </trkpt>
      <trkpt lat="36.4964700" lon="-5.3235110">
        <ele>319.4</ele>
        <time>2019-08-28T09:15:55Z</time>
      </trkpt>
      <trkpt lat="36.4964940" lon="-5.3235280">
        <ele>319.7</ele>
        <time>2019-08-28T09:15:56Z</time>
      </trkpt>
      <trkpt lat="36.4965190" lon="-5.3235430">
        <ele>319.9</ele>
        <time>2019-08-28T09:15:57Z</time>
      </trkpt>
      <trkpt lat="36.4965430" lon="-5.3235590">
        <ele>320.1</ele>
        <time>2019-08-28T09:15:58Z</time>
      </trkpt>
      <trkpt lat="36.4965670" lon="-5.3235760">
        <ele>320.3</ele>
        <time>2019-08-28T09:15:59Z</time>
      </trkpt>
      <trkpt lat="36.4965910" lon="-5.3235930">
        <ele>320.6</ele>
        <time>2019-08-28T09:16:00Z</time>
      </trkpt>
      <trkpt lat="36.4966140" lon="-5.3236110">
        <ele>320.8</ele>
        <time>2019-08-28T09:16:01Z</time>
      </trkpt>
      <trkpt lat="36.4966380" lon="-5.3236280">
        <ele>321.0</ele>
        <time>2019-08-28T09:16:02Z</time>
      </trkpt>
      <trkpt lat="36.4966620" lon="-5.3236450">
        <ele>321.3</ele>
        <time>2019-08-28T09:16:03Z</time>
      </trkpt>
      <trkpt lat="36.4966870" lon="-5.3236640">
        <ele>321.5</ele>
        <time>2019-08-28T09:16:04Z</time>
      </trkpt>
      <trkpt lat="36.4967110" lon="-5.3236830">
        <ele>321.8</ele>
        <time>2019-08-28T09:16:05Z</time>
      </trkpt>
      <trkpt lat="36.4967350" lon="-5.3237020">
        <ele>322.1</ele>
        <time>2019-08-28T09:16:06Z</time>
      </trkpt>
      <trkpt lat="36.4967590" lon="-5.3237200">
        <ele>322.4</ele>
        <time>2019-08-28T09:16:07Z</time>
      </trkpt>
      <trkpt lat="36.4967830" lon="-5.3237380">
        <ele>322.6</ele>
        <time>2019-08-28T09:16:08Z</time>
      </trkpt>
      <trkpt lat="36.4968070" lon="-5.3237560">
        <ele>322.9</ele>
        <time>2019-08-28T09:16:09Z</time>
      </trkpt>
      <trkpt lat="36.4968310" lon="-5.3237750">
        <ele>323.2</ele>
        <time>2019-08-28T09:16:10Z</time>
      </trkpt>
      <trkpt lat="36.4968550" lon="-5.3237940">
        <ele>323.5</ele>
        <time>2019-08-28T09:16:11Z</time>
      </trkpt>
      <trkpt lat="36.4968790" lon="-5.3238140">
        <ele>323.8</ele>
        <time>2019-08-28T09:16:12Z</time>
      </trkpt>
      <trkpt lat="36.4969030" lon="-5.3238340">
        <ele>324.2</ele>
        <time>2019-08-28T09:16:13Z</time>
      </trkpt>
      <trkpt lat="36.4969270" lon="-5.3238530">
        <ele>324.5</ele>
        <time>2019-08-28T09:16:14Z</time>
      </trkpt>
      <trkpt lat="36.4969510" lon="-5.3238710">
        <ele>324.8</ele>
        <time>2019-08-28T09:16:15Z</time>
      </trkpt>
      <trkpt lat="36.4969750" lon="-5.3238890">
        <ele>325.1</ele>
        <time>2019-08-28T09:16:16Z</time>
      </trkpt>
      <trkpt lat="36.4969980" lon="-5.3239080">
        <ele>325.4</ele>
        <time>2019-08-28T09:16:17Z</time>
      </trkpt>
      <trkpt lat="36.4970200" lon="-5.3239280">
        <ele>325.7</ele>
        <time>2019-08-28T09:16:18Z</time>
      </trkpt>
      <trkpt lat="36.4970420" lon="-5.3239480">
        <ele>326.0</ele>
        <time>2019-08-28T09:16:19Z</time>
      </trkpt>
      <trkpt lat="36.4970640" lon="-5.3239690">
        <ele>326.3</ele>
        <time>2019-08-28T09:16:20Z</time>
      </trkpt>
      <trkpt lat="36.4970860" lon="-5.3239910">
        <ele>326.7</ele>
        <time>2019-08-28T09:16:21Z</time>
      </trkpt>
      <trkpt lat="36.4971080" lon="-5.3240120">
        <ele>327.0</ele>
        <time>2019-08-28T09:16:22Z</time>
      </trkpt>
      <trkpt lat="36.4971300" lon="-5.3240330">
        <ele>327.3</ele>
        <time>2019-08-28T09:16:23Z</time>
      </trkpt>
      <trkpt lat="36.4971520" lon="-5.3240530">
        <ele>327.6</ele>
        <time>2019-08-28T09:16:24Z</time>
      </trkpt>
      <trkpt lat="36.4971730" lon="-5.3240740">
        <ele>327.9</ele>
        <time>2019-08-28T09:16:25Z</time>
      </trkpt>
      <trkpt lat="36.4971940" lon="-5.3240940">
        <ele>328.2</ele>
        <time>2019-08-28T09:16:26Z</time>
      </trkpt>
      <trkpt lat="36.4972140" lon="-5.3241160">
        <ele>328.5</ele>
        <time>2019-08-28T09:16:27Z</time>
      </trkpt>
      <trkpt lat="36.4972340" lon="-5.3241390">
        <ele>328.8</ele>
        <time>2019-08-28T09:16:28Z</time>
      </trkpt>
      <trkpt lat="36.4972540" lon="-5.3241620">
        <ele>329.1</ele>
        <time>2019-08-28T09:16:29Z</time>
      </trkpt>
      <trkpt lat="36.4972740" lon="-5.3241860">
        <ele>329.4</ele>
        <time>2019-08-28T09:16:30Z</time>
      </trkpt>
      <trkpt lat="36.4972930" lon="-5.3242100">
        <ele>329.7</ele>
        <time>2019-08-28T09:16:31Z</time>
      </trkpt>
      <trkpt lat="36.4973130" lon="-5.3242340">
        <ele>330.0</ele>
        <time>2019-08-28T09:16:32Z</time>
      </trkpt>
      <trkpt lat="36.4973320" lon="-5.3242580">
        <ele>330.3</ele>
        <time>2019-08-28T09:16:33Z</time>
      </trkpt>
      <trkpt lat="36.4973520" lon="-5.3242820">
        <ele>330.6</ele>
        <time>2019-08-28T09:16:34Z</time>
      </trkpt>
      <trkpt lat="36.4973720" lon="-5.3243050">
        <ele>330.8</ele>
        <time>2019-08-28T09:16:35Z</time>
      </trkpt>
      <trkpt lat="36.4973910" lon="-5.3243280">
        <ele>331.1</ele>
        <time>2019-08-28T09:16:36Z</time>
      </trkpt>
      <trkpt lat="36.4974100" lon="-5.3243520">
        <ele>331.3</ele>
        <time>2019-08-28T09:16:37Z</time>
      </trkpt>
      <trkpt lat="36.4974280" lon="-5.3243760">
        <ele>331.6</ele>
        <time>2019-08-28T09:16:38Z</time>
      </trkpt>
      <trkpt lat="36.4974460" lon="-5.3244020">
        <ele>331.8</ele>
        <time>2019-08-28T09:16:39Z</time>
      </trkpt>
      <trkpt lat="36.4974630" lon="-5.3244280">
        <ele>332.1</ele>
        <time>2019-08-28T09:16:40Z</time>
      </trkpt>
      <trkpt lat="36.4974790" lon="-5.3244550">
        <ele>332.3</ele>
        <time>2019-08-28T09:16:41Z</time>
      </trkpt>
      <trkpt lat="36.4974950" lon="-5.3244830">
        <ele>332.5</ele>
        <time>2019-08-28T09:16:42Z</time>
      </trkpt>
      <trkpt lat="36.4975110" lon="-5.3245100">
        <ele>332.7</ele>
        <time>2019-08-28T09:16:43Z</time>
      </trkpt>
      <trkpt lat="36.4975270" lon="-5.3245360">
        <ele>332.9</ele>
        <time>2019-08-28T09:16:44Z</time>
      </trkpt>
      <trkpt lat="36.4975430" lon="-5.3245630">
        <ele>333.1</ele>
        <time>2019-08-28T09:16:45Z</time>
      </trkpt>
      <trkpt lat="36.4975580" lon="-5.3245910">
        <ele>333.3</ele>
        <time>2019-08-28T09:16:46Z</time>
      </trkpt>
      <trkpt lat="36.4975740" lon="-5.3246190">
        <ele>333.5</ele>
        <time>2019-08-28T09:16:47Z</time>
      </trkpt>
      <trkpt lat="36.4975880" lon="-5.3246470">
        <ele>333.7</ele>
        <time>2019-08-28T09:16:48Z</time>
      </trkpt>
      <trkpt lat="36.4976010" lon="-5.3246740">
        <ele>333.8</ele>
        <time>2019-08-28T09:16:49Z</time>
      </trkpt>
      <trkpt lat="36.4976130" lon="-5.3247030">
        <ele>334.0</ele>
        <time>2019-08-28T09:16:50Z</time>
      </trkpt>
      <trkpt lat="36.4976250" lon="-5.3247300">
        <ele>334.2</ele>
        <time>2019-08-28T09:16:51Z</time>
      </trkpt>
      <trkpt lat="36.4976370" lon="-5.3247570">
        <ele>334.3</ele>
        <time>2019-08-28T09:16:52Z</time>
      </trkpt>
      <trkpt lat="36.4976490" lon="-5.3247830">
        <ele>334.5</ele>
        <time>2019-08-28T09:16:53Z</time>
      </trkpt>
      <trkpt lat="36.4976610" lon="-5.3248100">
        <ele>334.7</ele>
        <time>2019-08-28T09:16:54Z</time>
      </trkpt>
      <trkpt lat="36.4976720" lon="-5.3248370">
        <ele>334.8</ele>
        <time>2019-08-28T09:16:55Z</time>
      </trkpt>
      <trkpt lat="36.4976840" lon="-5.3248630">
        <ele>335.0</ele>
        <time>2019-08-28T09:16:56Z</time>
      </trkpt>
      <trkpt lat="36.4976960" lon="-5.3248890">
        <ele>335.1</ele>
        <time>2019-08-28T09:16:57Z</time>
      </trkpt>
      <trkpt lat="36.4977080" lon="-5.3249160">
        <ele>335.3</ele>
        <time>2019-08-28T09:16:58Z</time>
      </trkpt>
      <trkpt lat="36.4977190" lon="-5.3249420">
        <ele>335.4</ele>
        <time>2019-08-28T09:16:59Z</time>
      </trkpt>
      <trkpt lat="36.4977310" lon="-5.3249680">
        <ele>335.6</ele>
        <time>2019-08-28T09:17:00Z</time>
      </trkpt>
      <trkpt lat="36.4977430" lon="-5.3249930">
        <ele>335.7</ele>
        <time>2019-08-28T09:17:01Z</time>
      </trkpt>
      <trkpt lat="36.4977560" lon="-5.3250180">
        <ele>335.9</ele>
        <time>2019-08-28T09:17:02Z</time>
      </trkpt>
      <trkpt lat="36.4977680" lon="-5.3250430">
        <ele>336.1</ele>
        <time>2019-08-28T09:17:03Z</time>
      </trkpt>
      <trkpt lat="36.4977800" lon="-5.3250680">
        <ele>336.2</ele>
        <time>2019-08-28T09:17:04Z</time>
      </trkpt>
      <trkpt lat="36.4977910" lon="-5.3250940">
        <ele>336.4</ele>
        <time>2019-08-28T09:17:05Z</time>
      </trkpt>
      <trkpt lat="36.4978030" lon="-5.3251200">
        <ele>336.6</ele>
        <time>2019-08-28T09:17:06Z</time>
      </trkpt>
      <trkpt lat="36.4978140" lon="-5.3251470">
        <ele>336.7</ele>
        <time>2019-08-28T09:17:07Z</time>
      </trkpt>
      <trkpt lat="36.4978260" lon="-5.3251730">
        <ele>336.9</ele>
        <time>2019-08-28T09:17:08Z</time>
      </trkpt>
      <trkpt lat="36.4978370" lon="-5.3251990">
        <ele>337.1</ele>
        <time>2019-08-28T09:17:09Z</time>
      </trkpt>
      <trkpt lat="36.4978500" lon="-5.3252250">
        <ele>337.3</ele>
        <time>2019-08-28T09:17:10Z</time>
      </trkpt>
      <trkpt lat="36.4978630" lon="-5.3252510">
        <ele>337.5</ele>
        <time>2019-08-28T09:17:11Z</time>
      </trkpt>
      <trkpt lat="36.4978760" lon="-5.3252750">
        <ele>337.7</ele>
        <time>2019-08-28T09:17:12Z</time>
      </trkpt>
      <trkpt lat="36.4978900" lon="-5.3253000">
        <ele>337.9</ele>
        <time>2019-08-28T09:17:13Z</time>
      </trkpt>
      <trkpt lat="36.4979040" lon="-5.3253240">
        <ele>338.1</ele>
        <time>2019-08-28T09:17:14Z</time>
      </trkpt>
      <trkpt lat="36.4979180" lon="-5.3253480">
        <ele>338.4</ele>
        <time>2019-08-28T09:17:15Z</time>
      </trkpt>
      <trkpt lat="36.4979320" lon="-5.3253730">
        <ele>338.6</ele>
        <time>2019-08-28T09:17:16Z</time>
      </trkpt>
      <trkpt lat="36.4979460" lon="-5.3253970">
        <ele>338.8</ele>
        <time>2019-08-28T09:17:17Z</time>
      </trkpt>
      <trkpt lat="36.4979600" lon="-5.3254220">
        <ele>339.1</ele>
        <time>2019-08-28T09:17:18Z</time>
      </trkpt>
      <trkpt lat="36.4979740" lon="-5.3254470">
        <ele>339.3</ele>
        <time>2019-08-28T09:17:19Z</time>
      </trkpt>
      <trkpt lat="36.4979870" lon="-5.3254720">
        <ele>339.6</ele>
        <time>2019-08-28T09:17:20Z</time>
      </trkpt>
      <trkpt lat="36.4980000" lon="-5.3254970">
        <ele>339.8</ele>
        <time>2019-08-28T09:17:21Z</time>
      </trkpt>
      <trkpt lat="36.4980140" lon="-5.3255200">
        <ele>340.1</ele>
        <time>2019-08-28T09:17:22Z</time>
      </trkpt>
      <trkpt lat="36.4980280" lon="-5.3255430">
        <ele>340.3</ele>
        <time>2019-08-28T09:17:23Z</time>
      </trkpt>
      <trkpt lat="36.4980430" lon="-5.3255650">
        <ele>340.6</ele>
        <time>2019-08-28T09:17:24Z</time>
      </trkpt>
      <trkpt lat="36.4980570" lon="-5.3255870">
        <ele>340.9</ele>
        <time>2019-08-28T09:17:25Z</time>
      </trkpt>
      <trkpt lat="36.4980710" lon="-5.3256100">
        <ele>341.1</ele>
        <time>2019-08-28T09:17:26Z</time>
      </trkpt>
      <trkpt lat="36.4980850" lon="-5.3256330">
        <ele>341.4</ele>
        <time>2019-08-28T09:17:27Z</time>
      </trkpt>
      <trkpt lat="36.4980990" lon="-5.3256560">
        <ele>341.7</ele>
        <time>2019-08-28T09:17:28Z</time>
      </trkpt>
      <trkpt lat="36.4981140" lon="-5.3256780">
        <ele>342.0</ele>
        <time>2019-08-28T09:17:29Z</time>
      </trkpt>
      <trkpt lat="36.4981310" lon="-5.3256990">
        <ele>342.3</ele>
        <time>2019-08-28T09:17:30Z</time>
      </trkpt>
      <trkpt lat="36.4981480" lon="-5.3257190">
        <ele>342.6</ele>
        <time>2019-08-28T09:17:31Z</time>
      </trkpt>
      <trkpt lat="36.4981660" lon="-5.3257390">
        <ele>342.9</ele>
        <time>2019-08-28T09:17:32Z</time>
      </trkpt>
      <trkpt lat="36.4981830" lon="-5.3257580">
        <ele>343.2</ele>
        <time>2019-08-28T09:17:33Z</time>
      </trkpt>
      <trkpt lat="36.4982010" lon="-5.3257770">
        <ele>343.5</ele>
        <time>2019-08-28T09:17:34Z</time>
      </trkpt>
      <trkpt lat="36.4982190" lon="-5.3257960">
        <ele>343.8</ele>
        <time>2019-08-28T09:17:35Z</time>
      </trkpt>
      <trkpt lat="36.4982380" lon="-5.3258140">
        <ele>344.1</ele>
        <time>2019-08-28T09:17:36Z</time>
      </trkpt>
      <trkpt lat="36.4982570" lon="-5.3258310">
        <ele>344.4</ele>
        <time>2019-08-28T09:17:37Z</time>
      </trkpt>
      <trkpt lat="36.4982750" lon="-5.3258480">
        <ele>344.7</ele>
        <time>2019-08-28T09:17:38Z</time>
      </trkpt>
      <trkpt lat="36.4982940" lon="-5.3258650">
        <ele>345.0</ele>
        <time>2019-08-28T09:17:39Z</time>
      </trkpt>
      <trkpt lat="36.4983120" lon="-5.3258810">
        <ele>345.3</ele>
        <time>2019-08-28T09:17:40Z</time>
      </trkpt>
      <trkpt lat="36.4983310" lon="-5.3258950">
        <ele>345.6</ele>
        <time>2019-08-28T09:17:41Z</time>
      </trkpt>
      <trkpt lat="36.4983500" lon="-5.3259090">
        <ele>345.9</ele>
        <time>2019-08-28T09:17:42Z</time>
      </trkpt>
      <trkpt lat="36.4983690" lon="-5.3259220">
        <ele>346.1</ele>
        <time>2019-08-28T09:17:43Z</time>
      </trkpt>
      <trkpt lat="36.4983890" lon="-5.3259350">
        <ele>346.4</ele>
        <time>2019-08-28T09:17:44Z</time>
      </trkpt>
      <trkpt lat="36.4984080" lon="-5.3259460">
        <ele>346.7</ele>
        <time>2019-08-28T09:17:45Z</time>
      </trkpt>
      <trkpt lat="36.4984290" lon="-5.3259570">
        <ele>346.9</ele>
        <time>2019-08-28T09:17:46Z</time>
      </trkpt>
      <trkpt lat="36.4984510" lon="-5.3259650">
        <ele>347.2</ele>
        <time>2019-08-28T09:17:47Z</time>
      </trkpt>
      <trkpt lat="36.4984730" lon="-5.3259720">
        <ele>347.5</ele>
        <time>2019-08-28T09:17:48Z</time>
      </trkpt>
      <trkpt lat="36.4984960" lon="-5.3259780">
        <ele>347.8</ele>
        <time>2019-08-28T09:17:49Z</time>
      </trkpt>
      <trkpt lat="36.4985180" lon="-5.3259850">
        <ele>348.0</ele>
        <time>2019-08-28T09:17:50Z</time>
      </trkpt>
      <trkpt lat="36.4985410" lon="-5.3259920">
        <ele>348.3</ele>
        <time>2019-08-28T09:17:51Z</time>
      </trkpt>
      <trkpt lat="36.4985640" lon="-5.3259990">
        <ele>348.5</ele>
        <time>2019-08-28T09:17:52Z</time>
      </trkpt>
      <trkpt lat="36.4985860" lon="-5.3260060">
        <ele>348.8</ele>
        <time>2019-08-28T09:17:53Z</time>
      </trkpt>
      <trkpt lat="36.4986090" lon="-5.3260130">
        <ele>349.0</ele>
        <time>2019-08-28T09:17:54Z</time>
      </trkpt>
      <trkpt lat="36.4986320" lon="-5.3260200">
        <ele>349.3</ele>
        <time>2019-08-28T09:17:55Z</time>
      </trkpt>
      <trkpt lat="36.4986550" lon="-5.3260270">
        <ele>349.5</ele>
        <time>2019-08-28T09:17:56Z</time>
      </trkpt>
      <trkpt lat="36.4986780" lon="-5.3260340">
        <ele>349.7</ele>
        <time>2019-08-28T09:17:57Z</time>
      </trkpt>
      <trkpt lat="36.4987020" lon="-5.3260410">
        <ele>350.0</ele>
        <time>2019-08-28T09:17:58Z</time>
      </trkpt>
      <trkpt lat="36.4987250" lon="-5.3260470">
        <ele>350.2</ele>
        <time>2019-08-28T09:17:59Z</time>
      </trkpt>
      <trkpt lat="36.4987490" lon="-5.3260520">
        <ele>350.4</ele>
        <time>2019-08-28T09:18:00Z</time>
      </trkpt>
      <trkpt lat="36.4987730" lon="-5.3260570">
        <ele>350.6</ele>
        <time>2019-08-28T09:18:01Z</time>
      </trkpt>
      <trkpt lat="36.4987960" lon="-5.3260620">
        <ele>350.8</ele>
        <time>2019-08-28T09:18:02Z</time>
      </trkpt>
      <trkpt lat="36.4988190" lon="-5.3260690">
        <ele>351.0</ele>
        <time>2019-08-28T09:18:03Z</time>
      </trkpt>
      <trkpt lat="36.4988420" lon="-5.3260770">
        <ele>351.3</ele>
        <time>2019-08-28T09:18:04Z</time>
      </trkpt>
      <trkpt lat="36.4988650" lon="-5.3260830">
        <ele>351.5</ele>
        <time>2019-08-28T09:18:05Z</time>
      </trkpt>
      <trkpt lat="36.4988880" lon="-5.3260900">
        <ele>351.7</ele>
        <time>2019-08-28T09:18:06Z</time>
      </trkpt>
      <trkpt lat="36.4989110" lon="-5.3260970">
        <ele>351.9</ele>
        <time>2019-08-28T09:18:07Z</time>
      </trkpt>
      <trkpt lat="36.4989340" lon="-5.3261030">
        <ele>352.1</ele>
        <time>2019-08-28T09:18:08Z</time>
      </trkpt>
      <trkpt lat="36.4989570" lon="-5.3261090">
        <ele>352.3</ele>
        <time>2019-08-28T09:18:09Z</time>
      </trkpt>
      <trkpt lat="36.4989790" lon="-5.3261150">
        <ele>352.5</ele>
        <time>2019-08-28T09:18:10Z</time>
      </trkpt>
      <trkpt lat="36.4990020" lon="-5.3261210">
        <ele>352.7</ele>
        <time>2019-08-28T09:18:11Z</time>
      </trkpt>
      <trkpt lat="36.4990240" lon="-5.3261270">
        <ele>352.8</ele>
        <time>2019-08-28T09:18:12Z</time>
      </trkpt>
      <trkpt lat="36.4990470" lon="-5.3261330">
        <ele>353.0</ele>
        <time>2019-08-28T09:18:13Z</time>
      </trkpt>
      <trkpt lat="36.4990690" lon="-5.3261390">
        <ele>353.2</ele>
        <time>2019-08-28T09:18:14Z</time>
      </trkpt>
      <trkpt lat="36.4990920" lon="-5.3261460">
        <ele>353.4</ele>
        <time>2019-08-28T09:18:15Z</time>
      </trkpt>
      <trkpt lat="36.4991140" lon="-5.3261520">
        <ele>353.6</ele>
        <time>2019-08-28T09:18:16Z</time>
      </trkpt>
      <trkpt lat="36.4991360" lon="-5.3261590">
        <ele>353.8</ele>
        <time>2019-08-28T09:18:17Z</time>
      </trkpt>
      <trkpt lat="36.4991590" lon="-5.3261640">
        <ele>354.0</ele>
        <time>2019-08-28T09:18:18Z</time>
      </trkpt>
      <trkpt lat="36.4991810" lon="-5.3261690">
        <ele>354.2</ele>
        <time>2019-08-28T09:18:19Z</time>
      </trkpt>
      <trkpt lat="36.4992030" lon="-5.3261750">
        <ele>354.4</ele>
        <time>2019-08-28T09:18:20Z</time>
      </trkpt>
      <trkpt lat="36.4992260" lon="-5.3261810">
        <ele>354.6</ele>
        <time>2019-08-28T09:18:21Z</time>
      </trkpt>
      <trkpt lat="36.4992480" lon="-5.3261870">
        <ele>354.8</ele>
        <time>2019-08-28T09:18:22Z</time>
      </trkpt>
      <trkpt lat="36.4992690" lon="-5.3261920">
        <ele>355.0</ele>
        <time>2019-08-28T09:18:23Z</time>
      </trkpt>
      <trkpt lat="36.4992910" lon="-5.3261970">
        <ele>355.2</ele>
        <time>2019-08-28T09:18:24Z</time>
      </trkpt>
      <trkpt lat="36.4993130" lon="-5.3262040">
        <ele>355.4</ele>
        <time>2019-08-28T09:18:25Z</time>
      </trkpt>
      <trkpt lat="36.4993350" lon="-5.3262110">
        <ele>355.7</ele>
        <time>2019-08-28T09:18:26Z</time>
      </trkpt>
      <trkpt lat="36.4993580" lon="-5.3262180">
        <ele>355.9</ele>
        <time>2019-08-28T09:18:27Z</time>
      </trkpt>
      <trkpt lat="36.4993810" lon="-5.3262250">
        <ele>356.1</ele>
        <time>2019-08-28T09:18:28Z</time>
      </trkpt>
      <trkpt lat="36.4994040" lon="-5.3262310">
        <ele>356.3</ele>
        <time>2019-08-28T09:18:29Z</time>
      </trkpt>
      <trkpt lat="36.4994270" lon="-5.3262380">
        <ele>356.5</ele>
        <time>2019-08-28T09:18:30Z</time>
      </trkpt>
      <trkpt lat="36.4994500" lon="-5.3262440">
        <ele>356.8</ele>
        <time>2019-08-28T09:18:31Z</time>
      </trkpt>
      <trkpt lat="36.4994720" lon="-5.3262510">
        <ele>357.0</ele>
        <time>2019-08-28T09:18:32Z</time>
      </trkpt>
      <trkpt lat="36.4994940" lon="-5.3262580">
        <ele>357.2</ele>
        <time>2019-08-28T09:18:33Z</time>
      </trkpt>
      <trkpt lat="36.4995160" lon="-5.3262660">
        <ele>357.5</ele>
        <time>2019-08-28T09:18:34Z</time>
      </trkpt>
      <trkpt lat="36.4995370" lon="-5.3262740">
        <ele>357.7</ele>
        <time>2019-08-28T09:18:35Z</time>
      </trkpt>
      <trkpt lat="36.4995590" lon="-5.3262830">
        <ele>357.9</ele>
        <time>2019-08-28T09:18:36Z</time>
      </trkpt>
      <trkpt lat="36.4995820" lon="-5.3262900">
        <ele>358.1</ele>
        <time>2019-08-28T09:18:37Z</time>
      </trkpt>
      <trkpt lat="36.4996040" lon="-5.3262990">
        <ele>358.4</ele>
        <time>2019-08-28T09:18:38Z</time>
      </trkpt>
      <trkpt lat="36.4996260" lon="-5.3263070">
        <ele>358.6</ele>
        <time>2019-08-28T09:18:39Z</time>
      </trkpt>
      <trkpt lat="36.4996480" lon="-5.3263140">
        <ele>358.9</ele>
        <time>2019-08-28T09:18:40Z</time>
      </trkpt>
      <trkpt lat="36.4996710" lon="-5.3263210">
        <ele>359.1</ele>
        <time>2019-08-28T09:18:41Z</time>
      </trkpt>
      <trkpt lat="36.4996950" lon="-5.3263270">
        <ele>359.4</ele>
        <time>2019-08-28T09:18:42Z</time>
      </trkpt>
      <trkpt lat="36.4997180" lon="-5.3263370">
        <ele>359.6</ele>
        <time>2019-08-28T09:18:43Z</time>
      </trkpt>
      <trkpt lat="36.4997410" lon="-5.3263460">
        <ele>359.9</ele>
        <time>2019-08-28T09:18:44Z</time>
      </trkpt>
      <trkpt lat="36.4997630" lon="-5.3263540">
        <ele>360.2</ele>
        <time>2019-08-28T09:18:45Z</time>
      </trkpt>
      <trkpt lat="36.4997870" lon="-5.3263600">
        <ele>360.4</ele>
        <time>2019-08-28T09:18:46Z</time>
      </trkpt>
      <trkpt lat="36.4998100" lon="-5.3263660">
        <ele>360.7</ele>
        <time>2019-08-28T09:18:47Z</time>
      </trkpt>
      <trkpt lat="36.4998350" lon="-5.3263730">
        <ele>361.0</ele>
        <time>2019-08-28T09:18:48Z</time>
      </trkpt>
      <trkpt lat="36.4998600" lon="-5.3263810">
        <ele>361.3</ele>
        <time>2019-08-28T09:18:49Z</time>
      </trkpt>
      <trkpt lat="36.4998850" lon="-5.3263900">
        <ele>361.6</ele>
        <time>2019-08-28T09:18:50Z</time>
      </trkpt>
      <trkpt lat="36.4999110" lon="-5.3263980">
        <ele>361.9</ele>
        <time>2019-08-28T09:18:51Z</time>
      </trkpt>
      <trkpt lat="36.4999370" lon="-5.3264050">
        <ele>362.2</ele>
        <time>2019-08-28T09:18:52Z</time>
      </trkpt>
      <trkpt lat="36.4999630" lon="-5.3264120">
        <ele>362.4</ele>
        <time>2019-08-28T09:18:53Z</time>
      </trkpt>
      <trkpt lat="36.4999890" lon="-5.3264200">
        <ele>362.8</ele>
        <time>2019-08-28T09:18:54Z</time>
      </trkpt>
      <trkpt lat="36.5000130" lon="-5.3264280">
        <ele>363.0</ele>
        <time>2019-08-28T09:18:55Z</time>
      </trkpt>
      <trkpt lat="36.5000370" lon="-5.3264350">
        <ele>363.3</ele>
        <time>2019-08-28T09:18:56Z</time>
      </trkpt>
      <trkpt lat="36.5000610" lon="-5.3264430">
        <ele>363.6</ele>
        <time>2019-08-28T09:18:57Z</time>
      </trkpt>
      <trkpt lat="36.5000840" lon="-5.3264510">
        <ele>363.9</ele>
        <time>2019-08-28T09:18:58Z</time>
      </trkpt>
      <trkpt lat="36.5001070" lon="-5.3264600">
        <ele>364.2</ele>
        <time>2019-08-28T09:18:59Z</time>
      </trkpt>
      <trkpt lat="36.5001310" lon="-5.3264690">
        <ele>364.4</ele>
        <time>2019-08-28T09:19:00Z</time>
      </trkpt>
      <trkpt lat="36.5001550" lon="-5.3264780">
        <ele>364.7</ele>
        <time>2019-08-28T09:19:01Z</time>
      </trkpt>
      <trkpt lat="36.5001780" lon="-5.3264860">
        <ele>365.0</ele>
        <time>2019-08-28T09:19:02Z</time>
      </trkpt>
      <trkpt lat="36.5002020" lon="-5.3264930">
        <ele>365.3</ele>
        <time>2019-08-28T09:19:03Z</time>
      </trkpt>
      <trkpt lat="36.5002250" lon="-5.3265010">
        <ele>365.6</ele>
        <time>2019-08-28T09:19:04Z</time>
      </trkpt>
      <trkpt lat="36.5002480" lon="-5.3265100">
        <ele>365.8</ele>
        <time>2019-08-28T09:19:05Z</time>
      </trkpt>
      <trkpt lat="36.5002720" lon="-5.3265190">
        <ele>366.1</ele>
        <time>2019-08-28T09:19:06Z</time>
      </trkpt>
      <trkpt lat="36.5002950" lon="-5.3265270">
        <ele>366.4</ele>
        <time>2019-08-28T09:19:07Z</time>
      </trkpt>
      <trkpt lat="36.5003180" lon="-5.3265340">
        <ele>366.7</ele>
        <time>2019-08-28T09:19:08Z</time>
      </trkpt>
      <trkpt lat="36.5003410" lon="-5.3265400">
        <ele>366.9</ele>
        <time>2019-08-28T09:19:09Z</time>
      </trkpt>
      <trkpt lat="36.5003640" lon="-5.3265440">
        <ele>367.2</ele>
        <time>2019-08-28T09:19:10Z</time>
      </trkpt>
      <trkpt lat="36.5003860" lon="-5.3265490">
        <ele>367.4</ele>
        <time>2019-08-28T09:19:11Z</time>
      </trkpt>
      <trkpt lat="36.5004080" lon="-5.3265560">
        <ele>367.7</ele>
        <time>2019-08-28T09:19:12Z</time>
      </trkpt>
      <trkpt lat="36.5004310" lon="-5.3265650">
        <ele>368.0</ele>
        <time>2019-08-28T09:19:13Z</time>
      </trkpt>
      <trkpt lat="36.5004530" lon="-5.3265740">
        <ele>368.2</ele>
        <time>2019-08-28T09:19:14Z</time>
      </trkpt>
      <trkpt lat="36.5004750" lon="-5.3265840">
        <ele>368.5</ele>
        <time>2019-08-28T09:19:15Z</time>
      </trkpt>
      <trkpt lat="36.5004970" lon="-5.3265960">
        <ele>368.8</ele>
        <time>2019-08-28T09:19:16Z</time>
      </trkpt>
      <trkpt lat="36.5005200" lon="-5.3266080">
        <ele>369.0</ele>
        <time>2019-08-28T09:19:17Z</time>
      </trkpt>
      <trkpt lat="36.5005420" lon="-5.3266180">
        <ele>369.3</ele>
        <time>2019-08-28T09:19:18Z</time>
      </trkpt>
      <trkpt lat="36.5005660" lon="-5.3266260">
        <ele>369.6</ele>
        <time>2019-08-28T09:19:19Z</time>
      </trkpt>
      <trkpt lat="36.5005890" lon="-5.3266320">
        <ele>369.8</ele>
        <time>2019-08-28T09:19:20Z</time>
      </trkpt>
      <trkpt lat="36.5006120" lon="-5.3266390">
        <ele>370.1</ele>
        <time>2019-08-28T09:19:21Z</time>
      </trkpt>
      <trkpt lat="36.5006350" lon="-5.3266460">
        <ele>370.4</ele>
        <time>2019-08-28T09:19:22Z</time>
      </trkpt>
      <trkpt lat="36.5006570" lon="-5.3266540">
        <ele>370.6</ele>
        <time>2019-08-28T09:19:23Z</time>
      </trkpt>
      <trkpt lat="36.5006800" lon="-5.3266620">
        <ele>370.9</ele>
        <time>2019-08-28T09:19:24Z</time>
      </trkpt>
      <trkpt lat="36.5007030" lon="-5.3266710">
        <ele>371.1</ele>
        <time>2019-08-28T09:19:25Z</time>
      </trkpt>
      <trkpt lat="36.5007250" lon="-5.3266810">
        <ele>371.4</ele>
        <time>2019-08-28T09:19:26Z</time>
      </trkpt>
      <trkpt lat="36.5007480" lon="-5.3266920">
        <ele>371.7</ele>
        <time>2019-08-28T09:19:27Z</time>
      </trkpt>
      <trkpt lat="36.5007710" lon="-5.3267030">
        <ele>371.9</ele>
        <time>2019-08-28T09:19:28Z</time>
      </trkpt>
      <trkpt lat="36.5007950" lon="-5.3267140">
        <ele>372.2</ele>
        <time>2019-08-28T09:19:29Z</time>
      </trkpt>
      <trkpt lat="36.5008180" lon="-5.3267240">
        <ele>372.5</ele>
        <time>2019-08-28T09:19:30Z</time>
      </trkpt>
      <trkpt lat="36.5008400" lon="-5.3267340">
        <ele>372.7</ele>
        <time>2019-08-28T09:19:31Z</time>
      </trkpt>
      <trkpt lat="36.5008620" lon="-5.3267440">
        <ele>373.0</ele>
        <time>2019-08-28T09:19:32Z</time>
      </trkpt>
      <trkpt lat="36.5008840" lon="-5.3267540">
        <ele>373.2</ele>
        <time>2019-08-28T09:19:33Z</time>
      </trkpt>
      <trkpt lat="36.5009050" lon="-5.3267630">
        <ele>373.4</ele>
        <time>2019-08-28T09:19:34Z</time>
      </trkpt>
      <trkpt lat="36.5009270" lon="-5.3267720">
        <ele>373.7</ele>
        <time>2019-08-28T09:19:35Z</time>
      </trkpt>
      <trkpt lat="36.5009480" lon="-5.3267810">
        <ele>373.9</ele>
        <time>2019-08-28T09:19:36Z</time>
      </trkpt>
      <trkpt lat="36.5009680" lon="-5.3267900">
        <ele>374.1</ele>
        <time>2019-08-28T09:19:37Z</time>
      </trkpt>
      <trkpt lat="36.5009890" lon="-5.3267990">
        <ele>374.4</ele>
        <time>2019-08-28T09:19:38Z</time>
      </trkpt>
      <trkpt lat="36.5010100" lon="-5.3268090">
        <ele>374.6</ele>
        <time>2019-08-28T09:19:39Z</time>
      </trkpt>
      <trkpt lat="36.5010310" lon="-5.3268190">
        <ele>374.8</ele>
        <time>2019-08-28T09:19:40Z</time>
      </trkpt>
      <trkpt lat="36.5010520" lon="-5.3268290">
        <ele>375.0</ele>
        <time>2019-08-28T09:19:41Z</time>
      </trkpt>
      <trkpt lat="36.5010710" lon="-5.3268400">
        <ele>375.2</ele>
        <time>2019-08-28T09:19:42Z</time>
      </trkpt>
      <trkpt lat="36.5010920" lon="-5.3268500">
        <ele>375.4</ele>
        <time>2019-08-28T09:19:43Z</time>
      </trkpt>
      <trkpt lat="36.5011120" lon="-5.3268600">
        <ele>375.7</ele>
        <time>2019-08-28T09:19:44Z</time>
      </trkpt>
      <trkpt lat="36.5011320" lon="-5.3268710">
        <ele>375.9</ele>
        <time>2019-08-28T09:19:45Z</time>
      </trkpt>
      <trkpt lat="36.5011520" lon="-5.3268820">
        <ele>376.1</ele>
        <time>2019-08-28T09:19:46Z</time>
      </trkpt>
      <trkpt lat="36.5011720" lon="-5.3268920">
        <ele>376.3</ele>
        <time>2019-08-28T09:19:47Z</time>
      </trkpt>
      <trkpt lat="36.5011920" lon="-5.3269020">
        <ele>376.5</ele>
        <time>2019-08-28T09:19:48Z</time>
      </trkpt>
      <trkpt lat="36.5012120" lon="-5.3269120">
        <ele>376.7</ele>
        <time>2019-08-28T09:19:49Z</time>
      </trkpt>
      <trkpt lat="36.5012310" lon="-5.3269220">
        <ele>376.8</ele>
        <time>2019-08-28T09:19:50Z</time>
      </trkpt>
      <trkpt lat="36.5012510" lon="-5.3269310">
        <ele>377.0</ele>
        <time>2019-08-28T09:19:51Z</time>
      </trkpt>
      <trkpt lat="36.5012710" lon="-5.3269400">
        <ele>377.2</ele>
        <time>2019-08-28T09:19:52Z</time>
      </trkpt>
      <trkpt lat="36.5012900" lon="-5.3269500">
        <ele>377.4</ele>
        <time>2019-08-28T09:19:53Z</time>
      </trkpt>
      <trkpt lat="36.5013100" lon="-5.3269610">
        <ele>377.6</ele>
        <time>2019-08-28T09:19:54Z</time>
      </trkpt>
      <trkpt lat="36.5013300" lon="-5.3269720">
        <ele>377.8</ele>
        <time>2019-08-28T09:19:55Z</time>
      </trkpt>
      <trkpt lat="36.5013500" lon="-5.3269830">
        <ele>378.0</ele>
        <time>2019-08-28T09:19:56Z</time>
      </trkpt>
      <trkpt lat="36.5013700" lon="-5.3269940">
        <ele>378.1</ele>
        <time>2019-08-28T09:19:57Z</time>
      </trkpt>
      <trkpt lat="36.5013900" lon="-5.3270050">
        <ele>378.3</ele>
        <time>2019-08-28T09:19:58Z</time>
      </trkpt>
      <trkpt lat="36.5014100" lon="-5.3270150">
        <ele>378.5</ele>
        <time>2019-08-28T09:19:59Z</time>
      </trkpt>
      <trkpt lat="36.5014300" lon="-5.3270250">
        <ele>378.7</ele>
        <time>2019-08-28T09:20:00Z</time>
      </trkpt>
      <trkpt lat="36.5014500" lon="-5.3270360">
        <ele>378.8</ele>
        <time>2019-08-28T09:20:01Z</time>
      </trkpt>
      <trkpt lat="36.5014700" lon="-5.3270480">
        <ele>379.0</ele>
        <time>2019-08-28T09:20:02Z</time>
      </trkpt>
      <trkpt lat="36.5014910" lon="-5.3270600">
        <ele>379.2</ele>
        <time>2019-08-28T09:20:03Z</time>
      </trkpt>
      <trkpt lat="36.5015120" lon="-5.3270730">
        <ele>379.3</ele>
        <time>2019-08-28T09:20:04Z</time>
      </trkpt>
      <trkpt lat="36.5015320" lon="-5.3270850">
        <ele>379.5</ele>
        <time>2019-08-28T09:20:05Z</time>
      </trkpt>
      <trkpt lat="36.5015520" lon="-5.3270970">
        <ele>379.6</ele>
        <time>2019-08-28T09:20:06Z</time>
      </trkpt>
      <trkpt lat="36.5015720" lon="-5.3271100">
        <ele>379.8</ele>
        <time>2019-08-28T09:20:07Z</time>
      </trkpt>
      <trkpt lat="36.5015920" lon="-5.3271220">
        <ele>380.0</ele>
        <time>2019-08-28T09:20:08Z</time>
      </trkpt>
      <trkpt lat="36.5016110" lon="-5.3271360">
        <ele>380.1</ele>
        <time>2019-08-28T09:20:09Z</time>
      </trkpt>
      <trkpt lat="36.5016310" lon="-5.3271490">
        <ele>380.3</ele>
        <time>2019-08-28T09:20:10Z</time>
      </trkpt>
      <trkpt lat="36.5016490" lon="-5.3271640">
        <ele>380.4</ele>
        <time>2019-08-28T09:20:11Z</time>
      </trkpt>
      <trkpt lat="36.5016680" lon="-5.3271780">
        <ele>380.5</ele>
        <time>2019-08-28T09:20:12Z</time>
      </trkpt>
      <trkpt lat="36.5016860" lon="-5.3271930">
        <ele>380.6</ele>
        <time>2019-08-28T09:20:13Z</time>
      </trkpt>
      <trkpt lat="36.5017040" lon="-5.3272080">
        <ele>380.7</ele>
        <time>2019-08-28T09:20:14Z</time>
      </trkpt>
      <trkpt lat="36.5017220" lon="-5.3272240">
        <ele>380.8</ele>
        <time>2019-08-28T09:20:15Z</time>
      </trkpt>
      <trkpt lat="36.5017400" lon="-5.3272420">
        <ele>380.9</ele>
        <time>2019-08-28T09:20:16Z</time>
      </trkpt>
      <trkpt lat="36.5017580" lon="-5.3272590">
        <ele>381.1</ele>
        <time>2019-08-28T09:20:17Z</time>
      </trkpt>
      <trkpt lat="36.5017760" lon="-5.3272780">
        <ele>381.2</ele>
        <time>2019-08-28T09:20:18Z</time>
      </trkpt>
      <trkpt lat="36.5017930" lon="-5.3272960">
        <ele>381.3</ele>
        <time>2019-08-28T09:20:19Z</time>
      </trkpt>
      <trkpt lat="36.5018110" lon="-5.3273140">
        <ele>381.4</ele>
        <time>2019-08-28T09:20:20Z</time>
      </trkpt>
      <trkpt lat="36.5018280" lon="-5.3273320">
        <ele>381.5</ele>
        <time>2019-08-28T09:20:21Z</time>
      </trkpt>
      <trkpt lat="36.5018450" lon="-5.3273510">
        <ele>381.6</ele>
        <time>2019-08-28T09:20:22Z</time>
      </trkpt>
      <trkpt lat="36.5018610" lon="-5.3273710">
        <ele>381.7</ele>
        <time>2019-08-28T09:20:23Z</time>
      </trkpt>
      <trkpt lat="36.5018780" lon="-5.3273900">
        <ele>381.8</ele>
        <time>2019-08-28T09:20:24Z</time>
      </trkpt>
      <trkpt lat="36.5018950" lon="-5.3274090">
        <ele>381.9</ele>
        <time>2019-08-28T09:20:25Z</time>
      </trkpt>
      <trkpt lat="36.5019110" lon="-5.3274280">
        <ele>382.0</ele>
        <time>2019-08-28T09:20:26Z</time>
      </trkpt>
      <trkpt lat="36.5019280" lon="-5.3274480">
        <ele>382.2</ele>
        <time>2019-08-28T09:20:27Z</time>
      </trkpt>
      <trkpt lat="36.5019440" lon="-5.3274680">
        <ele>382.3</ele>
        <time>2019-08-28T09:20:28Z</time>
      </trkpt>
      <trkpt lat="36.5019610" lon="-5.3274870">
        <ele>382.4</ele>
        <time>2019-08-28T09:20:29Z</time>
      </trkpt>
      <trkpt lat="36.5019770" lon="-5.3275050">
        <ele>382.5</ele>
        <time>2019-08-28T09:20:30Z</time>
      </trkpt>
      <trkpt lat="36.5019930" lon="-5.3275240">
        <ele>382.6</ele>
        <time>2019-08-28T09:20:31Z</time>
      </trkpt>
      <trkpt lat="36.5020080" lon="-5.3275440">
        <ele>382.8</ele>
        <time>2019-08-28T09:20:32Z</time>
      </trkpt>
      <trkpt lat="36.5020220" lon="-5.3275630">
        <ele>382.9</ele>
        <time>2019-08-28T09:20:33Z</time>
      </trkpt>
      <trkpt lat="36.5020370" lon="-5.3275820">
        <ele>383.0</ele>
        <time>2019-08-28T09:20:34Z</time>
      </trkpt>
      <trkpt lat="36.5020520" lon="-5.3276010">
        <ele>383.2</ele>
        <time>2019-08-28T09:20:35Z</time>
      </trkpt>
      <trkpt lat="36.5020670" lon="-5.3276190">
        <ele>383.3</ele>
        <time>2019-08-28T09:20:36Z</time>
      </trkpt>
      <trkpt lat="36.5020820" lon="-5.3276380">
        <ele>383.4</ele>
        <time>2019-08-28T09:20:37Z</time>
      </trkpt>
      <trkpt lat="36.5020960" lon="-5.3276580">
        <ele>383.6</ele>
        <time>2019-08-28T09:20:38Z</time>
      </trkpt>
      <trkpt lat="36.5021110" lon="-5.3276770">
        <ele>383.7</ele>
        <time>2019-08-28T09:20:39Z</time>
      </trkpt>
      <trkpt lat="36.5021260" lon="-5.3276960">
        <ele>383.9</ele>
        <time>2019-08-28T09:20:40Z</time>
      </trkpt>
      <trkpt lat="36.5021420" lon="-5.3277140">
        <ele>384.0</ele>
        <time>2019-08-28T09:20:41Z</time>
      </trkpt>
      <trkpt lat="36.5021580" lon="-5.3277320">
        <ele>384.2</ele>
        <time>2019-08-28T09:20:42Z</time>
      </trkpt>
      <trkpt lat="36.5021740" lon="-5.3277510">
        <ele>384.4</ele>
        <time>2019-08-28T09:20:43Z</time>
      </trkpt>
      <trkpt lat="36.5021890" lon="-5.3277720">
        <ele>384.6</ele>
        <time>2019-08-28T09:20:44Z</time>
      </trkpt>
      <trkpt lat="36.5022050" lon="-5.3277920">
        <ele>384.8</ele>
        <time>2019-08-28T09:20:45Z</time>
      </trkpt>
      <trkpt lat="36.5022210" lon="-5.3278120">
        <ele>385.0</ele>
        <time>2019-08-28T09:20:46Z</time>
      </trkpt>
      <trkpt lat="36.5022380" lon="-5.3278310">
        <ele>385.2</ele>
        <time>2019-08-28T09:20:47Z</time>
      </trkpt>
      <trkpt lat="36.5022540" lon="-5.3278500">
        <ele>385.4</ele>
        <time>2019-08-28T09:20:48Z</time>
      </trkpt>
      <trkpt lat="36.5022710" lon="-5.3278690">
        <ele>385.6</ele>
        <time>2019-08-28T09:20:49Z</time>
      </trkpt>
      <trkpt lat="36.5022870" lon="-5.3278890">
        <ele>385.8</ele>
        <time>2019-08-28T09:20:50Z</time>
      </trkpt>
      <trkpt lat="36.5023030" lon="-5.3279100">
        <ele>386.0</ele>
        <time>2019-08-28T09:20:51Z</time>
      </trkpt>
      <trkpt lat="36.5023200" lon="-5.3279300">
        <ele>386.3</ele>
        <time>2019-08-28T09:20:52Z</time>
      </trkpt>
      <trkpt lat="36.5023370" lon="-5.3279500">
        <ele>386.5</ele>
        <time>2019-08-28T09:20:53Z</time>
      </trkpt>
      <trkpt lat="36.5023540" lon="-5.3279690">
        <ele>386.7</ele>
        <time>2019-08-28T09:20:54Z</time>
      </trkpt>
      <trkpt lat="36.5023710" lon="-5.3279890">
        <ele>387.0</ele>
        <time>2019-08-28T09:20:55Z</time>
      </trkpt>
      <trkpt lat="36.5023880" lon="-5.3280090">
        <ele>387.2</ele>
        <time>2019-08-28T09:20:56Z</time>
      </trkpt>
      <trkpt lat="36.5024050" lon="-5.3280290">
        <ele>387.4</ele>
        <time>2019-08-28T09:20:57Z</time>
      </trkpt>
      <trkpt lat="36.5024230" lon="-5.3280490">
        <ele>387.7</ele>
        <time>2019-08-28T09:20:58Z</time>
      </trkpt>
      <trkpt lat="36.5024400" lon="-5.3280680">
        <ele>387.9</ele>
        <time>2019-08-28T09:20:59Z</time>
      </trkpt>
      <trkpt lat="36.5024580" lon="-5.3280880">
        <ele>388.2</ele>
        <time>2019-08-28T09:21:00Z</time>
      </trkpt>
      <trkpt lat="36.5024760" lon="-5.3281070">
        <ele>388.4</ele>
        <time>2019-08-28T09:21:01Z</time>
      </trkpt>
      <trkpt lat="36.5024950" lon="-5.3281260">
        <ele>388.7</ele>
        <time>2019-08-28T09:21:02Z</time>
      </trkpt>
      <trkpt lat="36.5025130" lon="-5.3281440">
        <ele>388.9</ele>
        <time>2019-08-28T09:21:03Z</time>
      </trkpt>
      <trkpt lat="36.5025330" lon="-5.3281630">
        <ele>389.2</ele>
        <time>2019-08-28T09:21:04Z</time>
      </trkpt>
      <trkpt lat="36.5025520" lon="-5.3281820">
        <ele>389.5</ele>
        <time>2019-08-28T09:21:05Z</time>
      </trkpt>
      <trkpt lat="36.5025720" lon="-5.3282000">
        <ele>389.7</ele>
        <time>2019-08-28T09:21:06Z</time>
      </trkpt>
      <trkpt lat="36.5025910" lon="-5.3282180">
        <ele>390.0</ele>
        <time>2019-08-28T09:21:07Z</time>
      </trkpt>
      <trkpt lat="36.5026110" lon="-5.3282350">
        <ele>390.2</ele>
        <time>2019-08-28T09:21:08Z</time>
      </trkpt>
      <trkpt lat="36.5026300" lon="-5.3282530">
        <ele>390.5</ele>
        <time>2019-08-28T09:21:09Z</time>
      </trkpt>
      <trkpt lat="36.5026490" lon="-5.3282720">
        <ele>390.8</ele>
        <time>2019-08-28T09:21:10Z</time>
      </trkpt>
      <trkpt lat="36.5026690" lon="-5.3282900">
        <ele>391.0</ele>
        <time>2019-08-28T09:21:11Z</time>
      </trkpt>
      <trkpt lat="36.5026900" lon="-5.3283080">
        <ele>391.3</ele>
        <time>2019-08-28T09:21:12Z</time>
      </trkpt>
      <trkpt lat="36.5027110" lon="-5.3283250">
        <ele>391.6</ele>
        <time>2019-08-28T09:21:13Z</time>
      </trkpt>
      <trkpt lat="36.5027330" lon="-5.3283410">
        <ele>391.8</ele>
        <time>2019-08-28T09:21:14Z</time>
      </trkpt>
      <trkpt lat="36.5027560" lon="-5.3283580">
        <ele>392.1</ele>
        <time>2019-08-28T09:21:15Z</time>
      </trkpt>
      <trkpt lat="36.5027780" lon="-5.3283750">
        <ele>392.4</ele>
        <time>2019-08-28T09:21:16Z</time>
      </trkpt>
      <trkpt lat="36.5028000" lon="-5.3283910">
        <ele>392.7</ele>
        <time>2019-08-28T09:21:17Z</time>
      </trkpt>
      <trkpt lat="36.5028230" lon="-5.3284050">
        <ele>393.0</ele>
        <time>2019-08-28T09:21:18Z</time>
      </trkpt>
      <trkpt lat="36.5028460" lon="-5.3284180">
        <ele>393.3</ele>
        <time>2019-08-28T09:21:19Z</time>
      </trkpt>
      <trkpt lat="36.5028700" lon="-5.3284310">
        <ele>393.6</ele>
        <time>2019-08-28T09:21:20Z</time>
      </trkpt>
      <trkpt lat="36.5028940" lon="-5.3284410">
        <ele>393.9</ele>
        <time>2019-08-28T09:21:21Z</time>
      </trkpt>
      <trkpt lat="36.5029190" lon="-5.3284520">
        <ele>394.2</ele>
        <time>2019-08-28T09:21:22Z</time>
      </trkpt>
      <trkpt lat="36.5029440" lon="-5.3284610">
        <ele>394.5</ele>
        <time>2019-08-28T09:21:23Z</time>
      </trkpt>
      <trkpt lat="36.5029680" lon="-5.3284700">
        <ele>394.8</ele>
        <time>2019-08-28T09:21:24Z</time>
      </trkpt>
      <trkpt lat="36.5029930" lon="-5.3284790">
        <ele>395.2</ele>
        <time>2019-08-28T09:21:25Z</time>
      </trkpt>
      <trkpt lat="36.5030180" lon="-5.3284860">
        <ele>395.5</ele>
        <time>2019-08-28T09:21:26Z</time>
      </trkpt>
      <trkpt lat="36.5030430" lon="-5.3284910">
        <ele>395.8</ele>
        <time>2019-08-28T09:21:27Z</time>
      </trkpt>
      <trkpt lat="36.5030690" lon="-5.3284930">
        <ele>396.2</ele>
        <time>2019-08-28T09:21:28Z</time>
      </trkpt>
      <trkpt lat="36.5030950" lon="-5.3284940">
        <ele>396.5</ele>
        <time>2019-08-28T09:21:29Z</time>
      </trkpt>
      <trkpt lat="36.5031210" lon="-5.3284940">
        <ele>396.8</ele>
        <time>2019-08-28T09:21:30Z</time>
      </trkpt>
      <trkpt lat="36.5031470" lon="-5.3284920">
        <ele>397.2</ele>
        <time>2019-08-28T09:21:31Z</time>
      </trkpt>
      <trkpt lat="36.5031750" lon="-5.3284890">
        <ele>397.6</ele>
        <time>2019-08-28T09:21:32Z</time>
      </trkpt>
      <trkpt lat="36.5032020" lon="-5.3284860">
        <ele>397.9</ele>
        <time>2019-08-28T09:21:33Z</time>
      </trkpt>
      <trkpt lat="36.5032290" lon="-5.3284830">
        <ele>398.3</ele>
        <time>2019-08-28T09:21:34Z</time>
      </trkpt>
      <trkpt lat="36.5032550" lon="-5.3284800">
        <ele>398.6</ele>
        <time>2019-08-28T09:21:35Z</time>
      </trkpt>
      <trkpt lat="36.5032830" lon="-5.3284750">
        <ele>399.0</ele>
        <time>2019-08-28T09:21:36Z</time>
      </trkpt>
      <trkpt lat="36.5033100" lon="-5.3284700">
        <ele>399.4</ele>
        <time>2019-08-28T09:21:37Z</time>
      </trkpt>
      <trkpt lat="36.5033380" lon="-5.3284630">
        <ele>399.7</ele>
        <time>2019-08-28T09:21:38Z</time>
      </trkpt>
      <trkpt lat="36.5033670" lon="-5.3284540">
        <ele>400.1</ele>
        <time>2019-08-28T09:21:39Z</time>
      </trkpt>
      <trkpt lat="36.5033950" lon="-5.3284450">
        <ele>400.5</ele>
        <time>2019-08-28T09:21:40Z</time>
      </trkpt>
      <trkpt lat="36.5034220" lon="-5.3284350">
        <ele>400.8</ele>
        <time>2019-08-28T09:21:41Z</time>
      </trkpt>
      <trkpt lat="36.5034500" lon="-5.3284280">
        <ele>401.2</ele>
        <time>2019-08-28T09:21:42Z</time>
      </trkpt>
      <trkpt lat="36.5034780" lon="-5.3284220">
        <ele>401.6</ele>
        <time>2019-08-28T09:21:43Z</time>
      </trkpt>
      <trkpt lat="36.5035060" lon="-5.3284160">
        <ele>402.0</ele>
        <time>2019-08-28T09:21:44Z</time>
      </trkpt>
      <trkpt lat="36.5035340" lon="-5.3284110">
        <ele>402.3</ele>
        <time>2019-08-28T09:21:45Z</time>
      </trkpt>
      <trkpt lat="36.5035600" lon="-5.3284050">
        <ele>402.7</ele>
        <time>2019-08-28T09:21:46Z</time>
      </trkpt>
      <trkpt lat="36.5035860" lon="-5.3284000">
        <ele>403.0</ele>
        <time>2019-08-28T09:21:47Z</time>
      </trkpt>
      <trkpt lat="36.5036110" lon="-5.3283950">
        <ele>403.3</ele>
        <time>2019-08-28T09:21:48Z</time>
      </trkpt>
      <trkpt lat="36.5036370" lon="-5.3283910">
        <ele>403.7</ele>
        <time>2019-08-28T09:21:49Z</time>
      </trkpt>
      <trkpt lat="36.5036630" lon="-5.3283880">
        <ele>404.0</ele>
        <time>2019-08-28T09:21:50Z</time>
      </trkpt>
      <trkpt lat="36.5036880" lon="-5.3283850">
        <ele>404.3</ele>
        <time>2019-08-28T09:21:51Z</time>
      </trkpt>
      <trkpt lat="36.5037140" lon="-5.3283810">
        <ele>404.7</ele>
        <time>2019-08-28T09:21:52Z</time>
      </trkpt>
      <trkpt lat="36.5037390" lon="-5.3283770">
        <ele>405.0</ele>
        <time>2019-08-28T09:21:53Z</time>
      </trkpt>
      <trkpt lat="36.5037640" lon="-5.3283750">
        <ele>405.3</ele>
        <time>2019-08-28T09:21:54Z</time>
      </trkpt>
      <trkpt lat="36.5037880" lon="-5.3283730">
        <ele>405.6</ele>
        <time>2019-08-28T09:21:55Z</time>
      </trkpt>
      <trkpt lat="36.5038120" lon="-5.3283730">
        <ele>405.9</ele>
        <time>2019-08-28T09:21:56Z</time>
      </trkpt>
      <trkpt lat="36.5038370" lon="-5.3283730">
        <ele>406.2</ele>
        <time>2019-08-28T09:21:57Z</time>
      </trkpt>
      <trkpt lat="36.5038610" lon="-5.3283720">
        <ele>406.5</ele>
        <time>2019-08-28T09:21:58Z</time>
      </trkpt>
      <trkpt lat="36.5038830" lon="-5.3283700">
        <ele>406.7</ele>
        <time>2019-08-28T09:21:59Z</time>
      </trkpt>
      <trkpt lat="36.5039060" lon="-5.3283680">
        <ele>407.0</ele>
        <time>2019-08-28T09:22:00Z</time>
      </trkpt>
      <trkpt lat="36.5039280" lon="-5.3283680">
        <ele>407.3</ele>
        <time>2019-08-28T09:22:01Z</time>
      </trkpt>
      <trkpt lat="36.5039500" lon="-5.3283700">
        <ele>407.5</ele>
        <time>2019-08-28T09:22:02Z</time>
      </trkpt>
      <trkpt lat="36.5039720" lon="-5.3283720">
        <ele>407.8</ele>
        <time>2019-08-28T09:22:03Z</time>
      </trkpt>
      <trkpt lat="36.5039950" lon="-5.3283740">
        <ele>408.0</ele>
        <time>2019-08-28T09:22:04Z</time>
      </trkpt>
      <trkpt lat="36.5040170" lon="-5.3283760">
        <ele>408.3</ele>
        <time>2019-08-28T09:22:05Z</time>
      </trkpt>
      <trkpt lat="36.5040400" lon="-5.3283770">
        <ele>408.5</ele>
        <time>2019-08-28T09:22:06Z</time>
      </trkpt>
      <trkpt lat="36.5040630" lon="-5.3283770">
        <ele>408.8</ele>
        <time>2019-08-28T09:22:07Z</time>
      </trkpt>
      <trkpt lat="36.5040850" lon="-5.3283760">
        <ele>409.0</ele>
        <time>2019-08-28T09:22:08Z</time>
      </trkpt>
      <trkpt lat="36.5041080" lon="-5.3283770">
        <ele>409.3</ele>
        <time>2019-08-28T09:22:09Z</time>
      </trkpt>
      <trkpt lat="36.5041310" lon="-5.3283780">
        <ele>409.5</ele>
        <time>2019-08-28T09:22:10Z</time>
      </trkpt>
      <trkpt lat="36.5041540" lon="-5.3283780">
        <ele>409.8</ele>
        <time>2019-08-28T09:22:11Z</time>
      </trkpt>
      <trkpt lat="36.5041770" lon="-5.3283790">
        <ele>410.0</ele>
        <time>2019-08-28T09:22:12Z</time>
      </trkpt>
      <trkpt lat="36.5041990" lon="-5.3283800">
        <ele>410.2</ele>
        <time>2019-08-28T09:22:13Z</time>
      </trkpt>
      <trkpt lat="36.5042210" lon="-5.3283810">
        <ele>410.4</ele>
        <time>2019-08-28T09:22:14Z</time>
      </trkpt>
      <trkpt lat="36.5042430" lon="-5.3283810">
        <ele>410.7</ele>
        <time>2019-08-28T09:22:15Z</time>
      </trkpt>
      <trkpt lat="36.5042660" lon="-5.3283820">
        <ele>410.9</ele>
        <time>2019-08-28T09:22:16Z</time>
      </trkpt>
      <trkpt lat="36.5042880" lon="-5.3283840">
        <ele>411.1</ele>
        <time>2019-08-28T09:22:17Z</time>
      </trkpt>
      <trkpt lat="36.5043100" lon="-5.3283850">
        <ele>411.3</ele>
        <time>2019-08-28T09:22:18Z</time>
      </trkpt>
      <trkpt lat="36.5043320" lon="-5.3283860">
        <ele>411.5</ele>
        <time>2019-08-28T09:22:19Z</time>
      </trkpt>
      <trkpt lat="36.5043540" lon="-5.3283860">
        <ele>411.7</ele>
        <time>2019-08-28T09:22:20Z</time>
      </trkpt>
      <trkpt lat="36.5043750" lon="-5.3283860">
        <ele>411.9</ele>
        <time>2019-08-28T09:22:21Z</time>
      </trkpt>
      <trkpt lat="36.5043960" lon="-5.3283850">
        <ele>412.1</ele>
        <time>2019-08-28T09:22:22Z</time>
      </trkpt>
      <trkpt lat="36.5044170" lon="-5.3283830">
        <ele>412.3</ele>
        <time>2019-08-28T09:22:23Z</time>
      </trkpt>
      <trkpt lat="36.5044380" lon="-5.3283810">
        <ele>412.5</ele>
        <time>2019-08-28T09:22:24Z</time>
      </trkpt>
      <trkpt lat="36.5044590" lon="-5.3283790">
        <ele>412.7</ele>
        <time>2019-08-28T09:22:25Z</time>
      </trkpt>
      <trkpt lat="36.5044810" lon="-5.3283790">
        <ele>412.9</ele>
        <time>2019-08-28T09:22:26Z</time>
      </trkpt>
      <trkpt lat="36.5045030" lon="-5.3283780">
        <ele>413.1</ele>
        <time>2019-08-28T09:22:27Z</time>
      </trkpt>
      <trkpt lat="36.5045250" lon="-5.3283770">
        <ele>413.3</ele>
        <time>2019-08-28T09:22:28Z</time>
      </trkpt>
      <trkpt lat="36.5045470" lon="-5.3283760">
        <ele>413.5</ele>
        <time>2019-08-28T09:22:29Z</time>
      </trkpt>
      <trkpt lat="36.5045700" lon="-5.3283750">
        <ele>413.8</ele>
        <time>2019-08-28T09:22:30Z</time>
      </trkpt>
      <trkpt lat="36.5045920" lon="-5.3283750">
        <ele>414.0</ele>
        <time>2019-08-28T09:22:31Z</time>
      </trkpt>
      <trkpt lat="36.5046130" lon="-5.3283740">
        <ele>414.1</ele>
        <time>2019-08-28T09:22:32Z</time>
      </trkpt>
      <trkpt lat="36.5046350" lon="-5.3283730">
        <ele>414.3</ele>
        <time>2019-08-28T09:22:33Z</time>
      </trkpt>
      <trkpt lat="36.5046560" lon="-5.3283720">
        <ele>414.5</ele>
        <time>2019-08-28T09:22:34Z</time>
      </trkpt>
      <trkpt lat="36.5046780" lon="-5.3283710">
        <ele>414.7</ele>
        <time>2019-08-28T09:22:35Z</time>
      </trkpt>
      <trkpt lat="36.5047010" lon="-5.3283680">
        <ele>414.9</ele>
        <time>2019-08-28T09:22:36Z</time>
      </trkpt>
      <trkpt lat="36.5047230" lon="-5.3283660">
        <ele>415.1</ele>
        <time>2019-08-28T09:22:37Z</time>
      </trkpt>
      <trkpt lat="36.5047450" lon="-5.3283640">
        <ele>415.3</ele>
        <time>2019-08-28T09:22:38Z</time>
      </trkpt>
      <trkpt lat="36.5047670" lon="-5.3283630">
        <ele>415.5</ele>
        <time>2019-08-28T09:22:39Z</time>
      </trkpt>
      <trkpt lat="36.5047880" lon="-5.3283610">
        <ele>415.7</ele>
        <time>2019-08-28T09:22:40Z</time>
      </trkpt>
      <trkpt lat="36.5048100" lon="-5.3283600">
        <ele>415.8</ele>
        <time>2019-08-28T09:22:41Z</time>
      </trkpt>
      <trkpt lat="36.5048320" lon="-5.3283580">
        <ele>416.0</ele>
        <time>2019-08-28T09:22:42Z</time>
      </trkpt>
      <trkpt lat="36.5048540" lon="-5.3283570">
        <ele>416.2</ele>
        <time>2019-08-28T09:22:43Z</time>
      </trkpt>
      <trkpt lat="36.5048750" lon="-5.3283560">
        <ele>416.4</ele>
        <time>2019-08-28T09:22:44Z</time>
      </trkpt>
      <trkpt lat="36.5048970" lon="-5.3283550">
        <ele>416.6</ele>
        <time>2019-08-28T09:22:45Z</time>
      </trkpt>
      <trkpt lat="36.5049180" lon="-5.3283540">
        <ele>416.7</ele>
        <time>2019-08-28T09:22:46Z</time>
      </trkpt>
      <trkpt lat="36.5049400" lon="-5.3283530">
        <ele>416.9</ele>
        <time>2019-08-28T09:22:47Z</time>
      </trkpt>
      <trkpt lat="36.5049620" lon="-5.3283510">
        <ele>417.1</ele>
        <time>2019-08-28T09:22:48Z</time>
      </trkpt>
      <trkpt lat="36.5049840" lon="-5.3283500">
        <ele>417.3</ele>
        <time>2019-08-28T09:22:49Z</time>
      </trkpt>
      <trkpt lat="36.5050040" lon="-5.3283480">
        <ele>417.4</ele>
        <time>2019-08-28T09:22:50Z</time>
      </trkpt>
      <trkpt lat="36.5050270" lon="-5.3283460">
        <ele>417.6</ele>
        <time>2019-08-28T09:22:51Z</time>
      </trkpt>
      <trkpt lat="36.5050490" lon="-5.3283440">
        <ele>417.8</ele>
        <time>2019-08-28T09:22:52Z</time>
      </trkpt>
      <trkpt lat="36.5050730" lon="-5.3283430">
        <ele>418.0</ele>
        <time>2019-08-28T09:22:53Z</time>
      </trkpt>
      <trkpt lat="36.5050950" lon="-5.3283430">
        <ele>418.2</ele>
        <time>2019-08-28T09:22:54Z</time>
      </trkpt>
      <trkpt lat="36.5051170" lon="-5.3283420">
        <ele>418.4</ele>
        <time>2019-08-28T09:22:55Z</time>
      </trkpt>
      <trkpt lat="36.5051390" lon="-5.3283400">
        <ele>418.5</ele>
        <time>2019-08-28T09:22:56Z</time>
      </trkpt>
      <trkpt lat="36.5051620" lon="-5.3283370">
        <ele>418.7</ele>
        <time>2019-08-28T09:22:57Z</time>
      </trkpt>
      <trkpt lat="36.5051850" lon="-5.3283360">
        <ele>418.9</ele>
        <time>2019-08-28T09:22:58Z</time>
      </trkpt>
      <trkpt lat="36.5052070" lon="-5.3283340">
        <ele>419.1</ele>
        <time>2019-08-28T09:22:59Z</time>
      </trkpt>
      <trkpt lat="36.5052290" lon="-5.3283320">
        <ele>419.3</ele>
        <time>2019-08-28T09:23:00Z</time>
      </trkpt>
      <trkpt lat="36.5052510" lon="-5.3283280">
        <ele>419.5</ele>
        <time>2019-08-28T09:23:01Z</time>
      </trkpt>
      <trkpt lat="36.5052730" lon="-5.3283240">
        <ele>419.7</ele>
        <time>2019-08-28T09:23:02Z</time>
      </trkpt>
      <trkpt lat="36.5052950" lon="-5.3283210">
        <ele>419.9</ele>
        <time>2019-08-28T09:23:03Z</time>
      </trkpt>
      <trkpt lat="36.5053170" lon="-5.3283170">
        <ele>420.1</ele>
        <time>2019-08-28T09:23:04Z</time>
      </trkpt>
      <trkpt lat="36.5053390" lon="-5.3283150">
        <ele>420.3</ele>
        <time>2019-08-28T09:23:05Z</time>
      </trkpt>
      <trkpt lat="36.5053610" lon="-5.3283130">
        <ele>420.5</ele>
        <time>2019-08-28T09:23:06Z</time>
      </trkpt>
      <trkpt lat="36.5053840" lon="-5.3283120">
        <ele>420.7</ele>
        <time>2019-08-28T09:23:07Z</time>
      </trkpt>
      <trkpt lat="36.5054060" lon="-5.3283100">
        <ele>420.9</ele>
        <time>2019-08-28T09:23:08Z</time>
      </trkpt>
      <trkpt lat="36.5054280" lon="-5.3283070">
        <ele>421.2</ele>
        <time>2019-08-28T09:23:09Z</time>
      </trkpt>
      <trkpt lat="36.5054490" lon="-5.3283030">
        <ele>421.4</ele>
        <time>2019-08-28T09:23:10Z</time>
      </trkpt>
      <trkpt lat="36.5054710" lon="-5.3283010">
        <ele>421.6</ele>
        <time>2019-08-28T09:23:11Z</time>
      </trkpt>
      <trkpt lat="36.5054930" lon="-5.3282980">
        <ele>421.8</ele>
        <time>2019-08-28T09:23:12Z</time>
      </trkpt>
      <trkpt lat="36.5055150" lon="-5.3282950">
        <ele>422.0</ele>
        <time>2019-08-28T09:23:13Z</time>
      </trkpt>
      <trkpt lat="36.5055380" lon="-5.3282910">
        <ele>422.3</ele>
        <time>2019-08-28T09:23:14Z</time>
      </trkpt>
      <trkpt lat="36.5055610" lon="-5.3282880">
        <ele>422.6</ele>
        <time>2019-08-28T09:23:15Z</time>
      </trkpt>
      <trkpt lat="36.5055840" lon="-5.3282850">
        <ele>422.9</ele>
        <time>2019-08-28T09:23:16Z</time>
      </trkpt>
      <trkpt lat="36.5056060" lon="-5.3282830">
        <ele>423.1</ele>
        <time>2019-08-28T09:23:17Z</time>
      </trkpt>
      <trkpt lat="36.5056280" lon="-5.3282810">
        <ele>423.4</ele>
        <time>2019-08-28T09:23:18Z</time>
      </trkpt>
      <trkpt lat="36.5056510" lon="-5.3282780">
        <ele>423.6</ele>
        <time>2019-08-28T09:23:19Z</time>
      </trkpt>
      <trkpt lat="36.5056730" lon="-5.3282750">
        <ele>423.9</ele>
        <time>2019-08-28T09:23:20Z</time>
      </trkpt>
      <trkpt lat="36.5056960" lon="-5.3282730">
        <ele>424.2</ele>
        <time>2019-08-28T09:23:21Z</time>
      </trkpt>
      <trkpt lat="36.5057180" lon="-5.3282720">
        <ele>424.5</ele>
        <time>2019-08-28T09:23:22Z</time>
      </trkpt>
      <trkpt lat="36.5057400" lon="-5.3282720">
        <ele>424.7</ele>
        <time>2019-08-28T09:23:23Z</time>
      </trkpt>
      <trkpt lat="36.5057620" lon="-5.3282710">
        <ele>425.0</ele>
        <time>2019-08-28T09:23:24Z</time>
      </trkpt>
      <trkpt lat="36.5057840" lon="-5.3282700">
        <ele>425.3</ele>
        <time>2019-08-28T09:23:25Z</time>
      </trkpt>
      <trkpt lat="36.5058060" lon="-5.3282700">
        <ele>425.5</ele>
        <time>2019-08-28T09:23:26Z</time>
      </trkpt>
      <trkpt lat="36.5058280" lon="-5.3282700">
        <ele>425.8</ele>
        <time>2019-08-28T09:23:27Z</time>
      </trkpt>
      <trkpt lat="36.5058500" lon="-5.3282700">
        <ele>426.1</ele>
        <time>2019-08-28T09:23:28Z</time>
      </trkpt>
      <trkpt lat="36.5058730" lon="-5.3282700">
        <ele>426.4</ele>
        <time>2019-08-28T09:23:29Z</time>
      </trkpt>
      <trkpt lat="36.5058960" lon="-5.3282700">
        <ele>426.7</ele>
        <time>2019-08-28T09:23:30Z</time>
      </trkpt>
      <trkpt lat="36.5059180" lon="-5.3282720">
        <ele>426.9</ele>
        <time>2019-08-28T09:23:31Z</time>
      </trkpt>
      <trkpt lat="36.5059410" lon="-5.3282750">
        <ele>427.2</ele>
        <time>2019-08-28T09:23:32Z</time>
      </trkpt>
      <trkpt lat="36.5059640" lon="-5.3282800">
        <ele>427.5</ele>
        <time>2019-08-28T09:23:33Z</time>
      </trkpt>
      <trkpt lat="36.5059870" lon="-5.3282850">
        <ele>427.8</ele>
        <time>2019-08-28T09:23:34Z</time>
      </trkpt>
      <trkpt lat="36.5060090" lon="-5.3282920">
        <ele>428.1</ele>
        <time>2019-08-28T09:23:35Z</time>
      </trkpt>
      <trkpt lat="36.5060310" lon="-5.3283010">
        <ele>428.3</ele>
        <time>2019-08-28T09:23:36Z</time>
      </trkpt>
      <trkpt lat="36.5060530" lon="-5.3283090">
        <ele>428.6</ele>
        <time>2019-08-28T09:23:37Z</time>
      </trkpt>
      <trkpt lat="36.5060750" lon="-5.3283170">
        <ele>428.9</ele>
        <time>2019-08-28T09:23:38Z</time>
      </trkpt>
      <trkpt lat="36.5060970" lon="-5.3283250">
        <ele>429.1</ele>
        <time>2019-08-28T09:23:39Z</time>
      </trkpt>
      <trkpt lat="36.5061180" lon="-5.3283360">
        <ele>429.4</ele>
        <time>2019-08-28T09:23:40Z</time>
      </trkpt>
      <trkpt lat="36.5061400" lon="-5.3283490">
        <ele>429.7</ele>
        <time>2019-08-28T09:23:41Z</time>
      </trkpt>
      <trkpt lat="36.5061630" lon="-5.3283620">
        <ele>429.9</ele>
        <time>2019-08-28T09:23:42Z</time>
      </trkpt>
      <trkpt lat="36.5061850" lon="-5.3283770">
        <ele>430.2</ele>
        <time>2019-08-28T09:23:43Z</time>
      </trkpt>
      <trkpt lat="36.5062070" lon="-5.3283930">
        <ele>430.5</ele>
        <time>2019-08-28T09:23:44Z</time>
      </trkpt>
      <trkpt lat="36.5062290" lon="-5.3284100">
        <ele>430.7</ele>
        <time>2019-08-28T09:23:45Z</time>
      </trkpt>
      <trkpt lat="36.5062520" lon="-5.3284250">
        <ele>431.0</ele>
        <time>2019-08-28T09:23:46Z</time>
      </trkpt>
      <trkpt lat="36.5062740" lon="-5.3284410">
        <ele>431.3</ele>
        <time>2019-08-28T09:23:47Z</time>
      </trkpt>
      <trkpt lat="36.5062950" lon="-5.3284560">
        <ele>431.5</ele>
        <time>2019-08-28T09:23:48Z</time>
      </trkpt>
      <trkpt lat="36.5063170" lon="-5.3284720">
        <ele>431.8</ele>
        <time>2019-08-28T09:23:49Z</time>
      </trkpt>
      <trkpt lat="36.5063380" lon="-5.3284890">
        <ele>432.0</ele>
        <time>2019-08-28T09:23:50Z</time>
      </trkpt>
      <trkpt lat="36.5063600" lon="-5.3285070">
        <ele>432.3</ele>
        <time>2019-08-28T09:23:51Z</time>
      </trkpt>
      <trkpt lat="36.5063820" lon="-5.3285240">
        <ele>432.6</ele>
        <time>2019-08-28T09:23:52Z</time>
      </trkpt>
      <trkpt lat="36.5064030" lon="-5.3285420">
        <ele>432.8</ele>
        <time>2019-08-28T09:23:53Z</time>
      </trkpt>
      <trkpt lat="36.5064250" lon="-5.3285600">
        <ele>433.1</ele>
        <time>2019-08-28T09:23:54Z</time>
      </trkpt>
      <trkpt lat="36.5064460" lon="-5.3285780">
        <ele>433.4</ele>
        <time>2019-08-28T09:23:55Z</time>
      </trkpt>
      <trkpt lat="36.5064680" lon="-5.3285960">
        <ele>433.6</ele>
        <time>2019-08-28T09:23:56Z</time>
      </trkpt>
      <trkpt lat="36.5064890" lon="-5.3286150">
        <ele>433.9</ele>
        <time>2019-08-28T09:23:57Z</time>
      </trkpt>
      <trkpt lat="36.5065090" lon="-5.3286350">
        <ele>434.2</ele>
        <time>2019-08-28T09:23:58Z</time>
      </trkpt>
      <trkpt lat="36.5065280" lon="-5.3286540">
        <ele>434.5</ele>
        <time>2019-08-28T09:23:59Z</time>
      </trkpt>
      <trkpt lat="36.5065480" lon="-5.3286730">
        <ele>434.7</ele>
        <time>2019-08-28T09:24:00Z</time>
      </trkpt>
      <trkpt lat="36.5065670" lon="-5.3286910">
        <ele>435.0</ele>
        <time>2019-08-28T09:24:01Z</time>
      </trkpt>
      <trkpt lat="36.5065860" lon="-5.3287100">
        <ele>435.2</ele>
        <time>2019-08-28T09:24:02Z</time>
      </trkpt>
      <trkpt lat="36.5066050" lon="-5.3287290">
        <ele>435.5</ele>
        <time>2019-08-28T09:24:03Z</time>
      </trkpt>
      <trkpt lat="36.5066250" lon="-5.3287490">
        <ele>435.8</ele>
        <time>2019-08-28T09:24:04Z</time>
      </trkpt>
      <trkpt lat="36.5066440" lon="-5.3287680">
        <ele>436.1</ele>
        <time>2019-08-28T09:24:05Z</time>
      </trkpt>
      <trkpt lat="36.5066640" lon="-5.3287870">
        <ele>436.3</ele>
        <time>2019-08-28T09:24:06Z</time>
      </trkpt>
      <trkpt lat="36.5066830" lon="-5.3288060">
        <ele>436.6</ele>
        <time>2019-08-28T09:24:07Z</time>
      </trkpt>
      <trkpt lat="36.5067010" lon="-5.3288260">
        <ele>436.9</ele>
        <time>2019-08-28T09:24:08Z</time>
      </trkpt>
      <trkpt lat="36.5067200" lon="-5.3288450">
        <ele>437.2</ele>
        <time>2019-08-28T09:24:09Z</time>
      </trkpt>
      <trkpt lat="36.5067380" lon="-5.3288640">
        <ele>437.4</ele>
        <time>2019-08-28T09:24:10Z</time>
      </trkpt>
      <trkpt lat="36.5067560" lon="-5.3288840">
        <ele>437.7</ele>
        <time>2019-08-28T09:24:11Z</time>
      </trkpt>
      <trkpt lat="36.5067740" lon="-5.3289030">
        <ele>438.0</ele>
        <time>2019-08-28T09:24:12Z</time>
      </trkpt>
      <trkpt lat="36.5067920" lon="-5.3289220">
        <ele>438.3</ele>
        <time>2019-08-28T09:24:13Z</time>
      </trkpt>
      <trkpt lat="36.5068100" lon="-5.3289410">
        <ele>438.5</ele>
        <time>2019-08-28T09:24:14Z</time>
      </trkpt>
      <trkpt lat="36.5068270" lon="-5.3289610">
        <ele>438.8</ele>
        <time>2019-08-28T09:24:15Z</time>
      </trkpt>
      <trkpt lat="36.5068440" lon="-5.3289820">
        <ele>439.0</ele>
        <time>2019-08-28T09:24:16Z</time>
      </trkpt>
      <trkpt lat="36.5068610" lon="-5.3290040">
        <ele>439.3</ele>
        <time>2019-08-28T09:24:17Z</time>
      </trkpt>
      <trkpt lat="36.5068780" lon="-5.3290260">
        <ele>439.6</ele>
        <time>2019-08-28T09:24:18Z</time>
      </trkpt>
      <trkpt lat="36.5068950" lon="-5.3290450">
        <ele>439.8</ele>
        <time>2019-08-28T09:24:19Z</time>
      </trkpt>
      <trkpt lat="36.5069120" lon="-5.3290630">
        <ele>440.1</ele>
        <time>2019-08-28T09:24:20Z</time>
      </trkpt>
      <trkpt lat="36.5069290" lon="-5.3290820">
        <ele>440.3</ele>
        <time>2019-08-28T09:24:21Z</time>
      </trkpt>
      <trkpt lat="36.5069460" lon="-5.3291010">
        <ele>440.6</ele>
        <time>2019-08-28T09:24:22Z</time>
      </trkpt>
      <trkpt lat="36.5069630" lon="-5.3291210">
        <ele>440.8</ele>
        <time>2019-08-28T09:24:23Z</time>
      </trkpt>
      <trkpt lat="36.5069790" lon="-5.3291400">
        <ele>441.0</ele>
        <time>2019-08-28T09:24:24Z</time>
      </trkpt>
      <trkpt lat="36.5069950" lon="-5.3291600">
        <ele>441.3</ele>
        <time>2019-08-28T09:24:25Z</time>
      </trkpt>
      <trkpt lat="36.5070110" lon="-5.3291800">
        <ele>441.5</ele>
        <time>2019-08-28T09:24:26Z</time>
      </trkpt>
      <trkpt lat="36.5070260" lon="-5.3292000">
        <ele>441.7</ele>
        <time>2019-08-28T09:24:27Z</time>
      </trkpt>
      <trkpt lat="36.5070410" lon="-5.3292210">
        <ele>441.9</ele>
        <time>2019-08-28T09:24:28Z</time>
      </trkpt>
      <trkpt lat="36.5070550" lon="-5.3292430">
        <ele>442.1</ele>
        <time>2019-08-28T09:24:29Z</time>
      </trkpt>
      <trkpt lat="36.5070690" lon="-5.3292670">
        <ele>442.4</ele>
        <time>2019-08-28T09:24:30Z</time>
      </trkpt>
      <trkpt lat="36.5070840" lon="-5.3292910">
        <ele>442.6</ele>
        <time>2019-08-28T09:24:31Z</time>
      </trkpt>
      <trkpt lat="36.5070970" lon="-5.3293160">
        <ele>442.8</ele>
        <time>2019-08-28T09:24:32Z</time>
      </trkpt>
      <trkpt lat="36.5071080" lon="-5.3293430">
        <ele>443.0</ele>
        <time>2019-08-28T09:24:33Z</time>
      </trkpt>
      <trkpt lat="36.5071190" lon="-5.3293700">
        <ele>443.3</ele>
        <time>2019-08-28T09:24:34Z</time>
      </trkpt>
      <trkpt lat="36.5071290" lon="-5.3293990">
        <ele>443.5</ele>
        <time>2019-08-28T09:24:35Z</time>
      </trkpt>
      <trkpt lat="36.5071380" lon="-5.3294280">
        <ele>443.8</ele>
        <time>2019-08-28T09:24:36Z</time>
      </trkpt>
      <trkpt lat="36.5071460" lon="-5.3294580">
        <ele>444.1</ele>
        <time>2019-08-28T09:24:37Z</time>
      </trkpt>
      <trkpt lat="36.5071540" lon="-5.3294880">
        <ele>444.4</ele>
        <time>2019-08-28T09:24:38Z</time>
      </trkpt>
      <trkpt lat="36.5071610" lon="-5.3295190">
        <ele>444.7</ele>
        <time>2019-08-28T09:24:39Z</time>
      </trkpt>
      <trkpt lat="36.5071670" lon="-5.3295490">
        <ele>444.9</ele>
        <time>2019-08-28T09:24:40Z</time>
      </trkpt>
      <trkpt lat="36.5071730" lon="-5.3295800">
        <ele>445.2</ele>
        <time>2019-08-28T09:24:41Z</time>
      </trkpt>
      <trkpt lat="36.5071780" lon="-5.3296110">
        <ele>445.6</ele>
        <time>2019-08-28T09:24:42Z</time>
      </trkpt>
      <trkpt lat="36.5071820" lon="-5.3296420">
        <ele>445.9</ele>
        <time>2019-08-28T09:24:43Z</time>
      </trkpt>
      <trkpt lat="36.5071860" lon="-5.3296730">
        <ele>446.2</ele>
        <time>2019-08-28T09:24:44Z</time>
      </trkpt>
      <trkpt lat="36.5071900" lon="-5.3297040">
        <ele>446.5</ele>
        <time>2019-08-28T09:24:45Z</time>
      </trkpt>
      <trkpt lat="36.5071950" lon="-5.3297340">
        <ele>446.8</ele>
        <time>2019-08-28T09:24:46Z</time>
      </trkpt>
      <trkpt lat="36.5072000" lon="-5.3297640">
        <ele>447.1</ele>
        <time>2019-08-28T09:24:47Z</time>
      </trkpt>
      <trkpt lat="36.5072050" lon="-5.3297930">
        <ele>447.4</ele>
        <time>2019-08-28T09:24:48Z</time>
      </trkpt>
      <trkpt lat="36.5072110" lon="-5.3298230">
        <ele>447.7</ele>
        <time>2019-08-28T09:24:49Z</time>
      </trkpt>
      <trkpt lat="36.5072160" lon="-5.3298520">
        <ele>448.1</ele>
        <time>2019-08-28T09:24:50Z</time>
      </trkpt>
      <trkpt lat="36.5072220" lon="-5.3298810">
        <ele>448.4</ele>
        <time>2019-08-28T09:24:51Z</time>
      </trkpt>
      <trkpt lat="36.5072290" lon="-5.3299100">
        <ele>448.7</ele>
        <time>2019-08-28T09:24:52Z</time>
      </trkpt>
      <trkpt lat="36.5072360" lon="-5.3299370">
        <ele>449.0</ele>
        <time>2019-08-28T09:24:53Z</time>
      </trkpt>
      <trkpt lat="36.5072440" lon="-5.3299650">
        <ele>449.3</ele>
        <time>2019-08-28T09:24:54Z</time>
      </trkpt>
      <trkpt lat="36.5072540" lon="-5.3299910">
        <ele>449.6</ele>
        <time>2019-08-28T09:24:55Z</time>
      </trkpt>
      <trkpt lat="36.5072640" lon="-5.3300160">
        <ele>449.8</ele>
        <time>2019-08-28T09:24:56Z</time>
      </trkpt>
      <trkpt lat="36.5072750" lon="-5.3300400">
        <ele>450.1</ele>
        <time>2019-08-28T09:24:57Z</time>
      </trkpt>
      <trkpt lat="36.5072870" lon="-5.3300640">
        <ele>450.4</ele>
        <time>2019-08-28T09:24:58Z</time>
      </trkpt>
      <trkpt lat="36.5073010" lon="-5.3300870">
        <ele>450.7</ele>
        <time>2019-08-28T09:24:59Z</time>
      </trkpt>
      <trkpt lat="36.5073160" lon="-5.3301100">
        <ele>451.0</ele>
        <time>2019-08-28T09:25:00Z</time>
      </trkpt>
      <trkpt lat="36.5073310" lon="-5.3301310">
        <ele>451.2</ele>
        <time>2019-08-28T09:25:01Z</time>
      </trkpt>
      <trkpt lat="36.5073480" lon="-5.3301520">
        <ele>451.5</ele>
        <time>2019-08-28T09:25:02Z</time>
      </trkpt>
      <trkpt lat="36.5073670" lon="-5.3301710">
        <ele>451.8</ele>
        <time>2019-08-28T09:25:03Z</time>
      </trkpt>
      <trkpt lat="36.5073870" lon="-5.3301890">
        <ele>452.1</ele>
        <time>2019-08-28T09:25:04Z</time>
      </trkpt>
      <trkpt lat="36.5074080" lon="-5.3302040">
        <ele>452.4</ele>
        <time>2019-08-28T09:25:05Z</time>
      </trkpt>
      <trkpt lat="36.5074290" lon="-5.3302190">
        <ele>452.6</ele>
        <time>2019-08-28T09:25:06Z</time>
      </trkpt>
      <trkpt lat="36.5074510" lon="-5.3302320">
        <ele>452.9</ele>
        <time>2019-08-28T09:25:07Z</time>
      </trkpt>
      <trkpt lat="36.5074720" lon="-5.3302450">
        <ele>453.2</ele>
        <time>2019-08-28T09:25:08Z</time>
      </trkpt>
      <trkpt lat="36.5074940" lon="-5.3302570">
        <ele>453.4</ele>
        <time>2019-08-28T09:25:09Z</time>
      </trkpt>
      <trkpt lat="36.5075160" lon="-5.3302680">
        <ele>453.7</ele>
        <time>2019-08-28T09:25:10Z</time>
      </trkpt>
      <trkpt lat="36.5075370" lon="-5.3302770">
        <ele>453.9</ele>
        <time>2019-08-28T09:25:11Z</time>
      </trkpt>
      <trkpt lat="36.5075580" lon="-5.3302860">
        <ele>454.1</ele>
        <time>2019-08-28T09:25:12Z</time>
      </trkpt>
      <trkpt lat="36.5075780" lon="-5.3302930">
        <ele>454.3</ele>
        <time>2019-08-28T09:25:13Z</time>
      </trkpt>
      <trkpt lat="36.5075990" lon="-5.3302990">
        <ele>454.4</ele>
        <time>2019-08-28T09:25:14Z</time>
      </trkpt>
      <trkpt lat="36.5076210" lon="-5.3303020">
        <ele>454.6</ele>
        <time>2019-08-28T09:25:15Z</time>
      </trkpt>
      <trkpt lat="36.5076430" lon="-5.3303020">
        <ele>454.7</ele>
        <time>2019-08-28T09:25:16Z</time>
      </trkpt>
      <trkpt lat="36.5076640" lon="-5.3303010">
        <ele>454.9</ele>
        <time>2019-08-28T09:25:17Z</time>
      </trkpt>
      <trkpt lat="36.5076860" lon="-5.3302980">
        <ele>455.0</ele>
        <time>2019-08-28T09:25:18Z</time>
      </trkpt>
      <trkpt lat="36.5077070" lon="-5.3302940">
        <ele>455.2</ele>
        <time>2019-08-28T09:25:19Z</time>
      </trkpt>
      <trkpt lat="36.5077270" lon="-5.3302880">
        <ele>455.3</ele>
        <time>2019-08-28T09:25:20Z</time>
      </trkpt>
      <trkpt lat="36.5077470" lon="-5.3302780">
        <ele>455.4</ele>
        <time>2019-08-28T09:25:21Z</time>
      </trkpt>
      <trkpt lat="36.5077660" lon="-5.3302660">
        <ele>455.6</ele>
        <time>2019-08-28T09:25:22Z</time>
      </trkpt>
      <trkpt lat="36.5077840" lon="-5.3302520">
        <ele>455.7</ele>
        <time>2019-08-28T09:25:23Z</time>
      </trkpt>
      <trkpt lat="36.5078010" lon="-5.3302360">
        <ele>455.9</ele>
        <time>2019-08-28T09:25:24Z</time>
      </trkpt>
      <trkpt lat="36.5078180" lon="-5.3302180">
        <ele>456.1</ele>
        <time>2019-08-28T09:25:25Z</time>
      </trkpt>
      <trkpt lat="36.5078330" lon="-5.3302000">
        <ele>456.2</ele>
        <time>2019-08-28T09:25:26Z</time>
      </trkpt>
      <trkpt lat="36.5078490" lon="-5.3301810">
        <ele>456.4</ele>
        <time>2019-08-28T09:25:27Z</time>
      </trkpt>
      <trkpt lat="36.5078630" lon="-5.3301610">
        <ele>456.6</ele>
        <time>2019-08-28T09:25:28Z</time>
      </trkpt>
      <trkpt lat="36.5078770" lon="-5.3301400">
        <ele>456.7</ele>
        <time>2019-08-28T09:25:29Z</time>
      </trkpt>
      <trkpt lat="36.5078910" lon="-5.3301200">
        <ele>456.9</ele>
        <time>2019-08-28T09:25:30Z</time>
      </trkpt>
      <trkpt lat="36.5079050" lon="-5.3301000">
        <ele>457.0</ele>
        <time>2019-08-28T09:25:31Z</time>
      </trkpt>
      <trkpt lat="36.5079200" lon="-5.3300800">
        <ele>457.2</ele>
        <time>2019-08-28T09:25:32Z</time>
      </trkpt>
      <trkpt lat="36.5079340" lon="-5.3300600">
        <ele>457.3</ele>
        <time>2019-08-28T09:25:33Z</time>
      </trkpt>
      <trkpt lat="36.5079480" lon="-5.3300410">
        <ele>457.4</ele>
        <time>2019-08-28T09:25:34Z</time>
      </trkpt>
      <trkpt lat="36.5079620" lon="-5.3300220">
        <ele>457.6</ele>
        <time>2019-08-28T09:25:35Z</time>
      </trkpt>
      <trkpt lat="36.5079770" lon="-5.3300030">
        <ele>457.7</ele>
        <time>2019-08-28T09:25:36Z</time>
      </trkpt>
      <trkpt lat="36.5079910" lon="-5.3299840">
        <ele>457.8</ele>
        <time>2019-08-28T09:25:37Z</time>
      </trkpt>
      <trkpt lat="36.5080060" lon="-5.3299650">
        <ele>458.0</ele>
        <time>2019-08-28T09:25:38Z</time>
      </trkpt>
      <trkpt lat="36.5080200" lon="-5.3299460">
        <ele>458.1</ele>
        <time>2019-08-28T09:25:39Z</time>
      </trkpt>
      <trkpt lat="36.5080350" lon="-5.3299280">
        <ele>458.2</ele>
        <time>2019-08-28T09:25:40Z</time>
      </trkpt>
      <trkpt lat="36.5080480" lon="-5.3299090">
        <ele>458.3</ele>
        <time>2019-08-28T09:25:41Z</time>
      </trkpt>
      <trkpt lat="36.5080610" lon="-5.3298900">
        <ele>458.5</ele>
        <time>2019-08-28T09:25:42Z</time>
      </trkpt>
      <trkpt lat="36.5080740" lon="-5.3298700">
        <ele>458.6</ele>
        <time>2019-08-28T09:25:43Z</time>
      </trkpt>
      <trkpt lat="36.5080880" lon="-5.3298520">
        <ele>458.7</ele>
        <time>2019-08-28T09:25:44Z</time>
      </trkpt>
      <trkpt lat="36.5081020" lon="-5.3298340">
        <ele>458.9</ele>
        <time>2019-08-28T09:25:45Z</time>
      </trkpt>
      <trkpt lat="36.5081170" lon="-5.3298160">
        <ele>459.0</ele>
        <time>2019-08-28T09:25:46Z</time>
      </trkpt>
      <trkpt lat="36.5081310" lon="-5.3297980">
        <ele>459.1</ele>
        <time>2019-08-28T09:25:47Z</time>
      </trkpt>
      <trkpt lat="36.5081460" lon="-5.3297820">
        <ele>459.1</ele>
        <time>2019-08-28T09:25:48Z</time>
      </trkpt>
      <trkpt lat="36.5081620" lon="-5.3297680">
        <ele>459.2</ele>
        <time>2019-08-28T09:25:49Z</time>
      </trkpt>
      <trkpt lat="36.5081780" lon="-5.3297530">
        <ele>459.2</ele>
        <time>2019-08-28T09:25:50Z</time>
      </trkpt>
      <trkpt lat="36.5081940" lon="-5.3297380">
        <ele>459.3</ele>
        <time>2019-08-28T09:25:51Z</time>
      </trkpt>
      <trkpt lat="36.5082100" lon="-5.3297230">
        <ele>459.3</ele>
        <time>2019-08-28T09:25:52Z</time>
      </trkpt>
      <trkpt lat="36.5082270" lon="-5.3297100">
        <ele>459.4</ele>
        <time>2019-08-28T09:25:53Z</time>
      </trkpt>
      <trkpt lat="36.5082460" lon="-5.3296990">
        <ele>459.5</ele>
        <time>2019-08-28T09:25:54Z</time>
      </trkpt>
      <trkpt lat="36.5082660" lon="-5.3296890">
        <ele>459.6</ele>
        <time>2019-08-28T09:25:55Z</time>
      </trkpt>
      <trkpt lat="36.5082880" lon="-5.3296820">
        <ele>459.8</ele>
        <time>2019-08-28T09:25:56Z</time>
      </trkpt>
      <trkpt lat="36.5083090" lon="-5.3296760">
        <ele>459.9</ele>
        <time>2019-08-28T09:25:57Z</time>
      </trkpt>
      <trkpt lat="36.5083310" lon="-5.3296700">
        <ele>460.0</ele>
        <time>2019-08-28T09:25:58Z</time>
      </trkpt>
      <trkpt lat="36.5083520" lon="-5.3296650">
        <ele>460.2</ele>
        <time>2019-08-28T09:25:59Z</time>
      </trkpt>
      <trkpt lat="36.5083730" lon="-5.3296620">
        <ele>460.4</ele>
        <time>2019-08-28T09:26:00Z</time>
      </trkpt>
      <trkpt lat="36.5083950" lon="-5.3296600">
        <ele>460.6</ele>
        <time>2019-08-28T09:26:01Z</time>
      </trkpt>
      <trkpt lat="36.5084160" lon="-5.3296590">
        <ele>460.8</ele>
        <time>2019-08-28T09:26:02Z</time>
      </trkpt>
      <trkpt lat="36.5084380" lon="-5.3296600">
        <ele>461.0</ele>
        <time>2019-08-28T09:26:03Z</time>
      </trkpt>
      <trkpt lat="36.5084600" lon="-5.3296620">
        <ele>461.2</ele>
        <time>2019-08-28T09:26:04Z</time>
      </trkpt>
      <trkpt lat="36.5084810" lon="-5.3296650">
        <ele>461.4</ele>
        <time>2019-08-28T09:26:05Z</time>
      </trkpt>
      <trkpt lat="36.5085030" lon="-5.3296680">
        <ele>461.6</ele>
        <time>2019-08-28T09:26:06Z</time>
      </trkpt>
      <trkpt lat="36.5085240" lon="-5.3296730">
        <ele>461.8</ele>
        <time>2019-08-28T09:26:07Z</time>
      </trkpt>
      <trkpt lat="36.5085450" lon="-5.3296780">
        <ele>462.0</ele>
        <time>2019-08-28T09:26:08Z</time>
      </trkpt>
      <trkpt lat="36.5085660" lon="-5.3296840">
        <ele>462.2</ele>
        <time>2019-08-28T09:26:09Z</time>
      </trkpt>
      <trkpt lat="36.5085870" lon="-5.3296900">
        <ele>462.4</ele>
        <time>2019-08-28T09:26:10Z</time>
      </trkpt>
      <trkpt lat="36.5086070" lon="-5.3296960">
        <ele>462.6</ele>
        <time>2019-08-28T09:26:11Z</time>
      </trkpt>
      <trkpt lat="36.5086280" lon="-5.3297020">
        <ele>462.8</ele>
        <time>2019-08-28T09:26:12Z</time>
      </trkpt>
      <trkpt lat="36.5086490" lon="-5.3297080">
        <ele>463.1</ele>
        <time>2019-08-28T09:26:13Z</time>
      </trkpt>
      <trkpt lat="36.5086700" lon="-5.3297140">
        <ele>463.3</ele>
        <time>2019-08-28T09:26:14Z</time>
      </trkpt>
      <trkpt lat="36.5086910" lon="-5.3297200">
        <ele>463.6</ele>
        <time>2019-08-28T09:26:15Z</time>
      </trkpt>
      <trkpt lat="36.5087130" lon="-5.3297270">
        <ele>463.9</ele>
        <time>2019-08-28T09:26:16Z</time>
      </trkpt>
      <trkpt lat="36.5087340" lon="-5.3297330">
        <ele>464.2</ele>
        <time>2019-08-28T09:26:17Z</time>
      </trkpt>
      <trkpt lat="36.5087550" lon="-5.3297410">
        <ele>464.4</ele>
        <time>2019-08-28T09:26:18Z</time>
      </trkpt>
      <trkpt lat="36.5087760" lon="-5.3297500">
        <ele>464.7</ele>
        <time>2019-08-28T09:26:19Z</time>
      </trkpt>
      <trkpt lat="36.5087980" lon="-5.3297590">
        <ele>465.0</ele>
        <time>2019-08-28T09:26:20Z</time>
      </trkpt>
      <trkpt lat="36.5088180" lon="-5.3297690">
        <ele>465.2</ele>
        <time>2019-08-28T09:26:21Z</time>
      </trkpt>
      <trkpt lat="36.5088400" lon="-5.3297800">
        <ele>465.5</ele>
        <time>2019-08-28T09:26:22Z</time>
      </trkpt>
      <trkpt lat="36.5088610" lon="-5.3297910">
        <ele>465.7</ele>
        <time>2019-08-28T09:26:23Z</time>
      </trkpt>
      <trkpt lat="36.5088810" lon="-5.3298010">
        <ele>466.0</ele>
        <time>2019-08-28T09:26:24Z</time>
      </trkpt>
      <trkpt lat="36.5089010" lon="-5.3298120">
        <ele>466.2</ele>
        <time>2019-08-28T09:26:25Z</time>
      </trkpt>
      <trkpt lat="36.5089210" lon="-5.3298240">
        <ele>466.5</ele>
        <time>2019-08-28T09:26:26Z</time>
      </trkpt>
      <trkpt lat="36.5089410" lon="-5.3298350">
        <ele>466.8</ele>
        <time>2019-08-28T09:26:27Z</time>
      </trkpt>
      <trkpt lat="36.5089610" lon="-5.3298460">
        <ele>467.1</ele>
        <time>2019-08-28T09:26:28Z</time>
      </trkpt>
      <trkpt lat="36.5089820" lon="-5.3298560">
        <ele>467.3</ele>
        <time>2019-08-28T09:26:29Z</time>
      </trkpt>
      <trkpt lat="36.5090020" lon="-5.3298660">
        <ele>467.6</ele>
        <time>2019-08-28T09:26:30Z</time>
      </trkpt>
      <trkpt lat="36.5090220" lon="-5.3298770">
        <ele>467.9</ele>
        <time>2019-08-28T09:26:31Z</time>
      </trkpt>
      <trkpt lat="36.5090430" lon="-5.3298890">
        <ele>468.2</ele>
        <time>2019-08-28T09:26:32Z</time>
      </trkpt>
      <trkpt lat="36.5090630" lon="-5.3299010">
        <ele>468.5</ele>
        <time>2019-08-28T09:26:33Z</time>
      </trkpt>
      <trkpt lat="36.5090840" lon="-5.3299140">
        <ele>468.8</ele>
        <time>2019-08-28T09:26:34Z</time>
      </trkpt>
      <trkpt lat="36.5091030" lon="-5.3299280">
        <ele>469.1</ele>
        <time>2019-08-28T09:26:35Z</time>
      </trkpt>
      <trkpt lat="36.5091220" lon="-5.3299420">
        <ele>469.3</ele>
        <time>2019-08-28T09:26:36Z</time>
      </trkpt>
      <trkpt lat="36.5091410" lon="-5.3299570">
        <ele>469.5</ele>
        <time>2019-08-28T09:26:37Z</time>
      </trkpt>
      <trkpt lat="36.5091600" lon="-5.3299720">
        <ele>469.7</ele>
        <time>2019-08-28T09:26:38Z</time>
      </trkpt>
      <trkpt lat="36.5091790" lon="-5.3299870">
        <ele>469.9</ele>
        <time>2019-08-28T09:26:39Z</time>
      </trkpt>
      <trkpt lat="36.5091980" lon="-5.3300020">
        <ele>470.1</ele>
        <time>2019-08-28T09:26:40Z</time>
      </trkpt>
      <trkpt lat="36.5092170" lon="-5.3300180">
        <ele>470.2</ele>
        <time>2019-08-28T09:26:41Z</time>
      </trkpt>
      <trkpt lat="36.5092360" lon="-5.3300340">
        <ele>470.4</ele>
        <time>2019-08-28T09:26:42Z</time>
      </trkpt>
      <trkpt lat="36.5092540" lon="-5.3300510">
        <ele>470.5</ele>
        <time>2019-08-28T09:26:43Z</time>
      </trkpt>
      <trkpt lat="36.5092720" lon="-5.3300680">
        <ele>470.7</ele>
        <time>2019-08-28T09:26:44Z</time>
      </trkpt>
      <trkpt lat="36.5092890" lon="-5.3300870">
        <ele>470.8</ele>
        <time>2019-08-28T09:26:45Z</time>
      </trkpt>
      <trkpt lat="36.5093060" lon="-5.3301050">
        <ele>471.0</ele>
        <time>2019-08-28T09:26:46Z</time>
      </trkpt>
      <trkpt lat="36.5093220" lon="-5.3301250">
        <ele>471.1</ele>
        <time>2019-08-28T09:26:47Z</time>
      </trkpt>
      <trkpt lat="36.5093370" lon="-5.3301470">
        <ele>471.2</ele>
        <time>2019-08-28T09:26:48Z</time>
      </trkpt>
      <trkpt lat="36.5093520" lon="-5.3301700">
        <ele>471.4</ele>
        <time>2019-08-28T09:26:49Z</time>
      </trkpt>
      <trkpt lat="36.5093670" lon="-5.3301920">
        <ele>471.5</ele>
        <time>2019-08-28T09:26:50Z</time>
      </trkpt>
      <trkpt lat="36.5093820" lon="-5.3302150">
        <ele>471.7</ele>
        <time>2019-08-28T09:26:51Z</time>
      </trkpt>
      <trkpt lat="36.5093950" lon="-5.3302410">
        <ele>471.8</ele>
        <time>2019-08-28T09:26:52Z</time>
      </trkpt>
      <trkpt lat="36.5094080" lon="-5.3302680">
        <ele>472.0</ele>
        <time>2019-08-28T09:26:53Z</time>
      </trkpt>
      <trkpt lat="36.5094210" lon="-5.3302950">
        <ele>472.1</ele>
        <time>2019-08-28T09:26:54Z</time>
      </trkpt>
      <trkpt lat="36.5094330" lon="-5.3303230">
        <ele>472.2</ele>
        <time>2019-08-28T09:26:55Z</time>
      </trkpt>
      <trkpt lat="36.5094430" lon="-5.3303530">
        <ele>472.4</ele>
        <time>2019-08-28T09:26:56Z</time>
      </trkpt>
      <trkpt lat="36.5094510" lon="-5.3303850">
        <ele>472.6</ele>
        <time>2019-08-28T09:26:57Z</time>
      </trkpt>
      <trkpt lat="36.5094570" lon="-5.3304180">
        <ele>472.8</ele>
        <time>2019-08-28T09:26:58Z</time>
      </trkpt>
      <trkpt lat="36.5094620" lon="-5.3304530">
        <ele>473.0</ele>
        <time>2019-08-28T09:26:59Z</time>
      </trkpt>
      <trkpt lat="36.5094680" lon="-5.3304870">
        <ele>473.2</ele>
        <time>2019-08-28T09:27:00Z</time>
      </trkpt>
      <trkpt lat="36.5094730" lon="-5.3305220">
        <ele>473.5</ele>
        <time>2019-08-28T09:27:01Z</time>
      </trkpt>
      <trkpt lat="36.5094790" lon="-5.3305570">
        <ele>473.8</ele>
        <time>2019-08-28T09:27:02Z</time>
      </trkpt>
      <trkpt lat="36.5094830" lon="-5.3305930">
        <ele>474.1</ele>
        <time>2019-08-28T09:27:03Z</time>
      </trkpt>
      <trkpt lat="36.5094890" lon="-5.3306300">
        <ele>474.4</ele>
        <time>2019-08-28T09:27:04Z</time>
      </trkpt>
      <trkpt lat="36.5094950" lon="-5.3306670">
        <ele>474.7</ele>
        <time>2019-08-28T09:27:05Z</time>
      </trkpt>
      <trkpt lat="36.5095010" lon="-5.3307030">
        <ele>475.0</ele>
        <time>2019-08-28T09:27:06Z</time>
      </trkpt>
      <trkpt lat="36.5095080" lon="-5.3307400">
        <ele>475.3</ele>
        <time>2019-08-28T09:27:07Z</time>
      </trkpt>
      <trkpt lat="36.5095130" lon="-5.3307770">
        <ele>475.5</ele>
        <time>2019-08-28T09:27:08Z</time>
      </trkpt>
      <trkpt lat="36.5095180" lon="-5.3308130">
        <ele>475.7</ele>
        <time>2019-08-28T09:27:09Z</time>
      </trkpt>
      <trkpt lat="36.5095240" lon="-5.3308500">
        <ele>476.0</ele>
        <time>2019-08-28T09:27:10Z</time>
      </trkpt>
      <trkpt lat="36.5095280" lon="-5.3308870">
        <ele>476.1</ele>
        <time>2019-08-28T09:27:11Z</time>
      </trkpt>
      <trkpt lat="36.5095320" lon="-5.3309240">
        <ele>476.3</ele>
        <time>2019-08-28T09:27:12Z</time>
      </trkpt>
      <trkpt lat="36.5095370" lon="-5.3309610">
        <ele>476.4</ele>
        <time>2019-08-28T09:27:13Z</time>
      </trkpt>
      <trkpt lat="36.5095410" lon="-5.3309990">
        <ele>476.5</ele>
        <time>2019-08-28T09:27:14Z</time>
      </trkpt>
      <trkpt lat="36.5095450" lon="-5.3310360">
        <ele>476.6</ele>
        <time>2019-08-28T09:27:15Z</time>
      </trkpt>
      <trkpt lat="36.5095500" lon="-5.3310720">
        <ele>476.8</ele>
        <time>2019-08-28T09:27:16Z</time>
      </trkpt>
      <trkpt lat="36.5095540" lon="-5.3311090">
        <ele>476.9</ele>
        <time>2019-08-28T09:27:17Z</time>
      </trkpt>
      <trkpt lat="36.5095590" lon="-5.3311440">
        <ele>477.0</ele>
        <time>2019-08-28T09:27:18Z</time>
      </trkpt>
      <trkpt lat="36.5095630" lon="-5.3311800">
        <ele>477.1</ele>
        <time>2019-08-28T09:27:19Z</time>
      </trkpt>
      <trkpt lat="36.5095660" lon="-5.3312160">
        <ele>477.3</ele>
        <time>2019-08-28T09:27:20Z</time>
      </trkpt>
      <trkpt lat="36.5095700" lon="-5.3312520">
        <ele>477.4</ele>
        <time>2019-08-28T09:27:21Z</time>
      </trkpt>
      <trkpt lat="36.5095730" lon="-5.3312870">
        <ele>477.5</ele>
        <time>2019-08-28T09:27:22Z</time>
      </trkpt>
      <trkpt lat="36.5095760" lon="-5.3313220">
        <ele>477.7</ele>
        <time>2019-08-28T09:27:23Z</time>
      </trkpt>
      <trkpt lat="36.5095790" lon="-5.3313560">
        <ele>477.8</ele>
        <time>2019-08-28T09:27:24Z</time>
      </trkpt>
      <trkpt lat="36.5095820" lon="-5.3313910">
        <ele>477.9</ele>
        <time>2019-08-28T09:27:25Z</time>
      </trkpt>
      <trkpt lat="36.5095850" lon="-5.3314260">
        <ele>478.1</ele>
        <time>2019-08-28T09:27:26Z</time>
      </trkpt>
      <trkpt lat="36.5095870" lon="-5.3314600">
        <ele>478.2</ele>
        <time>2019-08-28T09:27:27Z</time>
      </trkpt>
      <trkpt lat="36.5095900" lon="-5.3314940">
        <ele>478.4</ele>
        <time>2019-08-28T09:27:28Z</time>
      </trkpt>
      <trkpt lat="36.5095940" lon="-5.3315280">
        <ele>478.6</ele>
        <time>2019-08-28T09:27:29Z</time>
      </trkpt>
      <trkpt lat="36.5095980" lon="-5.3315610">
        <ele>478.7</ele>
        <time>2019-08-28T09:27:30Z</time>
      </trkpt>
      <trkpt lat="36.5096010" lon="-5.3315940">
        <ele>479.0</ele>
        <time>2019-08-28T09:27:31Z</time>
      </trkpt>
      <trkpt lat="36.5096050" lon="-5.3316270">
        <ele>479.2</ele>
        <time>2019-08-28T09:27:32Z</time>
      </trkpt>
      <trkpt lat="36.5096090" lon="-5.3316610">
        <ele>479.4</ele>
        <time>2019-08-28T09:27:33Z</time>
      </trkpt>
      <trkpt lat="36.5096120" lon="-5.3316930">
        <ele>479.7</ele>
        <time>2019-08-28T09:27:34Z</time>
      </trkpt>
      <trkpt lat="36.5096150" lon="-5.3317260">
        <ele>480.0</ele>
        <time>2019-08-28T09:27:35Z</time>
      </trkpt>
      <trkpt lat="36.5096180" lon="-5.3317590">
        <ele>480.2</ele>
        <time>2019-08-28T09:27:36Z</time>
      </trkpt>
      <trkpt lat="36.5096200" lon="-5.3317930">
        <ele>480.5</ele>
        <time>2019-08-28T09:27:37Z</time>
      </trkpt>
      <trkpt lat="36.5096240" lon="-5.3318270">
        <ele>480.7</ele>
        <time>2019-08-28T09:27:38Z</time>
      </trkpt>
      <trkpt lat="36.5096280" lon="-5.3318610">
        <ele>481.0</ele>
        <time>2019-08-28T09:27:39Z</time>
      </trkpt>
      <trkpt lat="36.5096310" lon="-5.3318950">
        <ele>481.2</ele>
        <time>2019-08-28T09:27:40Z</time>
      </trkpt>
      <trkpt lat="36.5096350" lon="-5.3319300">
        <ele>481.3</ele>
        <time>2019-08-28T09:27:41Z</time>
      </trkpt>
      <trkpt lat="36.5096390" lon="-5.3319640">
        <ele>481.5</ele>
        <time>2019-08-28T09:27:42Z</time>
      </trkpt>
      <trkpt lat="36.5096420" lon="-5.3319990">
        <ele>481.7</ele>
        <time>2019-08-28T09:27:43Z</time>
      </trkpt>
      <trkpt lat="36.5096460" lon="-5.3320320">
        <ele>481.8</ele>
        <time>2019-08-28T09:27:44Z</time>
      </trkpt>
      <trkpt lat="36.5096490" lon="-5.3320660">
        <ele>481.9</ele>
        <time>2019-08-28T09:27:45Z</time>
      </trkpt>
      <trkpt lat="36.5096520" lon="-5.3320990">
        <ele>482.0</ele>
        <time>2019-08-28T09:27:46Z</time>
      </trkpt>
      <trkpt lat="36.5096550" lon="-5.3321330">
        <ele>482.2</ele>
        <time>2019-08-28T09:27:47Z</time>
      </trkpt>
      <trkpt lat="36.5096570" lon="-5.3321670">
        <ele>482.3</ele>
        <time>2019-08-28T09:27:48Z</time>
      </trkpt>
      <trkpt lat="36.5096600" lon="-5.3322000">
        <ele>482.5</ele>
        <time>2019-08-28T09:27:49Z</time>
      </trkpt>
      <trkpt lat="36.5096620" lon="-5.3322330">
        <ele>482.7</ele>
        <time>2019-08-28T09:27:50Z</time>
      </trkpt>
      <trkpt lat="36.5096640" lon="-5.3322660">
        <ele>482.9</ele>
        <time>2019-08-28T09:27:51Z</time>
      </trkpt>
      <trkpt lat="36.5096650" lon="-5.3322980">
        <ele>483.1</ele>
        <time>2019-08-28T09:27:52Z</time>
      </trkpt>
      <trkpt lat="36.5096650" lon="-5.3323310">
        <ele>483.3</ele>
        <time>2019-08-28T09:27:53Z</time>
      </trkpt>
      <trkpt lat="36.5096630" lon="-5.3323640">
        <ele>483.5</ele>
        <time>2019-08-28T09:27:54Z</time>
      </trkpt>
      <trkpt lat="36.5096600" lon="-5.3323970">
        <ele>483.8</ele>
        <time>2019-08-28T09:27:55Z</time>
      </trkpt>
      <trkpt lat="36.5096560" lon="-5.3324300">
        <ele>484.0</ele>
        <time>2019-08-28T09:27:56Z</time>
      </trkpt>
      <trkpt lat="36.5096500" lon="-5.3324610">
        <ele>484.2</ele>
        <time>2019-08-28T09:27:57Z</time>
      </trkpt>
      <trkpt lat="36.5096420" lon="-5.3324920">
        <ele>484.5</ele>
        <time>2019-08-28T09:27:58Z</time>
      </trkpt>
      <trkpt lat="36.5096330" lon="-5.3325220">
        <ele>484.7</ele>
        <time>2019-08-28T09:27:59Z</time>
      </trkpt>
      <trkpt lat="36.5096210" lon="-5.3325510">
        <ele>485.0</ele>
        <time>2019-08-28T09:28:00Z</time>
      </trkpt>
      <trkpt lat="36.5096080" lon="-5.3325780">
        <ele>485.3</ele>
        <time>2019-08-28T09:28:01Z</time>
      </trkpt>
      <trkpt lat="36.5095930" lon="-5.3326030">
        <ele>485.5</ele>
        <time>2019-08-28T09:28:02Z</time>
      </trkpt>
      <trkpt lat="36.5095780" lon="-5.3326260">
        <ele>485.8</ele>
        <time>2019-08-28T09:28:03Z</time>
      </trkpt>
      <trkpt lat="36.5095610" lon="-5.3326480">
        <ele>486.1</ele>
        <time>2019-08-28T09:28:04Z</time>
      </trkpt>
      <trkpt lat="36.5095420" lon="-5.3326670">
        <ele>486.3</ele>
        <time>2019-08-28T09:28:05Z</time>
      </trkpt>
      <trkpt lat="36.5095220" lon="-5.3326850">
        <ele>486.6</ele>
        <time>2019-08-28T09:28:06Z</time>
      </trkpt>
      <trkpt lat="36.5095000" lon="-5.3327010">
        <ele>486.9</ele>
        <time>2019-08-28T09:28:07Z</time>
      </trkpt>
      <trkpt lat="36.5094780" lon="-5.3327170">
        <ele>487.1</ele>
        <time>2019-08-28T09:28:08Z</time>
      </trkpt>
      <trkpt lat="36.5094550" lon="-5.3327300">
        <ele>487.3</ele>
        <time>2019-08-28T09:28:09Z</time>
      </trkpt>
      <trkpt lat="36.5094310" lon="-5.3327420">
        <ele>487.6</ele>
        <time>2019-08-28T09:28:10Z</time>
      </trkpt>
      <trkpt lat="36.5094070" lon="-5.3327530">
        <ele>487.8</ele>
        <time>2019-08-28T09:28:11Z</time>
      </trkpt>
      <trkpt lat="36.5093820" lon="-5.3327620">
        <ele>488.0</ele>
        <time>2019-08-28T09:28:12Z</time>
      </trkpt>
      <trkpt lat="36.5093570" lon="-5.3327710">
        <ele>488.2</ele>
        <time>2019-08-28T09:28:13Z</time>
      </trkpt>
      <trkpt lat="36.5093320" lon="-5.3327790">
        <ele>488.4</ele>
        <time>2019-08-28T09:28:14Z</time>
      </trkpt>
      <trkpt lat="36.5093080" lon="-5.3327850">
        <ele>488.6</ele>
        <time>2019-08-28T09:28:15Z</time>
      </trkpt>
      <trkpt lat="36.5092830" lon="-5.3327910">
        <ele>488.8</ele>
        <time>2019-08-28T09:28:16Z</time>
      </trkpt>
      <trkpt lat="36.5092590" lon="-5.3327960">
        <ele>489.0</ele>
        <time>2019-08-28T09:28:17Z</time>
      </trkpt>
      <trkpt lat="36.5092340" lon="-5.3328000">
        <ele>489.2</ele>
        <time>2019-08-28T09:28:18Z</time>
      </trkpt>
      <trkpt lat="36.5092100" lon="-5.3328060">
        <ele>489.3</ele>
        <time>2019-08-28T09:28:19Z</time>
      </trkpt>
      <trkpt lat="36.5091850" lon="-5.3328120">
        <ele>489.5</ele>
        <time>2019-08-28T09:28:20Z</time>
      </trkpt>
      <trkpt lat="36.5091610" lon="-5.3328190">
        <ele>489.7</ele>
        <time>2019-08-28T09:28:21Z</time>
      </trkpt>
      <trkpt lat="36.5091370" lon="-5.3328260">
        <ele>489.8</ele>
        <time>2019-08-28T09:28:22Z</time>
      </trkpt>
      <trkpt lat="36.5091130" lon="-5.3328320">
        <ele>490.0</ele>
        <time>2019-08-28T09:28:23Z</time>
      </trkpt>
      <trkpt lat="36.5090890" lon="-5.3328380">
        <ele>490.1</ele>
        <time>2019-08-28T09:28:24Z</time>
      </trkpt>
      <trkpt lat="36.5090650" lon="-5.3328420">
        <ele>490.3</ele>
        <time>2019-08-28T09:28:25Z</time>
      </trkpt>
      <trkpt lat="36.5090420" lon="-5.3328470">
        <ele>490.4</ele>
        <time>2019-08-28T09:28:26Z</time>
      </trkpt>
      <trkpt lat="36.5090180" lon="-5.3328530">
        <ele>490.6</ele>
        <time>2019-08-28T09:28:27Z</time>
      </trkpt>
      <trkpt lat="36.5089950" lon="-5.3328580">
        <ele>490.8</ele>
        <time>2019-08-28T09:28:28Z</time>
      </trkpt>
      <trkpt lat="36.5089730" lon="-5.3328640">
        <ele>491.0</ele>
        <time>2019-08-28T09:28:29Z</time>
      </trkpt>
      <trkpt lat="36.5089520" lon="-5.3328700">
        <ele>491.3</ele>
        <time>2019-08-28T09:28:30Z</time>
      </trkpt>
      <trkpt lat="36.5089310" lon="-5.3328770">
        <ele>491.6</ele>
        <time>2019-08-28T09:28:31Z</time>
      </trkpt>
      <trkpt lat="36.5089120" lon="-5.3328860">
        <ele>491.8</ele>
        <time>2019-08-28T09:28:32Z</time>
      </trkpt>
      <trkpt lat="36.5088920" lon="-5.3328960">
        <ele>492.0</ele>
        <time>2019-08-28T09:28:33Z</time>
      </trkpt>
      <trkpt lat="36.5088740" lon="-5.3329060">
        <ele>492.1</ele>
        <time>2019-08-28T09:28:34Z</time>
      </trkpt>
      <trkpt lat="36.5088560" lon="-5.3329190">
        <ele>492.3</ele>
        <time>2019-08-28T09:28:35Z</time>
      </trkpt>
      <trkpt lat="36.5088390" lon="-5.3329320">
        <ele>492.5</ele>
        <time>2019-08-28T09:28:36Z</time>
      </trkpt>
      <trkpt lat="36.5088230" lon="-5.3329490">
        <ele>492.7</ele>
        <time>2019-08-28T09:28:37Z</time>
      </trkpt>
      <trkpt lat="36.5088100" lon="-5.3329670">
        <ele>492.9</ele>
        <time>2019-08-28T09:28:38Z</time>
      </trkpt>
      <trkpt lat="36.5087970" lon="-5.3329870">
        <ele>493.1</ele>
        <time>2019-08-28T09:28:39Z</time>
      </trkpt>
      <trkpt lat="36.5087870" lon="-5.3330070">
        <ele>493.5</ele>
        <time>2019-08-28T09:28:40Z</time>
      </trkpt>
      <trkpt lat="36.5087770" lon="-5.3330280">
        <ele>493.8</ele>
        <time>2019-08-28T09:28:41Z</time>
      </trkpt>
      <trkpt lat="36.5087690" lon="-5.3330480">
        <ele>494.1</ele>
        <time>2019-08-28T09:28:42Z</time>
      </trkpt>
      <trkpt lat="36.5087620" lon="-5.3330690">
        <ele>494.4</ele>
        <time>2019-08-28T09:28:43Z</time>
      </trkpt>
      <trkpt lat="36.5087580" lon="-5.3330940">
        <ele>494.8</ele>
        <time>2019-08-28T09:28:44Z</time>
      </trkpt>
      <trkpt lat="36.5087560" lon="-5.3331190">
        <ele>495.1</ele>
        <time>2019-08-28T09:28:45Z</time>
      </trkpt>
      <trkpt lat="36.5087570" lon="-5.3331450">
        <ele>495.5</ele>
        <time>2019-08-28T09:28:46Z</time>
      </trkpt>
      <trkpt lat="36.5087600" lon="-5.3331710">
        <ele>495.9</ele>
        <time>2019-08-28T09:28:47Z</time>
      </trkpt>
      <trkpt lat="36.5087660" lon="-5.3331970">
        <ele>496.3</ele>
        <time>2019-08-28T09:28:48Z</time>
      </trkpt>
      <trkpt lat="36.5087740" lon="-5.3332230">
        <ele>496.7</ele>
        <time>2019-08-28T09:28:49Z</time>
      </trkpt>
      <trkpt lat="36.5087840" lon="-5.3332480">
        <ele>497.1</ele>
        <time>2019-08-28T09:28:50Z</time>
      </trkpt>
      <trkpt lat="36.5087930" lon="-5.3332720">
        <ele>497.4</ele>
        <time>2019-08-28T09:28:51Z</time>
      </trkpt>
      <trkpt lat="36.5088020" lon="-5.3332960">
        <ele>497.6</ele>
        <time>2019-08-28T09:28:52Z</time>
      </trkpt>
      <trkpt lat="36.5088130" lon="-5.3333190">
        <ele>497.9</ele>
        <time>2019-08-28T09:28:53Z</time>
      </trkpt>
      <trkpt lat="36.5088270" lon="-5.3333400">
        <ele>498.1</ele>
        <time>2019-08-28T09:28:54Z</time>
      </trkpt>
      <trkpt lat="36.5088420" lon="-5.3333590">
        <ele>498.4</ele>
        <time>2019-08-28T09:28:55Z</time>
      </trkpt>
      <trkpt lat="36.5088580" lon="-5.3333790">
        <ele>498.6</ele>
        <time>2019-08-28T09:28:56Z</time>
      </trkpt>
      <trkpt lat="36.5088730" lon="-5.3333990">
        <ele>498.7</ele>
        <time>2019-08-28T09:28:57Z</time>
      </trkpt>
      <trkpt lat="36.5088870" lon="-5.3334190">
        <ele>498.8</ele>
        <time>2019-08-28T09:28:58Z</time>
      </trkpt>
      <trkpt lat="36.5089000" lon="-5.3334390">
        <ele>498.9</ele>
        <time>2019-08-28T09:28:59Z</time>
      </trkpt>
      <trkpt lat="36.5089130" lon="-5.3334600">
        <ele>499.0</ele>
        <time>2019-08-28T09:29:00Z</time>
      </trkpt>
      <trkpt lat="36.5089250" lon="-5.3334810">
        <ele>499.1</ele>
        <time>2019-08-28T09:29:01Z</time>
      </trkpt>
      <trkpt lat="36.5089380" lon="-5.3335010">
        <ele>499.2</ele>
        <time>2019-08-28T09:29:02Z</time>
      </trkpt>
      <trkpt lat="36.5089520" lon="-5.3335210">
        <ele>499.3</ele>
        <time>2019-08-28T09:29:03Z</time>
      </trkpt>
      <trkpt lat="36.5089650" lon="-5.3335410">
        <ele>499.4</ele>
        <time>2019-08-28T09:29:04Z</time>
      </trkpt>
      <trkpt lat="36.5089770" lon="-5.3335620">
        <ele>499.5</ele>
        <time>2019-08-28T09:29:05Z</time>
      </trkpt>
      <trkpt lat="36.5089880" lon="-5.3335840">
        <ele>499.6</ele>
        <time>2019-08-28T09:29:06Z</time>
      </trkpt>
      <trkpt lat="36.5089990" lon="-5.3336050">
        <ele>499.7</ele>
        <time>2019-08-28T09:29:07Z</time>
      </trkpt>
      <trkpt lat="36.5090120" lon="-5.3336240">
        <ele>499.8</ele>
        <time>2019-08-28T09:29:08Z</time>
      </trkpt>
      <trkpt lat="36.5090250" lon="-5.3336420">
        <ele>500.0</ele>
        <time>2019-08-28T09:29:09Z</time>
      </trkpt>
      <trkpt lat="36.5090390" lon="-5.3336600">
        <ele>500.1</ele>
        <time>2019-08-28T09:29:10Z</time>
      </trkpt>
      <trkpt lat="36.5090530" lon="-5.3336780">
        <ele>500.3</ele>
        <time>2019-08-28T09:29:11Z</time>
      </trkpt>
      <trkpt lat="36.5090670" lon="-5.3336960">
        <ele>500.5</ele>
        <time>2019-08-28T09:29:12Z</time>
      </trkpt>
      <trkpt lat="36.5090810" lon="-5.3337140">
        <ele>500.6</ele>
        <time>2019-08-28T09:29:13Z</time>
      </trkpt>
      <trkpt lat="36.5090940" lon="-5.3337320">
        <ele>500.8</ele>
        <time>2019-08-28T09:29:14Z</time>
      </trkpt>
      <trkpt lat="36.5091080" lon="-5.3337510">
        <ele>501.0</ele>
        <time>2019-08-28T09:29:15Z</time>
      </trkpt>
      <trkpt lat="36.5091200" lon="-5.3337690">
        <ele>501.1</ele>
        <time>2019-08-28T09:29:16Z</time>
      </trkpt>
      <trkpt lat="36.5091330" lon="-5.3337860">
        <ele>501.3</ele>
        <time>2019-08-28T09:29:17Z</time>
      </trkpt>
      <trkpt lat="36.5091460" lon="-5.3338040">
        <ele>501.5</ele>
        <time>2019-08-28T09:29:18Z</time>
      </trkpt>
      <trkpt lat="36.5091590" lon="-5.3338220">
        <ele>501.7</ele>
        <time>2019-08-28T09:29:19Z</time>
      </trkpt>
      <trkpt lat="36.5091720" lon="-5.3338410">
        <ele>501.9</ele>
        <time>2019-08-28T09:29:20Z</time>
      </trkpt>
      <trkpt lat="36.5091850" lon="-5.3338600">
        <ele>502.2</ele>
        <time>2019-08-28T09:29:21Z</time>
      </trkpt>
      <trkpt lat="36.5091970" lon="-5.3338800">
        <ele>502.4</ele>
        <time>2019-08-28T09:29:22Z</time>
      </trkpt>
      <trkpt lat="36.5092100" lon="-5.3338990">
        <ele>502.7</ele>
        <time>2019-08-28T09:29:23Z</time>
      </trkpt>
      <trkpt lat="36.5092230" lon="-5.3339170">
        <ele>502.9</ele>
        <time>2019-08-28T09:29:24Z</time>
      </trkpt>
      <trkpt lat="36.5092370" lon="-5.3339340">
        <ele>503.2</ele>
        <time>2019-08-28T09:29:25Z</time>
      </trkpt>
      <trkpt lat="36.5092510" lon="-5.3339520">
        <ele>503.4</ele>
        <time>2019-08-28T09:29:26Z</time>
      </trkpt>
      <trkpt lat="36.5092640" lon="-5.3339710">
        <ele>503.7</ele>
        <time>2019-08-28T09:29:27Z</time>
      </trkpt>
      <trkpt lat="36.5092780" lon="-5.3339890">
        <ele>503.9</ele>
        <time>2019-08-28T09:29:28Z</time>
      </trkpt>
      <trkpt lat="36.5092920" lon="-5.3340070">
        <ele>504.2</ele>
        <time>2019-08-28T09:29:29Z</time>
      </trkpt>
      <trkpt lat="36.5093070" lon="-5.3340250">
        <ele>504.5</ele>
        <time>2019-08-28T09:29:30Z</time>
      </trkpt>
      <trkpt lat="36.5093210" lon="-5.3340440">
        <ele>504.7</ele>
        <time>2019-08-28T09:29:31Z</time>
      </trkpt>
      <trkpt lat="36.5093350" lon="-5.3340640">
        <ele>505.0</ele>
        <time>2019-08-28T09:29:32Z</time>
      </trkpt>
      <trkpt lat="36.5093480" lon="-5.3340850">
        <ele>505.2</ele>
        <time>2019-08-28T09:29:33Z</time>
      </trkpt>
      <trkpt lat="36.5093600" lon="-5.3341060">
        <ele>505.4</ele>
        <time>2019-08-28T09:29:34Z</time>
      </trkpt>
      <trkpt lat="36.5093720" lon="-5.3341270">
        <ele>505.7</ele>
        <time>2019-08-28T09:29:35Z</time>
      </trkpt>
      <trkpt lat="36.5093840" lon="-5.3341470">
        <ele>505.9</ele>
        <time>2019-08-28T09:29:36Z</time>
      </trkpt>
      <trkpt lat="36.5093980" lon="-5.3341670">
        <ele>506.1</ele>
        <time>2019-08-28T09:29:37Z</time>
      </trkpt>
      <trkpt lat="36.5094130" lon="-5.3341850">
        <ele>506.3</ele>
        <time>2019-08-28T09:29:38Z</time>
      </trkpt>
      <trkpt lat="36.5094270" lon="-5.3342030">
        <ele>506.5</ele>
        <time>2019-08-28T09:29:39Z</time>
      </trkpt>
      <trkpt lat="36.5094400" lon="-5.3342230">
        <ele>506.8</ele>
        <time>2019-08-28T09:29:40Z</time>
      </trkpt>
      <trkpt lat="36.5094520" lon="-5.3342430">
        <ele>507.0</ele>
        <time>2019-08-28T09:29:41Z</time>
      </trkpt>
      <trkpt lat="36.5094650" lon="-5.3342630">
        <ele>507.2</ele>
        <time>2019-08-28T09:29:42Z</time>
      </trkpt>
      <trkpt lat="36.5094790" lon="-5.3342820">
        <ele>507.4</ele>
        <time>2019-08-28T09:29:43Z</time>
      </trkpt>
      <trkpt lat="36.5094930" lon="-5.3343010">
        <ele>507.6</ele>
        <time>2019-08-28T09:29:44Z</time>
      </trkpt>
      <trkpt lat="36.5095080" lon="-5.3343200">
        <ele>507.9</ele>
        <time>2019-08-28T09:29:45Z</time>
      </trkpt>
      <trkpt lat="36.5095230" lon="-5.3343390">
        <ele>508.1</ele>
        <time>2019-08-28T09:29:46Z</time>
      </trkpt>
      <trkpt lat="36.5095370" lon="-5.3343570">
        <ele>508.3</ele>
        <time>2019-08-28T09:29:47Z</time>
      </trkpt>
      <trkpt lat="36.5095520" lon="-5.3343740">
        <ele>508.4</ele>
        <time>2019-08-28T09:29:48Z</time>
      </trkpt>
      <trkpt lat="36.5095650" lon="-5.3343920">
        <ele>508.5</ele>
        <time>2019-08-28T09:29:49Z</time>
      </trkpt>
      <trkpt lat="36.5095790" lon="-5.3344100">
        <ele>508.7</ele>
        <time>2019-08-28T09:29:50Z</time>
      </trkpt>
      <trkpt lat="36.5095940" lon="-5.3344270">
        <ele>508.8</ele>
        <time>2019-08-28T09:29:51Z</time>
      </trkpt>
      <trkpt lat="36.5096090" lon="-5.3344420">
        <ele>509.0</ele>
        <time>2019-08-28T09:29:52Z</time>
      </trkpt>
      <trkpt lat="36.5096250" lon="-5.3344570">
        <ele>509.2</ele>
        <time>2019-08-28T09:29:53Z</time>
      </trkpt>
      <trkpt lat="36.5096390" lon="-5.3344740">
        <ele>509.4</ele>
        <time>2019-08-28T09:29:54Z</time>
      </trkpt>
      <trkpt lat="36.5096530" lon="-5.3344920">
        <ele>509.6</ele>
        <time>2019-08-28T09:29:55Z</time>
      </trkpt>
      <trkpt lat="36.5096670" lon="-5.3345090">
        <ele>509.8</ele>
        <time>2019-08-28T09:29:56Z</time>
      </trkpt>
      <trkpt lat="36.5096810" lon="-5.3345250">
        <ele>510.0</ele>
        <time>2019-08-28T09:29:57Z</time>
      </trkpt>
      <trkpt lat="36.5096960" lon="-5.3345390">
        <ele>510.2</ele>
        <time>2019-08-28T09:29:58Z</time>
      </trkpt>
      <trkpt lat="36.5097130" lon="-5.3345510">
        <ele>510.5</ele>
        <time>2019-08-28T09:29:59Z</time>
      </trkpt>
      <trkpt lat="36.5097310" lon="-5.3345590">
        <ele>510.7</ele>
        <time>2019-08-28T09:30:00Z</time>
      </trkpt>
      <trkpt lat="36.5097490" lon="-5.3345670">
        <ele>511.0</ele>
        <time>2019-08-28T09:30:01Z</time>
      </trkpt>
      <trkpt lat="36.5097660" lon="-5.3345750">
        <ele>511.2</ele>
        <time>2019-08-28T09:30:02Z</time>
      </trkpt>
      <trkpt lat="36.5097840" lon="-5.3345840">
        <ele>511.4</ele>
        <time>2019-08-28T09:30:03Z</time>
      </trkpt>
      <trkpt lat="36.5098020" lon="-5.3345920">
        <ele>511.7</ele>
        <time>2019-08-28T09:30:04Z</time>
      </trkpt>
      <trkpt lat="36.5098210" lon="-5.3345980">
        <ele>511.9</ele>
        <time>2019-08-28T09:30:05Z</time>
      </trkpt>
      <trkpt lat="36.5098410" lon="-5.3346040">
        <ele>512.1</ele>
        <time>2019-08-28T09:30:06Z</time>
      </trkpt>
      <trkpt lat="36.5098610" lon="-5.3346070">
        <ele>512.3</ele>
        <time>2019-08-28T09:30:07Z</time>
      </trkpt>
      <trkpt lat="36.5098820" lon="-5.3346090">
        <ele>512.5</ele>
        <time>2019-08-28T09:30:08Z</time>
      </trkpt>
      <trkpt lat="36.5099030" lon="-5.3346100">
        <ele>512.7</ele>
        <time>2019-08-28T09:30:09Z</time>
      </trkpt>
      <trkpt lat="36.5099240" lon="-5.3346100">
        <ele>512.9</ele>
        <time>2019-08-28T09:30:10Z</time>
      </trkpt>
      <trkpt lat="36.5099440" lon="-5.3346090">
        <ele>513.1</ele>
        <time>2019-08-28T09:30:11Z</time>
      </trkpt>
      <trkpt lat="36.5099640" lon="-5.3346060">
        <ele>513.3</ele>
        <time>2019-08-28T09:30:12Z</time>
      </trkpt>
      <trkpt lat="36.5099820" lon="-5.3346030">
        <ele>513.5</ele>
        <time>2019-08-28T09:30:13Z</time>
      </trkpt>
      <trkpt lat="36.5100010" lon="-5.3346000">
        <ele>513.6</ele>
        <time>2019-08-28T09:30:14Z</time>
      </trkpt>
      <trkpt lat="36.5100200" lon="-5.3345970">
        <ele>513.8</ele>
        <time>2019-08-28T09:30:15Z</time>
      </trkpt>
      <trkpt lat="36.5100380" lon="-5.3345940">
        <ele>514.0</ele>
        <time>2019-08-28T09:30:16Z</time>
      </trkpt>
      <trkpt lat="36.5100570" lon="-5.3345900">
        <ele>514.2</ele>
        <time>2019-08-28T09:30:17Z</time>
      </trkpt>
      <trkpt lat="36.5100760" lon="-5.3345840">
        <ele>514.4</ele>
        <time>2019-08-28T09:30:18Z</time>
      </trkpt>
      <trkpt lat="36.5100960" lon="-5.3345780">
        <ele>514.7</ele>
        <time>2019-08-28T09:30:19Z</time>
      </trkpt>
      <trkpt lat="36.5101150" lon="-5.3345720">
        <ele>514.9</ele>
        <time>2019-08-28T09:30:20Z</time>
      </trkpt>
      <trkpt lat="36.5101350" lon="-5.3345670">
        <ele>515.2</ele>
        <time>2019-08-28T09:30:21Z</time>
      </trkpt>
      <trkpt lat="36.5101550" lon="-5.3345620">
        <ele>515.5</ele>
        <time>2019-08-28T09:30:22Z</time>
      </trkpt>
      <trkpt lat="36.5101750" lon="-5.3345550">
        <ele>515.8</ele>
        <time>2019-08-28T09:30:23Z</time>
      </trkpt>
      <trkpt lat="36.5101930" lon="-5.3345450">
        <ele>516.2</ele>
        <time>2019-08-28T09:30:24Z</time>
      </trkpt>
      <trkpt lat="36.5102120" lon="-5.3345350">
        <ele>516.5</ele>
        <time>2019-08-28T09:30:25Z</time>
      </trkpt>
      <trkpt lat="36.5102310" lon="-5.3345260">
        <ele>516.8</ele>
        <time>2019-08-28T09:30:26Z</time>
      </trkpt>
      <trkpt lat="36.5102500" lon="-5.3345180">
        <ele>517.2</ele>
        <time>2019-08-28T09:30:27Z</time>
      </trkpt>
      <trkpt lat="36.5102700" lon="-5.3345110">
        <ele>517.5</ele>
        <time>2019-08-28T09:30:28Z</time>
      </trkpt>
      <trkpt lat="36.5102900" lon="-5.3345040">
        <ele>517.9</ele>
        <time>2019-08-28T09:30:29Z</time>
      </trkpt>
      <trkpt lat="36.5103100" lon="-5.3344950">
        <ele>518.2</ele>
        <time>2019-08-28T09:30:30Z</time>
      </trkpt>
      <trkpt lat="36.5103310" lon="-5.3344850">
        <ele>518.6</ele>
        <time>2019-08-28T09:30:31Z</time>
      </trkpt>
      <trkpt lat="36.5103510" lon="-5.3344740">
        <ele>518.9</ele>
        <time>2019-08-28T09:30:32Z</time>
      </trkpt>
      <trkpt lat="36.5103720" lon="-5.3344650">
        <ele>519.2</ele>
        <time>2019-08-28T09:30:33Z</time>
      </trkpt>
      <trkpt lat="36.5103940" lon="-5.3344560">
        <ele>519.5</ele>
        <time>2019-08-28T09:30:34Z</time>
      </trkpt>
      <trkpt lat="36.5104150" lon="-5.3344470">
        <ele>519.8</ele>
        <time>2019-08-28T09:30:35Z</time>
      </trkpt>
      <trkpt lat="36.5104350" lon="-5.3344370">
        <ele>520.1</ele>
        <time>2019-08-28T09:30:36Z</time>
      </trkpt>
      <trkpt lat="36.5104550" lon="-5.3344260">
        <ele>520.4</ele>
        <time>2019-08-28T09:30:37Z</time>
      </trkpt>
      <trkpt lat="36.5104740" lon="-5.3344150">
        <ele>520.6</ele>
        <time>2019-08-28T09:30:38Z</time>
      </trkpt>
      <trkpt lat="36.5104930" lon="-5.3344030">
        <ele>520.9</ele>
        <time>2019-08-28T09:30:39Z</time>
      </trkpt>
      <trkpt lat="36.5105120" lon="-5.3343930">
        <ele>521.1</ele>
        <time>2019-08-28T09:30:40Z</time>
      </trkpt>
      <trkpt lat="36.5105300" lon="-5.3343820">
        <ele>521.3</ele>
        <time>2019-08-28T09:30:41Z</time>
      </trkpt>
      <trkpt lat="36.5105490" lon="-5.3343720">
        <ele>521.6</ele>
        <time>2019-08-28T09:30:42Z</time>
      </trkpt>
      <trkpt lat="36.5105670" lon="-5.3343620">
        <ele>521.8</ele>
        <time>2019-08-28T09:30:43Z</time>
      </trkpt>
      <trkpt lat="36.5105850" lon="-5.3343520">
        <ele>521.9</ele>
        <time>2019-08-28T09:30:44Z</time>
      </trkpt>
      <trkpt lat="36.5106030" lon="-5.3343420">
        <ele>522.2</ele>
        <time>2019-08-28T09:30:45Z</time>
      </trkpt>
      <trkpt lat="36.5106210" lon="-5.3343310">
        <ele>522.4</ele>
        <time>2019-08-28T09:30:46Z</time>
      </trkpt>
      <trkpt lat="36.5106390" lon="-5.3343200">
        <ele>522.6</ele>
        <time>2019-08-28T09:30:47Z</time>
      </trkpt>
      <trkpt lat="36.5106580" lon="-5.3343090">
        <ele>522.8</ele>
        <time>2019-08-28T09:30:48Z</time>
      </trkpt>
      <trkpt lat="36.5106770" lon="-5.3342990">
        <ele>523.0</ele>
        <time>2019-08-28T09:30:49Z</time>
      </trkpt>
      <trkpt lat="36.5106960" lon="-5.3342890">
        <ele>523.2</ele>
        <time>2019-08-28T09:30:50Z</time>
      </trkpt>
      <trkpt lat="36.5107140" lon="-5.3342790">
        <ele>523.4</ele>
        <time>2019-08-28T09:30:51Z</time>
      </trkpt>
      <trkpt lat="36.5107320" lon="-5.3342680">
        <ele>523.5</ele>
        <time>2019-08-28T09:30:52Z</time>
      </trkpt>
      <trkpt lat="36.5107510" lon="-5.3342580">
        <ele>523.7</ele>
        <time>2019-08-28T09:30:53Z</time>
      </trkpt>
      <trkpt lat="36.5107700" lon="-5.3342470">
        <ele>523.9</ele>
        <time>2019-08-28T09:30:54Z</time>
      </trkpt>
      <trkpt lat="36.5107880" lon="-5.3342340">
        <ele>524.0</ele>
        <time>2019-08-28T09:30:55Z</time>
      </trkpt>
      <trkpt lat="36.5108070" lon="-5.3342220">
        <ele>524.1</ele>
        <time>2019-08-28T09:30:56Z</time>
      </trkpt>
      <trkpt lat="36.5108260" lon="-5.3342090">
        <ele>524.2</ele>
        <time>2019-08-28T09:30:57Z</time>
      </trkpt>
      <trkpt lat="36.5108450" lon="-5.3341980">
        <ele>524.4</ele>
        <time>2019-08-28T09:30:58Z</time>
      </trkpt>
      <trkpt lat="36.5108640" lon="-5.3341850">
        <ele>524.5</ele>
        <time>2019-08-28T09:30:59Z</time>
      </trkpt>
      <trkpt lat="36.5108830" lon="-5.3341730">
        <ele>524.6</ele>
        <time>2019-08-28T09:31:00Z</time>
      </trkpt>
      <trkpt lat="36.5109010" lon="-5.3341600">
        <ele>524.7</ele>
        <time>2019-08-28T09:31:01Z</time>
      </trkpt>
      <trkpt lat="36.5109190" lon="-5.3341470">
        <ele>524.8</ele>
        <time>2019-08-28T09:31:02Z</time>
      </trkpt>
      <trkpt lat="36.5109370" lon="-5.3341320">
        <ele>524.9</ele>
        <time>2019-08-28T09:31:03Z</time>
      </trkpt>
      <trkpt lat="36.5109530" lon="-5.3341170">
        <ele>525.0</ele>
        <time>2019-08-28T09:31:04Z</time>
      </trkpt>
      <trkpt lat="36.5109690" lon="-5.3341010">
        <ele>525.2</ele>
        <time>2019-08-28T09:31:05Z</time>
      </trkpt>
      <trkpt lat="36.5109850" lon="-5.3340840">
        <ele>525.4</ele>
        <time>2019-08-28T09:31:06Z</time>
      </trkpt>
      <trkpt lat="36.5110010" lon="-5.3340660">
        <ele>525.5</ele>
        <time>2019-08-28T09:31:07Z</time>
      </trkpt>
      <trkpt lat="36.5110190" lon="-5.3340480">
        <ele>525.8</ele>
        <time>2019-08-28T09:31:08Z</time>
      </trkpt>
      <trkpt lat="36.5110360" lon="-5.3340300">
        <ele>526.0</ele>
        <time>2019-08-28T09:31:09Z</time>
      </trkpt>
      <trkpt lat="36.5110550" lon="-5.3340110">
        <ele>526.2</ele>
        <time>2019-08-28T09:31:10Z</time>
      </trkpt>
      <trkpt lat="36.5110730" lon="-5.3339910">
        <ele>526.5</ele>
        <time>2019-08-28T09:31:11Z</time>
      </trkpt>
      <trkpt lat="36.5110900" lon="-5.3339710">
        <ele>526.8</ele>
        <time>2019-08-28T09:31:12Z</time>
      </trkpt>
      <trkpt lat="36.5111070" lon="-5.3339500">
        <ele>527.0</ele>
        <time>2019-08-28T09:31:13Z</time>
      </trkpt>
      <trkpt lat="36.5111240" lon="-5.3339270">
        <ele>527.3</ele>
        <time>2019-08-28T09:31:14Z</time>
      </trkpt>
      <trkpt lat="36.5111400" lon="-5.3339040">
        <ele>527.5</ele>
        <time>2019-08-28T09:31:15Z</time>
      </trkpt>
      <trkpt lat="36.5111570" lon="-5.3338810">
        <ele>527.7</ele>
        <time>2019-08-28T09:31:16Z</time>
      </trkpt>
      <trkpt lat="36.5111730" lon="-5.3338580">
        <ele>527.9</ele>
        <time>2019-08-28T09:31:17Z</time>
      </trkpt>
      <trkpt lat="36.5111890" lon="-5.3338330">
        <ele>528.1</ele>
        <time>2019-08-28T09:31:18Z</time>
      </trkpt>
      <trkpt lat="36.5112040" lon="-5.3338080">
        <ele>528.3</ele>
        <time>2019-08-28T09:31:19Z</time>
      </trkpt>
      <trkpt lat="36.5112190" lon="-5.3337820">
        <ele>528.5</ele>
        <time>2019-08-28T09:31:20Z</time>
      </trkpt>
      <trkpt lat="36.5112330" lon="-5.3337560">
        <ele>528.8</ele>
        <time>2019-08-28T09:31:21Z</time>
      </trkpt>
      <trkpt lat="36.5112470" lon="-5.3337280">
        <ele>529.0</ele>
        <time>2019-08-28T09:31:22Z</time>
      </trkpt>
      <trkpt lat="36.5112610" lon="-5.3337000">
        <ele>529.2</ele>
        <time>2019-08-28T09:31:23Z</time>
      </trkpt>
      <trkpt lat="36.5112760" lon="-5.3336730">
        <ele>529.4</ele>
        <time>2019-08-28T09:31:24Z</time>
      </trkpt>
      <trkpt lat="36.5112900" lon="-5.3336450">
        <ele>529.6</ele>
        <time>2019-08-28T09:31:25Z</time>
      </trkpt>
      <trkpt lat="36.5113020" lon="-5.3336160">
        <ele>529.8</ele>
        <time>2019-08-28T09:31:26Z</time>
      </trkpt>
      <trkpt lat="36.5113140" lon="-5.3335870">
        <ele>530.0</ele>
        <time>2019-08-28T09:31:27Z</time>
      </trkpt>
      <trkpt lat="36.5113240" lon="-5.3335570">
        <ele>530.2</ele>
        <time>2019-08-28T09:31:28Z</time>
      </trkpt>
      <trkpt lat="36.5113340" lon="-5.3335280">
        <ele>530.4</ele>
        <time>2019-08-28T09:31:29Z</time>
      </trkpt>
      <trkpt lat="36.5113440" lon="-5.3334980">
        <ele>530.6</ele>
        <time>2019-08-28T09:31:30Z</time>
      </trkpt>
      <trkpt lat="36.5113540" lon="-5.3334680">
        <ele>530.8</ele>
        <time>2019-08-28T09:31:31Z</time>
      </trkpt>
      <trkpt lat="36.5113640" lon="-5.3334390">
        <ele>531.0</ele>
        <time>2019-08-28T09:31:32Z</time>
      </trkpt>
      <trkpt lat="36.5113740" lon="-5.3334090">
        <ele>531.2</ele>
        <time>2019-08-28T09:31:33Z</time>
      </trkpt>
      <trkpt lat="36.5113830" lon="-5.3333790">
        <ele>531.4</ele>
        <time>2019-08-28T09:31:34Z</time>
      </trkpt>
      <trkpt lat="36.5113920" lon="-5.3333490">
        <ele>531.6</ele>
        <time>2019-08-28T09:31:35Z</time>
      </trkpt>
      <trkpt lat="36.5114000" lon="-5.3333190">
        <ele>531.8</ele>
        <time>2019-08-28T09:31:36Z</time>
      </trkpt>
      <trkpt lat="36.5114090" lon="-5.3332880">
        <ele>532.0</ele>
        <time>2019-08-28T09:31:37Z</time>
      </trkpt>
      <trkpt lat="36.5114170" lon="-5.3332580">
        <ele>532.2</ele>
        <time>2019-08-28T09:31:38Z</time>
      </trkpt>
      <trkpt lat="36.5114260" lon="-5.3332270">
        <ele>532.4</ele>
        <time>2019-08-28T09:31:39Z</time>
      </trkpt>
      <trkpt lat="36.5114350" lon="-5.3331970">
        <ele>532.6</ele>
        <time>2019-08-28T09:31:40Z</time>
      </trkpt>
      <trkpt lat="36.5114440" lon="-5.3331660">
        <ele>532.8</ele>
        <time>2019-08-28T09:31:41Z</time>
      </trkpt>
      <trkpt lat="36.5114540" lon="-5.3331340">
        <ele>533.0</ele>
        <time>2019-08-28T09:31:42Z</time>
      </trkpt>
      <trkpt lat="36.5114630" lon="-5.3331020">
        <ele>533.2</ele>
        <time>2019-08-28T09:31:43Z</time>
      </trkpt>
      <trkpt lat="36.5114730" lon="-5.3330700">
        <ele>533.4</ele>
        <time>2019-08-28T09:31:44Z</time>
      </trkpt>
      <trkpt lat="36.5114810" lon="-5.3330370">
        <ele>533.6</ele>
        <time>2019-08-28T09:31:45Z</time>
      </trkpt>
      <trkpt lat="36.5114890" lon="-5.3330030">
        <ele>533.7</ele>
        <time>2019-08-28T09:31:46Z</time>
      </trkpt>
      <trkpt lat="36.5114980" lon="-5.3329700">
        <ele>533.9</ele>
        <time>2019-08-28T09:31:47Z</time>
      </trkpt>
      <trkpt lat="36.5115070" lon="-5.3329360">
        <ele>534.0</ele>
        <time>2019-08-28T09:31:48Z</time>
      </trkpt>
      <trkpt lat="36.5115170" lon="-5.3329010">
        <ele>534.2</ele>
        <time>2019-08-28T09:31:49Z</time>
      </trkpt>
      <trkpt lat="36.5115260" lon="-5.3328660">
        <ele>534.3</ele>
        <time>2019-08-28T09:31:50Z</time>
      </trkpt>
      <trkpt lat="36.5115350" lon="-5.3328310">
        <ele>534.3</ele>
        <time>2019-08-28T09:31:51Z</time>
      </trkpt>
      <trkpt lat="36.5115440" lon="-5.3327960">
        <ele>534.4</ele>
        <time>2019-08-28T09:31:52Z</time>
      </trkpt>
      <trkpt lat="36.5115530" lon="-5.3327610">
        <ele>534.5</ele>
        <time>2019-08-28T09:31:53Z</time>
      </trkpt>
      <trkpt lat="36.5115610" lon="-5.3327260">
        <ele>534.5</ele>
        <time>2019-08-28T09:31:54Z</time>
      </trkpt>
      <trkpt lat="36.5115700" lon="-5.3326910">
        <ele>534.5</ele>
        <time>2019-08-28T09:31:55Z</time>
      </trkpt>
      <trkpt lat="36.5115780" lon="-5.3326570">
        <ele>534.5</ele>
        <time>2019-08-28T09:31:56Z</time>
      </trkpt>
      <trkpt lat="36.5115870" lon="-5.3326230">
        <ele>534.5</ele>
        <time>2019-08-28T09:31:57Z</time>
      </trkpt>
      <trkpt lat="36.5115950" lon="-5.3325890">
        <ele>534.6</ele>
        <time>2019-08-28T09:31:58Z</time>
      </trkpt>
      <trkpt lat="36.5116030" lon="-5.3325550">
        <ele>534.6</ele>
        <time>2019-08-28T09:31:59Z</time>
      </trkpt>
      <trkpt lat="36.5116100" lon="-5.3325200">
        <ele>534.6</ele>
        <time>2019-08-28T09:32:00Z</time>
      </trkpt>
      <trkpt lat="36.5116170" lon="-5.3324860">
        <ele>534.7</ele>
        <time>2019-08-28T09:32:01Z</time>
      </trkpt>
      <trkpt lat="36.5116230" lon="-5.3324510">
        <ele>534.8</ele>
        <time>2019-08-28T09:32:02Z</time>
      </trkpt>
      <trkpt lat="36.5116290" lon="-5.3324160">
        <ele>534.8</ele>
        <time>2019-08-28T09:32:03Z</time>
      </trkpt>
      <trkpt lat="36.5116340" lon="-5.3323810">
        <ele>534.9</ele>
        <time>2019-08-28T09:32:04Z</time>
      </trkpt>
      <trkpt lat="36.5116410" lon="-5.3323460">
        <ele>535.0</ele>
        <time>2019-08-28T09:32:05Z</time>
      </trkpt>
      <trkpt lat="36.5116490" lon="-5.3323120">
        <ele>535.1</ele>
        <time>2019-08-28T09:32:06Z</time>
      </trkpt>
      <trkpt lat="36.5116590" lon="-5.3322790">
        <ele>535.3</ele>
        <time>2019-08-28T09:32:07Z</time>
      </trkpt>
      <trkpt lat="36.5116690" lon="-5.3322460">
        <ele>535.4</ele>
        <time>2019-08-28T09:32:08Z</time>
      </trkpt>
      <trkpt lat="36.5116780" lon="-5.3322110">
        <ele>535.6</ele>
        <time>2019-08-28T09:32:09Z</time>
      </trkpt>
      <trkpt lat="36.5116850" lon="-5.3321770">
        <ele>535.7</ele>
        <time>2019-08-28T09:32:10Z</time>
      </trkpt>
      <trkpt lat="36.5116910" lon="-5.3321410">
        <ele>535.9</ele>
        <time>2019-08-28T09:32:11Z</time>
      </trkpt>
      <trkpt lat="36.5116970" lon="-5.3321070">
        <ele>536.1</ele>
        <time>2019-08-28T09:32:12Z</time>
      </trkpt>
      <trkpt lat="36.5117050" lon="-5.3320730">
        <ele>536.3</ele>
        <time>2019-08-28T09:32:13Z</time>
      </trkpt>
      <trkpt lat="36.5117130" lon="-5.3320400">
        <ele>536.4</ele>
        <time>2019-08-28T09:32:14Z</time>
      </trkpt>
      <trkpt lat="36.5117210" lon="-5.3320070">
        <ele>536.6</ele>
        <time>2019-08-28T09:32:15Z</time>
      </trkpt>
      <trkpt lat="36.5117280" lon="-5.3319740">
        <ele>536.8</ele>
        <time>2019-08-28T09:32:16Z</time>
      </trkpt>
      <trkpt lat="36.5117360" lon="-5.3319410">
        <ele>536.9</ele>
        <time>2019-08-28T09:32:17Z</time>
      </trkpt>
      <trkpt lat="36.5117430" lon="-5.3319070">
        <ele>537.0</ele>
        <time>2019-08-28T09:32:18Z</time>
      </trkpt>
      <trkpt lat="36.5117500" lon="-5.3318740">
        <ele>537.2</ele>
        <time>2019-08-28T09:32:19Z</time>
      </trkpt>
      <trkpt lat="36.5117570" lon="-5.3318410">
        <ele>537.3</ele>
        <time>2019-08-28T09:32:20Z</time>
      </trkpt>
      <trkpt lat="36.5117640" lon="-5.3318070">
        <ele>537.4</ele>
        <time>2019-08-28T09:32:21Z</time>
      </trkpt>
      <trkpt lat="36.5117700" lon="-5.3317720">
        <ele>537.6</ele>
        <time>2019-08-28T09:32:22Z</time>
      </trkpt>
      <trkpt lat="36.5117770" lon="-5.3317380">
        <ele>537.7</ele>
        <time>2019-08-28T09:32:23Z</time>
      </trkpt>
      <trkpt lat="36.5117840" lon="-5.3317030">
        <ele>537.9</ele>
        <time>2019-08-28T09:32:24Z</time>
      </trkpt>
      <trkpt lat="36.5117910" lon="-5.3316690">
        <ele>538.1</ele>
        <time>2019-08-28T09:32:25Z</time>
      </trkpt>
      <trkpt lat="36.5117980" lon="-5.3316340">
        <ele>538.2</ele>
        <time>2019-08-28T09:32:26Z</time>
      </trkpt>
      <trkpt lat="36.5118040" lon="-5.3316010">
        <ele>538.4</ele>
        <time>2019-08-28T09:32:27Z</time>
      </trkpt>
      <trkpt lat="36.5118110" lon="-5.3315670">
        <ele>538.6</ele>
        <time>2019-08-28T09:32:28Z</time>
      </trkpt>
      <trkpt lat="36.5118180" lon="-5.3315350">
        <ele>538.8</ele>
        <time>2019-08-28T09:32:29Z</time>
      </trkpt>
      <trkpt lat="36.5118260" lon="-5.3315020">
        <ele>539.0</ele>
        <time>2019-08-28T09:32:30Z</time>
      </trkpt>
      <trkpt lat="36.5118340" lon="-5.3314700">
        <ele>539.2</ele>
        <time>2019-08-28T09:32:31Z</time>
      </trkpt>
      <trkpt lat="36.5118410" lon="-5.3314370">
        <ele>539.4</ele>
        <time>2019-08-28T09:32:32Z</time>
      </trkpt>
      <trkpt lat="36.5118490" lon="-5.3314040">
        <ele>539.5</ele>
        <time>2019-08-28T09:32:33Z</time>
      </trkpt>
      <trkpt lat="36.5118550" lon="-5.3313710">
        <ele>539.7</ele>
        <time>2019-08-28T09:32:34Z</time>
      </trkpt>
      <trkpt lat="36.5118620" lon="-5.3313380">
        <ele>539.9</ele>
        <time>2019-08-28T09:32:35Z</time>
      </trkpt>
      <trkpt lat="36.5118690" lon="-5.3313060">
        <ele>540.1</ele>
        <time>2019-08-28T09:32:36Z</time>
      </trkpt>
      <trkpt lat="36.5118750" lon="-5.3312740">
        <ele>540.3</ele>
        <time>2019-08-28T09:32:37Z</time>
      </trkpt>
      <trkpt lat="36.5118800" lon="-5.3312420">
        <ele>540.5</ele>
        <time>2019-08-28T09:32:38Z</time>
      </trkpt>
      <trkpt lat="36.5118840" lon="-5.3312090">
        <ele>540.7</ele>
        <time>2019-08-28T09:32:39Z</time>
      </trkpt>
      <trkpt lat="36.5118870" lon="-5.3311760">
        <ele>540.9</ele>
        <time>2019-08-28T09:32:40Z</time>
      </trkpt>
      <trkpt lat="36.5118900" lon="-5.3311430">
        <ele>541.2</ele>
        <time>2019-08-28T09:32:41Z</time>
      </trkpt>
      <trkpt lat="36.5118930" lon="-5.3311100">
        <ele>541.5</ele>
        <time>2019-08-28T09:32:42Z</time>
      </trkpt>
      <trkpt lat="36.5118940" lon="-5.3310770">
        <ele>541.8</ele>
        <time>2019-08-28T09:32:43Z</time>
      </trkpt>
      <trkpt lat="36.5118960" lon="-5.3310440">
        <ele>542.1</ele>
        <time>2019-08-28T09:32:44Z</time>
      </trkpt>
      <trkpt lat="36.5118970" lon="-5.3310120">
        <ele>542.4</ele>
        <time>2019-08-28T09:32:45Z</time>
      </trkpt>
      <trkpt lat="36.5119000" lon="-5.3309810">
        <ele>542.6</ele>
        <time>2019-08-28T09:32:46Z</time>
      </trkpt>
      <trkpt lat="36.5119010" lon="-5.3309500">
        <ele>542.9</ele>
        <time>2019-08-28T09:32:47Z</time>
      </trkpt>
      <trkpt lat="36.5119020" lon="-5.3309190">
        <ele>543.2</ele>
        <time>2019-08-28T09:32:48Z</time>
      </trkpt>
      <trkpt lat="36.5119030" lon="-5.3308880">
        <ele>543.5</ele>
        <time>2019-08-28T09:32:49Z</time>
      </trkpt>
      <trkpt lat="36.5119040" lon="-5.3308570">
        <ele>543.7</ele>
        <time>2019-08-28T09:32:50Z</time>
      </trkpt>
      <trkpt lat="36.5119050" lon="-5.3308250">
        <ele>544.0</ele>
        <time>2019-08-28T09:32:51Z</time>
      </trkpt>
      <trkpt lat="36.5119070" lon="-5.3307930">
        <ele>544.2</ele>
        <time>2019-08-28T09:32:52Z</time>
      </trkpt>
      <trkpt lat="36.5119090" lon="-5.3307620">
        <ele>544.4</ele>
        <time>2019-08-28T09:32:53Z</time>
      </trkpt>
      <trkpt lat="36.5119110" lon="-5.3307310">
        <ele>544.6</ele>
        <time>2019-08-28T09:32:54Z</time>
      </trkpt>
      <trkpt lat="36.5119160" lon="-5.3307020">
        <ele>544.8</ele>
        <time>2019-08-28T09:32:55Z</time>
      </trkpt>
      <trkpt lat="36.5119210" lon="-5.3306720">
        <ele>545.0</ele>
        <time>2019-08-28T09:32:56Z</time>
      </trkpt>
      <trkpt lat="36.5119260" lon="-5.3306430">
        <ele>545.1</ele>
        <time>2019-08-28T09:32:57Z</time>
      </trkpt>
      <trkpt lat="36.5119310" lon="-5.3306130">
        <ele>545.3</ele>
        <time>2019-08-28T09:32:58Z</time>
      </trkpt>
      <trkpt lat="36.5119350" lon="-5.3305820">
        <ele>545.5</ele>
        <time>2019-08-28T09:32:59Z</time>
      </trkpt>
      <trkpt lat="36.5119380" lon="-5.3305510">
        <ele>545.8</ele>
        <time>2019-08-28T09:33:00Z</time>
      </trkpt>
      <trkpt lat="36.5119410" lon="-5.3305190">
        <ele>546.0</ele>
        <time>2019-08-28T09:33:01Z</time>
      </trkpt>
      <trkpt lat="36.5119450" lon="-5.3304880">
        <ele>546.2</ele>
        <time>2019-08-28T09:33:02Z</time>
      </trkpt>
      <trkpt lat="36.5119500" lon="-5.3304560">
        <ele>546.5</ele>
        <time>2019-08-28T09:33:03Z</time>
      </trkpt>
      <trkpt lat="36.5119540" lon="-5.3304240">
        <ele>546.8</ele>
        <time>2019-08-28T09:33:04Z</time>
      </trkpt>
      <trkpt lat="36.5119580" lon="-5.3303920">
        <ele>547.1</ele>
        <time>2019-08-28T09:33:05Z</time>
      </trkpt>
      <trkpt lat="36.5119630" lon="-5.3303600">
        <ele>547.3</ele>
        <time>2019-08-28T09:33:06Z</time>
      </trkpt>
      <trkpt lat="36.5119670" lon="-5.3303280">
        <ele>547.6</ele>
        <time>2019-08-28T09:33:07Z</time>
      </trkpt>
      <trkpt lat="36.5119710" lon="-5.3302970">
        <ele>547.8</ele>
        <time>2019-08-28T09:33:08Z</time>
      </trkpt>
      <trkpt lat="36.5119740" lon="-5.3302650">
        <ele>548.1</ele>
        <time>2019-08-28T09:33:09Z</time>
      </trkpt>
      <trkpt lat="36.5119760" lon="-5.3302330">
        <ele>548.3</ele>
        <time>2019-08-28T09:33:10Z</time>
      </trkpt>
      <trkpt lat="36.5119780" lon="-5.3302010">
        <ele>548.5</ele>
        <time>2019-08-28T09:33:11Z</time>
      </trkpt>
      <trkpt lat="36.5119800" lon="-5.3301700">
        <ele>548.7</ele>
        <time>2019-08-28T09:33:12Z</time>
      </trkpt>
      <trkpt lat="36.5119800" lon="-5.3301380">
        <ele>548.9</ele>
        <time>2019-08-28T09:33:13Z</time>
      </trkpt>
      <trkpt lat="36.5119800" lon="-5.3301060">
        <ele>549.0</ele>
        <time>2019-08-28T09:33:14Z</time>
      </trkpt>
      <trkpt lat="36.5119790" lon="-5.3300730">
        <ele>549.2</ele>
        <time>2019-08-28T09:33:15Z</time>
      </trkpt>
      <trkpt lat="36.5119780" lon="-5.3300410">
        <ele>549.4</ele>
        <time>2019-08-28T09:33:16Z</time>
      </trkpt>
      <trkpt lat="36.5119750" lon="-5.3300090">
        <ele>549.5</ele>
        <time>2019-08-28T09:33:17Z</time>
      </trkpt>
      <trkpt lat="36.5119720" lon="-5.3299760">
        <ele>549.7</ele>
        <time>2019-08-28T09:33:18Z</time>
      </trkpt>
      <trkpt lat="36.5119690" lon="-5.3299440">
        <ele>549.9</ele>
        <time>2019-08-28T09:33:19Z</time>
      </trkpt>
      <trkpt lat="36.5119650" lon="-5.3299130">
        <ele>550.0</ele>
        <time>2019-08-28T09:33:20Z</time>
      </trkpt>
      <trkpt lat="36.5119610" lon="-5.3298800">
        <ele>550.2</ele>
        <time>2019-08-28T09:33:21Z</time>
      </trkpt>
      <trkpt lat="36.5119560" lon="-5.3298480">
        <ele>550.3</ele>
        <time>2019-08-28T09:33:22Z</time>
      </trkpt>
      <trkpt lat="36.5119510" lon="-5.3298170">
        <ele>550.5</ele>
        <time>2019-08-28T09:33:23Z</time>
      </trkpt>
      <trkpt lat="36.5119460" lon="-5.3297860">
        <ele>550.6</ele>
        <time>2019-08-28T09:33:24Z</time>
      </trkpt>
      <trkpt lat="36.5119400" lon="-5.3297560">
        <ele>550.7</ele>
        <time>2019-08-28T09:33:25Z</time>
      </trkpt>
      <trkpt lat="36.5119340" lon="-5.3297260">
        <ele>550.8</ele>
        <time>2019-08-28T09:33:26Z</time>
      </trkpt>
      <trkpt lat="36.5119280" lon="-5.3296970">
        <ele>550.9</ele>
        <time>2019-08-28T09:33:27Z</time>
      </trkpt>
      <trkpt lat="36.5119200" lon="-5.3296690">
        <ele>551.0</ele>
        <time>2019-08-28T09:33:28Z</time>
      </trkpt>
      <trkpt lat="36.5119130" lon="-5.3296410">
        <ele>551.1</ele>
        <time>2019-08-28T09:33:29Z</time>
      </trkpt>
      <trkpt lat="36.5119050" lon="-5.3296130">
        <ele>551.2</ele>
        <time>2019-08-28T09:33:30Z</time>
      </trkpt>
      <trkpt lat="36.5118970" lon="-5.3295860">
        <ele>551.3</ele>
        <time>2019-08-28T09:33:31Z</time>
      </trkpt>
      <trkpt lat="36.5118890" lon="-5.3295590">
        <ele>551.4</ele>
        <time>2019-08-28T09:33:32Z</time>
      </trkpt>
      <trkpt lat="36.5118810" lon="-5.3295320">
        <ele>551.5</ele>
        <time>2019-08-28T09:33:33Z</time>
      </trkpt>
      <trkpt lat="36.5118740" lon="-5.3295050">
        <ele>551.7</ele>
        <time>2019-08-28T09:33:34Z</time>
      </trkpt>
      <trkpt lat="36.5118660" lon="-5.3294780">
        <ele>551.8</ele>
        <time>2019-08-28T09:33:35Z</time>
      </trkpt>
      <trkpt lat="36.5118580" lon="-5.3294510">
        <ele>552.0</ele>
        <time>2019-08-28T09:33:36Z</time>
      </trkpt>
      <trkpt lat="36.5118500" lon="-5.3294250">
        <ele>552.2</ele>
        <time>2019-08-28T09:33:37Z</time>
      </trkpt>
      <trkpt lat="36.5118410" lon="-5.3293980">
        <ele>552.4</ele>
        <time>2019-08-28T09:33:38Z</time>
      </trkpt>
      <trkpt lat="36.5118320" lon="-5.3293720">
        <ele>552.6</ele>
        <time>2019-08-28T09:33:39Z</time>
      </trkpt>
      <trkpt lat="36.5118210" lon="-5.3293460">
        <ele>552.8</ele>
        <time>2019-08-28T09:33:40Z</time>
      </trkpt>
      <trkpt lat="36.5118100" lon="-5.3293210">
        <ele>553.1</ele>
        <time>2019-08-28T09:33:41Z</time>
      </trkpt>
      <trkpt lat="36.5117990" lon="-5.3292950">
        <ele>553.3</ele>
        <time>2019-08-28T09:33:42Z</time>
      </trkpt>
      <trkpt lat="36.5117870" lon="-5.3292700">
        <ele>553.6</ele>
        <time>2019-08-28T09:33:43Z</time>
      </trkpt>
      <trkpt lat="36.5117750" lon="-5.3292460">
        <ele>553.9</ele>
        <time>2019-08-28T09:33:44Z</time>
      </trkpt>
      <trkpt lat="36.5117630" lon="-5.3292210">
        <ele>554.2</ele>
        <time>2019-08-28T09:33:45Z</time>
      </trkpt>
      <trkpt lat="36.5117520" lon="-5.3291970">
        <ele>554.5</ele>
        <time>2019-08-28T09:33:46Z</time>
      </trkpt>
      <trkpt lat="36.5117410" lon="-5.3291730">
        <ele>554.8</ele>
        <time>2019-08-28T09:33:47Z</time>
      </trkpt>
      <trkpt lat="36.5117320" lon="-5.3291510">
        <ele>555.2</ele>
        <time>2019-08-28T09:33:48Z</time>
      </trkpt>
      <trkpt lat="36.5117230" lon="-5.3291280">
        <ele>555.5</ele>
        <time>2019-08-28T09:33:49Z</time>
      </trkpt>
      <trkpt lat="36.5117150" lon="-5.3291050">
        <ele>555.9</ele>
        <time>2019-08-28T09:33:50Z</time>
      </trkpt>
      <trkpt lat="36.5117040" lon="-5.3290840">
        <ele>556.3</ele>
        <time>2019-08-28T09:33:51Z</time>
      </trkpt>
      <trkpt lat="36.5116930" lon="-5.3290630">
        <ele>556.7</ele>
        <time>2019-08-28T09:33:52Z</time>
      </trkpt>
      <trkpt lat="36.5116820" lon="-5.3290420">
        <ele>557.1</ele>
        <time>2019-08-28T09:33:53Z</time>
      </trkpt>
      <trkpt lat="36.5116730" lon="-5.3290190">
        <ele>557.5</ele>
        <time>2019-08-28T09:33:54Z</time>
      </trkpt>
      <trkpt lat="36.5116650" lon="-5.3289960">
        <ele>557.9</ele>
        <time>2019-08-28T09:33:55Z</time>
      </trkpt>
      <trkpt lat="36.5116580" lon="-5.3289720">
        <ele>558.4</ele>
        <time>2019-08-28T09:33:56Z</time>
      </trkpt>
      <trkpt lat="36.5116530" lon="-5.3289470">
        <ele>558.9</ele>
        <time>2019-08-28T09:33:57Z</time>
      </trkpt>
      <trkpt lat="36.5116510" lon="-5.3289210">
        <ele>559.4</ele>
        <time>2019-08-28T09:33:58Z</time>
      </trkpt>
      <trkpt lat="36.5116510" lon="-5.3288950">
        <ele>559.9</ele>
        <time>2019-08-28T09:33:59Z</time>
      </trkpt>
      <trkpt lat="36.5116530" lon="-5.3288680">
        <ele>560.6</ele>
        <time>2019-08-28T09:34:00Z</time>
      </trkpt>
      <trkpt lat="36.5116580" lon="-5.3288430">
        <ele>560.9</ele>
        <time>2019-08-28T09:34:01Z</time>
      </trkpt>
      <trkpt lat="36.5116670" lon="-5.3288190">
        <ele>561.1</ele>
        <time>2019-08-28T09:34:02Z</time>
      </trkpt>
      <trkpt lat="36.5116810" lon="-5.3287980">
        <ele>561.4</ele>
        <time>2019-08-28T09:34:03Z</time>
      </trkpt>
      <trkpt lat="36.5116990" lon="-5.3287790">
        <ele>561.7</ele>
        <time>2019-08-28T09:34:04Z</time>
      </trkpt>
      <trkpt lat="36.5117180" lon="-5.3287630">
        <ele>561.9</ele>
        <time>2019-08-28T09:34:05Z</time>
      </trkpt>
      <trkpt lat="36.5117390" lon="-5.3287490">
        <ele>562.1</ele>
        <time>2019-08-28T09:34:06Z</time>
      </trkpt>
      <trkpt lat="36.5117620" lon="-5.3287390">
        <ele>562.3</ele>
        <time>2019-08-28T09:34:07Z</time>
      </trkpt>
      <trkpt lat="36.5117840" lon="-5.3287350">
        <ele>562.5</ele>
        <time>2019-08-28T09:34:08Z</time>
      </trkpt>
      <trkpt lat="36.5118080" lon="-5.3287370">
        <ele>562.8</ele>
        <time>2019-08-28T09:34:09Z</time>
      </trkpt>
      <trkpt lat="36.5118320" lon="-5.3287440">
        <ele>563.0</ele>
        <time>2019-08-28T09:34:10Z</time>
      </trkpt>
      <trkpt lat="36.5118570" lon="-5.3287540">
        <ele>563.3</ele>
        <time>2019-08-28T09:34:11Z</time>
      </trkpt>
      <trkpt lat="36.5118810" lon="-5.3287650">
        <ele>563.8</ele>
        <time>2019-08-28T09:34:12Z</time>
      </trkpt>
      <trkpt lat="36.5119060" lon="-5.3287790">
        <ele>564.2</ele>
        <time>2019-08-28T09:34:13Z</time>
      </trkpt>
      <trkpt lat="36.5119310" lon="-5.3287930">
        <ele>564.7</ele>
        <time>2019-08-28T09:34:14Z</time>
      </trkpt>
      <trkpt lat="36.5119560" lon="-5.3288080">
        <ele>565.2</ele>
        <time>2019-08-28T09:34:15Z</time>
      </trkpt>
      <trkpt lat="36.5119800" lon="-5.3288240">
        <ele>565.6</ele>
        <time>2019-08-28T09:34:16Z</time>
      </trkpt>
      <trkpt lat="36.5120030" lon="-5.3288410">
        <ele>566.1</ele>
        <time>2019-08-28T09:34:17Z</time>
      </trkpt>
      <trkpt lat="36.5120270" lon="-5.3288560">
        <ele>566.5</ele>
        <time>2019-08-28T09:34:18Z</time>
      </trkpt>
      <trkpt lat="36.5120520" lon="-5.3288710">
        <ele>566.9</ele>
        <time>2019-08-28T09:34:19Z</time>
      </trkpt>
      <trkpt lat="36.5120760" lon="-5.3288860">
        <ele>567.3</ele>
        <time>2019-08-28T09:34:20Z</time>
      </trkpt>
      <trkpt lat="36.5121010" lon="-5.3289000">
        <ele>567.7</ele>
        <time>2019-08-28T09:34:21Z</time>
      </trkpt>
      <trkpt lat="36.5121250" lon="-5.3289150">
        <ele>568.1</ele>
        <time>2019-08-28T09:34:22Z</time>
      </trkpt>
      <trkpt lat="36.5121500" lon="-5.3289310">
        <ele>568.5</ele>
        <time>2019-08-28T09:34:23Z</time>
      </trkpt>
      <trkpt lat="36.5121730" lon="-5.3289460">
        <ele>568.9</ele>
        <time>2019-08-28T09:34:24Z</time>
      </trkpt>
      <trkpt lat="36.5121960" lon="-5.3289610">
        <ele>569.2</ele>
        <time>2019-08-28T09:34:25Z</time>
      </trkpt>
      <trkpt lat="36.5122190" lon="-5.3289760">
        <ele>569.5</ele>
        <time>2019-08-28T09:34:26Z</time>
      </trkpt>
      <trkpt lat="36.5122420" lon="-5.3289910">
        <ele>569.8</ele>
        <time>2019-08-28T09:34:27Z</time>
      </trkpt>
      <trkpt lat="36.5122650" lon="-5.3290060">
        <ele>570.1</ele>
        <time>2019-08-28T09:34:28Z</time>
      </trkpt>
      <trkpt lat="36.5122890" lon="-5.3290210">
        <ele>570.4</ele>
        <time>2019-08-28T09:34:29Z</time>
      </trkpt>
      <trkpt lat="36.5123120" lon="-5.3290360">
        <ele>570.7</ele>
        <time>2019-08-28T09:34:30Z</time>
      </trkpt>
      <trkpt lat="36.5123350" lon="-5.3290520">
        <ele>571.0</ele>
        <time>2019-08-28T09:34:31Z</time>
      </trkpt>
      <trkpt lat="36.5123590" lon="-5.3290680">
        <ele>571.2</ele>
        <time>2019-08-28T09:34:32Z</time>
      </trkpt>
      <trkpt lat="36.5123830" lon="-5.3290830">
        <ele>571.5</ele>
        <time>2019-08-28T09:34:33Z</time>
      </trkpt>
      <trkpt lat="36.5124080" lon="-5.3290990">
        <ele>571.8</ele>
        <time>2019-08-28T09:34:34Z</time>
      </trkpt>
      <trkpt lat="36.5124320" lon="-5.3291150">
        <ele>572.0</ele>
        <time>2019-08-28T09:34:35Z</time>
      </trkpt>
      <trkpt lat="36.5124570" lon="-5.3291320">
        <ele>572.3</ele>
        <time>2019-08-28T09:34:36Z</time>
      </trkpt>
      <trkpt lat="36.5124820" lon="-5.3291480">
        <ele>572.5</ele>
        <time>2019-08-28T09:34:37Z</time>
      </trkpt>
      <trkpt lat="36.5125070" lon="-5.3291640">
        <ele>572.7</ele>
        <time>2019-08-28T09:34:38Z</time>
      </trkpt>
      <trkpt lat="36.5125310" lon="-5.3291810">
        <ele>572.9</ele>
        <time>2019-08-28T09:34:39Z</time>
      </trkpt>
      <trkpt lat="36.5125560" lon="-5.3291980">
        <ele>573.2</ele>
        <time>2019-08-28T09:34:40Z</time>
      </trkpt>
      <trkpt lat="36.5125810" lon="-5.3292140">
        <ele>573.4</ele>
        <time>2019-08-28T09:34:41Z</time>
      </trkpt>
      <trkpt lat="36.5126060" lon="-5.3292290">
        <ele>573.6</ele>
        <time>2019-08-28T09:34:42Z</time>
      </trkpt>
      <trkpt lat="36.5126320" lon="-5.3292450">
        <ele>573.8</ele>
        <time>2019-08-28T09:34:43Z</time>
      </trkpt>
      <trkpt lat="36.5126580" lon="-5.3292620">
        <ele>574.0</ele>
        <time>2019-08-28T09:34:44Z</time>
      </trkpt>
      <trkpt lat="36.5126840" lon="-5.3292800">
        <ele>574.2</ele>
        <time>2019-08-28T09:34:45Z</time>
      </trkpt>
      <trkpt lat="36.5127100" lon="-5.3293000">
        <ele>574.4</ele>
        <time>2019-08-28T09:34:46Z</time>
      </trkpt>
      <trkpt lat="36.5127360" lon="-5.3293200">
        <ele>574.6</ele>
        <time>2019-08-28T09:34:47Z</time>
      </trkpt>
      <trkpt lat="36.5127630" lon="-5.3293400">
        <ele>574.8</ele>
        <time>2019-08-28T09:34:48Z</time>
      </trkpt>
      <trkpt lat="36.5127910" lon="-5.3293590">
        <ele>575.1</ele>
        <time>2019-08-28T09:34:49Z</time>
      </trkpt>
      <trkpt lat="36.5128190" lon="-5.3293780">
        <ele>575.3</ele>
        <time>2019-08-28T09:34:50Z</time>
      </trkpt>
      <trkpt lat="36.5128470" lon="-5.3293980">
        <ele>575.5</ele>
        <time>2019-08-28T09:34:51Z</time>
      </trkpt>
      <trkpt lat="36.5128760" lon="-5.3294190">
        <ele>575.7</ele>
        <time>2019-08-28T09:34:52Z</time>
      </trkpt>
      <trkpt lat="36.5129050" lon="-5.3294400">
        <ele>576.0</ele>
        <time>2019-08-28T09:34:53Z</time>
      </trkpt>
      <trkpt lat="36.5129350" lon="-5.3294580">
        <ele>576.2</ele>
        <time>2019-08-28T09:34:54Z</time>
      </trkpt>
      <trkpt lat="36.5129650" lon="-5.3294760">
        <ele>576.4</ele>
        <time>2019-08-28T09:34:55Z</time>
      </trkpt>
      <trkpt lat="36.5129940" lon="-5.3294930">
        <ele>576.7</ele>
        <time>2019-08-28T09:34:56Z</time>
      </trkpt>
      <trkpt lat="36.5130220" lon="-5.3295110">
        <ele>576.9</ele>
        <time>2019-08-28T09:34:57Z</time>
      </trkpt>
      <trkpt lat="36.5130490" lon="-5.3295290">
        <ele>577.1</ele>
        <time>2019-08-28T09:34:58Z</time>
      </trkpt>
      <trkpt lat="36.5130750" lon="-5.3295450">
        <ele>577.3</ele>
        <time>2019-08-28T09:34:59Z</time>
      </trkpt>
      <trkpt lat="36.5131020" lon="-5.3295590">
        <ele>577.5</ele>
        <time>2019-08-28T09:35:00Z</time>
      </trkpt>
      <trkpt lat="36.5131290" lon="-5.3295720">
        <ele>577.7</ele>
        <time>2019-08-28T09:35:01Z</time>
      </trkpt>
      <trkpt lat="36.5131570" lon="-5.3295870">
        <ele>578.0</ele>
        <time>2019-08-28T09:35:02Z</time>
      </trkpt>
      <trkpt lat="36.5131860" lon="-5.3296010">
        <ele>578.3</ele>
        <time>2019-08-28T09:35:03Z</time>
      </trkpt>
      <trkpt lat="36.5132150" lon="-5.3296140">
        <ele>578.6</ele>
        <time>2019-08-28T09:35:04Z</time>
      </trkpt>
      <trkpt lat="36.5132450" lon="-5.3296270">
        <ele>578.9</ele>
        <time>2019-08-28T09:35:05Z</time>
      </trkpt>
      <trkpt lat="36.5132750" lon="-5.3296400">
        <ele>579.2</ele>
        <time>2019-08-28T09:35:06Z</time>
      </trkpt>
      <trkpt lat="36.5133060" lon="-5.3296540">
        <ele>579.5</ele>
        <time>2019-08-28T09:35:07Z</time>
      </trkpt>
      <trkpt lat="36.5133370" lon="-5.3296670">
        <ele>579.8</ele>
        <time>2019-08-28T09:35:08Z</time>
      </trkpt>
      <trkpt lat="36.5133680" lon="-5.3296790">
        <ele>580.1</ele>
        <time>2019-08-28T09:35:09Z</time>
      </trkpt>
      <trkpt lat="36.5133990" lon="-5.3296890">
        <ele>580.6</ele>
        <time>2019-08-28T09:35:10Z</time>
      </trkpt>
      <trkpt lat="36.5134310" lon="-5.3296990">
        <ele>580.6</ele>
        <time>2019-08-28T09:35:11Z</time>
      </trkpt>
      <trkpt lat="36.5134620" lon="-5.3297080">
        <ele>580.7</ele>
        <time>2019-08-28T09:35:12Z</time>
      </trkpt>
      <trkpt lat="36.5134930" lon="-5.3297150">
        <ele>580.7</ele>
        <time>2019-08-28T09:35:13Z</time>
      </trkpt>
      <trkpt lat="36.5135250" lon="-5.3297200">
        <ele>580.7</ele>
        <time>2019-08-28T09:35:14Z</time>
      </trkpt>
      <trkpt lat="36.5135570" lon="-5.3297250">
        <ele>580.7</ele>
        <time>2019-08-28T09:35:15Z</time>
      </trkpt>
      <trkpt lat="36.5135900" lon="-5.3297280">
        <ele>580.8</ele>
        <time>2019-08-28T09:35:16Z</time>
      </trkpt>
      <trkpt lat="36.5136220" lon="-5.3297300">
        <ele>580.8</ele>
        <time>2019-08-28T09:35:17Z</time>
      </trkpt>
      <trkpt lat="36.5136540" lon="-5.3297300">
        <ele>580.8</ele>
        <time>2019-08-28T09:35:18Z</time>
      </trkpt>
      <trkpt lat="36.5136870" lon="-5.3297290">
        <ele>580.8</ele>
        <time>2019-08-28T09:35:19Z</time>
      </trkpt>
      <trkpt lat="36.5137200" lon="-5.3297260">
        <ele>580.9</ele>
        <time>2019-08-28T09:35:20Z</time>
      </trkpt>
      <trkpt lat="36.5137530" lon="-5.3297230">
        <ele>580.9</ele>
        <time>2019-08-28T09:35:21Z</time>
      </trkpt>
      <trkpt lat="36.5137860" lon="-5.3297190">
        <ele>580.9</ele>
        <time>2019-08-28T09:35:22Z</time>
      </trkpt>
      <trkpt lat="36.5138180" lon="-5.3297130">
        <ele>580.9</ele>
        <time>2019-08-28T09:35:23Z</time>
      </trkpt>
      <trkpt lat="36.5138510" lon="-5.3297050">
        <ele>580.9</ele>
        <time>2019-08-28T09:35:24Z</time>
      </trkpt>
      <trkpt lat="36.5138840" lon="-5.3296930">
        <ele>581.0</ele>
        <time>2019-08-28T09:35:25Z</time>
      </trkpt>
      <trkpt lat="36.5139170" lon="-5.3296820">
        <ele>581.0</ele>
        <time>2019-08-28T09:35:26Z</time>
      </trkpt>
      <trkpt lat="36.5139500" lon="-5.3296710">
        <ele>581.0</ele>
        <time>2019-08-28T09:35:27Z</time>
      </trkpt>
      <trkpt lat="36.5139830" lon="-5.3296620">
        <ele>581.0</ele>
        <time>2019-08-28T09:35:28Z</time>
      </trkpt>
      <trkpt lat="36.5140150" lon="-5.3296550">
        <ele>581.1</ele>
        <time>2019-08-28T09:35:29Z</time>
      </trkpt>
      <trkpt lat="36.5140480" lon="-5.3296480">
        <ele>581.1</ele>
        <time>2019-08-28T09:35:30Z</time>
      </trkpt>
      <trkpt lat="36.5140810" lon="-5.3296380">
        <ele>581.1</ele>
        <time>2019-08-28T09:35:31Z</time>
      </trkpt>
      <trkpt lat="36.5141130" lon="-5.3296250">
        <ele>581.1</ele>
        <time>2019-08-28T09:35:32Z</time>
      </trkpt>
      <trkpt lat="36.5141430" lon="-5.3296130">
        <ele>581.1</ele>
        <time>2019-08-28T09:35:33Z</time>
      </trkpt>
      <trkpt lat="36.5141740" lon="-5.3296010">
        <ele>581.2</ele>
        <time>2019-08-28T09:35:34Z</time>
      </trkpt>
      <trkpt lat="36.5142050" lon="-5.3295910">
        <ele>581.2</ele>
        <time>2019-08-28T09:35:35Z</time>
      </trkpt>
      <trkpt lat="36.5142350" lon="-5.3295790">
        <ele>581.2</ele>
        <time>2019-08-28T09:35:36Z</time>
      </trkpt>
      <trkpt lat="36.5142650" lon="-5.3295660">
        <ele>581.2</ele>
        <time>2019-08-28T09:35:37Z</time>
      </trkpt>
      <trkpt lat="36.5142950" lon="-5.3295530">
        <ele>581.2</ele>
        <time>2019-08-28T09:35:38Z</time>
      </trkpt>
      <trkpt lat="36.5143240" lon="-5.3295400">
        <ele>581.3</ele>
        <time>2019-08-28T09:35:39Z</time>
      </trkpt>
      <trkpt lat="36.5143530" lon="-5.3295270">
        <ele>581.3</ele>
        <time>2019-08-28T09:35:40Z</time>
      </trkpt>
      <trkpt lat="36.5143810" lon="-5.3295150">
        <ele>581.3</ele>
        <time>2019-08-28T09:35:41Z</time>
      </trkpt>
      <trkpt lat="36.5144090" lon="-5.3295020">
        <ele>581.3</ele>
        <time>2019-08-28T09:35:42Z</time>
      </trkpt>
      <trkpt lat="36.5144370" lon="-5.3294880">
        <ele>581.4</ele>
        <time>2019-08-28T09:35:43Z</time>
      </trkpt>
      <trkpt lat="36.5144640" lon="-5.3294750">
        <ele>581.4</ele>
        <time>2019-08-28T09:35:44Z</time>
      </trkpt>
      <trkpt lat="36.5144920" lon="-5.3294620">
        <ele>581.4</ele>
        <time>2019-08-28T09:35:45Z</time>
      </trkpt>
      <trkpt lat="36.5145200" lon="-5.3294510">
        <ele>581.4</ele>
        <time>2019-08-28T09:35:46Z</time>
      </trkpt>
      <trkpt lat="36.5145490" lon="-5.3294390">
        <ele>581.5</ele>
        <time>2019-08-28T09:35:47Z</time>
      </trkpt>
      <trkpt lat="36.5145770" lon="-5.3294240">
        <ele>581.5</ele>
        <time>2019-08-28T09:35:48Z</time>
      </trkpt>
      <trkpt lat="36.5146040" lon="-5.3294080">
        <ele>581.5</ele>
        <time>2019-08-28T09:35:49Z</time>
      </trkpt>
      <trkpt lat="36.5146310" lon="-5.3293920">
        <ele>581.5</ele>
        <time>2019-08-28T09:35:50Z</time>
      </trkpt>
      <trkpt lat="36.5146600" lon="-5.3293770">
        <ele>581.5</ele>
        <time>2019-08-28T09:35:51Z</time>
      </trkpt>
      <trkpt lat="36.5146890" lon="-5.3293610">
        <ele>581.6</ele>
        <time>2019-08-28T09:35:52Z</time>
      </trkpt>
      <trkpt lat="36.5147180" lon="-5.3293430">
        <ele>581.6</ele>
        <time>2019-08-28T09:35:53Z</time>
      </trkpt>
      <trkpt lat="36.5147470" lon="-5.3293230">
        <ele>581.6</ele>
        <time>2019-08-28T09:35:54Z</time>
      </trkpt>
      <trkpt lat="36.5147770" lon="-5.3293040">
        <ele>581.7</ele>
        <time>2019-08-28T09:35:55Z</time>
      </trkpt>
      <trkpt lat="36.5148070" lon="-5.3292840">
        <ele>581.7</ele>
        <time>2019-08-28T09:35:56Z</time>
      </trkpt>
      <trkpt lat="36.5148370" lon="-5.3292640">
        <ele>581.8</ele>
        <time>2019-08-28T09:35:57Z</time>
      </trkpt>
      <trkpt lat="36.5148680" lon="-5.3292450">
        <ele>581.8</ele>
        <time>2019-08-28T09:35:58Z</time>
      </trkpt>
      <trkpt lat="36.5148990" lon="-5.3292270">
        <ele>581.9</ele>
        <time>2019-08-28T09:35:59Z</time>
      </trkpt>
      <trkpt lat="36.5149310" lon="-5.3292100">
        <ele>582.0</ele>
        <time>2019-08-28T09:36:00Z</time>
      </trkpt>
      <trkpt lat="36.5149630" lon="-5.3291940">
        <ele>582.0</ele>
        <time>2019-08-28T09:36:01Z</time>
      </trkpt>
      <trkpt lat="36.5149960" lon="-5.3291780">
        <ele>582.1</ele>
        <time>2019-08-28T09:36:02Z</time>
      </trkpt>
      <trkpt lat="36.5150280" lon="-5.3291610">
        <ele>582.2</ele>
        <time>2019-08-28T09:36:03Z</time>
      </trkpt>
      <trkpt lat="36.5150600" lon="-5.3291450">
        <ele>582.3</ele>
        <time>2019-08-28T09:36:04Z</time>
      </trkpt>
      <trkpt lat="36.5150920" lon="-5.3291300">
        <ele>582.4</ele>
        <time>2019-08-28T09:36:05Z</time>
      </trkpt>
      <trkpt lat="36.5151260" lon="-5.3291160">
        <ele>582.6</ele>
        <time>2019-08-28T09:36:06Z</time>
      </trkpt>
      <trkpt lat="36.5151620" lon="-5.3291020">
        <ele>582.8</ele>
        <time>2019-08-28T09:36:07Z</time>
      </trkpt>
      <trkpt lat="36.5151990" lon="-5.3290870">
        <ele>582.9</ele>
        <time>2019-08-28T09:36:08Z</time>
      </trkpt>
      <trkpt lat="36.5152370" lon="-5.3290720">
        <ele>583.1</ele>
        <time>2019-08-28T09:36:09Z</time>
      </trkpt>
      <trkpt lat="36.5152750" lon="-5.3290580">
        <ele>583.4</ele>
        <time>2019-08-28T09:36:10Z</time>
      </trkpt>
      <trkpt lat="36.5153150" lon="-5.3290450">
        <ele>583.6</ele>
        <time>2019-08-28T09:36:11Z</time>
      </trkpt>
      <trkpt lat="36.5153570" lon="-5.3290340">
        <ele>583.9</ele>
        <time>2019-08-28T09:36:12Z</time>
      </trkpt>
      <trkpt lat="36.5154010" lon="-5.3290250">
        <ele>584.2</ele>
        <time>2019-08-28T09:36:13Z</time>
      </trkpt>
      <trkpt lat="36.5154470" lon="-5.3290170">
        <ele>584.5</ele>
        <time>2019-08-28T09:36:14Z</time>
      </trkpt>
      <trkpt lat="36.5154940" lon="-5.3290090">
        <ele>584.8</ele>
        <time>2019-08-28T09:36:15Z</time>
      </trkpt>
      <trkpt lat="36.5155410" lon="-5.3290010">
        <ele>585.2</ele>
        <time>2019-08-28T09:36:16Z</time>
      </trkpt>
      <trkpt lat="36.5155890" lon="-5.3289930">
        <ele>585.5</ele>
        <time>2019-08-28T09:36:17Z</time>
      </trkpt>
      <trkpt lat="36.5156370" lon="-5.3289860">
        <ele>585.8</ele>
        <time>2019-08-28T09:36:18Z</time>
      </trkpt>
      <trkpt lat="36.5156860" lon="-5.3289790">
        <ele>586.1</ele>
        <time>2019-08-28T09:36:19Z</time>
      </trkpt>
      <trkpt lat="36.5157360" lon="-5.3289740">
        <ele>586.4</ele>
        <time>2019-08-28T09:36:20Z</time>
      </trkpt>
      <trkpt lat="36.5157860" lon="-5.3289680">
        <ele>586.7</ele>
        <time>2019-08-28T09:36:21Z</time>
      </trkpt>
      <trkpt lat="36.5158380" lon="-5.3289630">
        <ele>587.0</ele>
        <time>2019-08-28T09:36:22Z</time>
      </trkpt>
      <trkpt lat="36.5158890" lon="-5.3289560">
        <ele>587.2</ele>
        <time>2019-08-28T09:36:23Z</time>
      </trkpt>
      <trkpt lat="36.5159420" lon="-5.3289500">
        <ele>587.4</ele>
        <time>2019-08-28T09:36:24Z</time>
      </trkpt>
      <trkpt lat="36.5159950" lon="-5.3289440">
        <ele>587.6</ele>
        <time>2019-08-28T09:36:25Z</time>
      </trkpt>
      <trkpt lat="36.5160500" lon="-5.3289390">
        <ele>587.8</ele>
        <time>2019-08-28T09:36:26Z</time>
      </trkpt>
      <trkpt lat="36.5161050" lon="-5.3289350">
        <ele>588.1</ele>
        <time>2019-08-28T09:36:27Z</time>
      </trkpt>
      <trkpt lat="36.5161610" lon="-5.3289320">
        <ele>588.3</ele>
        <time>2019-08-28T09:36:28Z</time>
      </trkpt>
      <trkpt lat="36.5162170" lon="-5.3289270">
        <ele>588.4</ele>
        <time>2019-08-28T09:36:29Z</time>
      </trkpt>
      <trkpt lat="36.5162720" lon="-5.3289200">
        <ele>588.6</ele>
        <time>2019-08-28T09:36:30Z</time>
      </trkpt>
      <trkpt lat="36.5163270" lon="-5.3289120">
        <ele>588.9</ele>
        <time>2019-08-28T09:36:31Z</time>
      </trkpt>
      <trkpt lat="36.5163810" lon="-5.3289020">
        <ele>589.1</ele>
        <time>2019-08-28T09:36:32Z</time>
      </trkpt>
      <trkpt lat="36.5164340" lon="-5.3288900">
        <ele>589.4</ele>
        <time>2019-08-28T09:36:33Z</time>
      </trkpt>
      <trkpt lat="36.5164850" lon="-5.3288780">
        <ele>589.5</ele>
        <time>2019-08-28T09:36:34Z</time>
      </trkpt>
      <trkpt lat="36.5165330" lon="-5.3288660">
        <ele>589.7</ele>
        <time>2019-08-28T09:36:35Z</time>
      </trkpt>
      <trkpt lat="36.5165800" lon="-5.3288540">
        <ele>589.8</ele>
        <time>2019-08-28T09:36:36Z</time>
      </trkpt>
      <trkpt lat="36.5166240" lon="-5.3288420">
        <ele>590.0</ele>
        <time>2019-08-28T09:36:37Z</time>
      </trkpt>
      <trkpt lat="36.5166670" lon="-5.3288290">
        <ele>590.1</ele>
        <time>2019-08-28T09:36:38Z</time>
      </trkpt>
      <trkpt lat="36.5167080" lon="-5.3288170">
        <ele>590.3</ele>
        <time>2019-08-28T09:36:39Z</time>
      </trkpt>
      <trkpt lat="36.5167480" lon="-5.3288040">
        <ele>590.4</ele>
        <time>2019-08-28T09:36:40Z</time>
      </trkpt>
      <trkpt lat="36.5167870" lon="-5.3287900">
        <ele>590.5</ele>
        <time>2019-08-28T09:36:41Z</time>
      </trkpt>
      <trkpt lat="36.5168230" lon="-5.3287750">
        <ele>590.6</ele>
        <time>2019-08-28T09:36:42Z</time>
      </trkpt>
      <trkpt lat="36.5168570" lon="-5.3287590">
        <ele>590.7</ele>
        <time>2019-08-28T09:36:43Z</time>
      </trkpt>
      <trkpt lat="36.5168900" lon="-5.3287430">
        <ele>590.7</ele>
        <time>2019-08-28T09:36:44Z</time>
      </trkpt>
      <trkpt lat="36.5169220" lon="-5.3287270">
        <ele>590.8</ele>
        <time>2019-08-28T09:36:45Z</time>
      </trkpt>
      <trkpt lat="36.5169540" lon="-5.3287090">
        <ele>590.8</ele>
        <time>2019-08-28T09:36:46Z</time>
      </trkpt>
      <trkpt lat="36.5169840" lon="-5.3286900">
        <ele>590.9</ele>
        <time>2019-08-28T09:36:47Z</time>
      </trkpt>
      <trkpt lat="36.5170150" lon="-5.3286690">
        <ele>590.9</ele>
        <time>2019-08-28T09:36:48Z</time>
      </trkpt>
      <trkpt lat="36.5170450" lon="-5.3286480">
        <ele>590.9</ele>
        <time>2019-08-28T09:36:49Z</time>
      </trkpt>
      <trkpt lat="36.5170760" lon="-5.3286260">
        <ele>591.0</ele>
        <time>2019-08-28T09:36:50Z</time>
      </trkpt>
      <trkpt lat="36.5171070" lon="-5.3286030">
        <ele>591.0</ele>
        <time>2019-08-28T09:36:51Z</time>
      </trkpt>
      <trkpt lat="36.5171380" lon="-5.3285790">
        <ele>591.1</ele>
        <time>2019-08-28T09:36:52Z</time>
      </trkpt>
      <trkpt lat="36.5171690" lon="-5.3285530">
        <ele>591.1</ele>
        <time>2019-08-28T09:36:53Z</time>
      </trkpt>
      <trkpt lat="36.5171980" lon="-5.3285250">
        <ele>591.2</ele>
        <time>2019-08-28T09:36:54Z</time>
      </trkpt>
      <trkpt lat="36.5172240" lon="-5.3284930">
        <ele>591.2</ele>
        <time>2019-08-28T09:36:55Z</time>
      </trkpt>
      <trkpt lat="36.5172480" lon="-5.3284570">
        <ele>591.3</ele>
        <time>2019-08-28T09:36:56Z</time>
      </trkpt>
      <trkpt lat="36.5172700" lon="-5.3284190">
        <ele>591.3</ele>
        <time>2019-08-28T09:36:57Z</time>
      </trkpt>
      <trkpt lat="36.5172920" lon="-5.3283800">
        <ele>591.4</ele>
        <time>2019-08-28T09:36:58Z</time>
      </trkpt>
      <trkpt lat="36.5173140" lon="-5.3283400">
        <ele>591.5</ele>
        <time>2019-08-28T09:36:59Z</time>
      </trkpt>
      <trkpt lat="36.5173360" lon="-5.3283000">
        <ele>591.6</ele>
        <time>2019-08-28T09:37:00Z</time>
      </trkpt>
      <trkpt lat="36.5173580" lon="-5.3282610">
        <ele>591.7</ele>
        <time>2019-08-28T09:37:01Z</time>
      </trkpt>
      <trkpt lat="36.5173800" lon="-5.3282210">
        <ele>591.8</ele>
        <time>2019-08-28T09:37:02Z</time>
      </trkpt>
      <trkpt lat="36.5174020" lon="-5.3281810">
        <ele>591.9</ele>
        <time>2019-08-28T09:37:03Z</time>
      </trkpt>
      <trkpt lat="36.5174230" lon="-5.3281390">
        <ele>592.0</ele>
        <time>2019-08-28T09:37:04Z</time>
      </trkpt>
      <trkpt lat="36.5174430" lon="-5.3280980">
        <ele>592.0</ele>
        <time>2019-08-28T09:37:05Z</time>
      </trkpt>
      <trkpt lat="36.5174630" lon="-5.3280550">
        <ele>592.1</ele>
        <time>2019-08-28T09:37:06Z</time>
      </trkpt>
      <trkpt lat="36.5174820" lon="-5.3280120">
        <ele>592.2</ele>
        <time>2019-08-28T09:37:07Z</time>
      </trkpt>
      <trkpt lat="36.5175010" lon="-5.3279680">
        <ele>592.3</ele>
        <time>2019-08-28T09:37:08Z</time>
      </trkpt>
      <trkpt lat="36.5175210" lon="-5.3279250">
        <ele>592.4</ele>
        <time>2019-08-28T09:37:09Z</time>
      </trkpt>
      <trkpt lat="36.5175420" lon="-5.3278810">
        <ele>592.5</ele>
        <time>2019-08-28T09:37:10Z</time>
      </trkpt>
      <trkpt lat="36.5175630" lon="-5.3278360">
        <ele>592.7</ele>
        <time>2019-08-28T09:37:11Z</time>
      </trkpt>
      <trkpt lat="36.5175830" lon="-5.3277890">
        <ele>592.8</ele>
        <time>2019-08-28T09:37:12Z</time>
      </trkpt>
      <trkpt lat="36.5176030" lon="-5.3277410">
        <ele>592.9</ele>
        <time>2019-08-28T09:37:13Z</time>
      </trkpt>
      <trkpt lat="36.5176230" lon="-5.3276920">
        <ele>593.0</ele>
        <time>2019-08-28T09:37:14Z</time>
      </trkpt>
      <trkpt lat="36.5176450" lon="-5.3276420">
        <ele>593.1</ele>
        <time>2019-08-28T09:37:15Z</time>
      </trkpt>
      <trkpt lat="36.5176680" lon="-5.3275920">
        <ele>593.3</ele>
        <time>2019-08-28T09:37:16Z</time>
      </trkpt>
      <trkpt lat="36.5176900" lon="-5.3275410">
        <ele>593.5</ele>
        <time>2019-08-28T09:37:17Z</time>
      </trkpt>
      <trkpt lat="36.5177130" lon="-5.3274880">
        <ele>593.7</ele>
        <time>2019-08-28T09:37:18Z</time>
      </trkpt>
      <trkpt lat="36.5177350" lon="-5.3274350">
        <ele>593.9</ele>
        <time>2019-08-28T09:37:19Z</time>
      </trkpt>
      <trkpt lat="36.5177580" lon="-5.3273810">
        <ele>594.1</ele>
        <time>2019-08-28T09:37:20Z</time>
      </trkpt>
      <trkpt lat="36.5177810" lon="-5.3273270">
        <ele>594.4</ele>
        <time>2019-08-28T09:37:21Z</time>
      </trkpt>
      <trkpt lat="36.5178040" lon="-5.3272730">
        <ele>594.7</ele>
        <time>2019-08-28T09:37:22Z</time>
      </trkpt>
      <trkpt lat="36.5178270" lon="-5.3272190">
        <ele>595.1</ele>
        <time>2019-08-28T09:37:23Z</time>
      </trkpt>
      <trkpt lat="36.5178490" lon="-5.3271660">
        <ele>595.4</ele>
        <time>2019-08-28T09:37:24Z</time>
      </trkpt>
      <trkpt lat="36.5178720" lon="-5.3271130">
        <ele>595.8</ele>
        <time>2019-08-28T09:37:25Z</time>
      </trkpt>
      <trkpt lat="36.5178940" lon="-5.3270600">
        <ele>596.2</ele>
        <time>2019-08-28T09:37:26Z</time>
      </trkpt>
      <trkpt lat="36.5179150" lon="-5.3270090">
        <ele>596.6</ele>
        <time>2019-08-28T09:37:27Z</time>
      </trkpt>
      <trkpt lat="36.5179360" lon="-5.3269580">
        <ele>596.9</ele>
        <time>2019-08-28T09:37:28Z</time>
      </trkpt>
      <trkpt lat="36.5179550" lon="-5.3269090">
        <ele>597.3</ele>
        <time>2019-08-28T09:37:29Z</time>
      </trkpt>
      <trkpt lat="36.5179750" lon="-5.3268600">
        <ele>597.6</ele>
        <time>2019-08-28T09:37:30Z</time>
      </trkpt>
      <trkpt lat="36.5179950" lon="-5.3268130">
        <ele>597.9</ele>
        <time>2019-08-28T09:37:31Z</time>
      </trkpt>
      <trkpt lat="36.5180150" lon="-5.3267660">
        <ele>598.4</ele>
        <time>2019-08-28T09:37:32Z</time>
      </trkpt>
      <trkpt lat="36.5180350" lon="-5.3267210">
        <ele>598.9</ele>
        <time>2019-08-28T09:37:33Z</time>
      </trkpt>
      <trkpt lat="36.5180560" lon="-5.3266770">
        <ele>599.4</ele>
        <time>2019-08-28T09:37:34Z</time>
      </trkpt>
      <trkpt lat="36.5180780" lon="-5.3266330">
        <ele>599.9</ele>
        <time>2019-08-28T09:37:35Z</time>
      </trkpt>
      <trkpt lat="36.5181010" lon="-5.3265900">
        <ele>600.3</ele>
        <time>2019-08-28T09:37:36Z</time>
      </trkpt>
      <trkpt lat="36.5181250" lon="-5.3265490">
        <ele>600.7</ele>
        <time>2019-08-28T09:37:37Z</time>
      </trkpt>
      <trkpt lat="36.5181510" lon="-5.3265080">
        <ele>601.1</ele>
        <time>2019-08-28T09:37:38Z</time>
      </trkpt>
      <trkpt lat="36.5181790" lon="-5.3264690">
        <ele>601.4</ele>
        <time>2019-08-28T09:37:39Z</time>
      </trkpt>
      <trkpt lat="36.5182080" lon="-5.3264310">
        <ele>601.8</ele>
        <time>2019-08-28T09:37:40Z</time>
      </trkpt>
      <trkpt lat="36.5182380" lon="-5.3263950">
        <ele>602.1</ele>
        <time>2019-08-28T09:37:41Z</time>
      </trkpt>
      <trkpt lat="36.5182690" lon="-5.3263600">
        <ele>602.5</ele>
        <time>2019-08-28T09:37:42Z</time>
      </trkpt>
      <trkpt lat="36.5183010" lon="-5.3263260">
        <ele>602.7</ele>
        <time>2019-08-28T09:37:43Z</time>
      </trkpt>
      <trkpt lat="36.5183350" lon="-5.3262950">
        <ele>603.0</ele>
        <time>2019-08-28T09:37:44Z</time>
      </trkpt>
      <trkpt lat="36.5183680" lon="-5.3262630">
        <ele>603.3</ele>
        <time>2019-08-28T09:37:45Z</time>
      </trkpt>
      <trkpt lat="36.5184010" lon="-5.3262330">
        <ele>603.5</ele>
        <time>2019-08-28T09:37:46Z</time>
      </trkpt>
      <trkpt lat="36.5184340" lon="-5.3262030">
        <ele>603.8</ele>
        <time>2019-08-28T09:37:47Z</time>
      </trkpt>
      <trkpt lat="36.5184680" lon="-5.3261750">
        <ele>604.0</ele>
        <time>2019-08-28T09:37:48Z</time>
      </trkpt>
      <trkpt lat="36.5185010" lon="-5.3261480">
        <ele>604.3</ele>
        <time>2019-08-28T09:37:49Z</time>
      </trkpt>
      <trkpt lat="36.5185340" lon="-5.3261210">
        <ele>604.5</ele>
        <time>2019-08-28T09:37:50Z</time>
      </trkpt>
      <trkpt lat="36.5185670" lon="-5.3260950">
        <ele>604.8</ele>
        <time>2019-08-28T09:37:51Z</time>
      </trkpt>
      <trkpt lat="36.5185980" lon="-5.3260690">
        <ele>605.0</ele>
        <time>2019-08-28T09:37:52Z</time>
      </trkpt>
      <trkpt lat="36.5186300" lon="-5.3260430">
        <ele>605.3</ele>
        <time>2019-08-28T09:37:53Z</time>
      </trkpt>
      <trkpt lat="36.5186610" lon="-5.3260160">
        <ele>605.5</ele>
        <time>2019-08-28T09:37:54Z</time>
      </trkpt>
      <trkpt lat="36.5186920" lon="-5.3259900">
        <ele>605.8</ele>
        <time>2019-08-28T09:37:55Z</time>
      </trkpt>
      <trkpt lat="36.5187240" lon="-5.3259640">
        <ele>606.1</ele>
        <time>2019-08-28T09:37:56Z</time>
      </trkpt>
      <trkpt lat="36.5187550" lon="-5.3259390">
        <ele>606.3</ele>
        <time>2019-08-28T09:37:57Z</time>
      </trkpt>
      <trkpt lat="36.5187860" lon="-5.3259120">
        <ele>606.6</ele>
        <time>2019-08-28T09:37:58Z</time>
      </trkpt>
      <trkpt lat="36.5188170" lon="-5.3258860">
        <ele>606.9</ele>
        <time>2019-08-28T09:37:59Z</time>
      </trkpt>
      <trkpt lat="36.5188470" lon="-5.3258590">
        <ele>607.1</ele>
        <time>2019-08-28T09:38:00Z</time>
      </trkpt>
      <trkpt lat="36.5188780" lon="-5.3258330">
        <ele>607.5</ele>
        <time>2019-08-28T09:38:01Z</time>
      </trkpt>
      <trkpt lat="36.5189090" lon="-5.3258060">
        <ele>607.9</ele>
        <time>2019-08-28T09:38:02Z</time>
      </trkpt>
      <trkpt lat="36.5189390" lon="-5.3257780">
        <ele>608.3</ele>
        <time>2019-08-28T09:38:03Z</time>
      </trkpt>
      <trkpt lat="36.5189690" lon="-5.3257490">
        <ele>608.8</ele>
        <time>2019-08-28T09:38:04Z</time>
      </trkpt>
      <trkpt lat="36.5189970" lon="-5.3257180">
        <ele>609.3</ele>
        <time>2019-08-28T09:38:05Z</time>
      </trkpt>
      <trkpt lat="36.5190230" lon="-5.3256860">
        <ele>609.7</ele>
        <time>2019-08-28T09:38:06Z</time>
      </trkpt>
      <trkpt lat="36.5190450" lon="-5.3256510">
        <ele>610.1</ele>
        <time>2019-08-28T09:38:07Z</time>
      </trkpt>
      <trkpt lat="36.5190650" lon="-5.3256140">
        <ele>610.5</ele>
        <time>2019-08-28T09:38:08Z</time>
      </trkpt>
      <trkpt lat="36.5190820" lon="-5.3255730">
        <ele>611.0</ele>
        <time>2019-08-28T09:38:09Z</time>
      </trkpt>
      <trkpt lat="36.5190960" lon="-5.3255300">
        <ele>611.4</ele>
        <time>2019-08-28T09:38:10Z</time>
      </trkpt>
      <trkpt lat="36.5191090" lon="-5.3254880">
        <ele>611.9</ele>
        <time>2019-08-28T09:38:11Z</time>
      </trkpt>
      <trkpt lat="36.5191210" lon="-5.3254450">
        <ele>612.3</ele>
        <time>2019-08-28T09:38:12Z</time>
      </trkpt>
      <trkpt lat="36.5191340" lon="-5.3254020">
        <ele>612.8</ele>
        <time>2019-08-28T09:38:13Z</time>
      </trkpt>
      <trkpt lat="36.5191460" lon="-5.3253600">
        <ele>613.2</ele>
        <time>2019-08-28T09:38:14Z</time>
      </trkpt>
      <trkpt lat="36.5191570" lon="-5.3253170">
        <ele>613.7</ele>
        <time>2019-08-28T09:38:15Z</time>
      </trkpt>
      <trkpt lat="36.5191680" lon="-5.3252740">
        <ele>614.1</ele>
        <time>2019-08-28T09:38:16Z</time>
      </trkpt>
      <trkpt lat="36.5191800" lon="-5.3252300">
        <ele>614.6</ele>
        <time>2019-08-28T09:38:17Z</time>
      </trkpt>
      <trkpt lat="36.5191910" lon="-5.3251880">
        <ele>615.0</ele>
        <time>2019-08-28T09:38:18Z</time>
      </trkpt>
      <trkpt lat="36.5192030" lon="-5.3251450">
        <ele>615.4</ele>
        <time>2019-08-28T09:38:19Z</time>
      </trkpt>
      <trkpt lat="36.5192140" lon="-5.3251010">
        <ele>615.8</ele>
        <time>2019-08-28T09:38:20Z</time>
      </trkpt>
      <trkpt lat="36.5192250" lon="-5.3250580">
        <ele>616.2</ele>
        <time>2019-08-28T09:38:21Z</time>
      </trkpt>
      <trkpt lat="36.5192350" lon="-5.3250140">
        <ele>616.6</ele>
        <time>2019-08-28T09:38:22Z</time>
      </trkpt>
      <trkpt lat="36.5192440" lon="-5.3249700">
        <ele>617.0</ele>
        <time>2019-08-28T09:38:23Z</time>
      </trkpt>
      <trkpt lat="36.5192520" lon="-5.3249260">
        <ele>617.3</ele>
        <time>2019-08-28T09:38:24Z</time>
      </trkpt>
      <trkpt lat="36.5192590" lon="-5.3248810">
        <ele>617.7</ele>
        <time>2019-08-28T09:38:25Z</time>
      </trkpt>
      <trkpt lat="36.5192640" lon="-5.3248370">
        <ele>618.1</ele>
        <time>2019-08-28T09:38:26Z</time>
      </trkpt>
      <trkpt lat="36.5192690" lon="-5.3247940">
        <ele>618.4</ele>
        <time>2019-08-28T09:38:27Z</time>
      </trkpt>
      <trkpt lat="36.5192720" lon="-5.3247510">
        <ele>618.8</ele>
        <time>2019-08-28T09:38:28Z</time>
      </trkpt>
      <trkpt lat="36.5192730" lon="-5.3247080">
        <ele>618.2</ele>
        <time>2019-08-28T09:38:29Z</time>
      </trkpt>
      <trkpt lat="36.5192710" lon="-5.3246650">
        <ele>617.9</ele>
        <time>2019-08-28T09:38:30Z</time>
      </trkpt>
      <trkpt lat="36.5192670" lon="-5.3246230">
        <ele>617.6</ele>
        <time>2019-08-28T09:38:31Z</time>
      </trkpt>
      <trkpt lat="36.5192600" lon="-5.3245830">
        <ele>617.3</ele>
        <time>2019-08-28T09:38:32Z</time>
      </trkpt>
      <trkpt lat="36.5192530" lon="-5.3245440">
        <ele>617.0</ele>
        <time>2019-08-28T09:38:33Z</time>
      </trkpt>
      <trkpt lat="36.5192450" lon="-5.3245070">
        <ele>616.8</ele>
        <time>2019-08-28T09:38:34Z</time>
      </trkpt>
      <trkpt lat="36.5192360" lon="-5.3244700">
        <ele>616.6</ele>
        <time>2019-08-28T09:38:35Z</time>
      </trkpt>
      <trkpt lat="36.5192280" lon="-5.3244340">
        <ele>616.4</ele>
        <time>2019-08-28T09:38:36Z</time>
      </trkpt>
      <trkpt lat="36.5192210" lon="-5.3243970">
        <ele>616.2</ele>
        <time>2019-08-28T09:38:37Z</time>
      </trkpt>
      <trkpt lat="36.5192130" lon="-5.3243600">
        <ele>616.0</ele>
        <time>2019-08-28T09:38:38Z</time>
      </trkpt>
      <trkpt lat="36.5192030" lon="-5.3243230">
        <ele>615.8</ele>
        <time>2019-08-28T09:38:39Z</time>
      </trkpt>
      <trkpt lat="36.5191920" lon="-5.3242850">
        <ele>615.6</ele>
        <time>2019-08-28T09:38:40Z</time>
      </trkpt>
      <trkpt lat="36.5191800" lon="-5.3242490">
        <ele>615.4</ele>
        <time>2019-08-28T09:38:41Z</time>
      </trkpt>
      <trkpt lat="36.5191680" lon="-5.3242130">
        <ele>615.2</ele>
        <time>2019-08-28T09:38:42Z</time>
      </trkpt>
      <trkpt lat="36.5191550" lon="-5.3241780">
        <ele>615.0</ele>
        <time>2019-08-28T09:38:43Z</time>
      </trkpt>
      <trkpt lat="36.5191410" lon="-5.3241430">
        <ele>614.8</ele>
        <time>2019-08-28T09:38:44Z</time>
      </trkpt>
      <trkpt lat="36.5191260" lon="-5.3241080">
        <ele>614.7</ele>
        <time>2019-08-28T09:38:45Z</time>
      </trkpt>
      <trkpt lat="36.5191110" lon="-5.3240740">
        <ele>614.5</ele>
        <time>2019-08-28T09:38:46Z</time>
      </trkpt>
      <trkpt lat="36.5190960" lon="-5.3240410">
        <ele>614.3</ele>
        <time>2019-08-28T09:38:47Z</time>
      </trkpt>
      <trkpt lat="36.5190780" lon="-5.3240100">
        <ele>614.2</ele>
        <time>2019-08-28T09:38:48Z</time>
      </trkpt>
      <trkpt lat="36.5190590" lon="-5.3239810">
        <ele>614.1</ele>
        <time>2019-08-28T09:38:49Z</time>
      </trkpt>
      <trkpt lat="36.5190380" lon="-5.3239530">
        <ele>613.9</ele>
        <time>2019-08-28T09:38:50Z</time>
      </trkpt>
      <trkpt lat="36.5190180" lon="-5.3239250">
        <ele>613.8</ele>
        <time>2019-08-28T09:38:51Z</time>
      </trkpt>
      <trkpt lat="36.5189970" lon="-5.3239000">
        <ele>613.7</ele>
        <time>2019-08-28T09:38:52Z</time>
      </trkpt>
      <trkpt lat="36.5189760" lon="-5.3238770">
        <ele>613.5</ele>
        <time>2019-08-28T09:38:53Z</time>
      </trkpt>
      <trkpt lat="36.5189550" lon="-5.3238560">
        <ele>613.4</ele>
        <time>2019-08-28T09:38:54Z</time>
      </trkpt>
      <trkpt lat="36.5189350" lon="-5.3238350">
        <ele>613.4</ele>
        <time>2019-08-28T09:38:55Z</time>
      </trkpt>
      <trkpt lat="36.5189140" lon="-5.3238150">
        <ele>613.3</ele>
        <time>2019-08-28T09:38:56Z</time>
      </trkpt>
      <trkpt lat="36.5188940" lon="-5.3237950">
        <ele>613.2</ele>
        <time>2019-08-28T09:38:57Z</time>
      </trkpt>
      <trkpt lat="36.5188750" lon="-5.3237740">
        <ele>613.2</ele>
        <time>2019-08-28T09:38:58Z</time>
      </trkpt>
      <trkpt lat="36.5188560" lon="-5.3237550">
        <ele>613.1</ele>
        <time>2019-08-28T09:38:59Z</time>
      </trkpt>
      <trkpt lat="36.5188360" lon="-5.3237380">
        <ele>613.1</ele>
        <time>2019-08-28T09:39:00Z</time>
      </trkpt>
      <trkpt lat="36.5188150" lon="-5.3237220">
        <ele>613.1</ele>
        <time>2019-08-28T09:39:01Z</time>
      </trkpt>
      <trkpt lat="36.5187930" lon="-5.3237070">
        <ele>613.0</ele>
        <time>2019-08-28T09:39:02Z</time>
      </trkpt>
      <trkpt lat="36.5187700" lon="-5.3236930">
        <ele>613.0</ele>
        <time>2019-08-28T09:39:03Z</time>
      </trkpt>
      <trkpt lat="36.5187480" lon="-5.3236780">
        <ele>613.1</ele>
        <time>2019-08-28T09:39:04Z</time>
      </trkpt>
      <trkpt lat="36.5187250" lon="-5.3236590">
        <ele>613.1</ele>
        <time>2019-08-28T09:39:05Z</time>
      </trkpt>
      <trkpt lat="36.5187040" lon="-5.3236370">
        <ele>613.1</ele>
        <time>2019-08-28T09:39:06Z</time>
      </trkpt>
      <trkpt lat="36.5186830" lon="-5.3236130">
        <ele>613.2</ele>
        <time>2019-08-28T09:39:07Z</time>
      </trkpt>
      <trkpt lat="36.5186650" lon="-5.3235870">
        <ele>613.3</ele>
        <time>2019-08-28T09:39:08Z</time>
      </trkpt>
      <trkpt lat="36.5186490" lon="-5.3235590">
        <ele>614.1</ele>
        <time>2019-08-28T09:39:09Z</time>
      </trkpt>
      <trkpt lat="36.5186370" lon="-5.3235280">
        <ele>614.6</ele>
        <time>2019-08-28T09:39:10Z</time>
      </trkpt>
      <trkpt lat="36.5186280" lon="-5.3234930">
        <ele>615.0</ele>
        <time>2019-08-28T09:39:11Z</time>
      </trkpt>
      <trkpt lat="36.5186220" lon="-5.3234580">
        <ele>615.5</ele>
        <time>2019-08-28T09:39:12Z</time>
      </trkpt>
      <trkpt lat="36.5186170" lon="-5.3234220">
        <ele>616.0</ele>
        <time>2019-08-28T09:39:13Z</time>
      </trkpt>
      <trkpt lat="36.5186170" lon="-5.3233870">
        <ele>616.4</ele>
        <time>2019-08-28T09:39:14Z</time>
      </trkpt>
      <trkpt lat="36.5186220" lon="-5.3233520">
        <ele>616.9</ele>
        <time>2019-08-28T09:39:15Z</time>
      </trkpt>
      <trkpt lat="36.5186330" lon="-5.3233180">
        <ele>617.4</ele>
        <time>2019-08-28T09:39:16Z</time>
      </trkpt>
      <trkpt lat="36.5186510" lon="-5.3232890">
        <ele>618.0</ele>
        <time>2019-08-28T09:39:17Z</time>
      </trkpt>
      <trkpt lat="36.5186730" lon="-5.3232650">
        <ele>618.6</ele>
        <time>2019-08-28T09:39:18Z</time>
      </trkpt>
      <trkpt lat="36.5186970" lon="-5.3232450">
        <ele>619.2</ele>
        <time>2019-08-28T09:39:19Z</time>
      </trkpt>
      <trkpt lat="36.5187220" lon="-5.3232270">
        <ele>619.8</ele>
        <time>2019-08-28T09:39:20Z</time>
      </trkpt>
      <trkpt lat="36.5187480" lon="-5.3232120">
        <ele>620.3</ele>
        <time>2019-08-28T09:39:21Z</time>
      </trkpt>
      <trkpt lat="36.5187740" lon="-5.3231990">
        <ele>620.9</ele>
        <time>2019-08-28T09:39:22Z</time>
      </trkpt>
      <trkpt lat="36.5188020" lon="-5.3231880">
        <ele>621.4</ele>
        <time>2019-08-28T09:39:23Z</time>
      </trkpt>
      <trkpt lat="36.5188310" lon="-5.3231780">
        <ele>622.0</ele>
        <time>2019-08-28T09:39:24Z</time>
      </trkpt>
      <trkpt lat="36.5188600" lon="-5.3231700">
        <ele>622.6</ele>
        <time>2019-08-28T09:39:25Z</time>
      </trkpt>
      <trkpt lat="36.5188890" lon="-5.3231610">
        <ele>623.2</ele>
        <time>2019-08-28T09:39:26Z</time>
      </trkpt>
      <trkpt lat="36.5189190" lon="-5.3231520">
        <ele>623.9</ele>
        <time>2019-08-28T09:39:27Z</time>
      </trkpt>
      <trkpt lat="36.5189500" lon="-5.3231440">
        <ele>624.5</ele>
        <time>2019-08-28T09:39:28Z</time>
      </trkpt>
      <trkpt lat="36.5189810" lon="-5.3231360">
        <ele>625.1</ele>
        <time>2019-08-28T09:39:29Z</time>
      </trkpt>
      <trkpt lat="36.5190120" lon="-5.3231280">
        <ele>625.6</ele>
        <time>2019-08-28T09:39:30Z</time>
      </trkpt>
      <trkpt lat="36.5190420" lon="-5.3231200">
        <ele>626.2</ele>
        <time>2019-08-28T09:39:31Z</time>
      </trkpt>
      <trkpt lat="36.5190710" lon="-5.3231110">
        <ele>626.7</ele>
        <time>2019-08-28T09:39:32Z</time>
      </trkpt>
      <trkpt lat="36.5190960" lon="-5.3231020">
        <ele>627.1</ele>
        <time>2019-08-28T09:39:33Z</time>
      </trkpt>
      <trkpt lat="36.5191160" lon="-5.3230930">
        <ele>627.5</ele>
        <time>2019-08-28T09:39:34Z</time>
      </trkpt>
      <trkpt lat="36.5191300" lon="-5.3230870">
        <ele>627.7</ele>
        <time>2019-08-28T09:39:35Z</time>
      </trkpt>
      <trkpt lat="36.5191430" lon="-5.3230840">
        <ele>628.0</ele>
        <time>2019-08-28T09:39:36Z</time>
      </trkpt>
      <trkpt lat="36.5191530" lon="-5.3230810">
        <ele>628.8</ele>
        <time>2019-08-28T09:39:37Z</time>
      </trkpt>
      <trkpt lat="36.5191610" lon="-5.3230770">
        <ele>628.8</ele>
        <time>2019-08-28T09:39:38Z</time>
      </trkpt>
      <trkpt lat="36.5191700" lon="-5.3230730">
        <ele>628.8</ele>
        <time>2019-08-28T09:39:39Z</time>
      </trkpt>
      <trkpt lat="36.5191810" lon="-5.3230710">
        <ele>628.8</ele>
        <time>2019-08-28T09:39:40Z</time>
      </trkpt>
      <trkpt lat="36.5191950" lon="-5.3230740">
        <ele>628.8</ele>
        <time>2019-08-28T09:39:41Z</time>
      </trkpt>
      <trkpt lat="36.5192080" lon="-5.3230810">
        <ele>628.8</ele>
        <time>2019-08-28T09:39:42Z</time>
      </trkpt>
      <trkpt lat="36.5192220" lon="-5.3230910">
        <ele>628.8</ele>
        <time>2019-08-28T09:39:43Z</time>
      </trkpt>
      <trkpt lat="36.5192330" lon="-5.3231070">
        <ele>628.9</ele>
        <time>2019-08-28T09:39:44Z</time>
      </trkpt>
      <trkpt lat="36.5192440" lon="-5.3231300">
        <ele>628.9</ele>
        <time>2019-08-28T09:39:45Z</time>
      </trkpt>
      <trkpt lat="36.5192520" lon="-5.3231600">
        <ele>628.9</ele>
        <time>2019-08-28T09:39:46Z</time>
      </trkpt>
      <trkpt lat="36.5192600" lon="-5.3231920">
        <ele>628.9</ele>
        <time>2019-08-28T09:39:47Z</time>
      </trkpt>
      <trkpt lat="36.5192680" lon="-5.3232230">
        <ele>628.9</ele>
        <time>2019-08-28T09:39:48Z</time>
      </trkpt>
      <trkpt lat="36.5192760" lon="-5.3232540">
        <ele>628.9</ele>
        <time>2019-08-28T09:39:49Z</time>
      </trkpt>
      <trkpt lat="36.5192850" lon="-5.3232890">
        <ele>629.0</ele>
        <time>2019-08-28T09:39:50Z</time>
      </trkpt>
      <trkpt lat="36.5192940" lon="-5.3233250">
        <ele>629.0</ele>
        <time>2019-08-28T09:39:51Z</time>
      </trkpt>
      <trkpt lat="36.5193060" lon="-5.3233620">
        <ele>629.0</ele>
        <time>2019-08-28T09:39:52Z</time>
      </trkpt>
      <trkpt lat="36.5193180" lon="-5.3234000">
        <ele>629.1</ele>
        <time>2019-08-28T09:39:53Z</time>
      </trkpt>
      <trkpt lat="36.5193300" lon="-5.3234370">
        <ele>629.0</ele>
        <time>2019-08-28T09:39:54Z</time>
      </trkpt>
      <trkpt lat="36.5193410" lon="-5.3234700">
        <ele>629.0</ele>
        <time>2019-08-28T09:39:55Z</time>
      </trkpt>
      <trkpt lat="36.5193530" lon="-5.3235020">
        <ele>629.0</ele>
        <time>2019-08-28T09:39:56Z</time>
      </trkpt>
      <trkpt lat="36.5193640" lon="-5.3235350">
        <ele>628.9</ele>
        <time>2019-08-28T09:39:57Z</time>
      </trkpt>
      <trkpt lat="36.5193760" lon="-5.3235690">
        <ele>628.9</ele>
        <time>2019-08-28T09:39:58Z</time>
      </trkpt>
      <trkpt lat="36.5193880" lon="-5.3236040">
        <ele>628.9</ele>
        <time>2019-08-28T09:39:59Z</time>
      </trkpt>
      <trkpt lat="36.5194000" lon="-5.3236400">
        <ele>628.8</ele>
        <time>2019-08-28T09:40:00Z</time>
      </trkpt>
      <trkpt lat="36.5194120" lon="-5.3236750">
        <ele>628.7</ele>
        <time>2019-08-28T09:40:01Z</time>
      </trkpt>
      <trkpt lat="36.5194250" lon="-5.3237080">
        <ele>628.7</ele>
        <time>2019-08-28T09:40:02Z</time>
      </trkpt>
      <trkpt lat="36.5194400" lon="-5.3237400">
        <ele>628.6</ele>
        <time>2019-08-28T09:40:03Z</time>
      </trkpt>
      <trkpt lat="36.5194540" lon="-5.3237700">
        <ele>628.7</ele>
        <time>2019-08-28T09:40:04Z</time>
      </trkpt>
      <trkpt lat="36.5194680" lon="-5.3238010">
        <ele>628.7</ele>
        <time>2019-08-28T09:40:05Z</time>
      </trkpt>
      <trkpt lat="36.5194820" lon="-5.3238280">
        <ele>628.7</ele>
        <time>2019-08-28T09:40:06Z</time>
      </trkpt>
      <trkpt lat="36.5194970" lon="-5.3238450">
        <ele>628.7</ele>
        <time>2019-08-28T09:40:07Z</time>
      </trkpt>
      <trkpt lat="36.5195120" lon="-5.3238460">
        <ele>628.7</ele>
        <time>2019-08-28T09:40:08Z</time>
      </trkpt>
      <trkpt lat="36.5195200" lon="-5.3238350">
        <ele>628.8</ele>
        <time>2019-08-28T09:40:09Z</time>
      </trkpt>
      <trkpt lat="36.5195200" lon="-5.3238210">
        <ele>628.8</ele>
        <time>2019-08-28T09:40:10Z</time>
      </trkpt>
      <trkpt lat="36.5195160" lon="-5.3238110">
        <ele>628.8</ele>
        <time>2019-08-28T09:40:11Z</time>
      </trkpt>
      <trkpt lat="36.5195140" lon="-5.3238040">
        <ele>628.8</ele>
        <time>2019-08-28T09:40:12Z</time>
      </trkpt>
      <trkpt lat="36.5195140" lon="-5.3238010">
        <ele>628.8</ele>
        <time>2019-08-28T09:40:13Z</time>
      </trkpt>
      <trkpt lat="36.5195150" lon="-5.3238010">
        <ele>628.8</ele>
        <time>2019-08-28T09:40:14Z</time>
      </trkpt>
      <trkpt lat="36.5195150" lon="-5.3238020">
        <ele>628.8</ele>
        <time>2019-08-28T09:40:15Z</time>
      </trkpt>
      <trkpt lat="36.5195150" lon="-5.3238030">
        <ele>628.8</ele>
        <time>2019-08-28T09:40:16Z</time>
      </trkpt>
      <trkpt lat="36.5195150" lon="-5.3238040">
        <ele>628.8</ele>
        <time>2019-08-28T09:40:17Z</time>
      </trkpt>
      <trkpt lat="36.5195150" lon="-5.3238050">
        <ele>628.8</ele>
        <time>2019-08-28T09:40:18Z</time>
      </trkpt>
      <trkpt lat="36.5194760" lon="-5.3237860">
        <ele>628.8</ele>
        <time>2019-08-28T09:49:31Z</time>
      </trkpt>
      <trkpt lat="36.5194720" lon="-5.3237800">
        <ele>628.8</ele>
        <time>2019-08-28T09:49:32Z</time>
      </trkpt>
      <trkpt lat="36.5194680" lon="-5.3237720">
        <ele>628.8</ele>
        <time>2019-08-28T09:49:33Z</time>
      </trkpt>
      <trkpt lat="36.5194630" lon="-5.3237610">
        <ele>628.8</ele>
        <time>2019-08-28T09:49:34Z</time>
      </trkpt>
      <trkpt lat="36.5194530" lon="-5.3237480">
        <ele>628.9</ele>
        <time>2019-08-28T09:49:35Z</time>
      </trkpt>
      <trkpt lat="36.5194400" lon="-5.3237360">
        <ele>628.9</ele>
        <time>2019-08-28T09:49:36Z</time>
      </trkpt>
      <trkpt lat="36.5194250" lon="-5.3237290">
        <ele>628.9</ele>
        <time>2019-08-28T09:49:37Z</time>
      </trkpt>
      <trkpt lat="36.5194090" lon="-5.3237230">
        <ele>628.9</ele>
        <time>2019-08-28T09:49:38Z</time>
      </trkpt>
      <trkpt lat="36.5193940" lon="-5.3237140">
        <ele>628.9</ele>
        <time>2019-08-28T09:49:39Z</time>
      </trkpt>
      <trkpt lat="36.5193800" lon="-5.3236990">
        <ele>628.9</ele>
        <time>2019-08-28T09:49:40Z</time>
      </trkpt>
      <trkpt lat="36.5193660" lon="-5.3236770">
        <ele>628.9</ele>
        <time>2019-08-28T09:49:41Z</time>
      </trkpt>
      <trkpt lat="36.5193500" lon="-5.3236530">
        <ele>628.9</ele>
        <time>2019-08-28T09:49:42Z</time>
      </trkpt>
      <trkpt lat="36.5193350" lon="-5.3236240">
        <ele>629.0</ele>
        <time>2019-08-28T09:49:43Z</time>
      </trkpt>
      <trkpt lat="36.5193210" lon="-5.3235940">
        <ele>629.0</ele>
        <time>2019-08-28T09:49:44Z</time>
      </trkpt>
      <trkpt lat="36.5193070" lon="-5.3235620">
        <ele>629.0</ele>
        <time>2019-08-28T09:49:45Z</time>
      </trkpt>
      <trkpt lat="36.5192940" lon="-5.3235310">
        <ele>629.0</ele>
        <time>2019-08-28T09:49:46Z</time>
      </trkpt>
      <trkpt lat="36.5192800" lon="-5.3234970">
        <ele>629.0</ele>
        <time>2019-08-28T09:49:47Z</time>
      </trkpt>
      <trkpt lat="36.5192670" lon="-5.3234620">
        <ele>629.1</ele>
        <time>2019-08-28T09:49:48Z</time>
      </trkpt>
      <trkpt lat="36.5192560" lon="-5.3234250">
        <ele>629.0</ele>
        <time>2019-08-28T09:49:49Z</time>
      </trkpt>
      <trkpt lat="36.5192490" lon="-5.3233870">
        <ele>629.0</ele>
        <time>2019-08-28T09:49:50Z</time>
      </trkpt>
      <trkpt lat="36.5192450" lon="-5.3233490">
        <ele>629.0</ele>
        <time>2019-08-28T09:49:51Z</time>
      </trkpt>
      <trkpt lat="36.5192410" lon="-5.3233120">
        <ele>628.9</ele>
        <time>2019-08-28T09:49:52Z</time>
      </trkpt>
      <trkpt lat="36.5192360" lon="-5.3232740">
        <ele>628.9</ele>
        <time>2019-08-28T09:49:53Z</time>
      </trkpt>
      <trkpt lat="36.5192290" lon="-5.3232360">
        <ele>628.9</ele>
        <time>2019-08-28T09:49:54Z</time>
      </trkpt>
      <trkpt lat="36.5192210" lon="-5.3231970">
        <ele>628.8</ele>
        <time>2019-08-28T09:49:55Z</time>
      </trkpt>
      <trkpt lat="36.5192150" lon="-5.3231530">
        <ele>628.5</ele>
        <time>2019-08-28T09:49:56Z</time>
      </trkpt>
      <trkpt lat="36.5192120" lon="-5.3231050">
        <ele>628.2</ele>
        <time>2019-08-28T09:49:57Z</time>
      </trkpt>
      <trkpt lat="36.5192150" lon="-5.3230520">
        <ele>627.8</ele>
        <time>2019-08-28T09:49:58Z</time>
      </trkpt>
      <trkpt lat="36.5192200" lon="-5.3229910">
        <ele>627.2</ele>
        <time>2019-08-28T09:49:59Z</time>
      </trkpt>
      <trkpt lat="36.5192300" lon="-5.3229190">
        <ele>626.6</ele>
        <time>2019-08-28T09:50:00Z</time>
      </trkpt>
      <trkpt lat="36.5192410" lon="-5.3228370">
        <ele>625.9</ele>
        <time>2019-08-28T09:50:01Z</time>
      </trkpt>
      <trkpt lat="36.5192490" lon="-5.3227440">
        <ele>625.0</ele>
        <time>2019-08-28T09:50:02Z</time>
      </trkpt>
      <trkpt lat="36.5192520" lon="-5.3226430">
        <ele>624.0</ele>
        <time>2019-08-28T09:50:03Z</time>
      </trkpt>
      <trkpt lat="36.5192520" lon="-5.3225360">
        <ele>622.9</ele>
        <time>2019-08-28T09:50:04Z</time>
      </trkpt>
      <trkpt lat="36.5192550" lon="-5.3224250">
        <ele>622.0</ele>
        <time>2019-08-28T09:50:05Z</time>
      </trkpt>
      <trkpt lat="36.5192580" lon="-5.3223130">
        <ele>621.3</ele>
        <time>2019-08-28T09:50:06Z</time>
      </trkpt>
      <trkpt lat="36.5192600" lon="-5.3222020">
        <ele>620.8</ele>
        <time>2019-08-28T09:50:07Z</time>
      </trkpt>
      <trkpt lat="36.5192620" lon="-5.3220970">
        <ele>620.3</ele>
        <time>2019-08-28T09:50:08Z</time>
      </trkpt>
      <trkpt lat="36.5192640" lon="-5.3219960">
        <ele>619.9</ele>
        <time>2019-08-28T09:50:09Z</time>
      </trkpt>
      <trkpt lat="36.5192660" lon="-5.3218990">
        <ele>619.5</ele>
        <time>2019-08-28T09:50:10Z</time>
      </trkpt>
      <trkpt lat="36.5192690" lon="-5.3218050">
        <ele>619.0</ele>
        <time>2019-08-28T09:50:11Z</time>
      </trkpt>
      <trkpt lat="36.5192720" lon="-5.3217170">
        <ele>618.6</ele>
        <time>2019-08-28T09:50:12Z</time>
      </trkpt>
      <trkpt lat="36.5192740" lon="-5.3216360">
        <ele>618.2</ele>
        <time>2019-08-28T09:50:13Z</time>
      </trkpt>
      <trkpt lat="36.5192760" lon="-5.3215620">
        <ele>617.9</ele>
        <time>2019-08-28T09:50:14Z</time>
      </trkpt>
      <trkpt lat="36.5192800" lon="-5.3214990">
        <ele>617.6</ele>
        <time>2019-08-28T09:50:15Z</time>
      </trkpt>
      <trkpt lat="36.5192860" lon="-5.3214490">
        <ele>617.4</ele>
        <time>2019-08-28T09:50:16Z</time>
      </trkpt>
      <trkpt lat="36.5192920" lon="-5.3214070">
        <ele>617.3</ele>
        <time>2019-08-28T09:50:17Z</time>
      </trkpt>
      <trkpt lat="36.5192980" lon="-5.3213670">
        <ele>617.2</ele>
        <time>2019-08-28T09:50:18Z</time>
      </trkpt>
      <trkpt lat="36.5193050" lon="-5.3213240">
        <ele>617.0</ele>
        <time>2019-08-28T09:50:19Z</time>
      </trkpt>
      <trkpt lat="36.5193150" lon="-5.3212810">
        <ele>616.9</ele>
        <time>2019-08-28T09:50:20Z</time>
      </trkpt>
      <trkpt lat="36.5193300" lon="-5.3212380">
        <ele>617.6</ele>
        <time>2019-08-28T09:50:21Z</time>
      </trkpt>
      <trkpt lat="36.5193480" lon="-5.3211950">
        <ele>617.8</ele>
        <time>2019-08-28T09:50:22Z</time>
      </trkpt>
      <trkpt lat="36.5193710" lon="-5.3211530">
        <ele>618.1</ele>
        <time>2019-08-28T09:50:23Z</time>
      </trkpt>
      <trkpt lat="36.5193970" lon="-5.3211130">
        <ele>618.4</ele>
        <time>2019-08-28T09:50:24Z</time>
      </trkpt>
      <trkpt lat="36.5194210" lon="-5.3210740">
        <ele>618.7</ele>
        <time>2019-08-28T09:50:25Z</time>
      </trkpt>
      <trkpt lat="36.5194400" lon="-5.3210300">
        <ele>619.0</ele>
        <time>2019-08-28T09:50:26Z</time>
      </trkpt>
      <trkpt lat="36.5194580" lon="-5.3209830">
        <ele>619.3</ele>
        <time>2019-08-28T09:50:27Z</time>
      </trkpt>
      <trkpt lat="36.5194760" lon="-5.3209370">
        <ele>620.0</ele>
        <time>2019-08-28T09:50:28Z</time>
      </trkpt>
      <trkpt lat="36.5195000" lon="-5.3208880">
        <ele>619.4</ele>
        <time>2019-08-28T09:50:29Z</time>
      </trkpt>
      <trkpt lat="36.5195200" lon="-5.3208350">
        <ele>618.8</ele>
        <time>2019-08-28T09:50:30Z</time>
      </trkpt>
      <trkpt lat="36.5195370" lon="-5.3207770">
        <ele>618.3</ele>
        <time>2019-08-28T09:50:31Z</time>
      </trkpt>
      <trkpt lat="36.5195490" lon="-5.3207240">
        <ele>617.9</ele>
        <time>2019-08-28T09:50:32Z</time>
      </trkpt>
      <trkpt lat="36.5195580" lon="-5.3206700">
        <ele>617.4</ele>
        <time>2019-08-28T09:50:33Z</time>
      </trkpt>
      <trkpt lat="36.5195680" lon="-5.3206150">
        <ele>617.0</ele>
        <time>2019-08-28T09:50:34Z</time>
      </trkpt>
      <trkpt lat="36.5195780" lon="-5.3205580">
        <ele>616.5</ele>
        <time>2019-08-28T09:50:35Z</time>
      </trkpt>
      <trkpt lat="36.5195880" lon="-5.3205020">
        <ele>616.1</ele>
        <time>2019-08-28T09:50:36Z</time>
      </trkpt>
      <trkpt lat="36.5195980" lon="-5.3204440">
        <ele>615.7</ele>
        <time>2019-08-28T09:50:37Z</time>
      </trkpt>
      <trkpt lat="36.5196130" lon="-5.3203840">
        <ele>615.4</ele>
        <time>2019-08-28T09:50:38Z</time>
      </trkpt>
      <trkpt lat="36.5196320" lon="-5.3203270">
        <ele>615.1</ele>
        <time>2019-08-28T09:50:39Z</time>
      </trkpt>
      <trkpt lat="36.5196540" lon="-5.3202720">
        <ele>614.6</ele>
        <time>2019-08-28T09:50:40Z</time>
      </trkpt>
      <trkpt lat="36.5196780" lon="-5.3202240">
        <ele>614.4</ele>
        <time>2019-08-28T09:50:41Z</time>
      </trkpt>
      <trkpt lat="36.5197050" lon="-5.3201770">
        <ele>614.2</ele>
        <time>2019-08-28T09:50:42Z</time>
      </trkpt>
      <trkpt lat="36.5197370" lon="-5.3201340">
        <ele>613.9</ele>
        <time>2019-08-28T09:50:43Z</time>
      </trkpt>
      <trkpt lat="36.5197700" lon="-5.3200930">
        <ele>613.8</ele>
        <time>2019-08-28T09:50:44Z</time>
      </trkpt>
      <trkpt lat="36.5197990" lon="-5.3200530">
        <ele>613.7</ele>
        <time>2019-08-28T09:50:45Z</time>
      </trkpt>
      <trkpt lat="36.5198230" lon="-5.3200090">
        <ele>613.6</ele>
        <time>2019-08-28T09:50:46Z</time>
      </trkpt>
      <trkpt lat="36.5198400" lon="-5.3199610">
        <ele>613.5</ele>
        <time>2019-08-28T09:50:47Z</time>
      </trkpt>
      <trkpt lat="36.5198530" lon="-5.3199110">
        <ele>613.4</ele>
        <time>2019-08-28T09:50:48Z</time>
      </trkpt>
      <trkpt lat="36.5198600" lon="-5.3198630">
        <ele>613.4</ele>
        <time>2019-08-28T09:50:49Z</time>
      </trkpt>
      <trkpt lat="36.5198670" lon="-5.3198170">
        <ele>613.3</ele>
        <time>2019-08-28T09:50:50Z</time>
      </trkpt>
      <trkpt lat="36.5198730" lon="-5.3197740">
        <ele>613.3</ele>
        <time>2019-08-28T09:50:51Z</time>
      </trkpt>
      <trkpt lat="36.5198810" lon="-5.3197370">
        <ele>613.3</ele>
        <time>2019-08-28T09:50:52Z</time>
      </trkpt>
      <trkpt lat="36.5198900" lon="-5.3197020">
        <ele>613.2</ele>
        <time>2019-08-28T09:50:53Z</time>
      </trkpt>
      <trkpt lat="36.5198930" lon="-5.3196620">
        <ele>613.2</ele>
        <time>2019-08-28T09:50:54Z</time>
      </trkpt>
      <trkpt lat="36.5198920" lon="-5.3196130">
        <ele>613.2</ele>
        <time>2019-08-28T09:50:55Z</time>
      </trkpt>
      <trkpt lat="36.5198850" lon="-5.3195550">
        <ele>613.1</ele>
        <time>2019-08-28T09:50:56Z</time>
      </trkpt>
      <trkpt lat="36.5198780" lon="-5.3194920">
        <ele>613.0</ele>
        <time>2019-08-28T09:50:57Z</time>
      </trkpt>
      <trkpt lat="36.5198690" lon="-5.3194290">
        <ele>612.8</ele>
        <time>2019-08-28T09:50:58Z</time>
      </trkpt>
      <trkpt lat="36.5198600" lon="-5.3193700">
        <ele>612.6</ele>
        <time>2019-08-28T09:50:59Z</time>
      </trkpt>
      <trkpt lat="36.5198560" lon="-5.3193120">
        <ele>612.4</ele>
        <time>2019-08-28T09:51:00Z</time>
      </trkpt>
      <trkpt lat="36.5198540" lon="-5.3192560">
        <ele>612.3</ele>
        <time>2019-08-28T09:51:01Z</time>
      </trkpt>
      <trkpt lat="36.5198530" lon="-5.3192000">
        <ele>612.1</ele>
        <time>2019-08-28T09:51:02Z</time>
      </trkpt>
      <trkpt lat="36.5198500" lon="-5.3191450">
        <ele>611.8</ele>
        <time>2019-08-28T09:51:03Z</time>
      </trkpt>
      <trkpt lat="36.5198440" lon="-5.3190900">
        <ele>611.6</ele>
        <time>2019-08-28T09:51:04Z</time>
      </trkpt>
      <trkpt lat="36.5198330" lon="-5.3190330">
        <ele>611.4</ele>
        <time>2019-08-28T09:51:05Z</time>
      </trkpt>
      <trkpt lat="36.5198150" lon="-5.3189730">
        <ele>611.2</ele>
        <time>2019-08-28T09:51:06Z</time>
      </trkpt>
      <trkpt lat="36.5197850" lon="-5.3189170">
        <ele>611.0</ele>
        <time>2019-08-28T09:51:07Z</time>
      </trkpt>
      <trkpt lat="36.5197490" lon="-5.3188650">
        <ele>610.9</ele>
        <time>2019-08-28T09:51:08Z</time>
      </trkpt>
      <trkpt lat="36.5197110" lon="-5.3188160">
        <ele>610.7</ele>
        <time>2019-08-28T09:51:09Z</time>
      </trkpt>
      <trkpt lat="36.5196820" lon="-5.3187640">
        <ele>610.4</ele>
        <time>2019-08-28T09:51:10Z</time>
      </trkpt>
      <trkpt lat="36.5196570" lon="-5.3187110">
        <ele>610.1</ele>
        <time>2019-08-28T09:51:11Z</time>
      </trkpt>
      <trkpt lat="36.5196340" lon="-5.3186600">
        <ele>609.8</ele>
        <time>2019-08-28T09:51:12Z</time>
      </trkpt>
      <trkpt lat="36.5196130" lon="-5.3186120">
        <ele>609.6</ele>
        <time>2019-08-28T09:51:13Z</time>
      </trkpt>
      <trkpt lat="36.5195930" lon="-5.3185660">
        <ele>609.3</ele>
        <time>2019-08-28T09:51:14Z</time>
      </trkpt>
      <trkpt lat="36.5195730" lon="-5.3185210">
        <ele>609.0</ele>
        <time>2019-08-28T09:51:15Z</time>
      </trkpt>
      <trkpt lat="36.5195530" lon="-5.3184760">
        <ele>608.6</ele>
        <time>2019-08-28T09:51:16Z</time>
      </trkpt>
      <trkpt lat="36.5195330" lon="-5.3184320">
        <ele>608.6</ele>
        <time>2019-08-28T09:51:17Z</time>
      </trkpt>
      <trkpt lat="36.5195130" lon="-5.3183890">
        <ele>608.6</ele>
        <time>2019-08-28T09:51:18Z</time>
      </trkpt>
      <trkpt lat="36.5194930" lon="-5.3183490">
        <ele>608.6</ele>
        <time>2019-08-28T09:51:19Z</time>
      </trkpt>
      <trkpt lat="36.5194680" lon="-5.3183160">
        <ele>608.7</ele>
        <time>2019-08-28T09:51:20Z</time>
      </trkpt>
      <trkpt lat="36.5194330" lon="-5.3183030">
        <ele>608.7</ele>
        <time>2019-08-28T09:51:21Z</time>
      </trkpt>
      <trkpt lat="36.5193920" lon="-5.3183050">
        <ele>608.8</ele>
        <time>2019-08-28T09:51:22Z</time>
      </trkpt>
      <trkpt lat="36.5193490" lon="-5.3183120">
        <ele>608.7</ele>
        <time>2019-08-28T09:51:23Z</time>
      </trkpt>
      <trkpt lat="36.5193100" lon="-5.3183170">
        <ele>608.6</ele>
        <time>2019-08-28T09:51:24Z</time>
      </trkpt>
      <trkpt lat="36.5192720" lon="-5.3183200">
        <ele>608.5</ele>
        <time>2019-08-28T09:51:25Z</time>
      </trkpt>
      <trkpt lat="36.5192350" lon="-5.3183220">
        <ele>608.4</ele>
        <time>2019-08-28T09:51:26Z</time>
      </trkpt>
      <trkpt lat="36.5192040" lon="-5.3183190">
        <ele>608.3</ele>
        <time>2019-08-28T09:51:27Z</time>
      </trkpt>
      <trkpt lat="36.5191750" lon="-5.3183140">
        <ele>608.3</ele>
        <time>2019-08-28T09:51:28Z</time>
      </trkpt>
      <trkpt lat="36.5191480" lon="-5.3183050">
        <ele>608.2</ele>
        <time>2019-08-28T09:51:29Z</time>
      </trkpt>
      <trkpt lat="36.5191190" lon="-5.3182900">
        <ele>608.3</ele>
        <time>2019-08-28T09:51:30Z</time>
      </trkpt>
      <trkpt lat="36.5190900" lon="-5.3182750">
        <ele>608.3</ele>
        <time>2019-08-28T09:51:31Z</time>
      </trkpt>
      <trkpt lat="36.5190610" lon="-5.3182570">
        <ele>608.3</ele>
        <time>2019-08-28T09:51:32Z</time>
      </trkpt>
      <trkpt lat="36.5190330" lon="-5.3182420">
        <ele>608.4</ele>
        <time>2019-08-28T09:51:33Z</time>
      </trkpt>
      <trkpt lat="36.5190070" lon="-5.3182260">
        <ele>608.7</ele>
        <time>2019-08-28T09:51:34Z</time>
      </trkpt>
      <trkpt lat="36.5189800" lon="-5.3182080">
        <ele>609.0</ele>
        <time>2019-08-28T09:51:35Z</time>
      </trkpt>
      <trkpt lat="36.5189540" lon="-5.3181880">
        <ele>609.3</ele>
        <time>2019-08-28T09:51:36Z</time>
      </trkpt>
      <trkpt lat="36.5189290" lon="-5.3181650">
        <ele>609.6</ele>
        <time>2019-08-28T09:51:37Z</time>
      </trkpt>
      <trkpt lat="36.5189050" lon="-5.3181400">
        <ele>609.9</ele>
        <time>2019-08-28T09:51:38Z</time>
      </trkpt>
      <trkpt lat="36.5188810" lon="-5.3181120">
        <ele>610.3</ele>
        <time>2019-08-28T09:51:39Z</time>
      </trkpt>
      <trkpt lat="36.5188600" lon="-5.3180810">
        <ele>610.6</ele>
        <time>2019-08-28T09:51:40Z</time>
      </trkpt>
      <trkpt lat="36.5188390" lon="-5.3180500">
        <ele>610.9</ele>
        <time>2019-08-28T09:51:41Z</time>
      </trkpt>
      <trkpt lat="36.5188190" lon="-5.3180170">
        <ele>611.3</ele>
        <time>2019-08-28T09:51:42Z</time>
      </trkpt>
      <trkpt lat="36.5188070" lon="-5.3179630">
        <ele>611.7</ele>
        <time>2019-08-28T09:51:43Z</time>
      </trkpt>
      <trkpt lat="36.5188060" lon="-5.3178930">
        <ele>612.3</ele>
        <time>2019-08-28T09:51:44Z</time>
      </trkpt>
      <trkpt lat="36.5188130" lon="-5.3178150">
        <ele>613.9</ele>
        <time>2019-08-28T09:51:45Z</time>
      </trkpt>
      <trkpt lat="36.5188150" lon="-5.3177530">
        <ele>614.1</ele>
        <time>2019-08-28T09:51:46Z</time>
      </trkpt>
      <trkpt lat="36.5188060" lon="-5.3177040">
        <ele>614.3</ele>
        <time>2019-08-28T09:51:47Z</time>
      </trkpt>
      <trkpt lat="36.5187860" lon="-5.3176650">
        <ele>615.7</ele>
        <time>2019-08-28T09:51:48Z</time>
      </trkpt>
      <trkpt lat="36.5187600" lon="-5.3176310">
        <ele>616.3</ele>
        <time>2019-08-28T09:51:49Z</time>
      </trkpt>
      <trkpt lat="36.5187350" lon="-5.3175970">
        <ele>617.2</ele>
        <time>2019-08-28T09:51:50Z</time>
      </trkpt>
      <trkpt lat="36.5187080" lon="-5.3175610">
        <ele>617.5</ele>
        <time>2019-08-28T09:51:51Z</time>
      </trkpt>
      <trkpt lat="36.5186820" lon="-5.3175250">
        <ele>617.8</ele>
        <time>2019-08-28T09:51:52Z</time>
      </trkpt>
      <trkpt lat="36.5186580" lon="-5.3174940">
        <ele>618.1</ele>
        <time>2019-08-28T09:51:53Z</time>
      </trkpt>
      <trkpt lat="36.5186350" lon="-5.3174720">
        <ele>618.3</ele>
        <time>2019-08-28T09:51:54Z</time>
      </trkpt>
      <trkpt lat="36.5186130" lon="-5.3174540">
        <ele>618.5</ele>
        <time>2019-08-28T09:51:55Z</time>
      </trkpt>
      <trkpt lat="36.5185920" lon="-5.3174380">
        <ele>618.7</ele>
        <time>2019-08-28T09:51:56Z</time>
      </trkpt>
      <trkpt lat="36.5185710" lon="-5.3174230">
        <ele>618.9</ele>
        <time>2019-08-28T09:51:57Z</time>
      </trkpt>
      <trkpt lat="36.5185500" lon="-5.3174120">
        <ele>619.0</ele>
        <time>2019-08-28T09:51:58Z</time>
      </trkpt>
      <trkpt lat="36.5185280" lon="-5.3174040">
        <ele>619.2</ele>
        <time>2019-08-28T09:51:59Z</time>
      </trkpt>
      <trkpt lat="36.5185070" lon="-5.3173960">
        <ele>619.4</ele>
        <time>2019-08-28T09:52:00Z</time>
      </trkpt>
      <trkpt lat="36.5184870" lon="-5.3173880">
        <ele>619.5</ele>
        <time>2019-08-28T09:52:01Z</time>
      </trkpt>
      <trkpt lat="36.5184670" lon="-5.3173810">
        <ele>619.7</ele>
        <time>2019-08-28T09:52:02Z</time>
      </trkpt>
      <trkpt lat="36.5184490" lon="-5.3173730">
        <ele>619.8</ele>
        <time>2019-08-28T09:52:03Z</time>
      </trkpt>
      <trkpt lat="36.5184320" lon="-5.3173690">
        <ele>620.0</ele>
        <time>2019-08-28T09:52:04Z</time>
      </trkpt>
      <trkpt lat="36.5184180" lon="-5.3173660">
        <ele>620.1</ele>
        <time>2019-08-28T09:52:05Z</time>
      </trkpt>
      <trkpt lat="36.5184070" lon="-5.3173620">
        <ele>620.2</ele>
        <time>2019-08-28T09:52:06Z</time>
      </trkpt>
      <trkpt lat="36.5184000" lon="-5.3173510">
        <ele>620.2</ele>
        <time>2019-08-28T09:52:07Z</time>
      </trkpt>
      <trkpt lat="36.5183990" lon="-5.3173370">
        <ele>620.4</ele>
        <time>2019-08-28T09:52:08Z</time>
      </trkpt>
      <trkpt lat="36.5183980" lon="-5.3173220">
        <ele>620.6</ele>
        <time>2019-08-28T09:52:09Z</time>
      </trkpt>
      <trkpt lat="36.5184020" lon="-5.3173090">
        <ele>620.7</ele>
        <time>2019-08-28T09:52:10Z</time>
      </trkpt>
      <trkpt lat="36.5184060" lon="-5.3172930">
        <ele>620.9</ele>
        <time>2019-08-28T09:52:11Z</time>
      </trkpt>
      <trkpt lat="36.5184140" lon="-5.3172750">
        <ele>621.1</ele>
        <time>2019-08-28T09:52:12Z</time>
      </trkpt>
      <trkpt lat="36.5184260" lon="-5.3172530">
        <ele>621.4</ele>
        <time>2019-08-28T09:52:13Z</time>
      </trkpt>
      <trkpt lat="36.5184370" lon="-5.3172290">
        <ele>621.7</ele>
        <time>2019-08-28T09:52:14Z</time>
      </trkpt>
      <trkpt lat="36.5184440" lon="-5.3172020">
        <ele>622.0</ele>
        <time>2019-08-28T09:52:15Z</time>
      </trkpt>
      <trkpt lat="36.5184430" lon="-5.3171740">
        <ele>623.1</ele>
        <time>2019-08-28T09:52:16Z</time>
      </trkpt>
      <trkpt lat="36.5184410" lon="-5.3171480">
        <ele>623.3</ele>
        <time>2019-08-28T09:52:17Z</time>
      </trkpt>
      <trkpt lat="36.5184350" lon="-5.3171230">
        <ele>623.4</ele>
        <time>2019-08-28T09:52:18Z</time>
      </trkpt>
      <trkpt lat="36.5184250" lon="-5.3170990">
        <ele>623.6</ele>
        <time>2019-08-28T09:52:19Z</time>
      </trkpt>
      <trkpt lat="36.5184060" lon="-5.3170730">
        <ele>623.8</ele>
        <time>2019-08-28T09:52:20Z</time>
      </trkpt>
      <trkpt lat="36.5183850" lon="-5.3170490">
        <ele>623.9</ele>
        <time>2019-08-28T09:52:21Z</time>
      </trkpt>
      <trkpt lat="36.5183670" lon="-5.3170290">
        <ele>624.1</ele>
        <time>2019-08-28T09:52:22Z</time>
      </trkpt>
      <trkpt lat="36.5183510" lon="-5.3170120">
        <ele>624.2</ele>
        <time>2019-08-28T09:52:23Z</time>
      </trkpt>
      <trkpt lat="36.5183340" lon="-5.3169930">
        <ele>624.3</ele>
        <time>2019-08-28T09:52:24Z</time>
      </trkpt>
      <trkpt lat="36.5183160" lon="-5.3169700">
        <ele>624.5</ele>
        <time>2019-08-28T09:52:25Z</time>
      </trkpt>
      <trkpt lat="36.5182980" lon="-5.3169440">
        <ele>624.5</ele>
        <time>2019-08-28T09:52:26Z</time>
      </trkpt>
      <trkpt lat="36.5182810" lon="-5.3169190">
        <ele>624.6</ele>
        <time>2019-08-28T09:52:27Z</time>
      </trkpt>
      <trkpt lat="36.5182640" lon="-5.3168960">
        <ele>624.6</ele>
        <time>2019-08-28T09:52:28Z</time>
      </trkpt>
      <trkpt lat="36.5182470" lon="-5.3168730">
        <ele>624.7</ele>
        <time>2019-08-28T09:52:29Z</time>
      </trkpt>
      <trkpt lat="36.5182300" lon="-5.3168510">
        <ele>624.7</ele>
        <time>2019-08-28T09:52:30Z</time>
      </trkpt>
      <trkpt lat="36.5182130" lon="-5.3168300">
        <ele>624.7</ele>
        <time>2019-08-28T09:52:31Z</time>
      </trkpt>
      <trkpt lat="36.5181980" lon="-5.3168120">
        <ele>624.8</ele>
        <time>2019-08-28T09:52:32Z</time>
      </trkpt>
      <trkpt lat="36.5181820" lon="-5.3167930">
        <ele>624.7</ele>
        <time>2019-08-28T09:52:33Z</time>
      </trkpt>
      <trkpt lat="36.5181640" lon="-5.3167740">
        <ele>624.7</ele>
        <time>2019-08-28T09:52:34Z</time>
      </trkpt>
      <trkpt lat="36.5181430" lon="-5.3167510">
        <ele>624.7</ele>
        <time>2019-08-28T09:52:35Z</time>
      </trkpt>
      <trkpt lat="36.5181210" lon="-5.3167250">
        <ele>624.7</ele>
        <time>2019-08-28T09:52:36Z</time>
      </trkpt>
      <trkpt lat="36.5180970" lon="-5.3166980">
        <ele>624.7</ele>
        <time>2019-08-28T09:52:37Z</time>
      </trkpt>
      <trkpt lat="36.5180740" lon="-5.3166710">
        <ele>624.6</ele>
        <time>2019-08-28T09:52:38Z</time>
      </trkpt>
      <trkpt lat="36.5180520" lon="-5.3166450">
        <ele>624.5</ele>
        <time>2019-08-28T09:52:39Z</time>
      </trkpt>
      <trkpt lat="36.5180300" lon="-5.3166200">
        <ele>624.5</ele>
        <time>2019-08-28T09:52:40Z</time>
      </trkpt>
      <trkpt lat="36.5180080" lon="-5.3166000">
        <ele>624.4</ele>
        <time>2019-08-28T09:52:41Z</time>
      </trkpt>
      <trkpt lat="36.5179880" lon="-5.3165790">
        <ele>624.3</ele>
        <time>2019-08-28T09:52:42Z</time>
      </trkpt>
      <trkpt lat="36.5179760" lon="-5.3165520">
        <ele>624.3</ele>
        <time>2019-08-28T09:52:43Z</time>
      </trkpt>
      <trkpt lat="36.5179670" lon="-5.3165160">
        <ele>624.2</ele>
        <time>2019-08-28T09:52:44Z</time>
      </trkpt>
      <trkpt lat="36.5179590" lon="-5.3164760">
        <ele>624.1</ele>
        <time>2019-08-28T09:52:45Z</time>
      </trkpt>
      <trkpt lat="36.5179480" lon="-5.3164380">
        <ele>624.0</ele>
        <time>2019-08-28T09:52:46Z</time>
      </trkpt>
      <trkpt lat="36.5179380" lon="-5.3163970">
        <ele>624.0</ele>
        <time>2019-08-28T09:52:47Z</time>
      </trkpt>
      <trkpt lat="36.5179290" lon="-5.3163550">
        <ele>624.0</ele>
        <time>2019-08-28T09:52:48Z</time>
      </trkpt>
      <trkpt lat="36.5179190" lon="-5.3163080">
        <ele>624.0</ele>
        <time>2019-08-28T09:52:49Z</time>
      </trkpt>
      <trkpt lat="36.5179060" lon="-5.3162610">
        <ele>623.9</ele>
        <time>2019-08-28T09:52:50Z</time>
      </trkpt>
      <trkpt lat="36.5178920" lon="-5.3162120">
        <ele>623.9</ele>
        <time>2019-08-28T09:52:51Z</time>
      </trkpt>
      <trkpt lat="36.5178780" lon="-5.3161630">
        <ele>623.9</ele>
        <time>2019-08-28T09:52:52Z</time>
      </trkpt>
      <trkpt lat="36.5178630" lon="-5.3161100">
        <ele>623.9</ele>
        <time>2019-08-28T09:52:53Z</time>
      </trkpt>
      <trkpt lat="36.5178450" lon="-5.3160550">
        <ele>623.9</ele>
        <time>2019-08-28T09:52:54Z</time>
      </trkpt>
      <trkpt lat="36.5178240" lon="-5.3160020">
        <ele>623.9</ele>
        <time>2019-08-28T09:52:55Z</time>
      </trkpt>
      <trkpt lat="36.5178020" lon="-5.3159500">
        <ele>623.9</ele>
        <time>2019-08-28T09:52:56Z</time>
      </trkpt>
      <trkpt lat="36.5177800" lon="-5.3158980">
        <ele>624.0</ele>
        <time>2019-08-28T09:52:57Z</time>
      </trkpt>
      <trkpt lat="36.5177570" lon="-5.3158490">
        <ele>624.0</ele>
        <time>2019-08-28T09:52:58Z</time>
      </trkpt>
      <trkpt lat="36.5177330" lon="-5.3158030">
        <ele>624.1</ele>
        <time>2019-08-28T09:52:59Z</time>
      </trkpt>
      <trkpt lat="36.5177100" lon="-5.3157560">
        <ele>624.1</ele>
        <time>2019-08-28T09:53:00Z</time>
      </trkpt>
      <trkpt lat="36.5176880" lon="-5.3157120">
        <ele>624.2</ele>
        <time>2019-08-28T09:53:01Z</time>
      </trkpt>
      <trkpt lat="36.5176670" lon="-5.3156680">
        <ele>623.9</ele>
        <time>2019-08-28T09:53:02Z</time>
      </trkpt>
      <trkpt lat="36.5176450" lon="-5.3156260">
        <ele>623.7</ele>
        <time>2019-08-28T09:53:03Z</time>
      </trkpt>
      <trkpt lat="36.5176240" lon="-5.3155850">
        <ele>623.6</ele>
        <time>2019-08-28T09:53:04Z</time>
      </trkpt>
      <trkpt lat="36.5176020" lon="-5.3155460">
        <ele>623.4</ele>
        <time>2019-08-28T09:53:05Z</time>
      </trkpt>
      <trkpt lat="36.5175810" lon="-5.3155100">
        <ele>623.7</ele>
        <time>2019-08-28T09:53:06Z</time>
      </trkpt>
      <trkpt lat="36.5175590" lon="-5.3154750">
        <ele>623.9</ele>
        <time>2019-08-28T09:53:07Z</time>
      </trkpt>
      <trkpt lat="36.5175370" lon="-5.3154430">
        <ele>624.2</ele>
        <time>2019-08-28T09:53:08Z</time>
      </trkpt>
      <trkpt lat="36.5175150" lon="-5.3154110">
        <ele>624.4</ele>
        <time>2019-08-28T09:53:09Z</time>
      </trkpt>
      <trkpt lat="36.5174940" lon="-5.3153790">
        <ele>624.6</ele>
        <time>2019-08-28T09:53:10Z</time>
      </trkpt>
      <trkpt lat="36.5174720" lon="-5.3153470">
        <ele>624.8</ele>
        <time>2019-08-28T09:53:11Z</time>
      </trkpt>
      <trkpt lat="36.5174510" lon="-5.3153150">
        <ele>625.0</ele>
        <time>2019-08-28T09:53:12Z</time>
      </trkpt>
      <trkpt lat="36.5174280" lon="-5.3152830">
        <ele>625.1</ele>
        <time>2019-08-28T09:53:13Z</time>
      </trkpt>
      <trkpt lat="36.5174050" lon="-5.3152530">
        <ele>625.3</ele>
        <time>2019-08-28T09:53:14Z</time>
      </trkpt>
      <trkpt lat="36.5173800" lon="-5.3152240">
        <ele>625.4</ele>
        <time>2019-08-28T09:53:15Z</time>
      </trkpt>
      <trkpt lat="36.5173550" lon="-5.3151960">
        <ele>625.5</ele>
        <time>2019-08-28T09:53:16Z</time>
      </trkpt>
      <trkpt lat="36.5173310" lon="-5.3151660">
        <ele>625.6</ele>
        <time>2019-08-28T09:53:17Z</time>
      </trkpt>
      <trkpt lat="36.5173080" lon="-5.3151370">
        <ele>625.7</ele>
        <time>2019-08-28T09:53:18Z</time>
      </trkpt>
      <trkpt lat="36.5172850" lon="-5.3151080">
        <ele>625.8</ele>
        <time>2019-08-28T09:53:19Z</time>
      </trkpt>
      <trkpt lat="36.5172600" lon="-5.3150800">
        <ele>625.9</ele>
        <time>2019-08-28T09:53:20Z</time>
      </trkpt>
      <trkpt lat="36.5172350" lon="-5.3150520">
        <ele>625.9</ele>
        <time>2019-08-28T09:53:21Z</time>
      </trkpt>
      <trkpt lat="36.5172100" lon="-5.3150240">
        <ele>626.0</ele>
        <time>2019-08-28T09:53:22Z</time>
      </trkpt>
      <trkpt lat="36.5171850" lon="-5.3149960">
        <ele>626.0</ele>
        <time>2019-08-28T09:53:23Z</time>
      </trkpt>
      <trkpt lat="36.5171610" lon="-5.3149690">
        <ele>626.0</ele>
        <time>2019-08-28T09:53:24Z</time>
      </trkpt>
      <trkpt lat="36.5171370" lon="-5.3149420">
        <ele>625.9</ele>
        <time>2019-08-28T09:53:25Z</time>
      </trkpt>
      <trkpt lat="36.5171140" lon="-5.3149160">
        <ele>625.8</ele>
        <time>2019-08-28T09:53:26Z</time>
      </trkpt>
      <trkpt lat="36.5170910" lon="-5.3148890">
        <ele>625.7</ele>
        <time>2019-08-28T09:53:27Z</time>
      </trkpt>
      <trkpt lat="36.5170680" lon="-5.3148620">
        <ele>625.5</ele>
        <time>2019-08-28T09:53:28Z</time>
      </trkpt>
      <trkpt lat="36.5170440" lon="-5.3148340">
        <ele>625.3</ele>
        <time>2019-08-28T09:53:29Z</time>
      </trkpt>
      <trkpt lat="36.5170180" lon="-5.3148020">
        <ele>625.1</ele>
        <time>2019-08-28T09:53:30Z</time>
      </trkpt>
      <trkpt lat="36.5169920" lon="-5.3147680">
        <ele>624.9</ele>
        <time>2019-08-28T09:53:31Z</time>
      </trkpt>
      <trkpt lat="36.5169670" lon="-5.3147330">
        <ele>624.7</ele>
        <time>2019-08-28T09:53:32Z</time>
      </trkpt>
      <trkpt lat="36.5169440" lon="-5.3146970">
        <ele>624.7</ele>
        <time>2019-08-28T09:53:33Z</time>
      </trkpt>
      <trkpt lat="36.5169280" lon="-5.3146530">
        <ele>624.7</ele>
        <time>2019-08-28T09:53:34Z</time>
      </trkpt>
      <trkpt lat="36.5169160" lon="-5.3146040">
        <ele>624.8</ele>
        <time>2019-08-28T09:53:35Z</time>
      </trkpt>
      <trkpt lat="36.5169100" lon="-5.3145570">
        <ele>624.9</ele>
        <time>2019-08-28T09:53:36Z</time>
      </trkpt>
      <trkpt lat="36.5169040" lon="-5.3145220">
        <ele>625.0</ele>
        <time>2019-08-28T09:53:37Z</time>
      </trkpt>
      <trkpt lat="36.5168980" lon="-5.3144930">
        <ele>625.0</ele>
        <time>2019-08-28T09:53:38Z</time>
      </trkpt>
      <trkpt lat="36.5168910" lon="-5.3144660">
        <ele>625.1</ele>
        <time>2019-08-28T09:53:39Z</time>
      </trkpt>
      <trkpt lat="36.5168830" lon="-5.3144360">
        <ele>625.1</ele>
        <time>2019-08-28T09:53:40Z</time>
      </trkpt>
      <trkpt lat="36.5168750" lon="-5.3144070">
        <ele>625.2</ele>
        <time>2019-08-28T09:53:41Z</time>
      </trkpt>
      <trkpt lat="36.5168700" lon="-5.3143780">
        <ele>625.2</ele>
        <time>2019-08-28T09:53:42Z</time>
      </trkpt>
      <trkpt lat="36.5168650" lon="-5.3143530">
        <ele>625.6</ele>
        <time>2019-08-28T09:53:43Z</time>
      </trkpt>
      <trkpt lat="36.5168600" lon="-5.3143310">
        <ele>625.6</ele>
        <time>2019-08-28T09:53:44Z</time>
      </trkpt>
      <trkpt lat="36.5168570" lon="-5.3143120">
        <ele>625.6</ele>
        <time>2019-08-28T09:53:45Z</time>
      </trkpt>
      <trkpt lat="36.5168610" lon="-5.3142980">
        <ele>625.6</ele>
        <time>2019-08-28T09:53:46Z</time>
      </trkpt>
      <trkpt lat="36.5168840" lon="-5.3142980">
        <ele>625.7</ele>
        <time>2019-08-28T09:53:47Z</time>
      </trkpt>
      <trkpt lat="36.5169130" lon="-5.3143060">
        <ele>625.7</ele>
        <time>2019-08-28T09:53:48Z</time>
      </trkpt>
      <trkpt lat="36.5169450" lon="-5.3143150">
        <ele>625.8</ele>
        <time>2019-08-28T09:53:49Z</time>
      </trkpt>
      <trkpt lat="36.5169650" lon="-5.3143170">
        <ele>625.8</ele>
        <time>2019-08-28T09:53:50Z</time>
      </trkpt>
      <trkpt lat="36.5169840" lon="-5.3143180">
        <ele>625.9</ele>
        <time>2019-08-28T09:53:51Z</time>
      </trkpt>
      <trkpt lat="36.5170020" lon="-5.3143210">
        <ele>625.9</ele>
        <time>2019-08-28T09:53:52Z</time>
      </trkpt>
      <trkpt lat="36.5170200" lon="-5.3143240">
        <ele>625.9</ele>
        <time>2019-08-28T09:53:53Z</time>
      </trkpt>
      <trkpt lat="36.5170380" lon="-5.3143280">
        <ele>626.0</ele>
        <time>2019-08-28T09:53:54Z</time>
      </trkpt>
      <trkpt lat="36.5170560" lon="-5.3143310">
        <ele>626.0</ele>
        <time>2019-08-28T09:53:55Z</time>
      </trkpt>
      <trkpt lat="36.5170750" lon="-5.3143300">
        <ele>626.0</ele>
        <time>2019-08-28T09:53:56Z</time>
      </trkpt>
      <trkpt lat="36.5170940" lon="-5.3143230">
        <ele>626.1</ele>
        <time>2019-08-28T09:53:57Z</time>
      </trkpt>
      <trkpt lat="36.5171150" lon="-5.3143130">
        <ele>626.1</ele>
        <time>2019-08-28T09:53:58Z</time>
      </trkpt>
      <trkpt lat="36.5171360" lon="-5.3143030">
        <ele>626.1</ele>
        <time>2019-08-28T09:53:59Z</time>
      </trkpt>
      <trkpt lat="36.5171560" lon="-5.3142920">
        <ele>626.2</ele>
        <time>2019-08-28T09:54:00Z</time>
      </trkpt>
      <trkpt lat="36.5171750" lon="-5.3142810">
        <ele>626.2</ele>
        <time>2019-08-28T09:54:01Z</time>
      </trkpt>
      <trkpt lat="36.5171920" lon="-5.3142700">
        <ele>626.3</ele>
        <time>2019-08-28T09:54:02Z</time>
      </trkpt>
      <trkpt lat="36.5172090" lon="-5.3142590">
        <ele>626.3</ele>
        <time>2019-08-28T09:54:03Z</time>
      </trkpt>
      <trkpt lat="36.5172250" lon="-5.3142450">
        <ele>626.4</ele>
        <time>2019-08-28T09:54:04Z</time>
      </trkpt>
      <trkpt lat="36.5172410" lon="-5.3142290">
        <ele>626.4</ele>
        <time>2019-08-28T09:54:05Z</time>
      </trkpt>
      <trkpt lat="36.5172540" lon="-5.3142090">
        <ele>626.5</ele>
        <time>2019-08-28T09:54:06Z</time>
      </trkpt>
      <trkpt lat="36.5172660" lon="-5.3141870">
        <ele>626.5</ele>
        <time>2019-08-28T09:54:07Z</time>
      </trkpt>
      <trkpt lat="36.5172710" lon="-5.3141590">
        <ele>626.6</ele>
        <time>2019-08-28T09:54:08Z</time>
      </trkpt>
      <trkpt lat="36.5172700" lon="-5.3141300">
        <ele>626.6</ele>
        <time>2019-08-28T09:54:09Z</time>
      </trkpt>
      <trkpt lat="36.5172600" lon="-5.3141040">
        <ele>626.7</ele>
        <time>2019-08-28T09:54:10Z</time>
      </trkpt>
      <trkpt lat="36.5172490" lon="-5.3140840">
        <ele>626.7</ele>
        <time>2019-08-28T09:54:11Z</time>
      </trkpt>
      <trkpt lat="36.5172400" lon="-5.3140700">
        <ele>626.8</ele>
        <time>2019-08-28T09:54:12Z</time>
      </trkpt>
      <trkpt lat="36.5172320" lon="-5.3140610">
        <ele>626.8</ele>
        <time>2019-08-28T09:54:13Z</time>
      </trkpt>
      <trkpt lat="36.5172240" lon="-5.3140530">
        <ele>626.8</ele>
        <time>2019-08-28T09:54:14Z</time>
      </trkpt>
      <trkpt lat="36.5172120" lon="-5.3140540">
        <ele>626.8</ele>
        <time>2019-08-28T09:54:15Z</time>
      </trkpt>
      <trkpt lat="36.5171990" lon="-5.3140580">
        <ele>626.9</ele>
        <time>2019-08-28T09:54:16Z</time>
      </trkpt>
      <trkpt lat="36.5171860" lon="-5.3140610">
        <ele>626.9</ele>
        <time>2019-08-28T09:54:17Z</time>
      </trkpt>
      <trkpt lat="36.5171710" lon="-5.3140600">
        <ele>626.9</ele>
        <time>2019-08-28T09:54:18Z</time>
      </trkpt>
      <trkpt lat="36.5171570" lon="-5.3140580">
        <ele>627.0</ele>
        <time>2019-08-28T09:54:19Z</time>
      </trkpt>
      <trkpt lat="36.5171440" lon="-5.3140570">
        <ele>627.0</ele>
        <time>2019-08-28T09:54:20Z</time>
      </trkpt>
      <trkpt lat="36.5171320" lon="-5.3140640">
        <ele>627.0</ele>
        <time>2019-08-28T09:54:21Z</time>
      </trkpt>
      <trkpt lat="36.5171210" lon="-5.3140760">
        <ele>627.1</ele>
        <time>2019-08-28T09:54:22Z</time>
      </trkpt>
      <trkpt lat="36.5171120" lon="-5.3140930">
        <ele>627.1</ele>
        <time>2019-08-28T09:54:23Z</time>
      </trkpt>
      <trkpt lat="36.5171070" lon="-5.3141110">
        <ele>627.1</ele>
        <time>2019-08-28T09:54:24Z</time>
      </trkpt>
      <trkpt lat="36.5171020" lon="-5.3141270">
        <ele>627.2</ele>
        <time>2019-08-28T09:54:25Z</time>
      </trkpt>
      <trkpt lat="36.5170950" lon="-5.3141400">
        <ele>627.2</ele>
        <time>2019-08-28T09:54:26Z</time>
      </trkpt>
      <trkpt lat="36.5170830" lon="-5.3141460">
        <ele>627.2</ele>
        <time>2019-08-28T09:54:27Z</time>
      </trkpt>
      <trkpt lat="36.5170720" lon="-5.3141480">
        <ele>627.2</ele>
        <time>2019-08-28T09:54:28Z</time>
      </trkpt>
      <trkpt lat="36.5170650" lon="-5.3141460">
        <ele>627.3</ele>
        <time>2019-08-28T09:54:29Z</time>
      </trkpt>
      <trkpt lat="36.5170640" lon="-5.3141450">
        <ele>627.3</ele>
        <time>2019-08-28T09:54:30Z</time>
      </trkpt>
      <trkpt lat="36.5170650" lon="-5.3141440">
        <ele>627.3</ele>
        <time>2019-08-28T09:54:31Z</time>
      </trkpt>
      <trkpt lat="36.5170650" lon="-5.3141440">
        <ele>627.3</ele>
        <time>2019-08-28T09:54:32Z</time>
      </trkpt>
      <trkpt lat="36.5170620" lon="-5.3141430">
        <ele>627.3</ele>
        <time>2019-08-28T09:54:33Z</time>
      </trkpt>
      <trkpt lat="36.5170580" lon="-5.3141410">
        <ele>627.3</ele>
        <time>2019-08-28T09:54:34Z</time>
      </trkpt>
      <trkpt lat="36.5170500" lon="-5.3141360">
        <ele>627.3</ele>
        <time>2019-08-28T09:54:35Z</time>
      </trkpt>
      <trkpt lat="36.5170380" lon="-5.3141290">
        <ele>627.3</ele>
        <time>2019-08-28T09:54:36Z</time>
      </trkpt>
      <trkpt lat="36.5170230" lon="-5.3141190">
        <ele>627.4</ele>
        <time>2019-08-28T09:54:37Z</time>
      </trkpt>
      <trkpt lat="36.5170060" lon="-5.3141070">
        <ele>627.4</ele>
        <time>2019-08-28T09:54:38Z</time>
      </trkpt>
      <trkpt lat="36.5169900" lon="-5.3140930">
        <ele>627.5</ele>
        <time>2019-08-28T09:54:39Z</time>
      </trkpt>
      <trkpt lat="36.5169750" lon="-5.3140780">
        <ele>627.5</ele>
        <time>2019-08-28T09:54:40Z</time>
      </trkpt>
      <trkpt lat="36.5169590" lon="-5.3140640">
        <ele>627.6</ele>
        <time>2019-08-28T09:54:41Z</time>
      </trkpt>
      <trkpt lat="36.5169440" lon="-5.3140480">
        <ele>627.6</ele>
        <time>2019-08-28T09:54:42Z</time>
      </trkpt>
      <trkpt lat="36.5169280" lon="-5.3140290">
        <ele>627.7</ele>
        <time>2019-08-28T09:54:43Z</time>
      </trkpt>
      <trkpt lat="36.5169160" lon="-5.3140030">
        <ele>627.7</ele>
        <time>2019-08-28T09:54:44Z</time>
      </trkpt>
      <trkpt lat="36.5169060" lon="-5.3139750">
        <ele>627.7</ele>
        <time>2019-08-28T09:54:45Z</time>
      </trkpt>
      <trkpt lat="36.5168960" lon="-5.3139460">
        <ele>627.8</ele>
        <time>2019-08-28T09:54:46Z</time>
      </trkpt>
      <trkpt lat="36.5168840" lon="-5.3139210">
        <ele>627.8</ele>
        <time>2019-08-28T09:54:47Z</time>
      </trkpt>
      <trkpt lat="36.5168720" lon="-5.3138950">
        <ele>627.8</ele>
        <time>2019-08-28T09:54:48Z</time>
      </trkpt>
      <trkpt lat="36.5168610" lon="-5.3138680">
        <ele>627.9</ele>
        <time>2019-08-28T09:54:49Z</time>
      </trkpt>
      <trkpt lat="36.5168550" lon="-5.3138380">
        <ele>627.9</ele>
        <time>2019-08-28T09:54:50Z</time>
      </trkpt>
      <trkpt lat="36.5168530" lon="-5.3138050">
        <ele>627.9</ele>
        <time>2019-08-28T09:54:51Z</time>
      </trkpt>
      <trkpt lat="36.5168530" lon="-5.3137750">
        <ele>628.0</ele>
        <time>2019-08-28T09:54:52Z</time>
      </trkpt>
      <trkpt lat="36.5168520" lon="-5.3137520">
        <ele>628.0</ele>
        <time>2019-08-28T09:54:53Z</time>
      </trkpt>
      <trkpt lat="36.5168500" lon="-5.3137380">
        <ele>628.0</ele>
        <time>2019-08-28T09:54:54Z</time>
      </trkpt>
      <trkpt lat="36.5168470" lon="-5.3137290">
        <ele>628.0</ele>
        <time>2019-08-28T09:54:55Z</time>
      </trkpt>
      <trkpt lat="36.5168470" lon="-5.3137240">
        <ele>628.0</ele>
        <time>2019-08-28T09:54:56Z</time>
      </trkpt>
      <trkpt lat="36.5168470" lon="-5.3137220">
        <ele>628.0</ele>
        <time>2019-08-28T09:54:57Z</time>
      </trkpt>
      <trkpt lat="36.5168480" lon="-5.3137210">
        <ele>628.0</ele>
        <time>2019-08-28T09:54:58Z</time>
      </trkpt>
      <trkpt lat="36.5168490" lon="-5.3137210">
        <ele>628.0</ele>
        <time>2019-08-28T09:54:59Z</time>
      </trkpt>
      <trkpt lat="36.5168500" lon="-5.3137200">
        <ele>628.1</ele>
        <time>2019-08-28T09:55:00Z</time>
      </trkpt>
      <trkpt lat="36.5168500" lon="-5.3137200">
        <ele>628.1</ele>
        <time>2019-08-28T09:55:01Z</time>
      </trkpt>
      <trkpt lat="36.5168510" lon="-5.3137200">
        <ele>628.1</ele>
        <time>2019-08-28T09:55:02Z</time>
      </trkpt>
      <trkpt lat="36.5168500" lon="-5.3136740">
        <ele>628.1</ele>
        <time>2019-08-28T09:59:38Z</time>
      </trkpt>
      <trkpt lat="36.5168500" lon="-5.3136750">
        <ele>628.1</ele>
        <time>2019-08-28T09:59:39Z</time>
      </trkpt>
      <trkpt lat="36.5168500" lon="-5.3136760">
        <ele>628.1</ele>
        <time>2019-08-28T09:59:40Z</time>
      </trkpt>
      <trkpt lat="36.5168510" lon="-5.3136760">
        <ele>628.1</ele>
        <time>2019-08-28T09:59:41Z</time>
      </trkpt>
      <trkpt lat="36.5168510" lon="-5.3136760">
        <ele>628.1</ele>
        <time>2019-08-28T09:59:42Z</time>
      </trkpt>
      <trkpt lat="36.5168510" lon="-5.3136770">
        <ele>628.1</ele>
        <time>2019-08-28T09:59:43Z</time>
      </trkpt>
      <trkpt lat="36.5168420" lon="-5.3136660">
        <ele>628.1</ele>
        <time>2019-08-28T10:06:39Z</time>
      </trkpt>
      <trkpt lat="36.5168390" lon="-5.3136640">
        <ele>628.1</ele>
        <time>2019-08-28T10:06:40Z</time>
      </trkpt>
      <trkpt lat="36.5168370" lon="-5.3136610">
        <ele>628.1</ele>
        <time>2019-08-28T10:06:41Z</time>
      </trkpt>
      <trkpt lat="36.5168380" lon="-5.3136590">
        <ele>628.1</ele>
        <time>2019-08-28T10:06:42Z</time>
      </trkpt>
      <trkpt lat="36.5168390" lon="-5.3136570">
        <ele>628.2</ele>
        <time>2019-08-28T10:06:43Z</time>
      </trkpt>
      <trkpt lat="36.5168410" lon="-5.3136570">
        <ele>628.2</ele>
        <time>2019-08-28T10:06:44Z</time>
      </trkpt>
      <trkpt lat="36.5168410" lon="-5.3136570">
        <ele>628.2</ele>
        <time>2019-08-28T10:06:45Z</time>
      </trkpt>
      <trkpt lat="36.5168420" lon="-5.3136580">
        <ele>628.2</ele>
        <time>2019-08-28T10:06:46Z</time>
      </trkpt>
      <trkpt lat="36.5168420" lon="-5.3136580">
        <ele>628.2</ele>
        <time>2019-08-28T10:06:47Z</time>
      </trkpt>
      <trkpt lat="36.5168470" lon="-5.3136700">
        <ele>628.2</ele>
        <time>2019-08-28T10:07:31Z</time>
      </trkpt>
      <trkpt lat="36.5168510" lon="-5.3136710">
        <ele>628.2</ele>
        <time>2019-08-28T10:07:32Z</time>
      </trkpt>
      <trkpt lat="36.5168530" lon="-5.3136700">
        <ele>628.2</ele>
        <time>2019-08-28T10:07:33Z</time>
      </trkpt>
      <trkpt lat="36.5168530" lon="-5.3136700">
        <ele>628.2</ele>
        <time>2019-08-28T10:07:34Z</time>
      </trkpt>
      <trkpt lat="36.5168540" lon="-5.3136700">
        <ele>628.2</ele>
        <time>2019-08-28T10:07:35Z</time>
      </trkpt>
      <trkpt lat="36.5168540" lon="-5.3136700">
        <ele>628.2</ele>
        <time>2019-08-28T10:07:36Z</time>
      </trkpt>
      <trkpt lat="36.5168550" lon="-5.3136710">
        <ele>628.2</ele>
        <time>2019-08-28T10:07:37Z</time>
      </trkpt>
      <trkpt lat="36.5168550" lon="-5.3136720">
        <ele>628.2</ele>
        <time>2019-08-28T10:07:38Z</time>
      </trkpt>
      <trkpt lat="36.5168610" lon="-5.3137080">
        <ele>628.3</ele>
        <time>2019-08-28T10:07:51Z</time>
      </trkpt>
      <trkpt lat="36.5168680" lon="-5.3137140">
        <ele>628.3</ele>
        <time>2019-08-28T10:07:52Z</time>
      </trkpt>
      <trkpt lat="36.5168770" lon="-5.3137190">
        <ele>628.4</ele>
        <time>2019-08-28T10:07:53Z</time>
      </trkpt>
      <trkpt lat="36.5168830" lon="-5.3137190">
        <ele>628.4</ele>
        <time>2019-08-28T10:07:54Z</time>
      </trkpt>
      <trkpt lat="36.5168850" lon="-5.3137200">
        <ele>628.4</ele>
        <time>2019-08-28T10:07:55Z</time>
      </trkpt>
      <trkpt lat="36.5168840" lon="-5.3137220">
        <ele>628.4</ele>
        <time>2019-08-28T10:07:56Z</time>
      </trkpt>
      <trkpt lat="36.5168840" lon="-5.3137220">
        <ele>628.4</ele>
        <time>2019-08-28T10:07:57Z</time>
      </trkpt>
      <trkpt lat="36.5168840" lon="-5.3137220">
        <ele>628.4</ele>
        <time>2019-08-28T10:07:58Z</time>
      </trkpt>
      <trkpt lat="36.5168830" lon="-5.3137220">
        <ele>628.4</ele>
        <time>2019-08-28T10:07:59Z</time>
      </trkpt>
      <trkpt lat="36.5168830" lon="-5.3137230">
        <ele>628.4</ele>
        <time>2019-08-28T10:08:00Z</time>
      </trkpt>
      <trkpt lat="36.5168920" lon="-5.3137130">
        <ele>628.4</ele>
        <time>2019-08-28T10:09:32Z</time>
      </trkpt>
      <trkpt lat="36.5168900" lon="-5.3137100">
        <ele>628.5</ele>
        <time>2019-08-28T10:09:33Z</time>
      </trkpt>
      <trkpt lat="36.5168880" lon="-5.3137060">
        <ele>628.5</ele>
        <time>2019-08-28T10:09:34Z</time>
      </trkpt>
      <trkpt lat="36.5168860" lon="-5.3137030">
        <ele>628.5</ele>
        <time>2019-08-28T10:09:35Z</time>
      </trkpt>
      <trkpt lat="36.5168840" lon="-5.3137020">
        <ele>628.5</ele>
        <time>2019-08-28T10:09:36Z</time>
      </trkpt>
      <trkpt lat="36.5168840" lon="-5.3137010">
        <ele>628.5</ele>
        <time>2019-08-28T10:09:37Z</time>
      </trkpt>
      <trkpt lat="36.5168830" lon="-5.3137010">
        <ele>628.5</ele>
        <time>2019-08-28T10:09:38Z</time>
      </trkpt>
      <trkpt lat="36.5168830" lon="-5.3137010">
        <ele>628.5</ele>
        <time>2019-08-28T10:09:39Z</time>
      </trkpt>
      <trkpt lat="36.5168830" lon="-5.3137000">
        <ele>628.5</ele>
        <time>2019-08-28T10:09:40Z</time>
      </trkpt>
      <trkpt lat="36.5168720" lon="-5.3137020">
        <ele>628.5</ele>
        <time>2019-08-28T10:09:51Z</time>
      </trkpt>
      <trkpt lat="36.5168690" lon="-5.3137020">
        <ele>628.5</ele>
        <time>2019-08-28T10:09:52Z</time>
      </trkpt>
      <trkpt lat="36.5168650" lon="-5.3137010">
        <ele>628.5</ele>
        <time>2019-08-28T10:09:53Z</time>
      </trkpt>
      <trkpt lat="36.5168630" lon="-5.3137000">
        <ele>628.6</ele>
        <time>2019-08-28T10:09:54Z</time>
      </trkpt>
      <trkpt lat="36.5168600" lon="-5.3136970">
        <ele>628.6</ele>
        <time>2019-08-28T10:09:55Z</time>
      </trkpt>
      <trkpt lat="36.5168580" lon="-5.3136940">
        <ele>628.6</ele>
        <time>2019-08-28T10:09:56Z</time>
      </trkpt>
      <trkpt lat="36.5168570" lon="-5.3136910">
        <ele>628.6</ele>
        <time>2019-08-28T10:09:57Z</time>
      </trkpt>
      <trkpt lat="36.5168550" lon="-5.3136890">
        <ele>628.6</ele>
        <time>2019-08-28T10:09:58Z</time>
      </trkpt>
      <trkpt lat="36.5168530" lon="-5.3136870">
        <ele>628.6</ele>
        <time>2019-08-28T10:09:59Z</time>
      </trkpt>
      <trkpt lat="36.5168530" lon="-5.3136850">
        <ele>628.6</ele>
        <time>2019-08-28T10:10:00Z</time>
      </trkpt>
      <trkpt lat="36.5168540" lon="-5.3136840">
        <ele>628.6</ele>
        <time>2019-08-28T10:10:01Z</time>
      </trkpt>
      <trkpt lat="36.5168550" lon="-5.3136820">
        <ele>628.6</ele>
        <time>2019-08-28T10:10:02Z</time>
      </trkpt>
      <trkpt lat="36.5168550" lon="-5.3136820">
        <ele>628.6</ele>
        <time>2019-08-28T10:10:03Z</time>
      </trkpt>
      <trkpt lat="36.5168540" lon="-5.3136820">
        <ele>628.6</ele>
        <time>2019-08-28T10:10:04Z</time>
      </trkpt>
      <trkpt lat="36.5168530" lon="-5.3136810">
        <ele>628.6</ele>
        <time>2019-08-28T10:10:05Z</time>
      </trkpt>
      <trkpt lat="36.5168530" lon="-5.3136820">
        <ele>628.6</ele>
        <time>2019-08-28T10:10:06Z</time>
      </trkpt>
      <trkpt lat="36.5168530" lon="-5.3136830">
        <ele>628.6</ele>
        <time>2019-08-28T10:10:07Z</time>
      </trkpt>
      <trkpt lat="36.5168530" lon="-5.3136860">
        <ele>628.6</ele>
        <time>2019-08-28T10:10:08Z</time>
      </trkpt>
      <trkpt lat="36.5168510" lon="-5.3136900">
        <ele>628.6</ele>
        <time>2019-08-28T10:10:09Z</time>
      </trkpt>
      <trkpt lat="36.5168500" lon="-5.3136920">
        <ele>628.6</ele>
        <time>2019-08-28T10:10:10Z</time>
      </trkpt>
      <trkpt lat="36.5168500" lon="-5.3136920">
        <ele>628.6</ele>
        <time>2019-08-28T10:10:11Z</time>
      </trkpt>
      <trkpt lat="36.5168500" lon="-5.3136910">
        <ele>628.7</ele>
        <time>2019-08-28T10:10:12Z</time>
      </trkpt>
      <trkpt lat="36.5168530" lon="-5.3137450">
        <ele>628.8</ele>
        <time>2019-08-28T10:11:54Z</time>
      </trkpt>
      <trkpt lat="36.5168540" lon="-5.3137640">
        <ele>628.8</ele>
        <time>2019-08-28T10:11:55Z</time>
      </trkpt>
      <trkpt lat="36.5168560" lon="-5.3137850">
        <ele>628.9</ele>
        <time>2019-08-28T10:11:56Z</time>
      </trkpt>
      <trkpt lat="36.5168590" lon="-5.3138080">
        <ele>628.9</ele>
        <time>2019-08-28T10:11:57Z</time>
      </trkpt>
      <trkpt lat="36.5168640" lon="-5.3138310">
        <ele>629.0</ele>
        <time>2019-08-28T10:11:58Z</time>
      </trkpt>
      <trkpt lat="36.5168710" lon="-5.3138550">
        <ele>629.1</ele>
        <time>2019-08-28T10:11:59Z</time>
      </trkpt>
      <trkpt lat="36.5168780" lon="-5.3138760">
        <ele>629.1</ele>
        <time>2019-08-28T10:12:00Z</time>
      </trkpt>
      <trkpt lat="36.5168860" lon="-5.3138970">
        <ele>629.2</ele>
        <time>2019-08-28T10:12:01Z</time>
      </trkpt>
      <trkpt lat="36.5168940" lon="-5.3139170">
        <ele>629.2</ele>
        <time>2019-08-28T10:12:02Z</time>
      </trkpt>
      <trkpt lat="36.5169010" lon="-5.3139370">
        <ele>629.3</ele>
        <time>2019-08-28T10:12:03Z</time>
      </trkpt>
      <trkpt lat="36.5169100" lon="-5.3139570">
        <ele>629.4</ele>
        <time>2019-08-28T10:12:04Z</time>
      </trkpt>
      <trkpt lat="36.5169200" lon="-5.3139770">
        <ele>629.4</ele>
        <time>2019-08-28T10:12:05Z</time>
      </trkpt>
      <trkpt lat="36.5169320" lon="-5.3139970">
        <ele>629.5</ele>
        <time>2019-08-28T10:12:06Z</time>
      </trkpt>
      <trkpt lat="36.5169440" lon="-5.3140160">
        <ele>629.6</ele>
        <time>2019-08-28T10:12:07Z</time>
      </trkpt>
      <trkpt lat="36.5169570" lon="-5.3140350">
        <ele>629.7</ele>
        <time>2019-08-28T10:12:08Z</time>
      </trkpt>
      <trkpt lat="36.5169710" lon="-5.3140540">
        <ele>629.7</ele>
        <time>2019-08-28T10:12:09Z</time>
      </trkpt>
      <trkpt lat="36.5169880" lon="-5.3140700">
        <ele>629.8</ele>
        <time>2019-08-28T10:12:10Z</time>
      </trkpt>
      <trkpt lat="36.5170060" lon="-5.3140840">
        <ele>629.9</ele>
        <time>2019-08-28T10:12:11Z</time>
      </trkpt>
      <trkpt lat="36.5170250" lon="-5.3140960">
        <ele>630.0</ele>
        <time>2019-08-28T10:12:12Z</time>
      </trkpt>
      <trkpt lat="36.5170440" lon="-5.3141060">
        <ele>630.1</ele>
        <time>2019-08-28T10:12:13Z</time>
      </trkpt>
      <trkpt lat="36.5170620" lon="-5.3141170">
        <ele>630.2</ele>
        <time>2019-08-28T10:12:14Z</time>
      </trkpt>
      <trkpt lat="36.5170800" lon="-5.3141260">
        <ele>630.2</ele>
        <time>2019-08-28T10:12:15Z</time>
      </trkpt>
      <trkpt lat="36.5171010" lon="-5.3141270">
        <ele>630.3</ele>
        <time>2019-08-28T10:12:16Z</time>
      </trkpt>
      <trkpt lat="36.5171190" lon="-5.3141180">
        <ele>630.4</ele>
        <time>2019-08-28T10:12:17Z</time>
      </trkpt>
      <trkpt lat="36.5171360" lon="-5.3141020">
        <ele>630.5</ele>
        <time>2019-08-28T10:12:18Z</time>
      </trkpt>
      <trkpt lat="36.5171480" lon="-5.3140860">
        <ele>630.5</ele>
        <time>2019-08-28T10:12:19Z</time>
      </trkpt>
      <trkpt lat="36.5171590" lon="-5.3140730">
        <ele>630.6</ele>
        <time>2019-08-28T10:12:20Z</time>
      </trkpt>
      <trkpt lat="36.5171720" lon="-5.3140620">
        <ele>630.7</ele>
        <time>2019-08-28T10:12:21Z</time>
      </trkpt>
      <trkpt lat="36.5171890" lon="-5.3140580">
        <ele>630.7</ele>
        <time>2019-08-28T10:12:22Z</time>
      </trkpt>
      <trkpt lat="36.5172140" lon="-5.3140620">
        <ele>630.7</ele>
        <time>2019-08-28T10:12:23Z</time>
      </trkpt>
      <trkpt lat="36.5172410" lon="-5.3140730">
        <ele>630.7</ele>
        <time>2019-08-28T10:12:24Z</time>
      </trkpt>
      <trkpt lat="36.5172670" lon="-5.3140860">
        <ele>630.7</ele>
        <time>2019-08-28T10:12:25Z</time>
      </trkpt>
      <trkpt lat="36.5172840" lon="-5.3141040">
        <ele>630.7</ele>
        <time>2019-08-28T10:12:26Z</time>
      </trkpt>
      <trkpt lat="36.5172970" lon="-5.3141280">
        <ele>630.7</ele>
        <time>2019-08-28T10:12:27Z</time>
      </trkpt>
      <trkpt lat="36.5173030" lon="-5.3141520">
        <ele>630.7</ele>
        <time>2019-08-28T10:12:28Z</time>
      </trkpt>
      <trkpt lat="36.5173000" lon="-5.3141720">
        <ele>630.7</ele>
        <time>2019-08-28T10:12:29Z</time>
      </trkpt>
      <trkpt lat="36.5172820" lon="-5.3141960">
        <ele>630.7</ele>
        <time>2019-08-28T10:12:30Z</time>
      </trkpt>
      <trkpt lat="36.5172520" lon="-5.3142220">
        <ele>630.7</ele>
        <time>2019-08-28T10:12:31Z</time>
      </trkpt>
      <trkpt lat="36.5172140" lon="-5.3142510">
        <ele>629.9</ele>
        <time>2019-08-28T10:12:32Z</time>
      </trkpt>
      <trkpt lat="36.5171760" lon="-5.3142720">
        <ele>629.2</ele>
        <time>2019-08-28T10:12:33Z</time>
      </trkpt>
      <trkpt lat="36.5171400" lon="-5.3142900">
        <ele>628.6</ele>
        <time>2019-08-28T10:12:34Z</time>
      </trkpt>
      <trkpt lat="36.5171060" lon="-5.3143050">
        <ele>628.1</ele>
        <time>2019-08-28T10:12:35Z</time>
      </trkpt>
      <trkpt lat="36.5170720" lon="-5.3143150">
        <ele>627.8</ele>
        <time>2019-08-28T10:12:36Z</time>
      </trkpt>
      <trkpt lat="36.5170390" lon="-5.3143200">
        <ele>627.6</ele>
        <time>2019-08-28T10:12:37Z</time>
      </trkpt>
      <trkpt lat="36.5170050" lon="-5.3143210">
        <ele>627.2</ele>
        <time>2019-08-28T10:12:38Z</time>
      </trkpt>
      <trkpt lat="36.5169740" lon="-5.3143190">
        <ele>626.8</ele>
        <time>2019-08-28T10:12:39Z</time>
      </trkpt>
      <trkpt lat="36.5169470" lon="-5.3143170">
        <ele>626.5</ele>
        <time>2019-08-28T10:12:40Z</time>
      </trkpt>
      <trkpt lat="36.5169230" lon="-5.3143160">
        <ele>626.3</ele>
        <time>2019-08-28T10:12:41Z</time>
      </trkpt>
      <trkpt lat="36.5169000" lon="-5.3143260">
        <ele>626.0</ele>
        <time>2019-08-28T10:12:42Z</time>
      </trkpt>
      <trkpt lat="36.5168800" lon="-5.3143410">
        <ele>625.8</ele>
        <time>2019-08-28T10:12:43Z</time>
      </trkpt>
      <trkpt lat="36.5168690" lon="-5.3143580">
        <ele>625.7</ele>
        <time>2019-08-28T10:12:44Z</time>
      </trkpt>
      <trkpt lat="36.5168660" lon="-5.3143720">
        <ele>625.6</ele>
        <time>2019-08-28T10:12:45Z</time>
      </trkpt>
      <trkpt lat="36.5168710" lon="-5.3143880">
        <ele>625.2</ele>
        <time>2019-08-28T10:12:46Z</time>
      </trkpt>
      <trkpt lat="36.5168800" lon="-5.3144160">
        <ele>625.2</ele>
        <time>2019-08-28T10:12:47Z</time>
      </trkpt>
      <trkpt lat="36.5168930" lon="-5.3144530">
        <ele>625.1</ele>
        <time>2019-08-28T10:12:48Z</time>
      </trkpt>
      <trkpt lat="36.5169030" lon="-5.3144960">
        <ele>625.0</ele>
        <time>2019-08-28T10:12:49Z</time>
      </trkpt>
      <trkpt lat="36.5169110" lon="-5.3145350">
        <ele>625.0</ele>
        <time>2019-08-28T10:12:50Z</time>
      </trkpt>
      <trkpt lat="36.5169180" lon="-5.3145730">
        <ele>624.9</ele>
        <time>2019-08-28T10:12:51Z</time>
      </trkpt>
      <trkpt lat="36.5169340" lon="-5.3146090">
        <ele>624.8</ele>
        <time>2019-08-28T10:12:52Z</time>
      </trkpt>
      <trkpt lat="36.5169560" lon="-5.3146390">
        <ele>624.5</ele>
        <time>2019-08-28T10:12:53Z</time>
      </trkpt>
      <trkpt lat="36.5169820" lon="-5.3146570">
        <ele>624.5</ele>
        <time>2019-08-28T10:12:54Z</time>
      </trkpt>
      <trkpt lat="36.5170040" lon="-5.3146620">
        <ele>624.4</ele>
        <time>2019-08-28T10:12:55Z</time>
      </trkpt>
      <trkpt lat="36.5170250" lon="-5.3146600">
        <ele>624.4</ele>
        <time>2019-08-28T10:12:56Z</time>
      </trkpt>
      <trkpt lat="36.5170440" lon="-5.3146570">
        <ele>624.4</ele>
        <time>2019-08-28T10:12:57Z</time>
      </trkpt>
      <trkpt lat="36.5170620" lon="-5.3146550">
        <ele>624.4</ele>
        <time>2019-08-28T10:12:58Z</time>
      </trkpt>
      <trkpt lat="36.5170800" lon="-5.3146550">
        <ele>624.4</ele>
        <time>2019-08-28T10:12:59Z</time>
      </trkpt>
      <trkpt lat="36.5170990" lon="-5.3146540">
        <ele>624.4</ele>
        <time>2019-08-28T10:13:00Z</time>
      </trkpt>
      <trkpt lat="36.5171230" lon="-5.3146530">
        <ele>624.3</ele>
        <time>2019-08-28T10:13:01Z</time>
      </trkpt>
      <trkpt lat="36.5171480" lon="-5.3146530">
        <ele>624.3</ele>
        <time>2019-08-28T10:13:02Z</time>
      </trkpt>
      <trkpt lat="36.5171730" lon="-5.3146550">
        <ele>624.4</ele>
        <time>2019-08-28T10:13:03Z</time>
      </trkpt>
      <trkpt lat="36.5171960" lon="-5.3146610">
        <ele>624.4</ele>
        <time>2019-08-28T10:13:04Z</time>
      </trkpt>
      <trkpt lat="36.5172200" lon="-5.3146670">
        <ele>624.5</ele>
        <time>2019-08-28T10:13:05Z</time>
      </trkpt>
      <trkpt lat="36.5172450" lon="-5.3146700">
        <ele>624.6</ele>
        <time>2019-08-28T10:13:06Z</time>
      </trkpt>
      <trkpt lat="36.5172690" lon="-5.3146710">
        <ele>624.8</ele>
        <time>2019-08-28T10:13:07Z</time>
      </trkpt>
      <trkpt lat="36.5172920" lon="-5.3146720">
        <ele>625.0</ele>
        <time>2019-08-28T10:13:08Z</time>
      </trkpt>
      <trkpt lat="36.5173150" lon="-5.3146760">
        <ele>625.1</ele>
        <time>2019-08-28T10:13:09Z</time>
      </trkpt>
      <trkpt lat="36.5173370" lon="-5.3146800">
        <ele>625.3</ele>
        <time>2019-08-28T10:13:10Z</time>
      </trkpt>
      <trkpt lat="36.5173590" lon="-5.3146840">
        <ele>625.5</ele>
        <time>2019-08-28T10:13:11Z</time>
      </trkpt>
      <trkpt lat="36.5173810" lon="-5.3146910">
        <ele>625.7</ele>
        <time>2019-08-28T10:13:12Z</time>
      </trkpt>
      <trkpt lat="36.5174040" lon="-5.3146990">
        <ele>626.0</ele>
        <time>2019-08-28T10:13:13Z</time>
      </trkpt>
      <trkpt lat="36.5174250" lon="-5.3147090">
        <ele>626.2</ele>
        <time>2019-08-28T10:13:14Z</time>
      </trkpt>
      <trkpt lat="36.5174430" lon="-5.3147190">
        <ele>626.3</ele>
        <time>2019-08-28T10:13:15Z</time>
      </trkpt>
      <trkpt lat="36.5174590" lon="-5.3147300">
        <ele>626.5</ele>
        <time>2019-08-28T10:13:16Z</time>
      </trkpt>
      <trkpt lat="36.5174720" lon="-5.3147450">
        <ele>626.6</ele>
        <time>2019-08-28T10:13:17Z</time>
      </trkpt>
      <trkpt lat="36.5174820" lon="-5.3147600">
        <ele>626.8</ele>
        <time>2019-08-28T10:13:18Z</time>
      </trkpt>
      <trkpt lat="36.5174920" lon="-5.3147740">
        <ele>626.9</ele>
        <time>2019-08-28T10:13:19Z</time>
      </trkpt>
      <trkpt lat="36.5175070" lon="-5.3147850">
        <ele>627.0</ele>
        <time>2019-08-28T10:13:20Z</time>
      </trkpt>
      <trkpt lat="36.5175240" lon="-5.3147940">
        <ele>627.1</ele>
        <time>2019-08-28T10:13:21Z</time>
      </trkpt>
      <trkpt lat="36.5175430" lon="-5.3148010">
        <ele>627.2</ele>
        <time>2019-08-28T10:13:22Z</time>
      </trkpt>
      <trkpt lat="36.5175600" lon="-5.3148090">
        <ele>627.3</ele>
        <time>2019-08-28T10:13:23Z</time>
      </trkpt>
      <trkpt lat="36.5175750" lon="-5.3148200">
        <ele>627.5</ele>
        <time>2019-08-28T10:13:24Z</time>
      </trkpt>
      <trkpt lat="36.5175870" lon="-5.3148360">
        <ele>627.6</ele>
        <time>2019-08-28T10:13:25Z</time>
      </trkpt>
      <trkpt lat="36.5175970" lon="-5.3148580">
        <ele>627.6</ele>
        <time>2019-08-28T10:13:26Z</time>
      </trkpt>
      <trkpt lat="36.5176090" lon="-5.3148820">
        <ele>627.7</ele>
        <time>2019-08-28T10:13:27Z</time>
      </trkpt>
      <trkpt lat="36.5176260" lon="-5.3149050">
        <ele>627.7</ele>
        <time>2019-08-28T10:13:28Z</time>
      </trkpt>
      <trkpt lat="36.5176450" lon="-5.3149310">
        <ele>627.8</ele>
        <time>2019-08-28T10:13:29Z</time>
      </trkpt>
      <trkpt lat="36.5176660" lon="-5.3149620">
        <ele>627.8</ele>
        <time>2019-08-28T10:13:30Z</time>
      </trkpt>
      <trkpt lat="36.5176860" lon="-5.3149970">
        <ele>627.8</ele>
        <time>2019-08-28T10:13:31Z</time>
      </trkpt>
      <trkpt lat="36.5177070" lon="-5.3150360">
        <ele>627.8</ele>
        <time>2019-08-28T10:13:32Z</time>
      </trkpt>
      <trkpt lat="36.5177270" lon="-5.3150780">
        <ele>627.7</ele>
        <time>2019-08-28T10:13:33Z</time>
      </trkpt>
      <trkpt lat="36.5177450" lon="-5.3151280">
        <ele>627.6</ele>
        <time>2019-08-28T10:13:34Z</time>
      </trkpt>
      <trkpt lat="36.5177620" lon="-5.3151790">
        <ele>627.5</ele>
        <time>2019-08-28T10:13:35Z</time>
      </trkpt>
      <trkpt lat="36.5177790" lon="-5.3152290">
        <ele>627.4</ele>
        <time>2019-08-28T10:13:36Z</time>
      </trkpt>
      <trkpt lat="36.5178020" lon="-5.3152690">
        <ele>627.3</ele>
        <time>2019-08-28T10:13:37Z</time>
      </trkpt>
      <trkpt lat="36.5178280" lon="-5.3153060">
        <ele>627.2</ele>
        <time>2019-08-28T10:13:38Z</time>
      </trkpt>
      <trkpt lat="36.5178610" lon="-5.3153480">
        <ele>627.2</ele>
        <time>2019-08-28T10:13:39Z</time>
      </trkpt>
      <trkpt lat="36.5178950" lon="-5.3153910">
        <ele>627.3</ele>
        <time>2019-08-28T10:13:40Z</time>
      </trkpt>
      <trkpt lat="36.5179290" lon="-5.3154380">
        <ele>627.5</ele>
        <time>2019-08-28T10:13:41Z</time>
      </trkpt>
      <trkpt lat="36.5179570" lon="-5.3154810">
        <ele>627.6</ele>
        <time>2019-08-28T10:13:42Z</time>
      </trkpt>
      <trkpt lat="36.5179820" lon="-5.3155250">
        <ele>627.7</ele>
        <time>2019-08-28T10:13:43Z</time>
      </trkpt>
      <trkpt lat="36.5180070" lon="-5.3155680">
        <ele>628.1</ele>
        <time>2019-08-28T10:13:44Z</time>
      </trkpt>
      <trkpt lat="36.5180330" lon="-5.3156100">
        <ele>628.4</ele>
        <time>2019-08-28T10:13:45Z</time>
      </trkpt>
      <trkpt lat="36.5180580" lon="-5.3156480">
        <ele>628.6</ele>
        <time>2019-08-28T10:13:46Z</time>
      </trkpt>
      <trkpt lat="36.5180770" lon="-5.3156840">
        <ele>628.8</ele>
        <time>2019-08-28T10:13:47Z</time>
      </trkpt>
      <trkpt lat="36.5180940" lon="-5.3157190">
        <ele>629.0</ele>
        <time>2019-08-28T10:13:48Z</time>
      </trkpt>
      <trkpt lat="36.5181100" lon="-5.3157530">
        <ele>629.1</ele>
        <time>2019-08-28T10:13:49Z</time>
      </trkpt>
      <trkpt lat="36.5181320" lon="-5.3157850">
        <ele>629.3</ele>
        <time>2019-08-28T10:13:50Z</time>
      </trkpt>
      <trkpt lat="36.5181520" lon="-5.3158130">
        <ele>629.5</ele>
        <time>2019-08-28T10:13:51Z</time>
      </trkpt>
      <trkpt lat="36.5181720" lon="-5.3158390">
        <ele>629.6</ele>
        <time>2019-08-28T10:13:52Z</time>
      </trkpt>
      <trkpt lat="36.5181900" lon="-5.3158620">
        <ele>629.8</ele>
        <time>2019-08-28T10:13:53Z</time>
      </trkpt>
      <trkpt lat="36.5182070" lon="-5.3158890">
        <ele>629.9</ele>
        <time>2019-08-28T10:13:54Z</time>
      </trkpt>
      <trkpt lat="36.5182190" lon="-5.3159230">
        <ele>630.1</ele>
        <time>2019-08-28T10:13:55Z</time>
      </trkpt>
      <trkpt lat="36.5182300" lon="-5.3159610">
        <ele>630.2</ele>
        <time>2019-08-28T10:13:56Z</time>
      </trkpt>
      <trkpt lat="36.5182400" lon="-5.3159940">
        <ele>630.1</ele>
        <time>2019-08-28T10:13:57Z</time>
      </trkpt>
      <trkpt lat="36.5182490" lon="-5.3160320">
        <ele>629.9</ele>
        <time>2019-08-28T10:13:58Z</time>
      </trkpt>
      <trkpt lat="36.5182570" lon="-5.3160750">
        <ele>629.7</ele>
        <time>2019-08-28T10:13:59Z</time>
      </trkpt>
      <trkpt lat="36.5182650" lon="-5.3161260">
        <ele>629.4</ele>
        <time>2019-08-28T10:14:00Z</time>
      </trkpt>
      <trkpt lat="36.5182770" lon="-5.3161740">
        <ele>629.2</ele>
        <time>2019-08-28T10:14:01Z</time>
      </trkpt>
      <trkpt lat="36.5182900" lon="-5.3162200">
        <ele>629.0</ele>
        <time>2019-08-28T10:14:02Z</time>
      </trkpt>
      <trkpt lat="36.5183010" lon="-5.3162630">
        <ele>628.8</ele>
        <time>2019-08-28T10:14:03Z</time>
      </trkpt>
      <trkpt lat="36.5183120" lon="-5.3163060">
        <ele>628.6</ele>
        <time>2019-08-28T10:14:04Z</time>
      </trkpt>
      <trkpt lat="36.5183240" lon="-5.3163480">
        <ele>628.4</ele>
        <time>2019-08-28T10:14:05Z</time>
      </trkpt>
      <trkpt lat="36.5183380" lon="-5.3163950">
        <ele>628.1</ele>
        <time>2019-08-28T10:14:06Z</time>
      </trkpt>
      <trkpt lat="36.5183500" lon="-5.3164420">
        <ele>627.9</ele>
        <time>2019-08-28T10:14:07Z</time>
      </trkpt>
      <trkpt lat="36.5183620" lon="-5.3164870">
        <ele>627.8</ele>
        <time>2019-08-28T10:14:08Z</time>
      </trkpt>
      <trkpt lat="36.5183770" lon="-5.3165280">
        <ele>627.6</ele>
        <time>2019-08-28T10:14:09Z</time>
      </trkpt>
      <trkpt lat="36.5184080" lon="-5.3165630">
        <ele>627.4</ele>
        <time>2019-08-28T10:14:10Z</time>
      </trkpt>
      <trkpt lat="36.5184460" lon="-5.3165930">
        <ele>627.2</ele>
        <time>2019-08-28T10:14:11Z</time>
      </trkpt>
      <trkpt lat="36.5184850" lon="-5.3166180">
        <ele>626.9</ele>
        <time>2019-08-28T10:14:12Z</time>
      </trkpt>
      <trkpt lat="36.5185120" lon="-5.3166420">
        <ele>626.8</ele>
        <time>2019-08-28T10:14:13Z</time>
      </trkpt>
      <trkpt lat="36.5185350" lon="-5.3166640">
        <ele>626.6</ele>
        <time>2019-08-28T10:14:14Z</time>
      </trkpt>
      <trkpt lat="36.5185570" lon="-5.3166900">
        <ele>626.4</ele>
        <time>2019-08-28T10:14:15Z</time>
      </trkpt>
      <trkpt lat="36.5185800" lon="-5.3167160">
        <ele>626.2</ele>
        <time>2019-08-28T10:14:16Z</time>
      </trkpt>
      <trkpt lat="36.5186040" lon="-5.3167410">
        <ele>626.0</ele>
        <time>2019-08-28T10:14:17Z</time>
      </trkpt>
      <trkpt lat="36.5186330" lon="-5.3167660">
        <ele>625.7</ele>
        <time>2019-08-28T10:14:18Z</time>
      </trkpt>
      <trkpt lat="36.5186640" lon="-5.3167920">
        <ele>625.4</ele>
        <time>2019-08-28T10:14:19Z</time>
      </trkpt>
      <trkpt lat="36.5186960" lon="-5.3168190">
        <ele>625.0</ele>
        <time>2019-08-28T10:14:20Z</time>
      </trkpt>
      <trkpt lat="36.5187240" lon="-5.3168430">
        <ele>624.7</ele>
        <time>2019-08-28T10:14:21Z</time>
      </trkpt>
      <trkpt lat="36.5187510" lon="-5.3168610">
        <ele>624.3</ele>
        <time>2019-08-28T10:14:22Z</time>
      </trkpt>
      <trkpt lat="36.5187810" lon="-5.3168720">
        <ele>624.0</ele>
        <time>2019-08-28T10:14:23Z</time>
      </trkpt>
      <trkpt lat="36.5188120" lon="-5.3168780">
        <ele>623.9</ele>
        <time>2019-08-28T10:14:24Z</time>
      </trkpt>
      <trkpt lat="36.5188430" lon="-5.3168820">
        <ele>623.8</ele>
        <time>2019-08-28T10:14:25Z</time>
      </trkpt>
      <trkpt lat="36.5188750" lon="-5.3168780">
        <ele>623.7</ele>
        <time>2019-08-28T10:14:26Z</time>
      </trkpt>
      <trkpt lat="36.5189070" lon="-5.3168690">
        <ele>623.7</ele>
        <time>2019-08-28T10:14:27Z</time>
      </trkpt>
      <trkpt lat="36.5189410" lon="-5.3168580">
        <ele>623.6</ele>
        <time>2019-08-28T10:14:28Z</time>
      </trkpt>
      <trkpt lat="36.5189730" lon="-5.3168520">
        <ele>623.6</ele>
        <time>2019-08-28T10:14:29Z</time>
      </trkpt>
      <trkpt lat="36.5190040" lon="-5.3168460">
        <ele>623.5</ele>
        <time>2019-08-28T10:14:30Z</time>
      </trkpt>
      <trkpt lat="36.5190340" lon="-5.3168360">
        <ele>623.4</ele>
        <time>2019-08-28T10:14:31Z</time>
      </trkpt>
      <trkpt lat="36.5190640" lon="-5.3168240">
        <ele>623.4</ele>
        <time>2019-08-28T10:14:32Z</time>
      </trkpt>
      <trkpt lat="36.5190930" lon="-5.3168090">
        <ele>623.3</ele>
        <time>2019-08-28T10:14:33Z</time>
      </trkpt>
      <trkpt lat="36.5191200" lon="-5.3167940">
        <ele>623.2</ele>
        <time>2019-08-28T10:14:34Z</time>
      </trkpt>
      <trkpt lat="36.5191460" lon="-5.3167780">
        <ele>623.1</ele>
        <time>2019-08-28T10:14:35Z</time>
      </trkpt>
      <trkpt lat="36.5191750" lon="-5.3167610">
        <ele>623.0</ele>
        <time>2019-08-28T10:14:36Z</time>
      </trkpt>
      <trkpt lat="36.5192040" lon="-5.3167390">
        <ele>622.8</ele>
        <time>2019-08-28T10:14:37Z</time>
      </trkpt>
      <trkpt lat="36.5192330" lon="-5.3167170">
        <ele>622.6</ele>
        <time>2019-08-28T10:14:38Z</time>
      </trkpt>
      <trkpt lat="36.5192620" lon="-5.3166940">
        <ele>622.5</ele>
        <time>2019-08-28T10:14:39Z</time>
      </trkpt>
      <trkpt lat="36.5192890" lon="-5.3166750">
        <ele>622.3</ele>
        <time>2019-08-28T10:14:40Z</time>
      </trkpt>
      <trkpt lat="36.5193150" lon="-5.3166560">
        <ele>622.1</ele>
        <time>2019-08-28T10:14:41Z</time>
      </trkpt>
      <trkpt lat="36.5193360" lon="-5.3166380">
        <ele>622.0</ele>
        <time>2019-08-28T10:14:42Z</time>
      </trkpt>
      <trkpt lat="36.5193540" lon="-5.3166230">
        <ele>621.8</ele>
        <time>2019-08-28T10:14:43Z</time>
      </trkpt>
      <trkpt lat="36.5193720" lon="-5.3166080">
        <ele>621.7</ele>
        <time>2019-08-28T10:14:44Z</time>
      </trkpt>
      <trkpt lat="36.5193900" lon="-5.3165880">
        <ele>621.5</ele>
        <time>2019-08-28T10:14:45Z</time>
      </trkpt>
      <trkpt lat="36.5194110" lon="-5.3165660">
        <ele>621.3</ele>
        <time>2019-08-28T10:14:46Z</time>
      </trkpt>
      <trkpt lat="36.5194320" lon="-5.3165350">
        <ele>621.1</ele>
        <time>2019-08-28T10:14:47Z</time>
      </trkpt>
      <trkpt lat="36.5194580" lon="-5.3164980">
        <ele>620.8</ele>
        <time>2019-08-28T10:14:48Z</time>
      </trkpt>
      <trkpt lat="36.5194840" lon="-5.3164560">
        <ele>620.5</ele>
        <time>2019-08-28T10:14:49Z</time>
      </trkpt>
      <trkpt lat="36.5195150" lon="-5.3164160">
        <ele>620.2</ele>
        <time>2019-08-28T10:14:50Z</time>
      </trkpt>
      <trkpt lat="36.5195440" lon="-5.3163750">
        <ele>620.0</ele>
        <time>2019-08-28T10:14:51Z</time>
      </trkpt>
      <trkpt lat="36.5195740" lon="-5.3163280">
        <ele>619.7</ele>
        <time>2019-08-28T10:14:52Z</time>
      </trkpt>
      <trkpt lat="36.5196030" lon="-5.3162780">
        <ele>619.4</ele>
        <time>2019-08-28T10:14:53Z</time>
      </trkpt>
      <trkpt lat="36.5196350" lon="-5.3162330">
        <ele>619.0</ele>
        <time>2019-08-28T10:14:54Z</time>
      </trkpt>
      <trkpt lat="36.5196690" lon="-5.3161960">
        <ele>618.5</ele>
        <time>2019-08-28T10:14:55Z</time>
      </trkpt>
      <trkpt lat="36.5197020" lon="-5.3161590">
        <ele>618.0</ele>
        <time>2019-08-28T10:14:56Z</time>
      </trkpt>
      <trkpt lat="36.5197350" lon="-5.3161250">
        <ele>617.6</ele>
        <time>2019-08-28T10:14:57Z</time>
      </trkpt>
      <trkpt lat="36.5197650" lon="-5.3160920">
        <ele>617.2</ele>
        <time>2019-08-28T10:14:58Z</time>
      </trkpt>
      <trkpt lat="36.5197950" lon="-5.3160610">
        <ele>616.8</ele>
        <time>2019-08-28T10:14:59Z</time>
      </trkpt>
      <trkpt lat="36.5198240" lon="-5.3160300">
        <ele>616.4</ele>
        <time>2019-08-28T10:15:00Z</time>
      </trkpt>
      <trkpt lat="36.5198550" lon="-5.3160010">
        <ele>616.0</ele>
        <time>2019-08-28T10:15:01Z</time>
      </trkpt>
      <trkpt lat="36.5198860" lon="-5.3159730">
        <ele>615.6</ele>
        <time>2019-08-28T10:15:02Z</time>
      </trkpt>
      <trkpt lat="36.5199150" lon="-5.3159470">
        <ele>615.1</ele>
        <time>2019-08-28T10:15:03Z</time>
      </trkpt>
      <trkpt lat="36.5199420" lon="-5.3159230">
        <ele>614.5</ele>
        <time>2019-08-28T10:15:04Z</time>
      </trkpt>
      <trkpt lat="36.5199690" lon="-5.3159000">
        <ele>614.1</ele>
        <time>2019-08-28T10:15:05Z</time>
      </trkpt>
      <trkpt lat="36.5199990" lon="-5.3158800">
        <ele>613.7</ele>
        <time>2019-08-28T10:15:06Z</time>
      </trkpt>
      <trkpt lat="36.5200290" lon="-5.3158640">
        <ele>613.4</ele>
        <time>2019-08-28T10:15:07Z</time>
      </trkpt>
      <trkpt lat="36.5200570" lon="-5.3158530">
        <ele>613.0</ele>
        <time>2019-08-28T10:15:08Z</time>
      </trkpt>
      <trkpt lat="36.5200820" lon="-5.3158430">
        <ele>612.4</ele>
        <time>2019-08-28T10:15:09Z</time>
      </trkpt>
      <trkpt lat="36.5201030" lon="-5.3158330">
        <ele>612.0</ele>
        <time>2019-08-28T10:15:10Z</time>
      </trkpt>
      <trkpt lat="36.5201240" lon="-5.3158230">
        <ele>611.6</ele>
        <time>2019-08-28T10:15:11Z</time>
      </trkpt>
      <trkpt lat="36.5201470" lon="-5.3158170">
        <ele>611.2</ele>
        <time>2019-08-28T10:15:12Z</time>
      </trkpt>
      <trkpt lat="36.5201750" lon="-5.3158130">
        <ele>610.7</ele>
        <time>2019-08-28T10:15:13Z</time>
      </trkpt>
      <trkpt lat="36.5202090" lon="-5.3158150">
        <ele>609.9</ele>
        <time>2019-08-28T10:15:14Z</time>
      </trkpt>
      <trkpt lat="36.5202500" lon="-5.3158190">
        <ele>609.2</ele>
        <time>2019-08-28T10:15:15Z</time>
      </trkpt>
      <trkpt lat="36.5202940" lon="-5.3158270">
        <ele>608.6</ele>
        <time>2019-08-28T10:15:16Z</time>
      </trkpt>
      <trkpt lat="36.5203370" lon="-5.3158330">
        <ele>607.9</ele>
        <time>2019-08-28T10:15:17Z</time>
      </trkpt>
      <trkpt lat="36.5203770" lon="-5.3158360">
        <ele>607.3</ele>
        <time>2019-08-28T10:15:18Z</time>
      </trkpt>
      <trkpt lat="36.5204220" lon="-5.3158380">
        <ele>606.6</ele>
        <time>2019-08-28T10:15:19Z</time>
      </trkpt>
      <trkpt lat="36.5204700" lon="-5.3158440">
        <ele>605.8</ele>
        <time>2019-08-28T10:15:20Z</time>
      </trkpt>
      <trkpt lat="36.5205210" lon="-5.3158570">
        <ele>605.2</ele>
        <time>2019-08-28T10:15:21Z</time>
      </trkpt>
      <trkpt lat="36.5205710" lon="-5.3158720">
        <ele>604.6</ele>
        <time>2019-08-28T10:15:22Z</time>
      </trkpt>
      <trkpt lat="36.5206230" lon="-5.3158860">
        <ele>603.9</ele>
        <time>2019-08-28T10:15:23Z</time>
      </trkpt>
      <trkpt lat="36.5206730" lon="-5.3158990">
        <ele>603.3</ele>
        <time>2019-08-28T10:15:24Z</time>
      </trkpt>
      <trkpt lat="36.5207230" lon="-5.3159150">
        <ele>602.7</ele>
        <time>2019-08-28T10:15:25Z</time>
      </trkpt>
      <trkpt lat="36.5207670" lon="-5.3159340">
        <ele>602.1</ele>
        <time>2019-08-28T10:15:26Z</time>
      </trkpt>
      <trkpt lat="36.5208120" lon="-5.3159460">
        <ele>601.6</ele>
        <time>2019-08-28T10:15:27Z</time>
      </trkpt>
      <trkpt lat="36.5208570" lon="-5.3159510">
        <ele>601.5</ele>
        <time>2019-08-28T10:15:28Z</time>
      </trkpt>
      <trkpt lat="36.5209020" lon="-5.3159470">
        <ele>601.4</ele>
        <time>2019-08-28T10:15:29Z</time>
      </trkpt>
      <trkpt lat="36.5209420" lon="-5.3159440">
        <ele>601.6</ele>
        <time>2019-08-28T10:15:30Z</time>
      </trkpt>
      <trkpt lat="36.5209780" lon="-5.3159400">
        <ele>601.8</ele>
        <time>2019-08-28T10:15:31Z</time>
      </trkpt>
      <trkpt lat="36.5210110" lon="-5.3159320">
        <ele>601.9</ele>
        <time>2019-08-28T10:15:32Z</time>
      </trkpt>
      <trkpt lat="36.5210420" lon="-5.3159170">
        <ele>602.1</ele>
        <time>2019-08-28T10:15:33Z</time>
      </trkpt>
      <trkpt lat="36.5210730" lon="-5.3159000">
        <ele>602.2</ele>
        <time>2019-08-28T10:15:34Z</time>
      </trkpt>
      <trkpt lat="36.5211070" lon="-5.3158820">
        <ele>602.5</ele>
        <time>2019-08-28T10:15:35Z</time>
      </trkpt>
      <trkpt lat="36.5211420" lon="-5.3158670">
        <ele>602.7</ele>
        <time>2019-08-28T10:15:36Z</time>
      </trkpt>
      <trkpt lat="36.5211790" lon="-5.3158520">
        <ele>603.0</ele>
        <time>2019-08-28T10:15:37Z</time>
      </trkpt>
      <trkpt lat="36.5212150" lon="-5.3158370">
        <ele>603.4</ele>
        <time>2019-08-28T10:15:38Z</time>
      </trkpt>
      <trkpt lat="36.5212510" lon="-5.3158230">
        <ele>603.7</ele>
        <time>2019-08-28T10:15:39Z</time>
      </trkpt>
      <trkpt lat="36.5212870" lon="-5.3158050">
        <ele>604.0</ele>
        <time>2019-08-28T10:15:40Z</time>
      </trkpt>
      <trkpt lat="36.5213230" lon="-5.3157850">
        <ele>604.4</ele>
        <time>2019-08-28T10:15:41Z</time>
      </trkpt>
      <trkpt lat="36.5213590" lon="-5.3157620">
        <ele>603.9</ele>
        <time>2019-08-28T10:15:42Z</time>
      </trkpt>
      <trkpt lat="36.5213960" lon="-5.3157400">
        <ele>603.5</ele>
        <time>2019-08-28T10:15:43Z</time>
      </trkpt>
      <trkpt lat="36.5214320" lon="-5.3157160">
        <ele>603.2</ele>
        <time>2019-08-28T10:15:44Z</time>
      </trkpt>
      <trkpt lat="36.5214660" lon="-5.3156890">
        <ele>602.8</ele>
        <time>2019-08-28T10:15:45Z</time>
      </trkpt>
      <trkpt lat="36.5214980" lon="-5.3156620">
        <ele>602.5</ele>
        <time>2019-08-28T10:15:46Z</time>
      </trkpt>
      <trkpt lat="36.5215330" lon="-5.3156360">
        <ele>602.2</ele>
        <time>2019-08-28T10:15:47Z</time>
      </trkpt>
      <trkpt lat="36.5215710" lon="-5.3156120">
        <ele>602.0</ele>
        <time>2019-08-28T10:15:48Z</time>
      </trkpt>
      <trkpt lat="36.5216100" lon="-5.3155890">
        <ele>601.9</ele>
        <time>2019-08-28T10:15:49Z</time>
      </trkpt>
      <trkpt lat="36.5216510" lon="-5.3155660">
        <ele>601.8</ele>
        <time>2019-08-28T10:15:50Z</time>
      </trkpt>
      <trkpt lat="36.5216920" lon="-5.3155440">
        <ele>601.6</ele>
        <time>2019-08-28T10:15:51Z</time>
      </trkpt>
      <trkpt lat="36.5217360" lon="-5.3155240">
        <ele>601.6</ele>
        <time>2019-08-28T10:15:52Z</time>
      </trkpt>
      <trkpt lat="36.5217800" lon="-5.3155070">
        <ele>601.6</ele>
        <time>2019-08-28T10:15:53Z</time>
      </trkpt>
      <trkpt lat="36.5218270" lon="-5.3154920">
        <ele>601.6</ele>
        <time>2019-08-28T10:15:54Z</time>
      </trkpt>
      <trkpt lat="36.5218740" lon="-5.3154810">
        <ele>601.6</ele>
        <time>2019-08-28T10:15:55Z</time>
      </trkpt>
      <trkpt lat="36.5219220" lon="-5.3154730">
        <ele>601.6</ele>
        <time>2019-08-28T10:15:56Z</time>
      </trkpt>
      <trkpt lat="36.5219720" lon="-5.3154620">
        <ele>601.6</ele>
        <time>2019-08-28T10:15:57Z</time>
      </trkpt>
      <trkpt lat="36.5220220" lon="-5.3154480">
        <ele>601.6</ele>
        <time>2019-08-28T10:15:58Z</time>
      </trkpt>
      <trkpt lat="36.5220740" lon="-5.3154280">
        <ele>601.6</ele>
        <time>2019-08-28T10:15:59Z</time>
      </trkpt>
      <trkpt lat="36.5221260" lon="-5.3154100">
        <ele>601.7</ele>
        <time>2019-08-28T10:16:00Z</time>
      </trkpt>
      <trkpt lat="36.5221820" lon="-5.3153950">
        <ele>601.7</ele>
        <time>2019-08-28T10:16:01Z</time>
      </trkpt>
      <trkpt lat="36.5222400" lon="-5.3153810">
        <ele>601.7</ele>
        <time>2019-08-28T10:16:02Z</time>
      </trkpt>
      <trkpt lat="36.5222970" lon="-5.3153690">
        <ele>601.7</ele>
        <time>2019-08-28T10:16:03Z</time>
      </trkpt>
      <trkpt lat="36.5223490" lon="-5.3153600">
        <ele>601.7</ele>
        <time>2019-08-28T10:16:04Z</time>
      </trkpt>
      <trkpt lat="36.5223970" lon="-5.3153540">
        <ele>601.7</ele>
        <time>2019-08-28T10:16:05Z</time>
      </trkpt>
      <trkpt lat="36.5224400" lon="-5.3153490">
        <ele>601.7</ele>
        <time>2019-08-28T10:16:06Z</time>
      </trkpt>
      <trkpt lat="36.5224820" lon="-5.3153410">
        <ele>601.7</ele>
        <time>2019-08-28T10:16:07Z</time>
      </trkpt>
      <trkpt lat="36.5225220" lon="-5.3153320">
        <ele>601.7</ele>
        <time>2019-08-28T10:16:08Z</time>
      </trkpt>
      <trkpt lat="36.5225600" lon="-5.3153230">
        <ele>601.8</ele>
        <time>2019-08-28T10:16:09Z</time>
      </trkpt>
      <trkpt lat="36.5225970" lon="-5.3153130">
        <ele>601.8</ele>
        <time>2019-08-28T10:16:10Z</time>
      </trkpt>
      <trkpt lat="36.5226330" lon="-5.3152980">
        <ele>601.8</ele>
        <time>2019-08-28T10:16:11Z</time>
      </trkpt>
      <trkpt lat="36.5226690" lon="-5.3152830">
        <ele>601.7</ele>
        <time>2019-08-28T10:16:12Z</time>
      </trkpt>
      <trkpt lat="36.5227040" lon="-5.3152710">
        <ele>601.7</ele>
        <time>2019-08-28T10:16:13Z</time>
      </trkpt>
      <trkpt lat="36.5227370" lon="-5.3152620">
        <ele>601.7</ele>
        <time>2019-08-28T10:16:14Z</time>
      </trkpt>
      <trkpt lat="36.5227650" lon="-5.3152570">
        <ele>601.7</ele>
        <time>2019-08-28T10:16:15Z</time>
      </trkpt>
      <trkpt lat="36.5227900" lon="-5.3152560">
        <ele>601.7</ele>
        <time>2019-08-28T10:16:16Z</time>
      </trkpt>
      <trkpt lat="36.5228090" lon="-5.3152600">
        <ele>601.7</ele>
        <time>2019-08-28T10:16:17Z</time>
      </trkpt>
      <trkpt lat="36.5228250" lon="-5.3152680">
        <ele>601.7</ele>
        <time>2019-08-28T10:16:18Z</time>
      </trkpt>
      <trkpt lat="36.5228340" lon="-5.3152810">
        <ele>601.7</ele>
        <time>2019-08-28T10:16:19Z</time>
      </trkpt>
      <trkpt lat="36.5228330" lon="-5.3153060">
        <ele>601.7</ele>
        <time>2019-08-28T10:16:20Z</time>
      </trkpt>
      <trkpt lat="36.5228140" lon="-5.3153370">
        <ele>601.7</ele>
        <time>2019-08-28T10:16:21Z</time>
      </trkpt>
      <trkpt lat="36.5227800" lon="-5.3153670">
        <ele>602.0</ele>
        <time>2019-08-28T10:16:22Z</time>
      </trkpt>
      <trkpt lat="36.5227390" lon="-5.3153890">
        <ele>602.0</ele>
        <time>2019-08-28T10:16:23Z</time>
      </trkpt>
      <trkpt lat="36.5226950" lon="-5.3154030">
        <ele>602.0</ele>
        <time>2019-08-28T10:16:24Z</time>
      </trkpt>
      <trkpt lat="36.5226500" lon="-5.3154160">
        <ele>602.0</ele>
        <time>2019-08-28T10:16:25Z</time>
      </trkpt>
      <trkpt lat="36.5226020" lon="-5.3154270">
        <ele>602.0</ele>
        <time>2019-08-28T10:16:26Z</time>
      </trkpt>
      <trkpt lat="36.5225510" lon="-5.3154400">
        <ele>602.0</ele>
        <time>2019-08-28T10:16:27Z</time>
      </trkpt>
      <trkpt lat="36.5224980" lon="-5.3154540">
        <ele>602.0</ele>
        <time>2019-08-28T10:16:28Z</time>
      </trkpt>
      <trkpt lat="36.5224410" lon="-5.3154740">
        <ele>602.0</ele>
        <time>2019-08-28T10:16:29Z</time>
      </trkpt>
      <trkpt lat="36.5223840" lon="-5.3154990">
        <ele>602.0</ele>
        <time>2019-08-28T10:16:30Z</time>
      </trkpt>
      <trkpt lat="36.5223250" lon="-5.3155310">
        <ele>602.0</ele>
        <time>2019-08-28T10:16:31Z</time>
      </trkpt>
      <trkpt lat="36.5222670" lon="-5.3155680">
        <ele>602.0</ele>
        <time>2019-08-28T10:16:32Z</time>
      </trkpt>
      <trkpt lat="36.5222100" lon="-5.3156120">
        <ele>601.9</ele>
        <time>2019-08-28T10:16:33Z</time>
      </trkpt>
      <trkpt lat="36.5221560" lon="-5.3156640">
        <ele>601.8</ele>
        <time>2019-08-28T10:16:34Z</time>
      </trkpt>
      <trkpt lat="36.5221040" lon="-5.3157230">
        <ele>601.7</ele>
        <time>2019-08-28T10:16:35Z</time>
      </trkpt>
      <trkpt lat="36.5220530" lon="-5.3157870">
        <ele>601.5</ele>
        <time>2019-08-28T10:16:36Z</time>
      </trkpt>
      <trkpt lat="36.5220050" lon="-5.3158540">
        <ele>601.4</ele>
        <time>2019-08-28T10:16:37Z</time>
      </trkpt>
      <trkpt lat="36.5219570" lon="-5.3159240">
        <ele>601.2</ele>
        <time>2019-08-28T10:16:38Z</time>
      </trkpt>
      <trkpt lat="36.5219090" lon="-5.3159960">
        <ele>601.1</ele>
        <time>2019-08-28T10:16:39Z</time>
      </trkpt>
      <trkpt lat="36.5218630" lon="-5.3160680">
        <ele>600.9</ele>
        <time>2019-08-28T10:16:40Z</time>
      </trkpt>
      <trkpt lat="36.5218180" lon="-5.3161410">
        <ele>600.7</ele>
        <time>2019-08-28T10:16:41Z</time>
      </trkpt>
      <trkpt lat="36.5217720" lon="-5.3162120">
        <ele>600.4</ele>
        <time>2019-08-28T10:16:42Z</time>
      </trkpt>
      <trkpt lat="36.5217200" lon="-5.3162780">
        <ele>600.2</ele>
        <time>2019-08-28T10:16:43Z</time>
      </trkpt>
      <trkpt lat="36.5216620" lon="-5.3163360">
        <ele>599.9</ele>
        <time>2019-08-28T10:16:44Z</time>
      </trkpt>
      <trkpt lat="36.5215980" lon="-5.3163880">
        <ele>599.6</ele>
        <time>2019-08-28T10:16:45Z</time>
      </trkpt>
      <trkpt lat="36.5215310" lon="-5.3164320">
        <ele>599.2</ele>
        <time>2019-08-28T10:16:46Z</time>
      </trkpt>
      <trkpt lat="36.5214560" lon="-5.3164590">
        <ele>599.3</ele>
        <time>2019-08-28T10:16:47Z</time>
      </trkpt>
      <trkpt lat="36.5213760" lon="-5.3164720">
        <ele>599.6</ele>
        <time>2019-08-28T10:16:48Z</time>
      </trkpt>
      <trkpt lat="36.5212890" lon="-5.3164760">
        <ele>600.0</ele>
        <time>2019-08-28T10:16:49Z</time>
      </trkpt>
      <trkpt lat="36.5212020" lon="-5.3164840">
        <ele>600.3</ele>
        <time>2019-08-28T10:16:50Z</time>
      </trkpt>
      <trkpt lat="36.5211140" lon="-5.3164950">
        <ele>600.5</ele>
        <time>2019-08-28T10:16:51Z</time>
      </trkpt>
      <trkpt lat="36.5210260" lon="-5.3165100">
        <ele>600.8</ele>
        <time>2019-08-28T10:16:52Z</time>
      </trkpt>
      <trkpt lat="36.5209400" lon="-5.3165310">
        <ele>601.2</ele>
        <time>2019-08-28T10:16:53Z</time>
      </trkpt>
      <trkpt lat="36.5208590" lon="-5.3165590">
        <ele>601.5</ele>
        <time>2019-08-28T10:16:54Z</time>
      </trkpt>
      <trkpt lat="36.5207840" lon="-5.3165900">
        <ele>601.8</ele>
        <time>2019-08-28T10:16:55Z</time>
      </trkpt>
      <trkpt lat="36.5207160" lon="-5.3166230">
        <ele>602.0</ele>
        <time>2019-08-28T10:16:56Z</time>
      </trkpt>
      <trkpt lat="36.5206600" lon="-5.3166520">
        <ele>602.2</ele>
        <time>2019-08-28T10:16:57Z</time>
      </trkpt>
      <trkpt lat="36.5206180" lon="-5.3166770">
        <ele>602.4</ele>
        <time>2019-08-28T10:16:58Z</time>
      </trkpt>
      <trkpt lat="36.5205880" lon="-5.3166970">
        <ele>602.5</ele>
        <time>2019-08-28T10:16:59Z</time>
      </trkpt>
      <trkpt lat="36.5205620" lon="-5.3167100">
        <ele>602.6</ele>
        <time>2019-08-28T10:17:00Z</time>
      </trkpt>
      <trkpt lat="36.5205280" lon="-5.3167230">
        <ele>602.7</ele>
        <time>2019-08-28T10:17:01Z</time>
      </trkpt>
      <trkpt lat="36.5205160" lon="-5.3167240">
        <ele>602.7</ele>
        <time>2019-08-28T10:17:02Z</time>
      </trkpt>
      <trkpt lat="36.5205030" lon="-5.3167250">
        <ele>602.7</ele>
        <time>2019-08-28T10:17:03Z</time>
      </trkpt>
      <trkpt lat="36.5204910" lon="-5.3167260">
        <ele>602.8</ele>
        <time>2019-08-28T10:17:04Z</time>
      </trkpt>
      <trkpt lat="36.5204790" lon="-5.3167270">
        <ele>602.8</ele>
        <time>2019-08-28T10:17:05Z</time>
      </trkpt>
      <trkpt lat="36.5204670" lon="-5.3167280">
        <ele>602.9</ele>
        <time>2019-08-28T10:17:06Z</time>
      </trkpt>
      <trkpt lat="36.5204540" lon="-5.3167290">
        <ele>602.9</ele>
        <time>2019-08-28T10:17:07Z</time>
      </trkpt>
      <trkpt lat="36.5204420" lon="-5.3167300">
        <ele>602.9</ele>
        <time>2019-08-28T10:17:08Z</time>
      </trkpt>
      <trkpt lat="36.5204300" lon="-5.3167310">
        <ele>603.0</ele>
        <time>2019-08-28T10:17:09Z</time>
      </trkpt>
      <trkpt lat="36.5204180" lon="-5.3167320">
        <ele>603.0</ele>
        <time>2019-08-28T10:17:10Z</time>
      </trkpt>
      <trkpt lat="36.5204050" lon="-5.3167330">
        <ele>603.1</ele>
        <time>2019-08-28T10:17:11Z</time>
      </trkpt>
      <trkpt lat="36.5203930" lon="-5.3167340">
        <ele>603.1</ele>
        <time>2019-08-28T10:17:12Z</time>
      </trkpt>
      <trkpt lat="36.5203810" lon="-5.3167350">
        <ele>603.1</ele>
        <time>2019-08-28T10:18:47Z</time>
      </trkpt>
      <trkpt lat="36.5203690" lon="-5.3167360">
        <ele>603.2</ele>
        <time>2019-08-28T10:18:48Z</time>
      </trkpt>
      <trkpt lat="36.5203560" lon="-5.3167370">
        <ele>603.2</ele>
        <time>2019-08-28T10:18:49Z</time>
      </trkpt>
      <trkpt lat="36.5203440" lon="-5.3167380">
        <ele>603.2</ele>
        <time>2019-08-28T10:18:50Z</time>
      </trkpt>
      <trkpt lat="36.5203320" lon="-5.3167390">
        <ele>603.3</ele>
        <time>2019-08-28T10:18:51Z</time>
      </trkpt>
      <trkpt lat="36.5202950" lon="-5.3167540">
        <ele>604.2</ele>
        <time>2019-08-28T10:18:52Z</time>
      </trkpt>
      <trkpt lat="36.5202550" lon="-5.3167720">
        <ele>604.6</ele>
        <time>2019-08-28T10:18:53Z</time>
      </trkpt>
      <trkpt lat="36.5202130" lon="-5.3167980">
        <ele>605.0</ele>
        <time>2019-08-28T10:18:54Z</time>
      </trkpt>
      <trkpt lat="36.5201690" lon="-5.3168320">
        <ele>605.1</ele>
        <time>2019-08-28T10:18:55Z</time>
      </trkpt>
      <trkpt lat="36.5201260" lon="-5.3168740">
        <ele>605.1</ele>
        <time>2019-08-28T10:18:56Z</time>
      </trkpt>
      <trkpt lat="36.5200850" lon="-5.3169200">
        <ele>605.2</ele>
        <time>2019-08-28T10:18:57Z</time>
      </trkpt>
      <trkpt lat="36.5200490" lon="-5.3169740">
        <ele>605.2</ele>
        <time>2019-08-28T10:18:58Z</time>
      </trkpt>
      <trkpt lat="36.5200160" lon="-5.3170310">
        <ele>605.3</ele>
        <time>2019-08-28T10:18:59Z</time>
      </trkpt>
      <trkpt lat="36.5199890" lon="-5.3170930">
        <ele>605.3</ele>
        <time>2019-08-28T10:19:00Z</time>
      </trkpt>
      <trkpt lat="36.5199670" lon="-5.3171590">
        <ele>605.3</ele>
        <time>2019-08-28T10:19:01Z</time>
      </trkpt>
      <trkpt lat="36.5199520" lon="-5.3172290">
        <ele>605.3</ele>
        <time>2019-08-28T10:19:02Z</time>
      </trkpt>
      <trkpt lat="36.5199420" lon="-5.3172990">
        <ele>605.2</ele>
        <time>2019-08-28T10:19:03Z</time>
      </trkpt>
      <trkpt lat="36.5199380" lon="-5.3173710">
        <ele>605.2</ele>
        <time>2019-08-28T10:19:04Z</time>
      </trkpt>
      <trkpt lat="36.5199380" lon="-5.3174420">
        <ele>605.1</ele>
        <time>2019-08-28T10:19:05Z</time>
      </trkpt>
      <trkpt lat="36.5199440" lon="-5.3175110">
        <ele>605.1</ele>
        <time>2019-08-28T10:19:06Z</time>
      </trkpt>
      <trkpt lat="36.5199550" lon="-5.3175790">
        <ele>605.0</ele>
        <time>2019-08-28T10:19:07Z</time>
      </trkpt>
      <trkpt lat="36.5199710" lon="-5.3176420">
        <ele>605.0</ele>
        <time>2019-08-28T10:19:08Z</time>
      </trkpt>
      <trkpt lat="36.5199930" lon="-5.3177020">
        <ele>604.9</ele>
        <time>2019-08-28T10:19:09Z</time>
      </trkpt>
      <trkpt lat="36.5200210" lon="-5.3177580">
        <ele>604.8</ele>
        <time>2019-08-28T10:19:10Z</time>
      </trkpt>
      <trkpt lat="36.5200520" lon="-5.3178130">
        <ele>604.8</ele>
        <time>2019-08-28T10:19:11Z</time>
      </trkpt>
      <trkpt lat="36.5200830" lon="-5.3178680">
        <ele>604.7</ele>
        <time>2019-08-28T10:19:12Z</time>
      </trkpt>
      <trkpt lat="36.5201160" lon="-5.3179200">
        <ele>604.7</ele>
        <time>2019-08-28T10:19:13Z</time>
      </trkpt>
      <trkpt lat="36.5201490" lon="-5.3179700">
        <ele>604.6</ele>
        <time>2019-08-28T10:19:14Z</time>
      </trkpt>
      <trkpt lat="36.5201820" lon="-5.3180200">
        <ele>604.7</ele>
        <time>2019-08-28T10:19:15Z</time>
      </trkpt>
      <trkpt lat="36.5202150" lon="-5.3180710">
        <ele>604.7</ele>
        <time>2019-08-28T10:19:16Z</time>
      </trkpt>
      <trkpt lat="36.5202480" lon="-5.3181210">
        <ele>604.8</ele>
        <time>2019-08-28T10:19:17Z</time>
      </trkpt>
      <trkpt lat="36.5202810" lon="-5.3181700">
        <ele>604.8</ele>
        <time>2019-08-28T10:19:18Z</time>
      </trkpt>
      <trkpt lat="36.5203150" lon="-5.3182180">
        <ele>604.9</ele>
        <time>2019-08-28T10:19:19Z</time>
      </trkpt>
      <trkpt lat="36.5203500" lon="-5.3182640">
        <ele>605.0</ele>
        <time>2019-08-28T10:19:20Z</time>
      </trkpt>
      <trkpt lat="36.5203870" lon="-5.3183080">
        <ele>605.1</ele>
        <time>2019-08-28T10:19:21Z</time>
      </trkpt>
      <trkpt lat="36.5204270" lon="-5.3183500">
        <ele>605.2</ele>
        <time>2019-08-28T10:19:22Z</time>
      </trkpt>
      <trkpt lat="36.5204680" lon="-5.3183880">
        <ele>605.3</ele>
        <time>2019-08-28T10:19:23Z</time>
      </trkpt>
      <trkpt lat="36.5205110" lon="-5.3184240">
        <ele>605.3</ele>
        <time>2019-08-28T10:19:24Z</time>
      </trkpt>
      <trkpt lat="36.5205560" lon="-5.3184570">
        <ele>605.4</ele>
        <time>2019-08-28T10:19:25Z</time>
      </trkpt>
      <trkpt lat="36.5206010" lon="-5.3184910">
        <ele>605.5</ele>
        <time>2019-08-28T10:19:26Z</time>
      </trkpt>
      <trkpt lat="36.5206460" lon="-5.3185240">
        <ele>605.6</ele>
        <time>2019-08-28T10:19:27Z</time>
      </trkpt>
      <trkpt lat="36.5206910" lon="-5.3185570">
        <ele>605.7</ele>
        <time>2019-08-28T10:19:28Z</time>
      </trkpt>
      <trkpt lat="36.5207360" lon="-5.3185900">
        <ele>605.8</ele>
        <time>2019-08-28T10:19:29Z</time>
      </trkpt>
      <trkpt lat="36.5207790" lon="-5.3186260">
        <ele>605.9</ele>
        <time>2019-08-28T10:19:30Z</time>
      </trkpt>
      <trkpt lat="36.5208190" lon="-5.3186650">
        <ele>606.1</ele>
        <time>2019-08-28T10:19:31Z</time>
      </trkpt>
      <trkpt lat="36.5208570" lon="-5.3187070">
        <ele>606.2</ele>
        <time>2019-08-28T10:19:32Z</time>
      </trkpt>
      <trkpt lat="36.5208920" lon="-5.3187510">
        <ele>606.4</ele>
        <time>2019-08-28T10:19:33Z</time>
      </trkpt>
      <trkpt lat="36.5209220" lon="-5.3187980">
        <ele>606.7</ele>
        <time>2019-08-28T10:19:34Z</time>
      </trkpt>
      <trkpt lat="36.5209500" lon="-5.3188480">
        <ele>606.9</ele>
        <time>2019-08-28T10:19:35Z</time>
      </trkpt>
      <trkpt lat="36.5209740" lon="-5.3189010">
        <ele>607.2</ele>
        <time>2019-08-28T10:19:36Z</time>
      </trkpt>
      <trkpt lat="36.5209960" lon="-5.3189550">
        <ele>607.4</ele>
        <time>2019-08-28T10:19:37Z</time>
      </trkpt>
      <trkpt lat="36.5210160" lon="-5.3190100">
        <ele>607.7</ele>
        <time>2019-08-28T10:19:38Z</time>
      </trkpt>
      <trkpt lat="36.5210360" lon="-5.3190650">
        <ele>608.0</ele>
        <time>2019-08-28T10:19:39Z</time>
      </trkpt>
      <trkpt lat="36.5210540" lon="-5.3191200">
        <ele>608.2</ele>
        <time>2019-08-28T10:19:40Z</time>
      </trkpt>
      <trkpt lat="36.5210720" lon="-5.3191750">
        <ele>608.4</ele>
        <time>2019-08-28T10:19:41Z</time>
      </trkpt>
      <trkpt lat="36.5210880" lon="-5.3192310">
        <ele>608.6</ele>
        <time>2019-08-28T10:19:42Z</time>
      </trkpt>
      <trkpt lat="36.5211040" lon="-5.3192870">
        <ele>608.8</ele>
        <time>2019-08-28T10:19:43Z</time>
      </trkpt>
      <trkpt lat="36.5211170" lon="-5.3193420">
        <ele>609.0</ele>
        <time>2019-08-28T10:19:44Z</time>
      </trkpt>
      <trkpt lat="36.5211280" lon="-5.3193980">
        <ele>609.2</ele>
        <time>2019-08-28T10:19:45Z</time>
      </trkpt>
      <trkpt lat="36.5211370" lon="-5.3194530">
        <ele>609.3</ele>
        <time>2019-08-28T10:19:46Z</time>
      </trkpt>
      <trkpt lat="36.5211430" lon="-5.3195090">
        <ele>609.4</ele>
        <time>2019-08-28T10:19:47Z</time>
      </trkpt>
      <trkpt lat="36.5211470" lon="-5.3195630">
        <ele>609.5</ele>
        <time>2019-08-28T10:19:48Z</time>
      </trkpt>
      <trkpt lat="36.5211470" lon="-5.3196180">
        <ele>609.5</ele>
        <time>2019-08-28T10:19:49Z</time>
      </trkpt>
      <trkpt lat="36.5211430" lon="-5.3196730">
        <ele>609.5</ele>
        <time>2019-08-28T10:19:50Z</time>
      </trkpt>
      <trkpt lat="36.5211360" lon="-5.3197280">
        <ele>609.6</ele>
        <time>2019-08-28T10:19:51Z</time>
      </trkpt>
      <trkpt lat="36.5211250" lon="-5.3197840">
        <ele>609.6</ele>
        <time>2019-08-28T10:19:52Z</time>
      </trkpt>
      <trkpt lat="36.5211110" lon="-5.3198400">
        <ele>609.6</ele>
        <time>2019-08-28T10:19:53Z</time>
      </trkpt>
      <trkpt lat="36.5210950" lon="-5.3198950">
        <ele>609.6</ele>
        <time>2019-08-28T10:19:54Z</time>
      </trkpt>
      <trkpt lat="36.5210790" lon="-5.3199510">
        <ele>609.6</ele>
        <time>2019-08-28T10:19:55Z</time>
      </trkpt>
      <trkpt lat="36.5210620" lon="-5.3200070">
        <ele>609.7</ele>
        <time>2019-08-28T10:19:56Z</time>
      </trkpt>
      <trkpt lat="36.5210470" lon="-5.3200630">
        <ele>609.7</ele>
        <time>2019-08-28T10:19:57Z</time>
      </trkpt>
      <trkpt lat="36.5210330" lon="-5.3201190">
        <ele>609.8</ele>
        <time>2019-08-28T10:19:58Z</time>
      </trkpt>
      <trkpt lat="36.5210220" lon="-5.3201760">
        <ele>609.9</ele>
        <time>2019-08-28T10:19:59Z</time>
      </trkpt>
      <trkpt lat="36.5210140" lon="-5.3202330">
        <ele>610.1</ele>
        <time>2019-08-28T10:20:00Z</time>
      </trkpt>
      <trkpt lat="36.5210090" lon="-5.3202900">
        <ele>610.2</ele>
        <time>2019-08-28T10:20:01Z</time>
      </trkpt>
      <trkpt lat="36.5210060" lon="-5.3203460">
        <ele>610.4</ele>
        <time>2019-08-28T10:20:02Z</time>
      </trkpt>
      <trkpt lat="36.5210080" lon="-5.3204010">
        <ele>610.7</ele>
        <time>2019-08-28T10:20:03Z</time>
      </trkpt>
      <trkpt lat="36.5210150" lon="-5.3204540">
        <ele>610.9</ele>
        <time>2019-08-28T10:20:04Z</time>
      </trkpt>
      <trkpt lat="36.5210280" lon="-5.3205050">
        <ele>611.2</ele>
        <time>2019-08-28T10:20:05Z</time>
      </trkpt>
      <trkpt lat="36.5210470" lon="-5.3205550">
        <ele>611.5</ele>
        <time>2019-08-28T10:20:06Z</time>
      </trkpt>
      <trkpt lat="36.5210680" lon="-5.3206040">
        <ele>611.8</ele>
        <time>2019-08-28T10:20:07Z</time>
      </trkpt>
      <trkpt lat="36.5210890" lon="-5.3206510">
        <ele>612.1</ele>
        <time>2019-08-28T10:20:08Z</time>
      </trkpt>
      <trkpt lat="36.5211110" lon="-5.3206960">
        <ele>612.4</ele>
        <time>2019-08-28T10:20:09Z</time>
      </trkpt>
      <trkpt lat="36.5211330" lon="-5.3207410">
        <ele>612.8</ele>
        <time>2019-08-28T10:20:10Z</time>
      </trkpt>
      <trkpt lat="36.5211550" lon="-5.3207840">
        <ele>613.1</ele>
        <time>2019-08-28T10:20:11Z</time>
      </trkpt>
      <trkpt lat="36.5211760" lon="-5.3208260">
        <ele>613.4</ele>
        <time>2019-08-28T10:20:12Z</time>
      </trkpt>
      <trkpt lat="36.5211960" lon="-5.3208680">
        <ele>613.7</ele>
        <time>2019-08-28T10:20:13Z</time>
      </trkpt>
      <trkpt lat="36.5212120" lon="-5.3209120">
        <ele>614.0</ele>
        <time>2019-08-28T10:20:14Z</time>
      </trkpt>
      <trkpt lat="36.5212260" lon="-5.3209580">
        <ele>614.3</ele>
        <time>2019-08-28T10:20:15Z</time>
      </trkpt>
      <trkpt lat="36.5212380" lon="-5.3210050">
        <ele>614.7</ele>
        <time>2019-08-28T10:20:16Z</time>
      </trkpt>
      <trkpt lat="36.5212480" lon="-5.3210510">
        <ele>615.0</ele>
        <time>2019-08-28T10:20:17Z</time>
      </trkpt>
      <trkpt lat="36.5212560" lon="-5.3210980">
        <ele>615.3</ele>
        <time>2019-08-28T10:20:18Z</time>
      </trkpt>
      <trkpt lat="36.5212620" lon="-5.3211440">
        <ele>615.5</ele>
        <time>2019-08-28T10:20:19Z</time>
      </trkpt>
      <trkpt lat="36.5212650" lon="-5.3211890">
        <ele>615.8</ele>
        <time>2019-08-28T10:20:20Z</time>
      </trkpt>
      <trkpt lat="36.5212650" lon="-5.3212340">
        <ele>616.0</ele>
        <time>2019-08-28T10:20:21Z</time>
      </trkpt>
      <trkpt lat="36.5212630" lon="-5.3212790">
        <ele>616.3</ele>
        <time>2019-08-28T10:20:22Z</time>
      </trkpt>
      <trkpt lat="36.5212580" lon="-5.3213260">
        <ele>616.6</ele>
        <time>2019-08-28T10:20:23Z</time>
      </trkpt>
      <trkpt lat="36.5212510" lon="-5.3213720">
        <ele>616.8</ele>
        <time>2019-08-28T10:20:24Z</time>
      </trkpt>
      <trkpt lat="36.5212390" lon="-5.3214160">
        <ele>617.1</ele>
        <time>2019-08-28T10:20:25Z</time>
      </trkpt>
      <trkpt lat="36.5212240" lon="-5.3214580">
        <ele>617.3</ele>
        <time>2019-08-28T10:20:26Z</time>
      </trkpt>
      <trkpt lat="36.5212060" lon="-5.3214980">
        <ele>617.4</ele>
        <time>2019-08-28T10:20:27Z</time>
      </trkpt>
      <trkpt lat="36.5211860" lon="-5.3215370">
        <ele>617.6</ele>
        <time>2019-08-28T10:20:28Z</time>
      </trkpt>
      <trkpt lat="36.5211640" lon="-5.3215740">
        <ele>617.8</ele>
        <time>2019-08-28T10:20:29Z</time>
      </trkpt>
      <trkpt lat="36.5211390" lon="-5.3216070">
        <ele>618.0</ele>
        <time>2019-08-28T10:20:30Z</time>
      </trkpt>
      <trkpt lat="36.5211120" lon="-5.3216380">
        <ele>618.1</ele>
        <time>2019-08-28T10:20:31Z</time>
      </trkpt>
      <trkpt lat="36.5210810" lon="-5.3216670">
        <ele>618.2</ele>
        <time>2019-08-28T10:20:32Z</time>
      </trkpt>
      <trkpt lat="36.5210490" lon="-5.3216940">
        <ele>618.3</ele>
        <time>2019-08-28T10:20:33Z</time>
      </trkpt>
      <trkpt lat="36.5210140" lon="-5.3217200">
        <ele>618.4</ele>
        <time>2019-08-28T10:20:34Z</time>
      </trkpt>
      <trkpt lat="36.5209790" lon="-5.3217460">
        <ele>618.4</ele>
        <time>2019-08-28T10:20:35Z</time>
      </trkpt>
      <trkpt lat="36.5209440" lon="-5.3217710">
        <ele>618.5</ele>
        <time>2019-08-28T10:20:36Z</time>
      </trkpt>
      <trkpt lat="36.5209080" lon="-5.3217960">
        <ele>618.5</ele>
        <time>2019-08-28T10:20:37Z</time>
      </trkpt>
      <trkpt lat="36.5208710" lon="-5.3218200">
        <ele>618.5</ele>
        <time>2019-08-28T10:20:38Z</time>
      </trkpt>
      <trkpt lat="36.5208330" lon="-5.3218420">
        <ele>618.5</ele>
        <time>2019-08-28T10:20:39Z</time>
      </trkpt>
      <trkpt lat="36.5207950" lon="-5.3218630">
        <ele>618.4</ele>
        <time>2019-08-28T10:20:40Z</time>
      </trkpt>
      <trkpt lat="36.5207580" lon="-5.3218830">
        <ele>618.4</ele>
        <time>2019-08-28T10:20:41Z</time>
      </trkpt>
      <trkpt lat="36.5207210" lon="-5.3219030">
        <ele>618.4</ele>
        <time>2019-08-28T10:20:42Z</time>
      </trkpt>
      <trkpt lat="36.5206840" lon="-5.3219230">
        <ele>618.4</ele>
        <time>2019-08-28T10:20:43Z</time>
      </trkpt>
      <trkpt lat="36.5206480" lon="-5.3219450">
        <ele>618.3</ele>
        <time>2019-08-28T10:20:44Z</time>
      </trkpt>
      <trkpt lat="36.5206130" lon="-5.3219710">
        <ele>618.3</ele>
        <time>2019-08-28T10:20:45Z</time>
      </trkpt>
      <trkpt lat="36.5205790" lon="-5.3219990">
        <ele>618.3</ele>
        <time>2019-08-28T10:20:46Z</time>
      </trkpt>
      <trkpt lat="36.5205470" lon="-5.3220290">
        <ele>618.3</ele>
        <time>2019-08-28T10:20:47Z</time>
      </trkpt>
      <trkpt lat="36.5205160" lon="-5.3220600">
        <ele>618.2</ele>
        <time>2019-08-28T10:20:48Z</time>
      </trkpt>
      <trkpt lat="36.5204880" lon="-5.3220940">
        <ele>618.2</ele>
        <time>2019-08-28T10:20:49Z</time>
      </trkpt>
      <trkpt lat="36.5204630" lon="-5.3221320">
        <ele>618.2</ele>
        <time>2019-08-28T10:20:50Z</time>
      </trkpt>
      <trkpt lat="36.5204400" lon="-5.3221700">
        <ele>618.2</ele>
        <time>2019-08-28T10:20:51Z</time>
      </trkpt>
      <trkpt lat="36.5204170" lon="-5.3222090">
        <ele>618.2</ele>
        <time>2019-08-28T10:20:52Z</time>
      </trkpt>
      <trkpt lat="36.5203930" lon="-5.3222480">
        <ele>618.2</ele>
        <time>2019-08-28T10:20:53Z</time>
      </trkpt>
      <trkpt lat="36.5203710" lon="-5.3222900">
        <ele>618.2</ele>
        <time>2019-08-28T10:20:54Z</time>
      </trkpt>
      <trkpt lat="36.5203520" lon="-5.3223360">
        <ele>618.2</ele>
        <time>2019-08-28T10:20:55Z</time>
      </trkpt>
      <trkpt lat="36.5203350" lon="-5.3223820">
        <ele>618.2</ele>
        <time>2019-08-28T10:20:56Z</time>
      </trkpt>
      <trkpt lat="36.5203220" lon="-5.3224300">
        <ele>618.2</ele>
        <time>2019-08-28T10:20:57Z</time>
      </trkpt>
      <trkpt lat="36.5203120" lon="-5.3224770">
        <ele>618.3</ele>
        <time>2019-08-28T10:20:58Z</time>
      </trkpt>
      <trkpt lat="36.5203030" lon="-5.3225260">
        <ele>618.3</ele>
        <time>2019-08-28T10:20:59Z</time>
      </trkpt>
      <trkpt lat="36.5202970" lon="-5.3225730">
        <ele>618.4</ele>
        <time>2019-08-28T10:21:00Z</time>
      </trkpt>
      <trkpt lat="36.5202930" lon="-5.3226210">
        <ele>618.5</ele>
        <time>2019-08-28T10:21:01Z</time>
      </trkpt>
      <trkpt lat="36.5202900" lon="-5.3226690">
        <ele>618.5</ele>
        <time>2019-08-28T10:21:02Z</time>
      </trkpt>
      <trkpt lat="36.5202900" lon="-5.3227170">
        <ele>618.6</ele>
        <time>2019-08-28T10:21:03Z</time>
      </trkpt>
      <trkpt lat="36.5202910" lon="-5.3227650">
        <ele>618.7</ele>
        <time>2019-08-28T10:21:04Z</time>
      </trkpt>
      <trkpt lat="36.5202940" lon="-5.3228130">
        <ele>618.8</ele>
        <time>2019-08-28T10:21:05Z</time>
      </trkpt>
      <trkpt lat="36.5202990" lon="-5.3228610">
        <ele>618.9</ele>
        <time>2019-08-28T10:21:06Z</time>
      </trkpt>
      <trkpt lat="36.5203050" lon="-5.3229090">
        <ele>619.1</ele>
        <time>2019-08-28T10:21:07Z</time>
      </trkpt>
      <trkpt lat="36.5203140" lon="-5.3229570">
        <ele>619.2</ele>
        <time>2019-08-28T10:21:08Z</time>
      </trkpt>
      <trkpt lat="36.5203280" lon="-5.3230050">
        <ele>619.4</ele>
        <time>2019-08-28T10:21:09Z</time>
      </trkpt>
      <trkpt lat="36.5203450" lon="-5.3230520">
        <ele>619.6</ele>
        <time>2019-08-28T10:21:10Z</time>
      </trkpt>
      <trkpt lat="36.5203630" lon="-5.3231000">
        <ele>619.8</ele>
        <time>2019-08-28T10:21:11Z</time>
      </trkpt>
      <trkpt lat="36.5203810" lon="-5.3231450">
        <ele>620.1</ele>
        <time>2019-08-28T10:21:12Z</time>
      </trkpt>
      <trkpt lat="36.5203980" lon="-5.3231900">
        <ele>620.3</ele>
        <time>2019-08-28T10:21:13Z</time>
      </trkpt>
      <trkpt lat="36.5204170" lon="-5.3232340">
        <ele>620.5</ele>
        <time>2019-08-28T10:21:14Z</time>
      </trkpt>
      <trkpt lat="36.5204350" lon="-5.3232760">
        <ele>620.7</ele>
        <time>2019-08-28T10:21:15Z</time>
      </trkpt>
      <trkpt lat="36.5204540" lon="-5.3233170">
        <ele>621.0</ele>
        <time>2019-08-28T10:21:16Z</time>
      </trkpt>
      <trkpt lat="36.5204720" lon="-5.3233570">
        <ele>621.2</ele>
        <time>2019-08-28T10:21:17Z</time>
      </trkpt>
      <trkpt lat="36.5204880" lon="-5.3233970">
        <ele>621.4</ele>
        <time>2019-08-28T10:21:18Z</time>
      </trkpt>
      <trkpt lat="36.5205030" lon="-5.3234370">
        <ele>621.6</ele>
        <time>2019-08-28T10:21:19Z</time>
      </trkpt>
      <trkpt lat="36.5205160" lon="-5.3234790">
        <ele>621.9</ele>
        <time>2019-08-28T10:21:20Z</time>
      </trkpt>
      <trkpt lat="36.5205270" lon="-5.3235220">
        <ele>622.2</ele>
        <time>2019-08-28T10:21:21Z</time>
      </trkpt>
      <trkpt lat="36.5205380" lon="-5.3235650">
        <ele>622.5</ele>
        <time>2019-08-28T10:21:22Z</time>
      </trkpt>
      <trkpt lat="36.5205460" lon="-5.3236080">
        <ele>622.7</ele>
        <time>2019-08-28T10:21:23Z</time>
      </trkpt>
      <trkpt lat="36.5205520" lon="-5.3236520">
        <ele>623.0</ele>
        <time>2019-08-28T10:21:24Z</time>
      </trkpt>
      <trkpt lat="36.5205540" lon="-5.3236970">
        <ele>623.3</ele>
        <time>2019-08-28T10:21:25Z</time>
      </trkpt>
      <trkpt lat="36.5205550" lon="-5.3237430">
        <ele>623.7</ele>
        <time>2019-08-28T10:21:26Z</time>
      </trkpt>
      <trkpt lat="36.5205550" lon="-5.3237900">
        <ele>624.1</ele>
        <time>2019-08-28T10:21:27Z</time>
      </trkpt>
      <trkpt lat="36.5205530" lon="-5.3238380">
        <ele>624.4</ele>
        <time>2019-08-28T10:21:28Z</time>
      </trkpt>
      <trkpt lat="36.5205490" lon="-5.3238840">
        <ele>624.7</ele>
        <time>2019-08-28T10:21:29Z</time>
      </trkpt>
      <trkpt lat="36.5205410" lon="-5.3239300">
        <ele>625.0</ele>
        <time>2019-08-28T10:21:30Z</time>
      </trkpt>
      <trkpt lat="36.5205310" lon="-5.3239760">
        <ele>625.3</ele>
        <time>2019-08-28T10:21:31Z</time>
      </trkpt>
      <trkpt lat="36.5205190" lon="-5.3240220">
        <ele>625.7</ele>
        <time>2019-08-28T10:21:32Z</time>
      </trkpt>
      <trkpt lat="36.5205040" lon="-5.3240680">
        <ele>626.0</ele>
        <time>2019-08-28T10:21:33Z</time>
      </trkpt>
      <trkpt lat="36.5204860" lon="-5.3241130">
        <ele>626.3</ele>
        <time>2019-08-28T10:21:34Z</time>
      </trkpt>
      <trkpt lat="36.5204650" lon="-5.3241560">
        <ele>626.5</ele>
        <time>2019-08-28T10:21:35Z</time>
      </trkpt>
      <trkpt lat="36.5204440" lon="-5.3241990">
        <ele>626.8</ele>
        <time>2019-08-28T10:21:36Z</time>
      </trkpt>
      <trkpt lat="36.5204240" lon="-5.3242410">
        <ele>627.2</ele>
        <time>2019-08-28T10:21:37Z</time>
      </trkpt>
      <trkpt lat="36.5204040" lon="-5.3242820">
        <ele>627.4</ele>
        <time>2019-08-28T10:21:38Z</time>
      </trkpt>
      <trkpt lat="36.5203850" lon="-5.3243230">
        <ele>627.6</ele>
        <time>2019-08-28T10:21:39Z</time>
      </trkpt>
      <trkpt lat="36.5203640" lon="-5.3243630">
        <ele>627.8</ele>
        <time>2019-08-28T10:21:40Z</time>
      </trkpt>
      <trkpt lat="36.5203410" lon="-5.3244020">
        <ele>628.0</ele>
        <time>2019-08-28T10:21:41Z</time>
      </trkpt>
      <trkpt lat="36.5203170" lon="-5.3244400">
        <ele>628.1</ele>
        <time>2019-08-28T10:21:42Z</time>
      </trkpt>
      <trkpt lat="36.5202940" lon="-5.3244780">
        <ele>628.3</ele>
        <time>2019-08-28T10:21:43Z</time>
      </trkpt>
      <trkpt lat="36.5202720" lon="-5.3245170">
        <ele>628.3</ele>
        <time>2019-08-28T10:21:44Z</time>
      </trkpt>
      <trkpt lat="36.5202500" lon="-5.3245560">
        <ele>628.3</ele>
        <time>2019-08-28T10:21:45Z</time>
      </trkpt>
      <trkpt lat="36.5202270" lon="-5.3245940">
        <ele>628.3</ele>
        <time>2019-08-28T10:21:46Z</time>
      </trkpt>
      <trkpt lat="36.5202010" lon="-5.3246310">
        <ele>628.2</ele>
        <time>2019-08-28T10:21:47Z</time>
      </trkpt>
      <trkpt lat="36.5201760" lon="-5.3246690">
        <ele>628.1</ele>
        <time>2019-08-28T10:21:48Z</time>
      </trkpt>
      <trkpt lat="36.5201550" lon="-5.3247090">
        <ele>627.9</ele>
        <time>2019-08-28T10:21:49Z</time>
      </trkpt>
      <trkpt lat="36.5201410" lon="-5.3247530">
        <ele>627.6</ele>
        <time>2019-08-28T10:21:50Z</time>
      </trkpt>
      <trkpt lat="36.5201350" lon="-5.3248000">
        <ele>627.4</ele>
        <time>2019-08-28T10:21:51Z</time>
      </trkpt>
      <trkpt lat="36.5201360" lon="-5.3248470">
        <ele>627.0</ele>
        <time>2019-08-28T10:21:52Z</time>
      </trkpt>
      <trkpt lat="36.5201350" lon="-5.3248930">
        <ele>626.8</ele>
        <time>2019-08-28T10:21:53Z</time>
      </trkpt>
      <trkpt lat="36.5201290" lon="-5.3249340">
        <ele>626.7</ele>
        <time>2019-08-28T10:21:54Z</time>
      </trkpt>
      <trkpt lat="36.5201180" lon="-5.3249690">
        <ele>626.5</ele>
        <time>2019-08-28T10:21:55Z</time>
      </trkpt>
      <trkpt lat="36.5201010" lon="-5.3249970">
        <ele>626.5</ele>
        <time>2019-08-28T10:21:56Z</time>
      </trkpt>
      <trkpt lat="36.5200830" lon="-5.3250200">
        <ele>626.5</ele>
        <time>2019-08-28T10:21:57Z</time>
      </trkpt>
      <trkpt lat="36.5200630" lon="-5.3250380">
        <ele>626.5</ele>
        <time>2019-08-28T10:21:58Z</time>
      </trkpt>
      <trkpt lat="36.5200420" lon="-5.3250500">
        <ele>626.5</ele>
        <time>2019-08-28T10:21:59Z</time>
      </trkpt>
      <trkpt lat="36.5200190" lon="-5.3250550">
        <ele>626.5</ele>
        <time>2019-08-28T10:22:00Z</time>
      </trkpt>
      <trkpt lat="36.5199950" lon="-5.3250500">
        <ele>626.4</ele>
        <time>2019-08-28T10:22:01Z</time>
      </trkpt>
      <trkpt lat="36.5199720" lon="-5.3250360">
        <ele>626.4</ele>
        <time>2019-08-28T10:22:02Z</time>
      </trkpt>
      <trkpt lat="36.5199500" lon="-5.3250150">
        <ele>626.4</ele>
        <time>2019-08-28T10:22:03Z</time>
      </trkpt>
      <trkpt lat="36.5199300" lon="-5.3249870">
        <ele>626.4</ele>
        <time>2019-08-28T10:22:04Z</time>
      </trkpt>
      <trkpt lat="36.5199120" lon="-5.3249530">
        <ele>626.4</ele>
        <time>2019-08-28T10:22:05Z</time>
      </trkpt>
      <trkpt lat="36.5198970" lon="-5.3249150">
        <ele>626.4</ele>
        <time>2019-08-28T10:22:06Z</time>
      </trkpt>
      <trkpt lat="36.5198830" lon="-5.3248710">
        <ele>626.3</ele>
        <time>2019-08-28T10:22:07Z</time>
      </trkpt>
      <trkpt lat="36.5198690" lon="-5.3248250">
        <ele>626.3</ele>
        <time>2019-08-28T10:22:08Z</time>
      </trkpt>
      <trkpt lat="36.5198540" lon="-5.3247780">
        <ele>626.2</ele>
        <time>2019-08-28T10:22:09Z</time>
      </trkpt>
      <trkpt lat="36.5198370" lon="-5.3247320">
        <ele>626.4</ele>
        <time>2019-08-28T10:22:10Z</time>
      </trkpt>
      <trkpt lat="36.5198210" lon="-5.3246870">
        <ele>626.6</ele>
        <time>2019-08-28T10:22:11Z</time>
      </trkpt>
      <trkpt lat="36.5198040" lon="-5.3246410">
        <ele>626.7</ele>
        <time>2019-08-28T10:22:12Z</time>
      </trkpt>
      <trkpt lat="36.5197860" lon="-5.3245970">
        <ele>626.9</ele>
        <time>2019-08-28T10:22:13Z</time>
      </trkpt>
      <trkpt lat="36.5197680" lon="-5.3245530">
        <ele>627.0</ele>
        <time>2019-08-28T10:22:14Z</time>
      </trkpt>
      <trkpt lat="36.5197470" lon="-5.3245090">
        <ele>627.2</ele>
        <time>2019-08-28T10:22:15Z</time>
      </trkpt>
      <trkpt lat="36.5197260" lon="-5.3244640">
        <ele>627.3</ele>
        <time>2019-08-28T10:22:16Z</time>
      </trkpt>
      <trkpt lat="36.5197040" lon="-5.3244180">
        <ele>627.4</ele>
        <time>2019-08-28T10:22:17Z</time>
      </trkpt>
      <trkpt lat="36.5196820" lon="-5.3243690">
        <ele>627.5</ele>
        <time>2019-08-28T10:22:18Z</time>
      </trkpt>
      <trkpt lat="36.5196590" lon="-5.3243190">
        <ele>627.6</ele>
        <time>2019-08-28T10:22:19Z</time>
      </trkpt>
      <trkpt lat="36.5196370" lon="-5.3242690">
        <ele>627.7</ele>
        <time>2019-08-28T10:22:20Z</time>
      </trkpt>
      <trkpt lat="36.5196140" lon="-5.3242170">
        <ele>627.8</ele>
        <time>2019-08-28T10:22:21Z</time>
      </trkpt>
      <trkpt lat="36.5195920" lon="-5.3241650">
        <ele>627.9</ele>
        <time>2019-08-28T10:22:22Z</time>
      </trkpt>
      <trkpt lat="36.5195690" lon="-5.3241130">
        <ele>628.0</ele>
        <time>2019-08-28T10:22:23Z</time>
      </trkpt>
      <trkpt lat="36.5195460" lon="-5.3240610">
        <ele>628.1</ele>
        <time>2019-08-28T10:22:24Z</time>
      </trkpt>
      <trkpt lat="36.5195220" lon="-5.3240090">
        <ele>628.2</ele>
        <time>2019-08-28T10:22:25Z</time>
      </trkpt>
      <trkpt lat="36.5194980" lon="-5.3239570">
        <ele>628.3</ele>
        <time>2019-08-28T10:22:26Z</time>
      </trkpt>
      <trkpt lat="36.5194730" lon="-5.3239060">
        <ele>628.4</ele>
        <time>2019-08-28T10:22:27Z</time>
      </trkpt>
      <trkpt lat="36.5194490" lon="-5.3238540">
        <ele>628.5</ele>
        <time>2019-08-28T10:22:28Z</time>
      </trkpt>
      <trkpt lat="36.5194250" lon="-5.3238020">
        <ele>628.6</ele>
        <time>2019-08-28T10:22:29Z</time>
      </trkpt>
      <trkpt lat="36.5194020" lon="-5.3237500">
        <ele>628.7</ele>
        <time>2019-08-28T10:22:30Z</time>
      </trkpt>
      <trkpt lat="36.5193790" lon="-5.3237000">
        <ele>628.7</ele>
        <time>2019-08-28T10:22:31Z</time>
      </trkpt>
      <trkpt lat="36.5193580" lon="-5.3236510">
        <ele>628.8</ele>
        <time>2019-08-28T10:22:32Z</time>
      </trkpt>
      <trkpt lat="36.5193380" lon="-5.3236030">
        <ele>628.9</ele>
        <time>2019-08-28T10:22:33Z</time>
      </trkpt>
      <trkpt lat="36.5193190" lon="-5.3235540">
        <ele>628.9</ele>
        <time>2019-08-28T10:22:34Z</time>
      </trkpt>
      <trkpt lat="36.5193020" lon="-5.3235040">
        <ele>629.0</ele>
        <time>2019-08-28T10:22:35Z</time>
      </trkpt>
      <trkpt lat="36.5192870" lon="-5.3234520">
        <ele>629.1</ele>
        <time>2019-08-28T10:22:36Z</time>
      </trkpt>
      <trkpt lat="36.5192760" lon="-5.3233990">
        <ele>629.0</ele>
        <time>2019-08-28T10:22:37Z</time>
      </trkpt>
      <trkpt lat="36.5192670" lon="-5.3233460">
        <ele>629.0</ele>
        <time>2019-08-28T10:22:38Z</time>
      </trkpt>
      <trkpt lat="36.5192590" lon="-5.3232930">
        <ele>628.9</ele>
        <time>2019-08-28T10:22:39Z</time>
      </trkpt>
      <trkpt lat="36.5192490" lon="-5.3232430">
        <ele>628.9</ele>
        <time>2019-08-28T10:22:40Z</time>
      </trkpt>
      <trkpt lat="36.5192250" lon="-5.3231980">
        <ele>628.8</ele>
        <time>2019-08-28T10:22:41Z</time>
      </trkpt>
      <trkpt lat="36.5191820" lon="-5.3231650">
        <ele>628.6</ele>
        <time>2019-08-28T10:22:42Z</time>
      </trkpt>
      <trkpt lat="36.5191230" lon="-5.3231460">
        <ele>627.7</ele>
        <time>2019-08-28T10:22:43Z</time>
      </trkpt>
      <trkpt lat="36.5190660" lon="-5.3231400">
        <ele>626.8</ele>
        <time>2019-08-28T10:22:44Z</time>
      </trkpt>
      <trkpt lat="36.5190150" lon="-5.3231440">
        <ele>626.0</ele>
        <time>2019-08-28T10:22:45Z</time>
      </trkpt>
      <trkpt lat="36.5189680" lon="-5.3231550">
        <ele>625.3</ele>
        <time>2019-08-28T10:22:46Z</time>
      </trkpt>
      <trkpt lat="36.5189210" lon="-5.3231670">
        <ele>624.5</ele>
        <time>2019-08-28T10:22:47Z</time>
      </trkpt>
      <trkpt lat="36.5188730" lon="-5.3231820">
        <ele>623.6</ele>
        <time>2019-08-28T10:22:48Z</time>
      </trkpt>
      <trkpt lat="36.5188280" lon="-5.3231980">
        <ele>622.7</ele>
        <time>2019-08-28T10:22:49Z</time>
      </trkpt>
      <trkpt lat="36.5187880" lon="-5.3232150">
        <ele>622.0</ele>
        <time>2019-08-28T10:22:50Z</time>
      </trkpt>
      <trkpt lat="36.5187540" lon="-5.3232260">
        <ele>621.4</ele>
        <time>2019-08-28T10:22:51Z</time>
      </trkpt>
      <trkpt lat="36.5187280" lon="-5.3232280">
        <ele>620.9</ele>
        <time>2019-08-28T10:22:52Z</time>
      </trkpt>
      <trkpt lat="36.5187100" lon="-5.3232250">
        <ele>620.6</ele>
        <time>2019-08-28T10:22:53Z</time>
      </trkpt>
      <trkpt lat="36.5186990" lon="-5.3232190">
        <ele>620.4</ele>
        <time>2019-08-28T10:22:54Z</time>
      </trkpt>
      <trkpt lat="36.5186940" lon="-5.3232140">
        <ele>620.3</ele>
        <time>2019-08-28T10:22:55Z</time>
      </trkpt>
      <trkpt lat="36.5186910" lon="-5.3232090">
        <ele>620.2</ele>
        <time>2019-08-28T10:22:56Z</time>
      </trkpt>
      <trkpt lat="36.5186900" lon="-5.3232070">
        <ele>620.1</ele>
        <time>2019-08-28T10:22:57Z</time>
      </trkpt>
      <trkpt lat="36.5186900" lon="-5.3232060">
        <ele>620.1</ele>
        <time>2019-08-28T10:22:58Z</time>
      </trkpt>
      <trkpt lat="36.5186910" lon="-5.3232070">
        <ele>620.1</ele>
        <time>2019-08-28T10:22:59Z</time>
      </trkpt>
      <trkpt lat="36.5186910" lon="-5.3232070">
        <ele>620.1</ele>
        <time>2019-08-28T10:23:00Z</time>
      </trkpt>
      <trkpt lat="36.5186910" lon="-5.3232060">
        <ele>620.1</ele>
        <time>2019-08-28T10:23:01Z</time>
      </trkpt>
      <trkpt lat="36.5186910" lon="-5.3232050">
        <ele>620.1</ele>
        <time>2019-08-28T10:23:02Z</time>
      </trkpt>
      <trkpt lat="36.5186620" lon="-5.3232220">
        <ele>619.5</ele>
        <time>2019-08-28T10:24:16Z</time>
      </trkpt>
      <trkpt lat="36.5186600" lon="-5.3232430">
        <ele>619.2</ele>
        <time>2019-08-28T10:24:17Z</time>
      </trkpt>
      <trkpt lat="36.5186560" lon="-5.3232670">
        <ele>618.8</ele>
        <time>2019-08-28T10:24:18Z</time>
      </trkpt>
      <trkpt lat="36.5186510" lon="-5.3232990">
        <ele>618.4</ele>
        <time>2019-08-28T10:24:19Z</time>
      </trkpt>
      <trkpt lat="36.5186450" lon="-5.3233390">
        <ele>617.8</ele>
        <time>2019-08-28T10:24:20Z</time>
      </trkpt>
      <trkpt lat="36.5186420" lon="-5.3233860">
        <ele>617.1</ele>
        <time>2019-08-28T10:24:21Z</time>
      </trkpt>
      <trkpt lat="36.5186470" lon="-5.3234380">
        <ele>616.5</ele>
        <time>2019-08-28T10:24:22Z</time>
      </trkpt>
      <trkpt lat="36.5186640" lon="-5.3234930">
        <ele>613.4</ele>
        <time>2019-08-28T10:24:23Z</time>
      </trkpt>
      <trkpt lat="36.5186930" lon="-5.3235480">
        <ele>613.2</ele>
        <time>2019-08-28T10:24:24Z</time>
      </trkpt>
      <trkpt lat="36.5187330" lon="-5.3236030">
        <ele>613.1</ele>
        <time>2019-08-28T10:24:25Z</time>
      </trkpt>
      <trkpt lat="36.5187810" lon="-5.3236570">
        <ele>613.0</ele>
        <time>2019-08-28T10:24:26Z</time>
      </trkpt>
      <trkpt lat="36.5188350" lon="-5.3237120">
        <ele>613.1</ele>
        <time>2019-08-28T10:24:27Z</time>
      </trkpt>
      <trkpt lat="36.5188930" lon="-5.3237680">
        <ele>613.2</ele>
        <time>2019-08-28T10:24:28Z</time>
      </trkpt>
      <trkpt lat="36.5189540" lon="-5.3238290">
        <ele>613.4</ele>
        <time>2019-08-28T10:24:29Z</time>
      </trkpt>
      <trkpt lat="36.5190170" lon="-5.3238970">
        <ele>613.8</ele>
        <time>2019-08-28T10:24:30Z</time>
      </trkpt>
      <trkpt lat="36.5190760" lon="-5.3239780">
        <ele>614.1</ele>
        <time>2019-08-28T10:24:31Z</time>
      </trkpt>
      <trkpt lat="36.5191270" lon="-5.3240690">
        <ele>614.6</ele>
        <time>2019-08-28T10:24:32Z</time>
      </trkpt>
      <trkpt lat="36.5191680" lon="-5.3241730">
        <ele>615.1</ele>
        <time>2019-08-28T10:24:33Z</time>
      </trkpt>
      <trkpt lat="36.5192030" lon="-5.3242840">
        <ele>615.6</ele>
        <time>2019-08-28T10:24:34Z</time>
      </trkpt>
      <trkpt lat="36.5192310" lon="-5.3243990">
        <ele>616.2</ele>
        <time>2019-08-28T10:24:35Z</time>
      </trkpt>
      <trkpt lat="36.5192600" lon="-5.3245100">
        <ele>616.8</ele>
        <time>2019-08-28T10:24:36Z</time>
      </trkpt>
      <trkpt lat="36.5192830" lon="-5.3246200">
        <ele>617.5</ele>
        <time>2019-08-28T10:24:37Z</time>
      </trkpt>
      <trkpt lat="36.5192960" lon="-5.3247310">
        <ele>618.3</ele>
        <time>2019-08-28T10:24:38Z</time>
      </trkpt>
      <trkpt lat="36.5192990" lon="-5.3248440">
        <ele>618.3</ele>
        <time>2019-08-28T10:24:39Z</time>
      </trkpt>
      <trkpt lat="36.5192850" lon="-5.3249610">
        <ele>617.4</ele>
        <time>2019-08-28T10:24:40Z</time>
      </trkpt>
      <trkpt lat="36.5192600" lon="-5.3250760">
        <ele>616.4</ele>
        <time>2019-08-28T10:24:41Z</time>
      </trkpt>
      <trkpt lat="36.5192300" lon="-5.3251890">
        <ele>615.3</ele>
        <time>2019-08-28T10:24:42Z</time>
      </trkpt>
      <trkpt lat="36.5192010" lon="-5.3252970">
        <ele>614.2</ele>
        <time>2019-08-28T10:24:43Z</time>
      </trkpt>
      <trkpt lat="36.5191720" lon="-5.3254060">
        <ele>613.1</ele>
        <time>2019-08-28T10:24:44Z</time>
      </trkpt>
      <trkpt lat="36.5191380" lon="-5.3255130">
        <ele>612.0</ele>
        <time>2019-08-28T10:24:45Z</time>
      </trkpt>
      <trkpt lat="36.5191000" lon="-5.3256190">
        <ele>610.8</ele>
        <time>2019-08-28T10:24:46Z</time>
      </trkpt>
      <trkpt lat="36.5190440" lon="-5.3257140">
        <ele>609.7</ele>
        <time>2019-08-28T10:24:47Z</time>
      </trkpt>
      <trkpt lat="36.5189710" lon="-5.3257970">
        <ele>608.5</ele>
        <time>2019-08-28T10:24:48Z</time>
      </trkpt>
      <trkpt lat="36.5188840" lon="-5.3258680">
        <ele>607.3</ele>
        <time>2019-08-28T10:24:49Z</time>
      </trkpt>
      <trkpt lat="36.5187980" lon="-5.3259360">
        <ele>606.6</ele>
        <time>2019-08-28T10:24:50Z</time>
      </trkpt>
      <trkpt lat="36.5187130" lon="-5.3260040">
        <ele>605.9</ele>
        <time>2019-08-28T10:24:51Z</time>
      </trkpt>
      <trkpt lat="36.5186300" lon="-5.3260760">
        <ele>605.1</ele>
        <time>2019-08-28T10:24:52Z</time>
      </trkpt>
      <trkpt lat="36.5185460" lon="-5.3261490">
        <ele>604.5</ele>
        <time>2019-08-28T10:24:53Z</time>
      </trkpt>
      <trkpt lat="36.5184610" lon="-5.3262230">
        <ele>603.8</ele>
        <time>2019-08-28T10:24:54Z</time>
      </trkpt>
      <trkpt lat="36.5183760" lon="-5.3262990">
        <ele>603.2</ele>
        <time>2019-08-28T10:24:55Z</time>
      </trkpt>
      <trkpt lat="36.5182940" lon="-5.3263780">
        <ele>602.5</ele>
        <time>2019-08-28T10:24:56Z</time>
      </trkpt>
      <trkpt lat="36.5182160" lon="-5.3264630">
        <ele>601.7</ele>
        <time>2019-08-28T10:24:57Z</time>
      </trkpt>
      <trkpt lat="36.5181480" lon="-5.3265610">
        <ele>600.8</ele>
        <time>2019-08-28T10:24:58Z</time>
      </trkpt>
      <trkpt lat="36.5180870" lon="-5.3266720">
        <ele>599.7</ele>
        <time>2019-08-28T10:24:59Z</time>
      </trkpt>
      <trkpt lat="36.5180320" lon="-5.3267920">
        <ele>598.4</ele>
        <time>2019-08-28T10:25:00Z</time>
      </trkpt>
      <trkpt lat="36.5179780" lon="-5.3269130">
        <ele>597.4</ele>
        <time>2019-08-28T10:25:01Z</time>
      </trkpt>
      <trkpt lat="36.5179280" lon="-5.3270330">
        <ele>596.5</ele>
        <time>2019-08-28T10:25:02Z</time>
      </trkpt>
      <trkpt lat="36.5178790" lon="-5.3271530">
        <ele>595.6</ele>
        <time>2019-08-28T10:25:03Z</time>
      </trkpt>
      <trkpt lat="36.5178300" lon="-5.3272710">
        <ele>594.9</ele>
        <time>2019-08-28T10:25:04Z</time>
      </trkpt>
      <trkpt lat="36.5177790" lon="-5.3273870">
        <ele>594.2</ele>
        <time>2019-08-28T10:25:05Z</time>
      </trkpt>
      <trkpt lat="36.5177290" lon="-5.3275000">
        <ele>593.7</ele>
        <time>2019-08-28T10:25:06Z</time>
      </trkpt>
      <trkpt lat="36.5176790" lon="-5.3276120">
        <ele>593.3</ele>
        <time>2019-08-28T10:25:07Z</time>
      </trkpt>
      <trkpt lat="36.5176320" lon="-5.3277210">
        <ele>593.0</ele>
        <time>2019-08-28T10:25:08Z</time>
      </trkpt>
      <trkpt lat="36.5175850" lon="-5.3278290">
        <ele>592.7</ele>
        <time>2019-08-28T10:25:09Z</time>
      </trkpt>
      <trkpt lat="36.5175380" lon="-5.3279360">
        <ele>592.4</ele>
        <time>2019-08-28T10:25:10Z</time>
      </trkpt>
      <trkpt lat="36.5174900" lon="-5.3280410">
        <ele>592.2</ele>
        <time>2019-08-28T10:25:11Z</time>
      </trkpt>
      <trkpt lat="36.5174400" lon="-5.3281450">
        <ele>592.0</ele>
        <time>2019-08-28T10:25:12Z</time>
      </trkpt>
      <trkpt lat="36.5173880" lon="-5.3282470">
        <ele>591.8</ele>
        <time>2019-08-28T10:25:13Z</time>
      </trkpt>
      <trkpt lat="36.5173320" lon="-5.3283480">
        <ele>591.5</ele>
        <time>2019-08-28T10:25:14Z</time>
      </trkpt>
      <trkpt lat="36.5172700" lon="-5.3284440">
        <ele>591.3</ele>
        <time>2019-08-28T10:25:15Z</time>
      </trkpt>
      <trkpt lat="36.5172000" lon="-5.3285330">
        <ele>591.2</ele>
        <time>2019-08-28T10:25:16Z</time>
      </trkpt>
      <trkpt lat="36.5171200" lon="-5.3286120">
        <ele>591.0</ele>
        <time>2019-08-28T10:25:17Z</time>
      </trkpt>
      <trkpt lat="36.5170340" lon="-5.3286830">
        <ele>590.9</ele>
        <time>2019-08-28T10:25:18Z</time>
      </trkpt>
      <trkpt lat="36.5169410" lon="-5.3287450">
        <ele>590.8</ele>
        <time>2019-08-28T10:25:19Z</time>
      </trkpt>
      <trkpt lat="36.5168430" lon="-5.3287990">
        <ele>590.6</ele>
        <time>2019-08-28T10:25:20Z</time>
      </trkpt>
      <trkpt lat="36.5167410" lon="-5.3288450">
        <ele>590.3</ele>
        <time>2019-08-28T10:25:21Z</time>
      </trkpt>
      <trkpt lat="36.5166360" lon="-5.3288820">
        <ele>590.0</ele>
        <time>2019-08-28T10:25:22Z</time>
      </trkpt>
      <trkpt lat="36.5165270" lon="-5.3289130">
        <ele>589.6</ele>
        <time>2019-08-28T10:25:23Z</time>
      </trkpt>
      <trkpt lat="36.5164170" lon="-5.3289390">
        <ele>589.2</ele>
        <time>2019-08-28T10:25:24Z</time>
      </trkpt>
      <trkpt lat="36.5163080" lon="-5.3289620">
        <ele>588.7</ele>
        <time>2019-08-28T10:25:25Z</time>
      </trkpt>
      <trkpt lat="36.5161990" lon="-5.3289800">
        <ele>588.3</ele>
        <time>2019-08-28T10:25:26Z</time>
      </trkpt>
      <trkpt lat="36.5160920" lon="-5.3289930">
        <ele>587.9</ele>
        <time>2019-08-28T10:25:27Z</time>
      </trkpt>
      <trkpt lat="36.5159860" lon="-5.3290040">
        <ele>587.5</ele>
        <time>2019-08-28T10:25:28Z</time>
      </trkpt>
      <trkpt lat="36.5158830" lon="-5.3290140">
        <ele>587.1</ele>
        <time>2019-08-28T10:25:29Z</time>
      </trkpt>
      <trkpt lat="36.5157810" lon="-5.3290240">
        <ele>586.5</ele>
        <time>2019-08-28T10:25:30Z</time>
      </trkpt>
      <trkpt lat="36.5156800" lon="-5.3290330">
        <ele>586.0</ele>
        <time>2019-08-28T10:25:31Z</time>
      </trkpt>
      <trkpt lat="36.5155800" lon="-5.3290430">
        <ele>585.3</ele>
        <time>2019-08-28T10:25:32Z</time>
      </trkpt>
      <trkpt lat="36.5154840" lon="-5.3290560">
        <ele>584.6</ele>
        <time>2019-08-28T10:25:33Z</time>
      </trkpt>
      <trkpt lat="36.5153900" lon="-5.3290730">
        <ele>584.0</ele>
        <time>2019-08-28T10:25:34Z</time>
      </trkpt>
      <trkpt lat="36.5152980" lon="-5.3290930">
        <ele>583.4</ele>
        <time>2019-08-28T10:25:35Z</time>
      </trkpt>
      <trkpt lat="36.5152100" lon="-5.3291220">
        <ele>582.9</ele>
        <time>2019-08-28T10:25:36Z</time>
      </trkpt>
      <trkpt lat="36.5151240" lon="-5.3291560">
        <ele>582.5</ele>
        <time>2019-08-28T10:25:37Z</time>
      </trkpt>
      <trkpt lat="36.5150410" lon="-5.3291980">
        <ele>582.2</ele>
        <time>2019-08-28T10:25:38Z</time>
      </trkpt>
      <trkpt lat="36.5149610" lon="-5.3292410">
        <ele>582.0</ele>
        <time>2019-08-28T10:25:39Z</time>
      </trkpt>
      <trkpt lat="36.5148810" lon="-5.3292840">
        <ele>581.8</ele>
        <time>2019-08-28T10:25:40Z</time>
      </trkpt>
      <trkpt lat="36.5148010" lon="-5.3293290">
        <ele>581.7</ele>
        <time>2019-08-28T10:25:41Z</time>
      </trkpt>
      <trkpt lat="36.5147220" lon="-5.3293740">
        <ele>581.6</ele>
        <time>2019-08-28T10:25:42Z</time>
      </trkpt>
      <trkpt lat="36.5146430" lon="-5.3294200">
        <ele>581.5</ele>
        <time>2019-08-28T10:25:43Z</time>
      </trkpt>
      <trkpt lat="36.5145610" lon="-5.3294640">
        <ele>581.4</ele>
        <time>2019-08-28T10:25:44Z</time>
      </trkpt>
      <trkpt lat="36.5144780" lon="-5.3295070">
        <ele>581.4</ele>
        <time>2019-08-28T10:25:45Z</time>
      </trkpt>
      <trkpt lat="36.5143930" lon="-5.3295480">
        <ele>581.3</ele>
        <time>2019-08-28T10:25:46Z</time>
      </trkpt>
      <trkpt lat="36.5143070" lon="-5.3295870">
        <ele>581.2</ele>
        <time>2019-08-28T10:25:47Z</time>
      </trkpt>
      <trkpt lat="36.5142190" lon="-5.3296230">
        <ele>581.2</ele>
        <time>2019-08-28T10:25:48Z</time>
      </trkpt>
      <trkpt lat="36.5141300" lon="-5.3296590">
        <ele>581.1</ele>
        <time>2019-08-28T10:25:49Z</time>
      </trkpt>
      <trkpt lat="36.5140390" lon="-5.3296920">
        <ele>581.1</ele>
        <time>2019-08-28T10:25:50Z</time>
      </trkpt>
      <trkpt lat="36.5139480" lon="-5.3297210">
        <ele>581.0</ele>
        <time>2019-08-28T10:25:51Z</time>
      </trkpt>
      <trkpt lat="36.5138560" lon="-5.3297440">
        <ele>580.9</ele>
        <time>2019-08-28T10:25:52Z</time>
      </trkpt>
      <trkpt lat="36.5137620" lon="-5.3297590">
        <ele>580.9</ele>
        <time>2019-08-28T10:25:53Z</time>
      </trkpt>
      <trkpt lat="36.5136670" lon="-5.3297640">
        <ele>580.8</ele>
        <time>2019-08-28T10:25:54Z</time>
      </trkpt>
      <trkpt lat="36.5135720" lon="-5.3297600">
        <ele>580.7</ele>
        <time>2019-08-28T10:25:55Z</time>
      </trkpt>
      <trkpt lat="36.5134790" lon="-5.3297460">
        <ele>580.6</ele>
        <time>2019-08-28T10:25:56Z</time>
      </trkpt>
      <trkpt lat="36.5133870" lon="-5.3297240">
        <ele>580.3</ele>
        <time>2019-08-28T10:25:57Z</time>
      </trkpt>
      <trkpt lat="36.5132950" lon="-5.3296920">
        <ele>579.3</ele>
        <time>2019-08-28T10:25:58Z</time>
      </trkpt>
      <trkpt lat="36.5132040" lon="-5.3296550">
        <ele>578.3</ele>
        <time>2019-08-28T10:25:59Z</time>
      </trkpt>
      <trkpt lat="36.5131140" lon="-5.3296140">
        <ele>577.4</ele>
        <time>2019-08-28T10:26:00Z</time>
      </trkpt>
      <trkpt lat="36.5130260" lon="-5.3295690">
        <ele>576.6</ele>
        <time>2019-08-28T10:26:01Z</time>
      </trkpt>
      <trkpt lat="36.5129390" lon="-5.3295210">
        <ele>575.9</ele>
        <time>2019-08-28T10:26:02Z</time>
      </trkpt>
      <trkpt lat="36.5128530" lon="-5.3294680">
        <ele>575.1</ele>
        <time>2019-08-28T10:26:03Z</time>
      </trkpt>
      <trkpt lat="36.5127690" lon="-5.3294120">
        <ele>574.4</ele>
        <time>2019-08-28T10:26:04Z</time>
      </trkpt>
      <trkpt lat="36.5126860" lon="-5.3293550">
        <ele>573.6</ele>
        <time>2019-08-28T10:26:05Z</time>
      </trkpt>
      <trkpt lat="36.5126030" lon="-5.3292970">
        <ele>572.8</ele>
        <time>2019-08-28T10:26:06Z</time>
      </trkpt>
      <trkpt lat="36.5125190" lon="-5.3292390">
        <ele>571.9</ele>
        <time>2019-08-28T10:26:07Z</time>
      </trkpt>
      <trkpt lat="36.5124340" lon="-5.3291800">
        <ele>570.8</ele>
        <time>2019-08-28T10:26:08Z</time>
      </trkpt>
      <trkpt lat="36.5123470" lon="-5.3291220">
        <ele>569.6</ele>
        <time>2019-08-28T10:26:09Z</time>
      </trkpt>
      <trkpt lat="36.5122610" lon="-5.3290640">
        <ele>568.1</ele>
        <time>2019-08-28T10:26:10Z</time>
      </trkpt>
      <trkpt lat="36.5121780" lon="-5.3290090">
        <ele>566.5</ele>
        <time>2019-08-28T10:26:11Z</time>
      </trkpt>
      <trkpt lat="36.5120990" lon="-5.3289570">
        <ele>564.8</ele>
        <time>2019-08-28T10:26:12Z</time>
      </trkpt>
      <trkpt lat="36.5120270" lon="-5.3289090">
        <ele>563.3</ele>
        <time>2019-08-28T10:26:13Z</time>
      </trkpt>
      <trkpt lat="36.5119590" lon="-5.3288750">
        <ele>562.4</ele>
        <time>2019-08-28T10:26:14Z</time>
      </trkpt>
      <trkpt lat="36.5118940" lon="-5.3288620">
        <ele>561.7</ele>
        <time>2019-08-28T10:26:15Z</time>
      </trkpt>
      <trkpt lat="36.5118350" lon="-5.3288780">
        <ele>561.0</ele>
        <time>2019-08-28T10:26:16Z</time>
      </trkpt>
      <trkpt lat="36.5117890" lon="-5.3289200">
        <ele>560.2</ele>
        <time>2019-08-28T10:26:17Z</time>
      </trkpt>
      <trkpt lat="36.5117610" lon="-5.3289790">
        <ele>558.3</ele>
        <time>2019-08-28T10:26:18Z</time>
      </trkpt>
      <trkpt lat="36.5117530" lon="-5.3290530">
        <ele>556.9</ele>
        <time>2019-08-28T10:26:19Z</time>
      </trkpt>
      <trkpt lat="36.5117660" lon="-5.3291360">
        <ele>555.6</ele>
        <time>2019-08-28T10:26:20Z</time>
      </trkpt>
      <trkpt lat="36.5117950" lon="-5.3292280">
        <ele>554.3</ele>
        <time>2019-08-28T10:26:21Z</time>
      </trkpt>
      <trkpt lat="36.5118330" lon="-5.3293270">
        <ele>553.2</ele>
        <time>2019-08-28T10:26:22Z</time>
      </trkpt>
      <trkpt lat="36.5118730" lon="-5.3294370">
        <ele>552.2</ele>
        <time>2019-08-28T10:26:23Z</time>
      </trkpt>
      <trkpt lat="36.5119110" lon="-5.3295580">
        <ele>551.5</ele>
        <time>2019-08-28T10:26:24Z</time>
      </trkpt>
      <trkpt lat="36.5119450" lon="-5.3296880">
        <ele>551.0</ele>
        <time>2019-08-28T10:26:25Z</time>
      </trkpt>
      <trkpt lat="36.5119750" lon="-5.3298240">
        <ele>550.5</ele>
        <time>2019-08-28T10:26:26Z</time>
      </trkpt>
      <trkpt lat="36.5119960" lon="-5.3299680">
        <ele>549.8</ele>
        <time>2019-08-28T10:26:27Z</time>
      </trkpt>
      <trkpt lat="36.5120060" lon="-5.3301160">
        <ele>549.0</ele>
        <time>2019-08-28T10:26:28Z</time>
      </trkpt>
      <trkpt lat="36.5120050" lon="-5.3302680">
        <ele>548.1</ele>
        <time>2019-08-28T10:26:29Z</time>
      </trkpt>
      <trkpt lat="36.5119960" lon="-5.3304220">
        <ele>546.8</ele>
        <time>2019-08-28T10:26:30Z</time>
      </trkpt>
      <trkpt lat="36.5119820" lon="-5.3305780">
        <ele>545.6</ele>
        <time>2019-08-28T10:26:31Z</time>
      </trkpt>
      <trkpt lat="36.5119690" lon="-5.3307370">
        <ele>544.6</ele>
        <time>2019-08-28T10:26:32Z</time>
      </trkpt>
      <trkpt lat="36.5119570" lon="-5.3309000">
        <ele>543.3</ele>
        <time>2019-08-28T10:26:33Z</time>
      </trkpt>
      <trkpt lat="36.5119460" lon="-5.3310650">
        <ele>541.8</ele>
        <time>2019-08-28T10:26:34Z</time>
      </trkpt>
      <trkpt lat="36.5119270" lon="-5.3312320">
        <ele>540.5</ele>
        <time>2019-08-28T10:26:35Z</time>
      </trkpt>
      <trkpt lat="36.5118990" lon="-5.3313980">
        <ele>539.5</ele>
        <time>2019-08-28T10:26:36Z</time>
      </trkpt>
      <trkpt lat="36.5118630" lon="-5.3315650">
        <ele>538.6</ele>
        <time>2019-08-28T10:26:37Z</time>
      </trkpt>
      <trkpt lat="36.5118250" lon="-5.3317320">
        <ele>537.7</ele>
        <time>2019-08-28T10:26:38Z</time>
      </trkpt>
      <trkpt lat="36.5117870" lon="-5.3319020">
        <ele>537.0</ele>
        <time>2019-08-28T10:26:39Z</time>
      </trkpt>
      <trkpt lat="36.5117510" lon="-5.3320730">
        <ele>536.2</ele>
        <time>2019-08-28T10:26:40Z</time>
      </trkpt>
      <trkpt lat="36.5117150" lon="-5.3322450">
        <ele>535.3</ele>
        <time>2019-08-28T10:26:41Z</time>
      </trkpt>
      <trkpt lat="36.5116790" lon="-5.3324170">
        <ele>534.8</ele>
        <time>2019-08-28T10:26:42Z</time>
      </trkpt>
      <trkpt lat="36.5116430" lon="-5.3325870">
        <ele>534.6</ele>
        <time>2019-08-28T10:26:43Z</time>
      </trkpt>
      <trkpt lat="36.5116070" lon="-5.3327540">
        <ele>534.4</ele>
        <time>2019-08-28T10:26:44Z</time>
      </trkpt>
      <trkpt lat="36.5115690" lon="-5.3329190">
        <ele>534.0</ele>
        <time>2019-08-28T10:26:45Z</time>
      </trkpt>
      <trkpt lat="36.5115280" lon="-5.3330810">
        <ele>533.1</ele>
        <time>2019-08-28T10:26:46Z</time>
      </trkpt>
      <trkpt lat="36.5114830" lon="-5.3332400">
        <ele>532.1</ele>
        <time>2019-08-28T10:26:47Z</time>
      </trkpt>
      <trkpt lat="36.5114330" lon="-5.3333960">
        <ele>531.0</ele>
        <time>2019-08-28T10:26:48Z</time>
      </trkpt>
      <trkpt lat="36.5113750" lon="-5.3335490">
        <ele>529.9</ele>
        <time>2019-08-28T10:26:49Z</time>
      </trkpt>
      <trkpt lat="36.5113100" lon="-5.3336960">
        <ele>528.9</ele>
        <time>2019-08-28T10:26:50Z</time>
      </trkpt>
      <trkpt lat="36.5112340" lon="-5.3338350">
        <ele>527.7</ele>
        <time>2019-08-28T10:26:51Z</time>
      </trkpt>
      <trkpt lat="36.5111430" lon="-5.3339640">
        <ele>526.3</ele>
        <time>2019-08-28T10:26:52Z</time>
      </trkpt>
      <trkpt lat="36.5110400" lon="-5.3340800">
        <ele>525.0</ele>
        <time>2019-08-28T10:26:53Z</time>
      </trkpt>
      <trkpt lat="36.5109250" lon="-5.3341840">
        <ele>524.3</ele>
        <time>2019-08-28T10:26:54Z</time>
      </trkpt>
      <trkpt lat="36.5108040" lon="-5.3342730">
        <ele>523.2</ele>
        <time>2019-08-28T10:26:55Z</time>
      </trkpt>
      <trkpt lat="36.5106790" lon="-5.3343490">
        <ele>521.7</ele>
        <time>2019-08-28T10:26:56Z</time>
      </trkpt>
      <trkpt lat="36.5105530" lon="-5.3344170">
        <ele>520.1</ele>
        <time>2019-08-28T10:26:57Z</time>
      </trkpt>
      <trkpt lat="36.5104310" lon="-5.3344810">
        <ele>518.2</ele>
        <time>2019-08-28T10:26:58Z</time>
      </trkpt>
      <trkpt lat="36.5103130" lon="-5.3345400">
        <ele>516.1</ele>
        <time>2019-08-28T10:26:59Z</time>
      </trkpt>
      <trkpt lat="36.5102020" lon="-5.3345900">
        <ele>514.3</ele>
        <time>2019-08-28T10:27:00Z</time>
      </trkpt>
      <trkpt lat="36.5100970" lon="-5.3346280">
        <ele>513.3</ele>
        <time>2019-08-28T10:27:01Z</time>
      </trkpt>
      <trkpt lat="36.5099930" lon="-5.3346480">
        <ele>512.2</ele>
        <time>2019-08-28T10:27:02Z</time>
      </trkpt>
      <trkpt lat="36.5098890" lon="-5.3346470">
        <ele>511.0</ele>
        <time>2019-08-28T10:27:03Z</time>
      </trkpt>
      <trkpt lat="36.5097850" lon="-5.3346200">
        <ele>509.7</ele>
        <time>2019-08-28T10:27:04Z</time>
      </trkpt>
      <trkpt lat="36.5096850" lon="-5.3345670">
        <ele>508.6</ele>
        <time>2019-08-28T10:27:05Z</time>
      </trkpt>
      <trkpt lat="36.5095900" lon="-5.3344880">
        <ele>507.6</ele>
        <time>2019-08-28T10:27:06Z</time>
      </trkpt>
      <trkpt lat="36.5094990" lon="-5.3343820">
        <ele>506.2</ele>
        <time>2019-08-28T10:27:07Z</time>
      </trkpt>
      <trkpt lat="36.5094080" lon="-5.3342590">
        <ele>504.7</ele>
        <time>2019-08-28T10:27:08Z</time>
      </trkpt>
      <trkpt lat="36.5093150" lon="-5.3341260">
        <ele>502.9</ele>
        <time>2019-08-28T10:27:09Z</time>
      </trkpt>
      <trkpt lat="36.5092220" lon="-5.3339940">
        <ele>501.3</ele>
        <time>2019-08-28T10:27:10Z</time>
      </trkpt>
      <trkpt lat="36.5091290" lon="-5.3338680">
        <ele>500.1</ele>
        <time>2019-08-28T10:27:11Z</time>
      </trkpt>
      <trkpt lat="36.5090410" lon="-5.3337480">
        <ele>499.3</ele>
        <time>2019-08-28T10:27:12Z</time>
      </trkpt>
      <trkpt lat="36.5089610" lon="-5.3336370">
        <ele>498.7</ele>
        <time>2019-08-28T10:27:13Z</time>
      </trkpt>
      <trkpt lat="36.5088900" lon="-5.3335320">
        <ele>497.7</ele>
        <time>2019-08-28T10:27:14Z</time>
      </trkpt>
      <trkpt lat="36.5088280" lon="-5.3334350">
        <ele>496.2</ele>
        <time>2019-08-28T10:27:15Z</time>
      </trkpt>
      <trkpt lat="36.5087780" lon="-5.3333400">
        <ele>494.5</ele>
        <time>2019-08-28T10:27:16Z</time>
      </trkpt>
      <trkpt lat="36.5087420" lon="-5.3332430">
        <ele>492.9</ele>
        <time>2019-08-28T10:27:17Z</time>
      </trkpt>
      <trkpt lat="36.5087190" lon="-5.3331390">
        <ele>492.2</ele>
        <time>2019-08-28T10:27:18Z</time>
      </trkpt>
      <trkpt lat="36.5087140" lon="-5.3330300">
        <ele>491.3</ele>
        <time>2019-08-28T10:27:19Z</time>
      </trkpt>
      <trkpt lat="36.5087380" lon="-5.3329300">
        <ele>490.5</ele>
        <time>2019-08-28T10:27:20Z</time>
      </trkpt>
      <trkpt lat="36.5087920" lon="-5.3328530">
        <ele>489.9</ele>
        <time>2019-08-28T10:27:21Z</time>
      </trkpt>
      <trkpt lat="36.5088690" lon="-5.3328010">
        <ele>489.3</ele>
        <time>2019-08-28T10:27:22Z</time>
      </trkpt>
      <trkpt lat="36.5089610" lon="-5.3327660">
        <ele>488.6</ele>
        <time>2019-08-28T10:27:23Z</time>
      </trkpt>
      <trkpt lat="36.5090670" lon="-5.3327360">
        <ele>487.8</ele>
        <time>2019-08-28T10:27:24Z</time>
      </trkpt>
      <trkpt lat="36.5091780" lon="-5.3326990">
        <ele>486.7</ele>
        <time>2019-08-28T10:27:25Z</time>
      </trkpt>
      <trkpt lat="36.5092790" lon="-5.3326460">
        <ele>485.5</ele>
        <time>2019-08-28T10:27:26Z</time>
      </trkpt>
      <trkpt lat="36.5093570" lon="-5.3325670">
        <ele>484.4</ele>
        <time>2019-08-28T10:27:27Z</time>
      </trkpt>
      <trkpt lat="36.5094130" lon="-5.3324620">
        <ele>483.5</ele>
        <time>2019-08-28T10:27:28Z</time>
      </trkpt>
      <trkpt lat="36.5094440" lon="-5.3323400">
        <ele>482.7</ele>
        <time>2019-08-28T10:27:29Z</time>
      </trkpt>
      <trkpt lat="36.5094550" lon="-5.3322100">
        <ele>482.0</ele>
        <time>2019-08-28T10:27:30Z</time>
      </trkpt>
      <trkpt lat="36.5094510" lon="-5.3320760">
        <ele>481.5</ele>
        <time>2019-08-28T10:27:31Z</time>
      </trkpt>
      <trkpt lat="36.5094400" lon="-5.3319370">
        <ele>480.7</ele>
        <time>2019-08-28T10:27:32Z</time>
      </trkpt>
      <trkpt lat="36.5094300" lon="-5.3317940">
        <ele>479.6</ele>
        <time>2019-08-28T10:27:33Z</time>
      </trkpt>
      <trkpt lat="36.5094210" lon="-5.3316480">
        <ele>478.6</ele>
        <time>2019-08-28T10:27:34Z</time>
      </trkpt>
      <trkpt lat="36.5094120" lon="-5.3314990">
        <ele>477.9</ele>
        <time>2019-08-28T10:27:35Z</time>
      </trkpt>
      <trkpt lat="36.5094010" lon="-5.3313470">
        <ele>477.3</ele>
        <time>2019-08-28T10:27:36Z</time>
      </trkpt>
      <trkpt lat="36.5093910" lon="-5.3311930">
        <ele>476.7</ele>
        <time>2019-08-28T10:27:37Z</time>
      </trkpt>
      <trkpt lat="36.5093810" lon="-5.3310370">
        <ele>476.2</ele>
        <time>2019-08-28T10:27:38Z</time>
      </trkpt>
      <trkpt lat="36.5093710" lon="-5.3308810">
        <ele>475.4</ele>
        <time>2019-08-28T10:27:39Z</time>
      </trkpt>
      <trkpt lat="36.5093600" lon="-5.3307290">
        <ele>474.1</ele>
        <time>2019-08-28T10:27:40Z</time>
      </trkpt>
      <trkpt lat="36.5093470" lon="-5.3305840">
        <ele>473.0</ele>
        <time>2019-08-28T10:27:41Z</time>
      </trkpt>
      <trkpt lat="36.5093290" lon="-5.3304490">
        <ele>472.2</ele>
        <time>2019-08-28T10:27:42Z</time>
      </trkpt>
      <trkpt lat="36.5092960" lon="-5.3303220">
        <ele>471.6</ele>
        <time>2019-08-28T10:27:43Z</time>
      </trkpt>
      <trkpt lat="36.5092440" lon="-5.3302070">
        <ele>471.0</ele>
        <time>2019-08-28T10:27:44Z</time>
      </trkpt>
      <trkpt lat="36.5091740" lon="-5.3301030">
        <ele>470.2</ele>
        <time>2019-08-28T10:27:45Z</time>
      </trkpt>
      <trkpt lat="36.5090910" lon="-5.3300150">
        <ele>469.3</ele>
        <time>2019-08-28T10:27:46Z</time>
      </trkpt>
      <trkpt lat="36.5089990" lon="-5.3299380">
        <ele>467.9</ele>
        <time>2019-08-28T10:27:47Z</time>
      </trkpt>
      <trkpt lat="36.5089000" lon="-5.3298730">
        <ele>466.5</ele>
        <time>2019-08-28T10:27:48Z</time>
      </trkpt>
      <trkpt lat="36.5087990" lon="-5.3298140">
        <ele>465.2</ele>
        <time>2019-08-28T10:27:49Z</time>
      </trkpt>
      <trkpt lat="36.5086980" lon="-5.3297650">
        <ele>463.9</ele>
        <time>2019-08-28T10:27:50Z</time>
      </trkpt>
      <trkpt lat="36.5085980" lon="-5.3297270">
        <ele>462.6</ele>
        <time>2019-08-28T10:27:51Z</time>
      </trkpt>
      <trkpt lat="36.5085010" lon="-5.3296990">
        <ele>461.6</ele>
        <time>2019-08-28T10:27:52Z</time>
      </trkpt>
      <trkpt lat="36.5084060" lon="-5.3296870">
        <ele>460.8</ele>
        <time>2019-08-28T10:27:53Z</time>
      </trkpt>
      <trkpt lat="36.5083160" lon="-5.3296960">
        <ele>460.0</ele>
        <time>2019-08-28T10:27:54Z</time>
      </trkpt>
      <trkpt lat="36.5082300" lon="-5.3297360">
        <ele>459.4</ele>
        <time>2019-08-28T10:27:55Z</time>
      </trkpt>
      <trkpt lat="36.5081510" lon="-5.3298050">
        <ele>459.1</ele>
        <time>2019-08-28T10:27:56Z</time>
      </trkpt>
      <trkpt lat="36.5080750" lon="-5.3298940">
        <ele>458.4</ele>
        <time>2019-08-28T10:27:57Z</time>
      </trkpt>
      <trkpt lat="36.5080030" lon="-5.3299920">
        <ele>457.7</ele>
        <time>2019-08-28T10:27:58Z</time>
      </trkpt>
      <trkpt lat="36.5079320" lon="-5.3300910">
        <ele>457.1</ele>
        <time>2019-08-28T10:27:59Z</time>
      </trkpt>
      <trkpt lat="36.5078630" lon="-5.3301820">
        <ele>456.3</ele>
        <time>2019-08-28T10:28:00Z</time>
      </trkpt>
      <trkpt lat="36.5077850" lon="-5.3302540">
        <ele>455.6</ele>
        <time>2019-08-28T10:28:01Z</time>
      </trkpt>
      <trkpt lat="36.5076960" lon="-5.3303010">
        <ele>454.9</ele>
        <time>2019-08-28T10:28:02Z</time>
      </trkpt>
      <trkpt lat="36.5075960" lon="-5.3303180">
        <ele>454.2</ele>
        <time>2019-08-28T10:28:03Z</time>
      </trkpt>
      <trkpt lat="36.5074940" lon="-5.3303040">
        <ele>453.2</ele>
        <time>2019-08-28T10:28:04Z</time>
      </trkpt>
      <trkpt lat="36.5073960" lon="-5.3302580">
        <ele>452.0</ele>
        <time>2019-08-28T10:28:05Z</time>
      </trkpt>
      <trkpt lat="36.5073100" lon="-5.3301900">
        <ele>450.8</ele>
        <time>2019-08-28T10:28:06Z</time>
      </trkpt>
      <trkpt lat="36.5072410" lon="-5.3301000">
        <ele>449.5</ele>
        <time>2019-08-28T10:28:07Z</time>
      </trkpt>
      <trkpt lat="36.5071890" lon="-5.3299880">
        <ele>448.2</ele>
        <time>2019-08-28T10:28:08Z</time>
      </trkpt>
      <trkpt lat="36.5071540" lon="-5.3298580">
        <ele>446.8</ele>
        <time>2019-08-28T10:28:09Z</time>
      </trkpt>
      <trkpt lat="36.5071260" lon="-5.3297170">
        <ele>445.3</ele>
        <time>2019-08-28T10:28:10Z</time>
      </trkpt>
      <trkpt lat="36.5070950" lon="-5.3295750">
        <ele>444.0</ele>
        <time>2019-08-28T10:28:11Z</time>
      </trkpt>
      <trkpt lat="36.5070480" lon="-5.3294390">
        <ele>442.8</ele>
        <time>2019-08-28T10:28:12Z</time>
      </trkpt>
      <trkpt lat="36.5069840" lon="-5.3293120">
        <ele>441.6</ele>
        <time>2019-08-28T10:28:13Z</time>
      </trkpt>
      <trkpt lat="36.5069050" lon="-5.3291940">
        <ele>440.4</ele>
        <time>2019-08-28T10:28:14Z</time>
      </trkpt>
      <trkpt lat="36.5068210" lon="-5.3290800">
        <ele>439.0</ele>
        <time>2019-08-28T10:28:15Z</time>
      </trkpt>
      <trkpt lat="36.5067320" lon="-5.3289680">
        <ele>437.6</ele>
        <time>2019-08-28T10:28:16Z</time>
      </trkpt>
      <trkpt lat="36.5066400" lon="-5.3288580">
        <ele>436.1</ele>
        <time>2019-08-28T10:28:17Z</time>
      </trkpt>
      <trkpt lat="36.5065430" lon="-5.3287540">
        <ele>434.7</ele>
        <time>2019-08-28T10:28:18Z</time>
      </trkpt>
      <trkpt lat="36.5064420" lon="-5.3286560">
        <ele>433.3</ele>
        <time>2019-08-28T10:28:19Z</time>
      </trkpt>
      <trkpt lat="36.5063390" lon="-5.3285650">
        <ele>432.0</ele>
        <time>2019-08-28T10:28:20Z</time>
      </trkpt>
      <trkpt lat="36.5062350" lon="-5.3284830">
        <ele>430.7</ele>
        <time>2019-08-28T10:28:21Z</time>
      </trkpt>
      <trkpt lat="36.5061250" lon="-5.3284150">
        <ele>429.4</ele>
        <time>2019-08-28T10:28:22Z</time>
      </trkpt>
      <trkpt lat="36.5060050" lon="-5.3283650">
        <ele>428.0</ele>
        <time>2019-08-28T10:28:23Z</time>
      </trkpt>
      <trkpt lat="36.5058780" lon="-5.3283370">
        <ele>426.4</ele>
        <time>2019-08-28T10:28:24Z</time>
      </trkpt>
      <trkpt lat="36.5057470" lon="-5.3283280">
        <ele>424.7</ele>
        <time>2019-08-28T10:28:25Z</time>
      </trkpt>
      <trkpt lat="36.5056160" lon="-5.3283360">
        <ele>423.1</ele>
        <time>2019-08-28T10:28:26Z</time>
      </trkpt>
      <trkpt lat="36.5054870" lon="-5.3283470">
        <ele>421.7</ele>
        <time>2019-08-28T10:28:27Z</time>
      </trkpt>
      <trkpt lat="36.5053570" lon="-5.3283630">
        <ele>420.4</ele>
        <time>2019-08-28T10:28:28Z</time>
      </trkpt>
      <trkpt lat="36.5052260" lon="-5.3283790">
        <ele>419.2</ele>
        <time>2019-08-28T10:28:29Z</time>
      </trkpt>
      <trkpt lat="36.5050930" lon="-5.3283930">
        <ele>418.1</ele>
        <time>2019-08-28T10:28:30Z</time>
      </trkpt>
      <trkpt lat="36.5049600" lon="-5.3284050">
        <ele>417.0</ele>
        <time>2019-08-28T10:28:31Z</time>
      </trkpt>
      <trkpt lat="36.5048250" lon="-5.3284150">
        <ele>415.9</ele>
        <time>2019-08-28T10:28:32Z</time>
      </trkpt>
      <trkpt lat="36.5046880" lon="-5.3284230">
        <ele>414.7</ele>
        <time>2019-08-28T10:28:33Z</time>
      </trkpt>
      <trkpt lat="36.5045480" lon="-5.3284300">
        <ele>413.4</ele>
        <time>2019-08-28T10:28:34Z</time>
      </trkpt>
      <trkpt lat="36.5044060" lon="-5.3284340">
        <ele>412.1</ele>
        <time>2019-08-28T10:28:35Z</time>
      </trkpt>
      <trkpt lat="36.5042620" lon="-5.3284340">
        <ele>410.7</ele>
        <time>2019-08-28T10:28:36Z</time>
      </trkpt>
      <trkpt lat="36.5041160" lon="-5.3284320">
        <ele>409.2</ele>
        <time>2019-08-28T10:28:37Z</time>
      </trkpt>
      <trkpt lat="36.5039680" lon="-5.3284300">
        <ele>407.6</ele>
        <time>2019-08-28T10:28:38Z</time>
      </trkpt>
      <trkpt lat="36.5038210" lon="-5.3284330">
        <ele>405.8</ele>
        <time>2019-08-28T10:28:39Z</time>
      </trkpt>
      <trkpt lat="36.5036770" lon="-5.3284430">
        <ele>404.0</ele>
        <time>2019-08-28T10:28:40Z</time>
      </trkpt>
      <trkpt lat="36.5035400" lon="-5.3284650">
        <ele>402.2</ele>
        <time>2019-08-28T10:28:41Z</time>
      </trkpt>
      <trkpt lat="36.5034080" lon="-5.3284920">
        <ele>400.5</ele>
        <time>2019-08-28T10:28:42Z</time>
      </trkpt>
      <trkpt lat="36.5032810" lon="-5.3285170">
        <ele>398.8</ele>
        <time>2019-08-28T10:28:43Z</time>
      </trkpt>
      <trkpt lat="36.5031550" lon="-5.3285270">
        <ele>397.1</ele>
        <time>2019-08-28T10:28:44Z</time>
      </trkpt>
      <trkpt lat="36.5030310" lon="-5.3285190">
        <ele>395.5</ele>
        <time>2019-08-28T10:28:45Z</time>
      </trkpt>
      <trkpt lat="36.5029120" lon="-5.3284840">
        <ele>393.9</ele>
        <time>2019-08-28T10:28:46Z</time>
      </trkpt>
      <trkpt lat="36.5028010" lon="-5.3284260">
        <ele>392.5</ele>
        <time>2019-08-28T10:28:47Z</time>
      </trkpt>
      <trkpt lat="36.5026940" lon="-5.3283480">
        <ele>391.2</ele>
        <time>2019-08-28T10:28:48Z</time>
      </trkpt>
      <trkpt lat="36.5025890" lon="-5.3282590">
        <ele>389.8</ele>
        <time>2019-08-28T10:28:49Z</time>
      </trkpt>
      <trkpt lat="36.5024870" lon="-5.3281590">
        <ele>388.4</ele>
        <time>2019-08-28T10:28:50Z</time>
      </trkpt>
      <trkpt lat="36.5023890" lon="-5.3280520">
        <ele>387.1</ele>
        <time>2019-08-28T10:28:51Z</time>
      </trkpt>
      <trkpt lat="36.5022930" lon="-5.3279410">
        <ele>385.7</ele>
        <time>2019-08-28T10:28:52Z</time>
      </trkpt>
      <trkpt lat="36.5021980" lon="-5.3278270">
        <ele>384.6</ele>
        <time>2019-08-28T10:28:53Z</time>
      </trkpt>
      <trkpt lat="36.5021020" lon="-5.3277100">
        <ele>383.6</ele>
        <time>2019-08-28T10:28:54Z</time>
      </trkpt>
      <trkpt lat="36.5020060" lon="-5.3275920">
        <ele>382.7</ele>
        <time>2019-08-28T10:28:55Z</time>
      </trkpt>
      <trkpt lat="36.5019080" lon="-5.3274740">
        <ele>382.0</ele>
        <time>2019-08-28T10:28:56Z</time>
      </trkpt>
      <trkpt lat="36.5018050" lon="-5.3273620">
        <ele>381.3</ele>
        <time>2019-08-28T10:28:57Z</time>
      </trkpt>
      <trkpt lat="36.5016910" lon="-5.3272630">
        <ele>380.6</ele>
        <time>2019-08-28T10:28:58Z</time>
      </trkpt>
      <trkpt lat="36.5015680" lon="-5.3271730">
        <ele>379.7</ele>
        <time>2019-08-28T10:28:59Z</time>
      </trkpt>
      <trkpt lat="36.5014380" lon="-5.3270910">
        <ele>378.7</ele>
        <time>2019-08-28T10:29:00Z</time>
      </trkpt>
      <trkpt lat="36.5013050" lon="-5.3270110">
        <ele>377.4</ele>
        <time>2019-08-28T10:29:01Z</time>
      </trkpt>
      <trkpt lat="36.5011700" lon="-5.3269320">
        <ele>376.1</ele>
        <time>2019-08-28T10:29:02Z</time>
      </trkpt>
      <trkpt lat="36.5010340" lon="-5.3268550">
        <ele>374.6</ele>
        <time>2019-08-28T10:29:03Z</time>
      </trkpt>
      <trkpt lat="36.5008980" lon="-5.3267810">
        <ele>373.1</ele>
        <time>2019-08-28T10:29:04Z</time>
      </trkpt>
      <trkpt lat="36.5007580" lon="-5.3267140">
        <ele>371.5</ele>
        <time>2019-08-28T10:29:05Z</time>
      </trkpt>
      <trkpt lat="36.5006160" lon="-5.3266580">
        <ele>369.8</ele>
        <time>2019-08-28T10:29:06Z</time>
      </trkpt>
      <trkpt lat="36.5004710" lon="-5.3266080">
        <ele>368.1</ele>
        <time>2019-08-28T10:29:07Z</time>
      </trkpt>
      <trkpt lat="36.5003260" lon="-5.3265610">
        <ele>366.5</ele>
        <time>2019-08-28T10:29:08Z</time>
      </trkpt>
      <trkpt lat="36.5001820" lon="-5.3265120">
        <ele>364.7</ele>
        <time>2019-08-28T10:29:09Z</time>
      </trkpt>
      <trkpt lat="36.5000390" lon="-5.3264640">
        <ele>363.0</ele>
        <time>2019-08-28T10:29:10Z</time>
      </trkpt>
      <trkpt lat="36.4998950" lon="-5.3264150">
        <ele>361.3</ele>
        <time>2019-08-28T10:29:11Z</time>
      </trkpt>
      <trkpt lat="36.4997510" lon="-5.3263670">
        <ele>359.7</ele>
        <time>2019-08-28T10:29:12Z</time>
      </trkpt>
      <trkpt lat="36.4996070" lon="-5.3263220">
        <ele>358.1</ele>
        <time>2019-08-28T10:29:13Z</time>
      </trkpt>
      <trkpt lat="36.4994650" lon="-5.3262780">
        <ele>356.6</ele>
        <time>2019-08-28T10:29:14Z</time>
      </trkpt>
      <trkpt lat="36.4993250" lon="-5.3262370">
        <ele>355.3</ele>
        <time>2019-08-28T10:29:15Z</time>
      </trkpt>
      <trkpt lat="36.4991890" lon="-5.3261970">
        <ele>354.0</ele>
        <time>2019-08-28T10:29:16Z</time>
      </trkpt>
      <trkpt lat="36.4990560" lon="-5.3261610">
        <ele>352.8</ele>
        <time>2019-08-28T10:29:17Z</time>
      </trkpt>
      <trkpt lat="36.4989250" lon="-5.3261270">
        <ele>351.7</ele>
        <time>2019-08-28T10:29:18Z</time>
      </trkpt>
      <trkpt lat="36.4987960" lon="-5.3260950">
        <ele>350.5</ele>
        <time>2019-08-28T10:29:19Z</time>
      </trkpt>
      <trkpt lat="36.4986680" lon="-5.3260620">
        <ele>349.3</ele>
        <time>2019-08-28T10:29:20Z</time>
      </trkpt>
      <trkpt lat="36.4985400" lon="-5.3260220">
        <ele>347.9</ele>
        <time>2019-08-28T10:29:21Z</time>
      </trkpt>
      <trkpt lat="36.4984150" lon="-5.3259660">
        <ele>346.3</ele>
        <time>2019-08-28T10:29:22Z</time>
      </trkpt>
      <trkpt lat="36.4982930" lon="-5.3258950">
        <ele>344.5</ele>
        <time>2019-08-28T10:29:23Z</time>
      </trkpt>
      <trkpt lat="36.4981800" lon="-5.3258040">
        <ele>342.8</ele>
        <time>2019-08-28T10:29:24Z</time>
      </trkpt>
      <trkpt lat="36.4980790" lon="-5.3256910">
        <ele>341.1</ele>
        <time>2019-08-28T10:29:25Z</time>
      </trkpt>
      <trkpt lat="36.4979910" lon="-5.3255580">
        <ele>339.5</ele>
        <time>2019-08-28T10:29:26Z</time>
      </trkpt>
      <trkpt lat="36.4979120" lon="-5.3254140">
        <ele>338.2</ele>
        <time>2019-08-28T10:29:27Z</time>
      </trkpt>
      <trkpt lat="36.4978350" lon="-5.3252670">
        <ele>337.0</ele>
        <time>2019-08-28T10:29:28Z</time>
      </trkpt>
      <trkpt lat="36.4977600" lon="-5.3251170">
        <ele>336.0</ele>
        <time>2019-08-28T10:29:29Z</time>
      </trkpt>
      <trkpt lat="36.4976890" lon="-5.3249620">
        <ele>335.0</ele>
        <time>2019-08-28T10:29:30Z</time>
      </trkpt>
      <trkpt lat="36.4976160" lon="-5.3248080">
        <ele>334.1</ele>
        <time>2019-08-28T10:29:31Z</time>
      </trkpt>
      <trkpt lat="36.4975380" lon="-5.3246580">
        <ele>333.0</ele>
        <time>2019-08-28T10:29:32Z</time>
      </trkpt>
      <trkpt lat="36.4974520" lon="-5.3245150">
        <ele>332.0</ele>
        <time>2019-08-28T10:29:33Z</time>
      </trkpt>
      <trkpt lat="36.4973570" lon="-5.3243800">
        <ele>330.6</ele>
        <time>2019-08-28T10:29:34Z</time>
      </trkpt>
      <trkpt lat="36.4972550" lon="-5.3242540">
        <ele>329.1</ele>
        <time>2019-08-28T10:29:35Z</time>
      </trkpt>
      <trkpt lat="36.4971470" lon="-5.3241360">
        <ele>327.4</ele>
        <time>2019-08-28T10:29:36Z</time>
      </trkpt>
      <trkpt lat="36.4970360" lon="-5.3240280">
        <ele>325.8</ele>
        <time>2019-08-28T10:29:37Z</time>
      </trkpt>
      <trkpt lat="36.4969240" lon="-5.3239290">
        <ele>324.3</ele>
        <time>2019-08-28T10:29:38Z</time>
      </trkpt>
      <trkpt lat="36.4968130" lon="-5.3238400">
        <ele>322.9</ele>
        <time>2019-08-28T10:29:39Z</time>
      </trkpt>
      <trkpt lat="36.4967050" lon="-5.3237610">
        <ele>321.6</ele>
        <time>2019-08-28T10:29:40Z</time>
      </trkpt>
      <trkpt lat="36.4966050" lon="-5.3236870">
        <ele>320.6</ele>
        <time>2019-08-28T10:29:41Z</time>
      </trkpt>
      <trkpt lat="36.4965130" lon="-5.3236160">
        <ele>319.7</ele>
        <time>2019-08-28T10:29:42Z</time>
      </trkpt>
      <trkpt lat="36.4964310" lon="-5.3235440">
        <ele>318.9</ele>
        <time>2019-08-28T10:29:43Z</time>
      </trkpt>
      <trkpt lat="36.4963620" lon="-5.3234670">
        <ele>318.2</ele>
        <time>2019-08-28T10:29:44Z</time>
      </trkpt>
      <trkpt lat="36.4963100" lon="-5.3233840">
        <ele>317.4</ele>
        <time>2019-08-28T10:29:45Z</time>
      </trkpt>
      <trkpt lat="36.4962760" lon="-5.3232900">
        <ele>316.6</ele>
        <time>2019-08-28T10:29:46Z</time>
      </trkpt>
      <trkpt lat="36.4962580" lon="-5.3231860">
        <ele>315.7</ele>
        <time>2019-08-28T10:29:47Z</time>
      </trkpt>
      <trkpt lat="36.4962640" lon="-5.3230850">
        <ele>314.8</ele>
        <time>2019-08-28T10:29:48Z</time>
      </trkpt>
      <trkpt lat="36.4962970" lon="-5.3230040">
        <ele>314.0</ele>
        <time>2019-08-28T10:29:49Z</time>
      </trkpt>
      <trkpt lat="36.4963520" lon="-5.3229510">
        <ele>313.4</ele>
        <time>2019-08-28T10:29:50Z</time>
      </trkpt>
      <trkpt lat="36.4964400" lon="-5.3229260">
        <ele>312.6</ele>
        <time>2019-08-28T10:29:51Z</time>
      </trkpt>
      <trkpt lat="36.4965480" lon="-5.3229090">
        <ele>311.8</ele>
        <time>2019-08-28T10:29:52Z</time>
      </trkpt>
      <trkpt lat="36.4966710" lon="-5.3228840">
        <ele>311.1</ele>
        <time>2019-08-28T10:29:53Z</time>
      </trkpt>
      <trkpt lat="36.4967810" lon="-5.3228350">
        <ele>310.3</ele>
        <time>2019-08-28T10:29:54Z</time>
      </trkpt>
      <trkpt lat="36.4968840" lon="-5.3227650">
        <ele>309.6</ele>
        <time>2019-08-28T10:29:55Z</time>
      </trkpt>
      <trkpt lat="36.4969800" lon="-5.3226810">
        <ele>309.0</ele>
        <time>2019-08-28T10:29:56Z</time>
      </trkpt>
      <trkpt lat="36.4970680" lon="-5.3225850">
        <ele>308.4</ele>
        <time>2019-08-28T10:29:57Z</time>
      </trkpt>
      <trkpt lat="36.4971430" lon="-5.3224770">
        <ele>307.7</ele>
        <time>2019-08-28T10:29:58Z</time>
      </trkpt>
      <trkpt lat="36.4971950" lon="-5.3223520">
        <ele>306.8</ele>
        <time>2019-08-28T10:29:59Z</time>
      </trkpt>
      <trkpt lat="36.4972190" lon="-5.3222130">
        <ele>305.7</ele>
        <time>2019-08-28T10:30:00Z</time>
      </trkpt>
      <trkpt lat="36.4972200" lon="-5.3220690">
        <ele>304.6</ele>
        <time>2019-08-28T10:30:01Z</time>
      </trkpt>
      <trkpt lat="36.4972140" lon="-5.3219320">
        <ele>303.5</ele>
        <time>2019-08-28T10:30:02Z</time>
      </trkpt>
      <trkpt lat="36.4972000" lon="-5.3218040">
        <ele>302.3</ele>
        <time>2019-08-28T10:30:03Z</time>
      </trkpt>
      <trkpt lat="36.4971470" lon="-5.3216860">
        <ele>301.0</ele>
        <time>2019-08-28T10:30:04Z</time>
      </trkpt>
      <trkpt lat="36.4970650" lon="-5.3215800">
        <ele>299.7</ele>
        <time>2019-08-28T10:30:05Z</time>
      </trkpt>
      <trkpt lat="36.4969640" lon="-5.3214850">
        <ele>298.3</ele>
        <time>2019-08-28T10:30:06Z</time>
      </trkpt>
      <trkpt lat="36.4968750" lon="-5.3213970">
        <ele>297.2</ele>
        <time>2019-08-28T10:30:07Z</time>
      </trkpt>
      <trkpt lat="36.4967960" lon="-5.3213020">
        <ele>296.4</ele>
        <time>2019-08-28T10:30:08Z</time>
      </trkpt>
      <trkpt lat="36.4967260" lon="-5.3211920">
        <ele>295.8</ele>
        <time>2019-08-28T10:30:09Z</time>
      </trkpt>
      <trkpt lat="36.4966740" lon="-5.3210690">
        <ele>295.2</ele>
        <time>2019-08-28T10:30:10Z</time>
      </trkpt>
      <trkpt lat="36.4966370" lon="-5.3209300">
        <ele>294.8</ele>
        <time>2019-08-28T10:30:11Z</time>
      </trkpt>
      <trkpt lat="36.4966180" lon="-5.3207810">
        <ele>294.3</ele>
        <time>2019-08-28T10:30:12Z</time>
      </trkpt>
      <trkpt lat="36.4966110" lon="-5.3206250">
        <ele>293.9</ele>
        <time>2019-08-28T10:30:13Z</time>
      </trkpt>
      <trkpt lat="36.4966120" lon="-5.3204680">
        <ele>293.5</ele>
        <time>2019-08-28T10:30:14Z</time>
      </trkpt>
      <trkpt lat="36.4966200" lon="-5.3203080">
        <ele>293.0</ele>
        <time>2019-08-28T10:30:15Z</time>
      </trkpt>
      <trkpt lat="36.4966330" lon="-5.3201470">
        <ele>292.3</ele>
        <time>2019-08-28T10:30:16Z</time>
      </trkpt>
      <trkpt lat="36.4966490" lon="-5.3199850">
        <ele>291.5</ele>
        <time>2019-08-28T10:30:17Z</time>
      </trkpt>
      <trkpt lat="36.4966670" lon="-5.3198250">
        <ele>290.6</ele>
        <time>2019-08-28T10:30:18Z</time>
      </trkpt>
      <trkpt lat="36.4966870" lon="-5.3196710">
        <ele>289.6</ele>
        <time>2019-08-28T10:30:19Z</time>
      </trkpt>
      <trkpt lat="36.4967060" lon="-5.3195280">
        <ele>288.6</ele>
        <time>2019-08-28T10:30:20Z</time>
      </trkpt>
      <trkpt lat="36.4967220" lon="-5.3193950">
        <ele>287.6</ele>
        <time>2019-08-28T10:30:21Z</time>
      </trkpt>
      <trkpt lat="36.4967260" lon="-5.3192740">
        <ele>286.6</ele>
        <time>2019-08-28T10:30:22Z</time>
      </trkpt>
      <trkpt lat="36.4967140" lon="-5.3191640">
        <ele>285.6</ele>
        <time>2019-08-28T10:30:23Z</time>
      </trkpt>
      <trkpt lat="36.4966820" lon="-5.3190690">
        <ele>284.6</ele>
        <time>2019-08-28T10:30:24Z</time>
      </trkpt>
      <trkpt lat="36.4966320" lon="-5.3189950">
        <ele>283.0</ele>
        <time>2019-08-28T10:30:25Z</time>
      </trkpt>
      <trkpt lat="36.4965620" lon="-5.3189480">
        <ele>281.7</ele>
        <time>2019-08-28T10:30:26Z</time>
      </trkpt>
      <trkpt lat="36.4964800" lon="-5.3189350">
        <ele>280.4</ele>
        <time>2019-08-28T10:30:27Z</time>
      </trkpt>
      <trkpt lat="36.4963910" lon="-5.3189610">
        <ele>279.1</ele>
        <time>2019-08-28T10:30:28Z</time>
      </trkpt>
      <trkpt lat="36.4963050" lon="-5.3190220">
        <ele>277.8</ele>
        <time>2019-08-28T10:30:29Z</time>
      </trkpt>
      <trkpt lat="36.4962300" lon="-5.3191130">
        <ele>276.6</ele>
        <time>2019-08-28T10:30:30Z</time>
      </trkpt>
      <trkpt lat="36.4961710" lon="-5.3192220">
        <ele>275.3</ele>
        <time>2019-08-28T10:30:31Z</time>
      </trkpt>
      <trkpt lat="36.4961290" lon="-5.3193490">
        <ele>274.1</ele>
        <time>2019-08-28T10:30:32Z</time>
      </trkpt>
      <trkpt lat="36.4961010" lon="-5.3194850">
        <ele>273.0</ele>
        <time>2019-08-28T10:30:33Z</time>
      </trkpt>
      <trkpt lat="36.4960790" lon="-5.3196270">
        <ele>271.8</ele>
        <time>2019-08-28T10:30:34Z</time>
      </trkpt>
      <trkpt lat="36.4960610" lon="-5.3197690">
        <ele>270.6</ele>
        <time>2019-08-28T10:30:35Z</time>
      </trkpt>
      <trkpt lat="36.4960400" lon="-5.3199120">
        <ele>269.4</ele>
        <time>2019-08-28T10:30:36Z</time>
      </trkpt>
      <trkpt lat="36.4960120" lon="-5.3200510">
        <ele>268.0</ele>
        <time>2019-08-28T10:30:37Z</time>
      </trkpt>
      <trkpt lat="36.4959730" lon="-5.3201790">
        <ele>266.7</ele>
        <time>2019-08-28T10:30:38Z</time>
      </trkpt>
      <trkpt lat="36.4959180" lon="-5.3202900">
        <ele>265.2</ele>
        <time>2019-08-28T10:30:39Z</time>
      </trkpt>
      <trkpt lat="36.4958450" lon="-5.3203750">
        <ele>263.6</ele>
        <time>2019-08-28T10:30:40Z</time>
      </trkpt>
      <trkpt lat="36.4957560" lon="-5.3204280">
        <ele>262.3</ele>
        <time>2019-08-28T10:30:41Z</time>
      </trkpt>
      <trkpt lat="36.4956590" lon="-5.3204470">
        <ele>260.9</ele>
        <time>2019-08-28T10:30:42Z</time>
      </trkpt>
      <trkpt lat="36.4955590" lon="-5.3204290">
        <ele>259.8</ele>
        <time>2019-08-28T10:30:43Z</time>
      </trkpt>
      <trkpt lat="36.4954650" lon="-5.3203750">
        <ele>258.7</ele>
        <time>2019-08-28T10:30:44Z</time>
      </trkpt>
      <trkpt lat="36.4953830" lon="-5.3202880">
        <ele>257.5</ele>
        <time>2019-08-28T10:30:45Z</time>
      </trkpt>
      <trkpt lat="36.4953160" lon="-5.3201750">
        <ele>256.4</ele>
        <time>2019-08-28T10:30:46Z</time>
      </trkpt>
      <trkpt lat="36.4952640" lon="-5.3200430">
        <ele>255.2</ele>
        <time>2019-08-28T10:30:47Z</time>
      </trkpt>
      <trkpt lat="36.4952190" lon="-5.3198970">
        <ele>253.9</ele>
        <time>2019-08-28T10:30:48Z</time>
      </trkpt>
      <trkpt lat="36.4951780" lon="-5.3197430">
        <ele>252.6</ele>
        <time>2019-08-28T10:30:49Z</time>
      </trkpt>
      <trkpt lat="36.4951370" lon="-5.3195850">
        <ele>251.4</ele>
        <time>2019-08-28T10:30:50Z</time>
      </trkpt>
      <trkpt lat="36.4950970" lon="-5.3194260">
        <ele>250.3</ele>
        <time>2019-08-28T10:30:51Z</time>
      </trkpt>
      <trkpt lat="36.4950610" lon="-5.3192670">
        <ele>249.3</ele>
        <time>2019-08-28T10:30:52Z</time>
      </trkpt>
      <trkpt lat="36.4950340" lon="-5.3191060">
        <ele>248.4</ele>
        <time>2019-08-28T10:30:53Z</time>
      </trkpt>
      <trkpt lat="36.4950200" lon="-5.3189430">
        <ele>247.4</ele>
        <time>2019-08-28T10:30:54Z</time>
      </trkpt>
      <trkpt lat="36.4950200" lon="-5.3187790">
        <ele>246.4</ele>
        <time>2019-08-28T10:30:55Z</time>
      </trkpt>
      <trkpt lat="36.4950300" lon="-5.3186160">
        <ele>245.3</ele>
        <time>2019-08-28T10:30:56Z</time>
      </trkpt>
      <trkpt lat="36.4950470" lon="-5.3184540">
        <ele>245.1</ele>
        <time>2019-08-28T10:30:57Z</time>
      </trkpt>
      <trkpt lat="36.4950700" lon="-5.3182910">
        <ele>245.4</ele>
        <time>2019-08-28T10:30:58Z</time>
      </trkpt>
      <trkpt lat="36.4950950" lon="-5.3181280">
        <ele>244.7</ele>
        <time>2019-08-28T10:30:59Z</time>
      </trkpt>
      <trkpt lat="36.4951220" lon="-5.3179650">
        <ele>244.0</ele>
        <time>2019-08-28T10:31:00Z</time>
      </trkpt>
      <trkpt lat="36.4951500" lon="-5.3178040">
        <ele>243.3</ele>
        <time>2019-08-28T10:31:01Z</time>
      </trkpt>
      <trkpt lat="36.4951790" lon="-5.3176430">
        <ele>242.5</ele>
        <time>2019-08-28T10:31:02Z</time>
      </trkpt>
      <trkpt lat="36.4952070" lon="-5.3174820">
        <ele>241.6</ele>
        <time>2019-08-28T10:31:03Z</time>
      </trkpt>
      <trkpt lat="36.4952330" lon="-5.3173210">
        <ele>240.8</ele>
        <time>2019-08-28T10:31:04Z</time>
      </trkpt>
      <trkpt lat="36.4952560" lon="-5.3171560">
        <ele>239.9</ele>
        <time>2019-08-28T10:31:05Z</time>
      </trkpt>
      <trkpt lat="36.4952740" lon="-5.3169910">
        <ele>238.9</ele>
        <time>2019-08-28T10:31:06Z</time>
      </trkpt>
      <trkpt lat="36.4952890" lon="-5.3168230">
        <ele>238.0</ele>
        <time>2019-08-28T10:31:07Z</time>
      </trkpt>
      <trkpt lat="36.4952990" lon="-5.3166550">
        <ele>237.0</ele>
        <time>2019-08-28T10:31:08Z</time>
      </trkpt>
      <trkpt lat="36.4953050" lon="-5.3164860">
        <ele>236.1</ele>
        <time>2019-08-28T10:31:09Z</time>
      </trkpt>
      <trkpt lat="36.4952990" lon="-5.3163180">
        <ele>235.1</ele>
        <time>2019-08-28T10:31:10Z</time>
      </trkpt>
      <trkpt lat="36.4952720" lon="-5.3161560">
        <ele>234.1</ele>
        <time>2019-08-28T10:31:11Z</time>
      </trkpt>
      <trkpt lat="36.4952270" lon="-5.3160030">
        <ele>233.2</ele>
        <time>2019-08-28T10:31:12Z</time>
      </trkpt>
      <trkpt lat="36.4951600" lon="-5.3158640">
        <ele>232.4</ele>
        <time>2019-08-28T10:31:13Z</time>
      </trkpt>
      <trkpt lat="36.4950820" lon="-5.3157380">
        <ele>231.6</ele>
        <time>2019-08-28T10:31:14Z</time>
      </trkpt>
      <trkpt lat="36.4949950" lon="-5.3156220">
        <ele>230.8</ele>
        <time>2019-08-28T10:31:15Z</time>
      </trkpt>
      <trkpt lat="36.4949070" lon="-5.3155120">
        <ele>229.9</ele>
        <time>2019-08-28T10:31:16Z</time>
      </trkpt>
      <trkpt lat="36.4948190" lon="-5.3154020">
        <ele>229.0</ele>
        <time>2019-08-28T10:31:17Z</time>
      </trkpt>
      <trkpt lat="36.4947310" lon="-5.3152940">
        <ele>228.1</ele>
        <time>2019-08-28T10:31:18Z</time>
      </trkpt>
      <trkpt lat="36.4946480" lon="-5.3151830">
        <ele>227.1</ele>
        <time>2019-08-28T10:31:19Z</time>
      </trkpt>
      <trkpt lat="36.4945720" lon="-5.3150670">
        <ele>226.2</ele>
        <time>2019-08-28T10:31:20Z</time>
      </trkpt>
      <trkpt lat="36.4945060" lon="-5.3149430">
        <ele>225.4</ele>
        <time>2019-08-28T10:31:21Z</time>
      </trkpt>
      <trkpt lat="36.4944570" lon="-5.3148010">
        <ele>224.7</ele>
        <time>2019-08-28T10:31:22Z</time>
      </trkpt>
      <trkpt lat="36.4944380" lon="-5.3146470">
        <ele>223.9</ele>
        <time>2019-08-28T10:31:23Z</time>
      </trkpt>
      <trkpt lat="36.4944420" lon="-5.3144830">
        <ele>223.2</ele>
        <time>2019-08-28T10:31:24Z</time>
      </trkpt>
      <trkpt lat="36.4944670" lon="-5.3143230">
        <ele>222.5</ele>
        <time>2019-08-28T10:31:25Z</time>
      </trkpt>
      <trkpt lat="36.4944980" lon="-5.3141620">
        <ele>221.6</ele>
        <time>2019-08-28T10:31:26Z</time>
      </trkpt>
      <trkpt lat="36.4945430" lon="-5.3140030">
        <ele>220.6</ele>
        <time>2019-08-28T10:31:27Z</time>
      </trkpt>
      <trkpt lat="36.4945950" lon="-5.3138500">
        <ele>219.5</ele>
        <time>2019-08-28T10:31:28Z</time>
      </trkpt>
      <trkpt lat="36.4946480" lon="-5.3137020">
        <ele>218.3</ele>
        <time>2019-08-28T10:31:29Z</time>
      </trkpt>
      <trkpt lat="36.4946930" lon="-5.3135530">
        <ele>217.0</ele>
        <time>2019-08-28T10:31:30Z</time>
      </trkpt>
      <trkpt lat="36.4947190" lon="-5.3133950">
        <ele>215.8</ele>
        <time>2019-08-28T10:31:31Z</time>
      </trkpt>
      <trkpt lat="36.4947280" lon="-5.3132300">
        <ele>214.5</ele>
        <time>2019-08-28T10:31:32Z</time>
      </trkpt>
      <trkpt lat="36.4947130" lon="-5.3130620">
        <ele>213.3</ele>
        <time>2019-08-28T10:31:33Z</time>
      </trkpt>
      <trkpt lat="36.4946930" lon="-5.3128980">
        <ele>212.2</ele>
        <time>2019-08-28T10:31:34Z</time>
      </trkpt>
      <trkpt lat="36.4946750" lon="-5.3127360">
        <ele>211.2</ele>
        <time>2019-08-28T10:31:35Z</time>
      </trkpt>
      <trkpt lat="36.4946750" lon="-5.3125750">
        <ele>210.3</ele>
        <time>2019-08-28T10:31:36Z</time>
      </trkpt>
      <trkpt lat="36.4946870" lon="-5.3124120">
        <ele>209.3</ele>
        <time>2019-08-28T10:31:37Z</time>
      </trkpt>
      <trkpt lat="36.4947040" lon="-5.3122470">
        <ele>208.4</ele>
        <time>2019-08-28T10:31:38Z</time>
      </trkpt>
      <trkpt lat="36.4947250" lon="-5.3120800">
        <ele>207.4</ele>
        <time>2019-08-28T10:31:39Z</time>
      </trkpt>
      <trkpt lat="36.4947510" lon="-5.3119150">
        <ele>206.4</ele>
        <time>2019-08-28T10:31:40Z</time>
      </trkpt>
      <trkpt lat="36.4947840" lon="-5.3117540">
        <ele>205.3</ele>
        <time>2019-08-28T10:31:41Z</time>
      </trkpt>
      <trkpt lat="36.4948200" lon="-5.3116000">
        <ele>204.2</ele>
        <time>2019-08-28T10:31:42Z</time>
      </trkpt>
      <trkpt lat="36.4948540" lon="-5.3114520">
        <ele>203.1</ele>
        <time>2019-08-28T10:31:43Z</time>
      </trkpt>
      <trkpt lat="36.4948810" lon="-5.3113070">
        <ele>202.1</ele>
        <time>2019-08-28T10:31:44Z</time>
      </trkpt>
      <trkpt lat="36.4948860" lon="-5.3111590">
        <ele>201.2</ele>
        <time>2019-08-28T10:31:45Z</time>
      </trkpt>
      <trkpt lat="36.4948700" lon="-5.3110100">
        <ele>200.2</ele>
        <time>2019-08-28T10:31:46Z</time>
      </trkpt>
      <trkpt lat="36.4948340" lon="-5.3108630">
        <ele>199.2</ele>
        <time>2019-08-28T10:31:47Z</time>
      </trkpt>
      <trkpt lat="36.4947900" lon="-5.3107250">
        <ele>198.3</ele>
        <time>2019-08-28T10:31:48Z</time>
      </trkpt>
      <trkpt lat="36.4947300" lon="-5.3106090">
        <ele>197.5</ele>
        <time>2019-08-28T10:31:49Z</time>
      </trkpt>
      <trkpt lat="36.4946550" lon="-5.3105210">
        <ele>196.4</ele>
        <time>2019-08-28T10:31:50Z</time>
      </trkpt>
      <trkpt lat="36.4945690" lon="-5.3104710">
        <ele>195.6</ele>
        <time>2019-08-28T10:31:51Z</time>
      </trkpt>
      <trkpt lat="36.4944750" lon="-5.3104490">
        <ele>194.7</ele>
        <time>2019-08-28T10:31:52Z</time>
      </trkpt>
      <trkpt lat="36.4943760" lon="-5.3104690">
        <ele>193.8</ele>
        <time>2019-08-28T10:31:53Z</time>
      </trkpt>
      <trkpt lat="36.4942700" lon="-5.3105200">
        <ele>193.0</ele>
        <time>2019-08-28T10:31:54Z</time>
      </trkpt>
      <trkpt lat="36.4941700" lon="-5.3106070">
        <ele>192.2</ele>
        <time>2019-08-28T10:31:55Z</time>
      </trkpt>
      <trkpt lat="36.4940880" lon="-5.3107120">
        <ele>191.4</ele>
        <time>2019-08-28T10:31:56Z</time>
      </trkpt>
      <trkpt lat="36.4940270" lon="-5.3108390">
        <ele>190.6</ele>
        <time>2019-08-28T10:31:57Z</time>
      </trkpt>
      <trkpt lat="36.4939820" lon="-5.3109770">
        <ele>189.6</ele>
        <time>2019-08-28T10:31:58Z</time>
      </trkpt>
      <trkpt lat="36.4939360" lon="-5.3111220">
        <ele>188.6</ele>
        <time>2019-08-28T10:31:59Z</time>
      </trkpt>
      <trkpt lat="36.4938920" lon="-5.3112720">
        <ele>187.5</ele>
        <time>2019-08-28T10:32:00Z</time>
      </trkpt>
      <trkpt lat="36.4938470" lon="-5.3114240">
        <ele>186.5</ele>
        <time>2019-08-28T10:32:01Z</time>
      </trkpt>
      <trkpt lat="36.4938000" lon="-5.3115720">
        <ele>185.4</ele>
        <time>2019-08-28T10:32:02Z</time>
      </trkpt>
      <trkpt lat="36.4937500" lon="-5.3117170">
        <ele>184.5</ele>
        <time>2019-08-28T10:32:03Z</time>
      </trkpt>
      <trkpt lat="36.4936960" lon="-5.3118580">
        <ele>183.6</ele>
        <time>2019-08-28T10:32:04Z</time>
      </trkpt>
      <trkpt lat="36.4936380" lon="-5.3119950">
        <ele>182.8</ele>
        <time>2019-08-28T10:32:05Z</time>
      </trkpt>
      <trkpt lat="36.4935730" lon="-5.3121250">
        <ele>182.1</ele>
        <time>2019-08-28T10:32:06Z</time>
      </trkpt>
      <trkpt lat="36.4934970" lon="-5.3122440">
        <ele>181.3</ele>
        <time>2019-08-28T10:32:07Z</time>
      </trkpt>
      <trkpt lat="36.4934100" lon="-5.3123480">
        <ele>180.6</ele>
        <time>2019-08-28T10:32:08Z</time>
      </trkpt>
      <trkpt lat="36.4933120" lon="-5.3124360">
        <ele>179.9</ele>
        <time>2019-08-28T10:32:09Z</time>
      </trkpt>
      <trkpt lat="36.4932070" lon="-5.3125040">
        <ele>179.2</ele>
        <time>2019-08-28T10:32:10Z</time>
      </trkpt>
      <trkpt lat="36.4930960" lon="-5.3125540">
        <ele>178.5</ele>
        <time>2019-08-28T10:32:11Z</time>
      </trkpt>
      <trkpt lat="36.4929770" lon="-5.3125860">
        <ele>177.7</ele>
        <time>2019-08-28T10:32:12Z</time>
      </trkpt>
      <trkpt lat="36.4928560" lon="-5.3126050">
        <ele>176.8</ele>
        <time>2019-08-28T10:32:13Z</time>
      </trkpt>
      <trkpt lat="36.4927310" lon="-5.3126170">
        <ele>175.9</ele>
        <time>2019-08-28T10:32:14Z</time>
      </trkpt>
      <trkpt lat="36.4926030" lon="-5.3126230">
        <ele>174.9</ele>
        <time>2019-08-28T10:32:15Z</time>
      </trkpt>
      <trkpt lat="36.4924740" lon="-5.3126260">
        <ele>173.9</ele>
        <time>2019-08-28T10:32:16Z</time>
      </trkpt>
      <trkpt lat="36.4923430" lon="-5.3126270">
        <ele>172.8</ele>
        <time>2019-08-28T10:32:17Z</time>
      </trkpt>
      <trkpt lat="36.4922130" lon="-5.3126250">
        <ele>171.7</ele>
        <time>2019-08-28T10:32:18Z</time>
      </trkpt>
      <trkpt lat="36.4920850" lon="-5.3126220">
        <ele>170.4</ele>
        <time>2019-08-28T10:32:19Z</time>
      </trkpt>
      <trkpt lat="36.4919610" lon="-5.3126140">
        <ele>169.2</ele>
        <time>2019-08-28T10:32:20Z</time>
      </trkpt>
      <trkpt lat="36.4918410" lon="-5.3125970">
        <ele>168.0</ele>
        <time>2019-08-28T10:32:21Z</time>
      </trkpt>
      <trkpt lat="36.4917310" lon="-5.3125370">
        <ele>166.7</ele>
        <time>2019-08-28T10:32:22Z</time>
      </trkpt>
      <trkpt lat="36.4916320" lon="-5.3124470">
        <ele>165.6</ele>
        <time>2019-08-28T10:32:23Z</time>
      </trkpt>
      <trkpt lat="36.4915470" lon="-5.3123150">
        <ele>164.3</ele>
        <time>2019-08-28T10:32:24Z</time>
      </trkpt>
      <trkpt lat="36.4914800" lon="-5.3121750">
        <ele>163.1</ele>
        <time>2019-08-28T10:32:25Z</time>
      </trkpt>
      <trkpt lat="36.4914290" lon="-5.3120250">
        <ele>161.9</ele>
        <time>2019-08-28T10:32:26Z</time>
      </trkpt>
      <trkpt lat="36.4913960" lon="-5.3118820">
        <ele>160.7</ele>
        <time>2019-08-28T10:32:27Z</time>
      </trkpt>
      <trkpt lat="36.4913750" lon="-5.3117410">
        <ele>159.5</ele>
        <time>2019-08-28T10:32:28Z</time>
      </trkpt>
      <trkpt lat="36.4913700" lon="-5.3116000">
        <ele>158.2</ele>
        <time>2019-08-28T10:32:29Z</time>
      </trkpt>
      <trkpt lat="36.4913850" lon="-5.3114670">
        <ele>157.2</ele>
        <time>2019-08-28T10:32:30Z</time>
      </trkpt>
      <trkpt lat="36.4914260" lon="-5.3113530">
        <ele>156.2</ele>
        <time>2019-08-28T10:32:31Z</time>
      </trkpt>
      <trkpt lat="36.4914960" lon="-5.3112600">
        <ele>155.1</ele>
        <time>2019-08-28T10:32:32Z</time>
      </trkpt>
      <trkpt lat="36.4915850" lon="-5.3111780">
        <ele>154.0</ele>
        <time>2019-08-28T10:32:33Z</time>
      </trkpt>
      <trkpt lat="36.4916760" lon="-5.3110900">
        <ele>152.9</ele>
        <time>2019-08-28T10:32:34Z</time>
      </trkpt>
      <trkpt lat="36.4917500" lon="-5.3109790">
        <ele>151.9</ele>
        <time>2019-08-28T10:32:35Z</time>
      </trkpt>
      <trkpt lat="36.4917910" lon="-5.3108430">
        <ele>150.9</ele>
        <time>2019-08-28T10:32:36Z</time>
      </trkpt>
      <trkpt lat="36.4918110" lon="-5.3106950">
        <ele>149.9</ele>
        <time>2019-08-28T10:32:37Z</time>
      </trkpt>
      <trkpt lat="36.4918260" lon="-5.3105450">
        <ele>149.0</ele>
        <time>2019-08-28T10:32:38Z</time>
      </trkpt>
      <trkpt lat="36.4918610" lon="-5.3104060">
        <ele>148.1</ele>
        <time>2019-08-28T10:32:39Z</time>
      </trkpt>
      <trkpt lat="36.4919120" lon="-5.3102740">
        <ele>147.5</ele>
        <time>2019-08-28T10:32:40Z</time>
      </trkpt>
      <trkpt lat="36.4919740" lon="-5.3101480">
        <ele>147.2</ele>
        <time>2019-08-28T10:32:41Z</time>
      </trkpt>
      <trkpt lat="36.4920560" lon="-5.3100350">
        <ele>146.2</ele>
        <time>2019-08-28T10:32:42Z</time>
      </trkpt>
      <trkpt lat="36.4921430" lon="-5.3099310">
        <ele>146.0</ele>
        <time>2019-08-28T10:32:43Z</time>
      </trkpt>
      <trkpt lat="36.4922250" lon="-5.3098340">
        <ele>147.0</ele>
        <time>2019-08-28T10:32:44Z</time>
      </trkpt>
      <trkpt lat="36.4922810" lon="-5.3097330">
        <ele>146.1</ele>
        <time>2019-08-28T10:32:45Z</time>
      </trkpt>
      <trkpt lat="36.4923130" lon="-5.3096360">
        <ele>145.9</ele>
        <time>2019-08-28T10:32:46Z</time>
      </trkpt>
      <trkpt lat="36.4923060" lon="-5.3095430">
        <ele>144.8</ele>
        <time>2019-08-28T10:32:47Z</time>
      </trkpt>
      <trkpt lat="36.4922640" lon="-5.3094730">
        <ele>143.0</ele>
        <time>2019-08-28T10:32:48Z</time>
      </trkpt>
      <trkpt lat="36.4922070" lon="-5.3094320">
        <ele>141.2</ele>
        <time>2019-08-28T10:32:49Z</time>
      </trkpt>
      <trkpt lat="36.4921550" lon="-5.3094260">
        <ele>140.8</ele>
        <time>2019-08-28T10:32:50Z</time>
      </trkpt>
      <trkpt lat="36.4921020" lon="-5.3094630">
        <ele>140.4</ele>
        <time>2019-08-28T10:32:51Z</time>
      </trkpt>
      <trkpt lat="36.4920430" lon="-5.3095330">
        <ele>139.8</ele>
        <time>2019-08-28T10:32:52Z</time>
      </trkpt>
      <trkpt lat="36.4919770" lon="-5.3096300">
        <ele>139.2</ele>
        <time>2019-08-28T10:32:53Z</time>
      </trkpt>
      <trkpt lat="36.4919770" lon="-5.3096300">
        <ele>139.2</ele>
        <time>2019-08-28T10:32:54Z</time>
      </trkpt>
      <trkpt lat="36.4919770" lon="-5.3096300">
        <ele>139.2</ele>
        <time>2019-08-28T10:32:55Z</time>
      </trkpt>
      <trkpt lat="36.4919770" lon="-5.3096300">
        <ele>139.2</ele>
        <time>2019-08-28T10:32:56Z</time>
      </trkpt>
      <trkpt lat="36.4919160" lon="-5.3097290">
        <ele>138.7</ele>
        <time>2019-08-28T10:32:57Z</time>
      </trkpt>
      <trkpt lat="36.4918530" lon="-5.3098290">
        <ele>138.1</ele>
        <time>2019-08-28T10:32:58Z</time>
      </trkpt>
      <trkpt lat="36.4917880" lon="-5.3099260">
        <ele>137.6</ele>
        <time>2019-08-28T10:32:59Z</time>
      </trkpt>
      <trkpt lat="36.4917150" lon="-5.3100170">
        <ele>137.0</ele>
        <time>2019-08-28T10:33:00Z</time>
      </trkpt>
      <trkpt lat="36.4916410" lon="-5.3101010">
        <ele>136.4</ele>
        <time>2019-08-28T10:33:01Z</time>
      </trkpt>
      <trkpt lat="36.4915640" lon="-5.3101760">
        <ele>135.9</ele>
        <time>2019-08-28T10:33:02Z</time>
      </trkpt>
      <trkpt lat="36.4914880" lon="-5.3102310">
        <ele>135.3</ele>
        <time>2019-08-28T10:33:03Z</time>
      </trkpt>
      <trkpt lat="36.4914880" lon="-5.3102310">
        <ele>135.3</ele>
        <time>2019-08-28T10:33:04Z</time>
      </trkpt>
      <trkpt lat="36.4914610" lon="-5.3102400">
        <ele>135.1</ele>
        <time>2019-08-28T10:33:05Z</time>
      </trkpt>
      <trkpt lat="36.4914340" lon="-5.3102490">
        <ele>134.9</ele>
        <time>2019-08-28T10:33:06Z</time>
      </trkpt>
      <trkpt lat="36.4914070" lon="-5.3102580">
        <ele>134.7</ele>
        <time>2019-08-28T10:33:07Z</time>
      </trkpt>
      <trkpt lat="36.4913810" lon="-5.3102680">
        <ele>134.5</ele>
        <time>2019-08-28T10:33:08Z</time>
      </trkpt>
      <trkpt lat="36.4913540" lon="-5.3102770">
        <ele>134.4</ele>
        <time>2019-08-28T10:33:09Z</time>
      </trkpt>
      <trkpt lat="36.4913270" lon="-5.3102860">
        <ele>134.2</ele>
        <time>2019-08-28T10:33:10Z</time>
      </trkpt>
      <trkpt lat="36.4913000" lon="-5.3102950">
        <ele>134.0</ele>
        <time>2019-08-28T10:33:11Z</time>
      </trkpt>
      <trkpt lat="36.4912730" lon="-5.3103040">
        <ele>133.8</ele>
        <time>2019-08-28T10:33:12Z</time>
      </trkpt>
      <trkpt lat="36.4912710" lon="-5.3102900">
        <ele>133.7</ele>
        <time>2019-08-28T10:33:13Z</time>
      </trkpt>
      <trkpt lat="36.4912710" lon="-5.3102900">
        <ele>133.7</ele>
        <time>2019-08-28T10:33:14Z</time>
      </trkpt>
      <trkpt lat="36.4913380" lon="-5.3100970">
        <ele>132.8</ele>
        <time>2019-08-28T10:33:15Z</time>
      </trkpt>
      <trkpt lat="36.4914130" lon="-5.3098790">
        <ele>131.5</ele>
        <time>2019-08-28T10:33:16Z</time>
      </trkpt>
      <trkpt lat="36.4914930" lon="-5.3096600">
        <ele>130.1</ele>
        <time>2019-08-28T10:33:17Z</time>
      </trkpt>
      <trkpt lat="36.4915510" lon="-5.3094940">
        <ele>128.9</ele>
        <time>2019-08-28T10:33:18Z</time>
      </trkpt>
      <trkpt lat="36.4915770" lon="-5.3094230">
        <ele>128.4</ele>
        <time>2019-08-28T10:33:19Z</time>
      </trkpt>
      <trkpt lat="36.4916040" lon="-5.3093520">
        <ele>127.9</ele>
        <time>2019-08-28T10:33:20Z</time>
      </trkpt>
      <trkpt lat="36.4916310" lon="-5.3092810">
        <ele>127.3</ele>
        <time>2019-08-28T10:33:21Z</time>
      </trkpt>
      <trkpt lat="36.4916570" lon="-5.3092090">
        <ele>126.7</ele>
        <time>2019-08-28T10:33:22Z</time>
      </trkpt>
      <trkpt lat="36.4916840" lon="-5.3091380">
        <ele>126.0</ele>
        <time>2019-08-28T10:33:23Z</time>
      </trkpt>
      <trkpt lat="36.4917110" lon="-5.3090670">
        <ele>125.3</ele>
        <time>2019-08-28T10:33:24Z</time>
      </trkpt>
      <trkpt lat="36.4917370" lon="-5.3089960">
        <ele>124.6</ele>
        <time>2019-08-28T10:33:25Z</time>
      </trkpt>
      <trkpt lat="36.4917640" lon="-5.3089250">
        <ele>123.9</ele>
        <time>2019-08-28T10:33:26Z</time>
      </trkpt>
      <trkpt lat="36.4918470" lon="-5.3086850">
        <ele>121.1</ele>
        <time>2019-08-28T10:33:27Z</time>
      </trkpt>
      <trkpt lat="36.4920080" lon="-5.3081950">
        <ele>115.6</ele>
        <time>2019-08-28T10:33:28Z</time>
      </trkpt>
      <trkpt lat="36.4921580" lon="-5.3076860">
        <ele>109.2</ele>
        <time>2019-08-28T10:33:29Z</time>
      </trkpt>
      <trkpt lat="36.4921750" lon="-5.3075400">
        <ele>106.4</ele>
        <time>2019-08-28T10:33:30Z</time>
      </trkpt>
      <trkpt lat="36.4922060" lon="-5.3073700">
        <ele>104.1</ele>
        <time>2019-08-28T10:33:31Z</time>
      </trkpt>
      <trkpt lat="36.4922610" lon="-5.3071840">
        <ele>102.0</ele>
        <time>2019-08-28T10:33:32Z</time>
      </trkpt>
      <trkpt lat="36.4922970" lon="-5.3070040">
        <ele>100.0</ele>
        <time>2019-08-28T10:33:33Z</time>
      </trkpt>
      <trkpt lat="36.4923000" lon="-5.3068440">
        <ele>97.6</ele>
        <time>2019-08-28T10:33:34Z</time>
      </trkpt>
      <trkpt lat="36.4922620" lon="-5.3067070">
        <ele>96.3</ele>
        <time>2019-08-28T10:33:35Z</time>
      </trkpt>
      <trkpt lat="36.4922210" lon="-5.3065810">
        <ele>94.7</ele>
        <time>2019-08-28T10:33:36Z</time>
      </trkpt>
      <trkpt lat="36.4921820" lon="-5.3064650">
        <ele>91.5</ele>
        <time>2019-08-28T10:33:37Z</time>
      </trkpt>
      <trkpt lat="36.4921270" lon="-5.3062950">
        <ele>85.2</ele>
        <time>2019-08-28T10:33:38Z</time>
      </trkpt>
      <trkpt lat="36.4921110" lon="-5.3062410">
        <ele>84.0</ele>
        <time>2019-08-28T10:33:39Z</time>
      </trkpt>
      <trkpt lat="36.4920790" lon="-5.3061350">
        <ele>82.7</ele>
        <time>2019-08-28T10:33:40Z</time>
      </trkpt>
      <trkpt lat="36.4920540" lon="-5.3060280">
        <ele>82.4</ele>
        <time>2019-08-28T10:33:41Z</time>
      </trkpt>
      <trkpt lat="36.4920320" lon="-5.3059190">
        <ele>82.4</ele>
        <time>2019-08-28T10:33:42Z</time>
      </trkpt>
      <trkpt lat="36.4920240" lon="-5.3058040">
        <ele>82.4</ele>
        <time>2019-08-28T10:33:43Z</time>
      </trkpt>
      <trkpt lat="36.4920240" lon="-5.3056870">
        <ele>82.7</ele>
        <time>2019-08-28T10:33:44Z</time>
      </trkpt>
      <trkpt lat="36.4920370" lon="-5.3055650">
        <ele>83.3</ele>
        <time>2019-08-28T10:33:45Z</time>
      </trkpt>
      <trkpt lat="36.4920580" lon="-5.3054460">
        <ele>83.8</ele>
        <time>2019-08-28T10:33:46Z</time>
      </trkpt>
      <trkpt lat="36.4920890" lon="-5.3053300">
        <ele>84.6</ele>
        <time>2019-08-28T10:33:47Z</time>
      </trkpt>
      <trkpt lat="36.4921260" lon="-5.3052220">
        <ele>85.4</ele>
        <time>2019-08-28T10:33:48Z</time>
      </trkpt>
      <trkpt lat="36.4921670" lon="-5.3051230">
        <ele>86.2</ele>
        <time>2019-08-28T10:33:49Z</time>
      </trkpt>
      <trkpt lat="36.4922100" lon="-5.3050380">
        <ele>87.0</ele>
        <time>2019-08-28T10:33:50Z</time>
      </trkpt>
      <trkpt lat="36.4922540" lon="-5.3049630">
        <ele>87.7</ele>
        <time>2019-08-28T10:33:51Z</time>
      </trkpt>
      <trkpt lat="36.4922980" lon="-5.3048960">
        <ele>88.3</ele>
        <time>2019-08-28T10:33:52Z</time>
      </trkpt>
      <trkpt lat="36.4923420" lon="-5.3048370">
        <ele>88.9</ele>
        <time>2019-08-28T10:33:53Z</time>
      </trkpt>
      <trkpt lat="36.4923900" lon="-5.3047860">
        <ele>89.5</ele>
        <time>2019-08-28T10:33:54Z</time>
      </trkpt>
      <trkpt lat="36.4924380" lon="-5.3047410">
        <ele>90.1</ele>
        <time>2019-08-28T10:33:55Z</time>
      </trkpt>
      <trkpt lat="36.4924830" lon="-5.3047000">
        <ele>90.6</ele>
        <time>2019-08-28T10:33:56Z</time>
      </trkpt>
      <trkpt lat="36.4925260" lon="-5.3046610">
        <ele>91.1</ele>
        <time>2019-08-28T10:33:57Z</time>
      </trkpt>
      <trkpt lat="36.4925680" lon="-5.3046230">
        <ele>91.6</ele>
        <time>2019-08-28T10:33:58Z</time>
      </trkpt>
      <trkpt lat="36.4926100" lon="-5.3045880">
        <ele>92.0</ele>
        <time>2019-08-28T10:33:59Z</time>
      </trkpt>
      <trkpt lat="36.4926510" lon="-5.3045530">
        <ele>92.4</ele>
        <time>2019-08-28T10:34:00Z</time>
      </trkpt>
      <trkpt lat="36.4926900" lon="-5.3045190">
        <ele>92.8</ele>
        <time>2019-08-28T10:34:01Z</time>
      </trkpt>
      <trkpt lat="36.4927280" lon="-5.3044860">
        <ele>93.2</ele>
        <time>2019-08-28T10:34:02Z</time>
      </trkpt>
      <trkpt lat="36.4927660" lon="-5.3044530">
        <ele>93.6</ele>
        <time>2019-08-28T10:34:03Z</time>
      </trkpt>
      <trkpt lat="36.4928020" lon="-5.3044220">
        <ele>94.0</ele>
        <time>2019-08-28T10:34:04Z</time>
      </trkpt>
      <trkpt lat="36.4928380" lon="-5.3043920">
        <ele>94.4</ele>
        <time>2019-08-28T10:34:05Z</time>
      </trkpt>
      <trkpt lat="36.4928740" lon="-5.3043620">
        <ele>94.7</ele>
        <time>2019-08-28T10:34:06Z</time>
      </trkpt>
      <trkpt lat="36.4929090" lon="-5.3043330">
        <ele>95.1</ele>
        <time>2019-08-28T10:34:07Z</time>
      </trkpt>
      <trkpt lat="36.4929440" lon="-5.3043030">
        <ele>95.4</ele>
        <time>2019-08-28T10:34:08Z</time>
      </trkpt>
      <trkpt lat="36.4929770" lon="-5.3042730">
        <ele>95.8</ele>
        <time>2019-08-28T10:34:09Z</time>
      </trkpt>
      <trkpt lat="36.4930100" lon="-5.3042450">
        <ele>96.1</ele>
        <time>2019-08-28T10:34:10Z</time>
      </trkpt>
      <trkpt lat="36.4930410" lon="-5.3042160">
        <ele>96.4</ele>
        <time>2019-08-28T10:34:11Z</time>
      </trkpt>
      <trkpt lat="36.4930730" lon="-5.3041890">
        <ele>96.7</ele>
        <time>2019-08-28T10:34:12Z</time>
      </trkpt>
      <trkpt lat="36.4931030" lon="-5.3041620">
        <ele>97.0</ele>
        <time>2019-08-28T10:34:13Z</time>
      </trkpt>
      <trkpt lat="36.4931320" lon="-5.3041360">
        <ele>97.3</ele>
        <time>2019-08-28T10:34:14Z</time>
      </trkpt>
      <trkpt lat="36.4931620" lon="-5.3041110">
        <ele>97.6</ele>
        <time>2019-08-28T10:34:15Z</time>
      </trkpt>
      <trkpt lat="36.4931920" lon="-5.3040860">
        <ele>97.9</ele>
        <time>2019-08-28T10:34:16Z</time>
      </trkpt>
      <trkpt lat="36.4932220" lon="-5.3040610">
        <ele>98.2</ele>
        <time>2019-08-28T10:34:17Z</time>
      </trkpt>
      <trkpt lat="36.4932520" lon="-5.3040370">
        <ele>98.4</ele>
        <time>2019-08-28T10:34:18Z</time>
      </trkpt>
      <trkpt lat="36.4932810" lon="-5.3040120">
        <ele>98.7</ele>
        <time>2019-08-28T10:34:19Z</time>
      </trkpt>
      <trkpt lat="36.4933090" lon="-5.3039870">
        <ele>99.0</ele>
        <time>2019-08-28T10:34:20Z</time>
      </trkpt>
      <trkpt lat="36.4933370" lon="-5.3039620">
        <ele>99.2</ele>
        <time>2019-08-28T10:34:21Z</time>
      </trkpt>
      <trkpt lat="36.4933650" lon="-5.3039380">
        <ele>99.5</ele>
        <time>2019-08-28T10:34:22Z</time>
      </trkpt>
      <trkpt lat="36.4933920" lon="-5.3039130">
        <ele>99.7</ele>
        <time>2019-08-28T10:34:23Z</time>
      </trkpt>
      <trkpt lat="36.4934190" lon="-5.3038890">
        <ele>99.9</ele>
        <time>2019-08-28T10:34:24Z</time>
      </trkpt>
      <trkpt lat="36.4934460" lon="-5.3038650">
        <ele>100.2</ele>
        <time>2019-08-28T10:34:25Z</time>
      </trkpt>
      <trkpt lat="36.4934740" lon="-5.3038410">
        <ele>100.4</ele>
        <time>2019-08-28T10:34:26Z</time>
      </trkpt>
      <trkpt lat="36.4935010" lon="-5.3038170">
        <ele>100.6</ele>
        <time>2019-08-28T10:34:27Z</time>
      </trkpt>
      <trkpt lat="36.4935280" lon="-5.3037930">
        <ele>100.8</ele>
        <time>2019-08-28T10:34:28Z</time>
      </trkpt>
      <trkpt lat="36.4935550" lon="-5.3037680">
        <ele>100.9</ele>
        <time>2019-08-28T10:34:29Z</time>
      </trkpt>
      <trkpt lat="36.4935830" lon="-5.3037440">
        <ele>101.1</ele>
        <time>2019-08-28T10:34:30Z</time>
      </trkpt>
      <trkpt lat="36.4936100" lon="-5.3037190">
        <ele>101.3</ele>
        <time>2019-08-28T10:34:31Z</time>
      </trkpt>
      <trkpt lat="36.4936370" lon="-5.3036950">
        <ele>101.4</ele>
        <time>2019-08-28T10:34:32Z</time>
      </trkpt>
      <trkpt lat="36.4936640" lon="-5.3036720">
        <ele>101.6</ele>
        <time>2019-08-28T10:34:33Z</time>
      </trkpt>
      <trkpt lat="36.4936900" lon="-5.3036480">
        <ele>101.7</ele>
        <time>2019-08-28T10:34:34Z</time>
      </trkpt>
      <trkpt lat="36.4937170" lon="-5.3036240">
        <ele>101.8</ele>
        <time>2019-08-28T10:34:35Z</time>
      </trkpt>
      <trkpt lat="36.4937440" lon="-5.3036000">
        <ele>101.9</ele>
        <time>2019-08-28T10:34:36Z</time>
      </trkpt>
      <trkpt lat="36.4937710" lon="-5.3035760">
        <ele>102.0</ele>
        <time>2019-08-28T10:34:37Z</time>
      </trkpt>
      <trkpt lat="36.4937980" lon="-5.3035520">
        <ele>102.1</ele>
        <time>2019-08-28T10:34:38Z</time>
      </trkpt>
      <trkpt lat="36.4938250" lon="-5.3035270">
        <ele>102.2</ele>
        <time>2019-08-28T10:34:39Z</time>
      </trkpt>
      <trkpt lat="36.4938530" lon="-5.3035030">
        <ele>102.3</ele>
        <time>2019-08-28T10:34:40Z</time>
      </trkpt>
      <trkpt lat="36.4938820" lon="-5.3034790">
        <ele>102.4</ele>
        <time>2019-08-28T10:34:41Z</time>
      </trkpt>
      <trkpt lat="36.4939100" lon="-5.3034530">
        <ele>102.4</ele>
        <time>2019-08-28T10:34:42Z</time>
      </trkpt>
      <trkpt lat="36.4939390" lon="-5.3034270">
        <ele>102.5</ele>
        <time>2019-08-28T10:34:43Z</time>
      </trkpt>
      <trkpt lat="36.4939680" lon="-5.3034000">
        <ele>102.6</ele>
        <time>2019-08-28T10:34:44Z</time>
      </trkpt>
      <trkpt lat="36.4939970" lon="-5.3033730">
        <ele>102.7</ele>
        <time>2019-08-28T10:34:45Z</time>
      </trkpt>
      <trkpt lat="36.4940260" lon="-5.3033470">
        <ele>102.7</ele>
        <time>2019-08-28T10:34:46Z</time>
      </trkpt>
      <trkpt lat="36.4940530" lon="-5.3033220">
        <ele>102.8</ele>
        <time>2019-08-28T10:34:47Z</time>
      </trkpt>
      <trkpt lat="36.4940800" lon="-5.3032970">
        <ele>102.8</ele>
        <time>2019-08-28T10:34:48Z</time>
      </trkpt>
      <trkpt lat="36.4941070" lon="-5.3032720">
        <ele>102.9</ele>
        <time>2019-08-28T10:34:49Z</time>
      </trkpt>
      <trkpt lat="36.4941340" lon="-5.3032470">
        <ele>102.9</ele>
        <time>2019-08-28T10:34:50Z</time>
      </trkpt>
      <trkpt lat="36.4941600" lon="-5.3032230">
        <ele>103.0</ele>
        <time>2019-08-28T10:34:51Z</time>
      </trkpt>
      <trkpt lat="36.4941860" lon="-5.3031980">
        <ele>103.0</ele>
        <time>2019-08-28T10:34:52Z</time>
      </trkpt>
      <trkpt lat="36.4942110" lon="-5.3031730">
        <ele>103.1</ele>
        <time>2019-08-28T10:34:53Z</time>
      </trkpt>
      <trkpt lat="36.4942380" lon="-5.3031480">
        <ele>103.1</ele>
        <time>2019-08-28T10:34:54Z</time>
      </trkpt>
      <trkpt lat="36.4942640" lon="-5.3031220">
        <ele>103.2</ele>
        <time>2019-08-28T10:34:55Z</time>
      </trkpt>
      <trkpt lat="36.4942900" lon="-5.3030950">
        <ele>103.3</ele>
        <time>2019-08-28T10:34:56Z</time>
      </trkpt>
      <trkpt lat="36.4943160" lon="-5.3030680">
        <ele>103.3</ele>
        <time>2019-08-28T10:34:57Z</time>
      </trkpt>
      <trkpt lat="36.4943430" lon="-5.3030420">
        <ele>103.4</ele>
        <time>2019-08-28T10:34:58Z</time>
      </trkpt>
      <trkpt lat="36.4943710" lon="-5.3030150">
        <ele>103.5</ele>
        <time>2019-08-28T10:34:59Z</time>
      </trkpt>
      <trkpt lat="36.4944000" lon="-5.3029890">
        <ele>103.5</ele>
        <time>2019-08-28T10:35:00Z</time>
      </trkpt>
      <trkpt lat="36.4944280" lon="-5.3029620">
        <ele>103.6</ele>
        <time>2019-08-28T10:35:01Z</time>
      </trkpt>
      <trkpt lat="36.4944560" lon="-5.3029330">
        <ele>103.7</ele>
        <time>2019-08-28T10:35:02Z</time>
      </trkpt>
      <trkpt lat="36.4944830" lon="-5.3029050">
        <ele>103.8</ele>
        <time>2019-08-28T10:35:03Z</time>
      </trkpt>
      <trkpt lat="36.4945100" lon="-5.3028760">
        <ele>103.9</ele>
        <time>2019-08-28T10:35:04Z</time>
      </trkpt>
      <trkpt lat="36.4945380" lon="-5.3028460">
        <ele>104.0</ele>
        <time>2019-08-28T10:35:05Z</time>
      </trkpt>
      <trkpt lat="36.4945660" lon="-5.3028160">
        <ele>104.1</ele>
        <time>2019-08-28T10:35:06Z</time>
      </trkpt>
      <trkpt lat="36.4945950" lon="-5.3027860">
        <ele>104.2</ele>
        <time>2019-08-28T10:35:07Z</time>
      </trkpt>
      <trkpt lat="36.4946240" lon="-5.3027560">
        <ele>104.3</ele>
        <time>2019-08-28T10:35:08Z</time>
      </trkpt>
      <trkpt lat="36.4946520" lon="-5.3027250">
        <ele>104.4</ele>
        <time>2019-08-28T10:35:09Z</time>
      </trkpt>
      <trkpt lat="36.4946800" lon="-5.3026940">
        <ele>104.5</ele>
        <time>2019-08-28T10:35:10Z</time>
      </trkpt>
      <trkpt lat="36.4947080" lon="-5.3026630">
        <ele>104.6</ele>
        <time>2019-08-28T10:35:11Z</time>
      </trkpt>
      <trkpt lat="36.4947370" lon="-5.3026320">
        <ele>104.8</ele>
        <time>2019-08-28T10:35:12Z</time>
      </trkpt>
      <trkpt lat="36.4947660" lon="-5.3025990">
        <ele>104.9</ele>
        <time>2019-08-28T10:35:13Z</time>
      </trkpt>
      <trkpt lat="36.4947950" lon="-5.3025660">
        <ele>105.1</ele>
        <time>2019-08-28T10:35:14Z</time>
      </trkpt>
      <trkpt lat="36.4948250" lon="-5.3025320">
        <ele>105.2</ele>
        <time>2019-08-28T10:35:15Z</time>
      </trkpt>
      <trkpt lat="36.4948540" lon="-5.3024980">
        <ele>105.4</ele>
        <time>2019-08-28T10:35:16Z</time>
      </trkpt>
      <trkpt lat="36.4948840" lon="-5.3024640">
        <ele>105.6</ele>
        <time>2019-08-28T10:35:17Z</time>
      </trkpt>
      <trkpt lat="36.4949140" lon="-5.3024290">
        <ele>105.8</ele>
        <time>2019-08-28T10:35:18Z</time>
      </trkpt>
      <trkpt lat="36.4949450" lon="-5.3023940">
        <ele>106.0</ele>
        <time>2019-08-28T10:35:19Z</time>
      </trkpt>
      <trkpt lat="36.4949750" lon="-5.3023590">
        <ele>106.2</ele>
        <time>2019-08-28T10:35:20Z</time>
      </trkpt>
      <trkpt lat="36.4950060" lon="-5.3023230">
        <ele>106.4</ele>
        <time>2019-08-28T10:35:21Z</time>
      </trkpt>
      <trkpt lat="36.4950370" lon="-5.3022870">
        <ele>106.7</ele>
        <time>2019-08-28T10:35:22Z</time>
      </trkpt>
      <trkpt lat="36.4950680" lon="-5.3022500">
        <ele>107.0</ele>
        <time>2019-08-28T10:35:23Z</time>
      </trkpt>
      <trkpt lat="36.4951000" lon="-5.3022140">
        <ele>107.3</ele>
        <time>2019-08-28T10:35:24Z</time>
      </trkpt>
      <trkpt lat="36.4951320" lon="-5.3021770">
        <ele>107.6</ele>
        <time>2019-08-28T10:35:25Z</time>
      </trkpt>
      <trkpt lat="36.4951650" lon="-5.3021400">
        <ele>107.9</ele>
        <time>2019-08-28T10:35:26Z</time>
      </trkpt>
      <trkpt lat="36.4951980" lon="-5.3021030">
        <ele>108.3</ele>
        <time>2019-08-28T10:35:27Z</time>
      </trkpt>
      <trkpt lat="36.4952310" lon="-5.3020660">
        <ele>108.6</ele>
        <time>2019-08-28T10:35:28Z</time>
      </trkpt>
      <trkpt lat="36.4952640" lon="-5.3020280">
        <ele>109.0</ele>
        <time>2019-08-28T10:35:29Z</time>
      </trkpt>
      <trkpt lat="36.4952970" lon="-5.3019910">
        <ele>109.3</ele>
        <time>2019-08-28T10:35:30Z</time>
      </trkpt>
      <trkpt lat="36.4953300" lon="-5.3019540">
        <ele>109.7</ele>
        <time>2019-08-28T10:35:31Z</time>
      </trkpt>
      <trkpt lat="36.4953630" lon="-5.3019170">
        <ele>110.0</ele>
        <time>2019-08-28T10:35:32Z</time>
      </trkpt>
      <trkpt lat="36.4953960" lon="-5.3018810">
        <ele>110.4</ele>
        <time>2019-08-28T10:35:33Z</time>
      </trkpt>
      <trkpt lat="36.4954300" lon="-5.3018460">
        <ele>110.7</ele>
        <time>2019-08-28T10:35:34Z</time>
      </trkpt>
      <trkpt lat="36.4954630" lon="-5.3018100">
        <ele>111.1</ele>
        <time>2019-08-28T10:35:35Z</time>
      </trkpt>
      <trkpt lat="36.4954970" lon="-5.3017750">
        <ele>111.4</ele>
        <time>2019-08-28T10:35:36Z</time>
      </trkpt>
      <trkpt lat="36.4955300" lon="-5.3017410">
        <ele>111.7</ele>
        <time>2019-08-28T10:35:37Z</time>
      </trkpt>
      <trkpt lat="36.4955630" lon="-5.3017070">
        <ele>112.0</ele>
        <time>2019-08-28T10:35:38Z</time>
      </trkpt>
      <trkpt lat="36.4955950" lon="-5.3016730">
        <ele>112.3</ele>
        <time>2019-08-28T10:35:39Z</time>
      </trkpt>
      <trkpt lat="36.4956270" lon="-5.3016400">
        <ele>112.6</ele>
        <time>2019-08-28T10:35:40Z</time>
      </trkpt>
      <trkpt lat="36.4956590" lon="-5.3016060">
        <ele>112.8</ele>
        <time>2019-08-28T10:35:41Z</time>
      </trkpt>
      <trkpt lat="36.4956920" lon="-5.3015730">
        <ele>113.1</ele>
        <time>2019-08-28T10:35:42Z</time>
      </trkpt>
      <trkpt lat="36.4957230" lon="-5.3015380">
        <ele>113.3</ele>
        <time>2019-08-28T10:35:43Z</time>
      </trkpt>
      <trkpt lat="36.4957540" lon="-5.3015030">
        <ele>113.5</ele>
        <time>2019-08-28T10:35:44Z</time>
      </trkpt>
      <trkpt lat="36.4957850" lon="-5.3014670">
        <ele>113.7</ele>
        <time>2019-08-28T10:35:45Z</time>
      </trkpt>
      <trkpt lat="36.4958170" lon="-5.3014320">
        <ele>114.0</ele>
        <time>2019-08-28T10:35:46Z</time>
      </trkpt>
      <trkpt lat="36.4958490" lon="-5.3013970">
        <ele>114.2</ele>
        <time>2019-08-28T10:35:47Z</time>
      </trkpt>
      <trkpt lat="36.4958810" lon="-5.3013630">
        <ele>114.4</ele>
        <time>2019-08-28T10:35:48Z</time>
      </trkpt>
      <trkpt lat="36.4959130" lon="-5.3013280">
        <ele>114.6</ele>
        <time>2019-08-28T10:35:49Z</time>
      </trkpt>
      <trkpt lat="36.4959460" lon="-5.3012930">
        <ele>114.8</ele>
        <time>2019-08-28T10:35:50Z</time>
      </trkpt>
      <trkpt lat="36.4959780" lon="-5.3012570">
        <ele>115.0</ele>
        <time>2019-08-28T10:35:51Z</time>
      </trkpt>
      <trkpt lat="36.4960100" lon="-5.3012210">
        <ele>115.2</ele>
        <time>2019-08-28T10:35:52Z</time>
      </trkpt>
      <trkpt lat="36.4960420" lon="-5.3011850">
        <ele>115.4</ele>
        <time>2019-08-28T10:35:53Z</time>
      </trkpt>
      <trkpt lat="36.4960730" lon="-5.3011480">
        <ele>115.7</ele>
        <time>2019-08-28T10:35:54Z</time>
      </trkpt>
      <trkpt lat="36.4961040" lon="-5.3011090">
        <ele>115.9</ele>
        <time>2019-08-28T10:35:55Z</time>
      </trkpt>
      <trkpt lat="36.4961320" lon="-5.3010690">
        <ele>116.1</ele>
        <time>2019-08-28T10:35:56Z</time>
      </trkpt>
      <trkpt lat="36.4961590" lon="-5.3010270">
        <ele>116.4</ele>
        <time>2019-08-28T10:35:57Z</time>
      </trkpt>
      <trkpt lat="36.4961850" lon="-5.3009840">
        <ele>116.7</ele>
        <time>2019-08-28T10:35:58Z</time>
      </trkpt>
      <trkpt lat="36.4962100" lon="-5.3009400">
        <ele>116.9</ele>
        <time>2019-08-28T10:35:59Z</time>
      </trkpt>
      <trkpt lat="36.4962320" lon="-5.3008930">
        <ele>117.2</ele>
        <time>2019-08-28T10:36:00Z</time>
      </trkpt>
      <trkpt lat="36.4962530" lon="-5.3008460">
        <ele>117.6</ele>
        <time>2019-08-28T10:36:01Z</time>
      </trkpt>
      <trkpt lat="36.4962730" lon="-5.3007980">
        <ele>117.9</ele>
        <time>2019-08-28T10:36:02Z</time>
      </trkpt>
      <trkpt lat="36.4962930" lon="-5.3007490">
        <ele>118.3</ele>
        <time>2019-08-28T10:36:03Z</time>
      </trkpt>
      <trkpt lat="36.4963120" lon="-5.3007020">
        <ele>118.7</ele>
        <time>2019-08-28T10:36:04Z</time>
      </trkpt>
      <trkpt lat="36.4963320" lon="-5.3006550">
        <ele>119.0</ele>
        <time>2019-08-28T10:36:05Z</time>
      </trkpt>
      <trkpt lat="36.4963510" lon="-5.3006090">
        <ele>119.4</ele>
        <time>2019-08-28T10:36:06Z</time>
      </trkpt>
      <trkpt lat="36.4963700" lon="-5.3005650">
        <ele>119.7</ele>
        <time>2019-08-28T10:36:07Z</time>
      </trkpt>
      <trkpt lat="36.4963890" lon="-5.3005210">
        <ele>120.1</ele>
        <time>2019-08-28T10:36:08Z</time>
      </trkpt>
      <trkpt lat="36.4964070" lon="-5.3004770">
        <ele>120.5</ele>
        <time>2019-08-28T10:36:09Z</time>
      </trkpt>
      <trkpt lat="36.4964250" lon="-5.3004340">
        <ele>120.9</ele>
        <time>2019-08-28T10:36:10Z</time>
      </trkpt>
      <trkpt lat="36.4964430" lon="-5.3003910">
        <ele>121.3</ele>
        <time>2019-08-28T10:36:11Z</time>
      </trkpt>
      <trkpt lat="36.4964610" lon="-5.3003490">
        <ele>121.7</ele>
        <time>2019-08-28T10:36:12Z</time>
      </trkpt>
      <trkpt lat="36.4964780" lon="-5.3003070">
        <ele>122.1</ele>
        <time>2019-08-28T10:36:13Z</time>
      </trkpt>
      <trkpt lat="36.4964950" lon="-5.3002670">
        <ele>122.5</ele>
        <time>2019-08-28T10:36:14Z</time>
      </trkpt>
      <trkpt lat="36.4965120" lon="-5.3002270">
        <ele>122.8</ele>
        <time>2019-08-28T10:36:15Z</time>
      </trkpt>
      <trkpt lat="36.4965280" lon="-5.3001880">
        <ele>123.2</ele>
        <time>2019-08-28T10:36:16Z</time>
      </trkpt>
      <trkpt lat="36.4965440" lon="-5.3001480">
        <ele>123.6</ele>
        <time>2019-08-28T10:36:17Z</time>
      </trkpt>
      <trkpt lat="36.4965590" lon="-5.3001100">
        <ele>123.9</ele>
        <time>2019-08-28T10:36:18Z</time>
      </trkpt>
      <trkpt lat="36.4965750" lon="-5.3000710">
        <ele>124.3</ele>
        <time>2019-08-28T10:36:19Z</time>
      </trkpt>
      <trkpt lat="36.4965910" lon="-5.3000340">
        <ele>124.6</ele>
        <time>2019-08-28T10:36:20Z</time>
      </trkpt>
      <trkpt lat="36.4966060" lon="-5.2999970">
        <ele>125.0</ele>
        <time>2019-08-28T10:36:21Z</time>
      </trkpt>
      <trkpt lat="36.4966200" lon="-5.2999610">
        <ele>125.3</ele>
        <time>2019-08-28T10:36:22Z</time>
      </trkpt>
      <trkpt lat="36.4966340" lon="-5.2999250">
        <ele>125.6</ele>
        <time>2019-08-28T10:36:23Z</time>
      </trkpt>
      <trkpt lat="36.4966470" lon="-5.2998900">
        <ele>125.9</ele>
        <time>2019-08-28T10:36:24Z</time>
      </trkpt>
      <trkpt lat="36.4966600" lon="-5.2998560">
        <ele>126.2</ele>
        <time>2019-08-28T10:36:25Z</time>
      </trkpt>
      <trkpt lat="36.4966730" lon="-5.2998220">
        <ele>126.5</ele>
        <time>2019-08-28T10:36:26Z</time>
      </trkpt>
      <trkpt lat="36.4966870" lon="-5.2997890">
        <ele>126.7</ele>
        <time>2019-08-28T10:36:27Z</time>
      </trkpt>
      <trkpt lat="36.4967020" lon="-5.2997560">
        <ele>127.0</ele>
        <time>2019-08-28T10:36:28Z</time>
      </trkpt>
      <trkpt lat="36.4967160" lon="-5.2997230">
        <ele>127.3</ele>
        <time>2019-08-28T10:36:29Z</time>
      </trkpt>
      <trkpt lat="36.4967300" lon="-5.2996900">
        <ele>127.5</ele>
        <time>2019-08-28T10:36:30Z</time>
      </trkpt>
      <trkpt lat="36.4967460" lon="-5.2996580">
        <ele>127.8</ele>
        <time>2019-08-28T10:36:31Z</time>
      </trkpt>
      <trkpt lat="36.4967620" lon="-5.2996260">
        <ele>128.1</ele>
        <time>2019-08-28T10:36:32Z</time>
      </trkpt>
      <trkpt lat="36.4967760" lon="-5.2995940">
        <ele>128.4</ele>
        <time>2019-08-28T10:36:33Z</time>
      </trkpt>
      <trkpt lat="36.4967890" lon="-5.2995600">
        <ele>128.6</ele>
        <time>2019-08-28T10:36:34Z</time>
      </trkpt>
      <trkpt lat="36.4968010" lon="-5.2995270">
        <ele>128.9</ele>
        <time>2019-08-28T10:36:35Z</time>
      </trkpt>
      <trkpt lat="36.4968140" lon="-5.2994930">
        <ele>129.1</ele>
        <time>2019-08-28T10:36:36Z</time>
      </trkpt>
      <trkpt lat="36.4968260" lon="-5.2994600">
        <ele>129.3</ele>
        <time>2019-08-28T10:36:37Z</time>
      </trkpt>
      <trkpt lat="36.4968380" lon="-5.2994270">
        <ele>129.6</ele>
        <time>2019-08-28T10:36:38Z</time>
      </trkpt>
      <trkpt lat="36.4968510" lon="-5.2993940">
        <ele>129.8</ele>
        <time>2019-08-28T10:36:39Z</time>
      </trkpt>
      <trkpt lat="36.4968640" lon="-5.2993620">
        <ele>130.0</ele>
        <time>2019-08-28T10:36:40Z</time>
      </trkpt>
      <trkpt lat="36.4968760" lon="-5.2993280">
        <ele>130.3</ele>
        <time>2019-08-28T10:36:41Z</time>
      </trkpt>
      <trkpt lat="36.4968880" lon="-5.2992950">
        <ele>130.5</ele>
        <time>2019-08-28T10:36:42Z</time>
      </trkpt>
      <trkpt lat="36.4968990" lon="-5.2992620">
        <ele>130.7</ele>
        <time>2019-08-28T10:36:43Z</time>
      </trkpt>
      <trkpt lat="36.4969080" lon="-5.2992280">
        <ele>130.9</ele>
        <time>2019-08-28T10:36:44Z</time>
      </trkpt>
      <trkpt lat="36.4969160" lon="-5.2991940">
        <ele>131.1</ele>
        <time>2019-08-28T10:36:45Z</time>
      </trkpt>
      <trkpt lat="36.4969230" lon="-5.2991590">
        <ele>131.3</ele>
        <time>2019-08-28T10:36:46Z</time>
      </trkpt>
      <trkpt lat="36.4969300" lon="-5.2991240">
        <ele>131.5</ele>
        <time>2019-08-28T10:36:47Z</time>
      </trkpt>
      <trkpt lat="36.4969360" lon="-5.2990870">
        <ele>131.8</ele>
        <time>2019-08-28T10:36:48Z</time>
      </trkpt>
      <trkpt lat="36.4969410" lon="-5.2990500">
        <ele>132.0</ele>
        <time>2019-08-28T10:36:49Z</time>
      </trkpt>
      <trkpt lat="36.4969450" lon="-5.2990120">
        <ele>132.2</ele>
        <time>2019-08-28T10:36:50Z</time>
      </trkpt>
      <trkpt lat="36.4969490" lon="-5.2989740">
        <ele>132.4</ele>
        <time>2019-08-28T10:36:51Z</time>
      </trkpt>
      <trkpt lat="36.4969530" lon="-5.2989360">
        <ele>132.6</ele>
        <time>2019-08-28T10:36:52Z</time>
      </trkpt>
      <trkpt lat="36.4969560" lon="-5.2988980">
        <ele>132.8</ele>
        <time>2019-08-28T10:36:53Z</time>
      </trkpt>
      <trkpt lat="36.4969580" lon="-5.2988600">
        <ele>133.0</ele>
        <time>2019-08-28T10:36:54Z</time>
      </trkpt>
      <trkpt lat="36.4969600" lon="-5.2988230">
        <ele>133.2</ele>
        <time>2019-08-28T10:36:55Z</time>
      </trkpt>
      <trkpt lat="36.4969620" lon="-5.2987860">
        <ele>133.4</ele>
        <time>2019-08-28T10:36:56Z</time>
      </trkpt>
      <trkpt lat="36.4969650" lon="-5.2987490">
        <ele>133.6</ele>
        <time>2019-08-28T10:36:57Z</time>
      </trkpt>
      <trkpt lat="36.4969660" lon="-5.2987130">
        <ele>133.8</ele>
        <time>2019-08-28T10:36:58Z</time>
      </trkpt>
      <trkpt lat="36.4969680" lon="-5.2986760">
        <ele>134.0</ele>
        <time>2019-08-28T10:36:59Z</time>
      </trkpt>
      <trkpt lat="36.4969690" lon="-5.2986390">
        <ele>134.2</ele>
        <time>2019-08-28T10:37:00Z</time>
      </trkpt>
      <trkpt lat="36.4969710" lon="-5.2986020">
        <ele>134.5</ele>
        <time>2019-08-28T10:37:01Z</time>
      </trkpt>
      <trkpt lat="36.4969730" lon="-5.2985650">
        <ele>134.7</ele>
        <time>2019-08-28T10:37:02Z</time>
      </trkpt>
      <trkpt lat="36.4969740" lon="-5.2985280">
        <ele>134.9</ele>
        <time>2019-08-28T10:37:03Z</time>
      </trkpt>
      <trkpt lat="36.4969770" lon="-5.2984910">
        <ele>135.1</ele>
        <time>2019-08-28T10:37:04Z</time>
      </trkpt>
      <trkpt lat="36.4969800" lon="-5.2984530">
        <ele>135.3</ele>
        <time>2019-08-28T10:37:05Z</time>
      </trkpt>
      <trkpt lat="36.4969820" lon="-5.2984160">
        <ele>135.5</ele>
        <time>2019-08-28T10:37:06Z</time>
      </trkpt>
      <trkpt lat="36.4969840" lon="-5.2983780">
        <ele>135.7</ele>
        <time>2019-08-28T10:37:07Z</time>
      </trkpt>
      <trkpt lat="36.4969860" lon="-5.2983400">
        <ele>136.0</ele>
        <time>2019-08-28T10:37:08Z</time>
      </trkpt>
      <trkpt lat="36.4969880" lon="-5.2983030">
        <ele>136.2</ele>
        <time>2019-08-28T10:37:09Z</time>
      </trkpt>
      <trkpt lat="36.4969900" lon="-5.2982640">
        <ele>136.4</ele>
        <time>2019-08-28T10:37:10Z</time>
      </trkpt>
      <trkpt lat="36.4969920" lon="-5.2982260">
        <ele>136.6</ele>
        <time>2019-08-28T10:37:11Z</time>
      </trkpt>
      <trkpt lat="36.4969930" lon="-5.2981880">
        <ele>136.9</ele>
        <time>2019-08-28T10:37:12Z</time>
      </trkpt>
      <trkpt lat="36.4969960" lon="-5.2981500">
        <ele>137.1</ele>
        <time>2019-08-28T10:37:13Z</time>
      </trkpt>
      <trkpt lat="36.4969990" lon="-5.2981110">
        <ele>137.4</ele>
        <time>2019-08-28T10:37:14Z</time>
      </trkpt>
      <trkpt lat="36.4970020" lon="-5.2980730">
        <ele>137.7</ele>
        <time>2019-08-28T10:37:15Z</time>
      </trkpt>
      <trkpt lat="36.4970040" lon="-5.2980350">
        <ele>137.9</ele>
        <time>2019-08-28T10:37:16Z</time>
      </trkpt>
      <trkpt lat="36.4970060" lon="-5.2979980">
        <ele>138.2</ele>
        <time>2019-08-28T10:37:17Z</time>
      </trkpt>
      <trkpt lat="36.4970090" lon="-5.2979620">
        <ele>138.4</ele>
        <time>2019-08-28T10:37:18Z</time>
      </trkpt>
      <trkpt lat="36.4970110" lon="-5.2979260">
        <ele>138.7</ele>
        <time>2019-08-28T10:37:19Z</time>
      </trkpt>
      <trkpt lat="36.4970140" lon="-5.2978910">
        <ele>138.9</ele>
        <time>2019-08-28T10:37:20Z</time>
      </trkpt>
      <trkpt lat="36.4970160" lon="-5.2978560">
        <ele>139.2</ele>
        <time>2019-08-28T10:37:21Z</time>
      </trkpt>
      <trkpt lat="36.4970190" lon="-5.2978210">
        <ele>139.4</ele>
        <time>2019-08-28T10:37:22Z</time>
      </trkpt>
      <trkpt lat="36.4970210" lon="-5.2977860">
        <ele>139.7</ele>
        <time>2019-08-28T10:37:23Z</time>
      </trkpt>
      <trkpt lat="36.4970230" lon="-5.2977510">
        <ele>139.9</ele>
        <time>2019-08-28T10:37:24Z</time>
      </trkpt>
      <trkpt lat="36.4970250" lon="-5.2977160">
        <ele>140.2</ele>
        <time>2019-08-28T10:37:25Z</time>
      </trkpt>
      <trkpt lat="36.4970270" lon="-5.2976810">
        <ele>140.4</ele>
        <time>2019-08-28T10:37:26Z</time>
      </trkpt>
      <trkpt lat="36.4970290" lon="-5.2976450">
        <ele>140.7</ele>
        <time>2019-08-28T10:37:27Z</time>
      </trkpt>
      <trkpt lat="36.4970300" lon="-5.2976090">
        <ele>140.9</ele>
        <time>2019-08-28T10:37:28Z</time>
      </trkpt>
      <trkpt lat="36.4970330" lon="-5.2975720">
        <ele>141.2</ele>
        <time>2019-08-28T10:37:29Z</time>
      </trkpt>
      <trkpt lat="36.4970350" lon="-5.2975360">
        <ele>141.4</ele>
        <time>2019-08-28T10:37:30Z</time>
      </trkpt>
      <trkpt lat="36.4970390" lon="-5.2975000">
        <ele>141.7</ele>
        <time>2019-08-28T10:37:31Z</time>
      </trkpt>
      <trkpt lat="36.4970420" lon="-5.2974630">
        <ele>141.9</ele>
        <time>2019-08-28T10:37:32Z</time>
      </trkpt>
      <trkpt lat="36.4970450" lon="-5.2974270">
        <ele>142.1</ele>
        <time>2019-08-28T10:37:33Z</time>
      </trkpt>
      <trkpt lat="36.4970480" lon="-5.2973900">
        <ele>142.4</ele>
        <time>2019-08-28T10:37:34Z</time>
      </trkpt>
      <trkpt lat="36.4970500" lon="-5.2973540">
        <ele>142.6</ele>
        <time>2019-08-28T10:37:35Z</time>
      </trkpt>
      <trkpt lat="36.4970510" lon="-5.2973170">
        <ele>142.9</ele>
        <time>2019-08-28T10:37:36Z</time>
      </trkpt>
      <trkpt lat="36.4970520" lon="-5.2972810">
        <ele>143.1</ele>
        <time>2019-08-28T10:37:37Z</time>
      </trkpt>
      <trkpt lat="36.4970520" lon="-5.2972450">
        <ele>143.3</ele>
        <time>2019-08-28T10:37:38Z</time>
      </trkpt>
      <trkpt lat="36.4970540" lon="-5.2972080">
        <ele>143.6</ele>
        <time>2019-08-28T10:37:39Z</time>
      </trkpt>
      <trkpt lat="36.4970540" lon="-5.2971720">
        <ele>143.8</ele>
        <time>2019-08-28T10:37:40Z</time>
      </trkpt>
      <trkpt lat="36.4970550" lon="-5.2971360">
        <ele>144.1</ele>
        <time>2019-08-28T10:37:41Z</time>
      </trkpt>
      <trkpt lat="36.4970570" lon="-5.2971000">
        <ele>144.3</ele>
        <time>2019-08-28T10:37:42Z</time>
      </trkpt>
      <trkpt lat="36.4970600" lon="-5.2970640">
        <ele>144.5</ele>
        <time>2019-08-28T10:37:43Z</time>
      </trkpt>
      <trkpt lat="36.4970640" lon="-5.2970280">
        <ele>144.8</ele>
        <time>2019-08-28T10:37:44Z</time>
      </trkpt>
      <trkpt lat="36.4970670" lon="-5.2969930">
        <ele>145.0</ele>
        <time>2019-08-28T10:37:45Z</time>
      </trkpt>
      <trkpt lat="36.4970690" lon="-5.2969570">
        <ele>145.3</ele>
        <time>2019-08-28T10:37:46Z</time>
      </trkpt>
      <trkpt lat="36.4970710" lon="-5.2969210">
        <ele>145.5</ele>
        <time>2019-08-28T10:37:47Z</time>
      </trkpt>
      <trkpt lat="36.4970730" lon="-5.2968850">
        <ele>145.7</ele>
        <time>2019-08-28T10:37:48Z</time>
      </trkpt>
      <trkpt lat="36.4970730" lon="-5.2968500">
        <ele>146.0</ele>
        <time>2019-08-28T10:37:49Z</time>
      </trkpt>
      <trkpt lat="36.4970740" lon="-5.2968140">
        <ele>146.2</ele>
        <time>2019-08-28T10:37:50Z</time>
      </trkpt>
      <trkpt lat="36.4970760" lon="-5.2967790">
        <ele>146.5</ele>
        <time>2019-08-28T10:37:51Z</time>
      </trkpt>
      <trkpt lat="36.4970780" lon="-5.2967440">
        <ele>146.7</ele>
        <time>2019-08-28T10:37:52Z</time>
      </trkpt>
      <trkpt lat="36.4970800" lon="-5.2967090">
        <ele>146.9</ele>
        <time>2019-08-28T10:37:53Z</time>
      </trkpt>
      <trkpt lat="36.4970810" lon="-5.2966730">
        <ele>147.2</ele>
        <time>2019-08-28T10:37:54Z</time>
      </trkpt>
      <trkpt lat="36.4970830" lon="-5.2966360">
        <ele>147.4</ele>
        <time>2019-08-28T10:37:55Z</time>
      </trkpt>
      <trkpt lat="36.4970850" lon="-5.2966000">
        <ele>147.7</ele>
        <time>2019-08-28T10:37:56Z</time>
      </trkpt>
      <trkpt lat="36.4970870" lon="-5.2965640">
        <ele>147.9</ele>
        <time>2019-08-28T10:37:57Z</time>
      </trkpt>
      <trkpt lat="36.4970890" lon="-5.2965290">
        <ele>148.2</ele>
        <time>2019-08-28T10:37:58Z</time>
      </trkpt>
      <trkpt lat="36.4970920" lon="-5.2964940">
        <ele>148.4</ele>
        <time>2019-08-28T10:37:59Z</time>
      </trkpt>
      <trkpt lat="36.4970940" lon="-5.2964590">
        <ele>148.7</ele>
        <time>2019-08-28T10:38:00Z</time>
      </trkpt>
      <trkpt lat="36.4970950" lon="-5.2964240">
        <ele>149.0</ele>
        <time>2019-08-28T10:38:01Z</time>
      </trkpt>
      <trkpt lat="36.4970970" lon="-5.2963880">
        <ele>149.2</ele>
        <time>2019-08-28T10:38:02Z</time>
      </trkpt>
      <trkpt lat="36.4970990" lon="-5.2963530">
        <ele>149.5</ele>
        <time>2019-08-28T10:38:03Z</time>
      </trkpt>
      <trkpt lat="36.4971000" lon="-5.2963180">
        <ele>149.7</ele>
        <time>2019-08-28T10:38:04Z</time>
      </trkpt>
      <trkpt lat="36.4971010" lon="-5.2962840">
        <ele>150.0</ele>
        <time>2019-08-28T10:38:05Z</time>
      </trkpt>
      <trkpt lat="36.4971020" lon="-5.2962500">
        <ele>150.3</ele>
        <time>2019-08-28T10:38:06Z</time>
      </trkpt>
      <trkpt lat="36.4971020" lon="-5.2962160">
        <ele>150.5</ele>
        <time>2019-08-28T10:38:07Z</time>
      </trkpt>
      <trkpt lat="36.4971020" lon="-5.2961830">
        <ele>150.8</ele>
        <time>2019-08-28T10:38:08Z</time>
      </trkpt>
      <trkpt lat="36.4971020" lon="-5.2961500">
        <ele>151.1</ele>
        <time>2019-08-28T10:38:09Z</time>
      </trkpt>
      <trkpt lat="36.4971020" lon="-5.2961180">
        <ele>151.3</ele>
        <time>2019-08-28T10:38:10Z</time>
      </trkpt>
      <trkpt lat="36.4971010" lon="-5.2960860">
        <ele>151.6</ele>
        <time>2019-08-28T10:38:11Z</time>
      </trkpt>
      <trkpt lat="36.4971010" lon="-5.2960550">
        <ele>151.8</ele>
        <time>2019-08-28T10:38:12Z</time>
      </trkpt>
      <trkpt lat="36.4970990" lon="-5.2960240">
        <ele>152.1</ele>
        <time>2019-08-28T10:38:13Z</time>
      </trkpt>
      <trkpt lat="36.4970970" lon="-5.2959940">
        <ele>152.4</ele>
        <time>2019-08-28T10:38:14Z</time>
      </trkpt>
      <trkpt lat="36.4970940" lon="-5.2959650">
        <ele>152.6</ele>
        <time>2019-08-28T10:38:15Z</time>
      </trkpt>
      <trkpt lat="36.4970920" lon="-5.2959360">
        <ele>152.9</ele>
        <time>2019-08-28T10:38:16Z</time>
      </trkpt>
      <trkpt lat="36.4970890" lon="-5.2959080">
        <ele>153.2</ele>
        <time>2019-08-28T10:38:17Z</time>
      </trkpt>
      <trkpt lat="36.4970850" lon="-5.2958800">
        <ele>153.4</ele>
        <time>2019-08-28T10:38:18Z</time>
      </trkpt>
      <trkpt lat="36.4970790" lon="-5.2958520">
        <ele>153.7</ele>
        <time>2019-08-28T10:38:19Z</time>
      </trkpt>
      <trkpt lat="36.4970730" lon="-5.2958240">
        <ele>154.0</ele>
        <time>2019-08-28T10:38:20Z</time>
      </trkpt>
      <trkpt lat="36.4970670" lon="-5.2957970">
        <ele>154.2</ele>
        <time>2019-08-28T10:38:21Z</time>
      </trkpt>
      <trkpt lat="36.4970600" lon="-5.2957690">
        <ele>154.5</ele>
        <time>2019-08-28T10:38:22Z</time>
      </trkpt>
      <trkpt lat="36.4970520" lon="-5.2957430">
        <ele>154.8</ele>
        <time>2019-08-28T10:38:23Z</time>
      </trkpt>
      <trkpt lat="36.4970430" lon="-5.2957170">
        <ele>155.0</ele>
        <time>2019-08-28T10:38:24Z</time>
      </trkpt>
      <trkpt lat="36.4970340" lon="-5.2956920">
        <ele>155.3</ele>
        <time>2019-08-28T10:38:25Z</time>
      </trkpt>
      <trkpt lat="36.4970240" lon="-5.2956660">
        <ele>155.6</ele>
        <time>2019-08-28T10:38:26Z</time>
      </trkpt>
      <trkpt lat="36.4970130" lon="-5.2956400">
        <ele>156.0</ele>
        <time>2019-08-28T10:38:27Z</time>
      </trkpt>
      <trkpt lat="36.4970020" lon="-5.2956150">
        <ele>156.3</ele>
        <time>2019-08-28T10:38:28Z</time>
      </trkpt>
      <trkpt lat="36.4969920" lon="-5.2955910">
        <ele>156.6</ele>
        <time>2019-08-28T10:38:29Z</time>
      </trkpt>
      <trkpt lat="36.4969800" lon="-5.2955690">
        <ele>156.8</ele>
        <time>2019-08-28T10:38:30Z</time>
      </trkpt>
      <trkpt lat="36.4969660" lon="-5.2955500">
        <ele>157.1</ele>
        <time>2019-08-28T10:38:31Z</time>
      </trkpt>
      <trkpt lat="36.4969520" lon="-5.2955310">
        <ele>157.4</ele>
        <time>2019-08-28T10:38:32Z</time>
      </trkpt>
      <trkpt lat="36.4969370" lon="-5.2955130">
        <ele>157.6</ele>
        <time>2019-08-28T10:38:33Z</time>
      </trkpt>
      <trkpt lat="36.4969220" lon="-5.2954940">
        <ele>157.8</ele>
        <time>2019-08-28T10:38:34Z</time>
      </trkpt>
      <trkpt lat="36.4969050" lon="-5.2954760">
        <ele>158.1</ele>
        <time>2019-08-28T10:38:35Z</time>
      </trkpt>
      <trkpt lat="36.4968880" lon="-5.2954600">
        <ele>158.4</ele>
        <time>2019-08-28T10:38:36Z</time>
      </trkpt>
      <trkpt lat="36.4968690" lon="-5.2954440">
        <ele>158.7</ele>
        <time>2019-08-28T10:38:37Z</time>
      </trkpt>
      <trkpt lat="36.4968500" lon="-5.2954290">
        <ele>159.0</ele>
        <time>2019-08-28T10:38:38Z</time>
      </trkpt>
      <trkpt lat="36.4968300" lon="-5.2954150">
        <ele>159.3</ele>
        <time>2019-08-28T10:38:39Z</time>
      </trkpt>
      <trkpt lat="36.4968100" lon="-5.2954010">
        <ele>159.5</ele>
        <time>2019-08-28T10:38:40Z</time>
      </trkpt>
      <trkpt lat="36.4967900" lon="-5.2953870">
        <ele>159.8</ele>
        <time>2019-08-28T10:38:41Z</time>
      </trkpt>
      <trkpt lat="36.4967700" lon="-5.2953730">
        <ele>160.1</ele>
        <time>2019-08-28T10:38:42Z</time>
      </trkpt>
      <trkpt lat="36.4967510" lon="-5.2953590">
        <ele>160.4</ele>
        <time>2019-08-28T10:38:43Z</time>
      </trkpt>
      <trkpt lat="36.4967310" lon="-5.2953440">
        <ele>160.6</ele>
        <time>2019-08-28T10:38:44Z</time>
      </trkpt>
      <trkpt lat="36.4967100" lon="-5.2953300">
        <ele>160.9</ele>
        <time>2019-08-28T10:38:45Z</time>
      </trkpt>
      <trkpt lat="36.4966880" lon="-5.2953160">
        <ele>161.2</ele>
        <time>2019-08-28T10:38:46Z</time>
      </trkpt>
      <trkpt lat="36.4966670" lon="-5.2953030">
        <ele>161.4</ele>
        <time>2019-08-28T10:38:47Z</time>
      </trkpt>
      <trkpt lat="36.4966450" lon="-5.2952890">
        <ele>161.7</ele>
        <time>2019-08-28T10:38:48Z</time>
      </trkpt>
      <trkpt lat="36.4966240" lon="-5.2952750">
        <ele>161.9</ele>
        <time>2019-08-28T10:38:49Z</time>
      </trkpt>
      <trkpt lat="36.4966020" lon="-5.2952620">
        <ele>162.2</ele>
        <time>2019-08-28T10:38:50Z</time>
      </trkpt>
      <trkpt lat="36.4965800" lon="-5.2952500">
        <ele>162.5</ele>
        <time>2019-08-28T10:38:51Z</time>
      </trkpt>
      <trkpt lat="36.4965580" lon="-5.2952370">
        <ele>162.7</ele>
        <time>2019-08-28T10:38:52Z</time>
      </trkpt>
      <trkpt lat="36.4965360" lon="-5.2952240">
        <ele>163.0</ele>
        <time>2019-08-28T10:38:53Z</time>
      </trkpt>
      <trkpt lat="36.4965140" lon="-5.2952120">
        <ele>163.2</ele>
        <time>2019-08-28T10:38:54Z</time>
      </trkpt>
      <trkpt lat="36.4964920" lon="-5.2952010">
        <ele>163.5</ele>
        <time>2019-08-28T10:38:55Z</time>
      </trkpt>
      <trkpt lat="36.4964690" lon="-5.2951910">
        <ele>163.6</ele>
        <time>2019-08-28T10:38:56Z</time>
      </trkpt>
      <trkpt lat="36.4964470" lon="-5.2951810">
        <ele>163.9</ele>
        <time>2019-08-28T10:38:57Z</time>
      </trkpt>
      <trkpt lat="36.4964250" lon="-5.2951720">
        <ele>164.1</ele>
        <time>2019-08-28T10:38:58Z</time>
      </trkpt>
      <trkpt lat="36.4964030" lon="-5.2951610">
        <ele>164.4</ele>
        <time>2019-08-28T10:38:59Z</time>
      </trkpt>
      <trkpt lat="36.4963820" lon="-5.2951500">
        <ele>164.6</ele>
        <time>2019-08-28T10:39:00Z</time>
      </trkpt>
      <trkpt lat="36.4963620" lon="-5.2951410">
        <ele>164.8</ele>
        <time>2019-08-28T10:39:01Z</time>
      </trkpt>
      <trkpt lat="36.4963410" lon="-5.2951320">
        <ele>165.0</ele>
        <time>2019-08-28T10:39:02Z</time>
      </trkpt>
      <trkpt lat="36.4963190" lon="-5.2951250">
        <ele>165.3</ele>
        <time>2019-08-28T10:39:03Z</time>
      </trkpt>
      <trkpt lat="36.4962970" lon="-5.2951190">
        <ele>165.4</ele>
        <time>2019-08-28T10:39:04Z</time>
      </trkpt>
      <trkpt lat="36.4962750" lon="-5.2951120">
        <ele>165.6</ele>
        <time>2019-08-28T10:39:05Z</time>
      </trkpt>
      <trkpt lat="36.4962530" lon="-5.2951050">
        <ele>165.8</ele>
        <time>2019-08-28T10:39:06Z</time>
      </trkpt>
      <trkpt lat="36.4962310" lon="-5.2950980">
        <ele>166.0</ele>
        <time>2019-08-28T10:39:07Z</time>
      </trkpt>
      <trkpt lat="36.4962090" lon="-5.2950920">
        <ele>166.3</ele>
        <time>2019-08-28T10:39:08Z</time>
      </trkpt>
      <trkpt lat="36.4961870" lon="-5.2950850">
        <ele>166.5</ele>
        <time>2019-08-28T10:39:09Z</time>
      </trkpt>
      <trkpt lat="36.4961650" lon="-5.2950780">
        <ele>166.7</ele>
        <time>2019-08-28T10:39:10Z</time>
      </trkpt>
      <trkpt lat="36.4961430" lon="-5.2950710">
        <ele>166.9</ele>
        <time>2019-08-28T10:39:11Z</time>
      </trkpt>
      <trkpt lat="36.4961210" lon="-5.2950630">
        <ele>167.1</ele>
        <time>2019-08-28T10:39:12Z</time>
      </trkpt>
      <trkpt lat="36.4960980" lon="-5.2950560">
        <ele>167.3</ele>
        <time>2019-08-28T10:39:13Z</time>
      </trkpt>
      <trkpt lat="36.4960760" lon="-5.2950500">
        <ele>167.5</ele>
        <time>2019-08-28T10:39:14Z</time>
      </trkpt>
      <trkpt lat="36.4960530" lon="-5.2950430">
        <ele>167.7</ele>
        <time>2019-08-28T10:39:15Z</time>
      </trkpt>
      <trkpt lat="36.4960310" lon="-5.2950360">
        <ele>167.9</ele>
        <time>2019-08-28T10:39:16Z</time>
      </trkpt>
      <trkpt lat="36.4960090" lon="-5.2950280">
        <ele>168.1</ele>
        <time>2019-08-28T10:39:17Z</time>
      </trkpt>
      <trkpt lat="36.4959860" lon="-5.2950210">
        <ele>168.3</ele>
        <time>2019-08-28T10:39:18Z</time>
      </trkpt>
      <trkpt lat="36.4959640" lon="-5.2950140">
        <ele>168.5</ele>
        <time>2019-08-28T10:39:19Z</time>
      </trkpt>
      <trkpt lat="36.4959410" lon="-5.2950080">
        <ele>168.7</ele>
        <time>2019-08-28T10:39:20Z</time>
      </trkpt>
      <trkpt lat="36.4959180" lon="-5.2950030">
        <ele>168.9</ele>
        <time>2019-08-28T10:39:21Z</time>
      </trkpt>
      <trkpt lat="36.4958960" lon="-5.2949970">
        <ele>169.1</ele>
        <time>2019-08-28T10:39:22Z</time>
      </trkpt>
      <trkpt lat="36.4958730" lon="-5.2949910">
        <ele>169.3</ele>
        <time>2019-08-28T10:39:23Z</time>
      </trkpt>
      <trkpt lat="36.4958490" lon="-5.2949850">
        <ele>169.5</ele>
        <time>2019-08-28T10:39:24Z</time>
      </trkpt>
      <trkpt lat="36.4958250" lon="-5.2949790">
        <ele>169.7</ele>
        <time>2019-08-28T10:39:25Z</time>
      </trkpt>
      <trkpt lat="36.4958000" lon="-5.2949720">
        <ele>169.9</ele>
        <time>2019-08-28T10:39:26Z</time>
      </trkpt>
      <trkpt lat="36.4957760" lon="-5.2949640">
        <ele>170.2</ele>
        <time>2019-08-28T10:39:27Z</time>
      </trkpt>
      <trkpt lat="36.4957530" lon="-5.2949560">
        <ele>170.4</ele>
        <time>2019-08-28T10:39:28Z</time>
      </trkpt>
      <trkpt lat="36.4957290" lon="-5.2949490">
        <ele>170.6</ele>
        <time>2019-08-28T10:39:29Z</time>
      </trkpt>
      <trkpt lat="36.4957050" lon="-5.2949430">
        <ele>170.8</ele>
        <time>2019-08-28T10:39:30Z</time>
      </trkpt>
      <trkpt lat="36.4956820" lon="-5.2949380">
        <ele>171.0</ele>
        <time>2019-08-28T10:39:31Z</time>
      </trkpt>
      <trkpt lat="36.4956580" lon="-5.2949320">
        <ele>171.3</ele>
        <time>2019-08-28T10:39:32Z</time>
      </trkpt>
      <trkpt lat="36.4956340" lon="-5.2949260">
        <ele>171.5</ele>
        <time>2019-08-28T10:39:33Z</time>
      </trkpt>
      <trkpt lat="36.4956100" lon="-5.2949200">
        <ele>171.7</ele>
        <time>2019-08-28T10:39:34Z</time>
      </trkpt>
      <trkpt lat="36.4955850" lon="-5.2949150">
        <ele>171.9</ele>
        <time>2019-08-28T10:39:35Z</time>
      </trkpt>
      <trkpt lat="36.4955610" lon="-5.2949090">
        <ele>172.2</ele>
        <time>2019-08-28T10:39:36Z</time>
      </trkpt>
      <trkpt lat="36.4955370" lon="-5.2949020">
        <ele>172.4</ele>
        <time>2019-08-28T10:39:37Z</time>
      </trkpt>
      <trkpt lat="36.4955130" lon="-5.2948940">
        <ele>172.6</ele>
        <time>2019-08-28T10:39:38Z</time>
      </trkpt>
      <trkpt lat="36.4954870" lon="-5.2948870">
        <ele>172.9</ele>
        <time>2019-08-28T10:39:39Z</time>
      </trkpt>
      <trkpt lat="36.4954610" lon="-5.2948810">
        <ele>173.2</ele>
        <time>2019-08-28T10:39:40Z</time>
      </trkpt>
      <trkpt lat="36.4954350" lon="-5.2948760">
        <ele>173.4</ele>
        <time>2019-08-28T10:39:41Z</time>
      </trkpt>
      <trkpt lat="36.4954090" lon="-5.2948710">
        <ele>173.6</ele>
        <time>2019-08-28T10:39:42Z</time>
      </trkpt>
      <trkpt lat="36.4953840" lon="-5.2948670">
        <ele>173.8</ele>
        <time>2019-08-28T10:39:43Z</time>
      </trkpt>
      <trkpt lat="36.4953600" lon="-5.2948620">
        <ele>173.9</ele>
        <time>2019-08-28T10:39:44Z</time>
      </trkpt>
      <trkpt lat="36.4953350" lon="-5.2948580">
        <ele>174.1</ele>
        <time>2019-08-28T10:39:45Z</time>
      </trkpt>
      <trkpt lat="36.4953110" lon="-5.2948520">
        <ele>174.3</ele>
        <time>2019-08-28T10:39:46Z</time>
      </trkpt>
      <trkpt lat="36.4952870" lon="-5.2948460">
        <ele>174.5</ele>
        <time>2019-08-28T10:39:47Z</time>
      </trkpt>
      <trkpt lat="36.4952630" lon="-5.2948410">
        <ele>174.6</ele>
        <time>2019-08-28T10:39:48Z</time>
      </trkpt>
      <trkpt lat="36.4952380" lon="-5.2948360">
        <ele>174.8</ele>
        <time>2019-08-28T10:39:49Z</time>
      </trkpt>
      <trkpt lat="36.4952140" lon="-5.2948310">
        <ele>175.0</ele>
        <time>2019-08-28T10:39:50Z</time>
      </trkpt>
      <trkpt lat="36.4951890" lon="-5.2948260">
        <ele>175.2</ele>
        <time>2019-08-28T10:39:51Z</time>
      </trkpt>
      <trkpt lat="36.4951640" lon="-5.2948210">
        <ele>175.4</ele>
        <time>2019-08-28T10:39:52Z</time>
      </trkpt>
      <trkpt lat="36.4951390" lon="-5.2948170">
        <ele>175.6</ele>
        <time>2019-08-28T10:39:53Z</time>
      </trkpt>
      <trkpt lat="36.4951140" lon="-5.2948140">
        <ele>175.7</ele>
        <time>2019-08-28T10:39:54Z</time>
      </trkpt>
      <trkpt lat="36.4950890" lon="-5.2948120">
        <ele>175.9</ele>
        <time>2019-08-28T10:39:55Z</time>
      </trkpt>
      <trkpt lat="36.4950640" lon="-5.2948100">
        <ele>176.0</ele>
        <time>2019-08-28T10:39:56Z</time>
      </trkpt>
      <trkpt lat="36.4950390" lon="-5.2948090">
        <ele>176.2</ele>
        <time>2019-08-28T10:39:57Z</time>
      </trkpt>
      <trkpt lat="36.4950130" lon="-5.2948090">
        <ele>176.4</ele>
        <time>2019-08-28T10:39:58Z</time>
      </trkpt>
      <trkpt lat="36.4949870" lon="-5.2948080">
        <ele>176.5</ele>
        <time>2019-08-28T10:39:59Z</time>
      </trkpt>
      <trkpt lat="36.4949610" lon="-5.2948070">
        <ele>176.7</ele>
        <time>2019-08-28T10:40:00Z</time>
      </trkpt>
      <trkpt lat="36.4949350" lon="-5.2948040">
        <ele>176.8</ele>
        <time>2019-08-28T10:40:01Z</time>
      </trkpt>
      <trkpt lat="36.4949090" lon="-5.2948020">
        <ele>177.0</ele>
        <time>2019-08-28T10:40:02Z</time>
      </trkpt>
      <trkpt lat="36.4948830" lon="-5.2948010">
        <ele>177.1</ele>
        <time>2019-08-28T10:40:03Z</time>
      </trkpt>
      <trkpt lat="36.4948570" lon="-5.2948010">
        <ele>177.3</ele>
        <time>2019-08-28T10:40:04Z</time>
      </trkpt>
      <trkpt lat="36.4948300" lon="-5.2948020">
        <ele>177.5</ele>
        <time>2019-08-28T10:40:05Z</time>
      </trkpt>
      <trkpt lat="36.4948030" lon="-5.2948050">
        <ele>177.7</ele>
        <time>2019-08-28T10:40:06Z</time>
      </trkpt>
      <trkpt lat="36.4947760" lon="-5.2948080">
        <ele>177.9</ele>
        <time>2019-08-28T10:40:07Z</time>
      </trkpt>
      <trkpt lat="36.4947490" lon="-5.2948140">
        <ele>178.0</ele>
        <time>2019-08-28T10:40:08Z</time>
      </trkpt>
      <trkpt lat="36.4947230" lon="-5.2948200">
        <ele>178.2</ele>
        <time>2019-08-28T10:40:09Z</time>
      </trkpt>
      <trkpt lat="36.4946970" lon="-5.2948280">
        <ele>178.4</ele>
        <time>2019-08-28T10:40:10Z</time>
      </trkpt>
      <trkpt lat="36.4946730" lon="-5.2948400">
        <ele>178.6</ele>
        <time>2019-08-28T10:40:11Z</time>
      </trkpt>
      <trkpt lat="36.4946490" lon="-5.2948540">
        <ele>178.9</ele>
        <time>2019-08-28T10:40:12Z</time>
      </trkpt>
      <trkpt lat="36.4946260" lon="-5.2948700">
        <ele>179.2</ele>
        <time>2019-08-28T10:40:13Z</time>
      </trkpt>
      <trkpt lat="36.4946040" lon="-5.2948860">
        <ele>179.3</ele>
        <time>2019-08-28T10:40:14Z</time>
      </trkpt>
      <trkpt lat="36.4945830" lon="-5.2949040">
        <ele>179.5</ele>
        <time>2019-08-28T10:40:15Z</time>
      </trkpt>
      <trkpt lat="36.4945630" lon="-5.2949240">
        <ele>179.7</ele>
        <time>2019-08-28T10:40:16Z</time>
      </trkpt>
      <trkpt lat="36.4945440" lon="-5.2949460">
        <ele>179.9</ele>
        <time>2019-08-28T10:40:17Z</time>
      </trkpt>
      <trkpt lat="36.4945260" lon="-5.2949690">
        <ele>180.0</ele>
        <time>2019-08-28T10:40:18Z</time>
      </trkpt>
      <trkpt lat="36.4945080" lon="-5.2949930">
        <ele>180.2</ele>
        <time>2019-08-28T10:40:19Z</time>
      </trkpt>
      <trkpt lat="36.4944900" lon="-5.2950170">
        <ele>180.4</ele>
        <time>2019-08-28T10:40:20Z</time>
      </trkpt>
      <trkpt lat="36.4944730" lon="-5.2950420">
        <ele>180.7</ele>
        <time>2019-08-28T10:40:21Z</time>
      </trkpt>
      <trkpt lat="36.4944550" lon="-5.2950670">
        <ele>180.9</ele>
        <time>2019-08-28T10:40:22Z</time>
      </trkpt>
      <trkpt lat="36.4944390" lon="-5.2950940">
        <ele>181.2</ele>
        <time>2019-08-28T10:40:23Z</time>
      </trkpt>
      <trkpt lat="36.4944220" lon="-5.2951210">
        <ele>181.4</ele>
        <time>2019-08-28T10:40:24Z</time>
      </trkpt>
      <trkpt lat="36.4944060" lon="-5.2951480">
        <ele>181.7</ele>
        <time>2019-08-28T10:40:25Z</time>
      </trkpt>
      <trkpt lat="36.4943910" lon="-5.2951750">
        <ele>181.9</ele>
        <time>2019-08-28T10:40:26Z</time>
      </trkpt>
      <trkpt lat="36.4943750" lon="-5.2952020">
        <ele>182.2</ele>
        <time>2019-08-28T10:40:27Z</time>
      </trkpt>
      <trkpt lat="36.4943590" lon="-5.2952290">
        <ele>182.4</ele>
        <time>2019-08-28T10:40:28Z</time>
      </trkpt>
      <trkpt lat="36.4943430" lon="-5.2952560">
        <ele>182.7</ele>
        <time>2019-08-28T10:40:29Z</time>
      </trkpt>
      <trkpt lat="36.4943270" lon="-5.2952830">
        <ele>183.0</ele>
        <time>2019-08-28T10:40:30Z</time>
      </trkpt>
      <trkpt lat="36.4943120" lon="-5.2953110">
        <ele>183.2</ele>
        <time>2019-08-28T10:40:31Z</time>
      </trkpt>
      <trkpt lat="36.4942980" lon="-5.2953380">
        <ele>183.5</ele>
        <time>2019-08-28T10:40:32Z</time>
      </trkpt>
      <trkpt lat="36.4942830" lon="-5.2953660">
        <ele>183.7</ele>
        <time>2019-08-28T10:40:33Z</time>
      </trkpt>
      <trkpt lat="36.4942680" lon="-5.2953940">
        <ele>184.0</ele>
        <time>2019-08-28T10:40:34Z</time>
      </trkpt>
      <trkpt lat="36.4942530" lon="-5.2954220">
        <ele>184.2</ele>
        <time>2019-08-28T10:40:35Z</time>
      </trkpt>
      <trkpt lat="36.4942380" lon="-5.2954500">
        <ele>184.5</ele>
        <time>2019-08-28T10:40:36Z</time>
      </trkpt>
      <trkpt lat="36.4942240" lon="-5.2954780">
        <ele>184.7</ele>
        <time>2019-08-28T10:40:37Z</time>
      </trkpt>
      <trkpt lat="36.4942100" lon="-5.2955060">
        <ele>185.0</ele>
        <time>2019-08-28T10:40:38Z</time>
      </trkpt>
      <trkpt lat="36.4941960" lon="-5.2955340">
        <ele>185.2</ele>
        <time>2019-08-28T10:40:39Z</time>
      </trkpt>
      <trkpt lat="36.4941820" lon="-5.2955630">
        <ele>185.5</ele>
        <time>2019-08-28T10:40:40Z</time>
      </trkpt>
      <trkpt lat="36.4941680" lon="-5.2955920">
        <ele>185.7</ele>
        <time>2019-08-28T10:40:41Z</time>
      </trkpt>
      <trkpt lat="36.4941530" lon="-5.2956200">
        <ele>185.9</ele>
        <time>2019-08-28T10:40:42Z</time>
      </trkpt>
      <trkpt lat="36.4941370" lon="-5.2956480">
        <ele>186.2</ele>
        <time>2019-08-28T10:40:43Z</time>
      </trkpt>
      <trkpt lat="36.4941200" lon="-5.2956760">
        <ele>186.4</ele>
        <time>2019-08-28T10:40:44Z</time>
      </trkpt>
      <trkpt lat="36.4941040" lon="-5.2957030">
        <ele>186.6</ele>
        <time>2019-08-28T10:40:45Z</time>
      </trkpt>
      <trkpt lat="36.4940870" lon="-5.2957300">
        <ele>186.8</ele>
        <time>2019-08-28T10:40:46Z</time>
      </trkpt>
      <trkpt lat="36.4940700" lon="-5.2957570">
        <ele>187.0</ele>
        <time>2019-08-28T10:40:47Z</time>
      </trkpt>
      <trkpt lat="36.4940510" lon="-5.2957830">
        <ele>187.2</ele>
        <time>2019-08-28T10:40:48Z</time>
      </trkpt>
      <trkpt lat="36.4940320" lon="-5.2958080">
        <ele>187.4</ele>
        <time>2019-08-28T10:40:49Z</time>
      </trkpt>
      <trkpt lat="36.4940130" lon="-5.2958340">
        <ele>187.6</ele>
        <time>2019-08-28T10:40:50Z</time>
      </trkpt>
      <trkpt lat="36.4939940" lon="-5.2958590">
        <ele>187.8</ele>
        <time>2019-08-28T10:40:51Z</time>
      </trkpt>
      <trkpt lat="36.4939760" lon="-5.2958850">
        <ele>187.9</ele>
        <time>2019-08-28T10:40:52Z</time>
      </trkpt>
      <trkpt lat="36.4939570" lon="-5.2959100">
        <ele>188.1</ele>
        <time>2019-08-28T10:40:53Z</time>
      </trkpt>
      <trkpt lat="36.4939380" lon="-5.2959350">
        <ele>188.3</ele>
        <time>2019-08-28T10:40:54Z</time>
      </trkpt>
      <trkpt lat="36.4939190" lon="-5.2959590">
        <ele>188.4</ele>
        <time>2019-08-28T10:40:55Z</time>
      </trkpt>
      <trkpt lat="36.4938980" lon="-5.2959840">
        <ele>188.5</ele>
        <time>2019-08-28T10:40:56Z</time>
      </trkpt>
      <trkpt lat="36.4938770" lon="-5.2960070">
        <ele>188.7</ele>
        <time>2019-08-28T10:40:57Z</time>
      </trkpt>
      <trkpt lat="36.4938540" lon="-5.2960300">
        <ele>188.8</ele>
        <time>2019-08-28T10:40:58Z</time>
      </trkpt>
      <trkpt lat="36.4938320" lon="-5.2960530">
        <ele>189.0</ele>
        <time>2019-08-28T10:40:59Z</time>
      </trkpt>
      <trkpt lat="36.4938090" lon="-5.2960750">
        <ele>189.1</ele>
        <time>2019-08-28T10:41:00Z</time>
      </trkpt>
      <trkpt lat="36.4937860" lon="-5.2960980">
        <ele>189.2</ele>
        <time>2019-08-28T10:41:01Z</time>
      </trkpt>
      <trkpt lat="36.4937640" lon="-5.2961210">
        <ele>189.4</ele>
        <time>2019-08-28T10:41:02Z</time>
      </trkpt>
      <trkpt lat="36.4937410" lon="-5.2961430">
        <ele>189.5</ele>
        <time>2019-08-28T10:41:03Z</time>
      </trkpt>
      <trkpt lat="36.4937180" lon="-5.2961640">
        <ele>189.6</ele>
        <time>2019-08-28T10:41:04Z</time>
      </trkpt>
      <trkpt lat="36.4936950" lon="-5.2961860">
        <ele>189.8</ele>
        <time>2019-08-28T10:41:05Z</time>
      </trkpt>
      <trkpt lat="36.4936710" lon="-5.2962070">
        <ele>189.9</ele>
        <time>2019-08-28T10:41:06Z</time>
      </trkpt>
      <trkpt lat="36.4936470" lon="-5.2962290">
        <ele>190.0</ele>
        <time>2019-08-28T10:41:07Z</time>
      </trkpt>
      <trkpt lat="36.4936230" lon="-5.2962500">
        <ele>190.2</ele>
        <time>2019-08-28T10:41:08Z</time>
      </trkpt>
      <trkpt lat="36.4935980" lon="-5.2962700">
        <ele>190.3</ele>
        <time>2019-08-28T10:41:09Z</time>
      </trkpt>
      <trkpt lat="36.4935730" lon="-5.2962900">
        <ele>190.5</ele>
        <time>2019-08-28T10:41:10Z</time>
      </trkpt>
      <trkpt lat="36.4935480" lon="-5.2963100">
        <ele>190.6</ele>
        <time>2019-08-28T10:41:11Z</time>
      </trkpt>
      <trkpt lat="36.4935220" lon="-5.2963280">
        <ele>190.8</ele>
        <time>2019-08-28T10:41:12Z</time>
      </trkpt>
      <trkpt lat="36.4934960" lon="-5.2963450">
        <ele>191.0</ele>
        <time>2019-08-28T10:41:13Z</time>
      </trkpt>
      <trkpt lat="36.4934700" lon="-5.2963620">
        <ele>191.1</ele>
        <time>2019-08-28T10:41:14Z</time>
      </trkpt>
      <trkpt lat="36.4934430" lon="-5.2963780">
        <ele>191.3</ele>
        <time>2019-08-28T10:41:15Z</time>
      </trkpt>
      <trkpt lat="36.4934160" lon="-5.2963930">
        <ele>191.5</ele>
        <time>2019-08-28T10:41:16Z</time>
      </trkpt>
      <trkpt lat="36.4933890" lon="-5.2964080">
        <ele>191.7</ele>
        <time>2019-08-28T10:41:17Z</time>
      </trkpt>
      <trkpt lat="36.4933620" lon="-5.2964230">
        <ele>191.9</ele>
        <time>2019-08-28T10:41:18Z</time>
      </trkpt>
      <trkpt lat="36.4933340" lon="-5.2964370">
        <ele>192.0</ele>
        <time>2019-08-28T10:41:19Z</time>
      </trkpt>
      <trkpt lat="36.4933060" lon="-5.2964510">
        <ele>192.2</ele>
        <time>2019-08-28T10:41:20Z</time>
      </trkpt>
      <trkpt lat="36.4932790" lon="-5.2964640">
        <ele>192.4</ele>
        <time>2019-08-28T10:41:21Z</time>
      </trkpt>
      <trkpt lat="36.4932510" lon="-5.2964760">
        <ele>192.6</ele>
        <time>2019-08-28T10:41:22Z</time>
      </trkpt>
      <trkpt lat="36.4932240" lon="-5.2964880">
        <ele>192.7</ele>
        <time>2019-08-28T10:41:23Z</time>
      </trkpt>
      <trkpt lat="36.4931970" lon="-5.2964980">
        <ele>192.9</ele>
        <time>2019-08-28T10:41:24Z</time>
      </trkpt>
      <trkpt lat="36.4931690" lon="-5.2965080">
        <ele>193.1</ele>
        <time>2019-08-28T10:41:25Z</time>
      </trkpt>
      <trkpt lat="36.4931410" lon="-5.2965190">
        <ele>193.2</ele>
        <time>2019-08-28T10:41:26Z</time>
      </trkpt>
      <trkpt lat="36.4931130" lon="-5.2965290">
        <ele>193.3</ele>
        <time>2019-08-28T10:41:27Z</time>
      </trkpt>
      <trkpt lat="36.4930860" lon="-5.2965380">
        <ele>193.5</ele>
        <time>2019-08-28T10:41:28Z</time>
      </trkpt>
      <trkpt lat="36.4930580" lon="-5.2965470">
        <ele>193.6</ele>
        <time>2019-08-28T10:41:29Z</time>
      </trkpt>
      <trkpt lat="36.4930290" lon="-5.2965560">
        <ele>193.7</ele>
        <time>2019-08-28T10:41:30Z</time>
      </trkpt>
      <trkpt lat="36.4930010" lon="-5.2965640">
        <ele>193.9</ele>
        <time>2019-08-28T10:41:31Z</time>
      </trkpt>
      <trkpt lat="36.4929710" lon="-5.2965720">
        <ele>194.0</ele>
        <time>2019-08-28T10:41:32Z</time>
      </trkpt>
      <trkpt lat="36.4929420" lon="-5.2965800">
        <ele>194.1</ele>
        <time>2019-08-28T10:41:33Z</time>
      </trkpt>
      <trkpt lat="36.4929120" lon="-5.2965890">
        <ele>194.3</ele>
        <time>2019-08-28T10:41:34Z</time>
      </trkpt>
      <trkpt lat="36.4928810" lon="-5.2965970">
        <ele>194.4</ele>
        <time>2019-08-28T10:41:35Z</time>
      </trkpt>
      <trkpt lat="36.4928500" lon="-5.2966030">
        <ele>194.6</ele>
        <time>2019-08-28T10:41:36Z</time>
      </trkpt>
      <trkpt lat="36.4928190" lon="-5.2966100">
        <ele>194.7</ele>
        <time>2019-08-28T10:41:37Z</time>
      </trkpt>
      <trkpt lat="36.4927880" lon="-5.2966170">
        <ele>194.8</ele>
        <time>2019-08-28T10:41:38Z</time>
      </trkpt>
      <trkpt lat="36.4927550" lon="-5.2966240">
        <ele>194.9</ele>
        <time>2019-08-28T10:41:39Z</time>
      </trkpt>
      <trkpt lat="36.4927220" lon="-5.2966300">
        <ele>195.1</ele>
        <time>2019-08-28T10:41:40Z</time>
      </trkpt>
      <trkpt lat="36.4926890" lon="-5.2966350">
        <ele>195.2</ele>
        <time>2019-08-28T10:41:41Z</time>
      </trkpt>
      <trkpt lat="36.4926570" lon="-5.2966400">
        <ele>195.3</ele>
        <time>2019-08-28T10:41:42Z</time>
      </trkpt>
      <trkpt lat="36.4926230" lon="-5.2966460">
        <ele>195.4</ele>
        <time>2019-08-28T10:41:43Z</time>
      </trkpt>
      <trkpt lat="36.4925890" lon="-5.2966510">
        <ele>195.6</ele>
        <time>2019-08-28T10:41:44Z</time>
      </trkpt>
      <trkpt lat="36.4925540" lon="-5.2966560">
        <ele>195.7</ele>
        <time>2019-08-28T10:41:45Z</time>
      </trkpt>
      <trkpt lat="36.4925200" lon="-5.2966600">
        <ele>195.8</ele>
        <time>2019-08-28T10:41:46Z</time>
      </trkpt>
      <trkpt lat="36.4924840" lon="-5.2966650">
        <ele>196.0</ele>
        <time>2019-08-28T10:41:47Z</time>
      </trkpt>
      <trkpt lat="36.4924490" lon="-5.2966700">
        <ele>196.1</ele>
        <time>2019-08-28T10:41:48Z</time>
      </trkpt>
      <trkpt lat="36.4924130" lon="-5.2966730">
        <ele>196.3</ele>
        <time>2019-08-28T10:41:49Z</time>
      </trkpt>
      <trkpt lat="36.4923770" lon="-5.2966770">
        <ele>196.4</ele>
        <time>2019-08-28T10:41:50Z</time>
      </trkpt>
      <trkpt lat="36.4923410" lon="-5.2966790">
        <ele>196.6</ele>
        <time>2019-08-28T10:41:51Z</time>
      </trkpt>
      <trkpt lat="36.4923050" lon="-5.2966820">
        <ele>196.7</ele>
        <time>2019-08-28T10:41:52Z</time>
      </trkpt>
      <trkpt lat="36.4922690" lon="-5.2966830">
        <ele>196.9</ele>
        <time>2019-08-28T10:41:53Z</time>
      </trkpt>
      <trkpt lat="36.4922340" lon="-5.2966830">
        <ele>197.1</ele>
        <time>2019-08-28T10:41:54Z</time>
      </trkpt>
      <trkpt lat="36.4921980" lon="-5.2966810">
        <ele>197.2</ele>
        <time>2019-08-28T10:41:55Z</time>
      </trkpt>
      <trkpt lat="36.4921630" lon="-5.2966790">
        <ele>197.4</ele>
        <time>2019-08-28T10:41:56Z</time>
      </trkpt>
      <trkpt lat="36.4921280" lon="-5.2966770">
        <ele>197.5</ele>
        <time>2019-08-28T10:41:57Z</time>
      </trkpt>
      <trkpt lat="36.4920920" lon="-5.2966730">
        <ele>197.7</ele>
        <time>2019-08-28T10:41:58Z</time>
      </trkpt>
      <trkpt lat="36.4920570" lon="-5.2966690">
        <ele>197.8</ele>
        <time>2019-08-28T10:41:59Z</time>
      </trkpt>
      <trkpt lat="36.4920220" lon="-5.2966640">
        <ele>198.0</ele>
        <time>2019-08-28T10:42:00Z</time>
      </trkpt>
      <trkpt lat="36.4919860" lon="-5.2966580">
        <ele>198.1</ele>
        <time>2019-08-28T10:42:01Z</time>
      </trkpt>
      <trkpt lat="36.4919490" lon="-5.2966530">
        <ele>198.2</ele>
        <time>2019-08-28T10:42:02Z</time>
      </trkpt>
      <trkpt lat="36.4919130" lon="-5.2966460">
        <ele>198.4</ele>
        <time>2019-08-28T10:42:03Z</time>
      </trkpt>
      <trkpt lat="36.4918770" lon="-5.2966400">
        <ele>198.5</ele>
        <time>2019-08-28T10:42:04Z</time>
      </trkpt>
      <trkpt lat="36.4918410" lon="-5.2966330">
        <ele>198.6</ele>
        <time>2019-08-28T10:42:05Z</time>
      </trkpt>
      <trkpt lat="36.4918050" lon="-5.2966250">
        <ele>198.7</ele>
        <time>2019-08-28T10:42:06Z</time>
      </trkpt>
      <trkpt lat="36.4917690" lon="-5.2966180">
        <ele>198.8</ele>
        <time>2019-08-28T10:42:07Z</time>
      </trkpt>
      <trkpt lat="36.4917340" lon="-5.2966110">
        <ele>198.8</ele>
        <time>2019-08-28T10:42:08Z</time>
      </trkpt>
      <trkpt lat="36.4916980" lon="-5.2966040">
        <ele>198.9</ele>
        <time>2019-08-28T10:42:09Z</time>
      </trkpt>
      <trkpt lat="36.4916620" lon="-5.2965970">
        <ele>199.0</ele>
        <time>2019-08-28T10:42:10Z</time>
      </trkpt>
      <trkpt lat="36.4916270" lon="-5.2965890">
        <ele>199.1</ele>
        <time>2019-08-28T10:42:11Z</time>
      </trkpt>
      <trkpt lat="36.4915910" lon="-5.2965820">
        <ele>199.2</ele>
        <time>2019-08-28T10:42:12Z</time>
      </trkpt>
      <trkpt lat="36.4915560" lon="-5.2965750">
        <ele>199.3</ele>
        <time>2019-08-28T10:42:13Z</time>
      </trkpt>
      <trkpt lat="36.4915210" lon="-5.2965690">
        <ele>199.4</ele>
        <time>2019-08-28T10:42:14Z</time>
      </trkpt>
      <trkpt lat="36.4914860" lon="-5.2965630">
        <ele>199.5</ele>
        <time>2019-08-28T10:42:15Z</time>
      </trkpt>
      <trkpt lat="36.4914500" lon="-5.2965570">
        <ele>199.7</ele>
        <time>2019-08-28T10:42:16Z</time>
      </trkpt>
      <trkpt lat="36.4914150" lon="-5.2965520">
        <ele>199.8</ele>
        <time>2019-08-28T10:42:17Z</time>
      </trkpt>
      <trkpt lat="36.4913800" lon="-5.2965480">
        <ele>199.9</ele>
        <time>2019-08-28T10:42:18Z</time>
      </trkpt>
      <trkpt lat="36.4913440" lon="-5.2965470">
        <ele>200.1</ele>
        <time>2019-08-28T10:42:19Z</time>
      </trkpt>
      <trkpt lat="36.4913090" lon="-5.2965470">
        <ele>200.3</ele>
        <time>2019-08-28T10:42:20Z</time>
      </trkpt>
      <trkpt lat="36.4912730" lon="-5.2965470">
        <ele>200.5</ele>
        <time>2019-08-28T10:42:21Z</time>
      </trkpt>
      <trkpt lat="36.4912380" lon="-5.2965500">
        <ele>200.7</ele>
        <time>2019-08-28T10:42:22Z</time>
      </trkpt>
      <trkpt lat="36.4912030" lon="-5.2965540">
        <ele>200.9</ele>
        <time>2019-08-28T10:42:23Z</time>
      </trkpt>
      <trkpt lat="36.4911680" lon="-5.2965590">
        <ele>201.1</ele>
        <time>2019-08-28T10:42:24Z</time>
      </trkpt>
      <trkpt lat="36.4911340" lon="-5.2965650">
        <ele>201.3</ele>
        <time>2019-08-28T10:42:25Z</time>
      </trkpt>
      <trkpt lat="36.4911000" lon="-5.2965710">
        <ele>201.6</ele>
        <time>2019-08-28T10:42:26Z</time>
      </trkpt>
      <trkpt lat="36.4910650" lon="-5.2965780">
        <ele>201.9</ele>
        <time>2019-08-28T10:42:27Z</time>
      </trkpt>
      <trkpt lat="36.4910310" lon="-5.2965850">
        <ele>202.1</ele>
        <time>2019-08-28T10:42:28Z</time>
      </trkpt>
      <trkpt lat="36.4909970" lon="-5.2965940">
        <ele>202.3</ele>
        <time>2019-08-28T10:42:29Z</time>
      </trkpt>
      <trkpt lat="36.4909640" lon="-5.2966030">
        <ele>202.5</ele>
        <time>2019-08-28T10:42:30Z</time>
      </trkpt>
      <trkpt lat="36.4909300" lon="-5.2966130">
        <ele>202.7</ele>
        <time>2019-08-28T10:42:31Z</time>
      </trkpt>
      <trkpt lat="36.4908970" lon="-5.2966220">
        <ele>202.8</ele>
        <time>2019-08-28T10:42:32Z</time>
      </trkpt>
      <trkpt lat="36.4908640" lon="-5.2966310">
        <ele>203.0</ele>
        <time>2019-08-28T10:42:33Z</time>
      </trkpt>
      <trkpt lat="36.4908310" lon="-5.2966400">
        <ele>203.2</ele>
        <time>2019-08-28T10:42:34Z</time>
      </trkpt>
      <trkpt lat="36.4907980" lon="-5.2966480">
        <ele>203.5</ele>
        <time>2019-08-28T10:42:35Z</time>
      </trkpt>
      <trkpt lat="36.4907640" lon="-5.2966570">
        <ele>203.7</ele>
        <time>2019-08-28T10:42:36Z</time>
      </trkpt>
      <trkpt lat="36.4907310" lon="-5.2966660">
        <ele>203.9</ele>
        <time>2019-08-28T10:42:37Z</time>
      </trkpt>
      <trkpt lat="36.4906970" lon="-5.2966750">
        <ele>204.1</ele>
        <time>2019-08-28T10:42:38Z</time>
      </trkpt>
      <trkpt lat="36.4906640" lon="-5.2966830">
        <ele>204.3</ele>
        <time>2019-08-28T10:42:39Z</time>
      </trkpt>
      <trkpt lat="36.4906310" lon="-5.2966910">
        <ele>204.6</ele>
        <time>2019-08-28T10:42:40Z</time>
      </trkpt>
      <trkpt lat="36.4905980" lon="-5.2967010">
        <ele>204.8</ele>
        <time>2019-08-28T10:42:41Z</time>
      </trkpt>
      <trkpt lat="36.4905660" lon="-5.2967100">
        <ele>205.0</ele>
        <time>2019-08-28T10:42:42Z</time>
      </trkpt>
      <trkpt lat="36.4905340" lon="-5.2967180">
        <ele>205.2</ele>
        <time>2019-08-28T10:42:43Z</time>
      </trkpt>
      <trkpt lat="36.4905020" lon="-5.2967260">
        <ele>205.4</ele>
        <time>2019-08-28T10:42:44Z</time>
      </trkpt>
      <trkpt lat="36.4904690" lon="-5.2967340">
        <ele>205.7</ele>
        <time>2019-08-28T10:42:45Z</time>
      </trkpt>
      <trkpt lat="36.4904370" lon="-5.2967420">
        <ele>205.9</ele>
        <time>2019-08-28T10:42:46Z</time>
      </trkpt>
      <trkpt lat="36.4904040" lon="-5.2967500">
        <ele>206.1</ele>
        <time>2019-08-28T10:42:47Z</time>
      </trkpt>
      <trkpt lat="36.4903720" lon="-5.2967580">
        <ele>206.3</ele>
        <time>2019-08-28T10:42:48Z</time>
      </trkpt>
      <trkpt lat="36.4903390" lon="-5.2967660">
        <ele>206.5</ele>
        <time>2019-08-28T10:42:49Z</time>
      </trkpt>
      <trkpt lat="36.4903070" lon="-5.2967740">
        <ele>206.7</ele>
        <time>2019-08-28T10:42:50Z</time>
      </trkpt>
      <trkpt lat="36.4902750" lon="-5.2967820">
        <ele>206.9</ele>
        <time>2019-08-28T10:42:51Z</time>
      </trkpt>
      <trkpt lat="36.4902430" lon="-5.2967890">
        <ele>207.1</ele>
        <time>2019-08-28T10:42:52Z</time>
      </trkpt>
      <trkpt lat="36.4902100" lon="-5.2967970">
        <ele>207.3</ele>
        <time>2019-08-28T10:42:53Z</time>
      </trkpt>
      <trkpt lat="36.4901780" lon="-5.2968050">
        <ele>207.6</ele>
        <time>2019-08-28T10:42:54Z</time>
      </trkpt>
      <trkpt lat="36.4901460" lon="-5.2968140">
        <ele>207.7</ele>
        <time>2019-08-28T10:42:55Z</time>
      </trkpt>
      <trkpt lat="36.4901150" lon="-5.2968220">
        <ele>207.9</ele>
        <time>2019-08-28T10:42:56Z</time>
      </trkpt>
      <trkpt lat="36.4900830" lon="-5.2968310">
        <ele>208.1</ele>
        <time>2019-08-28T10:42:57Z</time>
      </trkpt>
      <trkpt lat="36.4900520" lon="-5.2968380">
        <ele>208.3</ele>
        <time>2019-08-28T10:42:58Z</time>
      </trkpt>
      <trkpt lat="36.4900210" lon="-5.2968450">
        <ele>208.4</ele>
        <time>2019-08-28T10:42:59Z</time>
      </trkpt>
      <trkpt lat="36.4899890" lon="-5.2968500">
        <ele>208.6</ele>
        <time>2019-08-28T10:43:00Z</time>
      </trkpt>
      <trkpt lat="36.4899570" lon="-5.2968560">
        <ele>208.8</ele>
        <time>2019-08-28T10:43:01Z</time>
      </trkpt>
      <trkpt lat="36.4899250" lon="-5.2968630">
        <ele>208.9</ele>
        <time>2019-08-28T10:43:02Z</time>
      </trkpt>
      <trkpt lat="36.4898930" lon="-5.2968710">
        <ele>209.1</ele>
        <time>2019-08-28T10:43:03Z</time>
      </trkpt>
      <trkpt lat="36.4898610" lon="-5.2968800">
        <ele>209.2</ele>
        <time>2019-08-28T10:43:04Z</time>
      </trkpt>
      <trkpt lat="36.4898300" lon="-5.2968870">
        <ele>209.4</ele>
        <time>2019-08-28T10:43:05Z</time>
      </trkpt>
      <trkpt lat="36.4897980" lon="-5.2968940">
        <ele>209.5</ele>
        <time>2019-08-28T10:43:06Z</time>
      </trkpt>
      <trkpt lat="36.4897660" lon="-5.2969000">
        <ele>209.6</ele>
        <time>2019-08-28T10:43:07Z</time>
      </trkpt>
      <trkpt lat="36.4897340" lon="-5.2969070">
        <ele>209.8</ele>
        <time>2019-08-28T10:43:08Z</time>
      </trkpt>
      <trkpt lat="36.4897020" lon="-5.2969140">
        <ele>209.9</ele>
        <time>2019-08-28T10:43:09Z</time>
      </trkpt>
      <trkpt lat="36.4896700" lon="-5.2969210">
        <ele>210.1</ele>
        <time>2019-08-28T10:43:10Z</time>
      </trkpt>
      <trkpt lat="36.4896390" lon="-5.2969290">
        <ele>210.2</ele>
        <time>2019-08-28T10:43:11Z</time>
      </trkpt>
      <trkpt lat="36.4896080" lon="-5.2969370">
        <ele>210.3</ele>
        <time>2019-08-28T10:43:12Z</time>
      </trkpt>
      <trkpt lat="36.4895770" lon="-5.2969440">
        <ele>210.5</ele>
        <time>2019-08-28T10:43:13Z</time>
      </trkpt>
      <trkpt lat="36.4895460" lon="-5.2969500">
        <ele>210.6</ele>
        <time>2019-08-28T10:43:14Z</time>
      </trkpt>
      <trkpt lat="36.4895140" lon="-5.2969560">
        <ele>210.8</ele>
        <time>2019-08-28T10:43:15Z</time>
      </trkpt>
      <trkpt lat="36.4894830" lon="-5.2969630">
        <ele>210.9</ele>
        <time>2019-08-28T10:43:16Z</time>
      </trkpt>
      <trkpt lat="36.4894510" lon="-5.2969700">
        <ele>211.1</ele>
        <time>2019-08-28T10:43:17Z</time>
      </trkpt>
      <trkpt lat="36.4894200" lon="-5.2969770">
        <ele>211.3</ele>
        <time>2019-08-28T10:43:18Z</time>
      </trkpt>
      <trkpt lat="36.4893890" lon="-5.2969850">
        <ele>211.5</ele>
        <time>2019-08-28T10:43:19Z</time>
      </trkpt>
      <trkpt lat="36.4893570" lon="-5.2969920">
        <ele>211.7</ele>
        <time>2019-08-28T10:43:20Z</time>
      </trkpt>
      <trkpt lat="36.4893260" lon="-5.2969990">
        <ele>211.9</ele>
        <time>2019-08-28T10:43:21Z</time>
      </trkpt>
      <trkpt lat="36.4892950" lon="-5.2970060">
        <ele>212.1</ele>
        <time>2019-08-28T10:43:22Z</time>
      </trkpt>
      <trkpt lat="36.4892640" lon="-5.2970130">
        <ele>212.3</ele>
        <time>2019-08-28T10:43:23Z</time>
      </trkpt>
      <trkpt lat="36.4892330" lon="-5.2970190">
        <ele>212.5</ele>
        <time>2019-08-28T10:43:24Z</time>
      </trkpt>
      <trkpt lat="36.4892020" lon="-5.2970260">
        <ele>212.7</ele>
        <time>2019-08-28T10:43:25Z</time>
      </trkpt>
      <trkpt lat="36.4891710" lon="-5.2970330">
        <ele>213.0</ele>
        <time>2019-08-28T10:43:26Z</time>
      </trkpt>
      <trkpt lat="36.4891410" lon="-5.2970400">
        <ele>213.2</ele>
        <time>2019-08-28T10:43:27Z</time>
      </trkpt>
      <trkpt lat="36.4891100" lon="-5.2970480">
        <ele>213.4</ele>
        <time>2019-08-28T10:43:28Z</time>
      </trkpt>
      <trkpt lat="36.4890790" lon="-5.2970540">
        <ele>213.6</ele>
        <time>2019-08-28T10:43:29Z</time>
      </trkpt>
      <trkpt lat="36.4890480" lon="-5.2970610">
        <ele>213.9</ele>
        <time>2019-08-28T10:43:30Z</time>
      </trkpt>
      <trkpt lat="36.4890180" lon="-5.2970670">
        <ele>214.1</ele>
        <time>2019-08-28T10:43:31Z</time>
      </trkpt>
      <trkpt lat="36.4889870" lon="-5.2970740">
        <ele>214.3</ele>
        <time>2019-08-28T10:43:32Z</time>
      </trkpt>
      <trkpt lat="36.4889570" lon="-5.2970810">
        <ele>214.6</ele>
        <time>2019-08-28T10:43:33Z</time>
      </trkpt>
      <trkpt lat="36.4889270" lon="-5.2970880">
        <ele>214.8</ele>
        <time>2019-08-28T10:43:34Z</time>
      </trkpt>
      <trkpt lat="36.4888970" lon="-5.2970940">
        <ele>215.0</ele>
        <time>2019-08-28T10:43:35Z</time>
      </trkpt>
      <trkpt lat="36.4888670" lon="-5.2971010">
        <ele>215.3</ele>
        <time>2019-08-28T10:43:36Z</time>
      </trkpt>
      <trkpt lat="36.4888370" lon="-5.2971080">
        <ele>215.5</ele>
        <time>2019-08-28T10:43:37Z</time>
      </trkpt>
      <trkpt lat="36.4888070" lon="-5.2971160">
        <ele>215.7</ele>
        <time>2019-08-28T10:43:38Z</time>
      </trkpt>
      <trkpt lat="36.4887770" lon="-5.2971240">
        <ele>216.0</ele>
        <time>2019-08-28T10:43:39Z</time>
      </trkpt>
      <trkpt lat="36.4887470" lon="-5.2971320">
        <ele>216.2</ele>
        <time>2019-08-28T10:43:40Z</time>
      </trkpt>
      <trkpt lat="36.4887170" lon="-5.2971410">
        <ele>216.5</ele>
        <time>2019-08-28T10:43:41Z</time>
      </trkpt>
      <trkpt lat="36.4886880" lon="-5.2971500">
        <ele>216.7</ele>
        <time>2019-08-28T10:43:42Z</time>
      </trkpt>
      <trkpt lat="36.4886600" lon="-5.2971580">
        <ele>217.0</ele>
        <time>2019-08-28T10:43:43Z</time>
      </trkpt>
      <trkpt lat="36.4886320" lon="-5.2971650">
        <ele>217.2</ele>
        <time>2019-08-28T10:43:44Z</time>
      </trkpt>
      <trkpt lat="36.4886030" lon="-5.2971730">
        <ele>217.5</ele>
        <time>2019-08-28T10:43:45Z</time>
      </trkpt>
      <trkpt lat="36.4885760" lon="-5.2971810">
        <ele>217.8</ele>
        <time>2019-08-28T10:43:46Z</time>
      </trkpt>
      <trkpt lat="36.4885480" lon="-5.2971890">
        <ele>218.0</ele>
        <time>2019-08-28T10:43:47Z</time>
      </trkpt>
      <trkpt lat="36.4885210" lon="-5.2971970">
        <ele>218.3</ele>
        <time>2019-08-28T10:43:48Z</time>
      </trkpt>
      <trkpt lat="36.4884940" lon="-5.2972060">
        <ele>218.5</ele>
        <time>2019-08-28T10:43:49Z</time>
      </trkpt>
      <trkpt lat="36.4884680" lon="-5.2972140">
        <ele>218.8</ele>
        <time>2019-08-28T10:43:50Z</time>
      </trkpt>
      <trkpt lat="36.4884420" lon="-5.2972220">
        <ele>219.0</ele>
        <time>2019-08-28T10:43:51Z</time>
      </trkpt>
      <trkpt lat="36.4884160" lon="-5.2972300">
        <ele>219.3</ele>
        <time>2019-08-28T10:43:52Z</time>
      </trkpt>
      <trkpt lat="36.4883890" lon="-5.2972380">
        <ele>219.6</ele>
        <time>2019-08-28T10:43:53Z</time>
      </trkpt>
      <trkpt lat="36.4883630" lon="-5.2972450">
        <ele>219.8</ele>
        <time>2019-08-28T10:43:54Z</time>
      </trkpt>
      <trkpt lat="36.4883370" lon="-5.2972530">
        <ele>220.1</ele>
        <time>2019-08-28T10:43:55Z</time>
      </trkpt>
      <trkpt lat="36.4883110" lon="-5.2972600">
        <ele>220.4</ele>
        <time>2019-08-28T10:43:56Z</time>
      </trkpt>
      <trkpt lat="36.4882850" lon="-5.2972660">
        <ele>220.6</ele>
        <time>2019-08-28T10:43:57Z</time>
      </trkpt>
      <trkpt lat="36.4882590" lon="-5.2972720">
        <ele>220.9</ele>
        <time>2019-08-28T10:43:58Z</time>
      </trkpt>
      <trkpt lat="36.4882330" lon="-5.2972770">
        <ele>221.2</ele>
        <time>2019-08-28T10:43:59Z</time>
      </trkpt>
      <trkpt lat="36.4882060" lon="-5.2972810">
        <ele>221.5</ele>
        <time>2019-08-28T10:44:00Z</time>
      </trkpt>
      <trkpt lat="36.4881780" lon="-5.2972850">
        <ele>221.7</ele>
        <time>2019-08-28T10:44:01Z</time>
      </trkpt>
      <trkpt lat="36.4881500" lon="-5.2972870">
        <ele>222.0</ele>
        <time>2019-08-28T10:44:02Z</time>
      </trkpt>
      <trkpt lat="36.4881210" lon="-5.2972860">
        <ele>222.3</ele>
        <time>2019-08-28T10:44:03Z</time>
      </trkpt>
      <trkpt lat="36.4880940" lon="-5.2972860">
        <ele>222.6</ele>
        <time>2019-08-28T10:44:04Z</time>
      </trkpt>
      <trkpt lat="36.4880670" lon="-5.2972840">
        <ele>222.9</ele>
        <time>2019-08-28T10:44:05Z</time>
      </trkpt>
      <trkpt lat="36.4880410" lon="-5.2972840">
        <ele>223.2</ele>
        <time>2019-08-28T10:44:06Z</time>
      </trkpt>
      <trkpt lat="36.4880140" lon="-5.2972810">
        <ele>223.5</ele>
        <time>2019-08-28T10:44:07Z</time>
      </trkpt>
      <trkpt lat="36.4879860" lon="-5.2972780">
        <ele>223.8</ele>
        <time>2019-08-28T10:44:08Z</time>
      </trkpt>
      <trkpt lat="36.4879590" lon="-5.2972740">
        <ele>224.1</ele>
        <time>2019-08-28T10:44:09Z</time>
      </trkpt>
      <trkpt lat="36.4879310" lon="-5.2972690">
        <ele>224.5</ele>
        <time>2019-08-28T10:44:10Z</time>
      </trkpt>
      <trkpt lat="36.4879040" lon="-5.2972630">
        <ele>224.8</ele>
        <time>2019-08-28T10:44:11Z</time>
      </trkpt>
      <trkpt lat="36.4878780" lon="-5.2972560">
        <ele>225.1</ele>
        <time>2019-08-28T10:44:12Z</time>
      </trkpt>
      <trkpt lat="36.4878520" lon="-5.2972480">
        <ele>225.4</ele>
        <time>2019-08-28T10:44:13Z</time>
      </trkpt>
      <trkpt lat="36.4878260" lon="-5.2972400">
        <ele>225.7</ele>
        <time>2019-08-28T10:44:14Z</time>
      </trkpt>
      <trkpt lat="36.4878010" lon="-5.2972310">
        <ele>225.9</ele>
        <time>2019-08-28T10:44:15Z</time>
      </trkpt>
      <trkpt lat="36.4877750" lon="-5.2972220">
        <ele>226.3</ele>
        <time>2019-08-28T10:44:16Z</time>
      </trkpt>
      <trkpt lat="36.4877500" lon="-5.2972130">
        <ele>226.6</ele>
        <time>2019-08-28T10:44:17Z</time>
      </trkpt>
      <trkpt lat="36.4877260" lon="-5.2972030">
        <ele>226.9</ele>
        <time>2019-08-28T10:44:18Z</time>
      </trkpt>
      <trkpt lat="36.4877030" lon="-5.2971900">
        <ele>227.2</ele>
        <time>2019-08-28T10:44:19Z</time>
      </trkpt>
      <trkpt lat="36.4876810" lon="-5.2971750">
        <ele>227.5</ele>
        <time>2019-08-28T10:44:20Z</time>
      </trkpt>
      <trkpt lat="36.4876610" lon="-5.2971570">
        <ele>227.8</ele>
        <time>2019-08-28T10:44:21Z</time>
      </trkpt>
      <trkpt lat="36.4876420" lon="-5.2971370">
        <ele>228.0</ele>
        <time>2019-08-28T10:44:22Z</time>
      </trkpt>
      <trkpt lat="36.4876250" lon="-5.2971170">
        <ele>228.3</ele>
        <time>2019-08-28T10:44:23Z</time>
      </trkpt>
      <trkpt lat="36.4876080" lon="-5.2970960">
        <ele>228.7</ele>
        <time>2019-08-28T10:44:24Z</time>
      </trkpt>
      <trkpt lat="36.4875940" lon="-5.2970710">
        <ele>229.0</ele>
        <time>2019-08-28T10:44:25Z</time>
      </trkpt>
      <trkpt lat="36.4875810" lon="-5.2970430">
        <ele>229.3</ele>
        <time>2019-08-28T10:44:26Z</time>
      </trkpt>
      <trkpt lat="36.4875710" lon="-5.2970130">
        <ele>229.6</ele>
        <time>2019-08-28T10:44:27Z</time>
      </trkpt>
      <trkpt lat="36.4875600" lon="-5.2969820">
        <ele>229.9</ele>
        <time>2019-08-28T10:44:28Z</time>
      </trkpt>
      <trkpt lat="36.4875520" lon="-5.2969520">
        <ele>230.1</ele>
        <time>2019-08-28T10:44:29Z</time>
      </trkpt>
      <trkpt lat="36.4875460" lon="-5.2969210">
        <ele>230.3</ele>
        <time>2019-08-28T10:44:30Z</time>
      </trkpt>
      <trkpt lat="36.4875420" lon="-5.2968890">
        <ele>230.5</ele>
        <time>2019-08-28T10:44:31Z</time>
      </trkpt>
      <trkpt lat="36.4875380" lon="-5.2968560">
        <ele>230.7</ele>
        <time>2019-08-28T10:44:32Z</time>
      </trkpt>
      <trkpt lat="36.4875380" lon="-5.2968240">
        <ele>230.8</ele>
        <time>2019-08-28T10:44:33Z</time>
      </trkpt>
      <trkpt lat="36.4875430" lon="-5.2967920">
        <ele>231.0</ele>
        <time>2019-08-28T10:44:34Z</time>
      </trkpt>
      <trkpt lat="36.4875510" lon="-5.2967600">
        <ele>231.1</ele>
        <time>2019-08-28T10:44:35Z</time>
      </trkpt>
      <trkpt lat="36.4875610" lon="-5.2967290">
        <ele>231.2</ele>
        <time>2019-08-28T10:44:36Z</time>
      </trkpt>
      <trkpt lat="36.4875720" lon="-5.2966990">
        <ele>231.4</ele>
        <time>2019-08-28T10:44:37Z</time>
      </trkpt>
      <trkpt lat="36.4875850" lon="-5.2966690">
        <ele>231.5</ele>
        <time>2019-08-28T10:44:38Z</time>
      </trkpt>
      <trkpt lat="36.4875980" lon="-5.2966400">
        <ele>231.6</ele>
        <time>2019-08-28T10:44:39Z</time>
      </trkpt>
      <trkpt lat="36.4876130" lon="-5.2966120">
        <ele>231.7</ele>
        <time>2019-08-28T10:44:40Z</time>
      </trkpt>
      <trkpt lat="36.4876300" lon="-5.2965850">
        <ele>231.8</ele>
        <time>2019-08-28T10:44:41Z</time>
      </trkpt>
      <trkpt lat="36.4876480" lon="-5.2965600">
        <ele>231.9</ele>
        <time>2019-08-28T10:44:42Z</time>
      </trkpt>
      <trkpt lat="36.4876670" lon="-5.2965350">
        <ele>232.0</ele>
        <time>2019-08-28T10:44:43Z</time>
      </trkpt>
      <trkpt lat="36.4876870" lon="-5.2965120">
        <ele>232.0</ele>
        <time>2019-08-28T10:44:44Z</time>
      </trkpt>
      <trkpt lat="36.4877080" lon="-5.2964890">
        <ele>232.1</ele>
        <time>2019-08-28T10:44:45Z</time>
      </trkpt>
      <trkpt lat="36.4877290" lon="-5.2964660">
        <ele>232.2</ele>
        <time>2019-08-28T10:44:46Z</time>
      </trkpt>
      <trkpt lat="36.4877500" lon="-5.2964430">
        <ele>232.2</ele>
        <time>2019-08-28T10:44:47Z</time>
      </trkpt>
      <trkpt lat="36.4877710" lon="-5.2964210">
        <ele>232.3</ele>
        <time>2019-08-28T10:44:48Z</time>
      </trkpt>
      <trkpt lat="36.4877910" lon="-5.2963980">
        <ele>232.4</ele>
        <time>2019-08-28T10:44:49Z</time>
      </trkpt>
      <trkpt lat="36.4878120" lon="-5.2963750">
        <ele>232.5</ele>
        <time>2019-08-28T10:44:50Z</time>
      </trkpt>
      <trkpt lat="36.4878320" lon="-5.2963520">
        <ele>232.6</ele>
        <time>2019-08-28T10:44:51Z</time>
      </trkpt>
      <trkpt lat="36.4878530" lon="-5.2963300">
        <ele>232.6</ele>
        <time>2019-08-28T10:44:52Z</time>
      </trkpt>
      <trkpt lat="36.4878750" lon="-5.2963080">
        <ele>232.7</ele>
        <time>2019-08-28T10:44:53Z</time>
      </trkpt>
      <trkpt lat="36.4878960" lon="-5.2962860">
        <ele>232.8</ele>
        <time>2019-08-28T10:44:54Z</time>
      </trkpt>
      <trkpt lat="36.4879170" lon="-5.2962650">
        <ele>232.9</ele>
        <time>2019-08-28T10:44:55Z</time>
      </trkpt>
      <trkpt lat="36.4879380" lon="-5.2962440">
        <ele>233.0</ele>
        <time>2019-08-28T10:44:56Z</time>
      </trkpt>
      <trkpt lat="36.4879590" lon="-5.2962240">
        <ele>233.0</ele>
        <time>2019-08-28T10:44:57Z</time>
      </trkpt>
      <trkpt lat="36.4879790" lon="-5.2962020">
        <ele>233.1</ele>
        <time>2019-08-28T10:44:58Z</time>
      </trkpt>
      <trkpt lat="36.4880000" lon="-5.2961800">
        <ele>233.2</ele>
        <time>2019-08-28T10:44:59Z</time>
      </trkpt>
      <trkpt lat="36.4880200" lon="-5.2961570">
        <ele>233.3</ele>
        <time>2019-08-28T10:45:00Z</time>
      </trkpt>
      <trkpt lat="36.4880420" lon="-5.2961350">
        <ele>233.4</ele>
        <time>2019-08-28T10:45:01Z</time>
      </trkpt>
      <trkpt lat="36.4880630" lon="-5.2961110">
        <ele>233.5</ele>
        <time>2019-08-28T10:45:02Z</time>
      </trkpt>
      <trkpt lat="36.4880850" lon="-5.2960890">
        <ele>233.6</ele>
        <time>2019-08-28T10:45:03Z</time>
      </trkpt>
      <trkpt lat="36.4881070" lon="-5.2960660">
        <ele>233.7</ele>
        <time>2019-08-28T10:45:04Z</time>
      </trkpt>
      <trkpt lat="36.4881290" lon="-5.2960430">
        <ele>233.8</ele>
        <time>2019-08-28T10:45:05Z</time>
      </trkpt>
      <trkpt lat="36.4881500" lon="-5.2960200">
        <ele>233.9</ele>
        <time>2019-08-28T10:45:06Z</time>
      </trkpt>
      <trkpt lat="36.4881710" lon="-5.2959960">
        <ele>234.1</ele>
        <time>2019-08-28T10:45:07Z</time>
      </trkpt>
      <trkpt lat="36.4881920" lon="-5.2959720">
        <ele>234.2</ele>
        <time>2019-08-28T10:45:08Z</time>
      </trkpt>
      <trkpt lat="36.4882140" lon="-5.2959490">
        <ele>234.5</ele>
        <time>2019-08-28T10:45:09Z</time>
      </trkpt>
      <trkpt lat="36.4882360" lon="-5.2959260">
        <ele>234.6</ele>
        <time>2019-08-28T10:45:10Z</time>
      </trkpt>
      <trkpt lat="36.4882580" lon="-5.2959030">
        <ele>234.8</ele>
        <time>2019-08-28T10:45:11Z</time>
      </trkpt>
      <trkpt lat="36.4882800" lon="-5.2958800">
        <ele>234.9</ele>
        <time>2019-08-28T10:45:12Z</time>
      </trkpt>
      <trkpt lat="36.4883030" lon="-5.2958560">
        <ele>235.1</ele>
        <time>2019-08-28T10:45:13Z</time>
      </trkpt>
      <trkpt lat="36.4883250" lon="-5.2958320">
        <ele>235.2</ele>
        <time>2019-08-28T10:45:14Z</time>
      </trkpt>
      <trkpt lat="36.4883470" lon="-5.2958090">
        <ele>235.4</ele>
        <time>2019-08-28T10:45:15Z</time>
      </trkpt>
      <trkpt lat="36.4883690" lon="-5.2957850">
        <ele>235.5</ele>
        <time>2019-08-28T10:45:16Z</time>
      </trkpt>
      <trkpt lat="36.4883910" lon="-5.2957610">
        <ele>235.7</ele>
        <time>2019-08-28T10:45:17Z</time>
      </trkpt>
      <trkpt lat="36.4884130" lon="-5.2957380">
        <ele>235.9</ele>
        <time>2019-08-28T10:45:18Z</time>
      </trkpt>
      <trkpt lat="36.4884360" lon="-5.2957150">
        <ele>236.1</ele>
        <time>2019-08-28T10:45:19Z</time>
      </trkpt>
      <trkpt lat="36.4884580" lon="-5.2956910">
        <ele>236.3</ele>
        <time>2019-08-28T10:45:20Z</time>
      </trkpt>
      <trkpt lat="36.4884810" lon="-5.2956690">
        <ele>236.5</ele>
        <time>2019-08-28T10:45:21Z</time>
      </trkpt>
      <trkpt lat="36.4885040" lon="-5.2956450">
        <ele>236.7</ele>
        <time>2019-08-28T10:45:22Z</time>
      </trkpt>
      <trkpt lat="36.4885270" lon="-5.2956210">
        <ele>236.9</ele>
        <time>2019-08-28T10:45:23Z</time>
      </trkpt>
      <trkpt lat="36.4885480" lon="-5.2955950">
        <ele>237.2</ele>
        <time>2019-08-28T10:45:24Z</time>
      </trkpt>
      <trkpt lat="36.4885680" lon="-5.2955700">
        <ele>237.4</ele>
        <time>2019-08-28T10:45:25Z</time>
      </trkpt>
      <trkpt lat="36.4885900" lon="-5.2955460">
        <ele>237.6</ele>
        <time>2019-08-28T10:45:26Z</time>
      </trkpt>
      <trkpt lat="36.4886110" lon="-5.2955220">
        <ele>237.8</ele>
        <time>2019-08-28T10:45:27Z</time>
      </trkpt>
      <trkpt lat="36.4886330" lon="-5.2954980">
        <ele>238.1</ele>
        <time>2019-08-28T10:45:28Z</time>
      </trkpt>
      <trkpt lat="36.4886540" lon="-5.2954740">
        <ele>238.3</ele>
        <time>2019-08-28T10:45:29Z</time>
      </trkpt>
      <trkpt lat="36.4886770" lon="-5.2954490">
        <ele>238.6</ele>
        <time>2019-08-28T10:45:30Z</time>
      </trkpt>
      <trkpt lat="36.4886990" lon="-5.2954250">
        <ele>238.8</ele>
        <time>2019-08-28T10:45:31Z</time>
      </trkpt>
      <trkpt lat="36.4887210" lon="-5.2954020">
        <ele>239.1</ele>
        <time>2019-08-28T10:45:32Z</time>
      </trkpt>
      <trkpt lat="36.4887430" lon="-5.2953790">
        <ele>239.3</ele>
        <time>2019-08-28T10:45:33Z</time>
      </trkpt>
      <trkpt lat="36.4887650" lon="-5.2953550">
        <ele>239.6</ele>
        <time>2019-08-28T10:45:34Z</time>
      </trkpt>
      <trkpt lat="36.4887870" lon="-5.2953320">
        <ele>239.8</ele>
        <time>2019-08-28T10:45:35Z</time>
      </trkpt>
      <trkpt lat="36.4888090" lon="-5.2953090">
        <ele>240.1</ele>
        <time>2019-08-28T10:45:36Z</time>
      </trkpt>
      <trkpt lat="36.4888320" lon="-5.2952860">
        <ele>240.3</ele>
        <time>2019-08-28T10:45:37Z</time>
      </trkpt>
      <trkpt lat="36.4888540" lon="-5.2952630">
        <ele>240.6</ele>
        <time>2019-08-28T10:45:38Z</time>
      </trkpt>
      <trkpt lat="36.4888760" lon="-5.2952400">
        <ele>240.9</ele>
        <time>2019-08-28T10:45:39Z</time>
      </trkpt>
      <trkpt lat="36.4888980" lon="-5.2952180">
        <ele>241.2</ele>
        <time>2019-08-28T10:45:40Z</time>
      </trkpt>
      <trkpt lat="36.4889200" lon="-5.2951950">
        <ele>241.4</ele>
        <time>2019-08-28T10:45:41Z</time>
      </trkpt>
      <trkpt lat="36.4889410" lon="-5.2951710">
        <ele>241.7</ele>
        <time>2019-08-28T10:45:42Z</time>
      </trkpt>
      <trkpt lat="36.4889620" lon="-5.2951480">
        <ele>242.0</ele>
        <time>2019-08-28T10:45:43Z</time>
      </trkpt>
      <trkpt lat="36.4889840" lon="-5.2951230">
        <ele>242.3</ele>
        <time>2019-08-28T10:45:44Z</time>
      </trkpt>
      <trkpt lat="36.4890040" lon="-5.2950980">
        <ele>242.6</ele>
        <time>2019-08-28T10:45:45Z</time>
      </trkpt>
      <trkpt lat="36.4890240" lon="-5.2950730">
        <ele>243.0</ele>
        <time>2019-08-28T10:45:46Z</time>
      </trkpt>
      <trkpt lat="36.4890430" lon="-5.2950460">
        <ele>243.3</ele>
        <time>2019-08-28T10:45:47Z</time>
      </trkpt>
      <trkpt lat="36.4890610" lon="-5.2950200">
        <ele>243.6</ele>
        <time>2019-08-28T10:45:48Z</time>
      </trkpt>
      <trkpt lat="36.4890770" lon="-5.2949920">
        <ele>244.0</ele>
        <time>2019-08-28T10:45:49Z</time>
      </trkpt>
      <trkpt lat="36.4890920" lon="-5.2949620">
        <ele>244.3</ele>
        <time>2019-08-28T10:45:50Z</time>
      </trkpt>
      <trkpt lat="36.4891060" lon="-5.2949320">
        <ele>244.6</ele>
        <time>2019-08-28T10:45:51Z</time>
      </trkpt>
      <trkpt lat="36.4891200" lon="-5.2949000">
        <ele>244.9</ele>
        <time>2019-08-28T10:45:52Z</time>
      </trkpt>
      <trkpt lat="36.4891340" lon="-5.2948690">
        <ele>245.2</ele>
        <time>2019-08-28T10:45:53Z</time>
      </trkpt>
      <trkpt lat="36.4891490" lon="-5.2948360">
        <ele>245.5</ele>
        <time>2019-08-28T10:45:54Z</time>
      </trkpt>
      <trkpt lat="36.4891630" lon="-5.2948030">
        <ele>245.9</ele>
        <time>2019-08-28T10:45:55Z</time>
      </trkpt>
      <trkpt lat="36.4891770" lon="-5.2947700">
        <ele>246.3</ele>
        <time>2019-08-28T10:45:56Z</time>
      </trkpt>
      <trkpt lat="36.4891910" lon="-5.2947370">
        <ele>246.7</ele>
        <time>2019-08-28T10:45:57Z</time>
      </trkpt>
      <trkpt lat="36.4892030" lon="-5.2947040">
        <ele>246.9</ele>
        <time>2019-08-28T10:45:58Z</time>
      </trkpt>
      <trkpt lat="36.4892150" lon="-5.2946710">
        <ele>247.1</ele>
        <time>2019-08-28T10:45:59Z</time>
      </trkpt>
      <trkpt lat="36.4892260" lon="-5.2946390">
        <ele>247.3</ele>
        <time>2019-08-28T10:46:00Z</time>
      </trkpt>
      <trkpt lat="36.4892360" lon="-5.2946080">
        <ele>247.5</ele>
        <time>2019-08-28T10:46:01Z</time>
      </trkpt>
      <trkpt lat="36.4892470" lon="-5.2945760">
        <ele>247.7</ele>
        <time>2019-08-28T10:46:02Z</time>
      </trkpt>
      <trkpt lat="36.4892590" lon="-5.2945450">
        <ele>247.9</ele>
        <time>2019-08-28T10:46:03Z</time>
      </trkpt>
      <trkpt lat="36.4892710" lon="-5.2945140">
        <ele>248.2</ele>
        <time>2019-08-28T10:46:04Z</time>
      </trkpt>
      <trkpt lat="36.4892830" lon="-5.2944830">
        <ele>248.4</ele>
        <time>2019-08-28T10:46:05Z</time>
      </trkpt>
      <trkpt lat="36.4892950" lon="-5.2944520">
        <ele>248.7</ele>
        <time>2019-08-28T10:46:06Z</time>
      </trkpt>
      <trkpt lat="36.4893050" lon="-5.2944190">
        <ele>249.0</ele>
        <time>2019-08-28T10:46:07Z</time>
      </trkpt>
      <trkpt lat="36.4893150" lon="-5.2943860">
        <ele>249.3</ele>
        <time>2019-08-28T10:46:08Z</time>
      </trkpt>
      <trkpt lat="36.4893250" lon="-5.2943520">
        <ele>249.4</ele>
        <time>2019-08-28T10:46:09Z</time>
      </trkpt>
      <trkpt lat="36.4893340" lon="-5.2943180">
        <ele>249.5</ele>
        <time>2019-08-28T10:46:10Z</time>
      </trkpt>
      <trkpt lat="36.4893440" lon="-5.2942850">
        <ele>249.6</ele>
        <time>2019-08-28T10:46:11Z</time>
      </trkpt>
      <trkpt lat="36.4893550" lon="-5.2942520">
        <ele>249.7</ele>
        <time>2019-08-28T10:46:12Z</time>
      </trkpt>
      <trkpt lat="36.4893650" lon="-5.2942190">
        <ele>249.8</ele>
        <time>2019-08-28T10:46:13Z</time>
      </trkpt>
      <trkpt lat="36.4893760" lon="-5.2941850">
        <ele>249.9</ele>
        <time>2019-08-28T10:46:14Z</time>
      </trkpt>
      <trkpt lat="36.4893860" lon="-5.2941510">
        <ele>250.0</ele>
        <time>2019-08-28T10:46:15Z</time>
      </trkpt>
      <trkpt lat="36.4893960" lon="-5.2941170">
        <ele>250.1</ele>
        <time>2019-08-28T10:46:16Z</time>
      </trkpt>
      <trkpt lat="36.4894080" lon="-5.2940840">
        <ele>250.2</ele>
        <time>2019-08-28T10:46:17Z</time>
      </trkpt>
      <trkpt lat="36.4894190" lon="-5.2940500">
        <ele>250.4</ele>
        <time>2019-08-28T10:46:18Z</time>
      </trkpt>
      <trkpt lat="36.4894310" lon="-5.2940170">
        <ele>250.5</ele>
        <time>2019-08-28T10:46:19Z</time>
      </trkpt>
      <trkpt lat="36.4894430" lon="-5.2939840">
        <ele>250.6</ele>
        <time>2019-08-28T10:46:20Z</time>
      </trkpt>
      <trkpt lat="36.4894550" lon="-5.2939500">
        <ele>250.7</ele>
        <time>2019-08-28T10:46:21Z</time>
      </trkpt>
      <trkpt lat="36.4894660" lon="-5.2939170">
        <ele>250.8</ele>
        <time>2019-08-28T10:46:22Z</time>
      </trkpt>
      <trkpt lat="36.4894780" lon="-5.2938830">
        <ele>251.0</ele>
        <time>2019-08-28T10:46:23Z</time>
      </trkpt>
      <trkpt lat="36.4894900" lon="-5.2938480">
        <ele>251.1</ele>
        <time>2019-08-28T10:46:24Z</time>
      </trkpt>
      <trkpt lat="36.4895020" lon="-5.2938140">
        <ele>251.2</ele>
        <time>2019-08-28T10:46:25Z</time>
      </trkpt>
      <trkpt lat="36.4895140" lon="-5.2937790">
        <ele>251.4</ele>
        <time>2019-08-28T10:46:26Z</time>
      </trkpt>
      <trkpt lat="36.4895250" lon="-5.2937440">
        <ele>251.5</ele>
        <time>2019-08-28T10:46:27Z</time>
      </trkpt>
      <trkpt lat="36.4895370" lon="-5.2937090">
        <ele>251.6</ele>
        <time>2019-08-28T10:46:28Z</time>
      </trkpt>
      <trkpt lat="36.4895490" lon="-5.2936730">
        <ele>251.6</ele>
        <time>2019-08-28T10:46:29Z</time>
      </trkpt>
      <trkpt lat="36.4895600" lon="-5.2936380">
        <ele>251.7</ele>
        <time>2019-08-28T10:46:30Z</time>
      </trkpt>
      <trkpt lat="36.4895720" lon="-5.2936020">
        <ele>251.8</ele>
        <time>2019-08-28T10:46:31Z</time>
      </trkpt>
      <trkpt lat="36.4895850" lon="-5.2935660">
        <ele>251.9</ele>
        <time>2019-08-28T10:46:32Z</time>
      </trkpt>
      <trkpt lat="36.4895970" lon="-5.2935310">
        <ele>252.0</ele>
        <time>2019-08-28T10:46:33Z</time>
      </trkpt>
      <trkpt lat="36.4896090" lon="-5.2934960">
        <ele>252.1</ele>
        <time>2019-08-28T10:46:34Z</time>
      </trkpt>
      <trkpt lat="36.4896200" lon="-5.2934610">
        <ele>252.2</ele>
        <time>2019-08-28T10:46:35Z</time>
      </trkpt>
      <trkpt lat="36.4896310" lon="-5.2934270">
        <ele>252.4</ele>
        <time>2019-08-28T10:46:36Z</time>
      </trkpt>
      <trkpt lat="36.4896420" lon="-5.2933930">
        <ele>252.5</ele>
        <time>2019-08-28T10:46:37Z</time>
      </trkpt>
      <trkpt lat="36.4896540" lon="-5.2933590">
        <ele>252.7</ele>
        <time>2019-08-28T10:46:38Z</time>
      </trkpt>
      <trkpt lat="36.4896660" lon="-5.2933260">
        <ele>252.8</ele>
        <time>2019-08-28T10:46:39Z</time>
      </trkpt>
      <trkpt lat="36.4896780" lon="-5.2932920">
        <ele>253.0</ele>
        <time>2019-08-28T10:46:40Z</time>
      </trkpt>
      <trkpt lat="36.4896900" lon="-5.2932580">
        <ele>253.2</ele>
        <time>2019-08-28T10:46:41Z</time>
      </trkpt>
      <trkpt lat="36.4897020" lon="-5.2932230">
        <ele>253.4</ele>
        <time>2019-08-28T10:46:42Z</time>
      </trkpt>
      <trkpt lat="36.4897130" lon="-5.2931870">
        <ele>253.6</ele>
        <time>2019-08-28T10:46:43Z</time>
      </trkpt>
      <trkpt lat="36.4897230" lon="-5.2931520">
        <ele>253.7</ele>
        <time>2019-08-28T10:46:44Z</time>
      </trkpt>
      <trkpt lat="36.4897350" lon="-5.2931170">
        <ele>253.9</ele>
        <time>2019-08-28T10:46:45Z</time>
      </trkpt>
      <trkpt lat="36.4897470" lon="-5.2930820">
        <ele>254.1</ele>
        <time>2019-08-28T10:46:46Z</time>
      </trkpt>
      <trkpt lat="36.4897580" lon="-5.2930470">
        <ele>254.3</ele>
        <time>2019-08-28T10:46:47Z</time>
      </trkpt>
      <trkpt lat="36.4897690" lon="-5.2930110">
        <ele>254.5</ele>
        <time>2019-08-28T10:46:48Z</time>
      </trkpt>
      <trkpt lat="36.4897800" lon="-5.2929760">
        <ele>254.7</ele>
        <time>2019-08-28T10:46:49Z</time>
      </trkpt>
      <trkpt lat="36.4897920" lon="-5.2929410">
        <ele>254.9</ele>
        <time>2019-08-28T10:46:50Z</time>
      </trkpt>
      <trkpt lat="36.4898030" lon="-5.2929060">
        <ele>255.1</ele>
        <time>2019-08-28T10:46:51Z</time>
      </trkpt>
      <trkpt lat="36.4898150" lon="-5.2928700">
        <ele>255.4</ele>
        <time>2019-08-28T10:46:52Z</time>
      </trkpt>
      <trkpt lat="36.4898280" lon="-5.2928350">
        <ele>255.6</ele>
        <time>2019-08-28T10:46:53Z</time>
      </trkpt>
      <trkpt lat="36.4898410" lon="-5.2927990">
        <ele>255.8</ele>
        <time>2019-08-28T10:46:54Z</time>
      </trkpt>
      <trkpt lat="36.4898540" lon="-5.2927630">
        <ele>256.0</ele>
        <time>2019-08-28T10:46:55Z</time>
      </trkpt>
      <trkpt lat="36.4898660" lon="-5.2927270">
        <ele>256.3</ele>
        <time>2019-08-28T10:46:56Z</time>
      </trkpt>
      <trkpt lat="36.4898790" lon="-5.2926900">
        <ele>256.5</ele>
        <time>2019-08-28T10:46:57Z</time>
      </trkpt>
      <trkpt lat="36.4898900" lon="-5.2926530">
        <ele>256.8</ele>
        <time>2019-08-28T10:46:58Z</time>
      </trkpt>
      <trkpt lat="36.4899010" lon="-5.2926150">
        <ele>257.0</ele>
        <time>2019-08-28T10:46:59Z</time>
      </trkpt>
      <trkpt lat="36.4899120" lon="-5.2925780">
        <ele>257.3</ele>
        <time>2019-08-28T10:47:00Z</time>
      </trkpt>
      <trkpt lat="36.4899230" lon="-5.2925400">
        <ele>257.5</ele>
        <time>2019-08-28T10:47:01Z</time>
      </trkpt>
      <trkpt lat="36.4899330" lon="-5.2925020">
        <ele>257.8</ele>
        <time>2019-08-28T10:47:02Z</time>
      </trkpt>
      <trkpt lat="36.4899420" lon="-5.2924640">
        <ele>258.0</ele>
        <time>2019-08-28T10:47:03Z</time>
      </trkpt>
      <trkpt lat="36.4899500" lon="-5.2924260">
        <ele>258.2</ele>
        <time>2019-08-28T10:47:04Z</time>
      </trkpt>
      <trkpt lat="36.4899560" lon="-5.2923880">
        <ele>258.5</ele>
        <time>2019-08-28T10:47:05Z</time>
      </trkpt>
      <trkpt lat="36.4899610" lon="-5.2923500">
        <ele>258.7</ele>
        <time>2019-08-28T10:47:06Z</time>
      </trkpt>
      <trkpt lat="36.4899650" lon="-5.2923120">
        <ele>258.9</ele>
        <time>2019-08-28T10:47:07Z</time>
      </trkpt>
      <trkpt lat="36.4899660" lon="-5.2922750">
        <ele>259.1</ele>
        <time>2019-08-28T10:47:08Z</time>
      </trkpt>
      <trkpt lat="36.4899670" lon="-5.2922380">
        <ele>259.3</ele>
        <time>2019-08-28T10:47:09Z</time>
      </trkpt>
      <trkpt lat="36.4899660" lon="-5.2922010">
        <ele>259.5</ele>
        <time>2019-08-28T10:47:10Z</time>
      </trkpt>
      <trkpt lat="36.4899640" lon="-5.2921650">
        <ele>259.7</ele>
        <time>2019-08-28T10:47:11Z</time>
      </trkpt>
      <trkpt lat="36.4899590" lon="-5.2921290">
        <ele>259.9</ele>
        <time>2019-08-28T10:47:12Z</time>
      </trkpt>
      <trkpt lat="36.4899530" lon="-5.2920950">
        <ele>260.1</ele>
        <time>2019-08-28T10:47:13Z</time>
      </trkpt>
      <trkpt lat="36.4899460" lon="-5.2920610">
        <ele>260.2</ele>
        <time>2019-08-28T10:47:14Z</time>
      </trkpt>
      <trkpt lat="36.4899380" lon="-5.2920280">
        <ele>260.4</ele>
        <time>2019-08-28T10:47:15Z</time>
      </trkpt>
      <trkpt lat="36.4899280" lon="-5.2919940">
        <ele>260.6</ele>
        <time>2019-08-28T10:47:16Z</time>
      </trkpt>
      <trkpt lat="36.4899170" lon="-5.2919610">
        <ele>260.7</ele>
        <time>2019-08-28T10:47:17Z</time>
      </trkpt>
      <trkpt lat="36.4899030" lon="-5.2919280">
        <ele>260.8</ele>
        <time>2019-08-28T10:47:18Z</time>
      </trkpt>
      <trkpt lat="36.4898900" lon="-5.2918950">
        <ele>260.9</ele>
        <time>2019-08-28T10:47:19Z</time>
      </trkpt>
      <trkpt lat="36.4898780" lon="-5.2918620">
        <ele>261.0</ele>
        <time>2019-08-28T10:47:20Z</time>
      </trkpt>
      <trkpt lat="36.4898650" lon="-5.2918300">
        <ele>261.2</ele>
        <time>2019-08-28T10:47:21Z</time>
      </trkpt>
      <trkpt lat="36.4898530" lon="-5.2917990">
        <ele>261.3</ele>
        <time>2019-08-28T10:47:22Z</time>
      </trkpt>
      <trkpt lat="36.4898400" lon="-5.2917670">
        <ele>261.4</ele>
        <time>2019-08-28T10:47:23Z</time>
      </trkpt>
      <trkpt lat="36.4898270" lon="-5.2917360">
        <ele>261.5</ele>
        <time>2019-08-28T10:47:24Z</time>
      </trkpt>
      <trkpt lat="36.4898140" lon="-5.2917050">
        <ele>261.6</ele>
        <time>2019-08-28T10:47:25Z</time>
      </trkpt>
      <trkpt lat="36.4898000" lon="-5.2916740">
        <ele>261.7</ele>
        <time>2019-08-28T10:47:26Z</time>
      </trkpt>
      <trkpt lat="36.4897840" lon="-5.2916450">
        <ele>261.8</ele>
        <time>2019-08-28T10:47:27Z</time>
      </trkpt>
      <trkpt lat="36.4897670" lon="-5.2916170">
        <ele>261.9</ele>
        <time>2019-08-28T10:47:28Z</time>
      </trkpt>
      <trkpt lat="36.4897490" lon="-5.2915890">
        <ele>262.0</ele>
        <time>2019-08-28T10:47:29Z</time>
      </trkpt>
      <trkpt lat="36.4897310" lon="-5.2915600">
        <ele>262.1</ele>
        <time>2019-08-28T10:47:30Z</time>
      </trkpt>
      <trkpt lat="36.4897140" lon="-5.2915300">
        <ele>262.2</ele>
        <time>2019-08-28T10:47:31Z</time>
      </trkpt>
      <trkpt lat="36.4896970" lon="-5.2915010">
        <ele>262.3</ele>
        <time>2019-08-28T10:47:32Z</time>
      </trkpt>
      <trkpt lat="36.4896810" lon="-5.2914710">
        <ele>262.4</ele>
        <time>2019-08-28T10:47:33Z</time>
      </trkpt>
      <trkpt lat="36.4896640" lon="-5.2914420">
        <ele>262.5</ele>
        <time>2019-08-28T10:47:34Z</time>
      </trkpt>
      <trkpt lat="36.4896470" lon="-5.2914120">
        <ele>262.7</ele>
        <time>2019-08-28T10:47:35Z</time>
      </trkpt>
      <trkpt lat="36.4896300" lon="-5.2913810">
        <ele>262.8</ele>
        <time>2019-08-28T10:47:36Z</time>
      </trkpt>
      <trkpt lat="36.4896140" lon="-5.2913510">
        <ele>262.9</ele>
        <time>2019-08-28T10:47:37Z</time>
      </trkpt>
      <trkpt lat="36.4895980" lon="-5.2913190">
        <ele>263.1</ele>
        <time>2019-08-28T10:47:38Z</time>
      </trkpt>
      <trkpt lat="36.4895830" lon="-5.2912880">
        <ele>263.3</ele>
        <time>2019-08-28T10:47:39Z</time>
      </trkpt>
      <trkpt lat="36.4895690" lon="-5.2912550">
        <ele>263.4</ele>
        <time>2019-08-28T10:47:40Z</time>
      </trkpt>
      <trkpt lat="36.4895560" lon="-5.2912220">
        <ele>263.6</ele>
        <time>2019-08-28T10:47:41Z</time>
      </trkpt>
      <trkpt lat="36.4895420" lon="-5.2911870">
        <ele>263.8</ele>
        <time>2019-08-28T10:47:42Z</time>
      </trkpt>
      <trkpt lat="36.4895280" lon="-5.2911530">
        <ele>264.0</ele>
        <time>2019-08-28T10:47:43Z</time>
      </trkpt>
      <trkpt lat="36.4895140" lon="-5.2911180">
        <ele>264.2</ele>
        <time>2019-08-28T10:47:44Z</time>
      </trkpt>
      <trkpt lat="36.4895040" lon="-5.2910830">
        <ele>264.4</ele>
        <time>2019-08-28T10:47:45Z</time>
      </trkpt>
      <trkpt lat="36.4894950" lon="-5.2910470">
        <ele>264.6</ele>
        <time>2019-08-28T10:47:46Z</time>
      </trkpt>
      <trkpt lat="36.4894870" lon="-5.2910100">
        <ele>264.8</ele>
        <time>2019-08-28T10:47:47Z</time>
      </trkpt>
      <trkpt lat="36.4894800" lon="-5.2909750">
        <ele>265.0</ele>
        <time>2019-08-28T10:47:48Z</time>
      </trkpt>
      <trkpt lat="36.4894760" lon="-5.2909380">
        <ele>265.2</ele>
        <time>2019-08-28T10:47:49Z</time>
      </trkpt>
      <trkpt lat="36.4894740" lon="-5.2909010">
        <ele>265.4</ele>
        <time>2019-08-28T10:47:50Z</time>
      </trkpt>
      <trkpt lat="36.4894740" lon="-5.2908630">
        <ele>265.6</ele>
        <time>2019-08-28T10:47:51Z</time>
      </trkpt>
      <trkpt lat="36.4894750" lon="-5.2908250">
        <ele>265.8</ele>
        <time>2019-08-28T10:47:52Z</time>
      </trkpt>
      <trkpt lat="36.4894780" lon="-5.2907860">
        <ele>266.1</ele>
        <time>2019-08-28T10:47:53Z</time>
      </trkpt>
      <trkpt lat="36.4894820" lon="-5.2907480">
        <ele>266.3</ele>
        <time>2019-08-28T10:47:54Z</time>
      </trkpt>
      <trkpt lat="36.4894880" lon="-5.2907100">
        <ele>266.5</ele>
        <time>2019-08-28T10:47:55Z</time>
      </trkpt>
      <trkpt lat="36.4894960" lon="-5.2906720">
        <ele>266.8</ele>
        <time>2019-08-28T10:47:56Z</time>
      </trkpt>
      <trkpt lat="36.4895040" lon="-5.2906350">
        <ele>267.0</ele>
        <time>2019-08-28T10:47:57Z</time>
      </trkpt>
      <trkpt lat="36.4895120" lon="-5.2905980">
        <ele>267.3</ele>
        <time>2019-08-28T10:47:58Z</time>
      </trkpt>
      <trkpt lat="36.4895200" lon="-5.2905610">
        <ele>267.5</ele>
        <time>2019-08-28T10:47:59Z</time>
      </trkpt>
      <trkpt lat="36.4895280" lon="-5.2905270">
        <ele>267.7</ele>
        <time>2019-08-28T10:48:00Z</time>
      </trkpt>
      <trkpt lat="36.4895360" lon="-5.2904930">
        <ele>267.9</ele>
        <time>2019-08-28T10:48:01Z</time>
      </trkpt>
      <trkpt lat="36.4895460" lon="-5.2904600">
        <ele>268.1</ele>
        <time>2019-08-28T10:48:02Z</time>
      </trkpt>
      <trkpt lat="36.4895570" lon="-5.2904230">
        <ele>268.4</ele>
        <time>2019-08-28T10:48:03Z</time>
      </trkpt>
      <trkpt lat="36.4895700" lon="-5.2903880">
        <ele>268.6</ele>
        <time>2019-08-28T10:48:04Z</time>
      </trkpt>
      <trkpt lat="36.4895830" lon="-5.2903530">
        <ele>268.8</ele>
        <time>2019-08-28T10:48:05Z</time>
      </trkpt>
      <trkpt lat="36.4895970" lon="-5.2903210">
        <ele>269.0</ele>
        <time>2019-08-28T10:48:06Z</time>
      </trkpt>
      <trkpt lat="36.4896100" lon="-5.2902890">
        <ele>269.3</ele>
        <time>2019-08-28T10:48:07Z</time>
      </trkpt>
      <trkpt lat="36.4896250" lon="-5.2902580">
        <ele>269.6</ele>
        <time>2019-08-28T10:48:08Z</time>
      </trkpt>
      <trkpt lat="36.4896410" lon="-5.2902280">
        <ele>269.8</ele>
        <time>2019-08-28T10:48:09Z</time>
      </trkpt>
      <trkpt lat="36.4896560" lon="-5.2901980">
        <ele>270.1</ele>
        <time>2019-08-28T10:48:10Z</time>
      </trkpt>
      <trkpt lat="36.4896730" lon="-5.2901700">
        <ele>270.3</ele>
        <time>2019-08-28T10:48:11Z</time>
      </trkpt>
      <trkpt lat="36.4896890" lon="-5.2901420">
        <ele>270.6</ele>
        <time>2019-08-28T10:48:12Z</time>
      </trkpt>
      <trkpt lat="36.4897070" lon="-5.2901150">
        <ele>270.8</ele>
        <time>2019-08-28T10:48:13Z</time>
      </trkpt>
      <trkpt lat="36.4897250" lon="-5.2900890">
        <ele>271.1</ele>
        <time>2019-08-28T10:48:14Z</time>
      </trkpt>
      <trkpt lat="36.4897450" lon="-5.2900640">
        <ele>271.3</ele>
        <time>2019-08-28T10:48:15Z</time>
      </trkpt>
      <trkpt lat="36.4897650" lon="-5.2900390">
        <ele>271.6</ele>
        <time>2019-08-28T10:48:16Z</time>
      </trkpt>
      <trkpt lat="36.4897850" lon="-5.2900150">
        <ele>271.9</ele>
        <time>2019-08-28T10:48:17Z</time>
      </trkpt>
      <trkpt lat="36.4898040" lon="-5.2899910">
        <ele>272.2</ele>
        <time>2019-08-28T10:48:18Z</time>
      </trkpt>
      <trkpt lat="36.4898220" lon="-5.2899680">
        <ele>272.4</ele>
        <time>2019-08-28T10:48:19Z</time>
      </trkpt>
      <trkpt lat="36.4898400" lon="-5.2899450">
        <ele>272.7</ele>
        <time>2019-08-28T10:48:20Z</time>
      </trkpt>
      <trkpt lat="36.4898580" lon="-5.2899250">
        <ele>272.9</ele>
        <time>2019-08-28T10:48:21Z</time>
      </trkpt>
      <trkpt lat="36.4898770" lon="-5.2899050">
        <ele>273.2</ele>
        <time>2019-08-28T10:48:22Z</time>
      </trkpt>
      <trkpt lat="36.4898970" lon="-5.2898850">
        <ele>273.5</ele>
        <time>2019-08-28T10:48:23Z</time>
      </trkpt>
      <trkpt lat="36.4899160" lon="-5.2898650">
        <ele>273.7</ele>
        <time>2019-08-28T10:48:24Z</time>
      </trkpt>
      <trkpt lat="36.4899350" lon="-5.2898450">
        <ele>274.0</ele>
        <time>2019-08-28T10:48:25Z</time>
      </trkpt>
      <trkpt lat="36.4899530" lon="-5.2898250">
        <ele>274.3</ele>
        <time>2019-08-28T10:48:26Z</time>
      </trkpt>
      <trkpt lat="36.4899710" lon="-5.2898050">
        <ele>274.6</ele>
        <time>2019-08-28T10:48:27Z</time>
      </trkpt>
      <trkpt lat="36.4899880" lon="-5.2897860">
        <ele>274.8</ele>
        <time>2019-08-28T10:48:28Z</time>
      </trkpt>
      <trkpt lat="36.4900040" lon="-5.2897660">
        <ele>275.1</ele>
        <time>2019-08-28T10:48:29Z</time>
      </trkpt>
      <trkpt lat="36.4900210" lon="-5.2897480">
        <ele>275.4</ele>
        <time>2019-08-28T10:48:30Z</time>
      </trkpt>
      <trkpt lat="36.4900380" lon="-5.2897290">
        <ele>275.7</ele>
        <time>2019-08-28T10:48:31Z</time>
      </trkpt>
      <trkpt lat="36.4900550" lon="-5.2897100">
        <ele>276.0</ele>
        <time>2019-08-28T10:48:32Z</time>
      </trkpt>
      <trkpt lat="36.4900720" lon="-5.2896920">
        <ele>276.2</ele>
        <time>2019-08-28T10:48:33Z</time>
      </trkpt>
      <trkpt lat="36.4900890" lon="-5.2896740">
        <ele>276.5</ele>
        <time>2019-08-28T10:48:34Z</time>
      </trkpt>
      <trkpt lat="36.4901060" lon="-5.2896550">
        <ele>276.8</ele>
        <time>2019-08-28T10:48:35Z</time>
      </trkpt>
      <trkpt lat="36.4901230" lon="-5.2896360">
        <ele>277.1</ele>
        <time>2019-08-28T10:48:36Z</time>
      </trkpt>
      <trkpt lat="36.4901390" lon="-5.2896170">
        <ele>277.5</ele>
        <time>2019-08-28T10:48:37Z</time>
      </trkpt>
      <trkpt lat="36.4901560" lon="-5.2895970">
        <ele>277.8</ele>
        <time>2019-08-28T10:48:38Z</time>
      </trkpt>
      <trkpt lat="36.4901730" lon="-5.2895770">
        <ele>278.1</ele>
        <time>2019-08-28T10:48:39Z</time>
      </trkpt>
      <trkpt lat="36.4901890" lon="-5.2895570">
        <ele>278.4</ele>
        <time>2019-08-28T10:48:40Z</time>
      </trkpt>
      <trkpt lat="36.4902040" lon="-5.2895370">
        <ele>278.7</ele>
        <time>2019-08-28T10:48:41Z</time>
      </trkpt>
      <trkpt lat="36.4902190" lon="-5.2895160">
        <ele>279.1</ele>
        <time>2019-08-28T10:48:42Z</time>
      </trkpt>
      <trkpt lat="36.4902340" lon="-5.2894960">
        <ele>279.4</ele>
        <time>2019-08-28T10:48:43Z</time>
      </trkpt>
      <trkpt lat="36.4902480" lon="-5.2894760">
        <ele>279.7</ele>
        <time>2019-08-28T10:48:44Z</time>
      </trkpt>
      <trkpt lat="36.4902620" lon="-5.2894550">
        <ele>280.0</ele>
        <time>2019-08-28T10:48:45Z</time>
      </trkpt>
      <trkpt lat="36.4902750" lon="-5.2894340">
        <ele>280.3</ele>
        <time>2019-08-28T10:48:46Z</time>
      </trkpt>
      <trkpt lat="36.4902880" lon="-5.2894120">
        <ele>280.6</ele>
        <time>2019-08-28T10:48:47Z</time>
      </trkpt>
      <trkpt lat="36.4903000" lon="-5.2893900">
        <ele>280.9</ele>
        <time>2019-08-28T10:48:48Z</time>
      </trkpt>
      <trkpt lat="36.4903120" lon="-5.2893670">
        <ele>281.2</ele>
        <time>2019-08-28T10:48:49Z</time>
      </trkpt>
      <trkpt lat="36.4903240" lon="-5.2893450">
        <ele>281.5</ele>
        <time>2019-08-28T10:48:50Z</time>
      </trkpt>
      <trkpt lat="36.4903350" lon="-5.2893220">
        <ele>281.8</ele>
        <time>2019-08-28T10:48:51Z</time>
      </trkpt>
      <trkpt lat="36.4903470" lon="-5.2893000">
        <ele>282.1</ele>
        <time>2019-08-28T10:48:52Z</time>
      </trkpt>
      <trkpt lat="36.4903580" lon="-5.2892760">
        <ele>282.3</ele>
        <time>2019-08-28T10:48:53Z</time>
      </trkpt>
      <trkpt lat="36.4903670" lon="-5.2892520">
        <ele>282.7</ele>
        <time>2019-08-28T10:48:54Z</time>
      </trkpt>
      <trkpt lat="36.4903740" lon="-5.2892270">
        <ele>283.0</ele>
        <time>2019-08-28T10:48:55Z</time>
      </trkpt>
      <trkpt lat="36.4903790" lon="-5.2892020">
        <ele>283.4</ele>
        <time>2019-08-28T10:48:56Z</time>
      </trkpt>
      <trkpt lat="36.4903830" lon="-5.2891760">
        <ele>283.7</ele>
        <time>2019-08-28T10:48:57Z</time>
      </trkpt>
      <trkpt lat="36.4903870" lon="-5.2891500">
        <ele>284.0</ele>
        <time>2019-08-28T10:48:58Z</time>
      </trkpt>
      <trkpt lat="36.4903920" lon="-5.2891240">
        <ele>284.3</ele>
        <time>2019-08-28T10:48:59Z</time>
      </trkpt>
      <trkpt lat="36.4903950" lon="-5.2890980">
        <ele>284.6</ele>
        <time>2019-08-28T10:49:00Z</time>
      </trkpt>
      <trkpt lat="36.4903940" lon="-5.2890700">
        <ele>284.8</ele>
        <time>2019-08-28T10:49:01Z</time>
      </trkpt>
      <trkpt lat="36.4903890" lon="-5.2890430">
        <ele>285.1</ele>
        <time>2019-08-28T10:49:02Z</time>
      </trkpt>
      <trkpt lat="36.4903790" lon="-5.2890160">
        <ele>285.4</ele>
        <time>2019-08-28T10:49:03Z</time>
      </trkpt>
      <trkpt lat="36.4903680" lon="-5.2889910">
        <ele>285.7</ele>
        <time>2019-08-28T10:49:04Z</time>
      </trkpt>
      <trkpt lat="36.4903570" lon="-5.2889670">
        <ele>286.0</ele>
        <time>2019-08-28T10:49:05Z</time>
      </trkpt>
      <trkpt lat="36.4903460" lon="-5.2889450">
        <ele>286.2</ele>
        <time>2019-08-28T10:49:06Z</time>
      </trkpt>
      <trkpt lat="36.4903360" lon="-5.2889250">
        <ele>286.5</ele>
        <time>2019-08-28T10:49:07Z</time>
      </trkpt>
      <trkpt lat="36.4903250" lon="-5.2889060">
        <ele>286.7</ele>
        <time>2019-08-28T10:49:08Z</time>
      </trkpt>
      <trkpt lat="36.4903120" lon="-5.2888880">
        <ele>286.9</ele>
        <time>2019-08-28T10:49:09Z</time>
      </trkpt>
      <trkpt lat="36.4902960" lon="-5.2888720">
        <ele>287.1</ele>
        <time>2019-08-28T10:49:10Z</time>
      </trkpt>
      <trkpt lat="36.4902780" lon="-5.2888580">
        <ele>287.3</ele>
        <time>2019-08-28T10:49:11Z</time>
      </trkpt>
      <trkpt lat="36.4902590" lon="-5.2888460">
        <ele>287.6</ele>
        <time>2019-08-28T10:49:12Z</time>
      </trkpt>
      <trkpt lat="36.4902400" lon="-5.2888350">
        <ele>287.8</ele>
        <time>2019-08-28T10:49:13Z</time>
      </trkpt>
      <trkpt lat="36.4902200" lon="-5.2888250">
        <ele>288.1</ele>
        <time>2019-08-28T10:49:14Z</time>
      </trkpt>
      <trkpt lat="36.4901990" lon="-5.2888160">
        <ele>288.3</ele>
        <time>2019-08-28T10:49:15Z</time>
      </trkpt>
      <trkpt lat="36.4901770" lon="-5.2888090">
        <ele>288.6</ele>
        <time>2019-08-28T10:49:16Z</time>
      </trkpt>
      <trkpt lat="36.4901550" lon="-5.2888030">
        <ele>288.8</ele>
        <time>2019-08-28T10:49:17Z</time>
      </trkpt>
      <trkpt lat="36.4901310" lon="-5.2887980">
        <ele>289.1</ele>
        <time>2019-08-28T10:49:18Z</time>
      </trkpt>
      <trkpt lat="36.4901060" lon="-5.2887950">
        <ele>289.4</ele>
        <time>2019-08-28T10:49:19Z</time>
      </trkpt>
      <trkpt lat="36.4900810" lon="-5.2887940">
        <ele>289.7</ele>
        <time>2019-08-28T10:49:20Z</time>
      </trkpt>
      <trkpt lat="36.4900550" lon="-5.2887960">
        <ele>290.0</ele>
        <time>2019-08-28T10:49:21Z</time>
      </trkpt>
      <trkpt lat="36.4900310" lon="-5.2887980">
        <ele>290.3</ele>
        <time>2019-08-28T10:49:22Z</time>
      </trkpt>
      <trkpt lat="36.4900060" lon="-5.2887990">
        <ele>290.6</ele>
        <time>2019-08-28T10:49:23Z</time>
      </trkpt>
      <trkpt lat="36.4899810" lon="-5.2888020">
        <ele>290.9</ele>
        <time>2019-08-28T10:49:24Z</time>
      </trkpt>
      <trkpt lat="36.4899570" lon="-5.2888050">
        <ele>291.2</ele>
        <time>2019-08-28T10:49:25Z</time>
      </trkpt>
      <trkpt lat="36.4899330" lon="-5.2888070">
        <ele>291.5</ele>
        <time>2019-08-28T10:49:26Z</time>
      </trkpt>
      <trkpt lat="36.4899080" lon="-5.2888090">
        <ele>291.9</ele>
        <time>2019-08-28T10:49:27Z</time>
      </trkpt>
      <trkpt lat="36.4898830" lon="-5.2888120">
        <ele>292.2</ele>
        <time>2019-08-28T10:49:28Z</time>
      </trkpt>
      <trkpt lat="36.4898580" lon="-5.2888160">
        <ele>292.5</ele>
        <time>2019-08-28T10:49:29Z</time>
      </trkpt>
      <trkpt lat="36.4898330" lon="-5.2888200">
        <ele>292.9</ele>
        <time>2019-08-28T10:49:30Z</time>
      </trkpt>
      <trkpt lat="36.4898090" lon="-5.2888260">
        <ele>293.3</ele>
        <time>2019-08-28T10:49:31Z</time>
      </trkpt>
      <trkpt lat="36.4897850" lon="-5.2888310">
        <ele>293.6</ele>
        <time>2019-08-28T10:49:32Z</time>
      </trkpt>
      <trkpt lat="36.4897600" lon="-5.2888370">
        <ele>294.0</ele>
        <time>2019-08-28T10:49:33Z</time>
      </trkpt>
      <trkpt lat="36.4897360" lon="-5.2888410">
        <ele>294.3</ele>
        <time>2019-08-28T10:49:34Z</time>
      </trkpt>
      <trkpt lat="36.4897110" lon="-5.2888460">
        <ele>294.7</ele>
        <time>2019-08-28T10:49:35Z</time>
      </trkpt>
      <trkpt lat="36.4896870" lon="-5.2888510">
        <ele>295.0</ele>
        <time>2019-08-28T10:49:36Z</time>
      </trkpt>
      <trkpt lat="36.4896620" lon="-5.2888570">
        <ele>295.3</ele>
        <time>2019-08-28T10:49:37Z</time>
      </trkpt>
      <trkpt lat="36.4896380" lon="-5.2888630">
        <ele>295.6</ele>
        <time>2019-08-28T10:49:38Z</time>
      </trkpt>
      <trkpt lat="36.4896130" lon="-5.2888680">
        <ele>296.0</ele>
        <time>2019-08-28T10:49:39Z</time>
      </trkpt>
      <trkpt lat="36.4895880" lon="-5.2888730">
        <ele>296.3</ele>
        <time>2019-08-28T10:49:40Z</time>
      </trkpt>
      <trkpt lat="36.4895630" lon="-5.2888780">
        <ele>296.6</ele>
        <time>2019-08-28T10:49:41Z</time>
      </trkpt>
      <trkpt lat="36.4895380" lon="-5.2888840">
        <ele>296.9</ele>
        <time>2019-08-28T10:49:42Z</time>
      </trkpt>
      <trkpt lat="36.4895130" lon="-5.2888900">
        <ele>297.2</ele>
        <time>2019-08-28T10:49:43Z</time>
      </trkpt>
      <trkpt lat="36.4894890" lon="-5.2888970">
        <ele>297.5</ele>
        <time>2019-08-28T10:49:44Z</time>
      </trkpt>
      <trkpt lat="36.4894650" lon="-5.2889040">
        <ele>297.8</ele>
        <time>2019-08-28T10:49:45Z</time>
      </trkpt>
      <trkpt lat="36.4894410" lon="-5.2889130">
        <ele>298.1</ele>
        <time>2019-08-28T10:49:46Z</time>
      </trkpt>
      <trkpt lat="36.4894170" lon="-5.2889210">
        <ele>298.4</ele>
        <time>2019-08-28T10:49:47Z</time>
      </trkpt>
      <trkpt lat="36.4893930" lon="-5.2889270">
        <ele>298.6</ele>
        <time>2019-08-28T10:49:48Z</time>
      </trkpt>
      <trkpt lat="36.4893680" lon="-5.2889330">
        <ele>298.9</ele>
        <time>2019-08-28T10:49:49Z</time>
      </trkpt>
      <trkpt lat="36.4893440" lon="-5.2889400">
        <ele>299.2</ele>
        <time>2019-08-28T10:49:50Z</time>
      </trkpt>
      <trkpt lat="36.4893190" lon="-5.2889470">
        <ele>299.5</ele>
        <time>2019-08-28T10:49:51Z</time>
      </trkpt>
      <trkpt lat="36.4892940" lon="-5.2889550">
        <ele>299.8</ele>
        <time>2019-08-28T10:49:52Z</time>
      </trkpt>
      <trkpt lat="36.4892690" lon="-5.2889630">
        <ele>300.0</ele>
        <time>2019-08-28T10:49:53Z</time>
      </trkpt>
      <trkpt lat="36.4892430" lon="-5.2889710">
        <ele>300.3</ele>
        <time>2019-08-28T10:49:54Z</time>
      </trkpt>
      <trkpt lat="36.4892180" lon="-5.2889790">
        <ele>300.5</ele>
        <time>2019-08-28T10:49:55Z</time>
      </trkpt>
      <trkpt lat="36.4891920" lon="-5.2889880">
        <ele>300.8</ele>
        <time>2019-08-28T10:49:56Z</time>
      </trkpt>
      <trkpt lat="36.4891670" lon="-5.2889960">
        <ele>301.1</ele>
        <time>2019-08-28T10:49:57Z</time>
      </trkpt>
      <trkpt lat="36.4891430" lon="-5.2890030">
        <ele>301.3</ele>
        <time>2019-08-28T10:49:58Z</time>
      </trkpt>
      <trkpt lat="36.4891180" lon="-5.2890110">
        <ele>301.6</ele>
        <time>2019-08-28T10:49:59Z</time>
      </trkpt>
      <trkpt lat="36.4890940" lon="-5.2890180">
        <ele>301.8</ele>
        <time>2019-08-28T10:50:00Z</time>
      </trkpt>
      <trkpt lat="36.4890700" lon="-5.2890260">
        <ele>302.1</ele>
        <time>2019-08-28T10:50:01Z</time>
      </trkpt>
      <trkpt lat="36.4890450" lon="-5.2890330">
        <ele>302.3</ele>
        <time>2019-08-28T10:50:02Z</time>
      </trkpt>
      <trkpt lat="36.4890200" lon="-5.2890410">
        <ele>302.6</ele>
        <time>2019-08-28T10:50:03Z</time>
      </trkpt>
      <trkpt lat="36.4889940" lon="-5.2890490">
        <ele>302.8</ele>
        <time>2019-08-28T10:50:04Z</time>
      </trkpt>
      <trkpt lat="36.4889690" lon="-5.2890580">
        <ele>303.1</ele>
        <time>2019-08-28T10:50:05Z</time>
      </trkpt>
      <trkpt lat="36.4889430" lon="-5.2890680">
        <ele>303.4</ele>
        <time>2019-08-28T10:50:06Z</time>
      </trkpt>
      <trkpt lat="36.4889180" lon="-5.2890760">
        <ele>303.6</ele>
        <time>2019-08-28T10:50:07Z</time>
      </trkpt>
      <trkpt lat="36.4888920" lon="-5.2890830">
        <ele>303.9</ele>
        <time>2019-08-28T10:50:08Z</time>
      </trkpt>
      <trkpt lat="36.4888670" lon="-5.2890900">
        <ele>304.1</ele>
        <time>2019-08-28T10:50:09Z</time>
      </trkpt>
      <trkpt lat="36.4888420" lon="-5.2890970">
        <ele>304.4</ele>
        <time>2019-08-28T10:50:10Z</time>
      </trkpt>
      <trkpt lat="36.4888170" lon="-5.2891040">
        <ele>304.6</ele>
        <time>2019-08-28T10:50:11Z</time>
      </trkpt>
      <trkpt lat="36.4887920" lon="-5.2891110">
        <ele>305.0</ele>
        <time>2019-08-28T10:50:12Z</time>
      </trkpt>
      <trkpt lat="36.4887670" lon="-5.2891190">
        <ele>305.3</ele>
        <time>2019-08-28T10:50:13Z</time>
      </trkpt>
      <trkpt lat="36.4887420" lon="-5.2891270">
        <ele>305.7</ele>
        <time>2019-08-28T10:50:14Z</time>
      </trkpt>
      <trkpt lat="36.4887170" lon="-5.2891350">
        <ele>306.0</ele>
        <time>2019-08-28T10:50:15Z</time>
      </trkpt>
      <trkpt lat="36.4886920" lon="-5.2891430">
        <ele>306.2</ele>
        <time>2019-08-28T10:50:16Z</time>
      </trkpt>
      <trkpt lat="36.4886680" lon="-5.2891510">
        <ele>306.4</ele>
        <time>2019-08-28T10:50:17Z</time>
      </trkpt>
      <trkpt lat="36.4886430" lon="-5.2891590">
        <ele>306.6</ele>
        <time>2019-08-28T10:50:18Z</time>
      </trkpt>
      <trkpt lat="36.4886190" lon="-5.2891680">
        <ele>306.8</ele>
        <time>2019-08-28T10:50:19Z</time>
      </trkpt>
      <trkpt lat="36.4885940" lon="-5.2891770">
        <ele>307.0</ele>
        <time>2019-08-28T10:50:20Z</time>
      </trkpt>
      <trkpt lat="36.4885690" lon="-5.2891860">
        <ele>307.2</ele>
        <time>2019-08-28T10:50:21Z</time>
      </trkpt>
      <trkpt lat="36.4885450" lon="-5.2891940">
        <ele>307.4</ele>
        <time>2019-08-28T10:50:22Z</time>
      </trkpt>
      <trkpt lat="36.4885200" lon="-5.2892020">
        <ele>307.6</ele>
        <time>2019-08-28T10:50:23Z</time>
      </trkpt>
      <trkpt lat="36.4884960" lon="-5.2892090">
        <ele>307.8</ele>
        <time>2019-08-28T10:50:24Z</time>
      </trkpt>
      <trkpt lat="36.4884720" lon="-5.2892170">
        <ele>308.1</ele>
        <time>2019-08-28T10:50:25Z</time>
      </trkpt>
      <trkpt lat="36.4884480" lon="-5.2892240">
        <ele>308.3</ele>
        <time>2019-08-28T10:50:26Z</time>
      </trkpt>
      <trkpt lat="36.4884230" lon="-5.2892310">
        <ele>308.5</ele>
        <time>2019-08-28T10:50:27Z</time>
      </trkpt>
      <trkpt lat="36.4883980" lon="-5.2892390">
        <ele>308.8</ele>
        <time>2019-08-28T10:50:28Z</time>
      </trkpt>
      <trkpt lat="36.4883730" lon="-5.2892470">
        <ele>309.0</ele>
        <time>2019-08-28T10:50:29Z</time>
      </trkpt>
      <trkpt lat="36.4883480" lon="-5.2892550">
        <ele>309.3</ele>
        <time>2019-08-28T10:50:30Z</time>
      </trkpt>
      <trkpt lat="36.4883240" lon="-5.2892620">
        <ele>309.5</ele>
        <time>2019-08-28T10:50:31Z</time>
      </trkpt>
      <trkpt lat="36.4883000" lon="-5.2892690">
        <ele>309.8</ele>
        <time>2019-08-28T10:50:32Z</time>
      </trkpt>
      <trkpt lat="36.4882760" lon="-5.2892760">
        <ele>310.0</ele>
        <time>2019-08-28T10:50:33Z</time>
      </trkpt>
      <trkpt lat="36.4882520" lon="-5.2892850">
        <ele>310.2</ele>
        <time>2019-08-28T10:50:34Z</time>
      </trkpt>
      <trkpt lat="36.4882270" lon="-5.2892940">
        <ele>310.5</ele>
        <time>2019-08-28T10:50:35Z</time>
      </trkpt>
      <trkpt lat="36.4882030" lon="-5.2893040">
        <ele>310.7</ele>
        <time>2019-08-28T10:50:36Z</time>
      </trkpt>
      <trkpt lat="36.4881780" lon="-5.2893130">
        <ele>310.9</ele>
        <time>2019-08-28T10:50:37Z</time>
      </trkpt>
      <trkpt lat="36.4881530" lon="-5.2893200">
        <ele>311.2</ele>
        <time>2019-08-28T10:50:38Z</time>
      </trkpt>
      <trkpt lat="36.4881270" lon="-5.2893280">
        <ele>311.5</ele>
        <time>2019-08-28T10:50:39Z</time>
      </trkpt>
      <trkpt lat="36.4881020" lon="-5.2893360">
        <ele>311.7</ele>
        <time>2019-08-28T10:50:40Z</time>
      </trkpt>
      <trkpt lat="36.4880770" lon="-5.2893440">
        <ele>312.0</ele>
        <time>2019-08-28T10:50:41Z</time>
      </trkpt>
      <trkpt lat="36.4880520" lon="-5.2893520">
        <ele>312.2</ele>
        <time>2019-08-28T10:50:42Z</time>
      </trkpt>
      <trkpt lat="36.4880270" lon="-5.2893600">
        <ele>312.5</ele>
        <time>2019-08-28T10:50:43Z</time>
      </trkpt>
      <trkpt lat="36.4880030" lon="-5.2893680">
        <ele>312.8</ele>
        <time>2019-08-28T10:50:44Z</time>
      </trkpt>
      <trkpt lat="36.4879790" lon="-5.2893760">
        <ele>313.1</ele>
        <time>2019-08-28T10:50:45Z</time>
      </trkpt>
      <trkpt lat="36.4879550" lon="-5.2893840">
        <ele>313.5</ele>
        <time>2019-08-28T10:50:46Z</time>
      </trkpt>
      <trkpt lat="36.4879310" lon="-5.2893920">
        <ele>313.9</ele>
        <time>2019-08-28T10:50:47Z</time>
      </trkpt>
      <trkpt lat="36.4879070" lon="-5.2894000">
        <ele>314.3</ele>
        <time>2019-08-28T10:50:48Z</time>
      </trkpt>
      <trkpt lat="36.4878830" lon="-5.2894080">
        <ele>314.6</ele>
        <time>2019-08-28T10:50:49Z</time>
      </trkpt>
      <trkpt lat="36.4878590" lon="-5.2894150">
        <ele>315.0</ele>
        <time>2019-08-28T10:50:50Z</time>
      </trkpt>
      <trkpt lat="36.4878360" lon="-5.2894230">
        <ele>315.2</ele>
        <time>2019-08-28T10:50:51Z</time>
      </trkpt>
      <trkpt lat="36.4878120" lon="-5.2894310">
        <ele>315.5</ele>
        <time>2019-08-28T10:50:52Z</time>
      </trkpt>
      <trkpt lat="36.4877890" lon="-5.2894400">
        <ele>315.7</ele>
        <time>2019-08-28T10:50:53Z</time>
      </trkpt>
      <trkpt lat="36.4877660" lon="-5.2894480">
        <ele>315.9</ele>
        <time>2019-08-28T10:50:54Z</time>
      </trkpt>
      <trkpt lat="36.4877430" lon="-5.2894560">
        <ele>316.1</ele>
        <time>2019-08-28T10:50:55Z</time>
      </trkpt>
      <trkpt lat="36.4877200" lon="-5.2894650">
        <ele>316.3</ele>
        <time>2019-08-28T10:50:56Z</time>
      </trkpt>
      <trkpt lat="36.4876970" lon="-5.2894730">
        <ele>316.5</ele>
        <time>2019-08-28T10:50:57Z</time>
      </trkpt>
      <trkpt lat="36.4876740" lon="-5.2894810">
        <ele>316.7</ele>
        <time>2019-08-28T10:50:58Z</time>
      </trkpt>
      <trkpt lat="36.4876520" lon="-5.2894890">
        <ele>316.9</ele>
        <time>2019-08-28T10:50:59Z</time>
      </trkpt>
      <trkpt lat="36.4876290" lon="-5.2894990">
        <ele>317.1</ele>
        <time>2019-08-28T10:51:00Z</time>
      </trkpt>
      <trkpt lat="36.4876080" lon="-5.2895080">
        <ele>317.4</ele>
        <time>2019-08-28T10:51:01Z</time>
      </trkpt>
      <trkpt lat="36.4875860" lon="-5.2895170">
        <ele>317.6</ele>
        <time>2019-08-28T10:51:02Z</time>
      </trkpt>
      <trkpt lat="36.4875630" lon="-5.2895260">
        <ele>317.9</ele>
        <time>2019-08-28T10:51:03Z</time>
      </trkpt>
      <trkpt lat="36.4875400" lon="-5.2895350">
        <ele>318.2</ele>
        <time>2019-08-28T10:51:04Z</time>
      </trkpt>
      <trkpt lat="36.4875170" lon="-5.2895460">
        <ele>318.4</ele>
        <time>2019-08-28T10:51:05Z</time>
      </trkpt>
      <trkpt lat="36.4874930" lon="-5.2895560">
        <ele>318.7</ele>
        <time>2019-08-28T10:51:06Z</time>
      </trkpt>
      <trkpt lat="36.4874690" lon="-5.2895660">
        <ele>318.9</ele>
        <time>2019-08-28T10:51:07Z</time>
      </trkpt>
      <trkpt lat="36.4874450" lon="-5.2895770">
        <ele>319.2</ele>
        <time>2019-08-28T10:51:08Z</time>
      </trkpt>
      <trkpt lat="36.4874220" lon="-5.2895870">
        <ele>319.4</ele>
        <time>2019-08-28T10:51:09Z</time>
      </trkpt>
      <trkpt lat="36.4873980" lon="-5.2895980">
        <ele>319.6</ele>
        <time>2019-08-28T10:51:10Z</time>
      </trkpt>
      <trkpt lat="36.4873740" lon="-5.2896080">
        <ele>319.8</ele>
        <time>2019-08-28T10:51:11Z</time>
      </trkpt>
      <trkpt lat="36.4873510" lon="-5.2896190">
        <ele>320.0</ele>
        <time>2019-08-28T10:51:12Z</time>
      </trkpt>
      <trkpt lat="36.4873280" lon="-5.2896300">
        <ele>320.2</ele>
        <time>2019-08-28T10:51:13Z</time>
      </trkpt>
      <trkpt lat="36.4873050" lon="-5.2896420">
        <ele>320.4</ele>
        <time>2019-08-28T10:51:14Z</time>
      </trkpt>
      <trkpt lat="36.4872810" lon="-5.2896540">
        <ele>320.6</ele>
        <time>2019-08-28T10:51:15Z</time>
      </trkpt>
      <trkpt lat="36.4872580" lon="-5.2896660">
        <ele>320.8</ele>
        <time>2019-08-28T10:51:16Z</time>
      </trkpt>
      <trkpt lat="36.4872350" lon="-5.2896790">
        <ele>320.9</ele>
        <time>2019-08-28T10:51:17Z</time>
      </trkpt>
      <trkpt lat="36.4872120" lon="-5.2896910">
        <ele>321.0</ele>
        <time>2019-08-28T10:51:18Z</time>
      </trkpt>
      <trkpt lat="36.4871900" lon="-5.2897020">
        <ele>321.2</ele>
        <time>2019-08-28T10:51:19Z</time>
      </trkpt>
      <trkpt lat="36.4871680" lon="-5.2897150">
        <ele>321.3</ele>
        <time>2019-08-28T10:51:20Z</time>
      </trkpt>
      <trkpt lat="36.4871470" lon="-5.2897270">
        <ele>321.5</ele>
        <time>2019-08-28T10:51:21Z</time>
      </trkpt>
      <trkpt lat="36.4871250" lon="-5.2897400">
        <ele>321.6</ele>
        <time>2019-08-28T10:51:22Z</time>
      </trkpt>
      <trkpt lat="36.4871030" lon="-5.2897530">
        <ele>321.7</ele>
        <time>2019-08-28T10:51:23Z</time>
      </trkpt>
      <trkpt lat="36.4870810" lon="-5.2897670">
        <ele>321.9</ele>
        <time>2019-08-28T10:51:24Z</time>
      </trkpt>
      <trkpt lat="36.4870600" lon="-5.2897810">
        <ele>322.1</ele>
        <time>2019-08-28T10:51:25Z</time>
      </trkpt>
      <trkpt lat="36.4870390" lon="-5.2897950">
        <ele>322.2</ele>
        <time>2019-08-28T10:51:26Z</time>
      </trkpt>
      <trkpt lat="36.4870170" lon="-5.2898080">
        <ele>322.4</ele>
        <time>2019-08-28T10:51:27Z</time>
      </trkpt>
      <trkpt lat="36.4869950" lon="-5.2898210">
        <ele>322.6</ele>
        <time>2019-08-28T10:51:28Z</time>
      </trkpt>
      <trkpt lat="36.4869730" lon="-5.2898350">
        <ele>322.8</ele>
        <time>2019-08-28T10:51:29Z</time>
      </trkpt>
      <trkpt lat="36.4869510" lon="-5.2898470">
        <ele>323.0</ele>
        <time>2019-08-28T10:51:30Z</time>
      </trkpt>
      <trkpt lat="36.4869290" lon="-5.2898600">
        <ele>323.1</ele>
        <time>2019-08-28T10:51:31Z</time>
      </trkpt>
      <trkpt lat="36.4869070" lon="-5.2898740">
        <ele>323.3</ele>
        <time>2019-08-28T10:51:32Z</time>
      </trkpt>
      <trkpt lat="36.4868860" lon="-5.2898890">
        <ele>323.5</ele>
        <time>2019-08-28T10:51:33Z</time>
      </trkpt>
      <trkpt lat="36.4868650" lon="-5.2899040">
        <ele>323.6</ele>
        <time>2019-08-28T10:51:34Z</time>
      </trkpt>
      <trkpt lat="36.4868440" lon="-5.2899180">
        <ele>323.8</ele>
        <time>2019-08-28T10:51:35Z</time>
      </trkpt>
      <trkpt lat="36.4868220" lon="-5.2899310">
        <ele>323.9</ele>
        <time>2019-08-28T10:51:36Z</time>
      </trkpt>
      <trkpt lat="36.4868000" lon="-5.2899440">
        <ele>324.1</ele>
        <time>2019-08-28T10:51:37Z</time>
      </trkpt>
      <trkpt lat="36.4867790" lon="-5.2899580">
        <ele>324.2</ele>
        <time>2019-08-28T10:51:38Z</time>
      </trkpt>
      <trkpt lat="36.4867570" lon="-5.2899720">
        <ele>324.3</ele>
        <time>2019-08-28T10:51:39Z</time>
      </trkpt>
      <trkpt lat="36.4867350" lon="-5.2899850">
        <ele>324.4</ele>
        <time>2019-08-28T10:51:40Z</time>
      </trkpt>
      <trkpt lat="36.4867130" lon="-5.2899980">
        <ele>324.5</ele>
        <time>2019-08-28T10:51:41Z</time>
      </trkpt>
      <trkpt lat="36.4866900" lon="-5.2900120">
        <ele>324.7</ele>
        <time>2019-08-28T10:51:42Z</time>
      </trkpt>
      <trkpt lat="36.4866670" lon="-5.2900270">
        <ele>324.8</ele>
        <time>2019-08-28T10:51:43Z</time>
      </trkpt>
      <trkpt lat="36.4866440" lon="-5.2900410">
        <ele>324.9</ele>
        <time>2019-08-28T10:51:44Z</time>
      </trkpt>
      <trkpt lat="36.4866210" lon="-5.2900540">
        <ele>325.0</ele>
        <time>2019-08-28T10:51:45Z</time>
      </trkpt>
      <trkpt lat="36.4865980" lon="-5.2900680">
        <ele>325.1</ele>
        <time>2019-08-28T10:51:46Z</time>
      </trkpt>
      <trkpt lat="36.4865750" lon="-5.2900820">
        <ele>325.2</ele>
        <time>2019-08-28T10:51:47Z</time>
      </trkpt>
      <trkpt lat="36.4865510" lon="-5.2900960">
        <ele>325.3</ele>
        <time>2019-08-28T10:51:48Z</time>
      </trkpt>
      <trkpt lat="36.4865280" lon="-5.2901110">
        <ele>325.4</ele>
        <time>2019-08-28T10:51:49Z</time>
      </trkpt>
      <trkpt lat="36.4865040" lon="-5.2901260">
        <ele>325.5</ele>
        <time>2019-08-28T10:51:50Z</time>
      </trkpt>
      <trkpt lat="36.4864800" lon="-5.2901410">
        <ele>325.6</ele>
        <time>2019-08-28T10:51:51Z</time>
      </trkpt>
      <trkpt lat="36.4864550" lon="-5.2901550">
        <ele>325.7</ele>
        <time>2019-08-28T10:51:52Z</time>
      </trkpt>
      <trkpt lat="36.4864310" lon="-5.2901700">
        <ele>325.8</ele>
        <time>2019-08-28T10:51:53Z</time>
      </trkpt>
      <trkpt lat="36.4864070" lon="-5.2901850">
        <ele>325.9</ele>
        <time>2019-08-28T10:51:54Z</time>
      </trkpt>
      <trkpt lat="36.4863830" lon="-5.2901990">
        <ele>326.0</ele>
        <time>2019-08-28T10:51:55Z</time>
      </trkpt>
      <trkpt lat="36.4863580" lon="-5.2902140">
        <ele>326.1</ele>
        <time>2019-08-28T10:51:56Z</time>
      </trkpt>
      <trkpt lat="36.4863340" lon="-5.2902280">
        <ele>326.2</ele>
        <time>2019-08-28T10:51:57Z</time>
      </trkpt>
      <trkpt lat="36.4863080" lon="-5.2902420">
        <ele>326.3</ele>
        <time>2019-08-28T10:51:58Z</time>
      </trkpt>
      <trkpt lat="36.4862820" lon="-5.2902550">
        <ele>326.3</ele>
        <time>2019-08-28T10:51:59Z</time>
      </trkpt>
      <trkpt lat="36.4862560" lon="-5.2902680">
        <ele>326.4</ele>
        <time>2019-08-28T10:52:00Z</time>
      </trkpt>
      <trkpt lat="36.4862310" lon="-5.2902810">
        <ele>326.5</ele>
        <time>2019-08-28T10:52:01Z</time>
      </trkpt>
      <trkpt lat="36.4862050" lon="-5.2902950">
        <ele>326.6</ele>
        <time>2019-08-28T10:52:02Z</time>
      </trkpt>
      <trkpt lat="36.4861790" lon="-5.2903080">
        <ele>326.6</ele>
        <time>2019-08-28T10:52:03Z</time>
      </trkpt>
      <trkpt lat="36.4861530" lon="-5.2903220">
        <ele>326.7</ele>
        <time>2019-08-28T10:52:04Z</time>
      </trkpt>
      <trkpt lat="36.4861270" lon="-5.2903350">
        <ele>326.8</ele>
        <time>2019-08-28T10:52:05Z</time>
      </trkpt>
      <trkpt lat="36.4861010" lon="-5.2903480">
        <ele>326.8</ele>
        <time>2019-08-28T10:52:06Z</time>
      </trkpt>
      <trkpt lat="36.4860750" lon="-5.2903610">
        <ele>326.9</ele>
        <time>2019-08-28T10:52:07Z</time>
      </trkpt>
      <trkpt lat="36.4860490" lon="-5.2903740">
        <ele>326.9</ele>
        <time>2019-08-28T10:52:08Z</time>
      </trkpt>
      <trkpt lat="36.4860220" lon="-5.2903870">
        <ele>327.0</ele>
        <time>2019-08-28T10:52:09Z</time>
      </trkpt>
      <trkpt lat="36.4859950" lon="-5.2903990">
        <ele>327.1</ele>
        <time>2019-08-28T10:52:10Z</time>
      </trkpt>
      <trkpt lat="36.4859670" lon="-5.2904120">
        <ele>327.1</ele>
        <time>2019-08-28T10:52:11Z</time>
      </trkpt>
      <trkpt lat="36.4859390" lon="-5.2904250">
        <ele>327.2</ele>
        <time>2019-08-28T10:52:12Z</time>
      </trkpt>
      <trkpt lat="36.4859120" lon="-5.2904380">
        <ele>327.2</ele>
        <time>2019-08-28T10:52:13Z</time>
      </trkpt>
      <trkpt lat="36.4858840" lon="-5.2904500">
        <ele>327.3</ele>
        <time>2019-08-28T10:52:14Z</time>
      </trkpt>
      <trkpt lat="36.4858560" lon="-5.2904630">
        <ele>327.4</ele>
        <time>2019-08-28T10:52:15Z</time>
      </trkpt>
      <trkpt lat="36.4858280" lon="-5.2904750">
        <ele>327.5</ele>
        <time>2019-08-28T10:52:16Z</time>
      </trkpt>
      <trkpt lat="36.4857980" lon="-5.2904890">
        <ele>327.6</ele>
        <time>2019-08-28T10:52:17Z</time>
      </trkpt>
      <trkpt lat="36.4857680" lon="-5.2905030">
        <ele>327.7</ele>
        <time>2019-08-28T10:52:18Z</time>
      </trkpt>
      <trkpt lat="36.4857370" lon="-5.2905170">
        <ele>327.8</ele>
        <time>2019-08-28T10:52:19Z</time>
      </trkpt>
      <trkpt lat="36.4857050" lon="-5.2905320">
        <ele>328.0</ele>
        <time>2019-08-28T10:52:20Z</time>
      </trkpt>
      <trkpt lat="36.4856740" lon="-5.2905470">
        <ele>328.1</ele>
        <time>2019-08-28T10:52:21Z</time>
      </trkpt>
      <trkpt lat="36.4856410" lon="-5.2905610">
        <ele>328.2</ele>
        <time>2019-08-28T10:52:22Z</time>
      </trkpt>
      <trkpt lat="36.4856070" lon="-5.2905750">
        <ele>328.3</ele>
        <time>2019-08-28T10:52:23Z</time>
      </trkpt>
      <trkpt lat="36.4855720" lon="-5.2905900">
        <ele>328.5</ele>
        <time>2019-08-28T10:52:24Z</time>
      </trkpt>
      <trkpt lat="36.4855350" lon="-5.2906060">
        <ele>328.6</ele>
        <time>2019-08-28T10:52:25Z</time>
      </trkpt>
      <trkpt lat="36.4854980" lon="-5.2906210">
        <ele>328.8</ele>
        <time>2019-08-28T10:52:26Z</time>
      </trkpt>
      <trkpt lat="36.4854600" lon="-5.2906370">
        <ele>329.0</ele>
        <time>2019-08-28T10:52:27Z</time>
      </trkpt>
      <trkpt lat="36.4854230" lon="-5.2906520">
        <ele>329.2</ele>
        <time>2019-08-28T10:52:28Z</time>
      </trkpt>
      <trkpt lat="36.4853860" lon="-5.2906690">
        <ele>329.3</ele>
        <time>2019-08-28T10:52:29Z</time>
      </trkpt>
      <trkpt lat="36.4853480" lon="-5.2906860">
        <ele>329.5</ele>
        <time>2019-08-28T10:52:30Z</time>
      </trkpt>
      <trkpt lat="36.4853100" lon="-5.2907030">
        <ele>329.6</ele>
        <time>2019-08-28T10:52:31Z</time>
      </trkpt>
      <trkpt lat="36.4852710" lon="-5.2907200">
        <ele>329.8</ele>
        <time>2019-08-28T10:52:32Z</time>
      </trkpt>
      <trkpt lat="36.4852330" lon="-5.2907360">
        <ele>330.0</ele>
        <time>2019-08-28T10:52:33Z</time>
      </trkpt>
      <trkpt lat="36.4851940" lon="-5.2907530">
        <ele>330.1</ele>
        <time>2019-08-28T10:52:34Z</time>
      </trkpt>
      <trkpt lat="36.4851560" lon="-5.2907710">
        <ele>330.3</ele>
        <time>2019-08-28T10:52:35Z</time>
      </trkpt>
      <trkpt lat="36.4851180" lon="-5.2907880">
        <ele>330.5</ele>
        <time>2019-08-28T10:52:36Z</time>
      </trkpt>
      <trkpt lat="36.4850790" lon="-5.2908060">
        <ele>330.7</ele>
        <time>2019-08-28T10:52:37Z</time>
      </trkpt>
      <trkpt lat="36.4850410" lon="-5.2908230">
        <ele>330.9</ele>
        <time>2019-08-28T10:52:38Z</time>
      </trkpt>
      <trkpt lat="36.4850030" lon="-5.2908400">
        <ele>331.1</ele>
        <time>2019-08-28T10:52:39Z</time>
      </trkpt>
      <trkpt lat="36.4849650" lon="-5.2908570">
        <ele>331.3</ele>
        <time>2019-08-28T10:52:40Z</time>
      </trkpt>
      <trkpt lat="36.4849280" lon="-5.2908740">
        <ele>331.5</ele>
        <time>2019-08-28T10:52:41Z</time>
      </trkpt>
      <trkpt lat="36.4848910" lon="-5.2908920">
        <ele>331.7</ele>
        <time>2019-08-28T10:52:42Z</time>
      </trkpt>
      <trkpt lat="36.4848540" lon="-5.2909090">
        <ele>331.8</ele>
        <time>2019-08-28T10:52:43Z</time>
      </trkpt>
      <trkpt lat="36.4848170" lon="-5.2909260">
        <ele>332.1</ele>
        <time>2019-08-28T10:52:44Z</time>
      </trkpt>
      <trkpt lat="36.4847810" lon="-5.2909430">
        <ele>332.2</ele>
        <time>2019-08-28T10:52:45Z</time>
      </trkpt>
      <trkpt lat="36.4847450" lon="-5.2909600">
        <ele>332.3</ele>
        <time>2019-08-28T10:52:46Z</time>
      </trkpt>
      <trkpt lat="36.4847090" lon="-5.2909780">
        <ele>332.4</ele>
        <time>2019-08-28T10:52:47Z</time>
      </trkpt>
      <trkpt lat="36.4846730" lon="-5.2909950">
        <ele>332.5</ele>
        <time>2019-08-28T10:52:48Z</time>
      </trkpt>
      <trkpt lat="36.4846380" lon="-5.2910130">
        <ele>332.6</ele>
        <time>2019-08-28T10:52:49Z</time>
      </trkpt>
      <trkpt lat="36.4846020" lon="-5.2910310">
        <ele>332.7</ele>
        <time>2019-08-28T10:52:50Z</time>
      </trkpt>
      <trkpt lat="36.4845660" lon="-5.2910490">
        <ele>332.8</ele>
        <time>2019-08-28T10:52:51Z</time>
      </trkpt>
      <trkpt lat="36.4845300" lon="-5.2910670">
        <ele>332.9</ele>
        <time>2019-08-28T10:52:52Z</time>
      </trkpt>
      <trkpt lat="36.4844940" lon="-5.2910850">
        <ele>333.0</ele>
        <time>2019-08-28T10:52:53Z</time>
      </trkpt>
      <trkpt lat="36.4844580" lon="-5.2911030">
        <ele>333.0</ele>
        <time>2019-08-28T10:52:54Z</time>
      </trkpt>
      <trkpt lat="36.4844220" lon="-5.2911220">
        <ele>333.1</ele>
        <time>2019-08-28T10:52:55Z</time>
      </trkpt>
      <trkpt lat="36.4843860" lon="-5.2911390">
        <ele>333.1</ele>
        <time>2019-08-28T10:52:56Z</time>
      </trkpt>
      <trkpt lat="36.4843500" lon="-5.2911560">
        <ele>333.1</ele>
        <time>2019-08-28T10:52:57Z</time>
      </trkpt>
      <trkpt lat="36.4843140" lon="-5.2911720">
        <ele>333.2</ele>
        <time>2019-08-28T10:52:58Z</time>
      </trkpt>
      <trkpt lat="36.4842780" lon="-5.2911880">
        <ele>333.2</ele>
        <time>2019-08-28T10:52:59Z</time>
      </trkpt>
      <trkpt lat="36.4842420" lon="-5.2912040">
        <ele>333.2</ele>
        <time>2019-08-28T10:53:00Z</time>
      </trkpt>
      <trkpt lat="36.4842060" lon="-5.2912180">
        <ele>333.2</ele>
        <time>2019-08-28T10:53:01Z</time>
      </trkpt>
      <trkpt lat="36.4841700" lon="-5.2912330">
        <ele>333.2</ele>
        <time>2019-08-28T10:53:02Z</time>
      </trkpt>
      <trkpt lat="36.4841330" lon="-5.2912470">
        <ele>333.2</ele>
        <time>2019-08-28T10:53:03Z</time>
      </trkpt>
      <trkpt lat="36.4840960" lon="-5.2912620">
        <ele>333.2</ele>
        <time>2019-08-28T10:53:04Z</time>
      </trkpt>
      <trkpt lat="36.4840580" lon="-5.2912770">
        <ele>333.2</ele>
        <time>2019-08-28T10:53:05Z</time>
      </trkpt>
      <trkpt lat="36.4840190" lon="-5.2912920">
        <ele>333.2</ele>
        <time>2019-08-28T10:53:06Z</time>
      </trkpt>
      <trkpt lat="36.4839800" lon="-5.2913070">
        <ele>333.2</ele>
        <time>2019-08-28T10:53:07Z</time>
      </trkpt>
      <trkpt lat="36.4839400" lon="-5.2913230">
        <ele>333.2</ele>
        <time>2019-08-28T10:53:08Z</time>
      </trkpt>
      <trkpt lat="36.4838990" lon="-5.2913380">
        <ele>333.2</ele>
        <time>2019-08-28T10:53:09Z</time>
      </trkpt>
      <trkpt lat="36.4838580" lon="-5.2913520">
        <ele>333.3</ele>
        <time>2019-08-28T10:53:10Z</time>
      </trkpt>
      <trkpt lat="36.4838160" lon="-5.2913650">
        <ele>333.4</ele>
        <time>2019-08-28T10:53:11Z</time>
      </trkpt>
      <trkpt lat="36.4837740" lon="-5.2913790">
        <ele>333.5</ele>
        <time>2019-08-28T10:53:12Z</time>
      </trkpt>
      <trkpt lat="36.4837330" lon="-5.2913930">
        <ele>333.6</ele>
        <time>2019-08-28T10:53:13Z</time>
      </trkpt>
      <trkpt lat="36.4836930" lon="-5.2914090">
        <ele>333.8</ele>
        <time>2019-08-28T10:53:14Z</time>
      </trkpt>
      <trkpt lat="36.4836520" lon="-5.2914250">
        <ele>333.9</ele>
        <time>2019-08-28T10:53:15Z</time>
      </trkpt>
      <trkpt lat="36.4836120" lon="-5.2914400">
        <ele>334.1</ele>
        <time>2019-08-28T10:53:16Z</time>
      </trkpt>
      <trkpt lat="36.4835720" lon="-5.2914560">
        <ele>334.3</ele>
        <time>2019-08-28T10:53:17Z</time>
      </trkpt>
      <trkpt lat="36.4835310" lon="-5.2914700">
        <ele>334.6</ele>
        <time>2019-08-28T10:53:18Z</time>
      </trkpt>
      <trkpt lat="36.4834900" lon="-5.2914840">
        <ele>334.8</ele>
        <time>2019-08-28T10:53:19Z</time>
      </trkpt>
      <trkpt lat="36.4834490" lon="-5.2914980">
        <ele>335.1</ele>
        <time>2019-08-28T10:53:20Z</time>
      </trkpt>
      <trkpt lat="36.4834080" lon="-5.2915110">
        <ele>335.4</ele>
        <time>2019-08-28T10:53:21Z</time>
      </trkpt>
      <trkpt lat="36.4833670" lon="-5.2915240">
        <ele>335.7</ele>
        <time>2019-08-28T10:53:22Z</time>
      </trkpt>
      <trkpt lat="36.4833260" lon="-5.2915350">
        <ele>335.9</ele>
        <time>2019-08-28T10:53:23Z</time>
      </trkpt>
      <trkpt lat="36.4832840" lon="-5.2915450">
        <ele>336.2</ele>
        <time>2019-08-28T10:53:24Z</time>
      </trkpt>
      <trkpt lat="36.4832420" lon="-5.2915550">
        <ele>336.5</ele>
        <time>2019-08-28T10:53:25Z</time>
      </trkpt>
      <trkpt lat="36.4832000" lon="-5.2915640">
        <ele>336.7</ele>
        <time>2019-08-28T10:53:26Z</time>
      </trkpt>
      <trkpt lat="36.4831580" lon="-5.2915730">
        <ele>337.0</ele>
        <time>2019-08-28T10:53:27Z</time>
      </trkpt>
      <trkpt lat="36.4831160" lon="-5.2915830">
        <ele>337.2</ele>
        <time>2019-08-28T10:53:28Z</time>
      </trkpt>
      <trkpt lat="36.4830730" lon="-5.2915930">
        <ele>337.4</ele>
        <time>2019-08-28T10:53:29Z</time>
      </trkpt>
      <trkpt lat="36.4830310" lon="-5.2916030">
        <ele>337.6</ele>
        <time>2019-08-28T10:53:30Z</time>
      </trkpt>
      <trkpt lat="36.4829890" lon="-5.2916130">
        <ele>337.8</ele>
        <time>2019-08-28T10:53:31Z</time>
      </trkpt>
      <trkpt lat="36.4829470" lon="-5.2916230">
        <ele>338.0</ele>
        <time>2019-08-28T10:53:32Z</time>
      </trkpt>
      <trkpt lat="36.4829040" lon="-5.2916340">
        <ele>338.1</ele>
        <time>2019-08-28T10:53:33Z</time>
      </trkpt>
      <trkpt lat="36.4828610" lon="-5.2916440">
        <ele>338.3</ele>
        <time>2019-08-28T10:53:34Z</time>
      </trkpt>
      <trkpt lat="36.4828180" lon="-5.2916540">
        <ele>338.4</ele>
        <time>2019-08-28T10:53:35Z</time>
      </trkpt>
      <trkpt lat="36.4827750" lon="-5.2916640">
        <ele>338.6</ele>
        <time>2019-08-28T10:53:36Z</time>
      </trkpt>
      <trkpt lat="36.4827330" lon="-5.2916740">
        <ele>338.7</ele>
        <time>2019-08-28T10:53:37Z</time>
      </trkpt>
      <trkpt lat="36.4826910" lon="-5.2916850">
        <ele>338.9</ele>
        <time>2019-08-28T10:53:38Z</time>
      </trkpt>
      <trkpt lat="36.4826490" lon="-5.2916950">
        <ele>339.0</ele>
        <time>2019-08-28T10:53:39Z</time>
      </trkpt>
      <trkpt lat="36.4826070" lon="-5.2917060">
        <ele>339.1</ele>
        <time>2019-08-28T10:53:40Z</time>
      </trkpt>
      <trkpt lat="36.4825660" lon="-5.2917170">
        <ele>339.3</ele>
        <time>2019-08-28T10:53:41Z</time>
      </trkpt>
      <trkpt lat="36.4825250" lon="-5.2917280">
        <ele>339.4</ele>
        <time>2019-08-28T10:53:42Z</time>
      </trkpt>
      <trkpt lat="36.4824840" lon="-5.2917390">
        <ele>339.6</ele>
        <time>2019-08-28T10:53:43Z</time>
      </trkpt>
      <trkpt lat="36.4824430" lon="-5.2917480">
        <ele>339.7</ele>
        <time>2019-08-28T10:53:44Z</time>
      </trkpt>
      <trkpt lat="36.4824030" lon="-5.2917580">
        <ele>339.9</ele>
        <time>2019-08-28T10:53:45Z</time>
      </trkpt>
      <trkpt lat="36.4823630" lon="-5.2917680">
        <ele>340.1</ele>
        <time>2019-08-28T10:53:46Z</time>
      </trkpt>
      <trkpt lat="36.4823230" lon="-5.2917780">
        <ele>340.2</ele>
        <time>2019-08-28T10:53:47Z</time>
      </trkpt>
      <trkpt lat="36.4822830" lon="-5.2917880">
        <ele>340.4</ele>
        <time>2019-08-28T10:53:48Z</time>
      </trkpt>
      <trkpt lat="36.4822440" lon="-5.2917990">
        <ele>340.6</ele>
        <time>2019-08-28T10:53:49Z</time>
      </trkpt>
      <trkpt lat="36.4822060" lon="-5.2918090">
        <ele>340.8</ele>
        <time>2019-08-28T10:53:50Z</time>
      </trkpt>
      <trkpt lat="36.4821670" lon="-5.2918190">
        <ele>341.0</ele>
        <time>2019-08-28T10:53:51Z</time>
      </trkpt>
      <trkpt lat="36.4821280" lon="-5.2918300">
        <ele>341.1</ele>
        <time>2019-08-28T10:53:52Z</time>
      </trkpt>
      <trkpt lat="36.4820900" lon="-5.2918400">
        <ele>341.3</ele>
        <time>2019-08-28T10:53:53Z</time>
      </trkpt>
      <trkpt lat="36.4820520" lon="-5.2918500">
        <ele>341.5</ele>
        <time>2019-08-28T10:53:54Z</time>
      </trkpt>
      <trkpt lat="36.4820150" lon="-5.2918590">
        <ele>341.7</ele>
        <time>2019-08-28T10:53:55Z</time>
      </trkpt>
      <trkpt lat="36.4819780" lon="-5.2918690">
        <ele>342.0</ele>
        <time>2019-08-28T10:53:56Z</time>
      </trkpt>
      <trkpt lat="36.4819410" lon="-5.2918780">
        <ele>342.2</ele>
        <time>2019-08-28T10:53:57Z</time>
      </trkpt>
      <trkpt lat="36.4819050" lon="-5.2918890">
        <ele>342.4</ele>
        <time>2019-08-28T10:53:58Z</time>
      </trkpt>
      <trkpt lat="36.4818690" lon="-5.2918990">
        <ele>342.6</ele>
        <time>2019-08-28T10:53:59Z</time>
      </trkpt>
      <trkpt lat="36.4818330" lon="-5.2919100">
        <ele>342.9</ele>
        <time>2019-08-28T10:54:00Z</time>
      </trkpt>
      <trkpt lat="36.4817970" lon="-5.2919200">
        <ele>343.2</ele>
        <time>2019-08-28T10:54:01Z</time>
      </trkpt>
      <trkpt lat="36.4817610" lon="-5.2919300">
        <ele>343.5</ele>
        <time>2019-08-28T10:54:02Z</time>
      </trkpt>
      <trkpt lat="36.4817250" lon="-5.2919380">
        <ele>343.8</ele>
        <time>2019-08-28T10:54:03Z</time>
      </trkpt>
      <trkpt lat="36.4816900" lon="-5.2919470">
        <ele>344.1</ele>
        <time>2019-08-28T10:54:04Z</time>
      </trkpt>
      <trkpt lat="36.4816560" lon="-5.2919580">
        <ele>344.5</ele>
        <time>2019-08-28T10:54:05Z</time>
      </trkpt>
      <trkpt lat="36.4816220" lon="-5.2919700">
        <ele>344.8</ele>
        <time>2019-08-28T10:54:06Z</time>
      </trkpt>
      <trkpt lat="36.4815890" lon="-5.2919820">
        <ele>345.1</ele>
        <time>2019-08-28T10:54:07Z</time>
      </trkpt>
      <trkpt lat="36.4815580" lon="-5.2919960">
        <ele>345.4</ele>
        <time>2019-08-28T10:54:08Z</time>
      </trkpt>
      <trkpt lat="36.4815280" lon="-5.2920110">
        <ele>345.8</ele>
        <time>2019-08-28T10:54:09Z</time>
      </trkpt>
      <trkpt lat="36.4814990" lon="-5.2920270">
        <ele>346.1</ele>
        <time>2019-08-28T10:54:10Z</time>
      </trkpt>
      <trkpt lat="36.4814710" lon="-5.2920450">
        <ele>346.4</ele>
        <time>2019-08-28T10:54:11Z</time>
      </trkpt>
      <trkpt lat="36.4814440" lon="-5.2920630">
        <ele>346.8</ele>
        <time>2019-08-28T10:54:12Z</time>
      </trkpt>
      <trkpt lat="36.4814170" lon="-5.2920820">
        <ele>347.1</ele>
        <time>2019-08-28T10:54:13Z</time>
      </trkpt>
      <trkpt lat="36.4813900" lon="-5.2921030">
        <ele>347.5</ele>
        <time>2019-08-28T10:54:14Z</time>
      </trkpt>
      <trkpt lat="36.4813640" lon="-5.2921250">
        <ele>347.8</ele>
        <time>2019-08-28T10:54:15Z</time>
      </trkpt>
      <trkpt lat="36.4813390" lon="-5.2921470">
        <ele>348.2</ele>
        <time>2019-08-28T10:54:16Z</time>
      </trkpt>
      <trkpt lat="36.4813140" lon="-5.2921700">
        <ele>348.5</ele>
        <time>2019-08-28T10:54:17Z</time>
      </trkpt>
      <trkpt lat="36.4812910" lon="-5.2921940">
        <ele>348.9</ele>
        <time>2019-08-28T10:54:18Z</time>
      </trkpt>
      <trkpt lat="36.4812680" lon="-5.2922190">
        <ele>349.2</ele>
        <time>2019-08-28T10:54:19Z</time>
      </trkpt>
      <trkpt lat="36.4812460" lon="-5.2922440">
        <ele>349.5</ele>
        <time>2019-08-28T10:54:20Z</time>
      </trkpt>
      <trkpt lat="36.4812250" lon="-5.2922700">
        <ele>349.9</ele>
        <time>2019-08-28T10:54:21Z</time>
      </trkpt>
      <trkpt lat="36.4812040" lon="-5.2922960">
        <ele>350.2</ele>
        <time>2019-08-28T10:54:22Z</time>
      </trkpt>
      <trkpt lat="36.4811850" lon="-5.2923230">
        <ele>350.5</ele>
        <time>2019-08-28T10:54:23Z</time>
      </trkpt>
      <trkpt lat="36.4811650" lon="-5.2923510">
        <ele>350.8</ele>
        <time>2019-08-28T10:54:24Z</time>
      </trkpt>
      <trkpt lat="36.4811470" lon="-5.2923800">
        <ele>351.1</ele>
        <time>2019-08-28T10:54:25Z</time>
      </trkpt>
      <trkpt lat="36.4811290" lon="-5.2924100">
        <ele>351.5</ele>
        <time>2019-08-28T10:54:26Z</time>
      </trkpt>
      <trkpt lat="36.4811120" lon="-5.2924390">
        <ele>351.7</ele>
        <time>2019-08-28T10:54:27Z</time>
      </trkpt>
      <trkpt lat="36.4810950" lon="-5.2924690">
        <ele>352.0</ele>
        <time>2019-08-28T10:54:28Z</time>
      </trkpt>
      <trkpt lat="36.4810780" lon="-5.2924980">
        <ele>352.3</ele>
        <time>2019-08-28T10:54:29Z</time>
      </trkpt>
      <trkpt lat="36.4810590" lon="-5.2925270">
        <ele>352.6</ele>
        <time>2019-08-28T10:54:30Z</time>
      </trkpt>
      <trkpt lat="36.4810400" lon="-5.2925560">
        <ele>352.8</ele>
        <time>2019-08-28T10:54:31Z</time>
      </trkpt>
      <trkpt lat="36.4810220" lon="-5.2925860">
        <ele>353.1</ele>
        <time>2019-08-28T10:54:32Z</time>
      </trkpt>
      <trkpt lat="36.4810050" lon="-5.2926160">
        <ele>353.3</ele>
        <time>2019-08-28T10:54:33Z</time>
      </trkpt>
      <trkpt lat="36.4809890" lon="-5.2926440">
        <ele>353.6</ele>
        <time>2019-08-28T10:54:34Z</time>
      </trkpt>
      <trkpt lat="36.4809720" lon="-5.2926720">
        <ele>353.8</ele>
        <time>2019-08-28T10:54:35Z</time>
      </trkpt>
      <trkpt lat="36.4809550" lon="-5.2926980">
        <ele>354.0</ele>
        <time>2019-08-28T10:54:36Z</time>
      </trkpt>
      <trkpt lat="36.4809380" lon="-5.2927240">
        <ele>354.2</ele>
        <time>2019-08-28T10:54:37Z</time>
      </trkpt>
      <trkpt lat="36.4809220" lon="-5.2927500">
        <ele>354.4</ele>
        <time>2019-08-28T10:54:38Z</time>
      </trkpt>
      <trkpt lat="36.4809060" lon="-5.2927770">
        <ele>354.6</ele>
        <time>2019-08-28T10:54:39Z</time>
      </trkpt>
      <trkpt lat="36.4808890" lon="-5.2928030">
        <ele>354.8</ele>
        <time>2019-08-28T10:54:40Z</time>
      </trkpt>
      <trkpt lat="36.4808710" lon="-5.2928280">
        <ele>355.0</ele>
        <time>2019-08-28T10:54:41Z</time>
      </trkpt>
      <trkpt lat="36.4808520" lon="-5.2928540">
        <ele>355.2</ele>
        <time>2019-08-28T10:54:42Z</time>
      </trkpt>
      <trkpt lat="36.4808330" lon="-5.2928810">
        <ele>355.4</ele>
        <time>2019-08-28T10:54:43Z</time>
      </trkpt>
      <trkpt lat="36.4808150" lon="-5.2929070">
        <ele>355.6</ele>
        <time>2019-08-28T10:54:44Z</time>
      </trkpt>
      <trkpt lat="36.4807970" lon="-5.2929340">
        <ele>355.8</ele>
        <time>2019-08-28T10:54:45Z</time>
      </trkpt>
      <trkpt lat="36.4807790" lon="-5.2929610">
        <ele>356.0</ele>
        <time>2019-08-28T10:54:46Z</time>
      </trkpt>
      <trkpt lat="36.4807620" lon="-5.2929870">
        <ele>356.2</ele>
        <time>2019-08-28T10:54:47Z</time>
      </trkpt>
      <trkpt lat="36.4807450" lon="-5.2930130">
        <ele>356.4</ele>
        <time>2019-08-28T10:54:48Z</time>
      </trkpt>
      <trkpt lat="36.4807270" lon="-5.2930390">
        <ele>356.6</ele>
        <time>2019-08-28T10:54:49Z</time>
      </trkpt>
      <trkpt lat="36.4807100" lon="-5.2930640">
        <ele>356.8</ele>
        <time>2019-08-28T10:54:50Z</time>
      </trkpt>
      <trkpt lat="36.4806930" lon="-5.2930880">
        <ele>357.0</ele>
        <time>2019-08-28T10:54:51Z</time>
      </trkpt>
      <trkpt lat="36.4806760" lon="-5.2931120">
        <ele>357.1</ele>
        <time>2019-08-28T10:54:52Z</time>
      </trkpt>
      <trkpt lat="36.4806590" lon="-5.2931350">
        <ele>357.3</ele>
        <time>2019-08-28T10:54:53Z</time>
      </trkpt>
      <trkpt lat="36.4806430" lon="-5.2931580">
        <ele>357.5</ele>
        <time>2019-08-28T10:54:54Z</time>
      </trkpt>
      <trkpt lat="36.4806270" lon="-5.2931830">
        <ele>357.6</ele>
        <time>2019-08-28T10:54:55Z</time>
      </trkpt>
      <trkpt lat="36.4806130" lon="-5.2932090">
        <ele>357.8</ele>
        <time>2019-08-28T10:54:56Z</time>
      </trkpt>
      <trkpt lat="36.4805990" lon="-5.2932370">
        <ele>358.0</ele>
        <time>2019-08-28T10:54:57Z</time>
      </trkpt>
      <trkpt lat="36.4805870" lon="-5.2932640">
        <ele>358.1</ele>
        <time>2019-08-28T10:54:58Z</time>
      </trkpt>
      <trkpt lat="36.4805750" lon="-5.2932920">
        <ele>358.3</ele>
        <time>2019-08-28T10:54:59Z</time>
      </trkpt>
      <trkpt lat="36.4805630" lon="-5.2933200">
        <ele>358.6</ele>
        <time>2019-08-28T10:55:00Z</time>
      </trkpt>
      <trkpt lat="36.4805520" lon="-5.2933470">
        <ele>358.8</ele>
        <time>2019-08-28T10:55:01Z</time>
      </trkpt>
      <trkpt lat="36.4805410" lon="-5.2933750">
        <ele>358.9</ele>
        <time>2019-08-28T10:55:02Z</time>
      </trkpt>
      <trkpt lat="36.4805310" lon="-5.2934030">
        <ele>359.0</ele>
        <time>2019-08-28T10:55:03Z</time>
      </trkpt>
      <trkpt lat="36.4805210" lon="-5.2934320">
        <ele>359.2</ele>
        <time>2019-08-28T10:55:04Z</time>
      </trkpt>
      <trkpt lat="36.4805120" lon="-5.2934600">
        <ele>359.3</ele>
        <time>2019-08-28T10:55:05Z</time>
      </trkpt>
      <trkpt lat="36.4805030" lon="-5.2934890">
        <ele>359.4</ele>
        <time>2019-08-28T10:55:06Z</time>
      </trkpt>
      <trkpt lat="36.4804940" lon="-5.2935160">
        <ele>359.5</ele>
        <time>2019-08-28T10:55:07Z</time>
      </trkpt>
      <trkpt lat="36.4804850" lon="-5.2935430">
        <ele>359.6</ele>
        <time>2019-08-28T10:55:08Z</time>
      </trkpt>
      <trkpt lat="36.4804760" lon="-5.2935700">
        <ele>359.7</ele>
        <time>2019-08-28T10:55:09Z</time>
      </trkpt>
      <trkpt lat="36.4804670" lon="-5.2935960">
        <ele>359.9</ele>
        <time>2019-08-28T10:55:10Z</time>
      </trkpt>
      <trkpt lat="36.4804560" lon="-5.2936230">
        <ele>360.0</ele>
        <time>2019-08-28T10:55:11Z</time>
      </trkpt>
      <trkpt lat="36.4804460" lon="-5.2936500">
        <ele>360.1</ele>
        <time>2019-08-28T10:55:12Z</time>
      </trkpt>
      <trkpt lat="36.4804350" lon="-5.2936770">
        <ele>360.3</ele>
        <time>2019-08-28T10:55:13Z</time>
      </trkpt>
      <trkpt lat="36.4804240" lon="-5.2937040">
        <ele>360.4</ele>
        <time>2019-08-28T10:55:14Z</time>
      </trkpt>
      <trkpt lat="36.4804130" lon="-5.2937300">
        <ele>360.6</ele>
        <time>2019-08-28T10:55:15Z</time>
      </trkpt>
      <trkpt lat="36.4804010" lon="-5.2937560">
        <ele>360.7</ele>
        <time>2019-08-28T10:55:16Z</time>
      </trkpt>
      <trkpt lat="36.4803880" lon="-5.2937820">
        <ele>360.9</ele>
        <time>2019-08-28T10:55:17Z</time>
      </trkpt>
      <trkpt lat="36.4803740" lon="-5.2938080">
        <ele>361.0</ele>
        <time>2019-08-28T10:55:18Z</time>
      </trkpt>
      <trkpt lat="36.4803600" lon="-5.2938330">
        <ele>361.2</ele>
        <time>2019-08-28T10:55:19Z</time>
      </trkpt>
      <trkpt lat="36.4803450" lon="-5.2938590">
        <ele>361.3</ele>
        <time>2019-08-28T10:55:20Z</time>
      </trkpt>
      <trkpt lat="36.4803300" lon="-5.2938830">
        <ele>361.5</ele>
        <time>2019-08-28T10:55:21Z</time>
      </trkpt>
      <trkpt lat="36.4803150" lon="-5.2939080">
        <ele>361.6</ele>
        <time>2019-08-28T10:55:22Z</time>
      </trkpt>
      <trkpt lat="36.4802990" lon="-5.2939330">
        <ele>361.8</ele>
        <time>2019-08-28T10:55:23Z</time>
      </trkpt>
      <trkpt lat="36.4802820" lon="-5.2939580">
        <ele>361.9</ele>
        <time>2019-08-28T10:55:24Z</time>
      </trkpt>
      <trkpt lat="36.4802660" lon="-5.2939830">
        <ele>362.1</ele>
        <time>2019-08-28T10:55:25Z</time>
      </trkpt>
      <trkpt lat="36.4802500" lon="-5.2940090">
        <ele>362.2</ele>
        <time>2019-08-28T10:55:26Z</time>
      </trkpt>
      <trkpt lat="36.4802350" lon="-5.2940360">
        <ele>362.4</ele>
        <time>2019-08-28T10:55:27Z</time>
      </trkpt>
      <trkpt lat="36.4802200" lon="-5.2940630">
        <ele>362.6</ele>
        <time>2019-08-28T10:55:28Z</time>
      </trkpt>
      <trkpt lat="36.4802070" lon="-5.2940910">
        <ele>362.8</ele>
        <time>2019-08-28T10:55:29Z</time>
      </trkpt>
      <trkpt lat="36.4801940" lon="-5.2941200">
        <ele>362.9</ele>
        <time>2019-08-28T10:55:30Z</time>
      </trkpt>
      <trkpt lat="36.4801830" lon="-5.2941480">
        <ele>363.1</ele>
        <time>2019-08-28T10:55:31Z</time>
      </trkpt>
      <trkpt lat="36.4801720" lon="-5.2941760">
        <ele>363.3</ele>
        <time>2019-08-28T10:55:32Z</time>
      </trkpt>
      <trkpt lat="36.4801620" lon="-5.2942050">
        <ele>363.5</ele>
        <time>2019-08-28T10:55:33Z</time>
      </trkpt>
      <trkpt lat="36.4801510" lon="-5.2942340">
        <ele>363.6</ele>
        <time>2019-08-28T10:55:34Z</time>
      </trkpt>
      <trkpt lat="36.4801420" lon="-5.2942630">
        <ele>363.8</ele>
        <time>2019-08-28T10:55:35Z</time>
      </trkpt>
      <trkpt lat="36.4801330" lon="-5.2942920">
        <ele>364.0</ele>
        <time>2019-08-28T10:55:36Z</time>
      </trkpt>
      <trkpt lat="36.4801240" lon="-5.2943210">
        <ele>364.2</ele>
        <time>2019-08-28T10:55:37Z</time>
      </trkpt>
      <trkpt lat="36.4801160" lon="-5.2943510">
        <ele>364.4</ele>
        <time>2019-08-28T10:55:38Z</time>
      </trkpt>
      <trkpt lat="36.4801080" lon="-5.2943820">
        <ele>364.6</ele>
        <time>2019-08-28T10:55:39Z</time>
      </trkpt>
      <trkpt lat="36.4801010" lon="-5.2944120">
        <ele>364.8</ele>
        <time>2019-08-28T10:55:40Z</time>
      </trkpt>
      <trkpt lat="36.4800940" lon="-5.2944420">
        <ele>365.0</ele>
        <time>2019-08-28T10:55:41Z</time>
      </trkpt>
      <trkpt lat="36.4800870" lon="-5.2944720">
        <ele>365.2</ele>
        <time>2019-08-28T10:55:42Z</time>
      </trkpt>
      <trkpt lat="36.4800780" lon="-5.2945010">
        <ele>365.4</ele>
        <time>2019-08-28T10:55:43Z</time>
      </trkpt>
      <trkpt lat="36.4800680" lon="-5.2945310">
        <ele>365.6</ele>
        <time>2019-08-28T10:55:44Z</time>
      </trkpt>
      <trkpt lat="36.4800580" lon="-5.2945600">
        <ele>365.9</ele>
        <time>2019-08-28T10:55:45Z</time>
      </trkpt>
      <trkpt lat="36.4800460" lon="-5.2945890">
        <ele>366.1</ele>
        <time>2019-08-28T10:55:46Z</time>
      </trkpt>
      <trkpt lat="36.4800340" lon="-5.2946180">
        <ele>366.3</ele>
        <time>2019-08-28T10:55:47Z</time>
      </trkpt>
      <trkpt lat="36.4800210" lon="-5.2946460">
        <ele>366.6</ele>
        <time>2019-08-28T10:55:48Z</time>
      </trkpt>
      <trkpt lat="36.4800080" lon="-5.2946750">
        <ele>366.8</ele>
        <time>2019-08-28T10:55:49Z</time>
      </trkpt>
      <trkpt lat="36.4799930" lon="-5.2947010">
        <ele>367.0</ele>
        <time>2019-08-28T10:55:50Z</time>
      </trkpt>
      <trkpt lat="36.4799770" lon="-5.2947270">
        <ele>367.2</ele>
        <time>2019-08-28T10:55:51Z</time>
      </trkpt>
      <trkpt lat="36.4799580" lon="-5.2947510">
        <ele>367.5</ele>
        <time>2019-08-28T10:55:52Z</time>
      </trkpt>
      <trkpt lat="36.4799380" lon="-5.2947740">
        <ele>367.7</ele>
        <time>2019-08-28T10:55:53Z</time>
      </trkpt>
      <trkpt lat="36.4799180" lon="-5.2947970">
        <ele>367.9</ele>
        <time>2019-08-28T10:55:54Z</time>
      </trkpt>
      <trkpt lat="36.4798980" lon="-5.2948190">
        <ele>368.1</ele>
        <time>2019-08-28T10:55:55Z</time>
      </trkpt>
      <trkpt lat="36.4798770" lon="-5.2948390">
        <ele>368.3</ele>
        <time>2019-08-28T10:55:56Z</time>
      </trkpt>
      <trkpt lat="36.4798550" lon="-5.2948580">
        <ele>368.6</ele>
        <time>2019-08-28T10:55:57Z</time>
      </trkpt>
      <trkpt lat="36.4798340" lon="-5.2948740">
        <ele>368.8</ele>
        <time>2019-08-28T10:55:58Z</time>
      </trkpt>
      <trkpt lat="36.4798130" lon="-5.2948880">
        <ele>369.0</ele>
        <time>2019-08-28T10:55:59Z</time>
      </trkpt>
      <trkpt lat="36.4797910" lon="-5.2949020">
        <ele>369.2</ele>
        <time>2019-08-28T10:56:00Z</time>
      </trkpt>
      <trkpt lat="36.4797680" lon="-5.2949150">
        <ele>369.4</ele>
        <time>2019-08-28T10:56:01Z</time>
      </trkpt>
      <trkpt lat="36.4797440" lon="-5.2949270">
        <ele>369.6</ele>
        <time>2019-08-28T10:56:02Z</time>
      </trkpt>
      <trkpt lat="36.4797210" lon="-5.2949380">
        <ele>369.8</ele>
        <time>2019-08-28T10:56:03Z</time>
      </trkpt>
      <trkpt lat="36.4796970" lon="-5.2949480">
        <ele>370.0</ele>
        <time>2019-08-28T10:56:04Z</time>
      </trkpt>
      <trkpt lat="36.4796730" lon="-5.2949570">
        <ele>370.1</ele>
        <time>2019-08-28T10:56:05Z</time>
      </trkpt>
      <trkpt lat="36.4796490" lon="-5.2949640">
        <ele>370.3</ele>
        <time>2019-08-28T10:56:06Z</time>
      </trkpt>
      <trkpt lat="36.4796250" lon="-5.2949720">
        <ele>370.5</ele>
        <time>2019-08-28T10:56:07Z</time>
      </trkpt>
      <trkpt lat="36.4796020" lon="-5.2949790">
        <ele>370.6</ele>
        <time>2019-08-28T10:56:08Z</time>
      </trkpt>
      <trkpt lat="36.4795790" lon="-5.2949840">
        <ele>370.8</ele>
        <time>2019-08-28T10:56:09Z</time>
      </trkpt>
      <trkpt lat="36.4795540" lon="-5.2949880">
        <ele>371.0</ele>
        <time>2019-08-28T10:56:10Z</time>
      </trkpt>
      <trkpt lat="36.4795290" lon="-5.2949920">
        <ele>371.2</ele>
        <time>2019-08-28T10:56:11Z</time>
      </trkpt>
      <trkpt lat="36.4795030" lon="-5.2949960">
        <ele>371.4</ele>
        <time>2019-08-28T10:56:12Z</time>
      </trkpt>
      <trkpt lat="36.4794790" lon="-5.2949970">
        <ele>371.6</ele>
        <time>2019-08-28T10:56:13Z</time>
      </trkpt>
      <trkpt lat="36.4794540" lon="-5.2949980">
        <ele>371.8</ele>
        <time>2019-08-28T10:56:14Z</time>
      </trkpt>
      <trkpt lat="36.4794290" lon="-5.2949980">
        <ele>372.0</ele>
        <time>2019-08-28T10:56:15Z</time>
      </trkpt>
      <trkpt lat="36.4794040" lon="-5.2949980">
        <ele>372.3</ele>
        <time>2019-08-28T10:56:16Z</time>
      </trkpt>
      <trkpt lat="36.4793800" lon="-5.2949960">
        <ele>372.5</ele>
        <time>2019-08-28T10:56:17Z</time>
      </trkpt>
      <trkpt lat="36.4793550" lon="-5.2949910">
        <ele>372.7</ele>
        <time>2019-08-28T10:56:18Z</time>
      </trkpt>
      <trkpt lat="36.4793310" lon="-5.2949850">
        <ele>373.0</ele>
        <time>2019-08-28T10:56:19Z</time>
      </trkpt>
      <trkpt lat="36.4793080" lon="-5.2949790">
        <ele>373.2</ele>
        <time>2019-08-28T10:56:20Z</time>
      </trkpt>
      <trkpt lat="36.4792840" lon="-5.2949710">
        <ele>373.4</ele>
        <time>2019-08-28T10:56:21Z</time>
      </trkpt>
      <trkpt lat="36.4792600" lon="-5.2949630">
        <ele>373.7</ele>
        <time>2019-08-28T10:56:22Z</time>
      </trkpt>
      <trkpt lat="36.4792370" lon="-5.2949530">
        <ele>373.9</ele>
        <time>2019-08-28T10:56:23Z</time>
      </trkpt>
      <trkpt lat="36.4792140" lon="-5.2949430">
        <ele>374.1</ele>
        <time>2019-08-28T10:56:24Z</time>
      </trkpt>
      <trkpt lat="36.4791920" lon="-5.2949330">
        <ele>374.4</ele>
        <time>2019-08-28T10:56:25Z</time>
      </trkpt>
      <trkpt lat="36.4791690" lon="-5.2949220">
        <ele>374.6</ele>
        <time>2019-08-28T10:56:26Z</time>
      </trkpt>
      <trkpt lat="36.4791460" lon="-5.2949110">
        <ele>374.8</ele>
        <time>2019-08-28T10:56:27Z</time>
      </trkpt>
      <trkpt lat="36.4791230" lon="-5.2948990">
        <ele>375.0</ele>
        <time>2019-08-28T10:56:28Z</time>
      </trkpt>
      <trkpt lat="36.4791000" lon="-5.2948870">
        <ele>375.2</ele>
        <time>2019-08-28T10:56:29Z</time>
      </trkpt>
      <trkpt lat="36.4790760" lon="-5.2948750">
        <ele>375.4</ele>
        <time>2019-08-28T10:56:30Z</time>
      </trkpt>
      <trkpt lat="36.4790530" lon="-5.2948630">
        <ele>375.6</ele>
        <time>2019-08-28T10:56:31Z</time>
      </trkpt>
      <trkpt lat="36.4790290" lon="-5.2948500">
        <ele>375.9</ele>
        <time>2019-08-28T10:56:32Z</time>
      </trkpt>
      <trkpt lat="36.4790060" lon="-5.2948370">
        <ele>376.1</ele>
        <time>2019-08-28T10:56:33Z</time>
      </trkpt>
      <trkpt lat="36.4789820" lon="-5.2948240">
        <ele>376.3</ele>
        <time>2019-08-28T10:56:34Z</time>
      </trkpt>
      <trkpt lat="36.4789590" lon="-5.2948110">
        <ele>376.6</ele>
        <time>2019-08-28T10:56:35Z</time>
      </trkpt>
      <trkpt lat="36.4789360" lon="-5.2947990">
        <ele>376.8</ele>
        <time>2019-08-28T10:56:36Z</time>
      </trkpt>
      <trkpt lat="36.4789140" lon="-5.2947870">
        <ele>377.0</ele>
        <time>2019-08-28T10:56:37Z</time>
      </trkpt>
      <trkpt lat="36.4788920" lon="-5.2947750">
        <ele>377.2</ele>
        <time>2019-08-28T10:56:38Z</time>
      </trkpt>
      <trkpt lat="36.4788700" lon="-5.2947620">
        <ele>377.4</ele>
        <time>2019-08-28T10:56:39Z</time>
      </trkpt>
      <trkpt lat="36.4788490" lon="-5.2947490">
        <ele>377.6</ele>
        <time>2019-08-28T10:56:40Z</time>
      </trkpt>
      <trkpt lat="36.4788270" lon="-5.2947360">
        <ele>377.9</ele>
        <time>2019-08-28T10:56:41Z</time>
      </trkpt>
      <trkpt lat="36.4788050" lon="-5.2947230">
        <ele>378.1</ele>
        <time>2019-08-28T10:56:42Z</time>
      </trkpt>
      <trkpt lat="36.4787820" lon="-5.2947110">
        <ele>378.3</ele>
        <time>2019-08-28T10:56:43Z</time>
      </trkpt>
      <trkpt lat="36.4787600" lon="-5.2946980">
        <ele>378.5</ele>
        <time>2019-08-28T10:56:44Z</time>
      </trkpt>
      <trkpt lat="36.4787380" lon="-5.2946860">
        <ele>378.7</ele>
        <time>2019-08-28T10:56:45Z</time>
      </trkpt>
      <trkpt lat="36.4787160" lon="-5.2946730">
        <ele>379.0</ele>
        <time>2019-08-28T10:56:46Z</time>
      </trkpt>
      <trkpt lat="36.4786940" lon="-5.2946610">
        <ele>379.2</ele>
        <time>2019-08-28T10:56:47Z</time>
      </trkpt>
      <trkpt lat="36.4786730" lon="-5.2946480">
        <ele>379.4</ele>
        <time>2019-08-28T10:56:48Z</time>
      </trkpt>
      <trkpt lat="36.4786510" lon="-5.2946360">
        <ele>379.6</ele>
        <time>2019-08-28T10:56:49Z</time>
      </trkpt>
      <trkpt lat="36.4786290" lon="-5.2946240">
        <ele>379.9</ele>
        <time>2019-08-28T10:56:50Z</time>
      </trkpt>
      <trkpt lat="36.4786070" lon="-5.2946110">
        <ele>380.1</ele>
        <time>2019-08-28T10:56:51Z</time>
      </trkpt>
      <trkpt lat="36.4785850" lon="-5.2946000">
        <ele>380.4</ele>
        <time>2019-08-28T10:56:52Z</time>
      </trkpt>
      <trkpt lat="36.4785630" lon="-5.2945880">
        <ele>380.6</ele>
        <time>2019-08-28T10:56:53Z</time>
      </trkpt>
      <trkpt lat="36.4785400" lon="-5.2945770">
        <ele>380.9</ele>
        <time>2019-08-28T10:56:54Z</time>
      </trkpt>
      <trkpt lat="36.4785170" lon="-5.2945650">
        <ele>381.1</ele>
        <time>2019-08-28T10:56:55Z</time>
      </trkpt>
      <trkpt lat="36.4784950" lon="-5.2945520">
        <ele>381.4</ele>
        <time>2019-08-28T10:56:56Z</time>
      </trkpt>
      <trkpt lat="36.4784720" lon="-5.2945400">
        <ele>381.7</ele>
        <time>2019-08-28T10:56:57Z</time>
      </trkpt>
      <trkpt lat="36.4784490" lon="-5.2945290">
        <ele>382.0</ele>
        <time>2019-08-28T10:56:58Z</time>
      </trkpt>
      <trkpt lat="36.4784270" lon="-5.2945190">
        <ele>382.3</ele>
        <time>2019-08-28T10:56:59Z</time>
      </trkpt>
      <trkpt lat="36.4784060" lon="-5.2945080">
        <ele>382.5</ele>
        <time>2019-08-28T10:57:00Z</time>
      </trkpt>
      <trkpt lat="36.4783840" lon="-5.2944970">
        <ele>382.9</ele>
        <time>2019-08-28T10:57:01Z</time>
      </trkpt>
      <trkpt lat="36.4783620" lon="-5.2944860">
        <ele>383.3</ele>
        <time>2019-08-28T10:57:02Z</time>
      </trkpt>
      <trkpt lat="36.4783400" lon="-5.2944760">
        <ele>383.7</ele>
        <time>2019-08-28T10:57:03Z</time>
      </trkpt>
      <trkpt lat="36.4783190" lon="-5.2944650">
        <ele>384.2</ele>
        <time>2019-08-28T10:57:04Z</time>
      </trkpt>
      <trkpt lat="36.4782980" lon="-5.2944540">
        <ele>384.6</ele>
        <time>2019-08-28T10:57:05Z</time>
      </trkpt>
      <trkpt lat="36.4782760" lon="-5.2944430">
        <ele>385.1</ele>
        <time>2019-08-28T10:57:06Z</time>
      </trkpt>
      <trkpt lat="36.4782540" lon="-5.2944310">
        <ele>385.7</ele>
        <time>2019-08-28T10:57:07Z</time>
      </trkpt>
      <trkpt lat="36.4782320" lon="-5.2944200">
        <ele>386.0</ele>
        <time>2019-08-28T10:57:08Z</time>
      </trkpt>
      <trkpt lat="36.4782100" lon="-5.2944100">
        <ele>386.2</ele>
        <time>2019-08-28T10:57:09Z</time>
      </trkpt>
      <trkpt lat="36.4781890" lon="-5.2944000">
        <ele>386.4</ele>
        <time>2019-08-28T10:57:10Z</time>
      </trkpt>
      <trkpt lat="36.4781670" lon="-5.2943880">
        <ele>386.6</ele>
        <time>2019-08-28T10:57:11Z</time>
      </trkpt>
      <trkpt lat="36.4781440" lon="-5.2943760">
        <ele>386.9</ele>
        <time>2019-08-28T10:57:12Z</time>
      </trkpt>
      <trkpt lat="36.4781200" lon="-5.2943650">
        <ele>387.1</ele>
        <time>2019-08-28T10:57:13Z</time>
      </trkpt>
      <trkpt lat="36.4780970" lon="-5.2943550">
        <ele>387.3</ele>
        <time>2019-08-28T10:57:14Z</time>
      </trkpt>
      <trkpt lat="36.4780750" lon="-5.2943460">
        <ele>387.5</ele>
        <time>2019-08-28T10:57:15Z</time>
      </trkpt>
      <trkpt lat="36.4780530" lon="-5.2943360">
        <ele>387.7</ele>
        <time>2019-08-28T10:57:16Z</time>
      </trkpt>
      <trkpt lat="36.4780320" lon="-5.2943250">
        <ele>387.9</ele>
        <time>2019-08-28T10:57:17Z</time>
      </trkpt>
      <trkpt lat="36.4780110" lon="-5.2943130">
        <ele>388.2</ele>
        <time>2019-08-28T10:57:18Z</time>
      </trkpt>
      <trkpt lat="36.4779900" lon="-5.2943020">
        <ele>388.4</ele>
        <time>2019-08-28T10:57:19Z</time>
      </trkpt>
      <trkpt lat="36.4779690" lon="-5.2942910">
        <ele>388.6</ele>
        <time>2019-08-28T10:57:20Z</time>
      </trkpt>
      <trkpt lat="36.4779480" lon="-5.2942810">
        <ele>388.8</ele>
        <time>2019-08-28T10:57:21Z</time>
      </trkpt>
      <trkpt lat="36.4779280" lon="-5.2942690">
        <ele>388.9</ele>
        <time>2019-08-28T10:57:22Z</time>
      </trkpt>
      <trkpt lat="36.4779080" lon="-5.2942580">
        <ele>389.1</ele>
        <time>2019-08-28T10:57:23Z</time>
      </trkpt>
      <trkpt lat="36.4778880" lon="-5.2942470">
        <ele>389.3</ele>
        <time>2019-08-28T10:57:24Z</time>
      </trkpt>
      <trkpt lat="36.4778680" lon="-5.2942370">
        <ele>389.5</ele>
        <time>2019-08-28T10:57:25Z</time>
      </trkpt>
      <trkpt lat="36.4778480" lon="-5.2942270">
        <ele>389.7</ele>
        <time>2019-08-28T10:57:26Z</time>
      </trkpt>
      <trkpt lat="36.4778270" lon="-5.2942160">
        <ele>389.9</ele>
        <time>2019-08-28T10:57:27Z</time>
      </trkpt>
      <trkpt lat="36.4778060" lon="-5.2942050">
        <ele>390.1</ele>
        <time>2019-08-28T10:57:28Z</time>
      </trkpt>
      <trkpt lat="36.4777860" lon="-5.2941950">
        <ele>390.2</ele>
        <time>2019-08-28T10:57:29Z</time>
      </trkpt>
      <trkpt lat="36.4777640" lon="-5.2941860">
        <ele>390.4</ele>
        <time>2019-08-28T10:57:30Z</time>
      </trkpt>
      <trkpt lat="36.4777430" lon="-5.2941750">
        <ele>390.6</ele>
        <time>2019-08-28T10:57:31Z</time>
      </trkpt>
      <trkpt lat="36.4777220" lon="-5.2941650">
        <ele>390.8</ele>
        <time>2019-08-28T10:57:32Z</time>
      </trkpt>
      <trkpt lat="36.4777010" lon="-5.2941550">
        <ele>391.0</ele>
        <time>2019-08-28T10:57:33Z</time>
      </trkpt>
      <trkpt lat="36.4776800" lon="-5.2941460">
        <ele>391.1</ele>
        <time>2019-08-28T10:57:34Z</time>
      </trkpt>
      <trkpt lat="36.4776590" lon="-5.2941370">
        <ele>391.3</ele>
        <time>2019-08-28T10:57:35Z</time>
      </trkpt>
      <trkpt lat="36.4776380" lon="-5.2941280">
        <ele>391.5</ele>
        <time>2019-08-28T10:57:36Z</time>
      </trkpt>
      <trkpt lat="36.4776170" lon="-5.2941180">
        <ele>391.6</ele>
        <time>2019-08-28T10:57:37Z</time>
      </trkpt>
      <trkpt lat="36.4775940" lon="-5.2941100">
        <ele>391.8</ele>
        <time>2019-08-28T10:57:38Z</time>
      </trkpt>
      <trkpt lat="36.4775710" lon="-5.2941030">
        <ele>392.0</ele>
        <time>2019-08-28T10:57:39Z</time>
      </trkpt>
      <trkpt lat="36.4775480" lon="-5.2940980">
        <ele>392.1</ele>
        <time>2019-08-28T10:57:40Z</time>
      </trkpt>
      <trkpt lat="36.4775240" lon="-5.2940940">
        <ele>392.3</ele>
        <time>2019-08-28T10:57:41Z</time>
      </trkpt>
      <trkpt lat="36.4775000" lon="-5.2940920">
        <ele>392.5</ele>
        <time>2019-08-28T10:57:42Z</time>
      </trkpt>
      <trkpt lat="36.4774750" lon="-5.2940890">
        <ele>392.6</ele>
        <time>2019-08-28T10:57:43Z</time>
      </trkpt>
      <trkpt lat="36.4774490" lon="-5.2940880">
        <ele>392.8</ele>
        <time>2019-08-28T10:57:44Z</time>
      </trkpt>
      <trkpt lat="36.4774240" lon="-5.2940880">
        <ele>392.9</ele>
        <time>2019-08-28T10:57:45Z</time>
      </trkpt>
      <trkpt lat="36.4773980" lon="-5.2940900">
        <ele>393.1</ele>
        <time>2019-08-28T10:57:46Z</time>
      </trkpt>
      <trkpt lat="36.4773740" lon="-5.2940940">
        <ele>393.2</ele>
        <time>2019-08-28T10:57:47Z</time>
      </trkpt>
      <trkpt lat="36.4773490" lon="-5.2940990">
        <ele>393.3</ele>
        <time>2019-08-28T10:57:48Z</time>
      </trkpt>
      <trkpt lat="36.4773250" lon="-5.2941050">
        <ele>393.5</ele>
        <time>2019-08-28T10:57:49Z</time>
      </trkpt>
      <trkpt lat="36.4773010" lon="-5.2941120">
        <ele>393.6</ele>
        <time>2019-08-28T10:57:50Z</time>
      </trkpt>
      <trkpt lat="36.4772780" lon="-5.2941200">
        <ele>393.7</ele>
        <time>2019-08-28T10:57:51Z</time>
      </trkpt>
      <trkpt lat="36.4772540" lon="-5.2941280">
        <ele>393.8</ele>
        <time>2019-08-28T10:57:52Z</time>
      </trkpt>
      <trkpt lat="36.4772310" lon="-5.2941370">
        <ele>393.9</ele>
        <time>2019-08-28T10:57:53Z</time>
      </trkpt>
      <trkpt lat="36.4772080" lon="-5.2941460">
        <ele>394.0</ele>
        <time>2019-08-28T10:57:54Z</time>
      </trkpt>
      <trkpt lat="36.4771840" lon="-5.2941550">
        <ele>394.1</ele>
        <time>2019-08-28T10:57:55Z</time>
      </trkpt>
      <trkpt lat="36.4771610" lon="-5.2941630">
        <ele>394.2</ele>
        <time>2019-08-28T10:57:56Z</time>
      </trkpt>
      <trkpt lat="36.4771370" lon="-5.2941710">
        <ele>394.3</ele>
        <time>2019-08-28T10:57:57Z</time>
      </trkpt>
      <trkpt lat="36.4771140" lon="-5.2941800">
        <ele>394.4</ele>
        <time>2019-08-28T10:57:58Z</time>
      </trkpt>
      <trkpt lat="36.4770900" lon="-5.2941890">
        <ele>394.5</ele>
        <time>2019-08-28T10:57:59Z</time>
      </trkpt>
      <trkpt lat="36.4770670" lon="-5.2941980">
        <ele>394.6</ele>
        <time>2019-08-28T10:58:00Z</time>
      </trkpt>
      <trkpt lat="36.4770430" lon="-5.2942060">
        <ele>394.7</ele>
        <time>2019-08-28T10:58:01Z</time>
      </trkpt>
      <trkpt lat="36.4770190" lon="-5.2942140">
        <ele>394.8</ele>
        <time>2019-08-28T10:58:02Z</time>
      </trkpt>
      <trkpt lat="36.4769940" lon="-5.2942220">
        <ele>394.9</ele>
        <time>2019-08-28T10:58:03Z</time>
      </trkpt>
      <trkpt lat="36.4769700" lon="-5.2942290">
        <ele>395.0</ele>
        <time>2019-08-28T10:58:04Z</time>
      </trkpt>
      <trkpt lat="36.4769460" lon="-5.2942370">
        <ele>395.1</ele>
        <time>2019-08-28T10:58:05Z</time>
      </trkpt>
      <trkpt lat="36.4769210" lon="-5.2942440">
        <ele>395.2</ele>
        <time>2019-08-28T10:58:06Z</time>
      </trkpt>
      <trkpt lat="36.4768950" lon="-5.2942520">
        <ele>395.3</ele>
        <time>2019-08-28T10:58:07Z</time>
      </trkpt>
      <trkpt lat="36.4768680" lon="-5.2942590">
        <ele>395.3</ele>
        <time>2019-08-28T10:58:08Z</time>
      </trkpt>
      <trkpt lat="36.4768410" lon="-5.2942650">
        <ele>395.4</ele>
        <time>2019-08-28T10:58:09Z</time>
      </trkpt>
      <trkpt lat="36.4768130" lon="-5.2942710">
        <ele>395.5</ele>
        <time>2019-08-28T10:58:10Z</time>
      </trkpt>
      <trkpt lat="36.4767850" lon="-5.2942760">
        <ele>395.5</ele>
        <time>2019-08-28T10:58:11Z</time>
      </trkpt>
      <trkpt lat="36.4767570" lon="-5.2942800">
        <ele>395.6</ele>
        <time>2019-08-28T10:58:12Z</time>
      </trkpt>
      <trkpt lat="36.4767290" lon="-5.2942830">
        <ele>395.6</ele>
        <time>2019-08-28T10:58:13Z</time>
      </trkpt>
      <trkpt lat="36.4767010" lon="-5.2942850">
        <ele>395.7</ele>
        <time>2019-08-28T10:58:14Z</time>
      </trkpt>
      <trkpt lat="36.4766730" lon="-5.2942860">
        <ele>395.7</ele>
        <time>2019-08-28T10:58:15Z</time>
      </trkpt>
      <trkpt lat="36.4766440" lon="-5.2942860">
        <ele>395.7</ele>
        <time>2019-08-28T10:58:16Z</time>
      </trkpt>
      <trkpt lat="36.4766160" lon="-5.2942850">
        <ele>395.8</ele>
        <time>2019-08-28T10:58:17Z</time>
      </trkpt>
      <trkpt lat="36.4765870" lon="-5.2942840">
        <ele>395.8</ele>
        <time>2019-08-28T10:58:18Z</time>
      </trkpt>
      <trkpt lat="36.4765590" lon="-5.2942810">
        <ele>395.8</ele>
        <time>2019-08-28T10:58:19Z</time>
      </trkpt>
      <trkpt lat="36.4765300" lon="-5.2942780">
        <ele>395.9</ele>
        <time>2019-08-28T10:58:20Z</time>
      </trkpt>
      <trkpt lat="36.4765010" lon="-5.2942740">
        <ele>395.9</ele>
        <time>2019-08-28T10:58:21Z</time>
      </trkpt>
      <trkpt lat="36.4764710" lon="-5.2942690">
        <ele>396.0</ele>
        <time>2019-08-28T10:58:22Z</time>
      </trkpt>
      <trkpt lat="36.4764400" lon="-5.2942640">
        <ele>396.0</ele>
        <time>2019-08-28T10:58:23Z</time>
      </trkpt>
      <trkpt lat="36.4764090" lon="-5.2942590">
        <ele>396.1</ele>
        <time>2019-08-28T10:58:24Z</time>
      </trkpt>
      <trkpt lat="36.4763770" lon="-5.2942530">
        <ele>396.2</ele>
        <time>2019-08-28T10:58:25Z</time>
      </trkpt>
      <trkpt lat="36.4763440" lon="-5.2942460">
        <ele>396.3</ele>
        <time>2019-08-28T10:58:26Z</time>
      </trkpt>
      <trkpt lat="36.4763100" lon="-5.2942380">
        <ele>396.4</ele>
        <time>2019-08-28T10:58:27Z</time>
      </trkpt>
      <trkpt lat="36.4762760" lon="-5.2942290">
        <ele>396.5</ele>
        <time>2019-08-28T10:58:28Z</time>
      </trkpt>
      <trkpt lat="36.4762410" lon="-5.2942200">
        <ele>396.6</ele>
        <time>2019-08-28T10:58:29Z</time>
      </trkpt>
      <trkpt lat="36.4762050" lon="-5.2942100">
        <ele>396.8</ele>
        <time>2019-08-28T10:58:30Z</time>
      </trkpt>
      <trkpt lat="36.4761690" lon="-5.2942000">
        <ele>396.9</ele>
        <time>2019-08-28T10:58:31Z</time>
      </trkpt>
      <trkpt lat="36.4761330" lon="-5.2941890">
        <ele>397.1</ele>
        <time>2019-08-28T10:58:32Z</time>
      </trkpt>
      <trkpt lat="36.4760960" lon="-5.2941780">
        <ele>397.2</ele>
        <time>2019-08-28T10:58:33Z</time>
      </trkpt>
      <trkpt lat="36.4760600" lon="-5.2941660">
        <ele>397.4</ele>
        <time>2019-08-28T10:58:34Z</time>
      </trkpt>
      <trkpt lat="36.4760240" lon="-5.2941530">
        <ele>397.5</ele>
        <time>2019-08-28T10:58:35Z</time>
      </trkpt>
      <trkpt lat="36.4759880" lon="-5.2941410">
        <ele>397.6</ele>
        <time>2019-08-28T10:58:36Z</time>
      </trkpt>
      <trkpt lat="36.4759520" lon="-5.2941310">
        <ele>397.8</ele>
        <time>2019-08-28T10:58:37Z</time>
      </trkpt>
      <trkpt lat="36.4759150" lon="-5.2941220">
        <ele>397.9</ele>
        <time>2019-08-28T10:58:38Z</time>
      </trkpt>
      <trkpt lat="36.4758780" lon="-5.2941130">
        <ele>398.0</ele>
        <time>2019-08-28T10:58:39Z</time>
      </trkpt>
      <trkpt lat="36.4758400" lon="-5.2941030">
        <ele>398.1</ele>
        <time>2019-08-28T10:58:40Z</time>
      </trkpt>
      <trkpt lat="36.4758030" lon="-5.2940940">
        <ele>398.3</ele>
        <time>2019-08-28T10:58:41Z</time>
      </trkpt>
      <trkpt lat="36.4757640" lon="-5.2940850">
        <ele>398.4</ele>
        <time>2019-08-28T10:58:42Z</time>
      </trkpt>
      <trkpt lat="36.4757250" lon="-5.2940770">
        <ele>398.5</ele>
        <time>2019-08-28T10:58:43Z</time>
      </trkpt>
      <trkpt lat="36.4756860" lon="-5.2940690">
        <ele>398.6</ele>
        <time>2019-08-28T10:58:44Z</time>
      </trkpt>
      <trkpt lat="36.4756470" lon="-5.2940630">
        <ele>398.7</ele>
        <time>2019-08-28T10:58:45Z</time>
      </trkpt>
      <trkpt lat="36.4756080" lon="-5.2940570">
        <ele>398.8</ele>
        <time>2019-08-28T10:58:46Z</time>
      </trkpt>
      <trkpt lat="36.4755690" lon="-5.2940530">
        <ele>398.9</ele>
        <time>2019-08-28T10:58:47Z</time>
      </trkpt>
      <trkpt lat="36.4755300" lon="-5.2940480">
        <ele>399.0</ele>
        <time>2019-08-28T10:58:48Z</time>
      </trkpt>
      <trkpt lat="36.4754920" lon="-5.2940420">
        <ele>399.1</ele>
        <time>2019-08-28T10:58:49Z</time>
      </trkpt>
      <trkpt lat="36.4754540" lon="-5.2940370">
        <ele>399.2</ele>
        <time>2019-08-28T10:58:50Z</time>
      </trkpt>
      <trkpt lat="36.4754160" lon="-5.2940330">
        <ele>399.2</ele>
        <time>2019-08-28T10:58:51Z</time>
      </trkpt>
      <trkpt lat="36.4753770" lon="-5.2940310">
        <ele>399.3</ele>
        <time>2019-08-28T10:58:52Z</time>
      </trkpt>
      <trkpt lat="36.4753390" lon="-5.2940300">
        <ele>399.4</ele>
        <time>2019-08-28T10:58:53Z</time>
      </trkpt>
      <trkpt lat="36.4752990" lon="-5.2940280">
        <ele>399.5</ele>
        <time>2019-08-28T10:58:54Z</time>
      </trkpt>
      <trkpt lat="36.4752600" lon="-5.2940260">
        <ele>399.6</ele>
        <time>2019-08-28T10:58:55Z</time>
      </trkpt>
      <trkpt lat="36.4752200" lon="-5.2940240">
        <ele>399.7</ele>
        <time>2019-08-28T10:58:56Z</time>
      </trkpt>
      <trkpt lat="36.4751810" lon="-5.2940210">
        <ele>399.7</ele>
        <time>2019-08-28T10:58:57Z</time>
      </trkpt>
      <trkpt lat="36.4751410" lon="-5.2940170">
        <ele>399.8</ele>
        <time>2019-08-28T10:58:58Z</time>
      </trkpt>
      <trkpt lat="36.4751020" lon="-5.2940130">
        <ele>399.9</ele>
        <time>2019-08-28T10:58:59Z</time>
      </trkpt>
      <trkpt lat="36.4750620" lon="-5.2940090">
        <ele>400.0</ele>
        <time>2019-08-28T10:59:00Z</time>
      </trkpt>
      <trkpt lat="36.4750220" lon="-5.2940050">
        <ele>400.1</ele>
        <time>2019-08-28T10:59:01Z</time>
      </trkpt>
      <trkpt lat="36.4749810" lon="-5.2939990">
        <ele>400.1</ele>
        <time>2019-08-28T10:59:02Z</time>
      </trkpt>
      <trkpt lat="36.4749390" lon="-5.2939910">
        <ele>400.2</ele>
        <time>2019-08-28T10:59:03Z</time>
      </trkpt>
      <trkpt lat="36.4748960" lon="-5.2939810">
        <ele>400.3</ele>
        <time>2019-08-28T10:59:04Z</time>
      </trkpt>
      <trkpt lat="36.4748550" lon="-5.2939690">
        <ele>400.3</ele>
        <time>2019-08-28T10:59:05Z</time>
      </trkpt>
      <trkpt lat="36.4748140" lon="-5.2939550">
        <ele>400.4</ele>
        <time>2019-08-28T10:59:06Z</time>
      </trkpt>
      <trkpt lat="36.4747710" lon="-5.2939390">
        <ele>400.4</ele>
        <time>2019-08-28T10:59:07Z</time>
      </trkpt>
      <trkpt lat="36.4747250" lon="-5.2939190">
        <ele>400.5</ele>
        <time>2019-08-28T10:59:08Z</time>
      </trkpt>
      <trkpt lat="36.4746790" lon="-5.2938900">
        <ele>400.6</ele>
        <time>2019-08-28T10:59:09Z</time>
      </trkpt>
      <trkpt lat="36.4746350" lon="-5.2938530">
        <ele>400.6</ele>
        <time>2019-08-28T10:59:10Z</time>
      </trkpt>
      <trkpt lat="36.4745910" lon="-5.2938110">
        <ele>400.7</ele>
        <time>2019-08-28T10:59:11Z</time>
      </trkpt>
      <trkpt lat="36.4745500" lon="-5.2937660">
        <ele>400.7</ele>
        <time>2019-08-28T10:59:12Z</time>
      </trkpt>
      <trkpt lat="36.4745080" lon="-5.2937190">
        <ele>400.7</ele>
        <time>2019-08-28T10:59:13Z</time>
      </trkpt>
      <trkpt lat="36.4744670" lon="-5.2936700">
        <ele>400.8</ele>
        <time>2019-08-28T10:59:14Z</time>
      </trkpt>
      <trkpt lat="36.4744260" lon="-5.2936190">
        <ele>400.8</ele>
        <time>2019-08-28T10:59:15Z</time>
      </trkpt>
      <trkpt lat="36.4743860" lon="-5.2935670">
        <ele>400.8</ele>
        <time>2019-08-28T10:59:16Z</time>
      </trkpt>
      <trkpt lat="36.4743460" lon="-5.2935130">
        <ele>400.9</ele>
        <time>2019-08-28T10:59:17Z</time>
      </trkpt>
      <trkpt lat="36.4743050" lon="-5.2934570">
        <ele>400.9</ele>
        <time>2019-08-28T10:59:18Z</time>
      </trkpt>
      <trkpt lat="36.4742640" lon="-5.2934020">
        <ele>401.0</ele>
        <time>2019-08-28T10:59:19Z</time>
      </trkpt>
      <trkpt lat="36.4742200" lon="-5.2933480">
        <ele>401.0</ele>
        <time>2019-08-28T10:59:20Z</time>
      </trkpt>
      <trkpt lat="36.4741750" lon="-5.2932960">
        <ele>401.1</ele>
        <time>2019-08-28T10:59:21Z</time>
      </trkpt>
      <trkpt lat="36.4741260" lon="-5.2932490">
        <ele>401.1</ele>
        <time>2019-08-28T10:59:22Z</time>
      </trkpt>
      <trkpt lat="36.4740740" lon="-5.2932090">
        <ele>401.1</ele>
        <time>2019-08-28T10:59:23Z</time>
      </trkpt>
      <trkpt lat="36.4740160" lon="-5.2931820">
        <ele>401.2</ele>
        <time>2019-08-28T10:59:24Z</time>
      </trkpt>
      <trkpt lat="36.4739550" lon="-5.2931640">
        <ele>401.2</ele>
        <time>2019-08-28T10:59:25Z</time>
      </trkpt>
      <trkpt lat="36.4738920" lon="-5.2931530">
        <ele>401.2</ele>
        <time>2019-08-28T10:59:26Z</time>
      </trkpt>
      <trkpt lat="36.4738320" lon="-5.2931440">
        <ele>401.3</ele>
        <time>2019-08-28T10:59:27Z</time>
      </trkpt>
      <trkpt lat="36.4737720" lon="-5.2931350">
        <ele>401.3</ele>
        <time>2019-08-28T10:59:28Z</time>
      </trkpt>
      <trkpt lat="36.4737130" lon="-5.2931280">
        <ele>401.2</ele>
        <time>2019-08-28T10:59:29Z</time>
      </trkpt>
      <trkpt lat="36.4736550" lon="-5.2931210">
        <ele>401.1</ele>
        <time>2019-08-28T10:59:30Z</time>
      </trkpt>
      <trkpt lat="36.4735960" lon="-5.2931160">
        <ele>401.1</ele>
        <time>2019-08-28T10:59:31Z</time>
      </trkpt>
      <trkpt lat="36.4735370" lon="-5.2931140">
        <ele>401.0</ele>
        <time>2019-08-28T10:59:32Z</time>
      </trkpt>
      <trkpt lat="36.4734780" lon="-5.2931150">
        <ele>400.9</ele>
        <time>2019-08-28T10:59:33Z</time>
      </trkpt>
      <trkpt lat="36.4734180" lon="-5.2931210">
        <ele>400.9</ele>
        <time>2019-08-28T10:59:34Z</time>
      </trkpt>
      <trkpt lat="36.4733580" lon="-5.2931300">
        <ele>400.8</ele>
        <time>2019-08-28T10:59:35Z</time>
      </trkpt>
      <trkpt lat="36.4732970" lon="-5.2931410">
        <ele>400.7</ele>
        <time>2019-08-28T10:59:36Z</time>
      </trkpt>
      <trkpt lat="36.4732360" lon="-5.2931530">
        <ele>400.6</ele>
        <time>2019-08-28T10:59:37Z</time>
      </trkpt>
      <trkpt lat="36.4731730" lon="-5.2931650">
        <ele>400.6</ele>
        <time>2019-08-28T10:59:38Z</time>
      </trkpt>
      <trkpt lat="36.4731100" lon="-5.2931770">
        <ele>400.5</ele>
        <time>2019-08-28T10:59:39Z</time>
      </trkpt>
      <trkpt lat="36.4730470" lon="-5.2931900">
        <ele>400.4</ele>
        <time>2019-08-28T10:59:40Z</time>
      </trkpt>
      <trkpt lat="36.4729830" lon="-5.2932030">
        <ele>400.3</ele>
        <time>2019-08-28T10:59:41Z</time>
      </trkpt>
      <trkpt lat="36.4729180" lon="-5.2932170">
        <ele>400.3</ele>
        <time>2019-08-28T10:59:42Z</time>
      </trkpt>
      <trkpt lat="36.4728530" lon="-5.2932300">
        <ele>400.2</ele>
        <time>2019-08-28T10:59:43Z</time>
      </trkpt>
      <trkpt lat="36.4727880" lon="-5.2932440">
        <ele>400.1</ele>
        <time>2019-08-28T10:59:44Z</time>
      </trkpt>
      <trkpt lat="36.4727210" lon="-5.2932580">
        <ele>400.0</ele>
        <time>2019-08-28T10:59:45Z</time>
      </trkpt>
      <trkpt lat="36.4726540" lon="-5.2932720">
        <ele>400.0</ele>
        <time>2019-08-28T10:59:46Z</time>
      </trkpt>
      <trkpt lat="36.4725860" lon="-5.2932850">
        <ele>400.0</ele>
        <time>2019-08-28T10:59:47Z</time>
      </trkpt>
      <trkpt lat="36.4725170" lon="-5.2932980">
        <ele>399.9</ele>
        <time>2019-08-28T10:59:48Z</time>
      </trkpt>
      <trkpt lat="36.4724480" lon="-5.2933110">
        <ele>399.9</ele>
        <time>2019-08-28T10:59:49Z</time>
      </trkpt>
      <trkpt lat="36.4723780" lon="-5.2933240">
        <ele>399.9</ele>
        <time>2019-08-28T10:59:50Z</time>
      </trkpt>
      <trkpt lat="36.4723090" lon="-5.2933360">
        <ele>399.9</ele>
        <time>2019-08-28T10:59:51Z</time>
      </trkpt>
      <trkpt lat="36.4722380" lon="-5.2933490">
        <ele>399.9</ele>
        <time>2019-08-28T10:59:52Z</time>
      </trkpt>
      <trkpt lat="36.4721680" lon="-5.2933620">
        <ele>399.9</ele>
        <time>2019-08-28T10:59:53Z</time>
      </trkpt>
      <trkpt lat="36.4720970" lon="-5.2933760">
        <ele>400.0</ele>
        <time>2019-08-28T10:59:54Z</time>
      </trkpt>
      <trkpt lat="36.4720260" lon="-5.2933950">
        <ele>400.0</ele>
        <time>2019-08-28T10:59:55Z</time>
      </trkpt>
      <trkpt lat="36.4719570" lon="-5.2934220">
        <ele>400.0</ele>
        <time>2019-08-28T10:59:56Z</time>
      </trkpt>
      <trkpt lat="36.4718900" lon="-5.2934580">
        <ele>400.0</ele>
        <time>2019-08-28T10:59:57Z</time>
      </trkpt>
      <trkpt lat="36.4718280" lon="-5.2935030">
        <ele>400.1</ele>
        <time>2019-08-28T10:59:58Z</time>
      </trkpt>
      <trkpt lat="36.4717680" lon="-5.2935530">
        <ele>400.1</ele>
        <time>2019-08-28T10:59:59Z</time>
      </trkpt>
      <trkpt lat="36.4717130" lon="-5.2936080">
        <ele>400.1</ele>
        <time>2019-08-28T11:00:00Z</time>
      </trkpt>
      <trkpt lat="36.4716590" lon="-5.2936650">
        <ele>400.1</ele>
        <time>2019-08-28T11:00:01Z</time>
      </trkpt>
      <trkpt lat="36.4716070" lon="-5.2937230">
        <ele>400.1</ele>
        <time>2019-08-28T11:00:02Z</time>
      </trkpt>
      <trkpt lat="36.4715570" lon="-5.2937830">
        <ele>400.1</ele>
        <time>2019-08-28T11:00:03Z</time>
      </trkpt>
      <trkpt lat="36.4715070" lon="-5.2938440">
        <ele>400.1</ele>
        <time>2019-08-28T11:00:04Z</time>
      </trkpt>
      <trkpt lat="36.4714570" lon="-5.2939050">
        <ele>400.1</ele>
        <time>2019-08-28T11:00:05Z</time>
      </trkpt>
      <trkpt lat="36.4714070" lon="-5.2939660">
        <ele>400.1</ele>
        <time>2019-08-28T11:00:06Z</time>
      </trkpt>
      <trkpt lat="36.4713570" lon="-5.2940270">
        <ele>400.1</ele>
        <time>2019-08-28T11:00:07Z</time>
      </trkpt>
      <trkpt lat="36.4713060" lon="-5.2940850">
        <ele>400.0</ele>
        <time>2019-08-28T11:00:08Z</time>
      </trkpt>
      <trkpt lat="36.4712550" lon="-5.2941410">
        <ele>399.8</ele>
        <time>2019-08-28T11:00:09Z</time>
      </trkpt>
      <trkpt lat="36.4712030" lon="-5.2941940">
        <ele>399.7</ele>
        <time>2019-08-28T11:00:10Z</time>
      </trkpt>
      <trkpt lat="36.4711490" lon="-5.2942440">
        <ele>399.5</ele>
        <time>2019-08-28T11:00:11Z</time>
      </trkpt>
      <trkpt lat="36.4710910" lon="-5.2942870">
        <ele>399.2</ele>
        <time>2019-08-28T11:00:12Z</time>
      </trkpt>
      <trkpt lat="36.4710300" lon="-5.2943210">
        <ele>398.8</ele>
        <time>2019-08-28T11:00:13Z</time>
      </trkpt>
      <trkpt lat="36.4709650" lon="-5.2943460">
        <ele>398.5</ele>
        <time>2019-08-28T11:00:14Z</time>
      </trkpt>
      <trkpt lat="36.4708960" lon="-5.2943610">
        <ele>398.0</ele>
        <time>2019-08-28T11:00:15Z</time>
      </trkpt>
      <trkpt lat="36.4708240" lon="-5.2943670">
        <ele>397.6</ele>
        <time>2019-08-28T11:00:16Z</time>
      </trkpt>
      <trkpt lat="36.4707500" lon="-5.2943640">
        <ele>397.1</ele>
        <time>2019-08-28T11:00:17Z</time>
      </trkpt>
      <trkpt lat="36.4706740" lon="-5.2943520">
        <ele>396.6</ele>
        <time>2019-08-28T11:00:18Z</time>
      </trkpt>
      <trkpt lat="36.4705960" lon="-5.2943330">
        <ele>396.1</ele>
        <time>2019-08-28T11:00:19Z</time>
      </trkpt>
      <trkpt lat="36.4705180" lon="-5.2943090">
        <ele>395.6</ele>
        <time>2019-08-28T11:00:20Z</time>
      </trkpt>
      <trkpt lat="36.4704390" lon="-5.2942840">
        <ele>395.1</ele>
        <time>2019-08-28T11:00:21Z</time>
      </trkpt>
      <trkpt lat="36.4703580" lon="-5.2942580">
        <ele>394.6</ele>
        <time>2019-08-28T11:00:22Z</time>
      </trkpt>
      <trkpt lat="36.4702770" lon="-5.2942310">
        <ele>394.1</ele>
        <time>2019-08-28T11:00:23Z</time>
      </trkpt>
      <trkpt lat="36.4701930" lon="-5.2942010">
        <ele>393.6</ele>
        <time>2019-08-28T11:00:24Z</time>
      </trkpt>
      <trkpt lat="36.4701080" lon="-5.2941680">
        <ele>393.1</ele>
        <time>2019-08-28T11:00:25Z</time>
      </trkpt>
      <trkpt lat="36.4700210" lon="-5.2941320">
        <ele>392.6</ele>
        <time>2019-08-28T11:00:26Z</time>
      </trkpt>
      <trkpt lat="36.4699320" lon="-5.2940940">
        <ele>392.0</ele>
        <time>2019-08-28T11:00:27Z</time>
      </trkpt>
      <trkpt lat="36.4698420" lon="-5.2940560">
        <ele>391.5</ele>
        <time>2019-08-28T11:00:28Z</time>
      </trkpt>
      <trkpt lat="36.4697500" lon="-5.2940210">
        <ele>391.0</ele>
        <time>2019-08-28T11:00:29Z</time>
      </trkpt>
      <trkpt lat="36.4696560" lon="-5.2939890">
        <ele>390.5</ele>
        <time>2019-08-28T11:00:30Z</time>
      </trkpt>
      <trkpt lat="36.4695600" lon="-5.2939620">
        <ele>390.1</ele>
        <time>2019-08-28T11:00:31Z</time>
      </trkpt>
      <trkpt lat="36.4694620" lon="-5.2939400">
        <ele>389.7</ele>
        <time>2019-08-28T11:00:32Z</time>
      </trkpt>
      <trkpt lat="36.4693620" lon="-5.2939250">
        <ele>389.2</ele>
        <time>2019-08-28T11:00:33Z</time>
      </trkpt>
      <trkpt lat="36.4692620" lon="-5.2939180">
        <ele>388.6</ele>
        <time>2019-08-28T11:00:34Z</time>
      </trkpt>
      <trkpt lat="36.4691620" lon="-5.2939210">
        <ele>388.0</ele>
        <time>2019-08-28T11:00:35Z</time>
      </trkpt>
      <trkpt lat="36.4690610" lon="-5.2939290">
        <ele>387.3</ele>
        <time>2019-08-28T11:00:36Z</time>
      </trkpt>
      <trkpt lat="36.4689610" lon="-5.2939410">
        <ele>386.8</ele>
        <time>2019-08-28T11:00:37Z</time>
      </trkpt>
      <trkpt lat="36.4688620" lon="-5.2939540">
        <ele>386.4</ele>
        <time>2019-08-28T11:00:38Z</time>
      </trkpt>
      <trkpt lat="36.4687630" lon="-5.2939690">
        <ele>385.9</ele>
        <time>2019-08-28T11:00:39Z</time>
      </trkpt>
      <trkpt lat="36.4686640" lon="-5.2939850">
        <ele>385.4</ele>
        <time>2019-08-28T11:00:40Z</time>
      </trkpt>
      <trkpt lat="36.4685650" lon="-5.2940010">
        <ele>384.7</ele>
        <time>2019-08-28T11:00:41Z</time>
      </trkpt>
      <trkpt lat="36.4684650" lon="-5.2940170">
        <ele>384.1</ele>
        <time>2019-08-28T11:00:42Z</time>
      </trkpt>
      <trkpt lat="36.4683650" lon="-5.2940320">
        <ele>383.5</ele>
        <time>2019-08-28T11:00:43Z</time>
      </trkpt>
      <trkpt lat="36.4682660" lon="-5.2940460">
        <ele>383.0</ele>
        <time>2019-08-28T11:00:44Z</time>
      </trkpt>
      <trkpt lat="36.4681670" lon="-5.2940600">
        <ele>382.5</ele>
        <time>2019-08-28T11:00:45Z</time>
      </trkpt>
      <trkpt lat="36.4680680" lon="-5.2940740">
        <ele>382.0</ele>
        <time>2019-08-28T11:00:46Z</time>
      </trkpt>
      <trkpt lat="36.4679690" lon="-5.2940890">
        <ele>381.5</ele>
        <time>2019-08-28T11:00:47Z</time>
      </trkpt>
      <trkpt lat="36.4678680" lon="-5.2941040">
        <ele>380.9</ele>
        <time>2019-08-28T11:00:48Z</time>
      </trkpt>
      <trkpt lat="36.4677660" lon="-5.2941190">
        <ele>380.1</ele>
        <time>2019-08-28T11:00:49Z</time>
      </trkpt>
      <trkpt lat="36.4676650" lon="-5.2941320">
        <ele>379.4</ele>
        <time>2019-08-28T11:00:50Z</time>
      </trkpt>
      <trkpt lat="36.4675640" lon="-5.2941440">
        <ele>378.7</ele>
        <time>2019-08-28T11:00:51Z</time>
      </trkpt>
      <trkpt lat="36.4674620" lon="-5.2941550">
        <ele>378.1</ele>
        <time>2019-08-28T11:00:52Z</time>
      </trkpt>
      <trkpt lat="36.4673610" lon="-5.2941660">
        <ele>377.6</ele>
        <time>2019-08-28T11:00:53Z</time>
      </trkpt>
      <trkpt lat="36.4672570" lon="-5.2941790">
        <ele>377.1</ele>
        <time>2019-08-28T11:00:54Z</time>
      </trkpt>
      <trkpt lat="36.4671530" lon="-5.2941930">
        <ele>376.5</ele>
        <time>2019-08-28T11:00:55Z</time>
      </trkpt>
      <trkpt lat="36.4670450" lon="-5.2942080">
        <ele>375.9</ele>
        <time>2019-08-28T11:00:56Z</time>
      </trkpt>
      <trkpt lat="36.4669360" lon="-5.2942220">
        <ele>375.2</ele>
        <time>2019-08-28T11:00:57Z</time>
      </trkpt>
      <trkpt lat="36.4668240" lon="-5.2942370">
        <ele>374.5</ele>
        <time>2019-08-28T11:00:58Z</time>
      </trkpt>
      <trkpt lat="36.4667110" lon="-5.2942540">
        <ele>373.8</ele>
        <time>2019-08-28T11:00:59Z</time>
      </trkpt>
      <trkpt lat="36.4665980" lon="-5.2942720">
        <ele>373.1</ele>
        <time>2019-08-28T11:01:00Z</time>
      </trkpt>
      <trkpt lat="36.4664840" lon="-5.2942900">
        <ele>372.5</ele>
        <time>2019-08-28T11:01:01Z</time>
      </trkpt>
      <trkpt lat="36.4663710" lon="-5.2943090">
        <ele>371.8</ele>
        <time>2019-08-28T11:01:02Z</time>
      </trkpt>
      <trkpt lat="36.4662560" lon="-5.2943280">
        <ele>370.9</ele>
        <time>2019-08-28T11:01:03Z</time>
      </trkpt>
      <trkpt lat="36.4661410" lon="-5.2943480">
        <ele>369.8</ele>
        <time>2019-08-28T11:01:04Z</time>
      </trkpt>
      <trkpt lat="36.4660240" lon="-5.2943670">
        <ele>368.6</ele>
        <time>2019-08-28T11:01:05Z</time>
      </trkpt>
      <trkpt lat="36.4659050" lon="-5.2943860">
        <ele>367.6</ele>
        <time>2019-08-28T11:01:06Z</time>
      </trkpt>
      <trkpt lat="36.4657860" lon="-5.2944040">
        <ele>366.7</ele>
        <time>2019-08-28T11:01:07Z</time>
      </trkpt>
      <trkpt lat="36.4656660" lon="-5.2944230">
        <ele>365.9</ele>
        <time>2019-08-28T11:01:08Z</time>
      </trkpt>
      <trkpt lat="36.4655450" lon="-5.2944420">
        <ele>365.1</ele>
        <time>2019-08-28T11:01:09Z</time>
      </trkpt>
      <trkpt lat="36.4654230" lon="-5.2944620">
        <ele>364.5</ele>
        <time>2019-08-28T11:01:10Z</time>
      </trkpt>
      <trkpt lat="36.4653000" lon="-5.2944820">
        <ele>364.0</ele>
        <time>2019-08-28T11:01:11Z</time>
      </trkpt>
      <trkpt lat="36.4651750" lon="-5.2945000">
        <ele>363.5</ele>
        <time>2019-08-28T11:01:12Z</time>
      </trkpt>
      <trkpt lat="36.4650490" lon="-5.2945190">
        <ele>363.0</ele>
        <time>2019-08-28T11:01:13Z</time>
      </trkpt>
      <trkpt lat="36.4649210" lon="-5.2945390">
        <ele>362.5</ele>
        <time>2019-08-28T11:01:14Z</time>
      </trkpt>
      <trkpt lat="36.4647930" lon="-5.2945580">
        <ele>361.8</ele>
        <time>2019-08-28T11:01:15Z</time>
      </trkpt>
      <trkpt lat="36.4646650" lon="-5.2945760">
        <ele>360.8</ele>
        <time>2019-08-28T11:01:16Z</time>
      </trkpt>
      <trkpt lat="36.4645350" lon="-5.2945920">
        <ele>359.5</ele>
        <time>2019-08-28T11:01:17Z</time>
      </trkpt>
      <trkpt lat="36.4644040" lon="-5.2946100">
        <ele>358.1</ele>
        <time>2019-08-28T11:01:18Z</time>
      </trkpt>
      <trkpt lat="36.4642710" lon="-5.2946280">
        <ele>356.7</ele>
        <time>2019-08-28T11:01:19Z</time>
      </trkpt>
      <trkpt lat="36.4641370" lon="-5.2946470">
        <ele>355.4</ele>
        <time>2019-08-28T11:01:20Z</time>
      </trkpt>
      <trkpt lat="36.4640010" lon="-5.2946640">
        <ele>354.5</ele>
        <time>2019-08-28T11:01:21Z</time>
      </trkpt>
      <trkpt lat="36.4638630" lon="-5.2946800">
        <ele>353.6</ele>
        <time>2019-08-28T11:01:22Z</time>
      </trkpt>
      <trkpt lat="36.4637240" lon="-5.2946940">
        <ele>352.6</ele>
        <time>2019-08-28T11:01:23Z</time>
      </trkpt>
      <trkpt lat="36.4635840" lon="-5.2947080">
        <ele>351.5</ele>
        <time>2019-08-28T11:01:24Z</time>
      </trkpt>
      <trkpt lat="36.4634420" lon="-5.2947240">
        <ele>350.4</ele>
        <time>2019-08-28T11:01:25Z</time>
      </trkpt>
      <trkpt lat="36.4633000" lon="-5.2947390">
        <ele>349.2</ele>
        <time>2019-08-28T11:01:26Z</time>
      </trkpt>
      <trkpt lat="36.4631570" lon="-5.2947510">
        <ele>348.1</ele>
        <time>2019-08-28T11:01:27Z</time>
      </trkpt>
      <trkpt lat="36.4630130" lon="-5.2947600">
        <ele>347.0</ele>
        <time>2019-08-28T11:01:28Z</time>
      </trkpt>
      <trkpt lat="36.4628660" lon="-5.2947680">
        <ele>345.8</ele>
        <time>2019-08-28T11:01:29Z</time>
      </trkpt>
      <trkpt lat="36.4627190" lon="-5.2947780">
        <ele>344.7</ele>
        <time>2019-08-28T11:01:30Z</time>
      </trkpt>
      <trkpt lat="36.4625700" lon="-5.2947910">
        <ele>343.9</ele>
        <time>2019-08-28T11:01:31Z</time>
      </trkpt>
      <trkpt lat="36.4624200" lon="-5.2948060">
        <ele>342.9</ele>
        <time>2019-08-28T11:01:32Z</time>
      </trkpt>
      <trkpt lat="36.4622710" lon="-5.2948220">
        <ele>341.8</ele>
        <time>2019-08-28T11:01:33Z</time>
      </trkpt>
      <trkpt lat="36.4621220" lon="-5.2948360">
        <ele>340.5</ele>
        <time>2019-08-28T11:01:34Z</time>
      </trkpt>
      <trkpt lat="36.4619740" lon="-5.2948500">
        <ele>339.5</ele>
        <time>2019-08-28T11:01:35Z</time>
      </trkpt>
      <trkpt lat="36.4618270" lon="-5.2948630">
        <ele>338.9</ele>
        <time>2019-08-28T11:01:36Z</time>
      </trkpt>
      <trkpt lat="36.4616820" lon="-5.2948750">
        <ele>338.8</ele>
        <time>2019-08-28T11:01:37Z</time>
      </trkpt>
      <trkpt lat="36.4615380" lon="-5.2948850">
        <ele>338.7</ele>
        <time>2019-08-28T11:01:38Z</time>
      </trkpt>
      <trkpt lat="36.4613950" lon="-5.2948960">
        <ele>338.7</ele>
        <time>2019-08-28T11:01:39Z</time>
      </trkpt>
      <trkpt lat="36.4612550" lon="-5.2949090">
        <ele>338.8</ele>
        <time>2019-08-28T11:01:40Z</time>
      </trkpt>
      <trkpt lat="36.4611180" lon="-5.2949230">
        <ele>339.0</ele>
        <time>2019-08-28T11:01:41Z</time>
      </trkpt>
      <trkpt lat="36.4609850" lon="-5.2949350">
        <ele>339.2</ele>
        <time>2019-08-28T11:01:42Z</time>
      </trkpt>
      <trkpt lat="36.4608560" lon="-5.2949450">
        <ele>339.5</ele>
        <time>2019-08-28T11:01:43Z</time>
      </trkpt>
      <trkpt lat="36.4607310" lon="-5.2949530">
        <ele>339.8</ele>
        <time>2019-08-28T11:01:44Z</time>
      </trkpt>
      <trkpt lat="36.4606130" lon="-5.2949620">
        <ele>340.3</ele>
        <time>2019-08-28T11:01:45Z</time>
      </trkpt>
      <trkpt lat="36.4605010" lon="-5.2949730">
        <ele>340.7</ele>
        <time>2019-08-28T11:01:46Z</time>
      </trkpt>
      <trkpt lat="36.4603960" lon="-5.2949840">
        <ele>341.2</ele>
        <time>2019-08-28T11:01:47Z</time>
      </trkpt>
      <trkpt lat="36.4602950" lon="-5.2949950">
        <ele>341.8</ele>
        <time>2019-08-28T11:01:48Z</time>
      </trkpt>
      <trkpt lat="36.4601990" lon="-5.2950040">
        <ele>342.3</ele>
        <time>2019-08-28T11:01:49Z</time>
      </trkpt>
      <trkpt lat="36.4601050" lon="-5.2950130">
        <ele>342.9</ele>
        <time>2019-08-28T11:01:50Z</time>
      </trkpt>
      <trkpt lat="36.4600150" lon="-5.2950200">
        <ele>343.5</ele>
        <time>2019-08-28T11:01:51Z</time>
      </trkpt>
      <trkpt lat="36.4599280" lon="-5.2950270">
        <ele>344.1</ele>
        <time>2019-08-28T11:01:52Z</time>
      </trkpt>
      <trkpt lat="36.4598430" lon="-5.2950340">
        <ele>344.6</ele>
        <time>2019-08-28T11:01:53Z</time>
      </trkpt>
      <trkpt lat="36.4597630" lon="-5.2950400">
        <ele>345.0</ele>
        <time>2019-08-28T11:01:54Z</time>
      </trkpt>
      <trkpt lat="36.4596840" lon="-5.2950450">
        <ele>345.3</ele>
        <time>2019-08-28T11:01:55Z</time>
      </trkpt>
      <trkpt lat="36.4596080" lon="-5.2950500">
        <ele>345.5</ele>
        <time>2019-08-28T11:01:56Z</time>
      </trkpt>
      <trkpt lat="36.4595350" lon="-5.2950570">
        <ele>345.6</ele>
        <time>2019-08-28T11:01:57Z</time>
      </trkpt>
      <trkpt lat="36.4594650" lon="-5.2950630">
        <ele>345.7</ele>
        <time>2019-08-28T11:01:58Z</time>
      </trkpt>
      <trkpt lat="36.4594000" lon="-5.2950670">
        <ele>345.7</ele>
        <time>2019-08-28T11:01:59Z</time>
      </trkpt>
      <trkpt lat="36.4593370" lon="-5.2950680">
        <ele>345.8</ele>
        <time>2019-08-28T11:02:00Z</time>
      </trkpt>
      <trkpt lat="36.4592750" lon="-5.2950680">
        <ele>345.8</ele>
        <time>2019-08-28T11:02:01Z</time>
      </trkpt>
      <trkpt lat="36.4592150" lon="-5.2950650">
        <ele>345.8</ele>
        <time>2019-08-28T11:02:02Z</time>
      </trkpt>
      <trkpt lat="36.4591570" lon="-5.2950590">
        <ele>345.8</ele>
        <time>2019-08-28T11:02:03Z</time>
      </trkpt>
      <trkpt lat="36.4591010" lon="-5.2950510">
        <ele>345.8</ele>
        <time>2019-08-28T11:02:04Z</time>
      </trkpt>
      <trkpt lat="36.4590460" lon="-5.2950400">
        <ele>345.8</ele>
        <time>2019-08-28T11:02:05Z</time>
      </trkpt>
      <trkpt lat="36.4589910" lon="-5.2950250">
        <ele>345.8</ele>
        <time>2019-08-28T11:02:06Z</time>
      </trkpt>
      <trkpt lat="36.4589380" lon="-5.2950070">
        <ele>345.8</ele>
        <time>2019-08-28T11:02:07Z</time>
      </trkpt>
      <trkpt lat="36.4588860" lon="-5.2949850">
        <ele>345.8</ele>
        <time>2019-08-28T11:02:08Z</time>
      </trkpt>
      <trkpt lat="36.4588340" lon="-5.2949640">
        <ele>345.8</ele>
        <time>2019-08-28T11:02:09Z</time>
      </trkpt>
      <trkpt lat="36.4587830" lon="-5.2949410">
        <ele>345.8</ele>
        <time>2019-08-28T11:02:10Z</time>
      </trkpt>
      <trkpt lat="36.4587320" lon="-5.2949170">
        <ele>345.8</ele>
        <time>2019-08-28T11:02:11Z</time>
      </trkpt>
      <trkpt lat="36.4586810" lon="-5.2948910">
        <ele>345.8</ele>
        <time>2019-08-28T11:02:12Z</time>
      </trkpt>
      <trkpt lat="36.4586300" lon="-5.2948660">
        <ele>345.8</ele>
        <time>2019-08-28T11:02:13Z</time>
      </trkpt>
      <trkpt lat="36.4585800" lon="-5.2948410">
        <ele>345.8</ele>
        <time>2019-08-28T11:02:14Z</time>
      </trkpt>
      <trkpt lat="36.4585300" lon="-5.2948160">
        <ele>345.7</ele>
        <time>2019-08-28T11:02:15Z</time>
      </trkpt>
      <trkpt lat="36.4584810" lon="-5.2947930">
        <ele>345.7</ele>
        <time>2019-08-28T11:02:16Z</time>
      </trkpt>
      <trkpt lat="36.4584320" lon="-5.2947700">
        <ele>345.7</ele>
        <time>2019-08-28T11:02:17Z</time>
      </trkpt>
      <trkpt lat="36.4583850" lon="-5.2947480">
        <ele>345.7</ele>
        <time>2019-08-28T11:02:18Z</time>
      </trkpt>
      <trkpt lat="36.4583380" lon="-5.2947260">
        <ele>345.7</ele>
        <time>2019-08-28T11:02:19Z</time>
      </trkpt>
      <trkpt lat="36.4582920" lon="-5.2947040">
        <ele>345.7</ele>
        <time>2019-08-28T11:02:20Z</time>
      </trkpt>
      <trkpt lat="36.4582460" lon="-5.2946820">
        <ele>345.7</ele>
        <time>2019-08-28T11:02:21Z</time>
      </trkpt>
      <trkpt lat="36.4582010" lon="-5.2946600">
        <ele>345.6</ele>
        <time>2019-08-28T11:02:22Z</time>
      </trkpt>
      <trkpt lat="36.4581550" lon="-5.2946380">
        <ele>345.5</ele>
        <time>2019-08-28T11:02:23Z</time>
      </trkpt>
      <trkpt lat="36.4581090" lon="-5.2946160">
        <ele>345.5</ele>
        <time>2019-08-28T11:02:24Z</time>
      </trkpt>
      <trkpt lat="36.4580620" lon="-5.2945940">
        <ele>345.4</ele>
        <time>2019-08-28T11:02:25Z</time>
      </trkpt>
      <trkpt lat="36.4580150" lon="-5.2945720">
        <ele>345.3</ele>
        <time>2019-08-28T11:02:26Z</time>
      </trkpt>
      <trkpt lat="36.4579690" lon="-5.2945500">
        <ele>345.1</ele>
        <time>2019-08-28T11:02:27Z</time>
      </trkpt>
      <trkpt lat="36.4579230" lon="-5.2945270">
        <ele>345.0</ele>
        <time>2019-08-28T11:02:28Z</time>
      </trkpt>
      <trkpt lat="36.4578780" lon="-5.2945040">
        <ele>344.9</ele>
        <time>2019-08-28T11:02:29Z</time>
      </trkpt>
      <trkpt lat="36.4578330" lon="-5.2944810">
        <ele>344.7</ele>
        <time>2019-08-28T11:02:30Z</time>
      </trkpt>
      <trkpt lat="36.4577890" lon="-5.2944560">
        <ele>344.6</ele>
        <time>2019-08-28T11:02:31Z</time>
      </trkpt>
      <trkpt lat="36.4577450" lon="-5.2944290">
        <ele>344.4</ele>
        <time>2019-08-28T11:02:32Z</time>
      </trkpt>
      <trkpt lat="36.4577000" lon="-5.2944010">
        <ele>344.3</ele>
        <time>2019-08-28T11:02:33Z</time>
      </trkpt>
      <trkpt lat="36.4576540" lon="-5.2943720">
        <ele>344.1</ele>
        <time>2019-08-28T11:02:34Z</time>
      </trkpt>
      <trkpt lat="36.4576080" lon="-5.2943400">
        <ele>343.9</ele>
        <time>2019-08-28T11:02:35Z</time>
      </trkpt>
      <trkpt lat="36.4575610" lon="-5.2943070">
        <ele>343.7</ele>
        <time>2019-08-28T11:02:36Z</time>
      </trkpt>
      <trkpt lat="36.4575140" lon="-5.2942730">
        <ele>343.5</ele>
        <time>2019-08-28T11:02:37Z</time>
      </trkpt>
      <trkpt lat="36.4574650" lon="-5.2942370">
        <ele>343.3</ele>
        <time>2019-08-28T11:02:38Z</time>
      </trkpt>
      <trkpt lat="36.4574150" lon="-5.2941990">
        <ele>343.1</ele>
        <time>2019-08-28T11:02:39Z</time>
      </trkpt>
      <trkpt lat="36.4573620" lon="-5.2941600">
        <ele>342.9</ele>
        <time>2019-08-28T11:02:40Z</time>
      </trkpt>
      <trkpt lat="36.4573080" lon="-5.2941190">
        <ele>342.7</ele>
        <time>2019-08-28T11:02:41Z</time>
      </trkpt>
      <trkpt lat="36.4572520" lon="-5.2940760">
        <ele>342.3</ele>
        <time>2019-08-28T11:02:42Z</time>
      </trkpt>
      <trkpt lat="36.4571940" lon="-5.2940320">
        <ele>342.0</ele>
        <time>2019-08-28T11:02:43Z</time>
      </trkpt>
      <trkpt lat="36.4571340" lon="-5.2939860">
        <ele>341.6</ele>
        <time>2019-08-28T11:02:44Z</time>
      </trkpt>
      <trkpt lat="36.4570730" lon="-5.2939400">
        <ele>341.2</ele>
        <time>2019-08-28T11:02:45Z</time>
      </trkpt>
      <trkpt lat="36.4570090" lon="-5.2938920">
        <ele>340.8</ele>
        <time>2019-08-28T11:02:46Z</time>
      </trkpt>
      <trkpt lat="36.4569430" lon="-5.2938450">
        <ele>340.4</ele>
        <time>2019-08-28T11:02:47Z</time>
      </trkpt>
      <trkpt lat="36.4568740" lon="-5.2937980">
        <ele>340.0</ele>
        <time>2019-08-28T11:02:48Z</time>
      </trkpt>
      <trkpt lat="36.4568030" lon="-5.2937530">
        <ele>339.6</ele>
        <time>2019-08-28T11:02:49Z</time>
      </trkpt>
      <trkpt lat="36.4567290" lon="-5.2937110">
        <ele>339.2</ele>
        <time>2019-08-28T11:02:50Z</time>
      </trkpt>
      <trkpt lat="36.4566510" lon="-5.2936710">
        <ele>338.8</ele>
        <time>2019-08-28T11:02:51Z</time>
      </trkpt>
      <trkpt lat="36.4565700" lon="-5.2936370">
        <ele>338.2</ele>
        <time>2019-08-28T11:02:52Z</time>
      </trkpt>
      <trkpt lat="36.4564840" lon="-5.2936080">
        <ele>337.5</ele>
        <time>2019-08-28T11:02:53Z</time>
      </trkpt>
      <trkpt lat="36.4563960" lon="-5.2935860">
        <ele>336.7</ele>
        <time>2019-08-28T11:02:54Z</time>
      </trkpt>
      <trkpt lat="36.4563050" lon="-5.2935680">
        <ele>335.9</ele>
        <time>2019-08-28T11:02:55Z</time>
      </trkpt>
      <trkpt lat="36.4562120" lon="-5.2935520">
        <ele>334.9</ele>
        <time>2019-08-28T11:02:56Z</time>
      </trkpt>
      <trkpt lat="36.4561180" lon="-5.2935350">
        <ele>333.9</ele>
        <time>2019-08-28T11:02:57Z</time>
      </trkpt>
      <trkpt lat="36.4560220" lon="-5.2935180">
        <ele>333.0</ele>
        <time>2019-08-28T11:02:58Z</time>
      </trkpt>
      <trkpt lat="36.4559240" lon="-5.2935000">
        <ele>331.9</ele>
        <time>2019-08-28T11:02:59Z</time>
      </trkpt>
      <trkpt lat="36.4558250" lon="-5.2934820">
        <ele>330.8</ele>
        <time>2019-08-28T11:03:00Z</time>
      </trkpt>
      <trkpt lat="36.4557240" lon="-5.2934660">
        <ele>329.7</ele>
        <time>2019-08-28T11:03:01Z</time>
      </trkpt>
      <trkpt lat="36.4556230" lon="-5.2934510">
        <ele>328.7</ele>
        <time>2019-08-28T11:03:02Z</time>
      </trkpt>
      <trkpt lat="36.4555200" lon="-5.2934340">
        <ele>327.7</ele>
        <time>2019-08-28T11:03:03Z</time>
      </trkpt>
      <trkpt lat="36.4554170" lon="-5.2934160">
        <ele>326.8</ele>
        <time>2019-08-28T11:03:04Z</time>
      </trkpt>
      <trkpt lat="36.4553130" lon="-5.2933970">
        <ele>325.8</ele>
        <time>2019-08-28T11:03:05Z</time>
      </trkpt>
      <trkpt lat="36.4552100" lon="-5.2933790">
        <ele>324.9</ele>
        <time>2019-08-28T11:03:06Z</time>
      </trkpt>
      <trkpt lat="36.4551070" lon="-5.2933620">
        <ele>324.0</ele>
        <time>2019-08-28T11:03:07Z</time>
      </trkpt>
      <trkpt lat="36.4550030" lon="-5.2933450">
        <ele>323.0</ele>
        <time>2019-08-28T11:03:08Z</time>
      </trkpt>
      <trkpt lat="36.4549000" lon="-5.2933290">
        <ele>322.1</ele>
        <time>2019-08-28T11:03:09Z</time>
      </trkpt>
      <trkpt lat="36.4547960" lon="-5.2933130">
        <ele>321.0</ele>
        <time>2019-08-28T11:03:10Z</time>
      </trkpt>
      <trkpt lat="36.4546920" lon="-5.2932960">
        <ele>319.9</ele>
        <time>2019-08-28T11:03:11Z</time>
      </trkpt>
      <trkpt lat="36.4545870" lon="-5.2932770">
        <ele>318.7</ele>
        <time>2019-08-28T11:03:12Z</time>
      </trkpt>
      <trkpt lat="36.4544800" lon="-5.2932550">
        <ele>316.9</ele>
        <time>2019-08-28T11:03:13Z</time>
      </trkpt>
      <trkpt lat="36.4543730" lon="-5.2932300">
        <ele>314.8</ele>
        <time>2019-08-28T11:03:14Z</time>
      </trkpt>
      <trkpt lat="36.4542660" lon="-5.2931990">
        <ele>312.9</ele>
        <time>2019-08-28T11:03:15Z</time>
      </trkpt>
      <trkpt lat="36.4541590" lon="-5.2931600">
        <ele>311.4</ele>
        <time>2019-08-28T11:03:16Z</time>
      </trkpt>
      <trkpt lat="36.4540530" lon="-5.2931120">
        <ele>310.4</ele>
        <time>2019-08-28T11:03:17Z</time>
      </trkpt>
      <trkpt lat="36.4539490" lon="-5.2930580">
        <ele>310.0</ele>
        <time>2019-08-28T11:03:18Z</time>
      </trkpt>
      <trkpt lat="36.4538470" lon="-5.2929980">
        <ele>309.8</ele>
        <time>2019-08-28T11:03:19Z</time>
      </trkpt>
      <trkpt lat="36.4537460" lon="-5.2929330">
        <ele>309.8</ele>
        <time>2019-08-28T11:03:20Z</time>
      </trkpt>
      <trkpt lat="36.4536450" lon="-5.2928640">
        <ele>309.8</ele>
        <time>2019-08-28T11:03:21Z</time>
      </trkpt>
      <trkpt lat="36.4535430" lon="-5.2927950">
        <ele>309.9</ele>
        <time>2019-08-28T11:03:22Z</time>
      </trkpt>
      <trkpt lat="36.4534410" lon="-5.2927240">
        <ele>310.0</ele>
        <time>2019-08-28T11:03:23Z</time>
      </trkpt>
      <trkpt lat="36.4533400" lon="-5.2926530">
        <ele>310.2</ele>
        <time>2019-08-28T11:03:24Z</time>
      </trkpt>
      <trkpt lat="36.4532420" lon="-5.2925810">
        <ele>310.5</ele>
        <time>2019-08-28T11:03:25Z</time>
      </trkpt>
      <trkpt lat="36.4531460" lon="-5.2925060">
        <ele>310.9</ele>
        <time>2019-08-28T11:03:26Z</time>
      </trkpt>
      <trkpt lat="36.4530570" lon="-5.2924260">
        <ele>311.3</ele>
        <time>2019-08-28T11:03:27Z</time>
      </trkpt>
      <trkpt lat="36.4529740" lon="-5.2923440">
        <ele>311.8</ele>
        <time>2019-08-28T11:03:28Z</time>
      </trkpt>
      <trkpt lat="36.4528980" lon="-5.2922590">
        <ele>312.3</ele>
        <time>2019-08-28T11:03:29Z</time>
      </trkpt>
      <trkpt lat="36.4528260" lon="-5.2921750">
        <ele>312.7</ele>
        <time>2019-08-28T11:03:30Z</time>
      </trkpt>
      <trkpt lat="36.4527570" lon="-5.2920950">
        <ele>313.1</ele>
        <time>2019-08-28T11:03:31Z</time>
      </trkpt>
      <trkpt lat="36.4526900" lon="-5.2920210">
        <ele>313.4</ele>
        <time>2019-08-28T11:03:32Z</time>
      </trkpt>
      <trkpt lat="36.4526250" lon="-5.2919530">
        <ele>313.8</ele>
        <time>2019-08-28T11:03:33Z</time>
      </trkpt>
      <trkpt lat="36.4525620" lon="-5.2918890">
        <ele>314.1</ele>
        <time>2019-08-28T11:03:34Z</time>
      </trkpt>
      <trkpt lat="36.4524990" lon="-5.2918300">
        <ele>314.4</ele>
        <time>2019-08-28T11:03:35Z</time>
      </trkpt>
      <trkpt lat="36.4524370" lon="-5.2917770">
        <ele>314.7</ele>
        <time>2019-08-28T11:03:36Z</time>
      </trkpt>
      <trkpt lat="36.4523750" lon="-5.2917300">
        <ele>314.9</ele>
        <time>2019-08-28T11:03:37Z</time>
      </trkpt>
      <trkpt lat="36.4523130" lon="-5.2916840">
        <ele>315.2</ele>
        <time>2019-08-28T11:03:38Z</time>
      </trkpt>
      <trkpt lat="36.4522520" lon="-5.2916400">
        <ele>315.5</ele>
        <time>2019-08-28T11:03:39Z</time>
      </trkpt>
      <trkpt lat="36.4521910" lon="-5.2915970">
        <ele>315.7</ele>
        <time>2019-08-28T11:03:40Z</time>
      </trkpt>
      <trkpt lat="36.4521320" lon="-5.2915580">
        <ele>315.9</ele>
        <time>2019-08-28T11:03:41Z</time>
      </trkpt>
      <trkpt lat="36.4520740" lon="-5.2915200">
        <ele>316.1</ele>
        <time>2019-08-28T11:03:42Z</time>
      </trkpt>
      <trkpt lat="36.4520170" lon="-5.2914850">
        <ele>316.3</ele>
        <time>2019-08-28T11:03:43Z</time>
      </trkpt>
      <trkpt lat="36.4519600" lon="-5.2914520">
        <ele>316.5</ele>
        <time>2019-08-28T11:03:44Z</time>
      </trkpt>
      <trkpt lat="36.4519030" lon="-5.2914200">
        <ele>316.7</ele>
        <time>2019-08-28T11:03:45Z</time>
      </trkpt>
      <trkpt lat="36.4518470" lon="-5.2913920">
        <ele>316.8</ele>
        <time>2019-08-28T11:03:46Z</time>
      </trkpt>
      <trkpt lat="36.4517910" lon="-5.2913660">
        <ele>317.0</ele>
        <time>2019-08-28T11:03:47Z</time>
      </trkpt>
      <trkpt lat="36.4517360" lon="-5.2913430">
        <ele>317.2</ele>
        <time>2019-08-28T11:03:48Z</time>
      </trkpt>
      <trkpt lat="36.4516820" lon="-5.2913230">
        <ele>317.4</ele>
        <time>2019-08-28T11:03:49Z</time>
      </trkpt>
      <trkpt lat="36.4516280" lon="-5.2913050">
        <ele>317.6</ele>
        <time>2019-08-28T11:03:50Z</time>
      </trkpt>
      <trkpt lat="36.4515760" lon="-5.2912890">
        <ele>317.8</ele>
        <time>2019-08-28T11:03:51Z</time>
      </trkpt>
      <trkpt lat="36.4515240" lon="-5.2912740">
        <ele>318.0</ele>
        <time>2019-08-28T11:03:52Z</time>
      </trkpt>
      <trkpt lat="36.4514740" lon="-5.2912620">
        <ele>318.2</ele>
        <time>2019-08-28T11:03:53Z</time>
      </trkpt>
      <trkpt lat="36.4514240" lon="-5.2912510">
        <ele>318.4</ele>
        <time>2019-08-28T11:03:54Z</time>
      </trkpt>
      <trkpt lat="36.4513740" lon="-5.2912390">
        <ele>318.6</ele>
        <time>2019-08-28T11:03:55Z</time>
      </trkpt>
      <trkpt lat="36.4513250" lon="-5.2912270">
        <ele>318.9</ele>
        <time>2019-08-28T11:03:56Z</time>
      </trkpt>
      <trkpt lat="36.4512760" lon="-5.2912150">
        <ele>319.1</ele>
        <time>2019-08-28T11:03:57Z</time>
      </trkpt>
      <trkpt lat="36.4512280" lon="-5.2912050">
        <ele>319.3</ele>
        <time>2019-08-28T11:03:58Z</time>
      </trkpt>
      <trkpt lat="36.4511780" lon="-5.2911960">
        <ele>319.5</ele>
        <time>2019-08-28T11:03:59Z</time>
      </trkpt>
      <trkpt lat="36.4511290" lon="-5.2911850">
        <ele>319.7</ele>
        <time>2019-08-28T11:04:00Z</time>
      </trkpt>
      <trkpt lat="36.4510800" lon="-5.2911740">
        <ele>319.8</ele>
        <time>2019-08-28T11:04:01Z</time>
      </trkpt>
      <trkpt lat="36.4510320" lon="-5.2911630">
        <ele>320.0</ele>
        <time>2019-08-28T11:04:02Z</time>
      </trkpt>
      <trkpt lat="36.4509840" lon="-5.2911500">
        <ele>320.2</ele>
        <time>2019-08-28T11:04:03Z</time>
      </trkpt>
      <trkpt lat="36.4509370" lon="-5.2911380">
        <ele>320.3</ele>
        <time>2019-08-28T11:04:04Z</time>
      </trkpt>
      <trkpt lat="36.4508910" lon="-5.2911260">
        <ele>320.4</ele>
        <time>2019-08-28T11:04:05Z</time>
      </trkpt>
      <trkpt lat="36.4508450" lon="-5.2911160">
        <ele>320.5</ele>
        <time>2019-08-28T11:04:06Z</time>
      </trkpt>
      <trkpt lat="36.4507990" lon="-5.2911050">
        <ele>320.6</ele>
        <time>2019-08-28T11:04:07Z</time>
      </trkpt>
      <trkpt lat="36.4507540" lon="-5.2910950">
        <ele>320.7</ele>
        <time>2019-08-28T11:04:08Z</time>
      </trkpt>
      <trkpt lat="36.4507090" lon="-5.2910840">
        <ele>320.8</ele>
        <time>2019-08-28T11:04:09Z</time>
      </trkpt>
      <trkpt lat="36.4506640" lon="-5.2910720">
        <ele>320.9</ele>
        <time>2019-08-28T11:04:10Z</time>
      </trkpt>
      <trkpt lat="36.4506180" lon="-5.2910600">
        <ele>321.1</ele>
        <time>2019-08-28T11:04:11Z</time>
      </trkpt>
      <trkpt lat="36.4505730" lon="-5.2910470">
        <ele>321.2</ele>
        <time>2019-08-28T11:04:12Z</time>
      </trkpt>
      <trkpt lat="36.4505280" lon="-5.2910320">
        <ele>321.3</ele>
        <time>2019-08-28T11:04:13Z</time>
      </trkpt>
      <trkpt lat="36.4504840" lon="-5.2910170">
        <ele>321.4</ele>
        <time>2019-08-28T11:04:14Z</time>
      </trkpt>
      <trkpt lat="36.4504390" lon="-5.2910000">
        <ele>321.5</ele>
        <time>2019-08-28T11:04:15Z</time>
      </trkpt>
      <trkpt lat="36.4503940" lon="-5.2909820">
        <ele>321.6</ele>
        <time>2019-08-28T11:04:16Z</time>
      </trkpt>
      <trkpt lat="36.4503500" lon="-5.2909640">
        <ele>321.7</ele>
        <time>2019-08-28T11:04:17Z</time>
      </trkpt>
      <trkpt lat="36.4503060" lon="-5.2909450">
        <ele>321.8</ele>
        <time>2019-08-28T11:04:18Z</time>
      </trkpt>
      <trkpt lat="36.4502620" lon="-5.2909270">
        <ele>321.9</ele>
        <time>2019-08-28T11:04:19Z</time>
      </trkpt>
      <trkpt lat="36.4502180" lon="-5.2909080">
        <ele>321.9</ele>
        <time>2019-08-28T11:04:20Z</time>
      </trkpt>
      <trkpt lat="36.4501750" lon="-5.2908890">
        <ele>322.0</ele>
        <time>2019-08-28T11:04:21Z</time>
      </trkpt>
      <trkpt lat="36.4501320" lon="-5.2908690">
        <ele>322.1</ele>
        <time>2019-08-28T11:04:22Z</time>
      </trkpt>
      <trkpt lat="36.4500890" lon="-5.2908490">
        <ele>322.2</ele>
        <time>2019-08-28T11:04:23Z</time>
      </trkpt>
      <trkpt lat="36.4500450" lon="-5.2908290">
        <ele>322.3</ele>
        <time>2019-08-28T11:04:24Z</time>
      </trkpt>
      <trkpt lat="36.4500010" lon="-5.2908090">
        <ele>322.4</ele>
        <time>2019-08-28T11:04:25Z</time>
      </trkpt>
      <trkpt lat="36.4499560" lon="-5.2907890">
        <ele>322.5</ele>
        <time>2019-08-28T11:04:26Z</time>
      </trkpt>
      <trkpt lat="36.4499110" lon="-5.2907700">
        <ele>322.6</ele>
        <time>2019-08-28T11:04:27Z</time>
      </trkpt>
      <trkpt lat="36.4498670" lon="-5.2907500">
        <ele>322.7</ele>
        <time>2019-08-28T11:04:28Z</time>
      </trkpt>
      <trkpt lat="36.4498230" lon="-5.2907300">
        <ele>322.8</ele>
        <time>2019-08-28T11:04:29Z</time>
      </trkpt>
      <trkpt lat="36.4497790" lon="-5.2907110">
        <ele>323.0</ele>
        <time>2019-08-28T11:04:30Z</time>
      </trkpt>
      <trkpt lat="36.4497360" lon="-5.2906920">
        <ele>323.1</ele>
        <time>2019-08-28T11:04:31Z</time>
      </trkpt>
      <trkpt lat="36.4496930" lon="-5.2906720">
        <ele>323.3</ele>
        <time>2019-08-28T11:04:32Z</time>
      </trkpt>
      <trkpt lat="36.4496490" lon="-5.2906520">
        <ele>323.4</ele>
        <time>2019-08-28T11:04:33Z</time>
      </trkpt>
      <trkpt lat="36.4496060" lon="-5.2906330">
        <ele>323.6</ele>
        <time>2019-08-28T11:04:34Z</time>
      </trkpt>
      <trkpt lat="36.4495620" lon="-5.2906130">
        <ele>323.7</ele>
        <time>2019-08-28T11:04:35Z</time>
      </trkpt>
      <trkpt lat="36.4495180" lon="-5.2905940">
        <ele>323.9</ele>
        <time>2019-08-28T11:04:36Z</time>
      </trkpt>
      <trkpt lat="36.4494740" lon="-5.2905740">
        <ele>324.1</ele>
        <time>2019-08-28T11:04:37Z</time>
      </trkpt>
      <trkpt lat="36.4494290" lon="-5.2905540">
        <ele>324.3</ele>
        <time>2019-08-28T11:04:38Z</time>
      </trkpt>
      <trkpt lat="36.4493850" lon="-5.2905350">
        <ele>324.5</ele>
        <time>2019-08-28T11:04:39Z</time>
      </trkpt>
      <trkpt lat="36.4493400" lon="-5.2905150">
        <ele>324.7</ele>
        <time>2019-08-28T11:04:40Z</time>
      </trkpt>
      <trkpt lat="36.4492960" lon="-5.2904940">
        <ele>324.9</ele>
        <time>2019-08-28T11:04:41Z</time>
      </trkpt>
      <trkpt lat="36.4492520" lon="-5.2904730">
        <ele>325.2</ele>
        <time>2019-08-28T11:04:42Z</time>
      </trkpt>
      <trkpt lat="36.4492070" lon="-5.2904520">
        <ele>325.4</ele>
        <time>2019-08-28T11:04:43Z</time>
      </trkpt>
      <trkpt lat="36.4491620" lon="-5.2904310">
        <ele>325.7</ele>
        <time>2019-08-28T11:04:44Z</time>
      </trkpt>
      <trkpt lat="36.4491170" lon="-5.2904110">
        <ele>326.0</ele>
        <time>2019-08-28T11:04:45Z</time>
      </trkpt>
      <trkpt lat="36.4490720" lon="-5.2903910">
        <ele>326.2</ele>
        <time>2019-08-28T11:04:46Z</time>
      </trkpt>
      <trkpt lat="36.4490270" lon="-5.2903710">
        <ele>326.4</ele>
        <time>2019-08-28T11:04:47Z</time>
      </trkpt>
      <trkpt lat="36.4489820" lon="-5.2903520">
        <ele>326.7</ele>
        <time>2019-08-28T11:04:48Z</time>
      </trkpt>
      <trkpt lat="36.4489370" lon="-5.2903330">
        <ele>326.9</ele>
        <time>2019-08-28T11:04:49Z</time>
      </trkpt>
      <trkpt lat="36.4488920" lon="-5.2903140">
        <ele>327.1</ele>
        <time>2019-08-28T11:04:50Z</time>
      </trkpt>
      <trkpt lat="36.4488470" lon="-5.2902930">
        <ele>327.3</ele>
        <time>2019-08-28T11:04:51Z</time>
      </trkpt>
      <trkpt lat="36.4488030" lon="-5.2902720">
        <ele>327.5</ele>
        <time>2019-08-28T11:04:52Z</time>
      </trkpt>
      <trkpt lat="36.4487580" lon="-5.2902510">
        <ele>327.7</ele>
        <time>2019-08-28T11:04:53Z</time>
      </trkpt>
      <trkpt lat="36.4487140" lon="-5.2902300">
        <ele>328.0</ele>
        <time>2019-08-28T11:04:54Z</time>
      </trkpt>
      <trkpt lat="36.4486690" lon="-5.2902100">
        <ele>328.2</ele>
        <time>2019-08-28T11:04:55Z</time>
      </trkpt>
      <trkpt lat="36.4486250" lon="-5.2901890">
        <ele>328.5</ele>
        <time>2019-08-28T11:04:56Z</time>
      </trkpt>
      <trkpt lat="36.4485810" lon="-5.2901670">
        <ele>328.8</ele>
        <time>2019-08-28T11:04:57Z</time>
      </trkpt>
      <trkpt lat="36.4485380" lon="-5.2901480">
        <ele>329.2</ele>
        <time>2019-08-28T11:04:58Z</time>
      </trkpt>
      <trkpt lat="36.4484970" lon="-5.2901280">
        <ele>329.5</ele>
        <time>2019-08-28T11:04:59Z</time>
      </trkpt>
      <trkpt lat="36.4484580" lon="-5.2901070">
        <ele>329.9</ele>
        <time>2019-08-28T11:05:00Z</time>
      </trkpt>
      <trkpt lat="36.4484170" lon="-5.2900840">
        <ele>330.4</ele>
        <time>2019-08-28T11:05:01Z</time>
      </trkpt>
      <trkpt lat="36.4483760" lon="-5.2900590">
        <ele>331.0</ele>
        <time>2019-08-28T11:05:02Z</time>
      </trkpt>
      <trkpt lat="36.4483350" lon="-5.2900320">
        <ele>331.6</ele>
        <time>2019-08-28T11:05:03Z</time>
      </trkpt>
      <trkpt lat="36.4482980" lon="-5.2900010">
        <ele>332.3</ele>
        <time>2019-08-28T11:05:04Z</time>
      </trkpt>
      <trkpt lat="36.4482710" lon="-5.2899610">
        <ele>333.4</ele>
        <time>2019-08-28T11:05:05Z</time>
      </trkpt>
      <trkpt lat="36.4482530" lon="-5.2899140">
        <ele>333.9</ele>
        <time>2019-08-28T11:05:06Z</time>
      </trkpt>
      <trkpt lat="36.4482470" lon="-5.2898660">
        <ele>334.3</ele>
        <time>2019-08-28T11:05:07Z</time>
      </trkpt>
      <trkpt lat="36.4482480" lon="-5.2898200">
        <ele>334.6</ele>
        <time>2019-08-28T11:05:08Z</time>
      </trkpt>
      <trkpt lat="36.4482550" lon="-5.2897780">
        <ele>334.9</ele>
        <time>2019-08-28T11:05:09Z</time>
      </trkpt>
      <trkpt lat="36.4482630" lon="-5.2897390">
        <ele>335.1</ele>
        <time>2019-08-28T11:05:10Z</time>
      </trkpt>
      <trkpt lat="36.4482700" lon="-5.2897020">
        <ele>335.3</ele>
        <time>2019-08-28T11:05:11Z</time>
      </trkpt>
      <trkpt lat="36.4482780" lon="-5.2896670">
        <ele>335.5</ele>
        <time>2019-08-28T11:05:12Z</time>
      </trkpt>
      <trkpt lat="36.4482850" lon="-5.2896340">
        <ele>335.8</ele>
        <time>2019-08-28T11:05:13Z</time>
      </trkpt>
      <trkpt lat="36.4482930" lon="-5.2896010">
        <ele>336.1</ele>
        <time>2019-08-28T11:05:14Z</time>
      </trkpt>
      <trkpt lat="36.4482980" lon="-5.2895690">
        <ele>336.4</ele>
        <time>2019-08-28T11:05:15Z</time>
      </trkpt>
      <trkpt lat="36.4483020" lon="-5.2895360">
        <ele>336.7</ele>
        <time>2019-08-28T11:05:16Z</time>
      </trkpt>
      <trkpt lat="36.4483060" lon="-5.2895040">
        <ele>337.0</ele>
        <time>2019-08-28T11:05:17Z</time>
      </trkpt>
      <trkpt lat="36.4483110" lon="-5.2894730">
        <ele>337.3</ele>
        <time>2019-08-28T11:05:18Z</time>
      </trkpt>
      <trkpt lat="36.4483160" lon="-5.2894410">
        <ele>337.6</ele>
        <time>2019-08-28T11:05:19Z</time>
      </trkpt>
      <trkpt lat="36.4483220" lon="-5.2894100">
        <ele>337.9</ele>
        <time>2019-08-28T11:05:20Z</time>
      </trkpt>
      <trkpt lat="36.4483270" lon="-5.2893780">
        <ele>338.2</ele>
        <time>2019-08-28T11:05:21Z</time>
      </trkpt>
      <trkpt lat="36.4483320" lon="-5.2893460">
        <ele>338.5</ele>
        <time>2019-08-28T11:05:22Z</time>
      </trkpt>
      <trkpt lat="36.4483360" lon="-5.2893130">
        <ele>338.7</ele>
        <time>2019-08-28T11:05:23Z</time>
      </trkpt>
      <trkpt lat="36.4483390" lon="-5.2892810">
        <ele>338.8</ele>
        <time>2019-08-28T11:05:24Z</time>
      </trkpt>
      <trkpt lat="36.4483420" lon="-5.2892480">
        <ele>339.0</ele>
        <time>2019-08-28T11:05:25Z</time>
      </trkpt>
      <trkpt lat="36.4483450" lon="-5.2892150">
        <ele>339.3</ele>
        <time>2019-08-28T11:05:26Z</time>
      </trkpt>
      <trkpt lat="36.4483480" lon="-5.2891820">
        <ele>339.5</ele>
        <time>2019-08-28T11:05:27Z</time>
      </trkpt>
      <trkpt lat="36.4483520" lon="-5.2891490">
        <ele>339.8</ele>
        <time>2019-08-28T11:05:28Z</time>
      </trkpt>
      <trkpt lat="36.4483550" lon="-5.2891150">
        <ele>340.0</ele>
        <time>2019-08-28T11:05:29Z</time>
      </trkpt>
      <trkpt lat="36.4483560" lon="-5.2890820">
        <ele>340.3</ele>
        <time>2019-08-28T11:05:30Z</time>
      </trkpt>
      <trkpt lat="36.4483570" lon="-5.2890490">
        <ele>340.6</ele>
        <time>2019-08-28T11:05:31Z</time>
      </trkpt>
      <trkpt lat="36.4483560" lon="-5.2890160">
        <ele>340.9</ele>
        <time>2019-08-28T11:05:32Z</time>
      </trkpt>
      <trkpt lat="36.4483570" lon="-5.2889840">
        <ele>341.2</ele>
        <time>2019-08-28T11:05:33Z</time>
      </trkpt>
      <trkpt lat="36.4483580" lon="-5.2889520">
        <ele>341.4</ele>
        <time>2019-08-28T11:05:34Z</time>
      </trkpt>
      <trkpt lat="36.4483610" lon="-5.2889200">
        <ele>341.6</ele>
        <time>2019-08-28T11:05:35Z</time>
      </trkpt>
      <trkpt lat="36.4483640" lon="-5.2888890">
        <ele>341.9</ele>
        <time>2019-08-28T11:05:36Z</time>
      </trkpt>
      <trkpt lat="36.4483670" lon="-5.2888570">
        <ele>342.1</ele>
        <time>2019-08-28T11:05:37Z</time>
      </trkpt>
      <trkpt lat="36.4483680" lon="-5.2888250">
        <ele>342.3</ele>
        <time>2019-08-28T11:05:38Z</time>
      </trkpt>
      <trkpt lat="36.4483660" lon="-5.2887930">
        <ele>342.6</ele>
        <time>2019-08-28T11:05:39Z</time>
      </trkpt>
      <trkpt lat="36.4483620" lon="-5.2887610">
        <ele>342.9</ele>
        <time>2019-08-28T11:05:40Z</time>
      </trkpt>
      <trkpt lat="36.4483580" lon="-5.2887290">
        <ele>343.1</ele>
        <time>2019-08-28T11:05:41Z</time>
      </trkpt>
      <trkpt lat="36.4483540" lon="-5.2886970">
        <ele>343.4</ele>
        <time>2019-08-28T11:05:42Z</time>
      </trkpt>
      <trkpt lat="36.4483500" lon="-5.2886650">
        <ele>343.6</ele>
        <time>2019-08-28T11:05:43Z</time>
      </trkpt>
      <trkpt lat="36.4483460" lon="-5.2886320">
        <ele>343.7</ele>
        <time>2019-08-28T11:05:44Z</time>
      </trkpt>
      <trkpt lat="36.4483430" lon="-5.2886000">
        <ele>343.9</ele>
        <time>2019-08-28T11:05:45Z</time>
      </trkpt>
      <trkpt lat="36.4483390" lon="-5.2885670">
        <ele>344.0</ele>
        <time>2019-08-28T11:05:46Z</time>
      </trkpt>
      <trkpt lat="36.4483340" lon="-5.2885350">
        <ele>344.2</ele>
        <time>2019-08-28T11:05:47Z</time>
      </trkpt>
      <trkpt lat="36.4483280" lon="-5.2885030">
        <ele>344.4</ele>
        <time>2019-08-28T11:05:48Z</time>
      </trkpt>
      <trkpt lat="36.4483220" lon="-5.2884700">
        <ele>344.5</ele>
        <time>2019-08-28T11:05:49Z</time>
      </trkpt>
      <trkpt lat="36.4483170" lon="-5.2884370">
        <ele>344.8</ele>
        <time>2019-08-28T11:05:50Z</time>
      </trkpt>
      <trkpt lat="36.4483120" lon="-5.2884040">
        <ele>345.1</ele>
        <time>2019-08-28T11:05:51Z</time>
      </trkpt>
      <trkpt lat="36.4483070" lon="-5.2883720">
        <ele>345.3</ele>
        <time>2019-08-28T11:05:52Z</time>
      </trkpt>
      <trkpt lat="36.4483010" lon="-5.2883400">
        <ele>345.6</ele>
        <time>2019-08-28T11:05:53Z</time>
      </trkpt>
      <trkpt lat="36.4482950" lon="-5.2883080">
        <ele>345.8</ele>
        <time>2019-08-28T11:05:54Z</time>
      </trkpt>
      <trkpt lat="36.4482880" lon="-5.2882760">
        <ele>346.0</ele>
        <time>2019-08-28T11:05:55Z</time>
      </trkpt>
      <trkpt lat="36.4482800" lon="-5.2882440">
        <ele>346.2</ele>
        <time>2019-08-28T11:05:56Z</time>
      </trkpt>
      <trkpt lat="36.4482720" lon="-5.2882110">
        <ele>346.3</ele>
        <time>2019-08-28T11:05:57Z</time>
      </trkpt>
      <trkpt lat="36.4482650" lon="-5.2881780">
        <ele>346.5</ele>
        <time>2019-08-28T11:05:58Z</time>
      </trkpt>
      <trkpt lat="36.4482570" lon="-5.2881440">
        <ele>346.8</ele>
        <time>2019-08-28T11:05:59Z</time>
      </trkpt>
      <trkpt lat="36.4482470" lon="-5.2881100">
        <ele>347.0</ele>
        <time>2019-08-28T11:06:00Z</time>
      </trkpt>
      <trkpt lat="36.4482360" lon="-5.2880770">
        <ele>347.3</ele>
        <time>2019-08-28T11:06:01Z</time>
      </trkpt>
      <trkpt lat="36.4482240" lon="-5.2880430">
        <ele>347.6</ele>
        <time>2019-08-28T11:06:02Z</time>
      </trkpt>
      <trkpt lat="36.4482140" lon="-5.2880090">
        <ele>347.8</ele>
        <time>2019-08-28T11:06:03Z</time>
      </trkpt>
      <trkpt lat="36.4482040" lon="-5.2879750">
        <ele>348.0</ele>
        <time>2019-08-28T11:06:04Z</time>
      </trkpt>
      <trkpt lat="36.4481950" lon="-5.2879400">
        <ele>348.1</ele>
        <time>2019-08-28T11:06:05Z</time>
      </trkpt>
      <trkpt lat="36.4481860" lon="-5.2879050">
        <ele>348.3</ele>
        <time>2019-08-28T11:06:06Z</time>
      </trkpt>
      <trkpt lat="36.4481780" lon="-5.2878710">
        <ele>348.5</ele>
        <time>2019-08-28T11:06:07Z</time>
      </trkpt>
      <trkpt lat="36.4481690" lon="-5.2878380">
        <ele>348.6</ele>
        <time>2019-08-28T11:06:08Z</time>
      </trkpt>
      <trkpt lat="36.4481590" lon="-5.2878050">
        <ele>348.9</ele>
        <time>2019-08-28T11:06:09Z</time>
      </trkpt>
      <trkpt lat="36.4481500" lon="-5.2877720">
        <ele>349.1</ele>
        <time>2019-08-28T11:06:10Z</time>
      </trkpt>
      <trkpt lat="36.4481420" lon="-5.2877400">
        <ele>349.3</ele>
        <time>2019-08-28T11:06:11Z</time>
      </trkpt>
      <trkpt lat="36.4481340" lon="-5.2877070">
        <ele>349.6</ele>
        <time>2019-08-28T11:06:12Z</time>
      </trkpt>
      <trkpt lat="36.4481270" lon="-5.2876740">
        <ele>349.8</ele>
        <time>2019-08-28T11:06:13Z</time>
      </trkpt>
      <trkpt lat="36.4481210" lon="-5.2876400">
        <ele>350.0</ele>
        <time>2019-08-28T11:06:14Z</time>
      </trkpt>
      <trkpt lat="36.4481140" lon="-5.2876070">
        <ele>350.2</ele>
        <time>2019-08-28T11:06:15Z</time>
      </trkpt>
      <trkpt lat="36.4481060" lon="-5.2875740">
        <ele>350.4</ele>
        <time>2019-08-28T11:06:16Z</time>
      </trkpt>
      <trkpt lat="36.4480980" lon="-5.2875410">
        <ele>350.5</ele>
        <time>2019-08-28T11:06:17Z</time>
      </trkpt>
      <trkpt lat="36.4480890" lon="-5.2875080">
        <ele>350.7</ele>
        <time>2019-08-28T11:06:18Z</time>
      </trkpt>
      <trkpt lat="36.4480800" lon="-5.2874750">
        <ele>350.8</ele>
        <time>2019-08-28T11:06:19Z</time>
      </trkpt>
      <trkpt lat="36.4480700" lon="-5.2874420">
        <ele>351.0</ele>
        <time>2019-08-28T11:06:20Z</time>
      </trkpt>
      <trkpt lat="36.4480610" lon="-5.2874090">
        <ele>351.2</ele>
        <time>2019-08-28T11:06:21Z</time>
      </trkpt>
      <trkpt lat="36.4480530" lon="-5.2873750">
        <ele>351.4</ele>
        <time>2019-08-28T11:06:22Z</time>
      </trkpt>
      <trkpt lat="36.4480450" lon="-5.2873410">
        <ele>351.7</ele>
        <time>2019-08-28T11:06:23Z</time>
      </trkpt>
      <trkpt lat="36.4480360" lon="-5.2873080">
        <ele>351.9</ele>
        <time>2019-08-28T11:06:24Z</time>
      </trkpt>
      <trkpt lat="36.4480260" lon="-5.2872760">
        <ele>352.1</ele>
        <time>2019-08-28T11:06:25Z</time>
      </trkpt>
      <trkpt lat="36.4480150" lon="-5.2872440">
        <ele>352.4</ele>
        <time>2019-08-28T11:06:26Z</time>
      </trkpt>
      <trkpt lat="36.4480040" lon="-5.2872110">
        <ele>352.6</ele>
        <time>2019-08-28T11:06:27Z</time>
      </trkpt>
      <trkpt lat="36.4479950" lon="-5.2871770">
        <ele>352.8</ele>
        <time>2019-08-28T11:06:28Z</time>
      </trkpt>
      <trkpt lat="36.4479860" lon="-5.2871420">
        <ele>353.0</ele>
        <time>2019-08-28T11:06:29Z</time>
      </trkpt>
      <trkpt lat="36.4479770" lon="-5.2871070">
        <ele>353.2</ele>
        <time>2019-08-28T11:06:30Z</time>
      </trkpt>
      <trkpt lat="36.4479670" lon="-5.2870730">
        <ele>353.4</ele>
        <time>2019-08-28T11:06:31Z</time>
      </trkpt>
      <trkpt lat="36.4479560" lon="-5.2870400">
        <ele>353.6</ele>
        <time>2019-08-28T11:06:32Z</time>
      </trkpt>
      <trkpt lat="36.4479460" lon="-5.2870070">
        <ele>353.8</ele>
        <time>2019-08-28T11:06:33Z</time>
      </trkpt>
      <trkpt lat="36.4479370" lon="-5.2869750">
        <ele>354.0</ele>
        <time>2019-08-28T11:06:34Z</time>
      </trkpt>
      <trkpt lat="36.4479270" lon="-5.2869430">
        <ele>354.2</ele>
        <time>2019-08-28T11:06:35Z</time>
      </trkpt>
      <trkpt lat="36.4479170" lon="-5.2869110">
        <ele>354.4</ele>
        <time>2019-08-28T11:06:36Z</time>
      </trkpt>
      <trkpt lat="36.4479080" lon="-5.2868790">
        <ele>354.6</ele>
        <time>2019-08-28T11:06:37Z</time>
      </trkpt>
      <trkpt lat="36.4479000" lon="-5.2868460">
        <ele>354.7</ele>
        <time>2019-08-28T11:06:38Z</time>
      </trkpt>
      <trkpt lat="36.4478910" lon="-5.2868130">
        <ele>354.8</ele>
        <time>2019-08-28T11:06:39Z</time>
      </trkpt>
      <trkpt lat="36.4478810" lon="-5.2867810">
        <ele>354.9</ele>
        <time>2019-08-28T11:06:40Z</time>
      </trkpt>
      <trkpt lat="36.4478700" lon="-5.2867480">
        <ele>355.0</ele>
        <time>2019-08-28T11:06:41Z</time>
      </trkpt>
      <trkpt lat="36.4478600" lon="-5.2867150">
        <ele>355.2</ele>
        <time>2019-08-28T11:06:42Z</time>
      </trkpt>
      <trkpt lat="36.4478500" lon="-5.2866820">
        <ele>355.3</ele>
        <time>2019-08-28T11:06:43Z</time>
      </trkpt>
      <trkpt lat="36.4478400" lon="-5.2866490">
        <ele>355.4</ele>
        <time>2019-08-28T11:06:44Z</time>
      </trkpt>
      <trkpt lat="36.4478290" lon="-5.2866150">
        <ele>355.5</ele>
        <time>2019-08-28T11:06:45Z</time>
      </trkpt>
      <trkpt lat="36.4478170" lon="-5.2865830">
        <ele>355.6</ele>
        <time>2019-08-28T11:06:46Z</time>
      </trkpt>
      <trkpt lat="36.4478050" lon="-5.2865500">
        <ele>355.8</ele>
        <time>2019-08-28T11:06:47Z</time>
      </trkpt>
      <trkpt lat="36.4477950" lon="-5.2865170">
        <ele>356.1</ele>
        <time>2019-08-28T11:06:48Z</time>
      </trkpt>
      <trkpt lat="36.4477860" lon="-5.2864840">
        <ele>356.3</ele>
        <time>2019-08-28T11:06:49Z</time>
      </trkpt>
      <trkpt lat="36.4477780" lon="-5.2864520">
        <ele>356.5</ele>
        <time>2019-08-28T11:06:50Z</time>
      </trkpt>
      <trkpt lat="36.4477690" lon="-5.2864200">
        <ele>356.7</ele>
        <time>2019-08-28T11:06:51Z</time>
      </trkpt>
      <trkpt lat="36.4477590" lon="-5.2863880">
        <ele>356.9</ele>
        <time>2019-08-28T11:06:52Z</time>
      </trkpt>
      <trkpt lat="36.4477480" lon="-5.2863560">
        <ele>357.0</ele>
        <time>2019-08-28T11:06:53Z</time>
      </trkpt>
      <trkpt lat="36.4477390" lon="-5.2863230">
        <ele>357.2</ele>
        <time>2019-08-28T11:06:54Z</time>
      </trkpt>
      <trkpt lat="36.4477300" lon="-5.2862900">
        <ele>357.3</ele>
        <time>2019-08-28T11:06:55Z</time>
      </trkpt>
      <trkpt lat="36.4477210" lon="-5.2862560">
        <ele>357.5</ele>
        <time>2019-08-28T11:06:56Z</time>
      </trkpt>
      <trkpt lat="36.4477130" lon="-5.2862230">
        <ele>357.8</ele>
        <time>2019-08-28T11:06:57Z</time>
      </trkpt>
      <trkpt lat="36.4477050" lon="-5.2861880">
        <ele>358.0</ele>
        <time>2019-08-28T11:06:58Z</time>
      </trkpt>
      <trkpt lat="36.4476970" lon="-5.2861540">
        <ele>358.3</ele>
        <time>2019-08-28T11:06:59Z</time>
      </trkpt>
      <trkpt lat="36.4476870" lon="-5.2861190">
        <ele>358.5</ele>
        <time>2019-08-28T11:07:00Z</time>
      </trkpt>
      <trkpt lat="36.4476760" lon="-5.2860850">
        <ele>358.8</ele>
        <time>2019-08-28T11:07:01Z</time>
      </trkpt>
      <trkpt lat="36.4476630" lon="-5.2860510">
        <ele>359.0</ele>
        <time>2019-08-28T11:07:02Z</time>
      </trkpt>
      <trkpt lat="36.4476510" lon="-5.2860170">
        <ele>359.2</ele>
        <time>2019-08-28T11:07:03Z</time>
      </trkpt>
      <trkpt lat="36.4476380" lon="-5.2859820">
        <ele>359.4</ele>
        <time>2019-08-28T11:07:04Z</time>
      </trkpt>
      <trkpt lat="36.4476260" lon="-5.2859460">
        <ele>359.6</ele>
        <time>2019-08-28T11:07:05Z</time>
      </trkpt>
      <trkpt lat="36.4476150" lon="-5.2859100">
        <ele>359.8</ele>
        <time>2019-08-28T11:07:06Z</time>
      </trkpt>
      <trkpt lat="36.4476040" lon="-5.2858750">
        <ele>360.0</ele>
        <time>2019-08-28T11:07:07Z</time>
      </trkpt>
      <trkpt lat="36.4475930" lon="-5.2858400">
        <ele>360.2</ele>
        <time>2019-08-28T11:07:08Z</time>
      </trkpt>
      <trkpt lat="36.4475830" lon="-5.2858050">
        <ele>360.4</ele>
        <time>2019-08-28T11:07:09Z</time>
      </trkpt>
      <trkpt lat="36.4475720" lon="-5.2857700">
        <ele>360.6</ele>
        <time>2019-08-28T11:07:10Z</time>
      </trkpt>
      <trkpt lat="36.4475620" lon="-5.2857340">
        <ele>360.8</ele>
        <time>2019-08-28T11:07:11Z</time>
      </trkpt>
      <trkpt lat="36.4475510" lon="-5.2856980">
        <ele>360.9</ele>
        <time>2019-08-28T11:07:12Z</time>
      </trkpt>
      <trkpt lat="36.4475410" lon="-5.2856630">
        <ele>361.1</ele>
        <time>2019-08-28T11:07:13Z</time>
      </trkpt>
      <trkpt lat="36.4475310" lon="-5.2856270">
        <ele>361.2</ele>
        <time>2019-08-28T11:07:14Z</time>
      </trkpt>
      <trkpt lat="36.4475220" lon="-5.2855910">
        <ele>361.4</ele>
        <time>2019-08-28T11:07:15Z</time>
      </trkpt>
      <trkpt lat="36.4475120" lon="-5.2855540">
        <ele>361.5</ele>
        <time>2019-08-28T11:07:16Z</time>
      </trkpt>
      <trkpt lat="36.4475010" lon="-5.2855170">
        <ele>361.6</ele>
        <time>2019-08-28T11:07:17Z</time>
      </trkpt>
      <trkpt lat="36.4474900" lon="-5.2854810">
        <ele>361.7</ele>
        <time>2019-08-28T11:07:18Z</time>
      </trkpt>
      <trkpt lat="36.4474790" lon="-5.2854440">
        <ele>361.8</ele>
        <time>2019-08-28T11:07:19Z</time>
      </trkpt>
      <trkpt lat="36.4474690" lon="-5.2854060">
        <ele>361.9</ele>
        <time>2019-08-28T11:07:20Z</time>
      </trkpt>
      <trkpt lat="36.4474590" lon="-5.2853680">
        <ele>362.0</ele>
        <time>2019-08-28T11:07:21Z</time>
      </trkpt>
      <trkpt lat="36.4474490" lon="-5.2853310">
        <ele>362.2</ele>
        <time>2019-08-28T11:07:22Z</time>
      </trkpt>
      <trkpt lat="36.4474390" lon="-5.2852940">
        <ele>362.4</ele>
        <time>2019-08-28T11:07:23Z</time>
      </trkpt>
      <trkpt lat="36.4474280" lon="-5.2852560">
        <ele>362.6</ele>
        <time>2019-08-28T11:07:24Z</time>
      </trkpt>
      <trkpt lat="36.4474160" lon="-5.2852180">
        <ele>362.8</ele>
        <time>2019-08-28T11:07:25Z</time>
      </trkpt>
      <trkpt lat="36.4474050" lon="-5.2851800">
        <ele>362.9</ele>
        <time>2019-08-28T11:07:26Z</time>
      </trkpt>
      <trkpt lat="36.4473930" lon="-5.2851400">
        <ele>363.1</ele>
        <time>2019-08-28T11:07:27Z</time>
      </trkpt>
      <trkpt lat="36.4473820" lon="-5.2851010">
        <ele>363.2</ele>
        <time>2019-08-28T11:07:28Z</time>
      </trkpt>
      <trkpt lat="36.4473710" lon="-5.2850600">
        <ele>363.3</ele>
        <time>2019-08-28T11:07:29Z</time>
      </trkpt>
      <trkpt lat="36.4473590" lon="-5.2850190">
        <ele>363.4</ele>
        <time>2019-08-28T11:07:30Z</time>
      </trkpt>
      <trkpt lat="36.4473470" lon="-5.2849770">
        <ele>363.5</ele>
        <time>2019-08-28T11:07:31Z</time>
      </trkpt>
      <trkpt lat="36.4473350" lon="-5.2849360">
        <ele>363.6</ele>
        <time>2019-08-28T11:07:32Z</time>
      </trkpt>
      <trkpt lat="36.4473230" lon="-5.2848940">
        <ele>363.7</ele>
        <time>2019-08-28T11:07:33Z</time>
      </trkpt>
      <trkpt lat="36.4473100" lon="-5.2848500">
        <ele>363.8</ele>
        <time>2019-08-28T11:07:34Z</time>
      </trkpt>
      <trkpt lat="36.4472970" lon="-5.2848070">
        <ele>363.9</ele>
        <time>2019-08-28T11:07:35Z</time>
      </trkpt>
      <trkpt lat="36.4472830" lon="-5.2847630">
        <ele>364.0</ele>
        <time>2019-08-28T11:07:36Z</time>
      </trkpt>
      <trkpt lat="36.4472700" lon="-5.2847200">
        <ele>364.1</ele>
        <time>2019-08-28T11:07:37Z</time>
      </trkpt>
      <trkpt lat="36.4472570" lon="-5.2846780">
        <ele>364.2</ele>
        <time>2019-08-28T11:07:38Z</time>
      </trkpt>
      <trkpt lat="36.4472460" lon="-5.2846380">
        <ele>364.4</ele>
        <time>2019-08-28T11:07:39Z</time>
      </trkpt>
      <trkpt lat="36.4472330" lon="-5.2845980">
        <ele>364.5</ele>
        <time>2019-08-28T11:07:40Z</time>
      </trkpt>
      <trkpt lat="36.4472190" lon="-5.2845570">
        <ele>364.6</ele>
        <time>2019-08-28T11:07:41Z</time>
      </trkpt>
      <trkpt lat="36.4472050" lon="-5.2845160">
        <ele>364.7</ele>
        <time>2019-08-28T11:07:42Z</time>
      </trkpt>
      <trkpt lat="36.4471920" lon="-5.2844750">
        <ele>364.9</ele>
        <time>2019-08-28T11:07:43Z</time>
      </trkpt>
      <trkpt lat="36.4471790" lon="-5.2844330">
        <ele>365.1</ele>
        <time>2019-08-28T11:07:44Z</time>
      </trkpt>
      <trkpt lat="36.4471670" lon="-5.2843920">
        <ele>365.3</ele>
        <time>2019-08-28T11:07:45Z</time>
      </trkpt>
      <trkpt lat="36.4471550" lon="-5.2843520">
        <ele>365.4</ele>
        <time>2019-08-28T11:07:46Z</time>
      </trkpt>
      <trkpt lat="36.4471440" lon="-5.2843110">
        <ele>365.5</ele>
        <time>2019-08-28T11:07:47Z</time>
      </trkpt>
      <trkpt lat="36.4471320" lon="-5.2842700">
        <ele>365.6</ele>
        <time>2019-08-28T11:07:48Z</time>
      </trkpt>
      <trkpt lat="36.4471210" lon="-5.2842280">
        <ele>365.7</ele>
        <time>2019-08-28T11:07:49Z</time>
      </trkpt>
      <trkpt lat="36.4471100" lon="-5.2841870">
        <ele>365.7</ele>
        <time>2019-08-28T11:07:50Z</time>
      </trkpt>
      <trkpt lat="36.4470980" lon="-5.2841450">
        <ele>365.8</ele>
        <time>2019-08-28T11:07:51Z</time>
      </trkpt>
      <trkpt lat="36.4470860" lon="-5.2841030">
        <ele>365.9</ele>
        <time>2019-08-28T11:07:52Z</time>
      </trkpt>
      <trkpt lat="36.4470730" lon="-5.2840610">
        <ele>366.0</ele>
        <time>2019-08-28T11:07:53Z</time>
      </trkpt>
      <trkpt lat="36.4470600" lon="-5.2840180">
        <ele>366.1</ele>
        <time>2019-08-28T11:07:54Z</time>
      </trkpt>
      <trkpt lat="36.4470480" lon="-5.2839760">
        <ele>366.2</ele>
        <time>2019-08-28T11:07:55Z</time>
      </trkpt>
      <trkpt lat="36.4470370" lon="-5.2839330">
        <ele>366.3</ele>
        <time>2019-08-28T11:07:56Z</time>
      </trkpt>
      <trkpt lat="36.4470270" lon="-5.2838910">
        <ele>366.4</ele>
        <time>2019-08-28T11:07:57Z</time>
      </trkpt>
      <trkpt lat="36.4470170" lon="-5.2838490">
        <ele>366.5</ele>
        <time>2019-08-28T11:07:58Z</time>
      </trkpt>
      <trkpt lat="36.4470060" lon="-5.2838070">
        <ele>366.6</ele>
        <time>2019-08-28T11:07:59Z</time>
      </trkpt>
      <trkpt lat="36.4469940" lon="-5.2837660">
        <ele>366.7</ele>
        <time>2019-08-28T11:08:00Z</time>
      </trkpt>
      <trkpt lat="36.4469820" lon="-5.2837240">
        <ele>366.8</ele>
        <time>2019-08-28T11:08:01Z</time>
      </trkpt>
      <trkpt lat="36.4469690" lon="-5.2836820">
        <ele>367.0</ele>
        <time>2019-08-28T11:08:02Z</time>
      </trkpt>
      <trkpt lat="36.4469570" lon="-5.2836410">
        <ele>367.2</ele>
        <time>2019-08-28T11:08:03Z</time>
      </trkpt>
      <trkpt lat="36.4469450" lon="-5.2835990">
        <ele>367.4</ele>
        <time>2019-08-28T11:08:04Z</time>
      </trkpt>
      <trkpt lat="36.4469330" lon="-5.2835560">
        <ele>367.5</ele>
        <time>2019-08-28T11:08:05Z</time>
      </trkpt>
      <trkpt lat="36.4469210" lon="-5.2835120">
        <ele>367.7</ele>
        <time>2019-08-28T11:08:06Z</time>
      </trkpt>
      <trkpt lat="36.4469080" lon="-5.2834680">
        <ele>367.8</ele>
        <time>2019-08-28T11:08:07Z</time>
      </trkpt>
      <trkpt lat="36.4468950" lon="-5.2834230">
        <ele>367.9</ele>
        <time>2019-08-28T11:08:08Z</time>
      </trkpt>
      <trkpt lat="36.4468810" lon="-5.2833800">
        <ele>367.9</ele>
        <time>2019-08-28T11:08:09Z</time>
      </trkpt>
      <trkpt lat="36.4468670" lon="-5.2833370">
        <ele>368.0</ele>
        <time>2019-08-28T11:08:10Z</time>
      </trkpt>
      <trkpt lat="36.4468530" lon="-5.2832930">
        <ele>368.0</ele>
        <time>2019-08-28T11:08:11Z</time>
      </trkpt>
      <trkpt lat="36.4468400" lon="-5.2832480">
        <ele>368.1</ele>
        <time>2019-08-28T11:08:12Z</time>
      </trkpt>
      <trkpt lat="36.4468270" lon="-5.2832030">
        <ele>368.1</ele>
        <time>2019-08-28T11:08:13Z</time>
      </trkpt>
      <trkpt lat="36.4468140" lon="-5.2831580">
        <ele>368.2</ele>
        <time>2019-08-28T11:08:14Z</time>
      </trkpt>
      <trkpt lat="36.4468020" lon="-5.2831140">
        <ele>368.3</ele>
        <time>2019-08-28T11:08:15Z</time>
      </trkpt>
      <trkpt lat="36.4467900" lon="-5.2830690">
        <ele>368.4</ele>
        <time>2019-08-28T11:08:16Z</time>
      </trkpt>
      <trkpt lat="36.4467770" lon="-5.2830250">
        <ele>368.4</ele>
        <time>2019-08-28T11:08:17Z</time>
      </trkpt>
      <trkpt lat="36.4467650" lon="-5.2829800">
        <ele>368.5</ele>
        <time>2019-08-28T11:08:18Z</time>
      </trkpt>
      <trkpt lat="36.4467520" lon="-5.2829350">
        <ele>368.5</ele>
        <time>2019-08-28T11:08:19Z</time>
      </trkpt>
      <trkpt lat="36.4467390" lon="-5.2828900">
        <ele>368.6</ele>
        <time>2019-08-28T11:08:20Z</time>
      </trkpt>
      <trkpt lat="36.4467270" lon="-5.2828450">
        <ele>368.6</ele>
        <time>2019-08-28T11:08:21Z</time>
      </trkpt>
      <trkpt lat="36.4467150" lon="-5.2827990">
        <ele>368.7</ele>
        <time>2019-08-28T11:08:22Z</time>
      </trkpt>
      <trkpt lat="36.4467040" lon="-5.2827540">
        <ele>368.8</ele>
        <time>2019-08-28T11:08:23Z</time>
      </trkpt>
      <trkpt lat="36.4466930" lon="-5.2827080">
        <ele>368.9</ele>
        <time>2019-08-28T11:08:24Z</time>
      </trkpt>
      <trkpt lat="36.4466820" lon="-5.2826620">
        <ele>369.0</ele>
        <time>2019-08-28T11:08:25Z</time>
      </trkpt>
      <trkpt lat="36.4466700" lon="-5.2826150">
        <ele>369.2</ele>
        <time>2019-08-28T11:08:26Z</time>
      </trkpt>
      <trkpt lat="36.4466580" lon="-5.2825680">
        <ele>369.4</ele>
        <time>2019-08-28T11:08:27Z</time>
      </trkpt>
      <trkpt lat="36.4466440" lon="-5.2825210">
        <ele>369.6</ele>
        <time>2019-08-28T11:08:28Z</time>
      </trkpt>
      <trkpt lat="36.4466310" lon="-5.2824730">
        <ele>369.8</ele>
        <time>2019-08-28T11:08:29Z</time>
      </trkpt>
      <trkpt lat="36.4466180" lon="-5.2824240">
        <ele>369.9</ele>
        <time>2019-08-28T11:08:30Z</time>
      </trkpt>
      <trkpt lat="36.4466050" lon="-5.2823740">
        <ele>370.0</ele>
        <time>2019-08-28T11:08:31Z</time>
      </trkpt>
      <trkpt lat="36.4465920" lon="-5.2823250">
        <ele>370.1</ele>
        <time>2019-08-28T11:08:32Z</time>
      </trkpt>
      <trkpt lat="36.4465790" lon="-5.2822750">
        <ele>370.1</ele>
        <time>2019-08-28T11:08:33Z</time>
      </trkpt>
      <trkpt lat="36.4465680" lon="-5.2822250">
        <ele>370.2</ele>
        <time>2019-08-28T11:08:34Z</time>
      </trkpt>
      <trkpt lat="36.4465600" lon="-5.2821740">
        <ele>370.2</ele>
        <time>2019-08-28T11:08:35Z</time>
      </trkpt>
      <trkpt lat="36.4465540" lon="-5.2821240">
        <ele>370.3</ele>
        <time>2019-08-28T11:08:36Z</time>
      </trkpt>
      <trkpt lat="36.4465480" lon="-5.2820730">
        <ele>370.3</ele>
        <time>2019-08-28T11:08:37Z</time>
      </trkpt>
      <trkpt lat="36.4465420" lon="-5.2820240">
        <ele>370.3</ele>
        <time>2019-08-28T11:08:38Z</time>
      </trkpt>
      <trkpt lat="36.4465350" lon="-5.2819760">
        <ele>370.4</ele>
        <time>2019-08-28T11:08:39Z</time>
      </trkpt>
      <trkpt lat="36.4465310" lon="-5.2819270">
        <ele>370.4</ele>
        <time>2019-08-28T11:08:40Z</time>
      </trkpt>
      <trkpt lat="36.4465300" lon="-5.2818800">
        <ele>370.4</ele>
        <time>2019-08-28T11:08:41Z</time>
      </trkpt>
      <trkpt lat="36.4465310" lon="-5.2818320">
        <ele>370.5</ele>
        <time>2019-08-28T11:08:42Z</time>
      </trkpt>
      <trkpt lat="36.4465320" lon="-5.2817850">
        <ele>370.5</ele>
        <time>2019-08-28T11:08:43Z</time>
      </trkpt>
      <trkpt lat="36.4465330" lon="-5.2817380">
        <ele>370.5</ele>
        <time>2019-08-28T11:08:44Z</time>
      </trkpt>
      <trkpt lat="36.4465350" lon="-5.2816930">
        <ele>370.6</ele>
        <time>2019-08-28T11:08:45Z</time>
      </trkpt>
      <trkpt lat="36.4465390" lon="-5.2816480">
        <ele>370.6</ele>
        <time>2019-08-28T11:08:46Z</time>
      </trkpt>
      <trkpt lat="36.4465440" lon="-5.2816040">
        <ele>370.6</ele>
        <time>2019-08-28T11:08:47Z</time>
      </trkpt>
      <trkpt lat="36.4465500" lon="-5.2815590">
        <ele>370.7</ele>
        <time>2019-08-28T11:08:48Z</time>
      </trkpt>
      <trkpt lat="36.4465580" lon="-5.2815150">
        <ele>370.7</ele>
        <time>2019-08-28T11:08:49Z</time>
      </trkpt>
      <trkpt lat="36.4465670" lon="-5.2814710">
        <ele>370.9</ele>
        <time>2019-08-28T11:08:50Z</time>
      </trkpt>
      <trkpt lat="36.4465760" lon="-5.2814280">
        <ele>371.0</ele>
        <time>2019-08-28T11:08:51Z</time>
      </trkpt>
      <trkpt lat="36.4465850" lon="-5.2813870">
        <ele>371.1</ele>
        <time>2019-08-28T11:08:52Z</time>
      </trkpt>
      <trkpt lat="36.4465960" lon="-5.2813470">
        <ele>371.2</ele>
        <time>2019-08-28T11:08:53Z</time>
      </trkpt>
      <trkpt lat="36.4466060" lon="-5.2813090">
        <ele>371.4</ele>
        <time>2019-08-28T11:08:54Z</time>
      </trkpt>
      <trkpt lat="36.4466170" lon="-5.2812710">
        <ele>371.6</ele>
        <time>2019-08-28T11:08:55Z</time>
      </trkpt>
      <trkpt lat="36.4466270" lon="-5.2812330">
        <ele>371.9</ele>
        <time>2019-08-28T11:08:56Z</time>
      </trkpt>
      <trkpt lat="36.4466360" lon="-5.2811960">
        <ele>372.0</ele>
        <time>2019-08-28T11:08:57Z</time>
      </trkpt>
      <trkpt lat="36.4466450" lon="-5.2811590">
        <ele>372.1</ele>
        <time>2019-08-28T11:08:58Z</time>
      </trkpt>
      <trkpt lat="36.4466540" lon="-5.2811230">
        <ele>372.3</ele>
        <time>2019-08-28T11:08:59Z</time>
      </trkpt>
      <trkpt lat="36.4466630" lon="-5.2810880">
        <ele>372.4</ele>
        <time>2019-08-28T11:09:00Z</time>
      </trkpt>
      <trkpt lat="36.4466720" lon="-5.2810530">
        <ele>372.6</ele>
        <time>2019-08-28T11:09:01Z</time>
      </trkpt>
      <trkpt lat="36.4466820" lon="-5.2810190">
        <ele>372.7</ele>
        <time>2019-08-28T11:09:02Z</time>
      </trkpt>
      <trkpt lat="36.4466920" lon="-5.2809830">
        <ele>372.9</ele>
        <time>2019-08-28T11:09:03Z</time>
      </trkpt>
      <trkpt lat="36.4467010" lon="-5.2809460">
        <ele>373.0</ele>
        <time>2019-08-28T11:09:04Z</time>
      </trkpt>
      <trkpt lat="36.4467090" lon="-5.2809090">
        <ele>373.1</ele>
        <time>2019-08-28T11:09:05Z</time>
      </trkpt>
      <trkpt lat="36.4467180" lon="-5.2808700">
        <ele>373.2</ele>
        <time>2019-08-28T11:09:06Z</time>
      </trkpt>
      <trkpt lat="36.4467270" lon="-5.2808330">
        <ele>373.4</ele>
        <time>2019-08-28T11:09:07Z</time>
      </trkpt>
      <trkpt lat="36.4467360" lon="-5.2807940">
        <ele>373.5</ele>
        <time>2019-08-28T11:09:08Z</time>
      </trkpt>
      <trkpt lat="36.4467460" lon="-5.2807560">
        <ele>373.6</ele>
        <time>2019-08-28T11:09:09Z</time>
      </trkpt>
      <trkpt lat="36.4467550" lon="-5.2807180">
        <ele>373.7</ele>
        <time>2019-08-28T11:09:10Z</time>
      </trkpt>
      <trkpt lat="36.4467650" lon="-5.2806800">
        <ele>373.9</ele>
        <time>2019-08-28T11:09:11Z</time>
      </trkpt>
      <trkpt lat="36.4467750" lon="-5.2806420">
        <ele>374.2</ele>
        <time>2019-08-28T11:09:12Z</time>
      </trkpt>
      <trkpt lat="36.4467840" lon="-5.2806040">
        <ele>374.4</ele>
        <time>2019-08-28T11:09:13Z</time>
      </trkpt>
      <trkpt lat="36.4467940" lon="-5.2805660">
        <ele>374.6</ele>
        <time>2019-08-28T11:09:14Z</time>
      </trkpt>
      <trkpt lat="36.4468030" lon="-5.2805270">
        <ele>374.8</ele>
        <time>2019-08-28T11:09:15Z</time>
      </trkpt>
      <trkpt lat="36.4468120" lon="-5.2804870">
        <ele>375.1</ele>
        <time>2019-08-28T11:09:16Z</time>
      </trkpt>
      <trkpt lat="36.4468210" lon="-5.2804480">
        <ele>375.3</ele>
        <time>2019-08-28T11:09:17Z</time>
      </trkpt>
      <trkpt lat="36.4468300" lon="-5.2804090">
        <ele>375.6</ele>
        <time>2019-08-28T11:09:18Z</time>
      </trkpt>
      <trkpt lat="36.4468390" lon="-5.2803710">
        <ele>375.8</ele>
        <time>2019-08-28T11:09:19Z</time>
      </trkpt>
      <trkpt lat="36.4468460" lon="-5.2803320">
        <ele>376.1</ele>
        <time>2019-08-28T11:09:20Z</time>
      </trkpt>
      <trkpt lat="36.4468540" lon="-5.2802920">
        <ele>376.4</ele>
        <time>2019-08-28T11:09:21Z</time>
      </trkpt>
      <trkpt lat="36.4468610" lon="-5.2802520">
        <ele>376.6</ele>
        <time>2019-08-28T11:09:22Z</time>
      </trkpt>
      <trkpt lat="36.4468670" lon="-5.2802110">
        <ele>376.9</ele>
        <time>2019-08-28T11:09:23Z</time>
      </trkpt>
      <trkpt lat="36.4468720" lon="-5.2801690">
        <ele>377.1</ele>
        <time>2019-08-28T11:09:24Z</time>
      </trkpt>
      <trkpt lat="36.4468750" lon="-5.2801250">
        <ele>377.3</ele>
        <time>2019-08-28T11:09:25Z</time>
      </trkpt>
      <trkpt lat="36.4468770" lon="-5.2800810">
        <ele>377.5</ele>
        <time>2019-08-28T11:09:26Z</time>
      </trkpt>
      <trkpt lat="36.4468770" lon="-5.2800360">
        <ele>377.8</ele>
        <time>2019-08-28T11:09:27Z</time>
      </trkpt>
      <trkpt lat="36.4468760" lon="-5.2799920">
        <ele>378.1</ele>
        <time>2019-08-28T11:09:28Z</time>
      </trkpt>
      <trkpt lat="36.4468740" lon="-5.2799470">
        <ele>378.3</ele>
        <time>2019-08-28T11:09:29Z</time>
      </trkpt>
      <trkpt lat="36.4468700" lon="-5.2799040">
        <ele>378.6</ele>
        <time>2019-08-28T11:09:30Z</time>
      </trkpt>
      <trkpt lat="36.4468650" lon="-5.2798610">
        <ele>378.8</ele>
        <time>2019-08-28T11:09:31Z</time>
      </trkpt>
      <trkpt lat="36.4468570" lon="-5.2798160">
        <ele>379.0</ele>
        <time>2019-08-28T11:09:32Z</time>
      </trkpt>
      <trkpt lat="36.4468460" lon="-5.2797690">
        <ele>379.2</ele>
        <time>2019-08-28T11:09:33Z</time>
      </trkpt>
      <trkpt lat="36.4468320" lon="-5.2797220">
        <ele>379.5</ele>
        <time>2019-08-28T11:09:34Z</time>
      </trkpt>
      <trkpt lat="36.4468180" lon="-5.2796750">
        <ele>379.7</ele>
        <time>2019-08-28T11:09:35Z</time>
      </trkpt>
      <trkpt lat="36.4468040" lon="-5.2796270">
        <ele>379.9</ele>
        <time>2019-08-28T11:09:36Z</time>
      </trkpt>
      <trkpt lat="36.4467900" lon="-5.2795800">
        <ele>380.1</ele>
        <time>2019-08-28T11:09:37Z</time>
      </trkpt>
      <trkpt lat="36.4467750" lon="-5.2795330">
        <ele>380.3</ele>
        <time>2019-08-28T11:09:38Z</time>
      </trkpt>
      <trkpt lat="36.4467580" lon="-5.2794870">
        <ele>380.5</ele>
        <time>2019-08-28T11:09:39Z</time>
      </trkpt>
      <trkpt lat="36.4467390" lon="-5.2794410">
        <ele>380.7</ele>
        <time>2019-08-28T11:09:40Z</time>
      </trkpt>
      <trkpt lat="36.4467180" lon="-5.2793970">
        <ele>380.9</ele>
        <time>2019-08-28T11:09:41Z</time>
      </trkpt>
      <trkpt lat="36.4466950" lon="-5.2793520">
        <ele>381.1</ele>
        <time>2019-08-28T11:09:42Z</time>
      </trkpt>
      <trkpt lat="36.4466710" lon="-5.2793070">
        <ele>381.3</ele>
        <time>2019-08-28T11:09:43Z</time>
      </trkpt>
      <trkpt lat="36.4466440" lon="-5.2792600">
        <ele>381.4</ele>
        <time>2019-08-28T11:09:44Z</time>
      </trkpt>
      <trkpt lat="36.4466170" lon="-5.2792130">
        <ele>381.5</ele>
        <time>2019-08-28T11:09:45Z</time>
      </trkpt>
      <trkpt lat="36.4465880" lon="-5.2791640">
        <ele>381.5</ele>
        <time>2019-08-28T11:09:46Z</time>
      </trkpt>
      <trkpt lat="36.4465570" lon="-5.2791140">
        <ele>381.6</ele>
        <time>2019-08-28T11:09:47Z</time>
      </trkpt>
      <trkpt lat="36.4465250" lon="-5.2790630">
        <ele>381.7</ele>
        <time>2019-08-28T11:09:48Z</time>
      </trkpt>
      <trkpt lat="36.4464920" lon="-5.2790100">
        <ele>381.8</ele>
        <time>2019-08-28T11:09:49Z</time>
      </trkpt>
      <trkpt lat="36.4464590" lon="-5.2789530">
        <ele>381.9</ele>
        <time>2019-08-28T11:09:50Z</time>
      </trkpt>
      <trkpt lat="36.4464230" lon="-5.2788940">
        <ele>381.9</ele>
        <time>2019-08-28T11:09:51Z</time>
      </trkpt>
      <trkpt lat="36.4463860" lon="-5.2788310">
        <ele>382.0</ele>
        <time>2019-08-28T11:09:52Z</time>
      </trkpt>
      <trkpt lat="36.4463480" lon="-5.2787630">
        <ele>382.0</ele>
        <time>2019-08-28T11:09:53Z</time>
      </trkpt>
      <trkpt lat="36.4463110" lon="-5.2786880">
        <ele>382.1</ele>
        <time>2019-08-28T11:09:54Z</time>
      </trkpt>
      <trkpt lat="36.4462750" lon="-5.2786050">
        <ele>382.2</ele>
        <time>2019-08-28T11:09:55Z</time>
      </trkpt>
      <trkpt lat="36.4462430" lon="-5.2785160">
        <ele>381.0</ele>
        <time>2019-08-28T11:09:56Z</time>
      </trkpt>
      <trkpt lat="36.4462150" lon="-5.2784200">
        <ele>380.3</ele>
        <time>2019-08-28T11:09:57Z</time>
      </trkpt>
      <trkpt lat="36.4461960" lon="-5.2783170">
        <ele>379.6</ele>
        <time>2019-08-28T11:09:58Z</time>
      </trkpt>
      <trkpt lat="36.4461850" lon="-5.2782090">
        <ele>378.7</ele>
        <time>2019-08-28T11:09:59Z</time>
      </trkpt>
      <trkpt lat="36.4461910" lon="-5.2780960">
        <ele>377.7</ele>
        <time>2019-08-28T11:10:00Z</time>
      </trkpt>
      <trkpt lat="36.4462150" lon="-5.2779840">
        <ele>376.6</ele>
        <time>2019-08-28T11:10:01Z</time>
      </trkpt>
      <trkpt lat="36.4462570" lon="-5.2778770">
        <ele>375.6</ele>
        <time>2019-08-28T11:10:02Z</time>
      </trkpt>
      <trkpt lat="36.4463120" lon="-5.2777790">
        <ele>374.5</ele>
        <time>2019-08-28T11:10:03Z</time>
      </trkpt>
      <trkpt lat="36.4463820" lon="-5.2776880">
        <ele>373.3</ele>
        <time>2019-08-28T11:10:04Z</time>
      </trkpt>
      <trkpt lat="36.4464650" lon="-5.2776020">
        <ele>372.2</ele>
        <time>2019-08-28T11:10:05Z</time>
      </trkpt>
      <trkpt lat="36.4465580" lon="-5.2775240">
        <ele>371.2</ele>
        <time>2019-08-28T11:10:06Z</time>
      </trkpt>
      <trkpt lat="36.4466580" lon="-5.2774610">
        <ele>370.4</ele>
        <time>2019-08-28T11:10:07Z</time>
      </trkpt>
      <trkpt lat="36.4467670" lon="-5.2774150">
        <ele>369.8</ele>
        <time>2019-08-28T11:10:08Z</time>
      </trkpt>
      <trkpt lat="36.4468820" lon="-5.2773780">
        <ele>369.2</ele>
        <time>2019-08-28T11:10:09Z</time>
      </trkpt>
      <trkpt lat="36.4469960" lon="-5.2773370">
        <ele>368.5</ele>
        <time>2019-08-28T11:10:10Z</time>
      </trkpt>
      <trkpt lat="36.4471070" lon="-5.2772860">
        <ele>367.8</ele>
        <time>2019-08-28T11:10:11Z</time>
      </trkpt>
      <trkpt lat="36.4472130" lon="-5.2772190">
        <ele>367.2</ele>
        <time>2019-08-28T11:10:12Z</time>
      </trkpt>
      <trkpt lat="36.4473120" lon="-5.2771370">
        <ele>366.8</ele>
        <time>2019-08-28T11:10:13Z</time>
      </trkpt>
      <trkpt lat="36.4474020" lon="-5.2770390">
        <ele>366.5</ele>
        <time>2019-08-28T11:10:14Z</time>
      </trkpt>
      <trkpt lat="36.4474840" lon="-5.2769310">
        <ele>365.9</ele>
        <time>2019-08-28T11:10:15Z</time>
      </trkpt>
      <trkpt lat="36.4475570" lon="-5.2768130">
        <ele>364.8</ele>
        <time>2019-08-28T11:10:16Z</time>
      </trkpt>
      <trkpt lat="36.4476240" lon="-5.2766920">
        <ele>363.6</ele>
        <time>2019-08-28T11:10:17Z</time>
      </trkpt>
      <trkpt lat="36.4476920" lon="-5.2765740">
        <ele>362.6</ele>
        <time>2019-08-28T11:10:18Z</time>
      </trkpt>
      <trkpt lat="36.4477660" lon="-5.2764610">
        <ele>361.9</ele>
        <time>2019-08-28T11:10:19Z</time>
      </trkpt>
      <trkpt lat="36.4478480" lon="-5.2763590">
        <ele>361.4</ele>
        <time>2019-08-28T11:10:20Z</time>
      </trkpt>
      <trkpt lat="36.4479310" lon="-5.2762690">
        <ele>361.0</ele>
        <time>2019-08-28T11:10:21Z</time>
      </trkpt>
      <trkpt lat="36.4480150" lon="-5.2762060">
        <ele>360.8</ele>
        <time>2019-08-28T11:10:22Z</time>
      </trkpt>
      <trkpt lat="36.4481080" lon="-5.2761830">
        <ele>360.7</ele>
        <time>2019-08-28T11:10:23Z</time>
      </trkpt>
      <trkpt lat="36.4482090" lon="-5.2761990">
        <ele>360.6</ele>
        <time>2019-08-28T11:10:24Z</time>
      </trkpt>
      <trkpt lat="36.4483170" lon="-5.2762470">
        <ele>360.6</ele>
        <time>2019-08-28T11:10:25Z</time>
      </trkpt>
      <trkpt lat="36.4484300" lon="-5.2763230">
        <ele>360.7</ele>
        <time>2019-08-28T11:10:26Z</time>
      </trkpt>
      <trkpt lat="36.4485280" lon="-5.2764270">
        <ele>361.1</ele>
        <time>2019-08-28T11:10:27Z</time>
      </trkpt>
      <trkpt lat="36.4486200" lon="-5.2765350">
        <ele>361.5</ele>
        <time>2019-08-28T11:10:28Z</time>
      </trkpt>
      <trkpt lat="36.4486900" lon="-5.2766320">
        <ele>361.9</ele>
        <time>2019-08-28T11:10:29Z</time>
      </trkpt>
      <trkpt lat="36.4487650" lon="-5.2767150">
        <ele>362.2</ele>
        <time>2019-08-28T11:10:30Z</time>
      </trkpt>
      <trkpt lat="36.4488360" lon="-5.2767950">
        <ele>362.6</ele>
        <time>2019-08-28T11:10:31Z</time>
      </trkpt>
      <trkpt lat="36.4489090" lon="-5.2768660">
        <ele>363.1</ele>
        <time>2019-08-28T11:10:32Z</time>
      </trkpt>
      <trkpt lat="36.4489780" lon="-5.2769310">
        <ele>363.5</ele>
        <time>2019-08-28T11:10:33Z</time>
      </trkpt>
      <trkpt lat="36.4490470" lon="-5.2769870">
        <ele>364.1</ele>
        <time>2019-08-28T11:10:34Z</time>
      </trkpt>
      <trkpt lat="36.4491220" lon="-5.2770320">
        <ele>364.6</ele>
        <time>2019-08-28T11:10:35Z</time>
      </trkpt>
      <trkpt lat="36.4491960" lon="-5.2770620">
        <ele>365.1</ele>
        <time>2019-08-28T11:10:36Z</time>
      </trkpt>
      <trkpt lat="36.4492650" lon="-5.2770770">
        <ele>365.6</ele>
        <time>2019-08-28T11:10:37Z</time>
      </trkpt>
      <trkpt lat="36.4493220" lon="-5.2770860">
        <ele>365.9</ele>
        <time>2019-08-28T11:10:38Z</time>
      </trkpt>
      <trkpt lat="36.4493720" lon="-5.2770940">
        <ele>366.2</ele>
        <time>2019-08-28T11:10:39Z</time>
      </trkpt>
      <trkpt lat="36.4494210" lon="-5.2771050">
        <ele>366.4</ele>
        <time>2019-08-28T11:10:40Z</time>
      </trkpt>
      <trkpt lat="36.4494690" lon="-5.2771140">
        <ele>366.7</ele>
        <time>2019-08-28T11:10:41Z</time>
      </trkpt>
      <trkpt lat="36.4495170" lon="-5.2771210">
        <ele>366.9</ele>
        <time>2019-08-28T11:10:42Z</time>
      </trkpt>
      <trkpt lat="36.4495650" lon="-5.2771290">
        <ele>367.1</ele>
        <time>2019-08-28T11:10:43Z</time>
      </trkpt>
      <trkpt lat="36.4496140" lon="-5.2771390">
        <ele>367.3</ele>
        <time>2019-08-28T11:10:44Z</time>
      </trkpt>
      <trkpt lat="36.4496630" lon="-5.2771520">
        <ele>367.3</ele>
        <time>2019-08-28T11:10:45Z</time>
      </trkpt>
      <trkpt lat="36.4497120" lon="-5.2771620">
        <ele>367.3</ele>
        <time>2019-08-28T11:10:46Z</time>
      </trkpt>
      <trkpt lat="36.4497600" lon="-5.2771720">
        <ele>367.3</ele>
        <time>2019-08-28T11:10:47Z</time>
      </trkpt>
      <trkpt lat="36.4498080" lon="-5.2771820">
        <ele>367.1</ele>
        <time>2019-08-28T11:10:48Z</time>
      </trkpt>
      <trkpt lat="36.4498560" lon="-5.2771950">
        <ele>367.0</ele>
        <time>2019-08-28T11:10:49Z</time>
      </trkpt>
      <trkpt lat="36.4499050" lon="-5.2772130">
        <ele>366.8</ele>
        <time>2019-08-28T11:10:50Z</time>
      </trkpt>
      <trkpt lat="36.4499560" lon="-5.2772370">
        <ele>366.6</ele>
        <time>2019-08-28T11:10:51Z</time>
      </trkpt>
      <trkpt lat="36.4500060" lon="-5.2772670">
        <ele>366.4</ele>
        <time>2019-08-28T11:10:52Z</time>
      </trkpt>
      <trkpt lat="36.4500580" lon="-5.2773040">
        <ele>366.1</ele>
        <time>2019-08-28T11:10:53Z</time>
      </trkpt>
      <trkpt lat="36.4501080" lon="-5.2773430">
        <ele>365.9</ele>
        <time>2019-08-28T11:10:54Z</time>
      </trkpt>
      <trkpt lat="36.4501580" lon="-5.2773850">
        <ele>365.6</ele>
        <time>2019-08-28T11:10:55Z</time>
      </trkpt>
      <trkpt lat="36.4502060" lon="-5.2774290">
        <ele>365.4</ele>
        <time>2019-08-28T11:10:56Z</time>
      </trkpt>
      <trkpt lat="36.4502530" lon="-5.2774780">
        <ele>365.1</ele>
        <time>2019-08-28T11:10:57Z</time>
      </trkpt>
      <trkpt lat="36.4502990" lon="-5.2775280">
        <ele>364.9</ele>
        <time>2019-08-28T11:10:58Z</time>
      </trkpt>
      <trkpt lat="36.4503450" lon="-5.2775810">
        <ele>364.6</ele>
        <time>2019-08-28T11:10:59Z</time>
      </trkpt>
      <trkpt lat="36.4503920" lon="-5.2776350">
        <ele>364.3</ele>
        <time>2019-08-28T11:11:00Z</time>
      </trkpt>
      <trkpt lat="36.4504400" lon="-5.2776900">
        <ele>363.8</ele>
        <time>2019-08-28T11:11:01Z</time>
      </trkpt>
      <trkpt lat="36.4504970" lon="-5.2777510">
        <ele>363.2</ele>
        <time>2019-08-28T11:11:02Z</time>
      </trkpt>
      <trkpt lat="36.4505580" lon="-5.2778150">
        <ele>362.5</ele>
        <time>2019-08-28T11:11:03Z</time>
      </trkpt>
      <trkpt lat="36.4506220" lon="-5.2778840">
        <ele>361.6</ele>
        <time>2019-08-28T11:11:04Z</time>
      </trkpt>
      <trkpt lat="36.4506860" lon="-5.2779540">
        <ele>360.9</ele>
        <time>2019-08-28T11:11:05Z</time>
      </trkpt>
      <trkpt lat="36.4507540" lon="-5.2780250">
        <ele>360.2</ele>
        <time>2019-08-28T11:11:06Z</time>
      </trkpt>
      <trkpt lat="36.4508290" lon="-5.2780940">
        <ele>359.5</ele>
        <time>2019-08-28T11:11:07Z</time>
      </trkpt>
      <trkpt lat="36.4509040" lon="-5.2781590">
        <ele>358.9</ele>
        <time>2019-08-28T11:11:08Z</time>
      </trkpt>
      <trkpt lat="36.4509800" lon="-5.2782180">
        <ele>358.2</ele>
        <time>2019-08-28T11:11:09Z</time>
      </trkpt>
      <trkpt lat="36.4510530" lon="-5.2782710">
        <ele>357.7</ele>
        <time>2019-08-28T11:11:10Z</time>
      </trkpt>
      <trkpt lat="36.4511290" lon="-5.2783120">
        <ele>357.3</ele>
        <time>2019-08-28T11:11:11Z</time>
      </trkpt>
      <trkpt lat="36.4512240" lon="-5.2783230">
        <ele>356.9</ele>
        <time>2019-08-28T11:11:12Z</time>
      </trkpt>
      <trkpt lat="36.4513250" lon="-5.2782930">
        <ele>356.7</ele>
        <time>2019-08-28T11:11:13Z</time>
      </trkpt>
      <trkpt lat="36.4514300" lon="-5.2782160">
        <ele>356.7</ele>
        <time>2019-08-28T11:11:14Z</time>
      </trkpt>
      <trkpt lat="36.4515050" lon="-5.2781090">
        <ele>357.0</ele>
        <time>2019-08-28T11:11:15Z</time>
      </trkpt>
      <trkpt lat="36.4515630" lon="-5.2779920">
        <ele>357.5</ele>
        <time>2019-08-28T11:11:16Z</time>
      </trkpt>
      <trkpt lat="36.4516020" lon="-5.2778790">
        <ele>358.1</ele>
        <time>2019-08-28T11:11:17Z</time>
      </trkpt>
      <trkpt lat="36.4516370" lon="-5.2777700">
        <ele>358.7</ele>
        <time>2019-08-28T11:11:18Z</time>
      </trkpt>
      <trkpt lat="36.4516640" lon="-5.2776620">
        <ele>359.4</ele>
        <time>2019-08-28T11:11:19Z</time>
      </trkpt>
      <trkpt lat="36.4516850" lon="-5.2775570">
        <ele>360.0</ele>
        <time>2019-08-28T11:11:20Z</time>
      </trkpt>
      <trkpt lat="36.4516890" lon="-5.2774630">
        <ele>360.6</ele>
        <time>2019-08-28T11:11:21Z</time>
      </trkpt>
      <trkpt lat="36.4516860" lon="-5.2773810">
        <ele>361.2</ele>
        <time>2019-08-28T11:11:22Z</time>
      </trkpt>
      <trkpt lat="36.4516760" lon="-5.2773100">
        <ele>361.7</ele>
        <time>2019-08-28T11:11:23Z</time>
      </trkpt>
      <trkpt lat="36.4516700" lon="-5.2772440">
        <ele>362.2</ele>
        <time>2019-08-28T11:11:24Z</time>
      </trkpt>
      <trkpt lat="36.4516640" lon="-5.2771840">
        <ele>362.4</ele>
        <time>2019-08-28T11:11:25Z</time>
      </trkpt>
      <trkpt lat="36.4516580" lon="-5.2771290">
        <ele>362.7</ele>
        <time>2019-08-28T11:11:26Z</time>
      </trkpt>
      <trkpt lat="36.4516490" lon="-5.2770800">
        <ele>363.0</ele>
        <time>2019-08-28T11:11:27Z</time>
      </trkpt>
      <trkpt lat="36.4516410" lon="-5.2770330">
        <ele>363.4</ele>
        <time>2019-08-28T11:11:28Z</time>
      </trkpt>
      <trkpt lat="36.4516330" lon="-5.2769900">
        <ele>363.8</ele>
        <time>2019-08-28T11:11:29Z</time>
      </trkpt>
      <trkpt lat="36.4516270" lon="-5.2769480">
        <ele>364.2</ele>
        <time>2019-08-28T11:11:30Z</time>
      </trkpt>
      <trkpt lat="36.4516220" lon="-5.2769080">
        <ele>364.7</ele>
        <time>2019-08-28T11:11:31Z</time>
      </trkpt>
      <trkpt lat="36.4516160" lon="-5.2768710">
        <ele>365.1</ele>
        <time>2019-08-28T11:11:32Z</time>
      </trkpt>
      <trkpt lat="36.4516110" lon="-5.2768350">
        <ele>365.5</ele>
        <time>2019-08-28T11:11:33Z</time>
      </trkpt>
      <trkpt lat="36.4516060" lon="-5.2768000">
        <ele>365.9</ele>
        <time>2019-08-28T11:11:34Z</time>
      </trkpt>
      <trkpt lat="36.4516000" lon="-5.2767660">
        <ele>366.3</ele>
        <time>2019-08-28T11:11:35Z</time>
      </trkpt>
      <trkpt lat="36.4515940" lon="-5.2767340">
        <ele>366.6</ele>
        <time>2019-08-28T11:11:36Z</time>
      </trkpt>
      <trkpt lat="36.4515900" lon="-5.2767020">
        <ele>367.0</ele>
        <time>2019-08-28T11:11:37Z</time>
      </trkpt>
      <trkpt lat="36.4515850" lon="-5.2766710">
        <ele>367.3</ele>
        <time>2019-08-28T11:11:38Z</time>
      </trkpt>
      <trkpt lat="36.4515810" lon="-5.2766410">
        <ele>367.6</ele>
        <time>2019-08-28T11:11:39Z</time>
      </trkpt>
      <trkpt lat="36.4515770" lon="-5.2766110">
        <ele>367.9</ele>
        <time>2019-08-28T11:11:40Z</time>
      </trkpt>
      <trkpt lat="36.4515730" lon="-5.2765810">
        <ele>368.2</ele>
        <time>2019-08-28T11:11:41Z</time>
      </trkpt>
      <trkpt lat="36.4515680" lon="-5.2765510">
        <ele>368.4</ele>
        <time>2019-08-28T11:11:42Z</time>
      </trkpt>
      <trkpt lat="36.4515640" lon="-5.2765210">
        <ele>368.7</ele>
        <time>2019-08-28T11:11:43Z</time>
      </trkpt>
      <trkpt lat="36.4515600" lon="-5.2764920">
        <ele>369.0</ele>
        <time>2019-08-28T11:11:44Z</time>
      </trkpt>
      <trkpt lat="36.4515570" lon="-5.2764620">
        <ele>369.3</ele>
        <time>2019-08-28T11:11:45Z</time>
      </trkpt>
      <trkpt lat="36.4515540" lon="-5.2764330">
        <ele>369.6</ele>
        <time>2019-08-28T11:11:46Z</time>
      </trkpt>
      <trkpt lat="36.4515500" lon="-5.2764050">
        <ele>369.9</ele>
        <time>2019-08-28T11:11:47Z</time>
      </trkpt>
      <trkpt lat="36.4515440" lon="-5.2763780">
        <ele>370.2</ele>
        <time>2019-08-28T11:11:48Z</time>
      </trkpt>
      <trkpt lat="36.4515390" lon="-5.2763510">
        <ele>370.5</ele>
        <time>2019-08-28T11:11:49Z</time>
      </trkpt>
      <trkpt lat="36.4515350" lon="-5.2763230">
        <ele>370.8</ele>
        <time>2019-08-28T11:11:50Z</time>
      </trkpt>
      <trkpt lat="36.4515310" lon="-5.2762950">
        <ele>371.1</ele>
        <time>2019-08-28T11:11:51Z</time>
      </trkpt>
      <trkpt lat="36.4515270" lon="-5.2762680">
        <ele>371.4</ele>
        <time>2019-08-28T11:11:52Z</time>
      </trkpt>
      <trkpt lat="36.4515240" lon="-5.2762400">
        <ele>371.7</ele>
        <time>2019-08-28T11:11:53Z</time>
      </trkpt>
      <trkpt lat="36.4515190" lon="-5.2762120">
        <ele>371.9</ele>
        <time>2019-08-28T11:11:54Z</time>
      </trkpt>
      <trkpt lat="36.4515150" lon="-5.2761850">
        <ele>372.2</ele>
        <time>2019-08-28T11:11:55Z</time>
      </trkpt>
      <trkpt lat="36.4515120" lon="-5.2761570">
        <ele>372.5</ele>
        <time>2019-08-28T11:11:56Z</time>
      </trkpt>
      <trkpt lat="36.4515100" lon="-5.2761280">
        <ele>372.8</ele>
        <time>2019-08-28T11:11:57Z</time>
      </trkpt>
      <trkpt lat="36.4515080" lon="-5.2760990">
        <ele>373.1</ele>
        <time>2019-08-28T11:11:58Z</time>
      </trkpt>
      <trkpt lat="36.4515070" lon="-5.2760700">
        <ele>373.4</ele>
        <time>2019-08-28T11:11:59Z</time>
      </trkpt>
      <trkpt lat="36.4515070" lon="-5.2760400">
        <ele>373.7</ele>
        <time>2019-08-28T11:12:00Z</time>
      </trkpt>
      <trkpt lat="36.4515090" lon="-5.2760110">
        <ele>374.0</ele>
        <time>2019-08-28T11:12:01Z</time>
      </trkpt>
      <trkpt lat="36.4515130" lon="-5.2759790">
        <ele>374.4</ele>
        <time>2019-08-28T11:12:02Z</time>
      </trkpt>
      <trkpt lat="36.4515180" lon="-5.2759490">
        <ele>374.7</ele>
        <time>2019-08-28T11:12:03Z</time>
      </trkpt>
      <trkpt lat="36.4515230" lon="-5.2759170">
        <ele>375.0</ele>
        <time>2019-08-28T11:12:04Z</time>
      </trkpt>
      <trkpt lat="36.4515300" lon="-5.2758880">
        <ele>375.2</ele>
        <time>2019-08-28T11:12:05Z</time>
      </trkpt>
      <trkpt lat="36.4515390" lon="-5.2758580">
        <ele>375.5</ele>
        <time>2019-08-28T11:12:06Z</time>
      </trkpt>
      <trkpt lat="36.4515480" lon="-5.2758290">
        <ele>375.8</ele>
        <time>2019-08-28T11:12:07Z</time>
      </trkpt>
      <trkpt lat="36.4515580" lon="-5.2758000">
        <ele>376.0</ele>
        <time>2019-08-28T11:12:08Z</time>
      </trkpt>
      <trkpt lat="36.4515680" lon="-5.2757710">
        <ele>376.3</ele>
        <time>2019-08-28T11:12:09Z</time>
      </trkpt>
      <trkpt lat="36.4515780" lon="-5.2757430">
        <ele>376.5</ele>
        <time>2019-08-28T11:12:10Z</time>
      </trkpt>
      <trkpt lat="36.4515890" lon="-5.2757150">
        <ele>376.8</ele>
        <time>2019-08-28T11:12:11Z</time>
      </trkpt>
      <trkpt lat="36.4515990" lon="-5.2756880">
        <ele>377.0</ele>
        <time>2019-08-28T11:12:12Z</time>
      </trkpt>
      <trkpt lat="36.4516090" lon="-5.2756590">
        <ele>377.2</ele>
        <time>2019-08-28T11:12:13Z</time>
      </trkpt>
      <trkpt lat="36.4516190" lon="-5.2756290">
        <ele>377.4</ele>
        <time>2019-08-28T11:12:14Z</time>
      </trkpt>
      <trkpt lat="36.4516290" lon="-5.2755990">
        <ele>377.6</ele>
        <time>2019-08-28T11:12:15Z</time>
      </trkpt>
      <trkpt lat="36.4516380" lon="-5.2755680">
        <ele>377.8</ele>
        <time>2019-08-28T11:12:16Z</time>
      </trkpt>
      <trkpt lat="36.4516450" lon="-5.2755380">
        <ele>378.0</ele>
        <time>2019-08-28T11:12:17Z</time>
      </trkpt>
      <trkpt lat="36.4516520" lon="-5.2755080">
        <ele>378.1</ele>
        <time>2019-08-28T11:12:18Z</time>
      </trkpt>
      <trkpt lat="36.4516590" lon="-5.2754780">
        <ele>378.3</ele>
        <time>2019-08-28T11:12:19Z</time>
      </trkpt>
      <trkpt lat="36.4516670" lon="-5.2754480">
        <ele>378.5</ele>
        <time>2019-08-28T11:12:20Z</time>
      </trkpt>
      <trkpt lat="36.4516740" lon="-5.2754180">
        <ele>378.7</ele>
        <time>2019-08-28T11:12:21Z</time>
      </trkpt>
      <trkpt lat="36.4516790" lon="-5.2753890">
        <ele>378.8</ele>
        <time>2019-08-28T11:12:22Z</time>
      </trkpt>
      <trkpt lat="36.4516830" lon="-5.2753580">
        <ele>379.0</ele>
        <time>2019-08-28T11:12:23Z</time>
      </trkpt>
      <trkpt lat="36.4516870" lon="-5.2753280">
        <ele>379.2</ele>
        <time>2019-08-28T11:12:24Z</time>
      </trkpt>
      <trkpt lat="36.4516910" lon="-5.2752970">
        <ele>379.4</ele>
        <time>2019-08-28T11:12:25Z</time>
      </trkpt>
      <trkpt lat="36.4516940" lon="-5.2752660">
        <ele>379.6</ele>
        <time>2019-08-28T11:12:26Z</time>
      </trkpt>
      <trkpt lat="36.4516950" lon="-5.2752350">
        <ele>379.8</ele>
        <time>2019-08-28T11:12:27Z</time>
      </trkpt>
      <trkpt lat="36.4516960" lon="-5.2752040">
        <ele>380.0</ele>
        <time>2019-08-28T11:12:28Z</time>
      </trkpt>
      <trkpt lat="36.4516970" lon="-5.2751740">
        <ele>380.2</ele>
        <time>2019-08-28T11:12:29Z</time>
      </trkpt>
      <trkpt lat="36.4516950" lon="-5.2751440">
        <ele>380.4</ele>
        <time>2019-08-28T11:12:30Z</time>
      </trkpt>
      <trkpt lat="36.4516880" lon="-5.2751150">
        <ele>380.7</ele>
        <time>2019-08-28T11:12:31Z</time>
      </trkpt>
      <trkpt lat="36.4516790" lon="-5.2750880">
        <ele>380.9</ele>
        <time>2019-08-28T11:12:32Z</time>
      </trkpt>
      <trkpt lat="36.4516680" lon="-5.2750600">
        <ele>381.1</ele>
        <time>2019-08-28T11:12:33Z</time>
      </trkpt>
      <trkpt lat="36.4516560" lon="-5.2750340">
        <ele>381.3</ele>
        <time>2019-08-28T11:12:34Z</time>
      </trkpt>
      <trkpt lat="36.4516410" lon="-5.2750100">
        <ele>381.5</ele>
        <time>2019-08-28T11:12:35Z</time>
      </trkpt>
      <trkpt lat="36.4516240" lon="-5.2749880">
        <ele>381.8</ele>
        <time>2019-08-28T11:12:36Z</time>
      </trkpt>
      <trkpt lat="36.4516060" lon="-5.2749690">
        <ele>382.0</ele>
        <time>2019-08-28T11:12:37Z</time>
      </trkpt>
      <trkpt lat="36.4515860" lon="-5.2749530">
        <ele>382.2</ele>
        <time>2019-08-28T11:12:38Z</time>
      </trkpt>
      <trkpt lat="36.4515660" lon="-5.2749370">
        <ele>382.4</ele>
        <time>2019-08-28T11:12:39Z</time>
      </trkpt>
      <trkpt lat="36.4515470" lon="-5.2749230">
        <ele>382.6</ele>
        <time>2019-08-28T11:12:40Z</time>
      </trkpt>
      <trkpt lat="36.4515270" lon="-5.2749100">
        <ele>382.8</ele>
        <time>2019-08-28T11:12:41Z</time>
      </trkpt>
      <trkpt lat="36.4515070" lon="-5.2748980">
        <ele>383.0</ele>
        <time>2019-08-28T11:12:42Z</time>
      </trkpt>
      <trkpt lat="36.4514850" lon="-5.2748870">
        <ele>383.3</ele>
        <time>2019-08-28T11:12:43Z</time>
      </trkpt>
      <trkpt lat="36.4514640" lon="-5.2748750">
        <ele>383.5</ele>
        <time>2019-08-28T11:12:44Z</time>
      </trkpt>
      <trkpt lat="36.4514430" lon="-5.2748640">
        <ele>383.7</ele>
        <time>2019-08-28T11:12:45Z</time>
      </trkpt>
      <trkpt lat="36.4514200" lon="-5.2748530">
        <ele>384.0</ele>
        <time>2019-08-28T11:12:46Z</time>
      </trkpt>
      <trkpt lat="36.4513970" lon="-5.2748390">
        <ele>383.9</ele>
        <time>2019-08-28T11:12:47Z</time>
      </trkpt>
      <trkpt lat="36.4513760" lon="-5.2748220">
        <ele>383.8</ele>
        <time>2019-08-28T11:12:48Z</time>
      </trkpt>
      <trkpt lat="36.4513570" lon="-5.2748020">
        <ele>383.7</ele>
        <time>2019-08-28T11:12:49Z</time>
      </trkpt>
      <trkpt lat="36.4513380" lon="-5.2747810">
        <ele>383.4</ele>
        <time>2019-08-28T11:12:50Z</time>
      </trkpt>
      <trkpt lat="36.4513190" lon="-5.2747600">
        <ele>383.1</ele>
        <time>2019-08-28T11:12:51Z</time>
      </trkpt>
      <trkpt lat="36.4513010" lon="-5.2747380">
        <ele>382.7</ele>
        <time>2019-08-28T11:12:52Z</time>
      </trkpt>
      <trkpt lat="36.4512840" lon="-5.2747150">
        <ele>382.5</ele>
        <time>2019-08-28T11:12:53Z</time>
      </trkpt>
      <trkpt lat="36.4512680" lon="-5.2746920">
        <ele>382.5</ele>
        <time>2019-08-28T11:12:54Z</time>
      </trkpt>
      <trkpt lat="36.4512520" lon="-5.2746670">
        <ele>382.5</ele>
        <time>2019-08-28T11:12:55Z</time>
      </trkpt>
      <trkpt lat="36.4512380" lon="-5.2746410">
        <ele>382.6</ele>
        <time>2019-08-28T11:12:56Z</time>
      </trkpt>
      <trkpt lat="36.4512240" lon="-5.2746130">
        <ele>383.0</ele>
        <time>2019-08-28T11:12:57Z</time>
      </trkpt>
      <trkpt lat="36.4512120" lon="-5.2745840">
        <ele>383.3</ele>
        <time>2019-08-28T11:12:58Z</time>
      </trkpt>
      <trkpt lat="36.4512000" lon="-5.2745540">
        <ele>383.7</ele>
        <time>2019-08-28T11:12:59Z</time>
      </trkpt>
      <trkpt lat="36.4511880" lon="-5.2745230">
        <ele>384.1</ele>
        <time>2019-08-28T11:13:00Z</time>
      </trkpt>
      <trkpt lat="36.4511750" lon="-5.2744920">
        <ele>384.6</ele>
        <time>2019-08-28T11:13:01Z</time>
      </trkpt>
      <trkpt lat="36.4511630" lon="-5.2744610">
        <ele>384.7</ele>
        <time>2019-08-28T11:13:02Z</time>
      </trkpt>
      <trkpt lat="36.4511500" lon="-5.2744300">
        <ele>384.8</ele>
        <time>2019-08-28T11:13:03Z</time>
      </trkpt>
      <trkpt lat="36.4511380" lon="-5.2743990">
        <ele>385.2</ele>
        <time>2019-08-28T11:13:04Z</time>
      </trkpt>
      <trkpt lat="36.4511260" lon="-5.2743670">
        <ele>385.8</ele>
        <time>2019-08-28T11:13:05Z</time>
      </trkpt>
      <trkpt lat="36.4511130" lon="-5.2743350">
        <ele>386.4</ele>
        <time>2019-08-28T11:13:06Z</time>
      </trkpt>
      <trkpt lat="36.4511010" lon="-5.2743020">
        <ele>387.0</ele>
        <time>2019-08-28T11:13:07Z</time>
      </trkpt>
      <trkpt lat="36.4510880" lon="-5.2742700">
        <ele>387.7</ele>
        <time>2019-08-28T11:13:08Z</time>
      </trkpt>
      <trkpt lat="36.4510740" lon="-5.2742380">
        <ele>388.4</ele>
        <time>2019-08-28T11:13:09Z</time>
      </trkpt>
      <trkpt lat="36.4510570" lon="-5.2742080">
        <ele>389.2</ele>
        <time>2019-08-28T11:13:10Z</time>
      </trkpt>
      <trkpt lat="36.4510400" lon="-5.2741790">
        <ele>390.0</ele>
        <time>2019-08-28T11:13:11Z</time>
      </trkpt>
      <trkpt lat="36.4510190" lon="-5.2741540">
        <ele>390.5</ele>
        <time>2019-08-28T11:13:12Z</time>
      </trkpt>
      <trkpt lat="36.4509950" lon="-5.2741330">
        <ele>391.0</ele>
        <time>2019-08-28T11:13:13Z</time>
      </trkpt>
      <trkpt lat="36.4509680" lon="-5.2741200">
        <ele>391.4</ele>
        <time>2019-08-28T11:13:14Z</time>
      </trkpt>
      <trkpt lat="36.4509390" lon="-5.2741120">
        <ele>391.9</ele>
        <time>2019-08-28T11:13:15Z</time>
      </trkpt>
      <trkpt lat="36.4509100" lon="-5.2741100">
        <ele>392.4</ele>
        <time>2019-08-28T11:13:16Z</time>
      </trkpt>
      <trkpt lat="36.4508800" lon="-5.2741120">
        <ele>392.4</ele>
        <time>2019-08-28T11:13:17Z</time>
      </trkpt>
      <trkpt lat="36.4508530" lon="-5.2741170">
        <ele>392.5</ele>
        <time>2019-08-28T11:13:18Z</time>
      </trkpt>
      <trkpt lat="36.4508270" lon="-5.2741260">
        <ele>393.2</ele>
        <time>2019-08-28T11:13:19Z</time>
      </trkpt>
      <trkpt lat="36.4508020" lon="-5.2741370">
        <ele>393.3</ele>
        <time>2019-08-28T11:13:20Z</time>
      </trkpt>
      <trkpt lat="36.4507760" lon="-5.2741490">
        <ele>392.7</ele>
        <time>2019-08-28T11:13:21Z</time>
      </trkpt>
      <trkpt lat="36.4507500" lon="-5.2741610">
        <ele>392.1</ele>
        <time>2019-08-28T11:13:22Z</time>
      </trkpt>
      <trkpt lat="36.4507250" lon="-5.2741750">
        <ele>391.5</ele>
        <time>2019-08-28T11:13:23Z</time>
      </trkpt>
      <trkpt lat="36.4507010" lon="-5.2741900">
        <ele>391.0</ele>
        <time>2019-08-28T11:13:24Z</time>
      </trkpt>
      <trkpt lat="36.4506770" lon="-5.2742060">
        <ele>390.5</ele>
        <time>2019-08-28T11:13:25Z</time>
      </trkpt>
      <trkpt lat="36.4506540" lon="-5.2742220">
        <ele>390.0</ele>
        <time>2019-08-28T11:13:26Z</time>
      </trkpt>
      <trkpt lat="36.4506310" lon="-5.2742380">
        <ele>389.6</ele>
        <time>2019-08-28T11:13:27Z</time>
      </trkpt>
      <trkpt lat="36.4506080" lon="-5.2742550">
        <ele>389.1</ele>
        <time>2019-08-28T11:13:28Z</time>
      </trkpt>
      <trkpt lat="36.4505840" lon="-5.2742720">
        <ele>388.7</ele>
        <time>2019-08-28T11:13:29Z</time>
      </trkpt>
      <trkpt lat="36.4505600" lon="-5.2742880">
        <ele>388.2</ele>
        <time>2019-08-28T11:13:30Z</time>
      </trkpt>
      <trkpt lat="36.4505360" lon="-5.2743050">
        <ele>387.8</ele>
        <time>2019-08-28T11:13:31Z</time>
      </trkpt>
      <trkpt lat="36.4505110" lon="-5.2743220">
        <ele>387.4</ele>
        <time>2019-08-28T11:13:32Z</time>
      </trkpt>
      <trkpt lat="36.4504870" lon="-5.2743380">
        <ele>387.0</ele>
        <time>2019-08-28T11:13:33Z</time>
      </trkpt>
      <trkpt lat="36.4504630" lon="-5.2743530">
        <ele>386.6</ele>
        <time>2019-08-28T11:13:34Z</time>
      </trkpt>
      <trkpt lat="36.4504380" lon="-5.2743670">
        <ele>386.1</ele>
        <time>2019-08-28T11:13:35Z</time>
      </trkpt>
      <trkpt lat="36.4504120" lon="-5.2743810">
        <ele>385.3</ele>
        <time>2019-08-28T11:13:36Z</time>
      </trkpt>
      <trkpt lat="36.4503860" lon="-5.2743920">
        <ele>384.4</ele>
        <time>2019-08-28T11:13:37Z</time>
      </trkpt>
      <trkpt lat="36.4503600" lon="-5.2744010">
        <ele>383.6</ele>
        <time>2019-08-28T11:13:38Z</time>
      </trkpt>
      <trkpt lat="36.4503320" lon="-5.2744080">
        <ele>383.6</ele>
        <time>2019-08-28T11:13:39Z</time>
      </trkpt>
      <trkpt lat="36.4503030" lon="-5.2744120">
        <ele>383.5</ele>
        <time>2019-08-28T11:13:40Z</time>
      </trkpt>
      <trkpt lat="36.4502730" lon="-5.2744150">
        <ele>383.5</ele>
        <time>2019-08-28T11:13:41Z</time>
      </trkpt>
      <trkpt lat="36.4502420" lon="-5.2744160">
        <ele>383.3</ele>
        <time>2019-08-28T11:13:42Z</time>
      </trkpt>
      <trkpt lat="36.4502110" lon="-5.2744140">
        <ele>383.1</ele>
        <time>2019-08-28T11:13:43Z</time>
      </trkpt>
      <trkpt lat="36.4501810" lon="-5.2744070">
        <ele>383.0</ele>
        <time>2019-08-28T11:13:44Z</time>
      </trkpt>
      <trkpt lat="36.4501510" lon="-5.2743970">
        <ele>382.9</ele>
        <time>2019-08-28T11:13:45Z</time>
      </trkpt>
      <trkpt lat="36.4501210" lon="-5.2743840">
        <ele>382.7</ele>
        <time>2019-08-28T11:13:46Z</time>
      </trkpt>
      <trkpt lat="36.4500910" lon="-5.2743690">
        <ele>382.9</ele>
        <time>2019-08-28T11:13:47Z</time>
      </trkpt>
      <trkpt lat="36.4500620" lon="-5.2743530">
        <ele>383.3</ele>
        <time>2019-08-28T11:13:48Z</time>
      </trkpt>
      <trkpt lat="36.4500330" lon="-5.2743350">
        <ele>383.7</ele>
        <time>2019-08-28T11:13:49Z</time>
      </trkpt>
      <trkpt lat="36.4500050" lon="-5.2743160">
        <ele>383.8</ele>
        <time>2019-08-28T11:13:50Z</time>
      </trkpt>
      <trkpt lat="36.4499770" lon="-5.2742960">
        <ele>383.8</ele>
        <time>2019-08-28T11:13:51Z</time>
      </trkpt>
      <trkpt lat="36.4499510" lon="-5.2742740">
        <ele>383.8</ele>
        <time>2019-08-28T11:13:52Z</time>
      </trkpt>
      <trkpt lat="36.4499270" lon="-5.2742470">
        <ele>384.1</ele>
        <time>2019-08-28T11:13:53Z</time>
      </trkpt>
      <trkpt lat="36.4499040" lon="-5.2742160">
        <ele>384.3</ele>
        <time>2019-08-28T11:13:54Z</time>
      </trkpt>
      <trkpt lat="36.4498820" lon="-5.2741810">
        <ele>384.5</ele>
        <time>2019-08-28T11:13:55Z</time>
      </trkpt>
      <trkpt lat="36.4498590" lon="-5.2741460">
        <ele>384.7</ele>
        <time>2019-08-28T11:13:56Z</time>
      </trkpt>
      <trkpt lat="36.4498350" lon="-5.2741130">
        <ele>384.9</ele>
        <time>2019-08-28T11:13:57Z</time>
      </trkpt>
      <trkpt lat="36.4498120" lon="-5.2740830">
        <ele>385.2</ele>
        <time>2019-08-28T11:13:58Z</time>
      </trkpt>
      <trkpt lat="36.4497850" lon="-5.2740590">
        <ele>385.3</ele>
        <time>2019-08-28T11:13:59Z</time>
      </trkpt>
      <trkpt lat="36.4497550" lon="-5.2740390">
        <ele>385.5</ele>
        <time>2019-08-28T11:14:00Z</time>
      </trkpt>
      <trkpt lat="36.4497250" lon="-5.2740240">
        <ele>385.6</ele>
        <time>2019-08-28T11:14:01Z</time>
      </trkpt>
      <trkpt lat="36.4496990" lon="-5.2740080">
        <ele>385.7</ele>
        <time>2019-08-28T11:14:02Z</time>
      </trkpt>
      <trkpt lat="36.4496740" lon="-5.2739920">
        <ele>385.8</ele>
        <time>2019-08-28T11:14:03Z</time>
      </trkpt>
      <trkpt lat="36.4496510" lon="-5.2739760">
        <ele>385.9</ele>
        <time>2019-08-28T11:14:04Z</time>
      </trkpt>
      <trkpt lat="36.4496290" lon="-5.2739590">
        <ele>386.0</ele>
        <time>2019-08-28T11:14:05Z</time>
      </trkpt>
      <trkpt lat="36.4496050" lon="-5.2739440">
        <ele>386.2</ele>
        <time>2019-08-28T11:14:06Z</time>
      </trkpt>
      <trkpt lat="36.4495810" lon="-5.2739290">
        <ele>386.3</ele>
        <time>2019-08-28T11:14:07Z</time>
      </trkpt>
      <trkpt lat="36.4495530" lon="-5.2739150">
        <ele>386.4</ele>
        <time>2019-08-28T11:14:08Z</time>
      </trkpt>
      <trkpt lat="36.4495230" lon="-5.2739030">
        <ele>386.5</ele>
        <time>2019-08-28T11:14:09Z</time>
      </trkpt>
      <trkpt lat="36.4494910" lon="-5.2738920">
        <ele>386.6</ele>
        <time>2019-08-28T11:14:10Z</time>
      </trkpt>
      <trkpt lat="36.4494580" lon="-5.2738780">
        <ele>386.7</ele>
        <time>2019-08-28T11:14:11Z</time>
      </trkpt>
      <trkpt lat="36.4494260" lon="-5.2738600">
        <ele>386.8</ele>
        <time>2019-08-28T11:14:12Z</time>
      </trkpt>
      <trkpt lat="36.4493950" lon="-5.2738390">
        <ele>386.9</ele>
        <time>2019-08-28T11:14:13Z</time>
      </trkpt>
      <trkpt lat="36.4493660" lon="-5.2738170">
        <ele>387.0</ele>
        <time>2019-08-28T11:14:14Z</time>
      </trkpt>
      <trkpt lat="36.4493380" lon="-5.2737950">
        <ele>387.1</ele>
        <time>2019-08-28T11:14:15Z</time>
      </trkpt>
      <trkpt lat="36.4493100" lon="-5.2737730">
        <ele>387.2</ele>
        <time>2019-08-28T11:14:16Z</time>
      </trkpt>
      <trkpt lat="36.4492830" lon="-5.2737510">
        <ele>387.3</ele>
        <time>2019-08-28T11:14:17Z</time>
      </trkpt>
      <trkpt lat="36.4492560" lon="-5.2737300">
        <ele>387.4</ele>
        <time>2019-08-28T11:14:18Z</time>
      </trkpt>
      <trkpt lat="36.4492300" lon="-5.2737080">
        <ele>387.5</ele>
        <time>2019-08-28T11:14:19Z</time>
      </trkpt>
      <trkpt lat="36.4492020" lon="-5.2736870">
        <ele>387.7</ele>
        <time>2019-08-28T11:14:20Z</time>
      </trkpt>
      <trkpt lat="36.4491720" lon="-5.2736670">
        <ele>387.8</ele>
        <time>2019-08-28T11:14:21Z</time>
      </trkpt>
      <trkpt lat="36.4491410" lon="-5.2736510">
        <ele>387.9</ele>
        <time>2019-08-28T11:14:22Z</time>
      </trkpt>
      <trkpt lat="36.4491070" lon="-5.2736420">
        <ele>388.0</ele>
        <time>2019-08-28T11:14:23Z</time>
      </trkpt>
      <trkpt lat="36.4490730" lon="-5.2736380">
        <ele>388.1</ele>
        <time>2019-08-28T11:14:24Z</time>
      </trkpt>
      <trkpt lat="36.4490400" lon="-5.2736380">
        <ele>388.2</ele>
        <time>2019-08-28T11:14:25Z</time>
      </trkpt>
      <trkpt lat="36.4490090" lon="-5.2736390">
        <ele>388.3</ele>
        <time>2019-08-28T11:14:26Z</time>
      </trkpt>
      <trkpt lat="36.4489790" lon="-5.2736390">
        <ele>388.4</ele>
        <time>2019-08-28T11:14:27Z</time>
      </trkpt>
      <trkpt lat="36.4489490" lon="-5.2736390">
        <ele>388.5</ele>
        <time>2019-08-28T11:14:28Z</time>
      </trkpt>
      <trkpt lat="36.4489210" lon="-5.2736370">
        <ele>388.6</ele>
        <time>2019-08-28T11:14:29Z</time>
      </trkpt>
      <trkpt lat="36.4488940" lon="-5.2736320">
        <ele>388.8</ele>
        <time>2019-08-28T11:14:30Z</time>
      </trkpt>
      <trkpt lat="36.4488660" lon="-5.2736270">
        <ele>388.9</ele>
        <time>2019-08-28T11:14:31Z</time>
      </trkpt>
      <trkpt lat="36.4488390" lon="-5.2736200">
        <ele>389.0</ele>
        <time>2019-08-28T11:14:32Z</time>
      </trkpt>
      <trkpt lat="36.4488110" lon="-5.2736110">
        <ele>389.2</ele>
        <time>2019-08-28T11:14:33Z</time>
      </trkpt>
      <trkpt lat="36.4487830" lon="-5.2736010">
        <ele>389.3</ele>
        <time>2019-08-28T11:14:34Z</time>
      </trkpt>
      <trkpt lat="36.4487550" lon="-5.2735880">
        <ele>389.5</ele>
        <time>2019-08-28T11:14:35Z</time>
      </trkpt>
      <trkpt lat="36.4487270" lon="-5.2735730">
        <ele>389.7</ele>
        <time>2019-08-28T11:14:36Z</time>
      </trkpt>
      <trkpt lat="36.4486990" lon="-5.2735550">
        <ele>390.0</ele>
        <time>2019-08-28T11:14:37Z</time>
      </trkpt>
      <trkpt lat="36.4486730" lon="-5.2735340">
        <ele>390.2</ele>
        <time>2019-08-28T11:14:38Z</time>
      </trkpt>
      <trkpt lat="36.4486480" lon="-5.2735120">
        <ele>390.5</ele>
        <time>2019-08-28T11:14:39Z</time>
      </trkpt>
      <trkpt lat="36.4486250" lon="-5.2734890">
        <ele>390.7</ele>
        <time>2019-08-28T11:14:40Z</time>
      </trkpt>
      <trkpt lat="36.4486000" lon="-5.2734680">
        <ele>391.0</ele>
        <time>2019-08-28T11:14:41Z</time>
      </trkpt>
      <trkpt lat="36.4485740" lon="-5.2734490">
        <ele>391.1</ele>
        <time>2019-08-28T11:14:42Z</time>
      </trkpt>
      <trkpt lat="36.4485450" lon="-5.2734330">
        <ele>391.3</ele>
        <time>2019-08-28T11:14:43Z</time>
      </trkpt>
      <trkpt lat="36.4485160" lon="-5.2734190">
        <ele>391.4</ele>
        <time>2019-08-28T11:14:44Z</time>
      </trkpt>
      <trkpt lat="36.4484870" lon="-5.2734080">
        <ele>391.6</ele>
        <time>2019-08-28T11:14:45Z</time>
      </trkpt>
      <trkpt lat="36.4484570" lon="-5.2734000">
        <ele>391.7</ele>
        <time>2019-08-28T11:14:46Z</time>
      </trkpt>
      <trkpt lat="36.4484260" lon="-5.2733940">
        <ele>391.9</ele>
        <time>2019-08-28T11:14:47Z</time>
      </trkpt>
      <trkpt lat="36.4483950" lon="-5.2733880">
        <ele>392.1</ele>
        <time>2019-08-28T11:14:48Z</time>
      </trkpt>
      <trkpt lat="36.4483660" lon="-5.2733810">
        <ele>392.3</ele>
        <time>2019-08-28T11:14:49Z</time>
      </trkpt>
      <trkpt lat="36.4483380" lon="-5.2733730">
        <ele>392.4</ele>
        <time>2019-08-28T11:14:50Z</time>
      </trkpt>
      <trkpt lat="36.4483110" lon="-5.2733610">
        <ele>392.6</ele>
        <time>2019-08-28T11:14:51Z</time>
      </trkpt>
      <trkpt lat="36.4482850" lon="-5.2733450">
        <ele>392.8</ele>
        <time>2019-08-28T11:14:52Z</time>
      </trkpt>
      <trkpt lat="36.4482590" lon="-5.2733250">
        <ele>393.1</ele>
        <time>2019-08-28T11:14:53Z</time>
      </trkpt>
      <trkpt lat="36.4482350" lon="-5.2733020">
        <ele>393.3</ele>
        <time>2019-08-28T11:14:54Z</time>
      </trkpt>
      <trkpt lat="36.4482130" lon="-5.2732780">
        <ele>393.5</ele>
        <time>2019-08-28T11:14:55Z</time>
      </trkpt>
      <trkpt lat="36.4481920" lon="-5.2732520">
        <ele>393.8</ele>
        <time>2019-08-28T11:14:56Z</time>
      </trkpt>
      <trkpt lat="36.4481700" lon="-5.2732260">
        <ele>394.0</ele>
        <time>2019-08-28T11:14:57Z</time>
      </trkpt>
      <trkpt lat="36.4481480" lon="-5.2732000">
        <ele>394.2</ele>
        <time>2019-08-28T11:14:58Z</time>
      </trkpt>
      <trkpt lat="36.4481260" lon="-5.2731730">
        <ele>394.3</ele>
        <time>2019-08-28T11:14:59Z</time>
      </trkpt>
      <trkpt lat="36.4481050" lon="-5.2731470">
        <ele>394.5</ele>
        <time>2019-08-28T11:15:00Z</time>
      </trkpt>
      <trkpt lat="36.4480830" lon="-5.2731210">
        <ele>394.7</ele>
        <time>2019-08-28T11:15:01Z</time>
      </trkpt>
      <trkpt lat="36.4480600" lon="-5.2730960">
        <ele>394.9</ele>
        <time>2019-08-28T11:15:02Z</time>
      </trkpt>
      <trkpt lat="36.4480390" lon="-5.2730710">
        <ele>395.0</ele>
        <time>2019-08-28T11:15:03Z</time>
      </trkpt>
      <trkpt lat="36.4480170" lon="-5.2730460">
        <ele>395.1</ele>
        <time>2019-08-28T11:15:04Z</time>
      </trkpt>
      <trkpt lat="36.4479950" lon="-5.2730210">
        <ele>395.3</ele>
        <time>2019-08-28T11:15:05Z</time>
      </trkpt>
      <trkpt lat="36.4479730" lon="-5.2729970">
        <ele>395.4</ele>
        <time>2019-08-28T11:15:06Z</time>
      </trkpt>
      <trkpt lat="36.4479510" lon="-5.2729710">
        <ele>395.5</ele>
        <time>2019-08-28T11:15:07Z</time>
      </trkpt>
      <trkpt lat="36.4479290" lon="-5.2729460">
        <ele>395.7</ele>
        <time>2019-08-28T11:15:08Z</time>
      </trkpt>
      <trkpt lat="36.4479060" lon="-5.2729200">
        <ele>395.8</ele>
        <time>2019-08-28T11:15:09Z</time>
      </trkpt>
      <trkpt lat="36.4478820" lon="-5.2728940">
        <ele>395.9</ele>
        <time>2019-08-28T11:15:10Z</time>
      </trkpt>
      <trkpt lat="36.4478580" lon="-5.2728680">
        <ele>396.1</ele>
        <time>2019-08-28T11:15:11Z</time>
      </trkpt>
      <trkpt lat="36.4478340" lon="-5.2728420">
        <ele>396.2</ele>
        <time>2019-08-28T11:15:12Z</time>
      </trkpt>
      <trkpt lat="36.4478100" lon="-5.2728150">
        <ele>396.4</ele>
        <time>2019-08-28T11:15:13Z</time>
      </trkpt>
      <trkpt lat="36.4477850" lon="-5.2727880">
        <ele>396.5</ele>
        <time>2019-08-28T11:15:14Z</time>
      </trkpt>
      <trkpt lat="36.4477580" lon="-5.2727630">
        <ele>396.7</ele>
        <time>2019-08-28T11:15:15Z</time>
      </trkpt>
      <trkpt lat="36.4477290" lon="-5.2727390">
        <ele>396.9</ele>
        <time>2019-08-28T11:15:16Z</time>
      </trkpt>
      <trkpt lat="36.4476990" lon="-5.2727190">
        <ele>397.1</ele>
        <time>2019-08-28T11:15:17Z</time>
      </trkpt>
      <trkpt lat="36.4476670" lon="-5.2727050">
        <ele>397.4</ele>
        <time>2019-08-28T11:15:18Z</time>
      </trkpt>
      <trkpt lat="36.4476350" lon="-5.2727010">
        <ele>397.6</ele>
        <time>2019-08-28T11:15:19Z</time>
      </trkpt>
      <trkpt lat="36.4476060" lon="-5.2727070">
        <ele>397.7</ele>
        <time>2019-08-28T11:15:20Z</time>
      </trkpt>
      <trkpt lat="36.4475780" lon="-5.2727210">
        <ele>397.9</ele>
        <time>2019-08-28T11:15:21Z</time>
      </trkpt>
      <trkpt lat="36.4475530" lon="-5.2727420">
        <ele>398.0</ele>
        <time>2019-08-28T11:15:22Z</time>
      </trkpt>
      <trkpt lat="36.4475270" lon="-5.2727650">
        <ele>398.2</ele>
        <time>2019-08-28T11:15:23Z</time>
      </trkpt>
      <trkpt lat="36.4475030" lon="-5.2727900">
        <ele>398.3</ele>
        <time>2019-08-28T11:15:24Z</time>
      </trkpt>
      <trkpt lat="36.4474790" lon="-5.2728150">
        <ele>398.5</ele>
        <time>2019-08-28T11:15:25Z</time>
      </trkpt>
      <trkpt lat="36.4474540" lon="-5.2728400">
        <ele>398.7</ele>
        <time>2019-08-28T11:15:26Z</time>
      </trkpt>
      <trkpt lat="36.4474300" lon="-5.2728650">
        <ele>398.9</ele>
        <time>2019-08-28T11:15:27Z</time>
      </trkpt>
      <trkpt lat="36.4474050" lon="-5.2728900">
        <ele>399.1</ele>
        <time>2019-08-28T11:15:28Z</time>
      </trkpt>
      <trkpt lat="36.4473820" lon="-5.2729160">
        <ele>399.2</ele>
        <time>2019-08-28T11:15:29Z</time>
      </trkpt>
      <trkpt lat="36.4473580" lon="-5.2729410">
        <ele>399.4</ele>
        <time>2019-08-28T11:15:30Z</time>
      </trkpt>
      <trkpt lat="36.4473330" lon="-5.2729660">
        <ele>399.5</ele>
        <time>2019-08-28T11:15:31Z</time>
      </trkpt>
      <trkpt lat="36.4473080" lon="-5.2729900">
        <ele>399.7</ele>
        <time>2019-08-28T11:15:32Z</time>
      </trkpt>
      <trkpt lat="36.4472830" lon="-5.2730140">
        <ele>399.9</ele>
        <time>2019-08-28T11:15:33Z</time>
      </trkpt>
      <trkpt lat="36.4472570" lon="-5.2730360">
        <ele>400.1</ele>
        <time>2019-08-28T11:15:34Z</time>
      </trkpt>
      <trkpt lat="36.4472310" lon="-5.2730570">
        <ele>400.4</ele>
        <time>2019-08-28T11:15:35Z</time>
      </trkpt>
      <trkpt lat="36.4472030" lon="-5.2730760">
        <ele>400.7</ele>
        <time>2019-08-28T11:15:36Z</time>
      </trkpt>
      <trkpt lat="36.4471740" lon="-5.2730950">
        <ele>401.0</ele>
        <time>2019-08-28T11:15:37Z</time>
      </trkpt>
      <trkpt lat="36.4471460" lon="-5.2731130">
        <ele>401.3</ele>
        <time>2019-08-28T11:15:38Z</time>
      </trkpt>
      <trkpt lat="36.4471180" lon="-5.2731310">
        <ele>401.5</ele>
        <time>2019-08-28T11:15:39Z</time>
      </trkpt>
      <trkpt lat="36.4470900" lon="-5.2731480">
        <ele>401.7</ele>
        <time>2019-08-28T11:15:40Z</time>
      </trkpt>
      <trkpt lat="36.4470610" lon="-5.2731620">
        <ele>401.9</ele>
        <time>2019-08-28T11:15:41Z</time>
      </trkpt>
      <trkpt lat="36.4470300" lon="-5.2731730">
        <ele>402.1</ele>
        <time>2019-08-28T11:15:42Z</time>
      </trkpt>
      <trkpt lat="36.4469990" lon="-5.2731810">
        <ele>402.3</ele>
        <time>2019-08-28T11:15:43Z</time>
      </trkpt>
      <trkpt lat="36.4469690" lon="-5.2731860">
        <ele>402.5</ele>
        <time>2019-08-28T11:15:44Z</time>
      </trkpt>
      <trkpt lat="36.4469380" lon="-5.2731880">
        <ele>402.7</ele>
        <time>2019-08-28T11:15:45Z</time>
      </trkpt>
      <trkpt lat="36.4469080" lon="-5.2731850">
        <ele>403.0</ele>
        <time>2019-08-28T11:15:46Z</time>
      </trkpt>
      <trkpt lat="36.4468790" lon="-5.2731780">
        <ele>403.2</ele>
        <time>2019-08-28T11:15:47Z</time>
      </trkpt>
      <trkpt lat="36.4468480" lon="-5.2731670">
        <ele>403.5</ele>
        <time>2019-08-28T11:15:48Z</time>
      </trkpt>
      <trkpt lat="36.4468190" lon="-5.2731530">
        <ele>403.8</ele>
        <time>2019-08-28T11:15:49Z</time>
      </trkpt>
      <trkpt lat="36.4467900" lon="-5.2731370">
        <ele>404.1</ele>
        <time>2019-08-28T11:15:50Z</time>
      </trkpt>
      <trkpt lat="36.4467630" lon="-5.2731180">
        <ele>404.5</ele>
        <time>2019-08-28T11:15:51Z</time>
      </trkpt>
      <trkpt lat="36.4467360" lon="-5.2730970">
        <ele>405.4</ele>
        <time>2019-08-28T11:15:52Z</time>
      </trkpt>
      <trkpt lat="36.4467100" lon="-5.2730760">
        <ele>405.8</ele>
        <time>2019-08-28T11:15:53Z</time>
      </trkpt>
      <trkpt lat="36.4466850" lon="-5.2730560">
        <ele>406.2</ele>
        <time>2019-08-28T11:15:54Z</time>
      </trkpt>
      <trkpt lat="36.4466600" lon="-5.2730350">
        <ele>407.3</ele>
        <time>2019-08-28T11:15:55Z</time>
      </trkpt>
      <trkpt lat="36.4466350" lon="-5.2730100">
        <ele>407.8</ele>
        <time>2019-08-28T11:15:56Z</time>
      </trkpt>
      <trkpt lat="36.4466100" lon="-5.2729840">
        <ele>408.3</ele>
        <time>2019-08-28T11:15:57Z</time>
      </trkpt>
      <trkpt lat="36.4465850" lon="-5.2729570">
        <ele>408.9</ele>
        <time>2019-08-28T11:15:58Z</time>
      </trkpt>
      <trkpt lat="36.4465600" lon="-5.2729330">
        <ele>409.4</ele>
        <time>2019-08-28T11:15:59Z</time>
      </trkpt>
      <trkpt lat="36.4465360" lon="-5.2729090">
        <ele>409.9</ele>
        <time>2019-08-28T11:16:00Z</time>
      </trkpt>
      <trkpt lat="36.4465120" lon="-5.2728840">
        <ele>410.4</ele>
        <time>2019-08-28T11:16:01Z</time>
      </trkpt>
      <trkpt lat="36.4464870" lon="-5.2728600">
        <ele>410.9</ele>
        <time>2019-08-28T11:16:02Z</time>
      </trkpt>
      <trkpt lat="36.4464580" lon="-5.2728380">
        <ele>411.4</ele>
        <time>2019-08-28T11:16:03Z</time>
      </trkpt>
      <trkpt lat="36.4464270" lon="-5.2728170">
        <ele>412.0</ele>
        <time>2019-08-28T11:16:04Z</time>
      </trkpt>
      <trkpt lat="36.4463970" lon="-5.2727970">
        <ele>412.5</ele>
        <time>2019-08-28T11:16:05Z</time>
      </trkpt>
      <trkpt lat="36.4463690" lon="-5.2727790">
        <ele>413.0</ele>
        <time>2019-08-28T11:16:06Z</time>
      </trkpt>
      <trkpt lat="36.4463400" lon="-5.2727640">
        <ele>413.5</ele>
        <time>2019-08-28T11:16:07Z</time>
      </trkpt>
      <trkpt lat="36.4463100" lon="-5.2727480">
        <ele>414.0</ele>
        <time>2019-08-28T11:16:08Z</time>
      </trkpt>
      <trkpt lat="36.4462800" lon="-5.2727310">
        <ele>414.5</ele>
        <time>2019-08-28T11:16:09Z</time>
      </trkpt>
      <trkpt lat="36.4462480" lon="-5.2727150">
        <ele>414.5</ele>
        <time>2019-08-28T11:16:10Z</time>
      </trkpt>
      <trkpt lat="36.4462180" lon="-5.2727010">
        <ele>414.1</ele>
        <time>2019-08-28T11:16:11Z</time>
      </trkpt>
      <trkpt lat="36.4461850" lon="-5.2726880">
        <ele>413.8</ele>
        <time>2019-08-28T11:16:12Z</time>
      </trkpt>
      <trkpt lat="36.4461530" lon="-5.2726750">
        <ele>413.4</ele>
        <time>2019-08-28T11:16:13Z</time>
      </trkpt>
      <trkpt lat="36.4461200" lon="-5.2726610">
        <ele>413.1</ele>
        <time>2019-08-28T11:16:14Z</time>
      </trkpt>
      <trkpt lat="36.4460860" lon="-5.2726480">
        <ele>412.8</ele>
        <time>2019-08-28T11:16:15Z</time>
      </trkpt>
      <trkpt lat="36.4460520" lon="-5.2726340">
        <ele>412.5</ele>
        <time>2019-08-28T11:16:16Z</time>
      </trkpt>
      <trkpt lat="36.4460170" lon="-5.2726190">
        <ele>412.2</ele>
        <time>2019-08-28T11:16:17Z</time>
      </trkpt>
      <trkpt lat="36.4459810" lon="-5.2726040">
        <ele>411.8</ele>
        <time>2019-08-28T11:16:18Z</time>
      </trkpt>
      <trkpt lat="36.4459440" lon="-5.2725890">
        <ele>411.4</ele>
        <time>2019-08-28T11:16:19Z</time>
      </trkpt>
      <trkpt lat="36.4459070" lon="-5.2725740">
        <ele>411.2</ele>
        <time>2019-08-28T11:16:20Z</time>
      </trkpt>
      <trkpt lat="36.4458690" lon="-5.2725590">
        <ele>411.0</ele>
        <time>2019-08-28T11:16:21Z</time>
      </trkpt>
      <trkpt lat="36.4458300" lon="-5.2725430">
        <ele>410.8</ele>
        <time>2019-08-28T11:16:22Z</time>
      </trkpt>
      <trkpt lat="36.4457910" lon="-5.2725260">
        <ele>410.7</ele>
        <time>2019-08-28T11:16:23Z</time>
      </trkpt>
      <trkpt lat="36.4457520" lon="-5.2725090">
        <ele>410.6</ele>
        <time>2019-08-28T11:16:24Z</time>
      </trkpt>
      <trkpt lat="36.4457130" lon="-5.2724930">
        <ele>410.5</ele>
        <time>2019-08-28T11:16:25Z</time>
      </trkpt>
      <trkpt lat="36.4456730" lon="-5.2724760">
        <ele>410.4</ele>
        <time>2019-08-28T11:16:26Z</time>
      </trkpt>
      <trkpt lat="36.4456320" lon="-5.2724610">
        <ele>410.3</ele>
        <time>2019-08-28T11:16:27Z</time>
      </trkpt>
      <trkpt lat="36.4455910" lon="-5.2724460">
        <ele>410.2</ele>
        <time>2019-08-28T11:16:28Z</time>
      </trkpt>
      <trkpt lat="36.4455490" lon="-5.2724310">
        <ele>410.1</ele>
        <time>2019-08-28T11:16:29Z</time>
      </trkpt>
      <trkpt lat="36.4455070" lon="-5.2724150">
        <ele>410.0</ele>
        <time>2019-08-28T11:16:30Z</time>
      </trkpt>
      <trkpt lat="36.4454640" lon="-5.2723980">
        <ele>409.9</ele>
        <time>2019-08-28T11:16:31Z</time>
      </trkpt>
      <trkpt lat="36.4454240" lon="-5.2723780">
        <ele>409.8</ele>
        <time>2019-08-28T11:16:32Z</time>
      </trkpt>
      <trkpt lat="36.4453890" lon="-5.2723530">
        <ele>409.8</ele>
        <time>2019-08-28T11:16:33Z</time>
      </trkpt>
      <trkpt lat="36.4453580" lon="-5.2723250">
        <ele>410.4</ele>
        <time>2019-08-28T11:16:34Z</time>
      </trkpt>
      <trkpt lat="36.4453290" lon="-5.2722920">
        <ele>410.9</ele>
        <time>2019-08-28T11:16:35Z</time>
      </trkpt>
      <trkpt lat="36.4453020" lon="-5.2722560">
        <ele>411.4</ele>
        <time>2019-08-28T11:16:36Z</time>
      </trkpt>
      <trkpt lat="36.4452780" lon="-5.2722190">
        <ele>411.9</ele>
        <time>2019-08-28T11:16:37Z</time>
      </trkpt>
      <trkpt lat="36.4452570" lon="-5.2721780">
        <ele>412.3</ele>
        <time>2019-08-28T11:16:38Z</time>
      </trkpt>
      <trkpt lat="36.4452410" lon="-5.2721340">
        <ele>412.8</ele>
        <time>2019-08-28T11:16:39Z</time>
      </trkpt>
      <trkpt lat="36.4452300" lon="-5.2720870">
        <ele>413.3</ele>
        <time>2019-08-28T11:16:40Z</time>
      </trkpt>
      <trkpt lat="36.4452220" lon="-5.2720380">
        <ele>413.8</ele>
        <time>2019-08-28T11:16:41Z</time>
      </trkpt>
      <trkpt lat="36.4452140" lon="-5.2719880">
        <ele>414.3</ele>
        <time>2019-08-28T11:16:42Z</time>
      </trkpt>
      <trkpt lat="36.4452060" lon="-5.2719370">
        <ele>414.8</ele>
        <time>2019-08-28T11:16:43Z</time>
      </trkpt>
      <trkpt lat="36.4451970" lon="-5.2718860">
        <ele>415.4</ele>
        <time>2019-08-28T11:16:44Z</time>
      </trkpt>
      <trkpt lat="36.4451880" lon="-5.2718350">
        <ele>415.8</ele>
        <time>2019-08-28T11:16:45Z</time>
      </trkpt>
      <trkpt lat="36.4451800" lon="-5.2717830">
        <ele>416.3</ele>
        <time>2019-08-28T11:16:46Z</time>
      </trkpt>
      <trkpt lat="36.4451710" lon="-5.2717320">
        <ele>416.7</ele>
        <time>2019-08-28T11:16:47Z</time>
      </trkpt>
      <trkpt lat="36.4451620" lon="-5.2716800">
        <ele>417.2</ele>
        <time>2019-08-28T11:16:48Z</time>
      </trkpt>
      <trkpt lat="36.4451510" lon="-5.2716260">
        <ele>417.7</ele>
        <time>2019-08-28T11:16:49Z</time>
      </trkpt>
      <trkpt lat="36.4451410" lon="-5.2715720">
        <ele>418.2</ele>
        <time>2019-08-28T11:16:50Z</time>
      </trkpt>
      <trkpt lat="36.4451300" lon="-5.2715180">
        <ele>418.8</ele>
        <time>2019-08-28T11:16:51Z</time>
      </trkpt>
      <trkpt lat="36.4451200" lon="-5.2714630">
        <ele>419.4</ele>
        <time>2019-08-28T11:16:52Z</time>
      </trkpt>
      <trkpt lat="36.4451110" lon="-5.2714080">
        <ele>420.0</ele>
        <time>2019-08-28T11:16:53Z</time>
      </trkpt>
      <trkpt lat="36.4451040" lon="-5.2713520">
        <ele>420.6</ele>
        <time>2019-08-28T11:16:54Z</time>
      </trkpt>
      <trkpt lat="36.4451010" lon="-5.2712950">
        <ele>421.2</ele>
        <time>2019-08-28T11:16:55Z</time>
      </trkpt>
      <trkpt lat="36.4451050" lon="-5.2712380">
        <ele>421.7</ele>
        <time>2019-08-28T11:16:56Z</time>
      </trkpt>
      <trkpt lat="36.4451160" lon="-5.2711820">
        <ele>422.1</ele>
        <time>2019-08-28T11:16:57Z</time>
      </trkpt>
      <trkpt lat="36.4451310" lon="-5.2711280">
        <ele>422.7</ele>
        <time>2019-08-28T11:16:58Z</time>
      </trkpt>
      <trkpt lat="36.4451480" lon="-5.2710770">
        <ele>423.1</ele>
        <time>2019-08-28T11:16:59Z</time>
      </trkpt>
      <trkpt lat="36.4451690" lon="-5.2710300">
        <ele>423.6</ele>
        <time>2019-08-28T11:17:00Z</time>
      </trkpt>
      <trkpt lat="36.4451970" lon="-5.2709860">
        <ele>424.1</ele>
        <time>2019-08-28T11:17:01Z</time>
      </trkpt>
      <trkpt lat="36.4452330" lon="-5.2709480">
        <ele>424.6</ele>
        <time>2019-08-28T11:17:02Z</time>
      </trkpt>
      <trkpt lat="36.4452750" lon="-5.2709130">
        <ele>425.2</ele>
        <time>2019-08-28T11:17:03Z</time>
      </trkpt>
      <trkpt lat="36.4453220" lon="-5.2708830">
        <ele>425.8</ele>
        <time>2019-08-28T11:17:04Z</time>
      </trkpt>
      <trkpt lat="36.4453700" lon="-5.2708560">
        <ele>426.4</ele>
        <time>2019-08-28T11:17:05Z</time>
      </trkpt>
      <trkpt lat="36.4454190" lon="-5.2708300">
        <ele>427.0</ele>
        <time>2019-08-28T11:17:06Z</time>
      </trkpt>
      <trkpt lat="36.4454690" lon="-5.2708010">
        <ele>427.7</ele>
        <time>2019-08-28T11:17:07Z</time>
      </trkpt>
      <trkpt lat="36.4455180" lon="-5.2707710">
        <ele>428.4</ele>
        <time>2019-08-28T11:17:08Z</time>
      </trkpt>
      <trkpt lat="36.4455690" lon="-5.2707380">
        <ele>429.2</ele>
        <time>2019-08-28T11:17:09Z</time>
      </trkpt>
      <trkpt lat="36.4456210" lon="-5.2707020">
        <ele>430.0</ele>
        <time>2019-08-28T11:17:10Z</time>
      </trkpt>
      <trkpt lat="36.4456710" lon="-5.2706610">
        <ele>430.9</ele>
        <time>2019-08-28T11:17:11Z</time>
      </trkpt>
      <trkpt lat="36.4457200" lon="-5.2706100">
        <ele>432.0</ele>
        <time>2019-08-28T11:17:12Z</time>
      </trkpt>
      <trkpt lat="36.4457580" lon="-5.2705430">
        <ele>433.0</ele>
        <time>2019-08-28T11:17:13Z</time>
      </trkpt>
      <trkpt lat="36.4457830" lon="-5.2704640">
        <ele>434.1</ele>
        <time>2019-08-28T11:17:14Z</time>
      </trkpt>
      <trkpt lat="36.4457770" lon="-5.2703780">
        <ele>435.2</ele>
        <time>2019-08-28T11:17:15Z</time>
      </trkpt>
      <trkpt lat="36.4457510" lon="-5.2703000">
        <ele>437.3</ele>
        <time>2019-08-28T11:17:16Z</time>
      </trkpt>
      <trkpt lat="36.4457060" lon="-5.2702410">
        <ele>437.1</ele>
        <time>2019-08-28T11:17:17Z</time>
      </trkpt>
      <trkpt lat="36.4456600" lon="-5.2702040">
        <ele>437.0</ele>
        <time>2019-08-28T11:17:18Z</time>
      </trkpt>
      <trkpt lat="36.4456160" lon="-5.2701840">
        <ele>436.9</ele>
        <time>2019-08-28T11:17:19Z</time>
      </trkpt>
      <trkpt lat="36.4455770" lon="-5.2701700">
        <ele>436.8</ele>
        <time>2019-08-28T11:17:20Z</time>
      </trkpt>
      <trkpt lat="36.4455430" lon="-5.2701590">
        <ele>436.8</ele>
        <time>2019-08-28T11:17:21Z</time>
      </trkpt>
      <trkpt lat="36.4455100" lon="-5.2701530">
        <ele>436.7</ele>
        <time>2019-08-28T11:17:22Z</time>
      </trkpt>
      <trkpt lat="36.4454780" lon="-5.2701480">
        <ele>436.6</ele>
        <time>2019-08-28T11:17:23Z</time>
      </trkpt>
      <trkpt lat="36.4454460" lon="-5.2701440">
        <ele>436.6</ele>
        <time>2019-08-28T11:17:24Z</time>
      </trkpt>
      <trkpt lat="36.4454150" lon="-5.2701390">
        <ele>436.5</ele>
        <time>2019-08-28T11:17:25Z</time>
      </trkpt>
      <trkpt lat="36.4453850" lon="-5.2701330">
        <ele>436.5</ele>
        <time>2019-08-28T11:17:26Z</time>
      </trkpt>
      <trkpt lat="36.4453560" lon="-5.2701260">
        <ele>436.4</ele>
        <time>2019-08-28T11:17:27Z</time>
      </trkpt>
      <trkpt lat="36.4453270" lon="-5.2701170">
        <ele>436.3</ele>
        <time>2019-08-28T11:17:28Z</time>
      </trkpt>
      <trkpt lat="36.4452960" lon="-5.2701070">
        <ele>436.3</ele>
        <time>2019-08-28T11:17:29Z</time>
      </trkpt>
      <trkpt lat="36.4452660" lon="-5.2700960">
        <ele>436.2</ele>
        <time>2019-08-28T11:17:30Z</time>
      </trkpt>
      <trkpt lat="36.4452350" lon="-5.2700840">
        <ele>436.1</ele>
        <time>2019-08-28T11:17:31Z</time>
      </trkpt>
      <trkpt lat="36.4452040" lon="-5.2700710">
        <ele>436.0</ele>
        <time>2019-08-28T11:17:32Z</time>
      </trkpt>
      <trkpt lat="36.4451740" lon="-5.2700570">
        <ele>436.0</ele>
        <time>2019-08-28T11:17:33Z</time>
      </trkpt>
      <trkpt lat="36.4451440" lon="-5.2700440">
        <ele>435.9</ele>
        <time>2019-08-28T11:17:34Z</time>
      </trkpt>
      <trkpt lat="36.4451140" lon="-5.2700300">
        <ele>435.8</ele>
        <time>2019-08-28T11:17:35Z</time>
      </trkpt>
      <trkpt lat="36.4450850" lon="-5.2700160">
        <ele>435.7</ele>
        <time>2019-08-28T11:17:36Z</time>
      </trkpt>
      <trkpt lat="36.4450540" lon="-5.2700040">
        <ele>435.7</ele>
        <time>2019-08-28T11:17:37Z</time>
      </trkpt>
      <trkpt lat="36.4450240" lon="-5.2699900">
        <ele>435.6</ele>
        <time>2019-08-28T11:17:38Z</time>
      </trkpt>
      <trkpt lat="36.4449950" lon="-5.2699750">
        <ele>435.5</ele>
        <time>2019-08-28T11:17:39Z</time>
      </trkpt>
      <trkpt lat="36.4449650" lon="-5.2699580">
        <ele>435.3</ele>
        <time>2019-08-28T11:17:40Z</time>
      </trkpt>
      <trkpt lat="36.4449360" lon="-5.2699400">
        <ele>435.1</ele>
        <time>2019-08-28T11:17:41Z</time>
      </trkpt>
      <trkpt lat="36.4449070" lon="-5.2699210">
        <ele>435.0</ele>
        <time>2019-08-28T11:17:42Z</time>
      </trkpt>
      <trkpt lat="36.4448800" lon="-5.2699000">
        <ele>434.8</ele>
        <time>2019-08-28T11:17:43Z</time>
      </trkpt>
      <trkpt lat="36.4448530" lon="-5.2698780">
        <ele>434.6</ele>
        <time>2019-08-28T11:17:44Z</time>
      </trkpt>
      <trkpt lat="36.4448270" lon="-5.2698530">
        <ele>434.4</ele>
        <time>2019-08-28T11:17:45Z</time>
      </trkpt>
      <trkpt lat="36.4448020" lon="-5.2698270">
        <ele>434.2</ele>
        <time>2019-08-28T11:17:46Z</time>
      </trkpt>
      <trkpt lat="36.4447800" lon="-5.2698000">
        <ele>433.9</ele>
        <time>2019-08-28T11:17:47Z</time>
      </trkpt>
      <trkpt lat="36.4447580" lon="-5.2697710">
        <ele>433.7</ele>
        <time>2019-08-28T11:17:48Z</time>
      </trkpt>
      <trkpt lat="36.4447360" lon="-5.2697410">
        <ele>433.4</ele>
        <time>2019-08-28T11:17:49Z</time>
      </trkpt>
      <trkpt lat="36.4447140" lon="-5.2697110">
        <ele>433.1</ele>
        <time>2019-08-28T11:17:50Z</time>
      </trkpt>
      <trkpt lat="36.4446910" lon="-5.2696810">
        <ele>432.7</ele>
        <time>2019-08-28T11:17:51Z</time>
      </trkpt>
      <trkpt lat="36.4446680" lon="-5.2696520">
        <ele>432.4</ele>
        <time>2019-08-28T11:17:52Z</time>
      </trkpt>
      <trkpt lat="36.4446430" lon="-5.2696230">
        <ele>432.1</ele>
        <time>2019-08-28T11:17:53Z</time>
      </trkpt>
      <trkpt lat="36.4446180" lon="-5.2695940">
        <ele>431.8</ele>
        <time>2019-08-28T11:17:54Z</time>
      </trkpt>
      <trkpt lat="36.4445930" lon="-5.2695650">
        <ele>431.5</ele>
        <time>2019-08-28T11:17:55Z</time>
      </trkpt>
      <trkpt lat="36.4445670" lon="-5.2695380">
        <ele>431.2</ele>
        <time>2019-08-28T11:17:56Z</time>
      </trkpt>
      <trkpt lat="36.4445400" lon="-5.2695130">
        <ele>430.9</ele>
        <time>2019-08-28T11:17:57Z</time>
      </trkpt>
      <trkpt lat="36.4445140" lon="-5.2694920">
        <ele>430.6</ele>
        <time>2019-08-28T11:17:58Z</time>
      </trkpt>
      <trkpt lat="36.4444880" lon="-5.2694730">
        <ele>430.4</ele>
        <time>2019-08-28T11:17:59Z</time>
      </trkpt>
      <trkpt lat="36.4444640" lon="-5.2694530">
        <ele>430.1</ele>
        <time>2019-08-28T11:18:00Z</time>
      </trkpt>
      <trkpt lat="36.4444400" lon="-5.2694330">
        <ele>430.6</ele>
        <time>2019-08-28T11:18:01Z</time>
      </trkpt>
      <trkpt lat="36.4444180" lon="-5.2694140">
        <ele>430.8</ele>
        <time>2019-08-28T11:18:02Z</time>
      </trkpt>
      <trkpt lat="36.4443960" lon="-5.2693960">
        <ele>430.9</ele>
        <time>2019-08-28T11:18:03Z</time>
      </trkpt>
      <trkpt lat="36.4443780" lon="-5.2693790">
        <ele>431.0</ele>
        <time>2019-08-28T11:18:04Z</time>
      </trkpt>
      <trkpt lat="36.4443650" lon="-5.2693620">
        <ele>431.1</ele>
        <time>2019-08-28T11:18:05Z</time>
      </trkpt>
      <trkpt lat="36.4443580" lon="-5.2693460">
        <ele>431.2</ele>
        <time>2019-08-28T11:18:06Z</time>
      </trkpt>
      <trkpt lat="36.4443560" lon="-5.2693320">
        <ele>431.2</ele>
        <time>2019-08-28T11:18:07Z</time>
      </trkpt>
      <trkpt lat="36.4443690" lon="-5.2693200">
        <ele>431.3</ele>
        <time>2019-08-28T11:18:08Z</time>
      </trkpt>
      <trkpt lat="36.4443900" lon="-5.2693180">
        <ele>431.4</ele>
        <time>2019-08-28T11:18:09Z</time>
      </trkpt>
      <trkpt lat="36.4444190" lon="-5.2693250">
        <ele>431.5</ele>
        <time>2019-08-28T11:18:10Z</time>
      </trkpt>
      <trkpt lat="36.4444450" lon="-5.2693460">
        <ele>431.7</ele>
        <time>2019-08-28T11:18:11Z</time>
      </trkpt>
      <trkpt lat="36.4444710" lon="-5.2693720">
        <ele>430.6</ele>
        <time>2019-08-28T11:18:12Z</time>
      </trkpt>
      <trkpt lat="36.4444980" lon="-5.2693990">
        <ele>430.4</ele>
        <time>2019-08-28T11:18:13Z</time>
      </trkpt>
      <trkpt lat="36.4445250" lon="-5.2694250">
        <ele>430.1</ele>
        <time>2019-08-28T11:18:14Z</time>
      </trkpt>
      <trkpt lat="36.4445520" lon="-5.2694510">
        <ele>430.7</ele>
        <time>2019-08-28T11:18:15Z</time>
      </trkpt>
      <trkpt lat="36.4445790" lon="-5.2694790">
        <ele>431.0</ele>
        <time>2019-08-28T11:18:16Z</time>
      </trkpt>
      <trkpt lat="36.4446040" lon="-5.2695080">
        <ele>431.3</ele>
        <time>2019-08-28T11:18:17Z</time>
      </trkpt>
      <trkpt lat="36.4446260" lon="-5.2695350">
        <ele>431.6</ele>
        <time>2019-08-28T11:18:18Z</time>
      </trkpt>
      <trkpt lat="36.4446440" lon="-5.2695590">
        <ele>431.8</ele>
        <time>2019-08-28T11:18:19Z</time>
      </trkpt>
      <trkpt lat="36.4446620" lon="-5.2695810">
        <ele>432.0</ele>
        <time>2019-08-28T11:18:20Z</time>
      </trkpt>
      <trkpt lat="36.4446790" lon="-5.2696000">
        <ele>432.2</ele>
        <time>2019-08-28T11:18:21Z</time>
      </trkpt>
      <trkpt lat="36.4446950" lon="-5.2696160">
        <ele>432.3</ele>
        <time>2019-08-28T11:18:22Z</time>
      </trkpt>
      <trkpt lat="36.4447070" lon="-5.2696280">
        <ele>432.5</ele>
        <time>2019-08-28T11:18:23Z</time>
      </trkpt>
      <trkpt lat="36.4447140" lon="-5.2696360">
        <ele>432.6</ele>
        <time>2019-08-28T11:18:24Z</time>
      </trkpt>
      <trkpt lat="36.4447170" lon="-5.2696400">
        <ele>432.6</ele>
        <time>2019-08-28T11:18:25Z</time>
      </trkpt>
      <trkpt lat="36.4447170" lon="-5.2696430">
        <ele>432.6</ele>
        <time>2019-08-28T11:18:26Z</time>
      </trkpt>
      <trkpt lat="36.4447170" lon="-5.2696450">
        <ele>432.6</ele>
        <time>2019-08-28T11:18:27Z</time>
      </trkpt>
      <trkpt lat="36.4447170" lon="-5.2696460">
        <ele>432.6</ele>
        <time>2019-08-28T11:18:28Z</time>
      </trkpt>
      <trkpt lat="36.4447190" lon="-5.2696480">
        <ele>432.7</ele>
        <time>2019-08-28T11:18:29Z</time>
      </trkpt>
      <trkpt lat="36.4447220" lon="-5.2696480">
        <ele>432.7</ele>
        <time>2019-08-28T11:18:30Z</time>
      </trkpt>
      <trkpt lat="36.4447240" lon="-5.2696490">
        <ele>432.7</ele>
        <time>2019-08-28T11:18:31Z</time>
      </trkpt>
      <trkpt lat="36.4447250" lon="-5.2696490">
        <ele>432.7</ele>
        <time>2019-08-28T11:18:32Z</time>
      </trkpt>
      <trkpt lat="36.4447520" lon="-5.2696390">
        <ele>433.0</ele>
        <time>2019-08-28T11:19:21Z</time>
      </trkpt>
      <trkpt lat="36.4447550" lon="-5.2696430">
        <ele>433.0</ele>
        <time>2019-08-28T11:19:22Z</time>
      </trkpt>
      <trkpt lat="36.4447570" lon="-5.2696480">
        <ele>433.0</ele>
        <time>2019-08-28T11:19:23Z</time>
      </trkpt>
      <trkpt lat="36.4447590" lon="-5.2696530">
        <ele>433.1</ele>
        <time>2019-08-28T11:19:24Z</time>
      </trkpt>
      <trkpt lat="36.4447630" lon="-5.2696590">
        <ele>433.1</ele>
        <time>2019-08-28T11:19:25Z</time>
      </trkpt>
      <trkpt lat="36.4447660" lon="-5.2696650">
        <ele>433.2</ele>
        <time>2019-08-28T11:19:26Z</time>
      </trkpt>
      <trkpt lat="36.4447700" lon="-5.2696720">
        <ele>433.3</ele>
        <time>2019-08-28T11:19:27Z</time>
      </trkpt>
      <trkpt lat="36.4447740" lon="-5.2696790">
        <ele>433.3</ele>
        <time>2019-08-28T11:19:28Z</time>
      </trkpt>
      <trkpt lat="36.4447780" lon="-5.2696860">
        <ele>433.4</ele>
        <time>2019-08-28T11:19:29Z</time>
      </trkpt>
      <trkpt lat="36.4447820" lon="-5.2696910">
        <ele>433.4</ele>
        <time>2019-08-28T11:19:30Z</time>
      </trkpt>
      <trkpt lat="36.4447870" lon="-5.2696950">
        <ele>433.5</ele>
        <time>2019-08-28T11:19:31Z</time>
      </trkpt>
      <trkpt lat="36.4447920" lon="-5.2697000">
        <ele>433.5</ele>
        <time>2019-08-28T11:19:32Z</time>
      </trkpt>
      <trkpt lat="36.4447970" lon="-5.2697040">
        <ele>433.6</ele>
        <time>2019-08-28T11:19:33Z</time>
      </trkpt>
      <trkpt lat="36.4448040" lon="-5.2697070">
        <ele>433.7</ele>
        <time>2019-08-28T11:19:34Z</time>
      </trkpt>
      <trkpt lat="36.4448110" lon="-5.2697070">
        <ele>433.7</ele>
        <time>2019-08-28T11:19:35Z</time>
      </trkpt>
      <trkpt lat="36.4448170" lon="-5.2697060">
        <ele>433.8</ele>
        <time>2019-08-28T11:19:36Z</time>
      </trkpt>
      <trkpt lat="36.4448210" lon="-5.2697050">
        <ele>433.8</ele>
        <time>2019-08-28T11:19:37Z</time>
      </trkpt>
      <trkpt lat="36.4448220" lon="-5.2697060">
        <ele>433.8</ele>
        <time>2019-08-28T11:19:38Z</time>
      </trkpt>
      <trkpt lat="36.4448220" lon="-5.2697070">
        <ele>433.8</ele>
        <time>2019-08-28T11:19:39Z</time>
      </trkpt>
      <trkpt lat="36.4448220" lon="-5.2697090">
        <ele>433.8</ele>
        <time>2019-08-28T11:19:40Z</time>
      </trkpt>
      <trkpt lat="36.4448210" lon="-5.2697110">
        <ele>433.8</ele>
        <time>2019-08-28T11:19:41Z</time>
      </trkpt>
      <trkpt lat="36.4449200" lon="-5.2697780">
        <ele>434.6</ele>
        <time>2019-08-28T11:22:25Z</time>
      </trkpt>
      <trkpt lat="36.4449220" lon="-5.2697780">
        <ele>434.6</ele>
        <time>2019-08-28T11:22:26Z</time>
      </trkpt>
      <trkpt lat="36.4449230" lon="-5.2697790">
        <ele>434.6</ele>
        <time>2019-08-28T11:22:27Z</time>
      </trkpt>
      <trkpt lat="36.4449220" lon="-5.2697800">
        <ele>434.6</ele>
        <time>2019-08-28T11:22:28Z</time>
      </trkpt>
      <trkpt lat="36.4449190" lon="-5.2697820">
        <ele>434.6</ele>
        <time>2019-08-28T11:22:29Z</time>
      </trkpt>
      <trkpt lat="36.4449010" lon="-5.2698140">
        <ele>434.8</ele>
        <time>2019-08-28T11:22:44Z</time>
      </trkpt>
      <trkpt lat="36.4449050" lon="-5.2698110">
        <ele>434.8</ele>
        <time>2019-08-28T11:22:45Z</time>
      </trkpt>
      <trkpt lat="36.4449070" lon="-5.2698100">
        <ele>434.8</ele>
        <time>2019-08-28T11:22:46Z</time>
      </trkpt>
      <trkpt lat="36.4449090" lon="-5.2698110">
        <ele>434.8</ele>
        <time>2019-08-28T11:22:47Z</time>
      </trkpt>
      <trkpt lat="36.4449090" lon="-5.2698100">
        <ele>434.8</ele>
        <time>2019-08-28T11:22:48Z</time>
      </trkpt>
      <trkpt lat="36.4444130" lon="-5.2692840">
        <ele>432.7</ele>
        <time>2019-08-28T13:40:12Z</time>
      </trkpt>
      <trkpt lat="36.4443930" lon="-5.2692770">
        <ele>433.0</ele>
        <time>2019-08-28T13:40:13Z</time>
      </trkpt>
      <trkpt lat="36.4443690" lon="-5.2692670">
        <ele>433.3</ele>
        <time>2019-08-28T13:40:14Z</time>
      </trkpt>
      <trkpt lat="36.4443450" lon="-5.2692520">
        <ele>433.6</ele>
        <time>2019-08-28T13:40:15Z</time>
      </trkpt>
      <trkpt lat="36.4443230" lon="-5.2692340">
        <ele>433.9</ele>
        <time>2019-08-28T13:40:16Z</time>
      </trkpt>
      <trkpt lat="36.4443040" lon="-5.2692120">
        <ele>434.2</ele>
        <time>2019-08-28T13:40:17Z</time>
      </trkpt>
      <trkpt lat="36.4442880" lon="-5.2691870">
        <ele>434.5</ele>
        <time>2019-08-28T13:40:18Z</time>
      </trkpt>
      <trkpt lat="36.4442730" lon="-5.2691600">
        <ele>434.8</ele>
        <time>2019-08-28T13:40:19Z</time>
      </trkpt>
      <trkpt lat="36.4442590" lon="-5.2691290">
        <ele>435.1</ele>
        <time>2019-08-28T13:40:20Z</time>
      </trkpt>
      <trkpt lat="36.4442470" lon="-5.2690940">
        <ele>435.5</ele>
        <time>2019-08-28T13:40:21Z</time>
      </trkpt>
      <trkpt lat="36.4442380" lon="-5.2690520">
        <ele>436.0</ele>
        <time>2019-08-28T13:40:22Z</time>
      </trkpt>
      <trkpt lat="36.4442320" lon="-5.2690050">
        <ele>436.0</ele>
        <time>2019-08-28T13:40:23Z</time>
      </trkpt>
      <trkpt lat="36.4442280" lon="-5.2689530">
        <ele>436.1</ele>
        <time>2019-08-28T13:40:24Z</time>
      </trkpt>
      <trkpt lat="36.4442270" lon="-5.2688960">
        <ele>436.1</ele>
        <time>2019-08-28T13:40:25Z</time>
      </trkpt>
      <trkpt lat="36.4442290" lon="-5.2688310">
        <ele>436.1</ele>
        <time>2019-08-28T13:40:26Z</time>
      </trkpt>
      <trkpt lat="36.4442350" lon="-5.2687610">
        <ele>436.2</ele>
        <time>2019-08-28T13:40:27Z</time>
      </trkpt>
      <trkpt lat="36.4442430" lon="-5.2686860">
        <ele>436.2</ele>
        <time>2019-08-28T13:40:28Z</time>
      </trkpt>
      <trkpt lat="36.4442520" lon="-5.2686030">
        <ele>436.2</ele>
        <time>2019-08-28T13:40:29Z</time>
      </trkpt>
      <trkpt lat="36.4442620" lon="-5.2685160">
        <ele>436.2</ele>
        <time>2019-08-28T13:40:30Z</time>
      </trkpt>
      <trkpt lat="36.4442710" lon="-5.2684240">
        <ele>436.1</ele>
        <time>2019-08-28T13:40:31Z</time>
      </trkpt>
      <trkpt lat="36.4442820" lon="-5.2683310">
        <ele>436.0</ele>
        <time>2019-08-28T13:40:32Z</time>
      </trkpt>
      <trkpt lat="36.4442930" lon="-5.2682380">
        <ele>435.8</ele>
        <time>2019-08-28T13:40:33Z</time>
      </trkpt>
      <trkpt lat="36.4443060" lon="-5.2681460">
        <ele>435.5</ele>
        <time>2019-08-28T13:40:34Z</time>
      </trkpt>
      <trkpt lat="36.4443160" lon="-5.2680560">
        <ele>435.3</ele>
        <time>2019-08-28T13:40:35Z</time>
      </trkpt>
      <trkpt lat="36.4443250" lon="-5.2679690">
        <ele>435.0</ele>
        <time>2019-08-28T13:40:36Z</time>
      </trkpt>
      <trkpt lat="36.4443330" lon="-5.2678870">
        <ele>435.1</ele>
        <time>2019-08-28T13:40:37Z</time>
      </trkpt>
      <trkpt lat="36.4443410" lon="-5.2678100">
        <ele>435.1</ele>
        <time>2019-08-28T13:40:38Z</time>
      </trkpt>
      <trkpt lat="36.4443510" lon="-5.2677370">
        <ele>435.1</ele>
        <time>2019-08-28T13:40:39Z</time>
      </trkpt>
      <trkpt lat="36.4443600" lon="-5.2676660">
        <ele>435.1</ele>
        <time>2019-08-28T13:40:40Z</time>
      </trkpt>
      <trkpt lat="36.4443720" lon="-5.2675960">
        <ele>435.0</ele>
        <time>2019-08-28T13:40:41Z</time>
      </trkpt>
      <trkpt lat="36.4443850" lon="-5.2675270">
        <ele>434.9</ele>
        <time>2019-08-28T13:40:42Z</time>
      </trkpt>
      <trkpt lat="36.4444030" lon="-5.2674610">
        <ele>434.8</ele>
        <time>2019-08-28T13:40:43Z</time>
      </trkpt>
      <trkpt lat="36.4444250" lon="-5.2673980">
        <ele>434.6</ele>
        <time>2019-08-28T13:40:44Z</time>
      </trkpt>
      <trkpt lat="36.4444510" lon="-5.2673380">
        <ele>434.4</ele>
        <time>2019-08-28T13:40:45Z</time>
      </trkpt>
      <trkpt lat="36.4444810" lon="-5.2672840">
        <ele>434.0</ele>
        <time>2019-08-28T13:40:46Z</time>
      </trkpt>
      <trkpt lat="36.4445160" lon="-5.2672330">
        <ele>433.6</ele>
        <time>2019-08-28T13:40:47Z</time>
      </trkpt>
      <trkpt lat="36.4445570" lon="-5.2671870">
        <ele>433.2</ele>
        <time>2019-08-28T13:40:48Z</time>
      </trkpt>
      <trkpt lat="36.4446080" lon="-5.2671440">
        <ele>432.8</ele>
        <time>2019-08-28T13:40:49Z</time>
      </trkpt>
      <trkpt lat="36.4446650" lon="-5.2671070">
        <ele>432.4</ele>
        <time>2019-08-28T13:40:50Z</time>
      </trkpt>
      <trkpt lat="36.4447280" lon="-5.2670740">
        <ele>431.8</ele>
        <time>2019-08-28T13:40:51Z</time>
      </trkpt>
      <trkpt lat="36.4447940" lon="-5.2670430">
        <ele>431.4</ele>
        <time>2019-08-28T13:40:52Z</time>
      </trkpt>
      <trkpt lat="36.4448640" lon="-5.2670110">
        <ele>430.9</ele>
        <time>2019-08-28T13:40:53Z</time>
      </trkpt>
      <trkpt lat="36.4449390" lon="-5.2669770">
        <ele>430.3</ele>
        <time>2019-08-28T13:40:54Z</time>
      </trkpt>
      <trkpt lat="36.4450180" lon="-5.2669410">
        <ele>429.7</ele>
        <time>2019-08-28T13:40:55Z</time>
      </trkpt>
      <trkpt lat="36.4451000" lon="-5.2669040">
        <ele>429.1</ele>
        <time>2019-08-28T13:40:56Z</time>
      </trkpt>
      <trkpt lat="36.4451910" lon="-5.2668660">
        <ele>428.4</ele>
        <time>2019-08-28T13:40:57Z</time>
      </trkpt>
      <trkpt lat="36.4452850" lon="-5.2668270">
        <ele>427.5</ele>
        <time>2019-08-28T13:40:58Z</time>
      </trkpt>
      <trkpt lat="36.4453850" lon="-5.2667910">
        <ele>426.5</ele>
        <time>2019-08-28T13:40:59Z</time>
      </trkpt>
      <trkpt lat="36.4454840" lon="-5.2667620">
        <ele>425.5</ele>
        <time>2019-08-28T13:41:00Z</time>
      </trkpt>
      <trkpt lat="36.4455870" lon="-5.2667430">
        <ele>424.8</ele>
        <time>2019-08-28T13:41:01Z</time>
      </trkpt>
      <trkpt lat="36.4456920" lon="-5.2667310">
        <ele>424.0</ele>
        <time>2019-08-28T13:41:02Z</time>
      </trkpt>
      <trkpt lat="36.4457990" lon="-5.2667320">
        <ele>423.2</ele>
        <time>2019-08-28T13:41:03Z</time>
      </trkpt>
      <trkpt lat="36.4459120" lon="-5.2667440">
        <ele>422.3</ele>
        <time>2019-08-28T13:41:04Z</time>
      </trkpt>
      <trkpt lat="36.4460280" lon="-5.2667670">
        <ele>421.1</ele>
        <time>2019-08-28T13:41:05Z</time>
      </trkpt>
      <trkpt lat="36.4461450" lon="-5.2667960">
        <ele>420.1</ele>
        <time>2019-08-28T13:41:06Z</time>
      </trkpt>
      <trkpt lat="36.4462590" lon="-5.2668290">
        <ele>419.3</ele>
        <time>2019-08-28T13:41:07Z</time>
      </trkpt>
      <trkpt lat="36.4463740" lon="-5.2668650">
        <ele>418.6</ele>
        <time>2019-08-28T13:41:08Z</time>
      </trkpt>
      <trkpt lat="36.4464880" lon="-5.2669020">
        <ele>417.9</ele>
        <time>2019-08-28T13:41:09Z</time>
      </trkpt>
      <trkpt lat="36.4466000" lon="-5.2669440">
        <ele>417.2</ele>
        <time>2019-08-28T13:41:10Z</time>
      </trkpt>
      <trkpt lat="36.4467090" lon="-5.2669900">
        <ele>416.6</ele>
        <time>2019-08-28T13:41:11Z</time>
      </trkpt>
      <trkpt lat="36.4468120" lon="-5.2670410">
        <ele>416.1</ele>
        <time>2019-08-28T13:41:12Z</time>
      </trkpt>
      <trkpt lat="36.4469110" lon="-5.2670990">
        <ele>415.6</ele>
        <time>2019-08-28T13:41:13Z</time>
      </trkpt>
      <trkpt lat="36.4470050" lon="-5.2671610">
        <ele>414.9</ele>
        <time>2019-08-28T13:41:14Z</time>
      </trkpt>
      <trkpt lat="36.4470960" lon="-5.2672230">
        <ele>414.4</ele>
        <time>2019-08-28T13:41:15Z</time>
      </trkpt>
      <trkpt lat="36.4471890" lon="-5.2672750">
        <ele>414.0</ele>
        <time>2019-08-28T13:41:16Z</time>
      </trkpt>
      <trkpt lat="36.4472850" lon="-5.2673070">
        <ele>413.4</ele>
        <time>2019-08-28T13:41:17Z</time>
      </trkpt>
      <trkpt lat="36.4473840" lon="-5.2673080">
        <ele>412.9</ele>
        <time>2019-08-28T13:41:18Z</time>
      </trkpt>
      <trkpt lat="36.4474810" lon="-5.2672850">
        <ele>412.1</ele>
        <time>2019-08-28T13:41:19Z</time>
      </trkpt>
      <trkpt lat="36.4475720" lon="-5.2672470">
        <ele>411.5</ele>
        <time>2019-08-28T13:41:20Z</time>
      </trkpt>
      <trkpt lat="36.4476610" lon="-5.2672120">
        <ele>410.7</ele>
        <time>2019-08-28T13:41:21Z</time>
      </trkpt>
      <trkpt lat="36.4477510" lon="-5.2671830">
        <ele>410.1</ele>
        <time>2019-08-28T13:41:22Z</time>
      </trkpt>
      <trkpt lat="36.4478440" lon="-5.2671780">
        <ele>409.3</ele>
        <time>2019-08-28T13:41:23Z</time>
      </trkpt>
      <trkpt lat="36.4479340" lon="-5.2671890">
        <ele>408.6</ele>
        <time>2019-08-28T13:41:24Z</time>
      </trkpt>
      <trkpt lat="36.4480230" lon="-5.2672200">
        <ele>407.7</ele>
        <time>2019-08-28T13:41:25Z</time>
      </trkpt>
      <trkpt lat="36.4481050" lon="-5.2672650">
        <ele>406.8</ele>
        <time>2019-08-28T13:41:26Z</time>
      </trkpt>
      <trkpt lat="36.4481840" lon="-5.2673190">
        <ele>406.2</ele>
        <time>2019-08-28T13:41:27Z</time>
      </trkpt>
      <trkpt lat="36.4482590" lon="-5.2673880">
        <ele>405.3</ele>
        <time>2019-08-28T13:41:28Z</time>
      </trkpt>
      <trkpt lat="36.4483320" lon="-5.2674620">
        <ele>404.7</ele>
        <time>2019-08-28T13:41:29Z</time>
      </trkpt>
      <trkpt lat="36.4484110" lon="-5.2675300">
        <ele>404.2</ele>
        <time>2019-08-28T13:41:30Z</time>
      </trkpt>
      <trkpt lat="36.4485010" lon="-5.2675700">
        <ele>403.5</ele>
        <time>2019-08-28T13:41:31Z</time>
      </trkpt>
      <trkpt lat="36.4485990" lon="-5.2675760">
        <ele>402.9</ele>
        <time>2019-08-28T13:41:32Z</time>
      </trkpt>
      <trkpt lat="36.4486960" lon="-5.2675580">
        <ele>402.5</ele>
        <time>2019-08-28T13:41:33Z</time>
      </trkpt>
      <trkpt lat="36.4487890" lon="-5.2675220">
        <ele>402.1</ele>
        <time>2019-08-28T13:41:34Z</time>
      </trkpt>
      <trkpt lat="36.4488790" lon="-5.2674770">
        <ele>401.7</ele>
        <time>2019-08-28T13:41:35Z</time>
      </trkpt>
      <trkpt lat="36.4489640" lon="-5.2674150">
        <ele>401.3</ele>
        <time>2019-08-28T13:41:36Z</time>
      </trkpt>
      <trkpt lat="36.4490430" lon="-5.2673430">
        <ele>400.8</ele>
        <time>2019-08-28T13:41:37Z</time>
      </trkpt>
      <trkpt lat="36.4491200" lon="-5.2672680">
        <ele>400.1</ele>
        <time>2019-08-28T13:41:38Z</time>
      </trkpt>
      <trkpt lat="36.4492010" lon="-5.2672100">
        <ele>399.2</ele>
        <time>2019-08-28T13:41:39Z</time>
      </trkpt>
      <trkpt lat="36.4492890" lon="-5.2671740">
        <ele>398.5</ele>
        <time>2019-08-28T13:41:40Z</time>
      </trkpt>
      <trkpt lat="36.4493810" lon="-5.2671530">
        <ele>397.7</ele>
        <time>2019-08-28T13:41:41Z</time>
      </trkpt>
      <trkpt lat="36.4494750" lon="-5.2671380">
        <ele>397.0</ele>
        <time>2019-08-28T13:41:42Z</time>
      </trkpt>
      <trkpt lat="36.4495620" lon="-5.2671110">
        <ele>396.5</ele>
        <time>2019-08-28T13:41:43Z</time>
      </trkpt>
      <trkpt lat="36.4496370" lon="-5.2670530">
        <ele>396.0</ele>
        <time>2019-08-28T13:41:44Z</time>
      </trkpt>
      <trkpt lat="36.4496960" lon="-5.2669710">
        <ele>395.5</ele>
        <time>2019-08-28T13:41:45Z</time>
      </trkpt>
      <trkpt lat="36.4497350" lon="-5.2668580">
        <ele>394.8</ele>
        <time>2019-08-28T13:41:46Z</time>
      </trkpt>
      <trkpt lat="36.4497460" lon="-5.2667420">
        <ele>394.4</ele>
        <time>2019-08-28T13:41:47Z</time>
      </trkpt>
      <trkpt lat="36.4497270" lon="-5.2666230">
        <ele>394.0</ele>
        <time>2019-08-28T13:41:48Z</time>
      </trkpt>
      <trkpt lat="36.4496810" lon="-5.2665210">
        <ele>393.6</ele>
        <time>2019-08-28T13:41:49Z</time>
      </trkpt>
      <trkpt lat="36.4496220" lon="-5.2664350">
        <ele>393.3</ele>
        <time>2019-08-28T13:41:50Z</time>
      </trkpt>
      <trkpt lat="36.4495510" lon="-5.2663590">
        <ele>392.9</ele>
        <time>2019-08-28T13:41:51Z</time>
      </trkpt>
      <trkpt lat="36.4494780" lon="-5.2662850">
        <ele>392.6</ele>
        <time>2019-08-28T13:41:52Z</time>
      </trkpt>
      <trkpt lat="36.4494090" lon="-5.2662070">
        <ele>392.4</ele>
        <time>2019-08-28T13:41:53Z</time>
      </trkpt>
      <trkpt lat="36.4493480" lon="-5.2661200">
        <ele>392.0</ele>
        <time>2019-08-28T13:41:54Z</time>
      </trkpt>
      <trkpt lat="36.4492990" lon="-5.2660220">
        <ele>391.7</ele>
        <time>2019-08-28T13:41:55Z</time>
      </trkpt>
      <trkpt lat="36.4492650" lon="-5.2659120">
        <ele>391.2</ele>
        <time>2019-08-28T13:41:56Z</time>
      </trkpt>
      <trkpt lat="36.4492500" lon="-5.2657900">
        <ele>390.6</ele>
        <time>2019-08-28T13:41:57Z</time>
      </trkpt>
      <trkpt lat="36.4492570" lon="-5.2656620">
        <ele>389.8</ele>
        <time>2019-08-28T13:41:58Z</time>
      </trkpt>
      <trkpt lat="36.4492900" lon="-5.2655440">
        <ele>388.8</ele>
        <time>2019-08-28T13:41:59Z</time>
      </trkpt>
      <trkpt lat="36.4493420" lon="-5.2654430">
        <ele>387.9</ele>
        <time>2019-08-28T13:42:00Z</time>
      </trkpt>
      <trkpt lat="36.4494080" lon="-5.2653590">
        <ele>387.2</ele>
        <time>2019-08-28T13:42:01Z</time>
      </trkpt>
      <trkpt lat="36.4494840" lon="-5.2652880">
        <ele>386.3</ele>
        <time>2019-08-28T13:42:02Z</time>
      </trkpt>
      <trkpt lat="36.4495680" lon="-5.2652290">
        <ele>385.3</ele>
        <time>2019-08-28T13:42:03Z</time>
      </trkpt>
      <trkpt lat="36.4496630" lon="-5.2651790">
        <ele>384.4</ele>
        <time>2019-08-28T13:42:04Z</time>
      </trkpt>
      <trkpt lat="36.4497620" lon="-5.2651320">
        <ele>383.6</ele>
        <time>2019-08-28T13:42:05Z</time>
      </trkpt>
      <trkpt lat="36.4498680" lon="-5.2650840">
        <ele>382.4</ele>
        <time>2019-08-28T13:42:06Z</time>
      </trkpt>
      <trkpt lat="36.4499730" lon="-5.2650350">
        <ele>381.6</ele>
        <time>2019-08-28T13:42:07Z</time>
      </trkpt>
      <trkpt lat="36.4500780" lon="-5.2649900">
        <ele>380.9</ele>
        <time>2019-08-28T13:42:08Z</time>
      </trkpt>
      <trkpt lat="36.4501810" lon="-5.2649470">
        <ele>380.2</ele>
        <time>2019-08-28T13:42:09Z</time>
      </trkpt>
      <trkpt lat="36.4502800" lon="-5.2649070">
        <ele>379.6</ele>
        <time>2019-08-28T13:42:10Z</time>
      </trkpt>
      <trkpt lat="36.4503740" lon="-5.2648710">
        <ele>378.9</ele>
        <time>2019-08-28T13:42:11Z</time>
      </trkpt>
      <trkpt lat="36.4504640" lon="-5.2648420">
        <ele>378.2</ele>
        <time>2019-08-28T13:42:12Z</time>
      </trkpt>
      <trkpt lat="36.4505480" lon="-5.2648270">
        <ele>377.5</ele>
        <time>2019-08-28T13:42:13Z</time>
      </trkpt>
      <trkpt lat="36.4506320" lon="-5.2648300">
        <ele>376.8</ele>
        <time>2019-08-28T13:42:14Z</time>
      </trkpt>
      <trkpt lat="36.4507160" lon="-5.2648370">
        <ele>376.3</ele>
        <time>2019-08-28T13:42:15Z</time>
      </trkpt>
      <trkpt lat="36.4507940" lon="-5.2648190">
        <ele>376.0</ele>
        <time>2019-08-28T13:42:16Z</time>
      </trkpt>
      <trkpt lat="36.4508600" lon="-5.2647700">
        <ele>375.7</ele>
        <time>2019-08-28T13:42:17Z</time>
      </trkpt>
      <trkpt lat="36.4509100" lon="-5.2646980">
        <ele>375.5</ele>
        <time>2019-08-28T13:42:18Z</time>
      </trkpt>
      <trkpt lat="36.4509360" lon="-5.2646220">
        <ele>375.4</ele>
        <time>2019-08-28T13:42:19Z</time>
      </trkpt>
      <trkpt lat="36.4509340" lon="-5.2645390">
        <ele>375.3</ele>
        <time>2019-08-28T13:42:20Z</time>
      </trkpt>
      <trkpt lat="36.4509010" lon="-5.2644610">
        <ele>375.2</ele>
        <time>2019-08-28T13:42:21Z</time>
      </trkpt>
      <trkpt lat="36.4508560" lon="-5.2643930">
        <ele>375.1</ele>
        <time>2019-08-28T13:42:22Z</time>
      </trkpt>
      <trkpt lat="36.4507980" lon="-5.2643420">
        <ele>375.1</ele>
        <time>2019-08-28T13:42:23Z</time>
      </trkpt>
      <trkpt lat="36.4507420" lon="-5.2642960">
        <ele>375.1</ele>
        <time>2019-08-28T13:42:24Z</time>
      </trkpt>
      <trkpt lat="36.4506840" lon="-5.2642530">
        <ele>375.1</ele>
        <time>2019-08-28T13:42:25Z</time>
      </trkpt>
      <trkpt lat="36.4506260" lon="-5.2642090">
        <ele>375.1</ele>
        <time>2019-08-28T13:42:26Z</time>
      </trkpt>
      <trkpt lat="36.4505660" lon="-5.2641730">
        <ele>375.2</ele>
        <time>2019-08-28T13:42:27Z</time>
      </trkpt>
      <trkpt lat="36.4505050" lon="-5.2641470">
        <ele>375.3</ele>
        <time>2019-08-28T13:42:28Z</time>
      </trkpt>
      <trkpt lat="36.4504410" lon="-5.2641320">
        <ele>375.5</ele>
        <time>2019-08-28T13:42:29Z</time>
      </trkpt>
      <trkpt lat="36.4503760" lon="-5.2641240">
        <ele>375.6</ele>
        <time>2019-08-28T13:42:30Z</time>
      </trkpt>
      <trkpt lat="36.4503130" lon="-5.2641180">
        <ele>375.7</ele>
        <time>2019-08-28T13:42:31Z</time>
      </trkpt>
      <trkpt lat="36.4502530" lon="-5.2641060">
        <ele>375.9</ele>
        <time>2019-08-28T13:42:32Z</time>
      </trkpt>
      <trkpt lat="36.4501960" lon="-5.2640870">
        <ele>376.2</ele>
        <time>2019-08-28T13:42:33Z</time>
      </trkpt>
      <trkpt lat="36.4501420" lon="-5.2640600">
        <ele>376.5</ele>
        <time>2019-08-28T13:42:34Z</time>
      </trkpt>
      <trkpt lat="36.4500900" lon="-5.2640250">
        <ele>376.7</ele>
        <time>2019-08-28T13:42:35Z</time>
      </trkpt>
      <trkpt lat="36.4500420" lon="-5.2639830">
        <ele>376.9</ele>
        <time>2019-08-28T13:42:36Z</time>
      </trkpt>
      <trkpt lat="36.4499980" lon="-5.2639380">
        <ele>377.2</ele>
        <time>2019-08-28T13:42:37Z</time>
      </trkpt>
      <trkpt lat="36.4499600" lon="-5.2638890">
        <ele>377.4</ele>
        <time>2019-08-28T13:42:38Z</time>
      </trkpt>
      <trkpt lat="36.4499280" lon="-5.2638350">
        <ele>377.6</ele>
        <time>2019-08-28T13:42:39Z</time>
      </trkpt>
      <trkpt lat="36.4499070" lon="-5.2637750">
        <ele>377.8</ele>
        <time>2019-08-28T13:42:40Z</time>
      </trkpt>
      <trkpt lat="36.4498960" lon="-5.2637100">
        <ele>378.0</ele>
        <time>2019-08-28T13:42:41Z</time>
      </trkpt>
      <trkpt lat="36.4498920" lon="-5.2636430">
        <ele>378.2</ele>
        <time>2019-08-28T13:42:42Z</time>
      </trkpt>
      <trkpt lat="36.4498920" lon="-5.2635760">
        <ele>378.5</ele>
        <time>2019-08-28T13:42:43Z</time>
      </trkpt>
      <trkpt lat="36.4498940" lon="-5.2635120">
        <ele>378.8</ele>
        <time>2019-08-28T13:42:44Z</time>
      </trkpt>
      <trkpt lat="36.4498990" lon="-5.2634500">
        <ele>379.0</ele>
        <time>2019-08-28T13:42:45Z</time>
      </trkpt>
      <trkpt lat="36.4499070" lon="-5.2633900">
        <ele>379.2</ele>
        <time>2019-08-28T13:42:46Z</time>
      </trkpt>
      <trkpt lat="36.4499170" lon="-5.2633320">
        <ele>379.4</ele>
        <time>2019-08-28T13:42:47Z</time>
      </trkpt>
      <trkpt lat="36.4499300" lon="-5.2632760">
        <ele>379.6</ele>
        <time>2019-08-28T13:42:48Z</time>
      </trkpt>
      <trkpt lat="36.4499440" lon="-5.2632220">
        <ele>379.9</ele>
        <time>2019-08-28T13:42:49Z</time>
      </trkpt>
      <trkpt lat="36.4499580" lon="-5.2631710">
        <ele>380.1</ele>
        <time>2019-08-28T13:42:50Z</time>
      </trkpt>
      <trkpt lat="36.4499750" lon="-5.2631210">
        <ele>380.3</ele>
        <time>2019-08-28T13:42:51Z</time>
      </trkpt>
      <trkpt lat="36.4499970" lon="-5.2630750">
        <ele>380.5</ele>
        <time>2019-08-28T13:42:52Z</time>
      </trkpt>
      <trkpt lat="36.4500220" lon="-5.2630320">
        <ele>380.8</ele>
        <time>2019-08-28T13:42:53Z</time>
      </trkpt>
      <trkpt lat="36.4500510" lon="-5.2629910">
        <ele>381.1</ele>
        <time>2019-08-28T13:42:54Z</time>
      </trkpt>
      <trkpt lat="36.4500810" lon="-5.2629520">
        <ele>381.3</ele>
        <time>2019-08-28T13:42:55Z</time>
      </trkpt>
      <trkpt lat="36.4501130" lon="-5.2629170">
        <ele>381.5</ele>
        <time>2019-08-28T13:42:56Z</time>
      </trkpt>
      <trkpt lat="36.4501480" lon="-5.2628850">
        <ele>381.7</ele>
        <time>2019-08-28T13:42:57Z</time>
      </trkpt>
      <trkpt lat="36.4501840" lon="-5.2628560">
        <ele>382.0</ele>
        <time>2019-08-28T13:42:58Z</time>
      </trkpt>
      <trkpt lat="36.4502210" lon="-5.2628270">
        <ele>382.2</ele>
        <time>2019-08-28T13:42:59Z</time>
      </trkpt>
      <trkpt lat="36.4502600" lon="-5.2627990">
        <ele>382.4</ele>
        <time>2019-08-28T13:43:00Z</time>
      </trkpt>
      <trkpt lat="36.4503000" lon="-5.2627720">
        <ele>382.6</ele>
        <time>2019-08-28T13:43:01Z</time>
      </trkpt>
      <trkpt lat="36.4503400" lon="-5.2627450">
        <ele>382.8</ele>
        <time>2019-08-28T13:43:02Z</time>
      </trkpt>
      <trkpt lat="36.4503780" lon="-5.2627180">
        <ele>383.0</ele>
        <time>2019-08-28T13:43:03Z</time>
      </trkpt>
      <trkpt lat="36.4504140" lon="-5.2626890">
        <ele>383.3</ele>
        <time>2019-08-28T13:43:04Z</time>
      </trkpt>
      <trkpt lat="36.4504500" lon="-5.2626600">
        <ele>383.6</ele>
        <time>2019-08-28T13:43:05Z</time>
      </trkpt>
      <trkpt lat="36.4504840" lon="-5.2626320">
        <ele>383.8</ele>
        <time>2019-08-28T13:43:06Z</time>
      </trkpt>
      <trkpt lat="36.4505170" lon="-5.2626040">
        <ele>383.9</ele>
        <time>2019-08-28T13:43:07Z</time>
      </trkpt>
      <trkpt lat="36.4505500" lon="-5.2625770">
        <ele>384.1</ele>
        <time>2019-08-28T13:43:08Z</time>
      </trkpt>
      <trkpt lat="36.4505820" lon="-5.2625500">
        <ele>384.2</ele>
        <time>2019-08-28T13:43:09Z</time>
      </trkpt>
      <trkpt lat="36.4506130" lon="-5.2625220">
        <ele>384.3</ele>
        <time>2019-08-28T13:43:10Z</time>
      </trkpt>
      <trkpt lat="36.4506440" lon="-5.2624950">
        <ele>384.5</ele>
        <time>2019-08-28T13:43:11Z</time>
      </trkpt>
      <trkpt lat="36.4506740" lon="-5.2624670">
        <ele>384.6</ele>
        <time>2019-08-28T13:43:12Z</time>
      </trkpt>
      <trkpt lat="36.4507060" lon="-5.2624410">
        <ele>384.7</ele>
        <time>2019-08-28T13:43:13Z</time>
      </trkpt>
      <trkpt lat="36.4507370" lon="-5.2624160">
        <ele>384.9</ele>
        <time>2019-08-28T13:43:14Z</time>
      </trkpt>
      <trkpt lat="36.4507680" lon="-5.2623890">
        <ele>385.1</ele>
        <time>2019-08-28T13:43:15Z</time>
      </trkpt>
      <trkpt lat="36.4507980" lon="-5.2623620">
        <ele>385.3</ele>
        <time>2019-08-28T13:43:16Z</time>
      </trkpt>
      <trkpt lat="36.4508280" lon="-5.2623370">
        <ele>385.6</ele>
        <time>2019-08-28T13:43:17Z</time>
      </trkpt>
      <trkpt lat="36.4508590" lon="-5.2623130">
        <ele>385.8</ele>
        <time>2019-08-28T13:43:18Z</time>
      </trkpt>
      <trkpt lat="36.4508900" lon="-5.2622890">
        <ele>386.1</ele>
        <time>2019-08-28T13:43:19Z</time>
      </trkpt>
      <trkpt lat="36.4509200" lon="-5.2622640">
        <ele>386.4</ele>
        <time>2019-08-28T13:43:20Z</time>
      </trkpt>
      <trkpt lat="36.4509490" lon="-5.2622400">
        <ele>386.6</ele>
        <time>2019-08-28T13:43:21Z</time>
      </trkpt>
      <trkpt lat="36.4509770" lon="-5.2622150">
        <ele>386.8</ele>
        <time>2019-08-28T13:43:22Z</time>
      </trkpt>
      <trkpt lat="36.4510040" lon="-5.2621890">
        <ele>387.1</ele>
        <time>2019-08-28T13:43:23Z</time>
      </trkpt>
      <trkpt lat="36.4510280" lon="-5.2621590">
        <ele>387.3</ele>
        <time>2019-08-28T13:43:24Z</time>
      </trkpt>
      <trkpt lat="36.4510510" lon="-5.2621200">
        <ele>387.5</ele>
        <time>2019-08-28T13:43:25Z</time>
      </trkpt>
      <trkpt lat="36.4510690" lon="-5.2620740">
        <ele>387.8</ele>
        <time>2019-08-28T13:43:26Z</time>
      </trkpt>
      <trkpt lat="36.4510810" lon="-5.2620270">
        <ele>388.1</ele>
        <time>2019-08-28T13:43:27Z</time>
      </trkpt>
      <trkpt lat="36.4510850" lon="-5.2619820">
        <ele>388.5</ele>
        <time>2019-08-28T13:43:28Z</time>
      </trkpt>
      <trkpt lat="36.4510770" lon="-5.2619400">
        <ele>388.8</ele>
        <time>2019-08-28T13:43:29Z</time>
      </trkpt>
      <trkpt lat="36.4510590" lon="-5.2619010">
        <ele>389.1</ele>
        <time>2019-08-28T13:43:30Z</time>
      </trkpt>
      <trkpt lat="36.4510350" lon="-5.2618670">
        <ele>389.4</ele>
        <time>2019-08-28T13:43:31Z</time>
      </trkpt>
      <trkpt lat="36.4510100" lon="-5.2618360">
        <ele>389.6</ele>
        <time>2019-08-28T13:43:32Z</time>
      </trkpt>
      <trkpt lat="36.4509840" lon="-5.2618080">
        <ele>389.8</ele>
        <time>2019-08-28T13:43:33Z</time>
      </trkpt>
      <trkpt lat="36.4509550" lon="-5.2617820">
        <ele>390.0</ele>
        <time>2019-08-28T13:43:34Z</time>
      </trkpt>
      <trkpt lat="36.4509250" lon="-5.2617600">
        <ele>390.1</ele>
        <time>2019-08-28T13:43:35Z</time>
      </trkpt>
      <trkpt lat="36.4508920" lon="-5.2617420">
        <ele>390.3</ele>
        <time>2019-08-28T13:43:36Z</time>
      </trkpt>
      <trkpt lat="36.4508590" lon="-5.2617300">
        <ele>390.4</ele>
        <time>2019-08-28T13:43:37Z</time>
      </trkpt>
      <trkpt lat="36.4508240" lon="-5.2617210">
        <ele>390.5</ele>
        <time>2019-08-28T13:43:38Z</time>
      </trkpt>
      <trkpt lat="36.4507890" lon="-5.2617140">
        <ele>390.6</ele>
        <time>2019-08-28T13:43:39Z</time>
      </trkpt>
      <trkpt lat="36.4507550" lon="-5.2617070">
        <ele>390.8</ele>
        <time>2019-08-28T13:43:40Z</time>
      </trkpt>
      <trkpt lat="36.4507210" lon="-5.2617000">
        <ele>390.9</ele>
        <time>2019-08-28T13:43:41Z</time>
      </trkpt>
      <trkpt lat="36.4506860" lon="-5.2616950">
        <ele>391.0</ele>
        <time>2019-08-28T13:43:42Z</time>
      </trkpt>
      <trkpt lat="36.4506500" lon="-5.2616930">
        <ele>391.0</ele>
        <time>2019-08-28T13:43:43Z</time>
      </trkpt>
      <trkpt lat="36.4506120" lon="-5.2616930">
        <ele>391.1</ele>
        <time>2019-08-28T13:43:44Z</time>
      </trkpt>
      <trkpt lat="36.4505720" lon="-5.2616930">
        <ele>391.2</ele>
        <time>2019-08-28T13:43:45Z</time>
      </trkpt>
      <trkpt lat="36.4505300" lon="-5.2616930">
        <ele>391.3</ele>
        <time>2019-08-28T13:43:46Z</time>
      </trkpt>
      <trkpt lat="36.4504860" lon="-5.2616970">
        <ele>391.3</ele>
        <time>2019-08-28T13:43:47Z</time>
      </trkpt>
      <trkpt lat="36.4504400" lon="-5.2617040">
        <ele>391.4</ele>
        <time>2019-08-28T13:43:48Z</time>
      </trkpt>
      <trkpt lat="36.4503920" lon="-5.2617130">
        <ele>391.4</ele>
        <time>2019-08-28T13:43:49Z</time>
      </trkpt>
      <trkpt lat="36.4503440" lon="-5.2617220">
        <ele>391.5</ele>
        <time>2019-08-28T13:43:50Z</time>
      </trkpt>
      <trkpt lat="36.4502950" lon="-5.2617310">
        <ele>391.6</ele>
        <time>2019-08-28T13:43:51Z</time>
      </trkpt>
      <trkpt lat="36.4502460" lon="-5.2617390">
        <ele>391.6</ele>
        <time>2019-08-28T13:43:52Z</time>
      </trkpt>
      <trkpt lat="36.4501970" lon="-5.2617470">
        <ele>391.7</ele>
        <time>2019-08-28T13:43:53Z</time>
      </trkpt>
      <trkpt lat="36.4501470" lon="-5.2617530">
        <ele>391.8</ele>
        <time>2019-08-28T13:43:54Z</time>
      </trkpt>
      <trkpt lat="36.4500950" lon="-5.2617510">
        <ele>391.8</ele>
        <time>2019-08-28T13:43:55Z</time>
      </trkpt>
      <trkpt lat="36.4500420" lon="-5.2617420">
        <ele>391.9</ele>
        <time>2019-08-28T13:43:56Z</time>
      </trkpt>
      <trkpt lat="36.4499880" lon="-5.2617250">
        <ele>391.9</ele>
        <time>2019-08-28T13:43:57Z</time>
      </trkpt>
      <trkpt lat="36.4499360" lon="-5.2617010">
        <ele>391.9</ele>
        <time>2019-08-28T13:43:58Z</time>
      </trkpt>
      <trkpt lat="36.4498850" lon="-5.2616720">
        <ele>391.9</ele>
        <time>2019-08-28T13:43:59Z</time>
      </trkpt>
      <trkpt lat="36.4498360" lon="-5.2616390">
        <ele>391.9</ele>
        <time>2019-08-28T13:44:00Z</time>
      </trkpt>
      <trkpt lat="36.4497890" lon="-5.2616020">
        <ele>391.9</ele>
        <time>2019-08-28T13:44:01Z</time>
      </trkpt>
      <trkpt lat="36.4497420" lon="-5.2615620">
        <ele>391.8</ele>
        <time>2019-08-28T13:44:02Z</time>
      </trkpt>
      <trkpt lat="36.4496950" lon="-5.2615170">
        <ele>391.8</ele>
        <time>2019-08-28T13:44:03Z</time>
      </trkpt>
      <trkpt lat="36.4496480" lon="-5.2614700">
        <ele>391.8</ele>
        <time>2019-08-28T13:44:04Z</time>
      </trkpt>
      <trkpt lat="36.4496010" lon="-5.2614200">
        <ele>391.7</ele>
        <time>2019-08-28T13:44:05Z</time>
      </trkpt>
      <trkpt lat="36.4495540" lon="-5.2613680">
        <ele>391.7</ele>
        <time>2019-08-28T13:44:06Z</time>
      </trkpt>
      <trkpt lat="36.4495090" lon="-5.2613150">
        <ele>391.7</ele>
        <time>2019-08-28T13:44:07Z</time>
      </trkpt>
      <trkpt lat="36.4494670" lon="-5.2612600">
        <ele>391.6</ele>
        <time>2019-08-28T13:44:08Z</time>
      </trkpt>
      <trkpt lat="36.4494300" lon="-5.2612010">
        <ele>391.6</ele>
        <time>2019-08-28T13:44:09Z</time>
      </trkpt>
      <trkpt lat="36.4493990" lon="-5.2611350">
        <ele>391.5</ele>
        <time>2019-08-28T13:44:10Z</time>
      </trkpt>
      <trkpt lat="36.4493750" lon="-5.2610650">
        <ele>391.3</ele>
        <time>2019-08-28T13:44:11Z</time>
      </trkpt>
      <trkpt lat="36.4493610" lon="-5.2609870">
        <ele>391.1</ele>
        <time>2019-08-28T13:44:12Z</time>
      </trkpt>
      <trkpt lat="36.4493580" lon="-5.2609040">
        <ele>390.8</ele>
        <time>2019-08-28T13:44:13Z</time>
      </trkpt>
      <trkpt lat="36.4493680" lon="-5.2608200">
        <ele>390.5</ele>
        <time>2019-08-28T13:44:14Z</time>
      </trkpt>
      <trkpt lat="36.4493910" lon="-5.2607400">
        <ele>390.1</ele>
        <time>2019-08-28T13:44:15Z</time>
      </trkpt>
      <trkpt lat="36.4494260" lon="-5.2606700">
        <ele>389.7</ele>
        <time>2019-08-28T13:44:16Z</time>
      </trkpt>
      <trkpt lat="36.4494690" lon="-5.2606130">
        <ele>389.3</ele>
        <time>2019-08-28T13:44:17Z</time>
      </trkpt>
      <trkpt lat="36.4495190" lon="-5.2605650">
        <ele>388.8</ele>
        <time>2019-08-28T13:44:18Z</time>
      </trkpt>
      <trkpt lat="36.4495720" lon="-5.2605210">
        <ele>388.4</ele>
        <time>2019-08-28T13:44:19Z</time>
      </trkpt>
      <trkpt lat="36.4496290" lon="-5.2604780">
        <ele>388.1</ele>
        <time>2019-08-28T13:44:20Z</time>
      </trkpt>
      <trkpt lat="36.4496940" lon="-5.2604370">
        <ele>387.8</ele>
        <time>2019-08-28T13:44:21Z</time>
      </trkpt>
      <trkpt lat="36.4497640" lon="-5.2603990">
        <ele>387.4</ele>
        <time>2019-08-28T13:44:22Z</time>
      </trkpt>
      <trkpt lat="36.4498390" lon="-5.2603600">
        <ele>387.0</ele>
        <time>2019-08-28T13:44:23Z</time>
      </trkpt>
      <trkpt lat="36.4499120" lon="-5.2603190">
        <ele>386.5</ele>
        <time>2019-08-28T13:44:24Z</time>
      </trkpt>
      <trkpt lat="36.4499860" lon="-5.2602770">
        <ele>386.1</ele>
        <time>2019-08-28T13:44:25Z</time>
      </trkpt>
      <trkpt lat="36.4500620" lon="-5.2602350">
        <ele>385.6</ele>
        <time>2019-08-28T13:44:26Z</time>
      </trkpt>
      <trkpt lat="36.4501410" lon="-5.2601930">
        <ele>385.1</ele>
        <time>2019-08-28T13:44:27Z</time>
      </trkpt>
      <trkpt lat="36.4502240" lon="-5.2601520">
        <ele>384.6</ele>
        <time>2019-08-28T13:44:28Z</time>
      </trkpt>
      <trkpt lat="36.4503110" lon="-5.2601110">
        <ele>384.0</ele>
        <time>2019-08-28T13:44:29Z</time>
      </trkpt>
      <trkpt lat="36.4503990" lon="-5.2600640">
        <ele>383.5</ele>
        <time>2019-08-28T13:44:30Z</time>
      </trkpt>
      <trkpt lat="36.4504810" lon="-5.2600080">
        <ele>383.0</ele>
        <time>2019-08-28T13:44:31Z</time>
      </trkpt>
      <trkpt lat="36.4505550" lon="-5.2599320">
        <ele>382.6</ele>
        <time>2019-08-28T13:44:32Z</time>
      </trkpt>
      <trkpt lat="36.4505990" lon="-5.2598200">
        <ele>382.6</ele>
        <time>2019-08-28T13:44:33Z</time>
      </trkpt>
      <trkpt lat="36.4506080" lon="-5.2596900">
        <ele>382.6</ele>
        <time>2019-08-28T13:44:34Z</time>
      </trkpt>
      <trkpt lat="36.4505850" lon="-5.2595610">
        <ele>382.6</ele>
        <time>2019-08-28T13:44:35Z</time>
      </trkpt>
      <trkpt lat="36.4505500" lon="-5.2594600">
        <ele>382.8</ele>
        <time>2019-08-28T13:44:36Z</time>
      </trkpt>
      <trkpt lat="36.4505070" lon="-5.2593780">
        <ele>383.3</ele>
        <time>2019-08-28T13:44:37Z</time>
      </trkpt>
      <trkpt lat="36.4504520" lon="-5.2593150">
        <ele>383.9</ele>
        <time>2019-08-28T13:44:38Z</time>
      </trkpt>
      <trkpt lat="36.4503890" lon="-5.2592720">
        <ele>384.5</ele>
        <time>2019-08-28T13:44:39Z</time>
      </trkpt>
      <trkpt lat="36.4503260" lon="-5.2592450">
        <ele>385.1</ele>
        <time>2019-08-28T13:44:40Z</time>
      </trkpt>
      <trkpt lat="36.4502660" lon="-5.2592280">
        <ele>385.6</ele>
        <time>2019-08-28T13:44:41Z</time>
      </trkpt>
      <trkpt lat="36.4502110" lon="-5.2592160">
        <ele>386.1</ele>
        <time>2019-08-28T13:44:42Z</time>
      </trkpt>
      <trkpt lat="36.4501610" lon="-5.2592050">
        <ele>386.6</ele>
        <time>2019-08-28T13:44:43Z</time>
      </trkpt>
      <trkpt lat="36.4501130" lon="-5.2591950">
        <ele>387.0</ele>
        <time>2019-08-28T13:44:44Z</time>
      </trkpt>
      <trkpt lat="36.4500680" lon="-5.2591850">
        <ele>387.5</ele>
        <time>2019-08-28T13:44:45Z</time>
      </trkpt>
      <trkpt lat="36.4500240" lon="-5.2591750">
        <ele>387.9</ele>
        <time>2019-08-28T13:44:46Z</time>
      </trkpt>
      <trkpt lat="36.4499810" lon="-5.2591660">
        <ele>388.3</ele>
        <time>2019-08-28T13:44:47Z</time>
      </trkpt>
      <trkpt lat="36.4499380" lon="-5.2591570">
        <ele>388.8</ele>
        <time>2019-08-28T13:44:48Z</time>
      </trkpt>
      <trkpt lat="36.4498950" lon="-5.2591470">
        <ele>389.3</ele>
        <time>2019-08-28T13:44:49Z</time>
      </trkpt>
      <trkpt lat="36.4498520" lon="-5.2591370">
        <ele>389.6</ele>
        <time>2019-08-28T13:44:50Z</time>
      </trkpt>
      <trkpt lat="36.4498100" lon="-5.2591260">
        <ele>390.0</ele>
        <time>2019-08-28T13:44:51Z</time>
      </trkpt>
      <trkpt lat="36.4497680" lon="-5.2591140">
        <ele>390.4</ele>
        <time>2019-08-28T13:44:52Z</time>
      </trkpt>
      <trkpt lat="36.4497280" lon="-5.2591010">
        <ele>390.8</ele>
        <time>2019-08-28T13:44:53Z</time>
      </trkpt>
      <trkpt lat="36.4496890" lon="-5.2590840">
        <ele>391.1</ele>
        <time>2019-08-28T13:44:54Z</time>
      </trkpt>
      <trkpt lat="36.4496510" lon="-5.2590670">
        <ele>391.5</ele>
        <time>2019-08-28T13:44:55Z</time>
      </trkpt>
      <trkpt lat="36.4496140" lon="-5.2590490">
        <ele>391.8</ele>
        <time>2019-08-28T13:44:56Z</time>
      </trkpt>
      <trkpt lat="36.4495780" lon="-5.2590270">
        <ele>392.2</ele>
        <time>2019-08-28T13:44:57Z</time>
      </trkpt>
      <trkpt lat="36.4495430" lon="-5.2590000">
        <ele>392.5</ele>
        <time>2019-08-28T13:44:58Z</time>
      </trkpt>
      <trkpt lat="36.4495080" lon="-5.2589700">
        <ele>392.9</ele>
        <time>2019-08-28T13:44:59Z</time>
      </trkpt>
      <trkpt lat="36.4494750" lon="-5.2589400">
        <ele>393.2</ele>
        <time>2019-08-28T13:45:00Z</time>
      </trkpt>
      <trkpt lat="36.4494440" lon="-5.2589110">
        <ele>393.5</ele>
        <time>2019-08-28T13:45:01Z</time>
      </trkpt>
      <trkpt lat="36.4494150" lon="-5.2588800">
        <ele>393.9</ele>
        <time>2019-08-28T13:45:02Z</time>
      </trkpt>
      <trkpt lat="36.4493870" lon="-5.2588480">
        <ele>394.2</ele>
        <time>2019-08-28T13:45:03Z</time>
      </trkpt>
      <trkpt lat="36.4493610" lon="-5.2588140">
        <ele>394.5</ele>
        <time>2019-08-28T13:45:04Z</time>
      </trkpt>
      <trkpt lat="36.4493360" lon="-5.2587780">
        <ele>394.9</ele>
        <time>2019-08-28T13:45:05Z</time>
      </trkpt>
      <trkpt lat="36.4493120" lon="-5.2587380">
        <ele>395.2</ele>
        <time>2019-08-28T13:45:06Z</time>
      </trkpt>
      <trkpt lat="36.4492900" lon="-5.2586960">
        <ele>395.5</ele>
        <time>2019-08-28T13:45:07Z</time>
      </trkpt>
      <trkpt lat="36.4492680" lon="-5.2586530">
        <ele>395.8</ele>
        <time>2019-08-28T13:45:08Z</time>
      </trkpt>
      <trkpt lat="36.4492450" lon="-5.2586090">
        <ele>396.2</ele>
        <time>2019-08-28T13:45:09Z</time>
      </trkpt>
      <trkpt lat="36.4492220" lon="-5.2585660">
        <ele>396.5</ele>
        <time>2019-08-28T13:45:10Z</time>
      </trkpt>
      <trkpt lat="36.4491990" lon="-5.2585230">
        <ele>396.9</ele>
        <time>2019-08-28T13:45:11Z</time>
      </trkpt>
      <trkpt lat="36.4491750" lon="-5.2584810">
        <ele>397.2</ele>
        <time>2019-08-28T13:45:12Z</time>
      </trkpt>
      <trkpt lat="36.4491490" lon="-5.2584410">
        <ele>397.6</ele>
        <time>2019-08-28T13:45:13Z</time>
      </trkpt>
      <trkpt lat="36.4491200" lon="-5.2584040">
        <ele>398.0</ele>
        <time>2019-08-28T13:45:14Z</time>
      </trkpt>
      <trkpt lat="36.4490880" lon="-5.2583740">
        <ele>398.4</ele>
        <time>2019-08-28T13:45:15Z</time>
      </trkpt>
      <trkpt lat="36.4490520" lon="-5.2583500">
        <ele>398.8</ele>
        <time>2019-08-28T13:45:16Z</time>
      </trkpt>
      <trkpt lat="36.4490150" lon="-5.2583300">
        <ele>399.1</ele>
        <time>2019-08-28T13:45:17Z</time>
      </trkpt>
      <trkpt lat="36.4489790" lon="-5.2583130">
        <ele>399.5</ele>
        <time>2019-08-28T13:45:18Z</time>
      </trkpt>
      <trkpt lat="36.4489450" lon="-5.2583020">
        <ele>399.9</ele>
        <time>2019-08-28T13:45:19Z</time>
      </trkpt>
      <trkpt lat="36.4489130" lon="-5.2582950">
        <ele>400.2</ele>
        <time>2019-08-28T13:45:20Z</time>
      </trkpt>
      <trkpt lat="36.4488820" lon="-5.2582910">
        <ele>400.5</ele>
        <time>2019-08-28T13:45:21Z</time>
      </trkpt>
      <trkpt lat="36.4488500" lon="-5.2582880">
        <ele>400.8</ele>
        <time>2019-08-28T13:45:22Z</time>
      </trkpt>
      <trkpt lat="36.4488200" lon="-5.2582830">
        <ele>401.1</ele>
        <time>2019-08-28T13:45:23Z</time>
      </trkpt>
      <trkpt lat="36.4487890" lon="-5.2582780">
        <ele>401.4</ele>
        <time>2019-08-28T13:45:24Z</time>
      </trkpt>
      <trkpt lat="36.4487600" lon="-5.2582730">
        <ele>401.7</ele>
        <time>2019-08-28T13:45:25Z</time>
      </trkpt>
      <trkpt lat="36.4487310" lon="-5.2582660">
        <ele>402.0</ele>
        <time>2019-08-28T13:45:26Z</time>
      </trkpt>
      <trkpt lat="36.4487020" lon="-5.2582600">
        <ele>402.3</ele>
        <time>2019-08-28T13:45:27Z</time>
      </trkpt>
      <trkpt lat="36.4486740" lon="-5.2582550">
        <ele>402.5</ele>
        <time>2019-08-28T13:45:28Z</time>
      </trkpt>
      <trkpt lat="36.4486470" lon="-5.2582510">
        <ele>402.8</ele>
        <time>2019-08-28T13:45:29Z</time>
      </trkpt>
      <trkpt lat="36.4486200" lon="-5.2582460">
        <ele>403.0</ele>
        <time>2019-08-28T13:45:30Z</time>
      </trkpt>
      <trkpt lat="36.4485930" lon="-5.2582410">
        <ele>403.3</ele>
        <time>2019-08-28T13:45:31Z</time>
      </trkpt>
      <trkpt lat="36.4485670" lon="-5.2582350">
        <ele>403.5</ele>
        <time>2019-08-28T13:45:32Z</time>
      </trkpt>
      <trkpt lat="36.4485420" lon="-5.2582260">
        <ele>403.7</ele>
        <time>2019-08-28T13:45:33Z</time>
      </trkpt>
      <trkpt lat="36.4485170" lon="-5.2582160">
        <ele>404.0</ele>
        <time>2019-08-28T13:45:34Z</time>
      </trkpt>
      <trkpt lat="36.4484920" lon="-5.2582050">
        <ele>404.2</ele>
        <time>2019-08-28T13:45:35Z</time>
      </trkpt>
      <trkpt lat="36.4484660" lon="-5.2581950">
        <ele>404.5</ele>
        <time>2019-08-28T13:45:36Z</time>
      </trkpt>
      <trkpt lat="36.4484420" lon="-5.2581850">
        <ele>404.7</ele>
        <time>2019-08-28T13:45:37Z</time>
      </trkpt>
      <trkpt lat="36.4484180" lon="-5.2581760">
        <ele>405.0</ele>
        <time>2019-08-28T13:45:38Z</time>
      </trkpt>
      <trkpt lat="36.4483960" lon="-5.2581650">
        <ele>405.2</ele>
        <time>2019-08-28T13:45:39Z</time>
      </trkpt>
      <trkpt lat="36.4483740" lon="-5.2581530">
        <ele>405.5</ele>
        <time>2019-08-28T13:45:40Z</time>
      </trkpt>
      <trkpt lat="36.4483540" lon="-5.2581400">
        <ele>405.7</ele>
        <time>2019-08-28T13:45:41Z</time>
      </trkpt>
      <trkpt lat="36.4483330" lon="-5.2581280">
        <ele>406.0</ele>
        <time>2019-08-28T13:45:42Z</time>
      </trkpt>
      <trkpt lat="36.4483140" lon="-5.2581130">
        <ele>406.2</ele>
        <time>2019-08-28T13:45:43Z</time>
      </trkpt>
      <trkpt lat="36.4482960" lon="-5.2580970">
        <ele>406.5</ele>
        <time>2019-08-28T13:45:44Z</time>
      </trkpt>
      <trkpt lat="36.4482800" lon="-5.2580800">
        <ele>406.7</ele>
        <time>2019-08-28T13:45:45Z</time>
      </trkpt>
      <trkpt lat="36.4482640" lon="-5.2580630">
        <ele>406.9</ele>
        <time>2019-08-28T13:45:46Z</time>
      </trkpt>
      <trkpt lat="36.4482480" lon="-5.2580450">
        <ele>407.1</ele>
        <time>2019-08-28T13:45:47Z</time>
      </trkpt>
      <trkpt lat="36.4482320" lon="-5.2580270">
        <ele>407.3</ele>
        <time>2019-08-28T13:45:48Z</time>
      </trkpt>
      <trkpt lat="36.4482170" lon="-5.2580080">
        <ele>407.5</ele>
        <time>2019-08-28T13:45:49Z</time>
      </trkpt>
      <trkpt lat="36.4482040" lon="-5.2579880">
        <ele>407.7</ele>
        <time>2019-08-28T13:45:50Z</time>
      </trkpt>
      <trkpt lat="36.4481890" lon="-5.2579660">
        <ele>407.9</ele>
        <time>2019-08-28T13:45:51Z</time>
      </trkpt>
      <trkpt lat="36.4481740" lon="-5.2579430">
        <ele>408.1</ele>
        <time>2019-08-28T13:45:52Z</time>
      </trkpt>
      <trkpt lat="36.4481560" lon="-5.2579200">
        <ele>408.4</ele>
        <time>2019-08-28T13:45:53Z</time>
      </trkpt>
      <trkpt lat="36.4481400" lon="-5.2578960">
        <ele>408.6</ele>
        <time>2019-08-28T13:45:54Z</time>
      </trkpt>
      <trkpt lat="36.4481230" lon="-5.2578740">
        <ele>408.8</ele>
        <time>2019-08-28T13:45:55Z</time>
      </trkpt>
      <trkpt lat="36.4481060" lon="-5.2578480">
        <ele>409.0</ele>
        <time>2019-08-28T13:45:56Z</time>
      </trkpt>
      <trkpt lat="36.4480880" lon="-5.2578210">
        <ele>409.2</ele>
        <time>2019-08-28T13:45:57Z</time>
      </trkpt>
      <trkpt lat="36.4480720" lon="-5.2577910">
        <ele>409.3</ele>
        <time>2019-08-28T13:45:58Z</time>
      </trkpt>
      <trkpt lat="36.4480580" lon="-5.2577610">
        <ele>409.5</ele>
        <time>2019-08-28T13:45:59Z</time>
      </trkpt>
      <trkpt lat="36.4480450" lon="-5.2577310">
        <ele>409.7</ele>
        <time>2019-08-28T13:46:00Z</time>
      </trkpt>
      <trkpt lat="36.4480340" lon="-5.2576980">
        <ele>409.8</ele>
        <time>2019-08-28T13:46:01Z</time>
      </trkpt>
      <trkpt lat="36.4480250" lon="-5.2576620">
        <ele>410.0</ele>
        <time>2019-08-28T13:46:02Z</time>
      </trkpt>
      <trkpt lat="36.4480170" lon="-5.2576260">
        <ele>410.1</ele>
        <time>2019-08-28T13:46:03Z</time>
      </trkpt>
      <trkpt lat="36.4480100" lon="-5.2575880">
        <ele>410.2</ele>
        <time>2019-08-28T13:46:04Z</time>
      </trkpt>
      <trkpt lat="36.4480040" lon="-5.2575500">
        <ele>410.3</ele>
        <time>2019-08-28T13:46:05Z</time>
      </trkpt>
      <trkpt lat="36.4480000" lon="-5.2575100">
        <ele>410.3</ele>
        <time>2019-08-28T13:46:06Z</time>
      </trkpt>
      <trkpt lat="36.4479980" lon="-5.2574690">
        <ele>410.4</ele>
        <time>2019-08-28T13:46:07Z</time>
      </trkpt>
      <trkpt lat="36.4480000" lon="-5.2574240">
        <ele>410.4</ele>
        <time>2019-08-28T13:46:08Z</time>
      </trkpt>
      <trkpt lat="36.4480070" lon="-5.2573780">
        <ele>410.4</ele>
        <time>2019-08-28T13:46:09Z</time>
      </trkpt>
      <trkpt lat="36.4480160" lon="-5.2573300">
        <ele>410.5</ele>
        <time>2019-08-28T13:46:10Z</time>
      </trkpt>
      <trkpt lat="36.4480290" lon="-5.2572810">
        <ele>410.4</ele>
        <time>2019-08-28T13:46:11Z</time>
      </trkpt>
      <trkpt lat="36.4480450" lon="-5.2572290">
        <ele>410.4</ele>
        <time>2019-08-28T13:46:12Z</time>
      </trkpt>
      <trkpt lat="36.4480670" lon="-5.2571740">
        <ele>410.4</ele>
        <time>2019-08-28T13:46:13Z</time>
      </trkpt>
      <trkpt lat="36.4480940" lon="-5.2571180">
        <ele>410.2</ele>
        <time>2019-08-28T13:46:14Z</time>
      </trkpt>
      <trkpt lat="36.4481310" lon="-5.2570630">
        <ele>410.0</ele>
        <time>2019-08-28T13:46:15Z</time>
      </trkpt>
      <trkpt lat="36.4481730" lon="-5.2570070">
        <ele>409.8</ele>
        <time>2019-08-28T13:46:16Z</time>
      </trkpt>
      <trkpt lat="36.4482170" lon="-5.2569410">
        <ele>409.4</ele>
        <time>2019-08-28T13:46:17Z</time>
      </trkpt>
      <trkpt lat="36.4482420" lon="-5.2568520">
        <ele>409.0</ele>
        <time>2019-08-28T13:46:18Z</time>
      </trkpt>
      <trkpt lat="36.4482320" lon="-5.2567470">
        <ele>410.2</ele>
        <time>2019-08-28T13:46:19Z</time>
      </trkpt>
      <trkpt lat="36.4481910" lon="-5.2566420">
        <ele>409.6</ele>
        <time>2019-08-28T13:46:20Z</time>
      </trkpt>
      <trkpt lat="36.4481340" lon="-5.2565560">
        <ele>407.7</ele>
        <time>2019-08-28T13:46:21Z</time>
      </trkpt>
      <trkpt lat="36.4480740" lon="-5.2564870">
        <ele>406.2</ele>
        <time>2019-08-28T13:46:22Z</time>
      </trkpt>
      <trkpt lat="36.4480050" lon="-5.2564270">
        <ele>404.8</ele>
        <time>2019-08-28T13:46:23Z</time>
      </trkpt>
      <trkpt lat="36.4479280" lon="-5.2563730">
        <ele>403.5</ele>
        <time>2019-08-28T13:46:24Z</time>
      </trkpt>
      <trkpt lat="36.4478460" lon="-5.2563180">
        <ele>402.1</ele>
        <time>2019-08-28T13:46:25Z</time>
      </trkpt>
      <trkpt lat="36.4477630" lon="-5.2562610">
        <ele>400.8</ele>
        <time>2019-08-28T13:46:26Z</time>
      </trkpt>
      <trkpt lat="36.4476790" lon="-5.2562030">
        <ele>399.4</ele>
        <time>2019-08-28T13:46:27Z</time>
      </trkpt>
      <trkpt lat="36.4475930" lon="-5.2561400">
        <ele>398.3</ele>
        <time>2019-08-28T13:46:28Z</time>
      </trkpt>
      <trkpt lat="36.4475060" lon="-5.2560740">
        <ele>397.3</ele>
        <time>2019-08-28T13:46:29Z</time>
      </trkpt>
      <trkpt lat="36.4474180" lon="-5.2560050">
        <ele>395.8</ele>
        <time>2019-08-28T13:46:30Z</time>
      </trkpt>
      <trkpt lat="36.4473300" lon="-5.2559340">
        <ele>395.0</ele>
        <time>2019-08-28T13:46:31Z</time>
      </trkpt>
      <trkpt lat="36.4472380" lon="-5.2558600">
        <ele>394.5</ele>
        <time>2019-08-28T13:46:32Z</time>
      </trkpt>
      <trkpt lat="36.4471440" lon="-5.2557840">
        <ele>393.9</ele>
        <time>2019-08-28T13:46:33Z</time>
      </trkpt>
      <trkpt lat="36.4470500" lon="-5.2557090">
        <ele>393.1</ele>
        <time>2019-08-28T13:46:34Z</time>
      </trkpt>
      <trkpt lat="36.4469560" lon="-5.2556370">
        <ele>392.3</ele>
        <time>2019-08-28T13:46:35Z</time>
      </trkpt>
      <trkpt lat="36.4468640" lon="-5.2555650">
        <ele>391.4</ele>
        <time>2019-08-28T13:46:36Z</time>
      </trkpt>
      <trkpt lat="36.4467760" lon="-5.2554960">
        <ele>390.6</ele>
        <time>2019-08-28T13:46:37Z</time>
      </trkpt>
      <trkpt lat="36.4466910" lon="-5.2554270">
        <ele>389.8</ele>
        <time>2019-08-28T13:46:38Z</time>
      </trkpt>
      <trkpt lat="36.4466130" lon="-5.2553570">
        <ele>389.1</ele>
        <time>2019-08-28T13:46:39Z</time>
      </trkpt>
      <trkpt lat="36.4465420" lon="-5.2552830">
        <ele>388.4</ele>
        <time>2019-08-28T13:46:40Z</time>
      </trkpt>
      <trkpt lat="36.4464830" lon="-5.2552030">
        <ele>388.4</ele>
        <time>2019-08-28T13:46:41Z</time>
      </trkpt>
      <trkpt lat="36.4464390" lon="-5.2551170">
        <ele>388.4</ele>
        <time>2019-08-28T13:46:42Z</time>
      </trkpt>
      <trkpt lat="36.4464150" lon="-5.2550220">
        <ele>388.9</ele>
        <time>2019-08-28T13:46:43Z</time>
      </trkpt>
      <trkpt lat="36.4464090" lon="-5.2549170">
        <ele>389.4</ele>
        <time>2019-08-28T13:46:44Z</time>
      </trkpt>
      <trkpt lat="36.4464130" lon="-5.2548050">
        <ele>389.8</ele>
        <time>2019-08-28T13:46:45Z</time>
      </trkpt>
      <trkpt lat="36.4464140" lon="-5.2546900">
        <ele>390.3</ele>
        <time>2019-08-28T13:46:46Z</time>
      </trkpt>
      <trkpt lat="36.4464000" lon="-5.2545760">
        <ele>390.5</ele>
        <time>2019-08-28T13:46:47Z</time>
      </trkpt>
      <trkpt lat="36.4463700" lon="-5.2544640">
        <ele>390.2</ele>
        <time>2019-08-28T13:46:48Z</time>
      </trkpt>
      <trkpt lat="36.4463260" lon="-5.2543570">
        <ele>389.7</ele>
        <time>2019-08-28T13:46:49Z</time>
      </trkpt>
      <trkpt lat="36.4462760" lon="-5.2542540">
        <ele>389.1</ele>
        <time>2019-08-28T13:46:50Z</time>
      </trkpt>
      <trkpt lat="36.4462250" lon="-5.2541470">
        <ele>388.4</ele>
        <time>2019-08-28T13:46:51Z</time>
      </trkpt>
      <trkpt lat="36.4461800" lon="-5.2540350">
        <ele>387.6</ele>
        <time>2019-08-28T13:46:52Z</time>
      </trkpt>
      <trkpt lat="36.4461400" lon="-5.2539180">
        <ele>386.7</ele>
        <time>2019-08-28T13:46:53Z</time>
      </trkpt>
      <trkpt lat="36.4461020" lon="-5.2537960">
        <ele>385.7</ele>
        <time>2019-08-28T13:46:54Z</time>
      </trkpt>
      <trkpt lat="36.4460630" lon="-5.2536720">
        <ele>384.7</ele>
        <time>2019-08-28T13:46:55Z</time>
      </trkpt>
      <trkpt lat="36.4460240" lon="-5.2535470">
        <ele>383.7</ele>
        <time>2019-08-28T13:46:56Z</time>
      </trkpt>
      <trkpt lat="36.4459850" lon="-5.2534200">
        <ele>382.7</ele>
        <time>2019-08-28T13:46:57Z</time>
      </trkpt>
      <trkpt lat="36.4459490" lon="-5.2532910">
        <ele>381.7</ele>
        <time>2019-08-28T13:46:58Z</time>
      </trkpt>
      <trkpt lat="36.4459190" lon="-5.2531590">
        <ele>380.8</ele>
        <time>2019-08-28T13:46:59Z</time>
      </trkpt>
      <trkpt lat="36.4458920" lon="-5.2530240">
        <ele>379.9</ele>
        <time>2019-08-28T13:47:00Z</time>
      </trkpt>
      <trkpt lat="36.4458690" lon="-5.2528870">
        <ele>379.1</ele>
        <time>2019-08-28T13:47:01Z</time>
      </trkpt>
      <trkpt lat="36.4458470" lon="-5.2527470">
        <ele>378.2</ele>
        <time>2019-08-28T13:47:02Z</time>
      </trkpt>
      <trkpt lat="36.4458250" lon="-5.2526060">
        <ele>377.3</ele>
        <time>2019-08-28T13:47:03Z</time>
      </trkpt>
      <trkpt lat="36.4458000" lon="-5.2524650">
        <ele>376.4</ele>
        <time>2019-08-28T13:47:04Z</time>
      </trkpt>
      <trkpt lat="36.4457770" lon="-5.2523240">
        <ele>375.6</ele>
        <time>2019-08-28T13:47:05Z</time>
      </trkpt>
      <trkpt lat="36.4457540" lon="-5.2521850">
        <ele>374.8</ele>
        <time>2019-08-28T13:47:06Z</time>
      </trkpt>
      <trkpt lat="36.4457370" lon="-5.2520480">
        <ele>374.2</ele>
        <time>2019-08-28T13:47:07Z</time>
      </trkpt>
      <trkpt lat="36.4457310" lon="-5.2519140">
        <ele>373.6</ele>
        <time>2019-08-28T13:47:08Z</time>
      </trkpt>
      <trkpt lat="36.4457370" lon="-5.2517860">
        <ele>373.2</ele>
        <time>2019-08-28T13:47:09Z</time>
      </trkpt>
      <trkpt lat="36.4457570" lon="-5.2516670">
        <ele>372.8</ele>
        <time>2019-08-28T13:47:10Z</time>
      </trkpt>
      <trkpt lat="36.4457980" lon="-5.2515590">
        <ele>372.5</ele>
        <time>2019-08-28T13:47:11Z</time>
      </trkpt>
      <trkpt lat="36.4458600" lon="-5.2514640">
        <ele>372.2</ele>
        <time>2019-08-28T13:47:12Z</time>
      </trkpt>
      <trkpt lat="36.4459390" lon="-5.2513880">
        <ele>371.9</ele>
        <time>2019-08-28T13:47:13Z</time>
      </trkpt>
      <trkpt lat="36.4460210" lon="-5.2513240">
        <ele>371.6</ele>
        <time>2019-08-28T13:47:14Z</time>
      </trkpt>
      <trkpt lat="36.4461050" lon="-5.2512700">
        <ele>371.4</ele>
        <time>2019-08-28T13:47:15Z</time>
      </trkpt>
      <trkpt lat="36.4461890" lon="-5.2512160">
        <ele>371.2</ele>
        <time>2019-08-28T13:47:16Z</time>
      </trkpt>
      <trkpt lat="36.4462770" lon="-5.2511690">
        <ele>371.0</ele>
        <time>2019-08-28T13:47:17Z</time>
      </trkpt>
      <trkpt lat="36.4463690" lon="-5.2511350">
        <ele>370.9</ele>
        <time>2019-08-28T13:47:18Z</time>
      </trkpt>
      <trkpt lat="36.4464690" lon="-5.2511210">
        <ele>370.3</ele>
        <time>2019-08-28T13:47:19Z</time>
      </trkpt>
      <trkpt lat="36.4465750" lon="-5.2511250">
        <ele>369.2</ele>
        <time>2019-08-28T13:47:20Z</time>
      </trkpt>
      <trkpt lat="36.4466820" lon="-5.2511410">
        <ele>368.2</ele>
        <time>2019-08-28T13:47:21Z</time>
      </trkpt>
      <trkpt lat="36.4467850" lon="-5.2511690">
        <ele>367.2</ele>
        <time>2019-08-28T13:47:22Z</time>
      </trkpt>
      <trkpt lat="36.4468820" lon="-5.2512060">
        <ele>366.3</ele>
        <time>2019-08-28T13:47:23Z</time>
      </trkpt>
      <trkpt lat="36.4469750" lon="-5.2512390">
        <ele>365.3</ele>
        <time>2019-08-28T13:47:24Z</time>
      </trkpt>
      <trkpt lat="36.4470680" lon="-5.2512440">
        <ele>364.4</ele>
        <time>2019-08-28T13:47:25Z</time>
      </trkpt>
      <trkpt lat="36.4471580" lon="-5.2512120">
        <ele>363.3</ele>
        <time>2019-08-28T13:47:26Z</time>
      </trkpt>
      <trkpt lat="36.4472350" lon="-5.2511430">
        <ele>362.1</ele>
        <time>2019-08-28T13:47:27Z</time>
      </trkpt>
      <trkpt lat="36.4472780" lon="-5.2510410">
        <ele>361.1</ele>
        <time>2019-08-28T13:47:28Z</time>
      </trkpt>
      <trkpt lat="36.4472840" lon="-5.2509200">
        <ele>360.1</ele>
        <time>2019-08-28T13:47:29Z</time>
      </trkpt>
      <trkpt lat="36.4472600" lon="-5.2507900">
        <ele>359.1</ele>
        <time>2019-08-28T13:47:30Z</time>
      </trkpt>
      <trkpt lat="36.4472160" lon="-5.2506650">
        <ele>358.1</ele>
        <time>2019-08-28T13:47:31Z</time>
      </trkpt>
      <trkpt lat="36.4471640" lon="-5.2505470">
        <ele>357.3</ele>
        <time>2019-08-28T13:47:32Z</time>
      </trkpt>
      <trkpt lat="36.4471030" lon="-5.2504320">
        <ele>356.4</ele>
        <time>2019-08-28T13:47:33Z</time>
      </trkpt>
      <trkpt lat="36.4470410" lon="-5.2503230">
        <ele>355.3</ele>
        <time>2019-08-28T13:47:34Z</time>
      </trkpt>
      <trkpt lat="36.4469770" lon="-5.2502150">
        <ele>354.2</ele>
        <time>2019-08-28T13:47:35Z</time>
      </trkpt>
      <trkpt lat="36.4469110" lon="-5.2501060">
        <ele>353.2</ele>
        <time>2019-08-28T13:47:36Z</time>
      </trkpt>
      <trkpt lat="36.4468440" lon="-5.2499980">
        <ele>352.4</ele>
        <time>2019-08-28T13:47:37Z</time>
      </trkpt>
      <trkpt lat="36.4467760" lon="-5.2498890">
        <ele>351.5</ele>
        <time>2019-08-28T13:47:38Z</time>
      </trkpt>
      <trkpt lat="36.4467090" lon="-5.2497800">
        <ele>350.7</ele>
        <time>2019-08-28T13:47:39Z</time>
      </trkpt>
      <trkpt lat="36.4466410" lon="-5.2496730">
        <ele>349.9</ele>
        <time>2019-08-28T13:47:40Z</time>
      </trkpt>
      <trkpt lat="36.4465680" lon="-5.2495740">
        <ele>348.8</ele>
        <time>2019-08-28T13:47:41Z</time>
      </trkpt>
      <trkpt lat="36.4464860" lon="-5.2494870">
        <ele>347.6</ele>
        <time>2019-08-28T13:47:42Z</time>
      </trkpt>
      <trkpt lat="36.4463950" lon="-5.2494150">
        <ele>346.5</ele>
        <time>2019-08-28T13:47:43Z</time>
      </trkpt>
      <trkpt lat="36.4462960" lon="-5.2493570">
        <ele>345.6</ele>
        <time>2019-08-28T13:47:44Z</time>
      </trkpt>
      <trkpt lat="36.4461930" lon="-5.2493110">
        <ele>344.8</ele>
        <time>2019-08-28T13:47:45Z</time>
      </trkpt>
      <trkpt lat="36.4460890" lon="-5.2492730">
        <ele>343.1</ele>
        <time>2019-08-28T13:47:46Z</time>
      </trkpt>
      <trkpt lat="36.4459840" lon="-5.2492360">
        <ele>341.9</ele>
        <time>2019-08-28T13:47:47Z</time>
      </trkpt>
      <trkpt lat="36.4458790" lon="-5.2491990">
        <ele>340.9</ele>
        <time>2019-08-28T13:47:48Z</time>
      </trkpt>
      <trkpt lat="36.4457720" lon="-5.2491600">
        <ele>339.9</ele>
        <time>2019-08-28T13:47:49Z</time>
      </trkpt>
      <trkpt lat="36.4456630" lon="-5.2491200">
        <ele>339.0</ele>
        <time>2019-08-28T13:47:50Z</time>
      </trkpt>
      <trkpt lat="36.4455510" lon="-5.2490790">
        <ele>338.1</ele>
        <time>2019-08-28T13:47:51Z</time>
      </trkpt>
      <trkpt lat="36.4454360" lon="-5.2490370">
        <ele>337.3</ele>
        <time>2019-08-28T13:47:52Z</time>
      </trkpt>
      <trkpt lat="36.4453170" lon="-5.2489930">
        <ele>336.6</ele>
        <time>2019-08-28T13:47:53Z</time>
      </trkpt>
      <trkpt lat="36.4451940" lon="-5.2489490">
        <ele>336.1</ele>
        <time>2019-08-28T13:47:54Z</time>
      </trkpt>
      <trkpt lat="36.4450690" lon="-5.2489000">
        <ele>335.5</ele>
        <time>2019-08-28T13:47:55Z</time>
      </trkpt>
      <trkpt lat="36.4449450" lon="-5.2488440">
        <ele>335.0</ele>
        <time>2019-08-28T13:47:56Z</time>
      </trkpt>
      <trkpt lat="36.4448190" lon="-5.2487790">
        <ele>334.3</ele>
        <time>2019-08-28T13:47:57Z</time>
      </trkpt>
      <trkpt lat="36.4446940" lon="-5.2487050">
        <ele>333.5</ele>
        <time>2019-08-28T13:47:58Z</time>
      </trkpt>
      <trkpt lat="36.4445670" lon="-5.2486270">
        <ele>332.3</ele>
        <time>2019-08-28T13:47:59Z</time>
      </trkpt>
      <trkpt lat="36.4444380" lon="-5.2485510">
        <ele>331.0</ele>
        <time>2019-08-28T13:48:00Z</time>
      </trkpt>
      <trkpt lat="36.4443060" lon="-5.2484800">
        <ele>329.5</ele>
        <time>2019-08-28T13:48:01Z</time>
      </trkpt>
      <trkpt lat="36.4441720" lon="-5.2484150">
        <ele>327.9</ele>
        <time>2019-08-28T13:48:02Z</time>
      </trkpt>
      <trkpt lat="36.4440380" lon="-5.2483540">
        <ele>326.3</ele>
        <time>2019-08-28T13:48:03Z</time>
      </trkpt>
      <trkpt lat="36.4439050" lon="-5.2482960">
        <ele>324.6</ele>
        <time>2019-08-28T13:48:04Z</time>
      </trkpt>
      <trkpt lat="36.4437740" lon="-5.2482430">
        <ele>322.7</ele>
        <time>2019-08-28T13:48:05Z</time>
      </trkpt>
      <trkpt lat="36.4436450" lon="-5.2481950">
        <ele>320.8</ele>
        <time>2019-08-28T13:48:06Z</time>
      </trkpt>
      <trkpt lat="36.4435190" lon="-5.2481500">
        <ele>318.7</ele>
        <time>2019-08-28T13:48:07Z</time>
      </trkpt>
      <trkpt lat="36.4433950" lon="-5.2481050">
        <ele>316.6</ele>
        <time>2019-08-28T13:48:08Z</time>
      </trkpt>
      <trkpt lat="36.4432760" lon="-5.2480550">
        <ele>314.5</ele>
        <time>2019-08-28T13:48:09Z</time>
      </trkpt>
      <trkpt lat="36.4431650" lon="-5.2479950">
        <ele>314.0</ele>
        <time>2019-08-28T13:48:10Z</time>
      </trkpt>
      <trkpt lat="36.4430600" lon="-5.2479190">
        <ele>313.5</ele>
        <time>2019-08-28T13:48:11Z</time>
      </trkpt>
      <trkpt lat="36.4429630" lon="-5.2478330">
        <ele>312.9</ele>
        <time>2019-08-28T13:48:12Z</time>
      </trkpt>
      <trkpt lat="36.4428740" lon="-5.2477380">
        <ele>312.3</ele>
        <time>2019-08-28T13:48:13Z</time>
      </trkpt>
      <trkpt lat="36.4427910" lon="-5.2476410">
        <ele>311.7</ele>
        <time>2019-08-28T13:48:14Z</time>
      </trkpt>
      <trkpt lat="36.4427080" lon="-5.2475420">
        <ele>311.0</ele>
        <time>2019-08-28T13:48:15Z</time>
      </trkpt>
      <trkpt lat="36.4426240" lon="-5.2474430">
        <ele>310.3</ele>
        <time>2019-08-28T13:48:16Z</time>
      </trkpt>
      <trkpt lat="36.4425400" lon="-5.2473410">
        <ele>309.2</ele>
        <time>2019-08-28T13:48:17Z</time>
      </trkpt>
      <trkpt lat="36.4424640" lon="-5.2472270">
        <ele>308.2</ele>
        <time>2019-08-28T13:48:18Z</time>
      </trkpt>
      <trkpt lat="36.4423980" lon="-5.2471020">
        <ele>307.3</ele>
        <time>2019-08-28T13:48:19Z</time>
      </trkpt>
      <trkpt lat="36.4423440" lon="-5.2469640">
        <ele>306.2</ele>
        <time>2019-08-28T13:48:20Z</time>
      </trkpt>
      <trkpt lat="36.4422920" lon="-5.2468210">
        <ele>305.1</ele>
        <time>2019-08-28T13:48:21Z</time>
      </trkpt>
      <trkpt lat="36.4422340" lon="-5.2466760">
        <ele>304.1</ele>
        <time>2019-08-28T13:48:22Z</time>
      </trkpt>
      <trkpt lat="36.4421690" lon="-5.2465300">
        <ele>303.2</ele>
        <time>2019-08-28T13:48:23Z</time>
      </trkpt>
      <trkpt lat="36.4420990" lon="-5.2463830">
        <ele>302.3</ele>
        <time>2019-08-28T13:48:24Z</time>
      </trkpt>
      <trkpt lat="36.4420280" lon="-5.2462330">
        <ele>301.4</ele>
        <time>2019-08-28T13:48:25Z</time>
      </trkpt>
      <trkpt lat="36.4419600" lon="-5.2460780">
        <ele>300.5</ele>
        <time>2019-08-28T13:48:26Z</time>
      </trkpt>
      <trkpt lat="36.4418920" lon="-5.2459180">
        <ele>299.6</ele>
        <time>2019-08-28T13:48:27Z</time>
      </trkpt>
      <trkpt lat="36.4418240" lon="-5.2457540">
        <ele>298.6</ele>
        <time>2019-08-28T13:48:28Z</time>
      </trkpt>
      <trkpt lat="36.4417560" lon="-5.2455900">
        <ele>297.6</ele>
        <time>2019-08-28T13:48:29Z</time>
      </trkpt>
      <trkpt lat="36.4416870" lon="-5.2454240">
        <ele>296.8</ele>
        <time>2019-08-28T13:48:30Z</time>
      </trkpt>
      <trkpt lat="36.4416160" lon="-5.2452580">
        <ele>296.2</ele>
        <time>2019-08-28T13:48:31Z</time>
      </trkpt>
      <trkpt lat="36.4415470" lon="-5.2450940">
        <ele>295.8</ele>
        <time>2019-08-28T13:48:32Z</time>
      </trkpt>
      <trkpt lat="36.4414780" lon="-5.2449320">
        <ele>295.6</ele>
        <time>2019-08-28T13:48:33Z</time>
      </trkpt>
      <trkpt lat="36.4414100" lon="-5.2447760">
        <ele>295.7</ele>
        <time>2019-08-28T13:48:34Z</time>
      </trkpt>
      <trkpt lat="36.4413410" lon="-5.2446260">
        <ele>295.8</ele>
        <time>2019-08-28T13:48:35Z</time>
      </trkpt>
      <trkpt lat="36.4412700" lon="-5.2444830">
        <ele>295.8</ele>
        <time>2019-08-28T13:48:36Z</time>
      </trkpt>
      <trkpt lat="36.4411960" lon="-5.2443480">
        <ele>295.7</ele>
        <time>2019-08-28T13:48:37Z</time>
      </trkpt>
      <trkpt lat="36.4411210" lon="-5.2442200">
        <ele>295.4</ele>
        <time>2019-08-28T13:48:38Z</time>
      </trkpt>
      <trkpt lat="36.4410470" lon="-5.2440950">
        <ele>295.3</ele>
        <time>2019-08-28T13:48:39Z</time>
      </trkpt>
      <trkpt lat="36.4409770" lon="-5.2439730">
        <ele>295.2</ele>
        <time>2019-08-28T13:48:40Z</time>
      </trkpt>
      <trkpt lat="36.4409140" lon="-5.2438520">
        <ele>295.2</ele>
        <time>2019-08-28T13:48:41Z</time>
      </trkpt>
      <trkpt lat="36.4408610" lon="-5.2437290">
        <ele>295.2</ele>
        <time>2019-08-28T13:48:42Z</time>
      </trkpt>
      <trkpt lat="36.4408200" lon="-5.2436040">
        <ele>295.1</ele>
        <time>2019-08-28T13:48:43Z</time>
      </trkpt>
      <trkpt lat="36.4407880" lon="-5.2434760">
        <ele>295.0</ele>
        <time>2019-08-28T13:48:44Z</time>
      </trkpt>
      <trkpt lat="36.4407670" lon="-5.2433480">
        <ele>294.8</ele>
        <time>2019-08-28T13:48:45Z</time>
      </trkpt>
      <trkpt lat="36.4407520" lon="-5.2432230">
        <ele>294.6</ele>
        <time>2019-08-28T13:48:46Z</time>
      </trkpt>
      <trkpt lat="36.4407440" lon="-5.2431000">
        <ele>294.3</ele>
        <time>2019-08-28T13:48:47Z</time>
      </trkpt>
      <trkpt lat="36.4407360" lon="-5.2429800">
        <ele>293.9</ele>
        <time>2019-08-28T13:48:48Z</time>
      </trkpt>
      <trkpt lat="36.4407310" lon="-5.2428620">
        <ele>293.5</ele>
        <time>2019-08-28T13:48:49Z</time>
      </trkpt>
      <trkpt lat="36.4407220" lon="-5.2427470">
        <ele>293.0</ele>
        <time>2019-08-28T13:48:50Z</time>
      </trkpt>
      <trkpt lat="36.4407060" lon="-5.2426390">
        <ele>292.5</ele>
        <time>2019-08-28T13:48:51Z</time>
      </trkpt>
      <trkpt lat="36.4406740" lon="-5.2425440">
        <ele>291.9</ele>
        <time>2019-08-28T13:48:52Z</time>
      </trkpt>
      <trkpt lat="36.4406220" lon="-5.2424730">
        <ele>291.2</ele>
        <time>2019-08-28T13:48:53Z</time>
      </trkpt>
      <trkpt lat="36.4405550" lon="-5.2424310">
        <ele>290.5</ele>
        <time>2019-08-28T13:48:54Z</time>
      </trkpt>
      <trkpt lat="36.4404820" lon="-5.2424280">
        <ele>289.8</ele>
        <time>2019-08-28T13:48:55Z</time>
      </trkpt>
      <trkpt lat="36.4404110" lon="-5.2424550">
        <ele>289.1</ele>
        <time>2019-08-28T13:48:56Z</time>
      </trkpt>
      <trkpt lat="36.4403430" lon="-5.2425030">
        <ele>288.4</ele>
        <time>2019-08-28T13:48:57Z</time>
      </trkpt>
      <trkpt lat="36.4402720" lon="-5.2425640">
        <ele>287.7</ele>
        <time>2019-08-28T13:48:58Z</time>
      </trkpt>
      <trkpt lat="36.4401960" lon="-5.2426360">
        <ele>287.0</ele>
        <time>2019-08-28T13:48:59Z</time>
      </trkpt>
      <trkpt lat="36.4401170" lon="-5.2427190">
        <ele>286.2</ele>
        <time>2019-08-28T13:49:00Z</time>
      </trkpt>
      <trkpt lat="36.4400370" lon="-5.2428100">
        <ele>285.4</ele>
        <time>2019-08-28T13:49:01Z</time>
      </trkpt>
      <trkpt lat="36.4399580" lon="-5.2429100">
        <ele>284.5</ele>
        <time>2019-08-28T13:49:02Z</time>
      </trkpt>
      <trkpt lat="36.4398780" lon="-5.2430160">
        <ele>283.7</ele>
        <time>2019-08-28T13:49:03Z</time>
      </trkpt>
      <trkpt lat="36.4397990" lon="-5.2431300">
        <ele>283.0</ele>
        <time>2019-08-28T13:49:04Z</time>
      </trkpt>
      <trkpt lat="36.4397210" lon="-5.2432460">
        <ele>282.5</ele>
        <time>2019-08-28T13:49:05Z</time>
      </trkpt>
      <trkpt lat="36.4396410" lon="-5.2433650">
        <ele>282.1</ele>
        <time>2019-08-28T13:49:06Z</time>
      </trkpt>
      <trkpt lat="36.4395600" lon="-5.2434810">
        <ele>281.6</ele>
        <time>2019-08-28T13:49:07Z</time>
      </trkpt>
      <trkpt lat="36.4394740" lon="-5.2435940">
        <ele>281.2</ele>
        <time>2019-08-28T13:49:08Z</time>
      </trkpt>
      <trkpt lat="36.4393830" lon="-5.2436970">
        <ele>280.7</ele>
        <time>2019-08-28T13:49:09Z</time>
      </trkpt>
      <trkpt lat="36.4392860" lon="-5.2437900">
        <ele>280.3</ele>
        <time>2019-08-28T13:49:10Z</time>
      </trkpt>
      <trkpt lat="36.4391830" lon="-5.2438690">
        <ele>279.9</ele>
        <time>2019-08-28T13:49:11Z</time>
      </trkpt>
      <trkpt lat="36.4390770" lon="-5.2439390">
        <ele>279.5</ele>
        <time>2019-08-28T13:49:12Z</time>
      </trkpt>
      <trkpt lat="36.4389690" lon="-5.2440040">
        <ele>279.1</ele>
        <time>2019-08-28T13:49:13Z</time>
      </trkpt>
      <trkpt lat="36.4388640" lon="-5.2440690">
        <ele>278.7</ele>
        <time>2019-08-28T13:49:14Z</time>
      </trkpt>
      <trkpt lat="36.4387570" lon="-5.2441270">
        <ele>278.3</ele>
        <time>2019-08-28T13:49:15Z</time>
      </trkpt>
      <trkpt lat="36.4386500" lon="-5.2441760">
        <ele>277.9</ele>
        <time>2019-08-28T13:49:16Z</time>
      </trkpt>
      <trkpt lat="36.4385420" lon="-5.2442160">
        <ele>277.4</ele>
        <time>2019-08-28T13:49:17Z</time>
      </trkpt>
      <trkpt lat="36.4384340" lon="-5.2442480">
        <ele>276.8</ele>
        <time>2019-08-28T13:49:18Z</time>
      </trkpt>
      <trkpt lat="36.4383250" lon="-5.2442740">
        <ele>276.2</ele>
        <time>2019-08-28T13:49:19Z</time>
      </trkpt>
      <trkpt lat="36.4382160" lon="-5.2442970">
        <ele>275.7</ele>
        <time>2019-08-28T13:49:20Z</time>
      </trkpt>
      <trkpt lat="36.4381060" lon="-5.2443200">
        <ele>275.1</ele>
        <time>2019-08-28T13:49:21Z</time>
      </trkpt>
      <trkpt lat="36.4379960" lon="-5.2443450">
        <ele>274.6</ele>
        <time>2019-08-28T13:49:22Z</time>
      </trkpt>
      <trkpt lat="36.4378860" lon="-5.2443720">
        <ele>274.0</ele>
        <time>2019-08-28T13:49:23Z</time>
      </trkpt>
      <trkpt lat="36.4377750" lon="-5.2443990">
        <ele>273.4</ele>
        <time>2019-08-28T13:49:24Z</time>
      </trkpt>
      <trkpt lat="36.4376630" lon="-5.2444240">
        <ele>272.9</ele>
        <time>2019-08-28T13:49:25Z</time>
      </trkpt>
      <trkpt lat="36.4375510" lon="-5.2444480">
        <ele>272.2</ele>
        <time>2019-08-28T13:49:26Z</time>
      </trkpt>
      <trkpt lat="36.4374390" lon="-5.2444720">
        <ele>271.6</ele>
        <time>2019-08-28T13:49:27Z</time>
      </trkpt>
      <trkpt lat="36.4373260" lon="-5.2444960">
        <ele>270.9</ele>
        <time>2019-08-28T13:49:28Z</time>
      </trkpt>
      <trkpt lat="36.4372130" lon="-5.2445190">
        <ele>270.1</ele>
        <time>2019-08-28T13:49:29Z</time>
      </trkpt>
      <trkpt lat="36.4370990" lon="-5.2445360">
        <ele>269.4</ele>
        <time>2019-08-28T13:49:30Z</time>
      </trkpt>
      <trkpt lat="36.4369840" lon="-5.2445490">
        <ele>268.6</ele>
        <time>2019-08-28T13:49:31Z</time>
      </trkpt>
      <trkpt lat="36.4368680" lon="-5.2445570">
        <ele>267.7</ele>
        <time>2019-08-28T13:49:32Z</time>
      </trkpt>
      <trkpt lat="36.4367510" lon="-5.2445630">
        <ele>266.8</ele>
        <time>2019-08-28T13:49:33Z</time>
      </trkpt>
      <trkpt lat="36.4366330" lon="-5.2445670">
        <ele>266.1</ele>
        <time>2019-08-28T13:49:34Z</time>
      </trkpt>
      <trkpt lat="36.4365150" lon="-5.2445670">
        <ele>265.4</ele>
        <time>2019-08-28T13:49:35Z</time>
      </trkpt>
      <trkpt lat="36.4363970" lon="-5.2445630">
        <ele>264.6</ele>
        <time>2019-08-28T13:49:36Z</time>
      </trkpt>
      <trkpt lat="36.4362790" lon="-5.2445520">
        <ele>263.7</ele>
        <time>2019-08-28T13:49:37Z</time>
      </trkpt>
      <trkpt lat="36.4361620" lon="-5.2445340">
        <ele>262.7</ele>
        <time>2019-08-28T13:49:38Z</time>
      </trkpt>
      <trkpt lat="36.4360460" lon="-5.2445060">
        <ele>261.8</ele>
        <time>2019-08-28T13:49:39Z</time>
      </trkpt>
      <trkpt lat="36.4359310" lon="-5.2444700">
        <ele>261.1</ele>
        <time>2019-08-28T13:49:40Z</time>
      </trkpt>
      <trkpt lat="36.4358160" lon="-5.2444260">
        <ele>260.3</ele>
        <time>2019-08-28T13:49:41Z</time>
      </trkpt>
      <trkpt lat="36.4357020" lon="-5.2443780">
        <ele>259.5</ele>
        <time>2019-08-28T13:49:42Z</time>
      </trkpt>
      <trkpt lat="36.4355890" lon="-5.2443270">
        <ele>258.7</ele>
        <time>2019-08-28T13:49:43Z</time>
      </trkpt>
      <trkpt lat="36.4354760" lon="-5.2442770">
        <ele>257.7</ele>
        <time>2019-08-28T13:49:44Z</time>
      </trkpt>
      <trkpt lat="36.4353620" lon="-5.2442300">
        <ele>256.7</ele>
        <time>2019-08-28T13:49:45Z</time>
      </trkpt>
      <trkpt lat="36.4352460" lon="-5.2441950">
        <ele>255.6</ele>
        <time>2019-08-28T13:49:46Z</time>
      </trkpt>
      <trkpt lat="36.4351300" lon="-5.2441790">
        <ele>255.1</ele>
        <time>2019-08-28T13:49:47Z</time>
      </trkpt>
      <trkpt lat="36.4350140" lon="-5.2441780">
        <ele>254.6</ele>
        <time>2019-08-28T13:49:48Z</time>
      </trkpt>
      <trkpt lat="36.4348980" lon="-5.2441880">
        <ele>254.0</ele>
        <time>2019-08-28T13:49:49Z</time>
      </trkpt>
      <trkpt lat="36.4347810" lon="-5.2442000">
        <ele>253.4</ele>
        <time>2019-08-28T13:49:50Z</time>
      </trkpt>
      <trkpt lat="36.4346640" lon="-5.2442140">
        <ele>252.9</ele>
        <time>2019-08-28T13:49:51Z</time>
      </trkpt>
      <trkpt lat="36.4345480" lon="-5.2442310">
        <ele>252.4</ele>
        <time>2019-08-28T13:49:52Z</time>
      </trkpt>
      <trkpt lat="36.4344310" lon="-5.2442500">
        <ele>251.9</ele>
        <time>2019-08-28T13:49:53Z</time>
      </trkpt>
      <trkpt lat="36.4343130" lon="-5.2442720">
        <ele>251.4</ele>
        <time>2019-08-28T13:49:54Z</time>
      </trkpt>
      <trkpt lat="36.4341930" lon="-5.2442950">
        <ele>250.9</ele>
        <time>2019-08-28T13:49:55Z</time>
      </trkpt>
      <trkpt lat="36.4340710" lon="-5.2443170">
        <ele>250.3</ele>
        <time>2019-08-28T13:49:56Z</time>
      </trkpt>
      <trkpt lat="36.4339480" lon="-5.2443400">
        <ele>249.8</ele>
        <time>2019-08-28T13:49:57Z</time>
      </trkpt>
      <trkpt lat="36.4338250" lon="-5.2443700">
        <ele>249.3</ele>
        <time>2019-08-28T13:49:58Z</time>
      </trkpt>
      <trkpt lat="36.4337030" lon="-5.2444130">
        <ele>248.7</ele>
        <time>2019-08-28T13:49:59Z</time>
      </trkpt>
      <trkpt lat="36.4335830" lon="-5.2444720">
        <ele>248.0</ele>
        <time>2019-08-28T13:50:00Z</time>
      </trkpt>
      <trkpt lat="36.4334660" lon="-5.2445450">
        <ele>247.4</ele>
        <time>2019-08-28T13:50:01Z</time>
      </trkpt>
      <trkpt lat="36.4333560" lon="-5.2446340">
        <ele>246.8</ele>
        <time>2019-08-28T13:50:02Z</time>
      </trkpt>
      <trkpt lat="36.4332550" lon="-5.2447390">
        <ele>246.1</ele>
        <time>2019-08-28T13:50:03Z</time>
      </trkpt>
      <trkpt lat="36.4331610" lon="-5.2448570">
        <ele>245.4</ele>
        <time>2019-08-28T13:50:04Z</time>
      </trkpt>
      <trkpt lat="36.4330690" lon="-5.2449800">
        <ele>244.7</ele>
        <time>2019-08-28T13:50:05Z</time>
      </trkpt>
      <trkpt lat="36.4329780" lon="-5.2451020">
        <ele>244.1</ele>
        <time>2019-08-28T13:50:06Z</time>
      </trkpt>
      <trkpt lat="36.4328880" lon="-5.2452200">
        <ele>243.6</ele>
        <time>2019-08-28T13:50:07Z</time>
      </trkpt>
      <trkpt lat="36.4328030" lon="-5.2453340">
        <ele>244.6</ele>
        <time>2019-08-28T13:50:08Z</time>
      </trkpt>
      <trkpt lat="36.4327180" lon="-5.2454410">
        <ele>245.9</ele>
        <time>2019-08-28T13:50:09Z</time>
      </trkpt>
      <trkpt lat="36.4326340" lon="-5.2455400">
        <ele>247.1</ele>
        <time>2019-08-28T13:50:10Z</time>
      </trkpt>
      <trkpt lat="36.4325470" lon="-5.2456290">
        <ele>248.3</ele>
        <time>2019-08-28T13:50:11Z</time>
      </trkpt>
      <trkpt lat="36.4324560" lon="-5.2457060">
        <ele>249.4</ele>
        <time>2019-08-28T13:50:12Z</time>
      </trkpt>
      <trkpt lat="36.4323610" lon="-5.2457680">
        <ele>249.3</ele>
        <time>2019-08-28T13:50:13Z</time>
      </trkpt>
      <trkpt lat="36.4322640" lon="-5.2458190">
        <ele>249.1</ele>
        <time>2019-08-28T13:50:14Z</time>
      </trkpt>
      <trkpt lat="36.4321660" lon="-5.2458580">
        <ele>249.0</ele>
        <time>2019-08-28T13:50:15Z</time>
      </trkpt>
      <trkpt lat="36.4320690" lon="-5.2458870">
        <ele>249.0</ele>
        <time>2019-08-28T13:50:16Z</time>
      </trkpt>
      <trkpt lat="36.4319720" lon="-5.2459050">
        <ele>249.1</ele>
        <time>2019-08-28T13:50:17Z</time>
      </trkpt>
      <trkpt lat="36.4318770" lon="-5.2459140">
        <ele>249.2</ele>
        <time>2019-08-28T13:50:18Z</time>
      </trkpt>
      <trkpt lat="36.4317810" lon="-5.2459160">
        <ele>249.2</ele>
        <time>2019-08-28T13:50:19Z</time>
      </trkpt>
      <trkpt lat="36.4316860" lon="-5.2459120">
        <ele>249.2</ele>
        <time>2019-08-28T13:50:20Z</time>
      </trkpt>
      <trkpt lat="36.4315910" lon="-5.2459040">
        <ele>249.1</ele>
        <time>2019-08-28T13:50:21Z</time>
      </trkpt>
      <trkpt lat="36.4314970" lon="-5.2458930">
        <ele>248.8</ele>
        <time>2019-08-28T13:50:22Z</time>
      </trkpt>
      <trkpt lat="36.4314050" lon="-5.2458790">
        <ele>248.4</ele>
        <time>2019-08-28T13:50:23Z</time>
      </trkpt>
      <trkpt lat="36.4313150" lon="-5.2458640">
        <ele>247.9</ele>
        <time>2019-08-28T13:50:24Z</time>
      </trkpt>
      <trkpt lat="36.4312270" lon="-5.2458480">
        <ele>247.3</ele>
        <time>2019-08-28T13:50:25Z</time>
      </trkpt>
      <trkpt lat="36.4311430" lon="-5.2458310">
        <ele>246.7</ele>
        <time>2019-08-28T13:50:26Z</time>
      </trkpt>
      <trkpt lat="36.4310610" lon="-5.2458160">
        <ele>246.2</ele>
        <time>2019-08-28T13:50:27Z</time>
      </trkpt>
      <trkpt lat="36.4309800" lon="-5.2458030">
        <ele>245.8</ele>
        <time>2019-08-28T13:50:28Z</time>
      </trkpt>
      <trkpt lat="36.4309020" lon="-5.2457930">
        <ele>245.5</ele>
        <time>2019-08-28T13:50:29Z</time>
      </trkpt>
      <trkpt lat="36.4308240" lon="-5.2457840">
        <ele>245.2</ele>
        <time>2019-08-28T13:50:30Z</time>
      </trkpt>
      <trkpt lat="36.4307480" lon="-5.2457750">
        <ele>245.1</ele>
        <time>2019-08-28T13:50:31Z</time>
      </trkpt>
      <trkpt lat="36.4306720" lon="-5.2457670">
        <ele>245.0</ele>
        <time>2019-08-28T13:50:32Z</time>
      </trkpt>
      <trkpt lat="36.4305970" lon="-5.2457600">
        <ele>244.9</ele>
        <time>2019-08-28T13:50:33Z</time>
      </trkpt>
      <trkpt lat="36.4305220" lon="-5.2457540">
        <ele>244.9</ele>
        <time>2019-08-28T13:50:34Z</time>
      </trkpt>
      <trkpt lat="36.4304470" lon="-5.2457480">
        <ele>244.8</ele>
        <time>2019-08-28T13:50:35Z</time>
      </trkpt>
      <trkpt lat="36.4303710" lon="-5.2457440">
        <ele>244.7</ele>
        <time>2019-08-28T13:50:36Z</time>
      </trkpt>
      <trkpt lat="36.4302950" lon="-5.2457410">
        <ele>244.6</ele>
        <time>2019-08-28T13:50:37Z</time>
      </trkpt>
      <trkpt lat="36.4302180" lon="-5.2457380">
        <ele>244.5</ele>
        <time>2019-08-28T13:50:38Z</time>
      </trkpt>
      <trkpt lat="36.4301410" lon="-5.2457360">
        <ele>244.4</ele>
        <time>2019-08-28T13:50:39Z</time>
      </trkpt>
      <trkpt lat="36.4300610" lon="-5.2457330">
        <ele>244.2</ele>
        <time>2019-08-28T13:50:40Z</time>
      </trkpt>
      <trkpt lat="36.4299810" lon="-5.2457310">
        <ele>243.9</ele>
        <time>2019-08-28T13:50:41Z</time>
      </trkpt>
      <trkpt lat="36.4298990" lon="-5.2457290">
        <ele>243.6</ele>
        <time>2019-08-28T13:50:42Z</time>
      </trkpt>
      <trkpt lat="36.4298160" lon="-5.2457260">
        <ele>243.2</ele>
        <time>2019-08-28T13:50:43Z</time>
      </trkpt>
      <trkpt lat="36.4297310" lon="-5.2457220">
        <ele>242.9</ele>
        <time>2019-08-28T13:50:44Z</time>
      </trkpt>
      <trkpt lat="36.4296460" lon="-5.2457170">
        <ele>242.5</ele>
        <time>2019-08-28T13:50:45Z</time>
      </trkpt>
      <trkpt lat="36.4295600" lon="-5.2457100">
        <ele>242.2</ele>
        <time>2019-08-28T13:50:46Z</time>
      </trkpt>
      <trkpt lat="36.4294720" lon="-5.2456970">
        <ele>241.8</ele>
        <time>2019-08-28T13:50:47Z</time>
      </trkpt>
      <trkpt lat="36.4293840" lon="-5.2456780">
        <ele>241.4</ele>
        <time>2019-08-28T13:50:48Z</time>
      </trkpt>
      <trkpt lat="36.4292950" lon="-5.2456520">
        <ele>241.0</ele>
        <time>2019-08-28T13:50:49Z</time>
      </trkpt>
      <trkpt lat="36.4292070" lon="-5.2456160">
        <ele>240.6</ele>
        <time>2019-08-28T13:50:50Z</time>
      </trkpt>
      <trkpt lat="36.4291200" lon="-5.2455730">
        <ele>240.3</ele>
        <time>2019-08-28T13:50:51Z</time>
      </trkpt>
      <trkpt lat="36.4290330" lon="-5.2455230">
        <ele>239.9</ele>
        <time>2019-08-28T13:50:52Z</time>
      </trkpt>
      <trkpt lat="36.4289490" lon="-5.2454690">
        <ele>239.6</ele>
        <time>2019-08-28T13:50:53Z</time>
      </trkpt>
      <trkpt lat="36.4288670" lon="-5.2454060">
        <ele>239.2</ele>
        <time>2019-08-28T13:50:54Z</time>
      </trkpt>
      <trkpt lat="36.4287880" lon="-5.2453310">
        <ele>238.8</ele>
        <time>2019-08-28T13:50:55Z</time>
      </trkpt>
      <trkpt lat="36.4287120" lon="-5.2452450">
        <ele>238.3</ele>
        <time>2019-08-28T13:50:56Z</time>
      </trkpt>
      <trkpt lat="36.4286400" lon="-5.2451510">
        <ele>237.8</ele>
        <time>2019-08-28T13:50:57Z</time>
      </trkpt>
      <trkpt lat="36.4285710" lon="-5.2450510">
        <ele>237.3</ele>
        <time>2019-08-28T13:50:58Z</time>
      </trkpt>
      <trkpt lat="36.4284990" lon="-5.2449500">
        <ele>236.5</ele>
        <time>2019-08-28T13:50:59Z</time>
      </trkpt>
      <trkpt lat="36.4284190" lon="-5.2448530">
        <ele>235.7</ele>
        <time>2019-08-28T13:51:00Z</time>
      </trkpt>
      <trkpt lat="36.4283280" lon="-5.2447650">
        <ele>234.5</ele>
        <time>2019-08-28T13:51:01Z</time>
      </trkpt>
      <trkpt lat="36.4282280" lon="-5.2446890">
        <ele>233.2</ele>
        <time>2019-08-28T13:51:02Z</time>
      </trkpt>
      <trkpt lat="36.4281220" lon="-5.2446230">
        <ele>231.9</ele>
        <time>2019-08-28T13:51:03Z</time>
      </trkpt>
      <trkpt lat="36.4280110" lon="-5.2445640">
        <ele>230.6</ele>
        <time>2019-08-28T13:51:04Z</time>
      </trkpt>
      <trkpt lat="36.4278960" lon="-5.2445120">
        <ele>229.4</ele>
        <time>2019-08-28T13:51:05Z</time>
      </trkpt>
      <trkpt lat="36.4277760" lon="-5.2444660">
        <ele>228.2</ele>
        <time>2019-08-28T13:51:06Z</time>
      </trkpt>
      <trkpt lat="36.4276540" lon="-5.2444260">
        <ele>227.1</ele>
        <time>2019-08-28T13:51:07Z</time>
      </trkpt>
      <trkpt lat="36.4275320" lon="-5.2443910">
        <ele>226.2</ele>
        <time>2019-08-28T13:51:08Z</time>
      </trkpt>
      <trkpt lat="36.4274090" lon="-5.2443620">
        <ele>225.3</ele>
        <time>2019-08-28T13:51:09Z</time>
      </trkpt>
      <trkpt lat="36.4272860" lon="-5.2443360">
        <ele>224.3</ele>
        <time>2019-08-28T13:51:10Z</time>
      </trkpt>
      <trkpt lat="36.4271630" lon="-5.2443110">
        <ele>223.4</ele>
        <time>2019-08-28T13:51:11Z</time>
      </trkpt>
      <trkpt lat="36.4270430" lon="-5.2442870">
        <ele>222.6</ele>
        <time>2019-08-28T13:51:12Z</time>
      </trkpt>
      <trkpt lat="36.4269250" lon="-5.2442650">
        <ele>221.8</ele>
        <time>2019-08-28T13:51:13Z</time>
      </trkpt>
      <trkpt lat="36.4268080" lon="-5.2442480">
        <ele>221.1</ele>
        <time>2019-08-28T13:51:14Z</time>
      </trkpt>
      <trkpt lat="36.4266930" lon="-5.2442390">
        <ele>220.5</ele>
        <time>2019-08-28T13:51:15Z</time>
      </trkpt>
      <trkpt lat="36.4265790" lon="-5.2442380">
        <ele>219.9</ele>
        <time>2019-08-28T13:51:16Z</time>
      </trkpt>
      <trkpt lat="36.4264650" lon="-5.2442420">
        <ele>219.3</ele>
        <time>2019-08-28T13:51:17Z</time>
      </trkpt>
      <trkpt lat="36.4263510" lon="-5.2442480">
        <ele>218.6</ele>
        <time>2019-08-28T13:51:18Z</time>
      </trkpt>
      <trkpt lat="36.4262360" lon="-5.2442540">
        <ele>217.9</ele>
        <time>2019-08-28T13:51:19Z</time>
      </trkpt>
      <trkpt lat="36.4261200" lon="-5.2442590">
        <ele>217.2</ele>
        <time>2019-08-28T13:51:20Z</time>
      </trkpt>
      <trkpt lat="36.4260040" lon="-5.2442650">
        <ele>216.5</ele>
        <time>2019-08-28T13:51:21Z</time>
      </trkpt>
      <trkpt lat="36.4258880" lon="-5.2442720">
        <ele>215.8</ele>
        <time>2019-08-28T13:51:22Z</time>
      </trkpt>
      <trkpt lat="36.4257700" lon="-5.2442810">
        <ele>215.0</ele>
        <time>2019-08-28T13:51:23Z</time>
      </trkpt>
      <trkpt lat="36.4256520" lon="-5.2442910">
        <ele>214.1</ele>
        <time>2019-08-28T13:51:24Z</time>
      </trkpt>
      <trkpt lat="36.4255330" lon="-5.2443010">
        <ele>213.2</ele>
        <time>2019-08-28T13:51:25Z</time>
      </trkpt>
      <trkpt lat="36.4254130" lon="-5.2443110">
        <ele>212.4</ele>
        <time>2019-08-28T13:51:26Z</time>
      </trkpt>
      <trkpt lat="36.4252940" lon="-5.2443210">
        <ele>211.6</ele>
        <time>2019-08-28T13:51:27Z</time>
      </trkpt>
      <trkpt lat="36.4251750" lon="-5.2443270">
        <ele>210.7</ele>
        <time>2019-08-28T13:51:28Z</time>
      </trkpt>
      <trkpt lat="36.4250600" lon="-5.2443240">
        <ele>210.0</ele>
        <time>2019-08-28T13:51:29Z</time>
      </trkpt>
      <trkpt lat="36.4249510" lon="-5.2443010">
        <ele>209.5</ele>
        <time>2019-08-28T13:51:30Z</time>
      </trkpt>
      <trkpt lat="36.4248480" lon="-5.2442440">
        <ele>208.9</ele>
        <time>2019-08-28T13:51:31Z</time>
      </trkpt>
      <trkpt lat="36.4247540" lon="-5.2441590">
        <ele>208.3</ele>
        <time>2019-08-28T13:51:32Z</time>
      </trkpt>
      <trkpt lat="36.4246700" lon="-5.2440560">
        <ele>207.7</ele>
        <time>2019-08-28T13:51:33Z</time>
      </trkpt>
      <trkpt lat="36.4245980" lon="-5.2439520">
        <ele>207.1</ele>
        <time>2019-08-28T13:51:34Z</time>
      </trkpt>
      <trkpt lat="36.4245300" lon="-5.2438490">
        <ele>206.5</ele>
        <time>2019-08-28T13:51:35Z</time>
      </trkpt>
      <trkpt lat="36.4244640" lon="-5.2437460">
        <ele>206.1</ele>
        <time>2019-08-28T13:51:36Z</time>
      </trkpt>
      <trkpt lat="36.4243990" lon="-5.2436450">
        <ele>205.7</ele>
        <time>2019-08-28T13:51:37Z</time>
      </trkpt>
      <trkpt lat="36.4243350" lon="-5.2435460">
        <ele>205.3</ele>
        <time>2019-08-28T13:51:38Z</time>
      </trkpt>
      <trkpt lat="36.4242690" lon="-5.2434510">
        <ele>205.0</ele>
        <time>2019-08-28T13:51:39Z</time>
      </trkpt>
      <trkpt lat="36.4242010" lon="-5.2433610">
        <ele>204.7</ele>
        <time>2019-08-28T13:51:40Z</time>
      </trkpt>
      <trkpt lat="36.4241290" lon="-5.2432750">
        <ele>204.3</ele>
        <time>2019-08-28T13:51:41Z</time>
      </trkpt>
      <trkpt lat="36.4240540" lon="-5.2431940">
        <ele>203.9</ele>
        <time>2019-08-28T13:51:42Z</time>
      </trkpt>
      <trkpt lat="36.4239740" lon="-5.2431180">
        <ele>203.5</ele>
        <time>2019-08-28T13:51:43Z</time>
      </trkpt>
      <trkpt lat="36.4238900" lon="-5.2430500">
        <ele>203.0</ele>
        <time>2019-08-28T13:51:44Z</time>
      </trkpt>
      <trkpt lat="36.4238000" lon="-5.2429890">
        <ele>202.5</ele>
        <time>2019-08-28T13:51:45Z</time>
      </trkpt>
      <trkpt lat="36.4237060" lon="-5.2429330">
        <ele>201.9</ele>
        <time>2019-08-28T13:51:46Z</time>
      </trkpt>
      <trkpt lat="36.4236090" lon="-5.2428790">
        <ele>201.2</ele>
        <time>2019-08-28T13:51:47Z</time>
      </trkpt>
      <trkpt lat="36.4235080" lon="-5.2428250">
        <ele>200.5</ele>
        <time>2019-08-28T13:51:48Z</time>
      </trkpt>
      <trkpt lat="36.4234050" lon="-5.2427720">
        <ele>199.7</ele>
        <time>2019-08-28T13:51:49Z</time>
      </trkpt>
      <trkpt lat="36.4232980" lon="-5.2427180">
        <ele>198.9</ele>
        <time>2019-08-28T13:51:50Z</time>
      </trkpt>
      <trkpt lat="36.4231890" lon="-5.2426630">
        <ele>198.1</ele>
        <time>2019-08-28T13:51:51Z</time>
      </trkpt>
      <trkpt lat="36.4230780" lon="-5.2426060">
        <ele>197.3</ele>
        <time>2019-08-28T13:51:52Z</time>
      </trkpt>
      <trkpt lat="36.4229650" lon="-5.2425460">
        <ele>196.4</ele>
        <time>2019-08-28T13:51:53Z</time>
      </trkpt>
      <trkpt lat="36.4228500" lon="-5.2424850">
        <ele>195.5</ele>
        <time>2019-08-28T13:51:54Z</time>
      </trkpt>
      <trkpt lat="36.4227360" lon="-5.2424200">
        <ele>194.6</ele>
        <time>2019-08-28T13:51:55Z</time>
      </trkpt>
      <trkpt lat="36.4226240" lon="-5.2423480">
        <ele>193.7</ele>
        <time>2019-08-28T13:51:56Z</time>
      </trkpt>
      <trkpt lat="36.4225140" lon="-5.2422680">
        <ele>192.7</ele>
        <time>2019-08-28T13:51:57Z</time>
      </trkpt>
      <trkpt lat="36.4224080" lon="-5.2421830">
        <ele>191.7</ele>
        <time>2019-08-28T13:51:58Z</time>
      </trkpt>
      <trkpt lat="36.4223030" lon="-5.2420940">
        <ele>190.6</ele>
        <time>2019-08-28T13:51:59Z</time>
      </trkpt>
      <trkpt lat="36.4222010" lon="-5.2420050">
        <ele>189.5</ele>
        <time>2019-08-28T13:52:00Z</time>
      </trkpt>
      <trkpt lat="36.4221000" lon="-5.2419190">
        <ele>188.4</ele>
        <time>2019-08-28T13:52:01Z</time>
      </trkpt>
      <trkpt lat="36.4219990" lon="-5.2418400">
        <ele>187.4</ele>
        <time>2019-08-28T13:52:02Z</time>
      </trkpt>
      <trkpt lat="36.4218980" lon="-5.2417680">
        <ele>186.4</ele>
        <time>2019-08-28T13:52:03Z</time>
      </trkpt>
      <trkpt lat="36.4217970" lon="-5.2417010">
        <ele>185.5</ele>
        <time>2019-08-28T13:52:04Z</time>
      </trkpt>
      <trkpt lat="36.4216980" lon="-5.2416370">
        <ele>184.8</ele>
        <time>2019-08-28T13:52:05Z</time>
      </trkpt>
      <trkpt lat="36.4216010" lon="-5.2415750">
        <ele>184.2</ele>
        <time>2019-08-28T13:52:06Z</time>
      </trkpt>
      <trkpt lat="36.4215040" lon="-5.2415130">
        <ele>183.6</ele>
        <time>2019-08-28T13:52:07Z</time>
      </trkpt>
      <trkpt lat="36.4214080" lon="-5.2414530">
        <ele>183.2</ele>
        <time>2019-08-28T13:52:08Z</time>
      </trkpt>
      <trkpt lat="36.4213130" lon="-5.2413930">
        <ele>182.9</ele>
        <time>2019-08-28T13:52:09Z</time>
      </trkpt>
      <trkpt lat="36.4212170" lon="-5.2413330">
        <ele>182.4</ele>
        <time>2019-08-28T13:52:10Z</time>
      </trkpt>
      <trkpt lat="36.4211220" lon="-5.2412750">
        <ele>182.0</ele>
        <time>2019-08-28T13:52:11Z</time>
      </trkpt>
      <trkpt lat="36.4210270" lon="-5.2412170">
        <ele>181.5</ele>
        <time>2019-08-28T13:52:12Z</time>
      </trkpt>
      <trkpt lat="36.4209310" lon="-5.2411570">
        <ele>180.9</ele>
        <time>2019-08-28T13:52:13Z</time>
      </trkpt>
      <trkpt lat="36.4208350" lon="-5.2410940">
        <ele>180.1</ele>
        <time>2019-08-28T13:52:14Z</time>
      </trkpt>
      <trkpt lat="36.4207380" lon="-5.2410310">
        <ele>179.3</ele>
        <time>2019-08-28T13:52:15Z</time>
      </trkpt>
      <trkpt lat="36.4206400" lon="-5.2409650">
        <ele>178.4</ele>
        <time>2019-08-28T13:52:16Z</time>
      </trkpt>
      <trkpt lat="36.4205390" lon="-5.2409030">
        <ele>177.4</ele>
        <time>2019-08-28T13:52:17Z</time>
      </trkpt>
      <trkpt lat="36.4204350" lon="-5.2408480">
        <ele>176.5</ele>
        <time>2019-08-28T13:52:18Z</time>
      </trkpt>
      <trkpt lat="36.4203240" lon="-5.2408050">
        <ele>175.5</ele>
        <time>2019-08-28T13:52:19Z</time>
      </trkpt>
      <trkpt lat="36.4202080" lon="-5.2407770">
        <ele>174.6</ele>
        <time>2019-08-28T13:52:20Z</time>
      </trkpt>
      <trkpt lat="36.4200890" lon="-5.2407690">
        <ele>173.8</ele>
        <time>2019-08-28T13:52:21Z</time>
      </trkpt>
      <trkpt lat="36.4199700" lon="-5.2407820">
        <ele>173.1</ele>
        <time>2019-08-28T13:52:22Z</time>
      </trkpt>
      <trkpt lat="36.4198530" lon="-5.2408130">
        <ele>172.5</ele>
        <time>2019-08-28T13:52:23Z</time>
      </trkpt>
      <trkpt lat="36.4197370" lon="-5.2408560">
        <ele>171.8</ele>
        <time>2019-08-28T13:52:24Z</time>
      </trkpt>
      <trkpt lat="36.4196220" lon="-5.2409020">
        <ele>171.1</ele>
        <time>2019-08-28T13:52:25Z</time>
      </trkpt>
      <trkpt lat="36.4195040" lon="-5.2409420">
        <ele>170.4</ele>
        <time>2019-08-28T13:52:26Z</time>
      </trkpt>
      <trkpt lat="36.4193840" lon="-5.2409700">
        <ele>169.6</ele>
        <time>2019-08-28T13:52:27Z</time>
      </trkpt>
      <trkpt lat="36.4192630" lon="-5.2409840">
        <ele>168.8</ele>
        <time>2019-08-28T13:52:28Z</time>
      </trkpt>
      <trkpt lat="36.4191440" lon="-5.2409800">
        <ele>167.9</ele>
        <time>2019-08-28T13:52:29Z</time>
      </trkpt>
      <trkpt lat="36.4190280" lon="-5.2409560">
        <ele>167.1</ele>
        <time>2019-08-28T13:52:30Z</time>
      </trkpt>
      <trkpt lat="36.4189170" lon="-5.2409110">
        <ele>166.2</ele>
        <time>2019-08-28T13:52:31Z</time>
      </trkpt>
      <trkpt lat="36.4188080" lon="-5.2408410">
        <ele>165.3</ele>
        <time>2019-08-28T13:52:32Z</time>
      </trkpt>
      <trkpt lat="36.4187040" lon="-5.2407540">
        <ele>164.4</ele>
        <time>2019-08-28T13:52:33Z</time>
      </trkpt>
      <trkpt lat="36.4186040" lon="-5.2406560">
        <ele>163.4</ele>
        <time>2019-08-28T13:52:34Z</time>
      </trkpt>
      <trkpt lat="36.4185110" lon="-5.2405580">
        <ele>162.5</ele>
        <time>2019-08-28T13:52:35Z</time>
      </trkpt>
      <trkpt lat="36.4184210" lon="-5.2404590">
        <ele>161.6</ele>
        <time>2019-08-28T13:52:36Z</time>
      </trkpt>
      <trkpt lat="36.4183310" lon="-5.2403620">
        <ele>160.7</ele>
        <time>2019-08-28T13:52:37Z</time>
      </trkpt>
      <trkpt lat="36.4182400" lon="-5.2402660">
        <ele>159.8</ele>
        <time>2019-08-28T13:52:38Z</time>
      </trkpt>
      <trkpt lat="36.4181490" lon="-5.2401720">
        <ele>158.9</ele>
        <time>2019-08-28T13:52:39Z</time>
      </trkpt>
      <trkpt lat="36.4180590" lon="-5.2400790">
        <ele>158.0</ele>
        <time>2019-08-28T13:52:40Z</time>
      </trkpt>
      <trkpt lat="36.4179710" lon="-5.2399870">
        <ele>157.1</ele>
        <time>2019-08-28T13:52:41Z</time>
      </trkpt>
      <trkpt lat="36.4178830" lon="-5.2398960">
        <ele>156.1</ele>
        <time>2019-08-28T13:52:42Z</time>
      </trkpt>
      <trkpt lat="36.4177950" lon="-5.2398040">
        <ele>155.2</ele>
        <time>2019-08-28T13:52:43Z</time>
      </trkpt>
      <trkpt lat="36.4177080" lon="-5.2397120">
        <ele>154.0</ele>
        <time>2019-08-28T13:52:44Z</time>
      </trkpt>
      <trkpt lat="36.4176210" lon="-5.2396200">
        <ele>153.0</ele>
        <time>2019-08-28T13:52:45Z</time>
      </trkpt>
      <trkpt lat="36.4175330" lon="-5.2395290">
        <ele>152.1</ele>
        <time>2019-08-28T13:52:46Z</time>
      </trkpt>
      <trkpt lat="36.4174430" lon="-5.2394390">
        <ele>151.2</ele>
        <time>2019-08-28T13:52:47Z</time>
      </trkpt>
      <trkpt lat="36.4173520" lon="-5.2393500">
        <ele>150.2</ele>
        <time>2019-08-28T13:52:48Z</time>
      </trkpt>
      <trkpt lat="36.4172610" lon="-5.2392610">
        <ele>149.4</ele>
        <time>2019-08-28T13:52:49Z</time>
      </trkpt>
      <trkpt lat="36.4171710" lon="-5.2391700">
        <ele>148.6</ele>
        <time>2019-08-28T13:52:50Z</time>
      </trkpt>
      <trkpt lat="36.4170800" lon="-5.2390760">
        <ele>147.7</ele>
        <time>2019-08-28T13:52:51Z</time>
      </trkpt>
      <trkpt lat="36.4169900" lon="-5.2389800">
        <ele>146.9</ele>
        <time>2019-08-28T13:52:52Z</time>
      </trkpt>
      <trkpt lat="36.4168990" lon="-5.2388830">
        <ele>146.2</ele>
        <time>2019-08-28T13:52:53Z</time>
      </trkpt>
      <trkpt lat="36.4168070" lon="-5.2387860">
        <ele>145.4</ele>
        <time>2019-08-28T13:52:54Z</time>
      </trkpt>
      <trkpt lat="36.4167140" lon="-5.2386890">
        <ele>144.5</ele>
        <time>2019-08-28T13:52:55Z</time>
      </trkpt>
      <trkpt lat="36.4166220" lon="-5.2385910">
        <ele>143.7</ele>
        <time>2019-08-28T13:52:56Z</time>
      </trkpt>
      <trkpt lat="36.4165300" lon="-5.2384940">
        <ele>142.9</ele>
        <time>2019-08-28T13:52:57Z</time>
      </trkpt>
      <trkpt lat="36.4164400" lon="-5.2384000">
        <ele>142.1</ele>
        <time>2019-08-28T13:52:58Z</time>
      </trkpt>
      <trkpt lat="36.4163480" lon="-5.2383110">
        <ele>141.4</ele>
        <time>2019-08-28T13:52:59Z</time>
      </trkpt>
      <trkpt lat="36.4162540" lon="-5.2382300">
        <ele>140.6</ele>
        <time>2019-08-28T13:53:00Z</time>
      </trkpt>
      <trkpt lat="36.4161550" lon="-5.2381600">
        <ele>139.8</ele>
        <time>2019-08-28T13:53:01Z</time>
      </trkpt>
      <trkpt lat="36.4160530" lon="-5.2381030">
        <ele>139.2</ele>
        <time>2019-08-28T13:53:02Z</time>
      </trkpt>
      <trkpt lat="36.4159470" lon="-5.2380630">
        <ele>138.6</ele>
        <time>2019-08-28T13:53:03Z</time>
      </trkpt>
      <trkpt lat="36.4158390" lon="-5.2380440">
        <ele>138.0</ele>
        <time>2019-08-28T13:53:04Z</time>
      </trkpt>
      <trkpt lat="36.4157320" lon="-5.2380460">
        <ele>137.6</ele>
        <time>2019-08-28T13:53:05Z</time>
      </trkpt>
      <trkpt lat="36.4156300" lon="-5.2380760">
        <ele>137.2</ele>
        <time>2019-08-28T13:53:06Z</time>
      </trkpt>
      <trkpt lat="36.4155320" lon="-5.2381290">
        <ele>136.9</ele>
        <time>2019-08-28T13:53:07Z</time>
      </trkpt>
      <trkpt lat="36.4154420" lon="-5.2382040">
        <ele>136.5</ele>
        <time>2019-08-28T13:53:08Z</time>
      </trkpt>
      <trkpt lat="36.4153600" lon="-5.2382920">
        <ele>136.2</ele>
        <time>2019-08-28T13:53:09Z</time>
      </trkpt>
      <trkpt lat="36.4152860" lon="-5.2383900">
        <ele>135.8</ele>
        <time>2019-08-28T13:53:10Z</time>
      </trkpt>
      <trkpt lat="36.4152190" lon="-5.2384950">
        <ele>135.4</ele>
        <time>2019-08-28T13:53:11Z</time>
      </trkpt>
      <trkpt lat="36.4151540" lon="-5.2386020">
        <ele>135.1</ele>
        <time>2019-08-28T13:53:12Z</time>
      </trkpt>
      <trkpt lat="36.4150920" lon="-5.2387130">
        <ele>134.8</ele>
        <time>2019-08-28T13:53:13Z</time>
      </trkpt>
      <trkpt lat="36.4150310" lon="-5.2388270">
        <ele>134.5</ele>
        <time>2019-08-28T13:53:14Z</time>
      </trkpt>
      <trkpt lat="36.4149700" lon="-5.2389430">
        <ele>134.1</ele>
        <time>2019-08-28T13:53:15Z</time>
      </trkpt>
      <trkpt lat="36.4149070" lon="-5.2390590">
        <ele>133.6</ele>
        <time>2019-08-28T13:53:16Z</time>
      </trkpt>
      <trkpt lat="36.4148410" lon="-5.2391740">
        <ele>133.0</ele>
        <time>2019-08-28T13:53:17Z</time>
      </trkpt>
      <trkpt lat="36.4147700" lon="-5.2392870">
        <ele>132.3</ele>
        <time>2019-08-28T13:53:18Z</time>
      </trkpt>
      <trkpt lat="36.4146950" lon="-5.2393970">
        <ele>131.5</ele>
        <time>2019-08-28T13:53:19Z</time>
      </trkpt>
      <trkpt lat="36.4146130" lon="-5.2395030">
        <ele>130.7</ele>
        <time>2019-08-28T13:53:20Z</time>
      </trkpt>
      <trkpt lat="36.4145240" lon="-5.2396010">
        <ele>130.0</ele>
        <time>2019-08-28T13:53:21Z</time>
      </trkpt>
      <trkpt lat="36.4144250" lon="-5.2396860">
        <ele>129.2</ele>
        <time>2019-08-28T13:53:22Z</time>
      </trkpt>
      <trkpt lat="36.4143160" lon="-5.2397520">
        <ele>128.6</ele>
        <time>2019-08-28T13:53:23Z</time>
      </trkpt>
      <trkpt lat="36.4141980" lon="-5.2397930">
        <ele>127.9</ele>
        <time>2019-08-28T13:53:24Z</time>
      </trkpt>
      <trkpt lat="36.4140770" lon="-5.2398120">
        <ele>127.2</ele>
        <time>2019-08-28T13:53:25Z</time>
      </trkpt>
      <trkpt lat="36.4139560" lon="-5.2398030">
        <ele>126.6</ele>
        <time>2019-08-28T13:53:26Z</time>
      </trkpt>
      <trkpt lat="36.4138420" lon="-5.2397730">
        <ele>125.9</ele>
        <time>2019-08-28T13:53:27Z</time>
      </trkpt>
      <trkpt lat="36.4137380" lon="-5.2397170">
        <ele>125.3</ele>
        <time>2019-08-28T13:53:28Z</time>
      </trkpt>
      <trkpt lat="36.4136460" lon="-5.2396370">
        <ele>124.7</ele>
        <time>2019-08-28T13:53:29Z</time>
      </trkpt>
      <trkpt lat="36.4135640" lon="-5.2395330">
        <ele>124.1</ele>
        <time>2019-08-28T13:53:30Z</time>
      </trkpt>
      <trkpt lat="36.4134930" lon="-5.2394170">
        <ele>123.5</ele>
        <time>2019-08-28T13:53:31Z</time>
      </trkpt>
      <trkpt lat="36.4134320" lon="-5.2392960">
        <ele>123.0</ele>
        <time>2019-08-28T13:53:32Z</time>
      </trkpt>
      <trkpt lat="36.4133760" lon="-5.2391760">
        <ele>122.5</ele>
        <time>2019-08-28T13:53:33Z</time>
      </trkpt>
      <trkpt lat="36.4133230" lon="-5.2390560">
        <ele>122.2</ele>
        <time>2019-08-28T13:53:34Z</time>
      </trkpt>
      <trkpt lat="36.4132700" lon="-5.2389400">
        <ele>121.9</ele>
        <time>2019-08-28T13:53:35Z</time>
      </trkpt>
      <trkpt lat="36.4132170" lon="-5.2388250">
        <ele>121.7</ele>
        <time>2019-08-28T13:53:36Z</time>
      </trkpt>
      <trkpt lat="36.4131640" lon="-5.2387120">
        <ele>121.5</ele>
        <time>2019-08-28T13:53:37Z</time>
      </trkpt>
      <trkpt lat="36.4131130" lon="-5.2386000">
        <ele>121.4</ele>
        <time>2019-08-28T13:53:38Z</time>
      </trkpt>
      <trkpt lat="36.4130630" lon="-5.2384900">
        <ele>121.4</ele>
        <time>2019-08-28T13:53:39Z</time>
      </trkpt>
      <trkpt lat="36.4130160" lon="-5.2383800">
        <ele>121.3</ele>
        <time>2019-08-28T13:53:40Z</time>
      </trkpt>
      <trkpt lat="36.4129710" lon="-5.2382720">
        <ele>121.2</ele>
        <time>2019-08-28T13:53:41Z</time>
      </trkpt>
      <trkpt lat="36.4129240" lon="-5.2381670">
        <ele>121.2</ele>
        <time>2019-08-28T13:53:42Z</time>
      </trkpt>
      <trkpt lat="36.4128760" lon="-5.2380670">
        <ele>121.1</ele>
        <time>2019-08-28T13:53:43Z</time>
      </trkpt>
      <trkpt lat="36.4128270" lon="-5.2379700">
        <ele>121.0</ele>
        <time>2019-08-28T13:53:44Z</time>
      </trkpt>
      <trkpt lat="36.4127790" lon="-5.2378740">
        <ele>120.8</ele>
        <time>2019-08-28T13:53:45Z</time>
      </trkpt>
      <trkpt lat="36.4127320" lon="-5.2377800">
        <ele>120.6</ele>
        <time>2019-08-28T13:53:46Z</time>
      </trkpt>
      <trkpt lat="36.4126840" lon="-5.2376880">
        <ele>120.4</ele>
        <time>2019-08-28T13:53:47Z</time>
      </trkpt>
      <trkpt lat="36.4126370" lon="-5.2375990">
        <ele>120.1</ele>
        <time>2019-08-28T13:53:48Z</time>
      </trkpt>
      <trkpt lat="36.4125880" lon="-5.2375110">
        <ele>119.8</ele>
        <time>2019-08-28T13:53:49Z</time>
      </trkpt>
      <trkpt lat="36.4125390" lon="-5.2374250">
        <ele>119.5</ele>
        <time>2019-08-28T13:53:50Z</time>
      </trkpt>
      <trkpt lat="36.4124880" lon="-5.2373400">
        <ele>119.2</ele>
        <time>2019-08-28T13:53:51Z</time>
      </trkpt>
      <trkpt lat="36.4124360" lon="-5.2372560">
        <ele>118.9</ele>
        <time>2019-08-28T13:53:52Z</time>
      </trkpt>
      <trkpt lat="36.4123850" lon="-5.2371740">
        <ele>118.7</ele>
        <time>2019-08-28T13:53:53Z</time>
      </trkpt>
      <trkpt lat="36.4123350" lon="-5.2370910">
        <ele>118.5</ele>
        <time>2019-08-28T13:53:54Z</time>
      </trkpt>
      <trkpt lat="36.4122850" lon="-5.2370090">
        <ele>118.3</ele>
        <time>2019-08-28T13:53:55Z</time>
      </trkpt>
      <trkpt lat="36.4122370" lon="-5.2369280">
        <ele>118.1</ele>
        <time>2019-08-28T13:53:56Z</time>
      </trkpt>
      <trkpt lat="36.4121880" lon="-5.2368480">
        <ele>118.0</ele>
        <time>2019-08-28T13:53:57Z</time>
      </trkpt>
      <trkpt lat="36.4121400" lon="-5.2367690">
        <ele>117.8</ele>
        <time>2019-08-28T13:53:58Z</time>
      </trkpt>
      <trkpt lat="36.4120920" lon="-5.2366900">
        <ele>117.6</ele>
        <time>2019-08-28T13:53:59Z</time>
      </trkpt>
      <trkpt lat="36.4120450" lon="-5.2366120">
        <ele>117.3</ele>
        <time>2019-08-28T13:54:00Z</time>
      </trkpt>
      <trkpt lat="36.4119990" lon="-5.2365340">
        <ele>117.1</ele>
        <time>2019-08-28T13:54:01Z</time>
      </trkpt>
      <trkpt lat="36.4119530" lon="-5.2364570">
        <ele>116.9</ele>
        <time>2019-08-28T13:54:02Z</time>
      </trkpt>
      <trkpt lat="36.4119070" lon="-5.2363810">
        <ele>116.6</ele>
        <time>2019-08-28T13:54:03Z</time>
      </trkpt>
      <trkpt lat="36.4118610" lon="-5.2363070">
        <ele>116.4</ele>
        <time>2019-08-28T13:54:04Z</time>
      </trkpt>
      <trkpt lat="36.4118130" lon="-5.2362350">
        <ele>116.2</ele>
        <time>2019-08-28T13:54:05Z</time>
      </trkpt>
      <trkpt lat="36.4117640" lon="-5.2361670">
        <ele>116.1</ele>
        <time>2019-08-28T13:54:06Z</time>
      </trkpt>
      <trkpt lat="36.4117130" lon="-5.2361020">
        <ele>116.0</ele>
        <time>2019-08-28T13:54:07Z</time>
      </trkpt>
      <trkpt lat="36.4116620" lon="-5.2360390">
        <ele>115.9</ele>
        <time>2019-08-28T13:54:08Z</time>
      </trkpt>
      <trkpt lat="36.4116090" lon="-5.2359790">
        <ele>115.8</ele>
        <time>2019-08-28T13:54:09Z</time>
      </trkpt>
      <trkpt lat="36.4115550" lon="-5.2359230">
        <ele>115.8</ele>
        <time>2019-08-28T13:54:10Z</time>
      </trkpt>
      <trkpt lat="36.4114980" lon="-5.2358730">
        <ele>115.7</ele>
        <time>2019-08-28T13:54:11Z</time>
      </trkpt>
      <trkpt lat="36.4114390" lon="-5.2358290">
        <ele>115.7</ele>
        <time>2019-08-28T13:54:12Z</time>
      </trkpt>
      <trkpt lat="36.4113780" lon="-5.2357900">
        <ele>115.7</ele>
        <time>2019-08-28T13:54:13Z</time>
      </trkpt>
      <trkpt lat="36.4113160" lon="-5.2357570">
        <ele>115.8</ele>
        <time>2019-08-28T13:54:14Z</time>
      </trkpt>
      <trkpt lat="36.4112500" lon="-5.2357300">
        <ele>115.8</ele>
        <time>2019-08-28T13:54:15Z</time>
      </trkpt>
      <trkpt lat="36.4111800" lon="-5.2357080">
        <ele>115.9</ele>
        <time>2019-08-28T13:54:16Z</time>
      </trkpt>
      <trkpt lat="36.4111100" lon="-5.2356940">
        <ele>116.0</ele>
        <time>2019-08-28T13:54:17Z</time>
      </trkpt>
      <trkpt lat="36.4110410" lon="-5.2356840">
        <ele>116.2</ele>
        <time>2019-08-28T13:54:18Z</time>
      </trkpt>
      <trkpt lat="36.4109740" lon="-5.2356760">
        <ele>116.3</ele>
        <time>2019-08-28T13:54:19Z</time>
      </trkpt>
      <trkpt lat="36.4109060" lon="-5.2356700">
        <ele>116.5</ele>
        <time>2019-08-28T13:54:20Z</time>
      </trkpt>
      <trkpt lat="36.4108390" lon="-5.2356650">
        <ele>116.7</ele>
        <time>2019-08-28T13:54:21Z</time>
      </trkpt>
      <trkpt lat="36.4107720" lon="-5.2356600">
        <ele>116.8</ele>
        <time>2019-08-28T13:54:22Z</time>
      </trkpt>
      <trkpt lat="36.4107050" lon="-5.2356540">
        <ele>117.0</ele>
        <time>2019-08-28T13:54:23Z</time>
      </trkpt>
      <trkpt lat="36.4106370" lon="-5.2356490">
        <ele>117.1</ele>
        <time>2019-08-28T13:54:24Z</time>
      </trkpt>
      <trkpt lat="36.4105680" lon="-5.2356440">
        <ele>117.2</ele>
        <time>2019-08-28T13:54:25Z</time>
      </trkpt>
      <trkpt lat="36.4104990" lon="-5.2356390">
        <ele>117.2</ele>
        <time>2019-08-28T13:54:26Z</time>
      </trkpt>
      <trkpt lat="36.4104300" lon="-5.2356330">
        <ele>117.2</ele>
        <time>2019-08-28T13:54:27Z</time>
      </trkpt>
      <trkpt lat="36.4103610" lon="-5.2356270">
        <ele>117.2</ele>
        <time>2019-08-28T13:54:28Z</time>
      </trkpt>
      <trkpt lat="36.4102900" lon="-5.2356200">
        <ele>117.2</ele>
        <time>2019-08-28T13:54:29Z</time>
      </trkpt>
      <trkpt lat="36.4102190" lon="-5.2356120">
        <ele>117.1</ele>
        <time>2019-08-28T13:54:30Z</time>
      </trkpt>
      <trkpt lat="36.4101470" lon="-5.2356050">
        <ele>117.1</ele>
        <time>2019-08-28T13:54:31Z</time>
      </trkpt>
      <trkpt lat="36.4100740" lon="-5.2355990">
        <ele>117.0</ele>
        <time>2019-08-28T13:54:32Z</time>
      </trkpt>
      <trkpt lat="36.4100000" lon="-5.2355940">
        <ele>116.9</ele>
        <time>2019-08-28T13:54:33Z</time>
      </trkpt>
      <trkpt lat="36.4099250" lon="-5.2355890">
        <ele>116.8</ele>
        <time>2019-08-28T13:54:34Z</time>
      </trkpt>
      <trkpt lat="36.4098500" lon="-5.2355830">
        <ele>116.6</ele>
        <time>2019-08-28T13:54:35Z</time>
      </trkpt>
      <trkpt lat="36.4097740" lon="-5.2355770">
        <ele>116.4</ele>
        <time>2019-08-28T13:54:36Z</time>
      </trkpt>
      <trkpt lat="36.4096970" lon="-5.2355700">
        <ele>116.1</ele>
        <time>2019-08-28T13:54:37Z</time>
      </trkpt>
      <trkpt lat="36.4096200" lon="-5.2355630">
        <ele>115.8</ele>
        <time>2019-08-28T13:54:38Z</time>
      </trkpt>
      <trkpt lat="36.4095430" lon="-5.2355540">
        <ele>115.5</ele>
        <time>2019-08-28T13:54:39Z</time>
      </trkpt>
      <trkpt lat="36.4094670" lon="-5.2355430">
        <ele>115.2</ele>
        <time>2019-08-28T13:54:40Z</time>
      </trkpt>
      <trkpt lat="36.4093910" lon="-5.2355290">
        <ele>115.0</ele>
        <time>2019-08-28T13:54:41Z</time>
      </trkpt>
      <trkpt lat="36.4093160" lon="-5.2355120">
        <ele>114.9</ele>
        <time>2019-08-28T13:54:42Z</time>
      </trkpt>
      <trkpt lat="36.4092430" lon="-5.2354890">
        <ele>114.7</ele>
        <time>2019-08-28T13:54:43Z</time>
      </trkpt>
      <trkpt lat="36.4091700" lon="-5.2354550">
        <ele>114.6</ele>
        <time>2019-08-28T13:54:44Z</time>
      </trkpt>
      <trkpt lat="36.4090990" lon="-5.2354100">
        <ele>114.6</ele>
        <time>2019-08-28T13:54:45Z</time>
      </trkpt>
      <trkpt lat="36.4090300" lon="-5.2353590">
        <ele>114.5</ele>
        <time>2019-08-28T13:54:46Z</time>
      </trkpt>
      <trkpt lat="36.4089640" lon="-5.2353050">
        <ele>114.4</ele>
        <time>2019-08-28T13:54:47Z</time>
      </trkpt>
      <trkpt lat="36.4089010" lon="-5.2352480">
        <ele>114.4</ele>
        <time>2019-08-28T13:54:48Z</time>
      </trkpt>
      <trkpt lat="36.4088420" lon="-5.2351860">
        <ele>114.3</ele>
        <time>2019-08-28T13:54:49Z</time>
      </trkpt>
      <trkpt lat="36.4087900" lon="-5.2351190">
        <ele>114.2</ele>
        <time>2019-08-28T13:54:50Z</time>
      </trkpt>
      <trkpt lat="36.4087430" lon="-5.2350450">
        <ele>114.1</ele>
        <time>2019-08-28T13:54:51Z</time>
      </trkpt>
      <trkpt lat="36.4087060" lon="-5.2349670">
        <ele>113.9</ele>
        <time>2019-08-28T13:54:52Z</time>
      </trkpt>
      <trkpt lat="36.4086750" lon="-5.2348870">
        <ele>113.8</ele>
        <time>2019-08-28T13:54:53Z</time>
      </trkpt>
      <trkpt lat="36.4086470" lon="-5.2348050">
        <ele>113.5</ele>
        <time>2019-08-28T13:54:54Z</time>
      </trkpt>
      <trkpt lat="36.4086210" lon="-5.2347220">
        <ele>113.3</ele>
        <time>2019-08-28T13:54:55Z</time>
      </trkpt>
      <trkpt lat="36.4085960" lon="-5.2346390">
        <ele>113.0</ele>
        <time>2019-08-28T13:54:56Z</time>
      </trkpt>
      <trkpt lat="36.4085720" lon="-5.2345560">
        <ele>112.8</ele>
        <time>2019-08-28T13:54:57Z</time>
      </trkpt>
      <trkpt lat="36.4085500" lon="-5.2344740">
        <ele>112.6</ele>
        <time>2019-08-28T13:54:58Z</time>
      </trkpt>
      <trkpt lat="36.4085290" lon="-5.2343930">
        <ele>112.4</ele>
        <time>2019-08-28T13:54:59Z</time>
      </trkpt>
      <trkpt lat="36.4085090" lon="-5.2343130">
        <ele>112.3</ele>
        <time>2019-08-28T13:55:00Z</time>
      </trkpt>
      <trkpt lat="36.4084880" lon="-5.2342330">
        <ele>112.2</ele>
        <time>2019-08-28T13:55:01Z</time>
      </trkpt>
      <trkpt lat="36.4084680" lon="-5.2341550">
        <ele>112.1</ele>
        <time>2019-08-28T13:55:02Z</time>
      </trkpt>
      <trkpt lat="36.4084470" lon="-5.2340770">
        <ele>112.1</ele>
        <time>2019-08-28T13:55:03Z</time>
      </trkpt>
      <trkpt lat="36.4084250" lon="-5.2340010">
        <ele>112.0</ele>
        <time>2019-08-28T13:55:04Z</time>
      </trkpt>
      <trkpt lat="36.4084010" lon="-5.2339260">
        <ele>112.0</ele>
        <time>2019-08-28T13:55:05Z</time>
      </trkpt>
      <trkpt lat="36.4083750" lon="-5.2338520">
        <ele>111.9</ele>
        <time>2019-08-28T13:55:06Z</time>
      </trkpt>
      <trkpt lat="36.4083440" lon="-5.2337810">
        <ele>111.9</ele>
        <time>2019-08-28T13:55:07Z</time>
      </trkpt>
      <trkpt lat="36.4083100" lon="-5.2337120">
        <ele>111.9</ele>
        <time>2019-08-28T13:55:08Z</time>
      </trkpt>
      <trkpt lat="36.4082720" lon="-5.2336450">
        <ele>111.8</ele>
        <time>2019-08-28T13:55:09Z</time>
      </trkpt>
      <trkpt lat="36.4082330" lon="-5.2335820">
        <ele>111.8</ele>
        <time>2019-08-28T13:55:10Z</time>
      </trkpt>
      <trkpt lat="36.4081910" lon="-5.2335210">
        <ele>111.8</ele>
        <time>2019-08-28T13:55:11Z</time>
      </trkpt>
      <trkpt lat="36.4081470" lon="-5.2334630">
        <ele>111.8</ele>
        <time>2019-08-28T13:55:12Z</time>
      </trkpt>
      <trkpt lat="36.4081000" lon="-5.2334090">
        <ele>111.7</ele>
        <time>2019-08-28T13:55:13Z</time>
      </trkpt>
      <trkpt lat="36.4080510" lon="-5.2333570">
        <ele>111.7</ele>
        <time>2019-08-28T13:55:14Z</time>
      </trkpt>
      <trkpt lat="36.4080010" lon="-5.2333080">
        <ele>111.7</ele>
        <time>2019-08-28T13:55:15Z</time>
      </trkpt>
      <trkpt lat="36.4079500" lon="-5.2332590">
        <ele>111.6</ele>
        <time>2019-08-28T13:55:16Z</time>
      </trkpt>
      <trkpt lat="36.4078990" lon="-5.2332100">
        <ele>111.6</ele>
        <time>2019-08-28T13:55:17Z</time>
      </trkpt>
      <trkpt lat="36.4078470" lon="-5.2331620">
        <ele>111.6</ele>
        <time>2019-08-28T13:55:18Z</time>
      </trkpt>
      <trkpt lat="36.4077960" lon="-5.2331120">
        <ele>111.6</ele>
        <time>2019-08-28T13:55:19Z</time>
      </trkpt>
      <trkpt lat="36.4077470" lon="-5.2330590">
        <ele>111.5</ele>
        <time>2019-08-28T13:55:20Z</time>
      </trkpt>
      <trkpt lat="36.4077000" lon="-5.2330040">
        <ele>111.5</ele>
        <time>2019-08-28T13:55:21Z</time>
      </trkpt>
      <trkpt lat="36.4076550" lon="-5.2329450">
        <ele>111.5</ele>
        <time>2019-08-28T13:55:22Z</time>
      </trkpt>
      <trkpt lat="36.4076140" lon="-5.2328830">
        <ele>111.5</ele>
        <time>2019-08-28T13:55:23Z</time>
      </trkpt>
      <trkpt lat="36.4075770" lon="-5.2328180">
        <ele>111.5</ele>
        <time>2019-08-28T13:55:24Z</time>
      </trkpt>
      <trkpt lat="36.4075430" lon="-5.2327490">
        <ele>111.5</ele>
        <time>2019-08-28T13:55:25Z</time>
      </trkpt>
      <trkpt lat="36.4075130" lon="-5.2326800">
        <ele>111.4</ele>
        <time>2019-08-28T13:55:26Z</time>
      </trkpt>
      <trkpt lat="36.4074840" lon="-5.2326090">
        <ele>111.4</ele>
        <time>2019-08-28T13:55:27Z</time>
      </trkpt>
      <trkpt lat="36.4074570" lon="-5.2325390">
        <ele>111.4</ele>
        <time>2019-08-28T13:55:28Z</time>
      </trkpt>
      <trkpt lat="36.4074300" lon="-5.2324690">
        <ele>111.4</ele>
        <time>2019-08-28T13:55:29Z</time>
      </trkpt>
      <trkpt lat="36.4074050" lon="-5.2323990">
        <ele>111.4</ele>
        <time>2019-08-28T13:55:30Z</time>
      </trkpt>
      <trkpt lat="36.4073780" lon="-5.2323300">
        <ele>111.3</ele>
        <time>2019-08-28T13:55:31Z</time>
      </trkpt>
      <trkpt lat="36.4073480" lon="-5.2322630">
        <ele>111.3</ele>
        <time>2019-08-28T13:55:32Z</time>
      </trkpt>
      <trkpt lat="36.4073160" lon="-5.2321980">
        <ele>111.3</ele>
        <time>2019-08-28T13:55:33Z</time>
      </trkpt>
      <trkpt lat="36.4072820" lon="-5.2321370">
        <ele>111.3</ele>
        <time>2019-08-28T13:55:34Z</time>
      </trkpt>
      <trkpt lat="36.4072450" lon="-5.2320780">
        <ele>111.3</ele>
        <time>2019-08-28T13:55:35Z</time>
      </trkpt>
      <trkpt lat="36.4072060" lon="-5.2320230">
        <ele>111.3</ele>
        <time>2019-08-28T13:55:36Z</time>
      </trkpt>
      <trkpt lat="36.4071630" lon="-5.2319720">
        <ele>111.3</ele>
        <time>2019-08-28T13:55:37Z</time>
      </trkpt>
      <trkpt lat="36.4071190" lon="-5.2319240">
        <ele>111.4</ele>
        <time>2019-08-28T13:55:38Z</time>
      </trkpt>
      <trkpt lat="36.4070720" lon="-5.2318800">
        <ele>111.4</ele>
        <time>2019-08-28T13:55:39Z</time>
      </trkpt>
      <trkpt lat="36.4070250" lon="-5.2318390">
        <ele>111.4</ele>
        <time>2019-08-28T13:55:40Z</time>
      </trkpt>
      <trkpt lat="36.4069750" lon="-5.2318010">
        <ele>111.4</ele>
        <time>2019-08-28T13:55:41Z</time>
      </trkpt>
      <trkpt lat="36.4069230" lon="-5.2317680">
        <ele>111.5</ele>
        <time>2019-08-28T13:55:42Z</time>
      </trkpt>
      <trkpt lat="36.4068700" lon="-5.2317380">
        <ele>111.5</ele>
        <time>2019-08-28T13:55:43Z</time>
      </trkpt>
      <trkpt lat="36.4068160" lon="-5.2317120">
        <ele>111.6</ele>
        <time>2019-08-28T13:55:44Z</time>
      </trkpt>
      <trkpt lat="36.4067600" lon="-5.2316900">
        <ele>111.6</ele>
        <time>2019-08-28T13:55:45Z</time>
      </trkpt>
      <trkpt lat="36.4067040" lon="-5.2316740">
        <ele>111.7</ele>
        <time>2019-08-28T13:55:46Z</time>
      </trkpt>
      <trkpt lat="36.4066470" lon="-5.2316630">
        <ele>111.7</ele>
        <time>2019-08-28T13:55:47Z</time>
      </trkpt>
      <trkpt lat="36.4065900" lon="-5.2316570">
        <ele>111.7</ele>
        <time>2019-08-28T13:55:48Z</time>
      </trkpt>
      <trkpt lat="36.4065320" lon="-5.2316560">
        <ele>111.7</ele>
        <time>2019-08-28T13:55:49Z</time>
      </trkpt>
      <trkpt lat="36.4064750" lon="-5.2316600">
        <ele>111.7</ele>
        <time>2019-08-28T13:55:50Z</time>
      </trkpt>
      <trkpt lat="36.4064170" lon="-5.2316670">
        <ele>111.7</ele>
        <time>2019-08-28T13:55:51Z</time>
      </trkpt>
      <trkpt lat="36.4063590" lon="-5.2316760">
        <ele>111.7</ele>
        <time>2019-08-28T13:55:52Z</time>
      </trkpt>
      <trkpt lat="36.4063010" lon="-5.2316890">
        <ele>111.7</ele>
        <time>2019-08-28T13:55:53Z</time>
      </trkpt>
      <trkpt lat="36.4062430" lon="-5.2317030">
        <ele>111.7</ele>
        <time>2019-08-28T13:55:54Z</time>
      </trkpt>
      <trkpt lat="36.4061840" lon="-5.2317180">
        <ele>111.6</ele>
        <time>2019-08-28T13:55:55Z</time>
      </trkpt>
      <trkpt lat="36.4061240" lon="-5.2317340">
        <ele>111.6</ele>
        <time>2019-08-28T13:55:56Z</time>
      </trkpt>
      <trkpt lat="36.4060620" lon="-5.2317510">
        <ele>111.6</ele>
        <time>2019-08-28T13:55:57Z</time>
      </trkpt>
      <trkpt lat="36.4059990" lon="-5.2317670">
        <ele>111.6</ele>
        <time>2019-08-28T13:55:58Z</time>
      </trkpt>
      <trkpt lat="36.4059340" lon="-5.2317830">
        <ele>111.5</ele>
        <time>2019-08-28T13:55:59Z</time>
      </trkpt>
      <trkpt lat="36.4058660" lon="-5.2317970">
        <ele>111.5</ele>
        <time>2019-08-28T13:56:00Z</time>
      </trkpt>
      <trkpt lat="36.4057970" lon="-5.2318070">
        <ele>111.4</ele>
        <time>2019-08-28T13:56:01Z</time>
      </trkpt>
      <trkpt lat="36.4057250" lon="-5.2318110">
        <ele>111.4</ele>
        <time>2019-08-28T13:56:02Z</time>
      </trkpt>
      <trkpt lat="36.4056520" lon="-5.2318090">
        <ele>111.3</ele>
        <time>2019-08-28T13:56:03Z</time>
      </trkpt>
      <trkpt lat="36.4055760" lon="-5.2318020">
        <ele>111.2</ele>
        <time>2019-08-28T13:56:04Z</time>
      </trkpt>
      <trkpt lat="36.4054990" lon="-5.2317860">
        <ele>111.0</ele>
        <time>2019-08-28T13:56:05Z</time>
      </trkpt>
      <trkpt lat="36.4054210" lon="-5.2317640">
        <ele>110.8</ele>
        <time>2019-08-28T13:56:06Z</time>
      </trkpt>
      <trkpt lat="36.4053430" lon="-5.2317320">
        <ele>110.5</ele>
        <time>2019-08-28T13:56:07Z</time>
      </trkpt>
      <trkpt lat="36.4052680" lon="-5.2316960">
        <ele>110.3</ele>
        <time>2019-08-28T13:56:08Z</time>
      </trkpt>
      <trkpt lat="36.4051930" lon="-5.2316520">
        <ele>110.0</ele>
        <time>2019-08-28T13:56:09Z</time>
      </trkpt>
      <trkpt lat="36.4051210" lon="-5.2316020">
        <ele>109.6</ele>
        <time>2019-08-28T13:56:10Z</time>
      </trkpt>
      <trkpt lat="36.4050500" lon="-5.2315460">
        <ele>109.2</ele>
        <time>2019-08-28T13:56:11Z</time>
      </trkpt>
      <trkpt lat="36.4049800" lon="-5.2314890">
        <ele>108.8</ele>
        <time>2019-08-28T13:56:12Z</time>
      </trkpt>
      <trkpt lat="36.4049100" lon="-5.2314310">
        <ele>108.3</ele>
        <time>2019-08-28T13:56:13Z</time>
      </trkpt>
      <trkpt lat="36.4048400" lon="-5.2313710">
        <ele>107.9</ele>
        <time>2019-08-28T13:56:14Z</time>
      </trkpt>
      <trkpt lat="36.4047700" lon="-5.2313120">
        <ele>107.5</ele>
        <time>2019-08-28T13:56:15Z</time>
      </trkpt>
      <trkpt lat="36.4047010" lon="-5.2312520">
        <ele>107.1</ele>
        <time>2019-08-28T13:56:16Z</time>
      </trkpt>
      <trkpt lat="36.4046340" lon="-5.2311930">
        <ele>106.8</ele>
        <time>2019-08-28T13:56:17Z</time>
      </trkpt>
      <trkpt lat="36.4045690" lon="-5.2311350">
        <ele>106.5</ele>
        <time>2019-08-28T13:56:18Z</time>
      </trkpt>
      <trkpt lat="36.4045060" lon="-5.2310770">
        <ele>106.2</ele>
        <time>2019-08-28T13:56:19Z</time>
      </trkpt>
      <trkpt lat="36.4044440" lon="-5.2310200">
        <ele>105.9</ele>
        <time>2019-08-28T13:56:20Z</time>
      </trkpt>
      <trkpt lat="36.4043840" lon="-5.2309640">
        <ele>105.7</ele>
        <time>2019-08-28T13:56:21Z</time>
      </trkpt>
      <trkpt lat="36.4043250" lon="-5.2309090">
        <ele>105.5</ele>
        <time>2019-08-28T13:56:22Z</time>
      </trkpt>
      <trkpt lat="36.4042670" lon="-5.2308540">
        <ele>105.3</ele>
        <time>2019-08-28T13:56:23Z</time>
      </trkpt>
      <trkpt lat="36.4042110" lon="-5.2307980">
        <ele>105.1</ele>
        <time>2019-08-28T13:56:24Z</time>
      </trkpt>
      <trkpt lat="36.4041570" lon="-5.2307420">
        <ele>104.9</ele>
        <time>2019-08-28T13:56:25Z</time>
      </trkpt>
      <trkpt lat="36.4041030" lon="-5.2306860">
        <ele>104.8</ele>
        <time>2019-08-28T13:56:26Z</time>
      </trkpt>
      <trkpt lat="36.4040510" lon="-5.2306310">
        <ele>104.7</ele>
        <time>2019-08-28T13:56:27Z</time>
      </trkpt>
      <trkpt lat="36.4039990" lon="-5.2305770">
        <ele>104.6</ele>
        <time>2019-08-28T13:56:28Z</time>
      </trkpt>
      <trkpt lat="36.4039480" lon="-5.2305230">
        <ele>104.5</ele>
        <time>2019-08-28T13:56:29Z</time>
      </trkpt>
      <trkpt lat="36.4038980" lon="-5.2304670">
        <ele>104.4</ele>
        <time>2019-08-28T13:56:30Z</time>
      </trkpt>
      <trkpt lat="36.4038500" lon="-5.2304100">
        <ele>104.4</ele>
        <time>2019-08-28T13:56:31Z</time>
      </trkpt>
      <trkpt lat="36.4038020" lon="-5.2303510">
        <ele>104.3</ele>
        <time>2019-08-28T13:56:32Z</time>
      </trkpt>
      <trkpt lat="36.4037560" lon="-5.2302920">
        <ele>104.3</ele>
        <time>2019-08-28T13:56:33Z</time>
      </trkpt>
      <trkpt lat="36.4037100" lon="-5.2302300">
        <ele>104.3</ele>
        <time>2019-08-28T13:56:34Z</time>
      </trkpt>
      <trkpt lat="36.4036650" lon="-5.2301670">
        <ele>104.2</ele>
        <time>2019-08-28T13:56:35Z</time>
      </trkpt>
      <trkpt lat="36.4036200" lon="-5.2301000">
        <ele>104.2</ele>
        <time>2019-08-28T13:56:36Z</time>
      </trkpt>
      <trkpt lat="36.4035760" lon="-5.2300320">
        <ele>104.2</ele>
        <time>2019-08-28T13:56:37Z</time>
      </trkpt>
      <trkpt lat="36.4035320" lon="-5.2299620">
        <ele>104.1</ele>
        <time>2019-08-28T13:56:38Z</time>
      </trkpt>
      <trkpt lat="36.4034870" lon="-5.2298910">
        <ele>104.1</ele>
        <time>2019-08-28T13:56:39Z</time>
      </trkpt>
      <trkpt lat="36.4034420" lon="-5.2298190">
        <ele>104.1</ele>
        <time>2019-08-28T13:56:40Z</time>
      </trkpt>
      <trkpt lat="36.4033960" lon="-5.2297480">
        <ele>104.1</ele>
        <time>2019-08-28T13:56:41Z</time>
      </trkpt>
      <trkpt lat="36.4033500" lon="-5.2296760">
        <ele>104.0</ele>
        <time>2019-08-28T13:56:42Z</time>
      </trkpt>
      <trkpt lat="36.4033020" lon="-5.2296040">
        <ele>104.0</ele>
        <time>2019-08-28T13:56:43Z</time>
      </trkpt>
      <trkpt lat="36.4032540" lon="-5.2295290">
        <ele>104.0</ele>
        <time>2019-08-28T13:56:44Z</time>
      </trkpt>
      <trkpt lat="36.4032050" lon="-5.2294530">
        <ele>104.0</ele>
        <time>2019-08-28T13:56:45Z</time>
      </trkpt>
      <trkpt lat="36.4031560" lon="-5.2293760">
        <ele>104.0</ele>
        <time>2019-08-28T13:56:46Z</time>
      </trkpt>
      <trkpt lat="36.4031070" lon="-5.2292980">
        <ele>104.0</ele>
        <time>2019-08-28T13:56:47Z</time>
      </trkpt>
      <trkpt lat="36.4030570" lon="-5.2292200">
        <ele>103.9</ele>
        <time>2019-08-28T13:56:48Z</time>
      </trkpt>
      <trkpt lat="36.4030060" lon="-5.2291420">
        <ele>103.8</ele>
        <time>2019-08-28T13:56:49Z</time>
      </trkpt>
      <trkpt lat="36.4029550" lon="-5.2290630">
        <ele>103.7</ele>
        <time>2019-08-28T13:56:50Z</time>
      </trkpt>
      <trkpt lat="36.4029030" lon="-5.2289840">
        <ele>103.6</ele>
        <time>2019-08-28T13:56:51Z</time>
      </trkpt>
      <trkpt lat="36.4028510" lon="-5.2289040">
        <ele>103.5</ele>
        <time>2019-08-28T13:56:52Z</time>
      </trkpt>
      <trkpt lat="36.4027990" lon="-5.2288240">
        <ele>103.3</ele>
        <time>2019-08-28T13:56:53Z</time>
      </trkpt>
      <trkpt lat="36.4027460" lon="-5.2287450">
        <ele>103.2</ele>
        <time>2019-08-28T13:56:54Z</time>
      </trkpt>
      <trkpt lat="36.4026920" lon="-5.2286670">
        <ele>103.0</ele>
        <time>2019-08-28T13:56:55Z</time>
      </trkpt>
      <trkpt lat="36.4026380" lon="-5.2285920">
        <ele>102.8</ele>
        <time>2019-08-28T13:56:56Z</time>
      </trkpt>
      <trkpt lat="36.4025820" lon="-5.2285190">
        <ele>102.6</ele>
        <time>2019-08-28T13:56:57Z</time>
      </trkpt>
      <trkpt lat="36.4025260" lon="-5.2284490">
        <ele>102.5</ele>
        <time>2019-08-28T13:56:58Z</time>
      </trkpt>
      <trkpt lat="36.4024690" lon="-5.2283800">
        <ele>102.3</ele>
        <time>2019-08-28T13:56:59Z</time>
      </trkpt>
      <trkpt lat="36.4024130" lon="-5.2283130">
        <ele>102.1</ele>
        <time>2019-08-28T13:57:00Z</time>
      </trkpt>
      <trkpt lat="36.4023540" lon="-5.2282490">
        <ele>101.9</ele>
        <time>2019-08-28T13:57:01Z</time>
      </trkpt>
      <trkpt lat="36.4022930" lon="-5.2281890">
        <ele>101.8</ele>
        <time>2019-08-28T13:57:02Z</time>
      </trkpt>
      <trkpt lat="36.4022310" lon="-5.2281320">
        <ele>101.6</ele>
        <time>2019-08-28T13:57:03Z</time>
      </trkpt>
      <trkpt lat="36.4021670" lon="-5.2280760">
        <ele>101.4</ele>
        <time>2019-08-28T13:57:04Z</time>
      </trkpt>
      <trkpt lat="36.4021020" lon="-5.2280230">
        <ele>101.3</ele>
        <time>2019-08-28T13:57:05Z</time>
      </trkpt>
      <trkpt lat="36.4020360" lon="-5.2279710">
        <ele>101.1</ele>
        <time>2019-08-28T13:57:06Z</time>
      </trkpt>
      <trkpt lat="36.4019690" lon="-5.2279210">
        <ele>101.0</ele>
        <time>2019-08-28T13:57:07Z</time>
      </trkpt>
      <trkpt lat="36.4019010" lon="-5.2278740">
        <ele>100.8</ele>
        <time>2019-08-28T13:57:08Z</time>
      </trkpt>
      <trkpt lat="36.4018310" lon="-5.2278300">
        <ele>100.6</ele>
        <time>2019-08-28T13:57:09Z</time>
      </trkpt>
      <trkpt lat="36.4017590" lon="-5.2277890">
        <ele>100.4</ele>
        <time>2019-08-28T13:57:10Z</time>
      </trkpt>
      <trkpt lat="36.4016880" lon="-5.2277500">
        <ele>100.2</ele>
        <time>2019-08-28T13:57:11Z</time>
      </trkpt>
      <trkpt lat="36.4016160" lon="-5.2277120">
        <ele>100.1</ele>
        <time>2019-08-28T13:57:12Z</time>
      </trkpt>
      <trkpt lat="36.4015440" lon="-5.2276740">
        <ele>100.0</ele>
        <time>2019-08-28T13:57:13Z</time>
      </trkpt>
      <trkpt lat="36.4014740" lon="-5.2276360">
        <ele>99.8</ele>
        <time>2019-08-28T13:57:14Z</time>
      </trkpt>
      <trkpt lat="36.4014040" lon="-5.2276000">
        <ele>99.6</ele>
        <time>2019-08-28T13:57:15Z</time>
      </trkpt>
      <trkpt lat="36.4013350" lon="-5.2275650">
        <ele>99.5</ele>
        <time>2019-08-28T13:57:16Z</time>
      </trkpt>
      <trkpt lat="36.4012660" lon="-5.2275320">
        <ele>99.4</ele>
        <time>2019-08-28T13:57:17Z</time>
      </trkpt>
      <trkpt lat="36.4011970" lon="-5.2275010">
        <ele>99.3</ele>
        <time>2019-08-28T13:57:18Z</time>
      </trkpt>
      <trkpt lat="36.4011290" lon="-5.2274700">
        <ele>99.2</ele>
        <time>2019-08-28T13:57:19Z</time>
      </trkpt>
      <trkpt lat="36.4010630" lon="-5.2274400">
        <ele>99.1</ele>
        <time>2019-08-28T13:57:20Z</time>
      </trkpt>
      <trkpt lat="36.4009970" lon="-5.2274100">
        <ele>99.1</ele>
        <time>2019-08-28T13:57:21Z</time>
      </trkpt>
      <trkpt lat="36.4009330" lon="-5.2273800">
        <ele>99.1</ele>
        <time>2019-08-28T13:57:22Z</time>
      </trkpt>
      <trkpt lat="36.4008680" lon="-5.2273490">
        <ele>99.1</ele>
        <time>2019-08-28T13:57:23Z</time>
      </trkpt>
      <trkpt lat="36.4008040" lon="-5.2273170">
        <ele>99.1</ele>
        <time>2019-08-28T13:57:24Z</time>
      </trkpt>
      <trkpt lat="36.4007390" lon="-5.2272860">
        <ele>99.1</ele>
        <time>2019-08-28T13:57:25Z</time>
      </trkpt>
      <trkpt lat="36.4006740" lon="-5.2272550">
        <ele>99.1</ele>
        <time>2019-08-28T13:57:26Z</time>
      </trkpt>
      <trkpt lat="36.4006070" lon="-5.2272240">
        <ele>99.1</ele>
        <time>2019-08-28T13:57:27Z</time>
      </trkpt>
      <trkpt lat="36.4005400" lon="-5.2271930">
        <ele>99.1</ele>
        <time>2019-08-28T13:57:28Z</time>
      </trkpt>
      <trkpt lat="36.4004720" lon="-5.2271620">
        <ele>99.1</ele>
        <time>2019-08-28T13:57:29Z</time>
      </trkpt>
      <trkpt lat="36.4004050" lon="-5.2271310">
        <ele>99.1</ele>
        <time>2019-08-28T13:57:30Z</time>
      </trkpt>
      <trkpt lat="36.4003380" lon="-5.2271000">
        <ele>99.0</ele>
        <time>2019-08-28T13:57:31Z</time>
      </trkpt>
      <trkpt lat="36.4002710" lon="-5.2270690">
        <ele>98.9</ele>
        <time>2019-08-28T13:57:32Z</time>
      </trkpt>
      <trkpt lat="36.4002030" lon="-5.2270370">
        <ele>98.8</ele>
        <time>2019-08-28T13:57:33Z</time>
      </trkpt>
      <trkpt lat="36.4001350" lon="-5.2270060">
        <ele>98.6</ele>
        <time>2019-08-28T13:57:34Z</time>
      </trkpt>
      <trkpt lat="36.4000670" lon="-5.2269740">
        <ele>98.5</ele>
        <time>2019-08-28T13:57:35Z</time>
      </trkpt>
      <trkpt lat="36.3999990" lon="-5.2269430">
        <ele>98.3</ele>
        <time>2019-08-28T13:57:36Z</time>
      </trkpt>
      <trkpt lat="36.3999300" lon="-5.2269110">
        <ele>98.1</ele>
        <time>2019-08-28T13:57:37Z</time>
      </trkpt>
      <trkpt lat="36.3998620" lon="-5.2268790">
        <ele>97.9</ele>
        <time>2019-08-28T13:57:38Z</time>
      </trkpt>
      <trkpt lat="36.3997940" lon="-5.2268470">
        <ele>97.7</ele>
        <time>2019-08-28T13:57:39Z</time>
      </trkpt>
      <trkpt lat="36.3997250" lon="-5.2268140">
        <ele>97.5</ele>
        <time>2019-08-28T13:57:40Z</time>
      </trkpt>
      <trkpt lat="36.3996560" lon="-5.2267810">
        <ele>97.3</ele>
        <time>2019-08-28T13:57:41Z</time>
      </trkpt>
      <trkpt lat="36.3995860" lon="-5.2267480">
        <ele>97.1</ele>
        <time>2019-08-28T13:57:42Z</time>
      </trkpt>
      <trkpt lat="36.3995150" lon="-5.2267150">
        <ele>96.9</ele>
        <time>2019-08-28T13:57:43Z</time>
      </trkpt>
      <trkpt lat="36.3994440" lon="-5.2266810">
        <ele>96.7</ele>
        <time>2019-08-28T13:57:44Z</time>
      </trkpt>
      <trkpt lat="36.3993720" lon="-5.2266460">
        <ele>96.4</ele>
        <time>2019-08-28T13:57:45Z</time>
      </trkpt>
      <trkpt lat="36.3993000" lon="-5.2266100">
        <ele>96.2</ele>
        <time>2019-08-28T13:57:46Z</time>
      </trkpt>
      <trkpt lat="36.3992270" lon="-5.2265740">
        <ele>95.9</ele>
        <time>2019-08-28T13:57:47Z</time>
      </trkpt>
      <trkpt lat="36.3991520" lon="-5.2265400">
        <ele>95.6</ele>
        <time>2019-08-28T13:57:48Z</time>
      </trkpt>
      <trkpt lat="36.3990760" lon="-5.2265070">
        <ele>95.4</ele>
        <time>2019-08-28T13:57:49Z</time>
      </trkpt>
      <trkpt lat="36.3989990" lon="-5.2264730">
        <ele>95.1</ele>
        <time>2019-08-28T13:57:50Z</time>
      </trkpt>
      <trkpt lat="36.3989210" lon="-5.2264380">
        <ele>94.9</ele>
        <time>2019-08-28T13:57:51Z</time>
      </trkpt>
      <trkpt lat="36.3988430" lon="-5.2264050">
        <ele>94.7</ele>
        <time>2019-08-28T13:57:52Z</time>
      </trkpt>
      <trkpt lat="36.3987640" lon="-5.2263710">
        <ele>94.4</ele>
        <time>2019-08-28T13:57:53Z</time>
      </trkpt>
      <trkpt lat="36.3986850" lon="-5.2263380">
        <ele>94.2</ele>
        <time>2019-08-28T13:57:54Z</time>
      </trkpt>
      <trkpt lat="36.3986060" lon="-5.2263040">
        <ele>93.9</ele>
        <time>2019-08-28T13:57:55Z</time>
      </trkpt>
      <trkpt lat="36.3985280" lon="-5.2262690">
        <ele>93.7</ele>
        <time>2019-08-28T13:57:56Z</time>
      </trkpt>
      <trkpt lat="36.3984480" lon="-5.2262350">
        <ele>93.5</ele>
        <time>2019-08-28T13:57:57Z</time>
      </trkpt>
      <trkpt lat="36.3983680" lon="-5.2262000">
        <ele>93.2</ele>
        <time>2019-08-28T13:57:58Z</time>
      </trkpt>
      <trkpt lat="36.3982880" lon="-5.2261670">
        <ele>93.0</ele>
        <time>2019-08-28T13:57:59Z</time>
      </trkpt>
      <trkpt lat="36.3982060" lon="-5.2261360">
        <ele>92.8</ele>
        <time>2019-08-28T13:58:00Z</time>
      </trkpt>
      <trkpt lat="36.3981240" lon="-5.2261050">
        <ele>92.7</ele>
        <time>2019-08-28T13:58:01Z</time>
      </trkpt>
      <trkpt lat="36.3980430" lon="-5.2260750">
        <ele>92.5</ele>
        <time>2019-08-28T13:58:02Z</time>
      </trkpt>
      <trkpt lat="36.3979620" lon="-5.2260440">
        <ele>92.3</ele>
        <time>2019-08-28T13:58:03Z</time>
      </trkpt>
      <trkpt lat="36.3978820" lon="-5.2260120">
        <ele>92.2</ele>
        <time>2019-08-28T13:58:04Z</time>
      </trkpt>
      <trkpt lat="36.3978010" lon="-5.2259800">
        <ele>92.0</ele>
        <time>2019-08-28T13:58:05Z</time>
      </trkpt>
      <trkpt lat="36.3977210" lon="-5.2259510">
        <ele>91.8</ele>
        <time>2019-08-28T13:58:06Z</time>
      </trkpt>
      <trkpt lat="36.3976410" lon="-5.2259230">
        <ele>91.7</ele>
        <time>2019-08-28T13:58:07Z</time>
      </trkpt>
      <trkpt lat="36.3975620" lon="-5.2259000">
        <ele>91.4</ele>
        <time>2019-08-28T13:58:08Z</time>
      </trkpt>
      <trkpt lat="36.3974830" lon="-5.2258810">
        <ele>91.2</ele>
        <time>2019-08-28T13:58:09Z</time>
      </trkpt>
      <trkpt lat="36.3974050" lon="-5.2258700">
        <ele>90.4</ele>
        <time>2019-08-28T13:58:10Z</time>
      </trkpt>
      <trkpt lat="36.3973270" lon="-5.2258620">
        <ele>90.0</ele>
        <time>2019-08-28T13:58:11Z</time>
      </trkpt>
      <trkpt lat="36.3972500" lon="-5.2258500">
        <ele>89.6</ele>
        <time>2019-08-28T13:58:12Z</time>
      </trkpt>
      <trkpt lat="36.3971770" lon="-5.2258240">
        <ele>90.2</ele>
        <time>2019-08-28T13:58:13Z</time>
      </trkpt>
      <trkpt lat="36.3971060" lon="-5.2257850">
        <ele>91.9</ele>
        <time>2019-08-28T13:58:14Z</time>
      </trkpt>
      <trkpt lat="36.3970390" lon="-5.2257370">
        <ele>92.9</ele>
        <time>2019-08-28T13:58:15Z</time>
      </trkpt>
      <trkpt lat="36.3969740" lon="-5.2256890">
        <ele>93.2</ele>
        <time>2019-08-28T13:58:16Z</time>
      </trkpt>
      <trkpt lat="36.3969110" lon="-5.2256440">
        <ele>93.4</ele>
        <time>2019-08-28T13:58:17Z</time>
      </trkpt>
      <trkpt lat="36.3968470" lon="-5.2256020">
        <ele>93.7</ele>
        <time>2019-08-28T13:58:18Z</time>
      </trkpt>
      <trkpt lat="36.3967820" lon="-5.2255620">
        <ele>93.7</ele>
        <time>2019-08-28T13:58:19Z</time>
      </trkpt>
      <trkpt lat="36.3967170" lon="-5.2255240">
        <ele>93.4</ele>
        <time>2019-08-28T13:58:20Z</time>
      </trkpt>
      <trkpt lat="36.3966510" lon="-5.2254870">
        <ele>93.1</ele>
        <time>2019-08-28T13:58:21Z</time>
      </trkpt>
      <trkpt lat="36.3965850" lon="-5.2254500">
        <ele>92.9</ele>
        <time>2019-08-28T13:58:22Z</time>
      </trkpt>
      <trkpt lat="36.3965180" lon="-5.2254120">
        <ele>92.6</ele>
        <time>2019-08-28T13:58:23Z</time>
      </trkpt>
      <trkpt lat="36.3964500" lon="-5.2253730">
        <ele>92.4</ele>
        <time>2019-08-28T13:58:24Z</time>
      </trkpt>
      <trkpt lat="36.3963820" lon="-5.2253340">
        <ele>92.1</ele>
        <time>2019-08-28T13:58:25Z</time>
      </trkpt>
      <trkpt lat="36.3963120" lon="-5.2252960">
        <ele>91.8</ele>
        <time>2019-08-28T13:58:26Z</time>
      </trkpt>
      <trkpt lat="36.3962410" lon="-5.2252580">
        <ele>91.5</ele>
        <time>2019-08-28T13:58:27Z</time>
      </trkpt>
      <trkpt lat="36.3961690" lon="-5.2252190">
        <ele>91.0</ele>
        <time>2019-08-28T13:58:28Z</time>
      </trkpt>
      <trkpt lat="36.3960960" lon="-5.2251790">
        <ele>90.6</ele>
        <time>2019-08-28T13:58:29Z</time>
      </trkpt>
      <trkpt lat="36.3960220" lon="-5.2251380">
        <ele>90.2</ele>
        <time>2019-08-28T13:58:30Z</time>
      </trkpt>
      <trkpt lat="36.3959480" lon="-5.2250960">
        <ele>89.5</ele>
        <time>2019-08-28T13:58:31Z</time>
      </trkpt>
      <trkpt lat="36.3958720" lon="-5.2250550">
        <ele>88.9</ele>
        <time>2019-08-28T13:58:32Z</time>
      </trkpt>
      <trkpt lat="36.3957960" lon="-5.2250120">
        <ele>88.4</ele>
        <time>2019-08-28T13:58:33Z</time>
      </trkpt>
      <trkpt lat="36.3957190" lon="-5.2249700">
        <ele>87.9</ele>
        <time>2019-08-28T13:58:34Z</time>
      </trkpt>
      <trkpt lat="36.3956420" lon="-5.2249270">
        <ele>87.4</ele>
        <time>2019-08-28T13:58:35Z</time>
      </trkpt>
      <trkpt lat="36.3955640" lon="-5.2248840">
        <ele>86.9</ele>
        <time>2019-08-28T13:58:36Z</time>
      </trkpt>
      <trkpt lat="36.3954850" lon="-5.2248400">
        <ele>86.4</ele>
        <time>2019-08-28T13:58:37Z</time>
      </trkpt>
      <trkpt lat="36.3954040" lon="-5.2247950">
        <ele>85.8</ele>
        <time>2019-08-28T13:58:38Z</time>
      </trkpt>
      <trkpt lat="36.3953210" lon="-5.2247500">
        <ele>85.2</ele>
        <time>2019-08-28T13:58:39Z</time>
      </trkpt>
      <trkpt lat="36.3952370" lon="-5.2247040">
        <ele>84.5</ele>
        <time>2019-08-28T13:58:40Z</time>
      </trkpt>
      <trkpt lat="36.3951520" lon="-5.2246580">
        <ele>83.9</ele>
        <time>2019-08-28T13:58:41Z</time>
      </trkpt>
      <trkpt lat="36.3950660" lon="-5.2246110">
        <ele>83.3</ele>
        <time>2019-08-28T13:58:42Z</time>
      </trkpt>
      <trkpt lat="36.3949780" lon="-5.2245630">
        <ele>82.7</ele>
        <time>2019-08-28T13:58:43Z</time>
      </trkpt>
      <trkpt lat="36.3948900" lon="-5.2245140">
        <ele>82.1</ele>
        <time>2019-08-28T13:58:44Z</time>
      </trkpt>
      <trkpt lat="36.3948010" lon="-5.2244640">
        <ele>81.6</ele>
        <time>2019-08-28T13:58:45Z</time>
      </trkpt>
      <trkpt lat="36.3947110" lon="-5.2244140">
        <ele>81.1</ele>
        <time>2019-08-28T13:58:46Z</time>
      </trkpt>
      <trkpt lat="36.3946200" lon="-5.2243640">
        <ele>80.6</ele>
        <time>2019-08-28T13:58:47Z</time>
      </trkpt>
      <trkpt lat="36.3945280" lon="-5.2243130">
        <ele>80.1</ele>
        <time>2019-08-28T13:58:48Z</time>
      </trkpt>
      <trkpt lat="36.3944360" lon="-5.2242610">
        <ele>79.6</ele>
        <time>2019-08-28T13:58:49Z</time>
      </trkpt>
      <trkpt lat="36.3943430" lon="-5.2242080">
        <ele>79.1</ele>
        <time>2019-08-28T13:58:50Z</time>
      </trkpt>
      <trkpt lat="36.3942500" lon="-5.2241570">
        <ele>78.5</ele>
        <time>2019-08-28T13:58:51Z</time>
      </trkpt>
      <trkpt lat="36.3941560" lon="-5.2241060">
        <ele>78.2</ele>
        <time>2019-08-28T13:58:52Z</time>
      </trkpt>
      <trkpt lat="36.3940630" lon="-5.2240550">
        <ele>77.7</ele>
        <time>2019-08-28T13:58:53Z</time>
      </trkpt>
      <trkpt lat="36.3939700" lon="-5.2240030">
        <ele>77.3</ele>
        <time>2019-08-28T13:58:54Z</time>
      </trkpt>
      <trkpt lat="36.3938770" lon="-5.2239500">
        <ele>76.9</ele>
        <time>2019-08-28T13:58:55Z</time>
      </trkpt>
      <trkpt lat="36.3937850" lon="-5.2238970">
        <ele>76.5</ele>
        <time>2019-08-28T13:58:56Z</time>
      </trkpt>
      <trkpt lat="36.3936940" lon="-5.2238450">
        <ele>76.1</ele>
        <time>2019-08-28T13:58:57Z</time>
      </trkpt>
      <trkpt lat="36.3936040" lon="-5.2237950">
        <ele>75.7</ele>
        <time>2019-08-28T13:58:58Z</time>
      </trkpt>
      <trkpt lat="36.3935130" lon="-5.2237460">
        <ele>75.3</ele>
        <time>2019-08-28T13:58:59Z</time>
      </trkpt>
      <trkpt lat="36.3934230" lon="-5.2236970">
        <ele>74.9</ele>
        <time>2019-08-28T13:59:00Z</time>
      </trkpt>
      <trkpt lat="36.3933330" lon="-5.2236490">
        <ele>74.4</ele>
        <time>2019-08-28T13:59:01Z</time>
      </trkpt>
      <trkpt lat="36.3932430" lon="-5.2236010">
        <ele>74.0</ele>
        <time>2019-08-28T13:59:02Z</time>
      </trkpt>
      <trkpt lat="36.3931540" lon="-5.2235540">
        <ele>73.6</ele>
        <time>2019-08-28T13:59:03Z</time>
      </trkpt>
      <trkpt lat="36.3930660" lon="-5.2235060">
        <ele>73.1</ele>
        <time>2019-08-28T13:59:04Z</time>
      </trkpt>
      <trkpt lat="36.3929770" lon="-5.2234580">
        <ele>72.7</ele>
        <time>2019-08-28T13:59:05Z</time>
      </trkpt>
      <trkpt lat="36.3928890" lon="-5.2234090">
        <ele>72.2</ele>
        <time>2019-08-28T13:59:06Z</time>
      </trkpt>
      <trkpt lat="36.3928000" lon="-5.2233600">
        <ele>71.8</ele>
        <time>2019-08-28T13:59:07Z</time>
      </trkpt>
      <trkpt lat="36.3927110" lon="-5.2233100">
        <ele>71.3</ele>
        <time>2019-08-28T13:59:08Z</time>
      </trkpt>
      <trkpt lat="36.3926220" lon="-5.2232600">
        <ele>70.7</ele>
        <time>2019-08-28T13:59:09Z</time>
      </trkpt>
      <trkpt lat="36.3925320" lon="-5.2232110">
        <ele>70.2</ele>
        <time>2019-08-28T13:59:10Z</time>
      </trkpt>
      <trkpt lat="36.3924430" lon="-5.2231630">
        <ele>69.7</ele>
        <time>2019-08-28T13:59:11Z</time>
      </trkpt>
      <trkpt lat="36.3923520" lon="-5.2231140">
        <ele>69.1</ele>
        <time>2019-08-28T13:59:12Z</time>
      </trkpt>
      <trkpt lat="36.3922620" lon="-5.2230640">
        <ele>68.5</ele>
        <time>2019-08-28T13:59:13Z</time>
      </trkpt>
      <trkpt lat="36.3921710" lon="-5.2230130">
        <ele>67.9</ele>
        <time>2019-08-28T13:59:14Z</time>
      </trkpt>
      <trkpt lat="36.3920800" lon="-5.2229620">
        <ele>67.2</ele>
        <time>2019-08-28T13:59:15Z</time>
      </trkpt>
      <trkpt lat="36.3919880" lon="-5.2229090">
        <ele>66.6</ele>
        <time>2019-08-28T13:59:16Z</time>
      </trkpt>
      <trkpt lat="36.3918960" lon="-5.2228570">
        <ele>66.0</ele>
        <time>2019-08-28T13:59:17Z</time>
      </trkpt>
      <trkpt lat="36.3918040" lon="-5.2228040">
        <ele>65.4</ele>
        <time>2019-08-28T13:59:18Z</time>
      </trkpt>
      <trkpt lat="36.3917120" lon="-5.2227510">
        <ele>64.8</ele>
        <time>2019-08-28T13:59:19Z</time>
      </trkpt>
      <trkpt lat="36.3916200" lon="-5.2226990">
        <ele>64.1</ele>
        <time>2019-08-28T13:59:20Z</time>
      </trkpt>
      <trkpt lat="36.3915260" lon="-5.2226490">
        <ele>63.3</ele>
        <time>2019-08-28T13:59:21Z</time>
      </trkpt>
      <trkpt lat="36.3914320" lon="-5.2225990">
        <ele>62.6</ele>
        <time>2019-08-28T13:59:22Z</time>
      </trkpt>
      <trkpt lat="36.3913370" lon="-5.2225480">
        <ele>61.7</ele>
        <time>2019-08-28T13:59:23Z</time>
      </trkpt>
      <trkpt lat="36.3912430" lon="-5.2224960">
        <ele>61.2</ele>
        <time>2019-08-28T13:59:24Z</time>
      </trkpt>
      <trkpt lat="36.3911480" lon="-5.2224440">
        <ele>60.6</ele>
        <time>2019-08-28T13:59:25Z</time>
      </trkpt>
      <trkpt lat="36.3910520" lon="-5.2223920">
        <ele>60.0</ele>
        <time>2019-08-28T13:59:26Z</time>
      </trkpt>
      <trkpt lat="36.3909560" lon="-5.2223400">
        <ele>59.4</ele>
        <time>2019-08-28T13:59:27Z</time>
      </trkpt>
      <trkpt lat="36.3908580" lon="-5.2222870">
        <ele>58.7</ele>
        <time>2019-08-28T13:59:28Z</time>
      </trkpt>
      <trkpt lat="36.3907600" lon="-5.2222340">
        <ele>58.1</ele>
        <time>2019-08-28T13:59:29Z</time>
      </trkpt>
      <trkpt lat="36.3906610" lon="-5.2221790">
        <ele>57.4</ele>
        <time>2019-08-28T13:59:30Z</time>
      </trkpt>
      <trkpt lat="36.3905610" lon="-5.2221250">
        <ele>56.7</ele>
        <time>2019-08-28T13:59:31Z</time>
      </trkpt>
      <trkpt lat="36.3904590" lon="-5.2220700">
        <ele>56.1</ele>
        <time>2019-08-28T13:59:32Z</time>
      </trkpt>
      <trkpt lat="36.3903570" lon="-5.2220150">
        <ele>55.5</ele>
        <time>2019-08-28T13:59:33Z</time>
      </trkpt>
      <trkpt lat="36.3902550" lon="-5.2219600">
        <ele>55.0</ele>
        <time>2019-08-28T13:59:34Z</time>
      </trkpt>
      <trkpt lat="36.3901530" lon="-5.2219030">
        <ele>54.4</ele>
        <time>2019-08-28T13:59:35Z</time>
      </trkpt>
      <trkpt lat="36.3900520" lon="-5.2218470">
        <ele>54.0</ele>
        <time>2019-08-28T13:59:36Z</time>
      </trkpt>
      <trkpt lat="36.3899500" lon="-5.2217920">
        <ele>53.6</ele>
        <time>2019-08-28T13:59:37Z</time>
      </trkpt>
      <trkpt lat="36.3898460" lon="-5.2217460">
        <ele>53.3</ele>
        <time>2019-08-28T13:59:38Z</time>
      </trkpt>
      <trkpt lat="36.3897400" lon="-5.2217080">
        <ele>52.9</ele>
        <time>2019-08-28T13:59:39Z</time>
      </trkpt>
      <trkpt lat="36.3896360" lon="-5.2216730">
        <ele>52.0</ele>
        <time>2019-08-28T13:59:40Z</time>
      </trkpt>
      <trkpt lat="36.3895390" lon="-5.2216270">
        <ele>51.3</ele>
        <time>2019-08-28T13:59:41Z</time>
      </trkpt>
      <trkpt lat="36.3894500" lon="-5.2215650">
        <ele>51.9</ele>
        <time>2019-08-28T13:59:42Z</time>
      </trkpt>
      <trkpt lat="36.3893670" lon="-5.2214920">
        <ele>52.2</ele>
        <time>2019-08-28T13:59:43Z</time>
      </trkpt>
      <trkpt lat="36.3892840" lon="-5.2214240">
        <ele>51.9</ele>
        <time>2019-08-28T13:59:44Z</time>
      </trkpt>
      <trkpt lat="36.3891970" lon="-5.2213650">
        <ele>51.7</ele>
        <time>2019-08-28T13:59:45Z</time>
      </trkpt>
      <trkpt lat="36.3891070" lon="-5.2213140">
        <ele>51.4</ele>
        <time>2019-08-28T13:59:46Z</time>
      </trkpt>
      <trkpt lat="36.3890160" lon="-5.2212690">
        <ele>51.2</ele>
        <time>2019-08-28T13:59:47Z</time>
      </trkpt>
      <trkpt lat="36.3889240" lon="-5.2212270">
        <ele>50.9</ele>
        <time>2019-08-28T13:59:48Z</time>
      </trkpt>
      <trkpt lat="36.3888330" lon="-5.2211900">
        <ele>50.5</ele>
        <time>2019-08-28T13:59:49Z</time>
      </trkpt>
      <trkpt lat="36.3887420" lon="-5.2211580">
        <ele>50.2</ele>
        <time>2019-08-28T13:59:50Z</time>
      </trkpt>
      <trkpt lat="36.3886510" lon="-5.2211300">
        <ele>49.8</ele>
        <time>2019-08-28T13:59:51Z</time>
      </trkpt>
      <trkpt lat="36.3885590" lon="-5.2211060">
        <ele>49.5</ele>
        <time>2019-08-28T13:59:52Z</time>
      </trkpt>
      <trkpt lat="36.3884680" lon="-5.2210830">
        <ele>49.2</ele>
        <time>2019-08-28T13:59:53Z</time>
      </trkpt>
      <trkpt lat="36.3883770" lon="-5.2210610">
        <ele>48.9</ele>
        <time>2019-08-28T13:59:54Z</time>
      </trkpt>
      <trkpt lat="36.3882860" lon="-5.2210390">
        <ele>48.6</ele>
        <time>2019-08-28T13:59:55Z</time>
      </trkpt>
      <trkpt lat="36.3881940" lon="-5.2210160">
        <ele>48.3</ele>
        <time>2019-08-28T13:59:56Z</time>
      </trkpt>
      <trkpt lat="36.3881020" lon="-5.2209940">
        <ele>47.9</ele>
        <time>2019-08-28T13:59:57Z</time>
      </trkpt>
      <trkpt lat="36.3880080" lon="-5.2209700">
        <ele>47.5</ele>
        <time>2019-08-28T13:59:58Z</time>
      </trkpt>
      <trkpt lat="36.3879130" lon="-5.2209430">
        <ele>47.2</ele>
        <time>2019-08-28T13:59:59Z</time>
      </trkpt>
      <trkpt lat="36.3878180" lon="-5.2209130">
        <ele>46.8</ele>
        <time>2019-08-28T14:00:00Z</time>
      </trkpt>
      <trkpt lat="36.3877250" lon="-5.2208770">
        <ele>46.4</ele>
        <time>2019-08-28T14:00:01Z</time>
      </trkpt>
      <trkpt lat="36.3876330" lon="-5.2208330">
        <ele>45.9</ele>
        <time>2019-08-28T14:00:02Z</time>
      </trkpt>
      <trkpt lat="36.3875410" lon="-5.2207810">
        <ele>45.3</ele>
        <time>2019-08-28T14:00:03Z</time>
      </trkpt>
      <trkpt lat="36.3874480" lon="-5.2207240">
        <ele>44.5</ele>
        <time>2019-08-28T14:00:04Z</time>
      </trkpt>
      <trkpt lat="36.3873550" lon="-5.2206610">
        <ele>43.8</ele>
        <time>2019-08-28T14:00:05Z</time>
      </trkpt>
      <trkpt lat="36.3872600" lon="-5.2205960">
        <ele>43.0</ele>
        <time>2019-08-28T14:00:06Z</time>
      </trkpt>
      <trkpt lat="36.3871640" lon="-5.2205310">
        <ele>42.3</ele>
        <time>2019-08-28T14:00:07Z</time>
      </trkpt>
      <trkpt lat="36.3870670" lon="-5.2204660">
        <ele>41.7</ele>
        <time>2019-08-28T14:00:08Z</time>
      </trkpt>
      <trkpt lat="36.3869690" lon="-5.2204000">
        <ele>41.1</ele>
        <time>2019-08-28T14:00:09Z</time>
      </trkpt>
      <trkpt lat="36.3868710" lon="-5.2203340">
        <ele>40.4</ele>
        <time>2019-08-28T14:00:10Z</time>
      </trkpt>
      <trkpt lat="36.3867730" lon="-5.2202670">
        <ele>39.8</ele>
        <time>2019-08-28T14:00:11Z</time>
      </trkpt>
      <trkpt lat="36.3866740" lon="-5.2201970">
        <ele>39.1</ele>
        <time>2019-08-28T14:00:12Z</time>
      </trkpt>
      <trkpt lat="36.3865740" lon="-5.2201250">
        <ele>38.6</ele>
        <time>2019-08-28T14:00:13Z</time>
      </trkpt>
      <trkpt lat="36.3864730" lon="-5.2200530">
        <ele>38.2</ele>
        <time>2019-08-28T14:00:14Z</time>
      </trkpt>
      <trkpt lat="36.3863690" lon="-5.2199800">
        <ele>37.9</ele>
        <time>2019-08-28T14:00:15Z</time>
      </trkpt>
      <trkpt lat="36.3862650" lon="-5.2199050">
        <ele>37.7</ele>
        <time>2019-08-28T14:00:16Z</time>
      </trkpt>
      <trkpt lat="36.3861600" lon="-5.2198290">
        <ele>37.4</ele>
        <time>2019-08-28T14:00:17Z</time>
      </trkpt>
      <trkpt lat="36.3860530" lon="-5.2197520">
        <ele>37.1</ele>
        <time>2019-08-28T14:00:18Z</time>
      </trkpt>
      <trkpt lat="36.3859460" lon="-5.2196750">
        <ele>36.9</ele>
        <time>2019-08-28T14:00:19Z</time>
      </trkpt>
      <trkpt lat="36.3858380" lon="-5.2195970">
        <ele>36.6</ele>
        <time>2019-08-28T14:00:20Z</time>
      </trkpt>
      <trkpt lat="36.3857300" lon="-5.2195200">
        <ele>36.4</ele>
        <time>2019-08-28T14:00:21Z</time>
      </trkpt>
      <trkpt lat="36.3856220" lon="-5.2194430">
        <ele>36.3</ele>
        <time>2019-08-28T14:00:22Z</time>
      </trkpt>
      <trkpt lat="36.3855140" lon="-5.2193660">
        <ele>36.2</ele>
        <time>2019-08-28T14:00:23Z</time>
      </trkpt>
      <trkpt lat="36.3854060" lon="-5.2192880">
        <ele>36.1</ele>
        <time>2019-08-28T14:00:24Z</time>
      </trkpt>
      <trkpt lat="36.3853000" lon="-5.2192100">
        <ele>36.0</ele>
        <time>2019-08-28T14:00:25Z</time>
      </trkpt>
      <trkpt lat="36.3851930" lon="-5.2191320">
        <ele>35.8</ele>
        <time>2019-08-28T14:00:26Z</time>
      </trkpt>
      <trkpt lat="36.3850850" lon="-5.2190560">
        <ele>35.5</ele>
        <time>2019-08-28T14:00:27Z</time>
      </trkpt>
      <trkpt lat="36.3849760" lon="-5.2189810">
        <ele>35.0</ele>
        <time>2019-08-28T14:00:28Z</time>
      </trkpt>
      <trkpt lat="36.3848650" lon="-5.2189090">
        <ele>34.4</ele>
        <time>2019-08-28T14:00:29Z</time>
      </trkpt>
      <trkpt lat="36.3847500" lon="-5.2188420">
        <ele>33.8</ele>
        <time>2019-08-28T14:00:30Z</time>
      </trkpt>
      <trkpt lat="36.3846330" lon="-5.2187850">
        <ele>33.0</ele>
        <time>2019-08-28T14:00:31Z</time>
      </trkpt>
      <trkpt lat="36.3845120" lon="-5.2187360">
        <ele>32.4</ele>
        <time>2019-08-28T14:00:32Z</time>
      </trkpt>
      <trkpt lat="36.3843910" lon="-5.2186940">
        <ele>31.5</ele>
        <time>2019-08-28T14:00:33Z</time>
      </trkpt>
      <trkpt lat="36.3842690" lon="-5.2186570">
        <ele>30.3</ele>
        <time>2019-08-28T14:00:34Z</time>
      </trkpt>
      <trkpt lat="36.3841460" lon="-5.2186250">
        <ele>29.2</ele>
        <time>2019-08-28T14:00:35Z</time>
      </trkpt>
      <trkpt lat="36.3840240" lon="-5.2185960">
        <ele>28.0</ele>
        <time>2019-08-28T14:00:36Z</time>
      </trkpt>
      <trkpt lat="36.3839030" lon="-5.2185680">
        <ele>26.9</ele>
        <time>2019-08-28T14:00:37Z</time>
      </trkpt>
      <trkpt lat="36.3837830" lon="-5.2185390">
        <ele>25.6</ele>
        <time>2019-08-28T14:00:38Z</time>
      </trkpt>
      <trkpt lat="36.3836640" lon="-5.2185090">
        <ele>24.3</ele>
        <time>2019-08-28T14:00:39Z</time>
      </trkpt>
      <trkpt lat="36.3835480" lon="-5.2184730">
        <ele>23.4</ele>
        <time>2019-08-28T14:00:40Z</time>
      </trkpt>
      <trkpt lat="36.3834340" lon="-5.2184320">
        <ele>22.7</ele>
        <time>2019-08-28T14:00:41Z</time>
      </trkpt>
      <trkpt lat="36.3833240" lon="-5.2183870">
        <ele>22.2</ele>
        <time>2019-08-28T14:00:42Z</time>
      </trkpt>
      <trkpt lat="36.3832170" lon="-5.2183400">
        <ele>21.8</ele>
        <time>2019-08-28T14:00:43Z</time>
      </trkpt>
      <trkpt lat="36.3831120" lon="-5.2182870">
        <ele>21.4</ele>
        <time>2019-08-28T14:00:44Z</time>
      </trkpt>
      <trkpt lat="36.3830100" lon="-5.2182260">
        <ele>21.2</ele>
        <time>2019-08-28T14:00:45Z</time>
      </trkpt>
      <trkpt lat="36.3829120" lon="-5.2181620">
        <ele>21.0</ele>
        <time>2019-08-28T14:00:46Z</time>
      </trkpt>
      <trkpt lat="36.3828160" lon="-5.2180990">
        <ele>20.9</ele>
        <time>2019-08-28T14:00:47Z</time>
      </trkpt>
      <trkpt lat="36.3827240" lon="-5.2180390">
        <ele>20.8</ele>
        <time>2019-08-28T14:00:48Z</time>
      </trkpt>
      <trkpt lat="36.3826330" lon="-5.2179840">
        <ele>20.6</ele>
        <time>2019-08-28T14:00:49Z</time>
      </trkpt>
      <trkpt lat="36.3825450" lon="-5.2179310">
        <ele>20.2</ele>
        <time>2019-08-28T14:00:50Z</time>
      </trkpt>
      <trkpt lat="36.3824620" lon="-5.2178730">
        <ele>19.9</ele>
        <time>2019-08-28T14:00:51Z</time>
      </trkpt>
      <trkpt lat="36.3823860" lon="-5.2178050">
        <ele>19.5</ele>
        <time>2019-08-28T14:00:52Z</time>
      </trkpt>
      <trkpt lat="36.3823120" lon="-5.2177360">
        <ele>19.0</ele>
        <time>2019-08-28T14:00:53Z</time>
      </trkpt>
      <trkpt lat="36.3822400" lon="-5.2176710">
        <ele>18.5</ele>
        <time>2019-08-28T14:00:54Z</time>
      </trkpt>
      <trkpt lat="36.3821670" lon="-5.2176110">
        <ele>18.0</ele>
        <time>2019-08-28T14:00:55Z</time>
      </trkpt>
      <trkpt lat="36.3820980" lon="-5.2175540">
        <ele>17.6</ele>
        <time>2019-08-28T14:00:56Z</time>
      </trkpt>
      <trkpt lat="36.3820310" lon="-5.2174970">
        <ele>17.4</ele>
        <time>2019-08-28T14:00:57Z</time>
      </trkpt>
      <trkpt lat="36.3819680" lon="-5.2174420">
        <ele>17.1</ele>
        <time>2019-08-28T14:00:58Z</time>
      </trkpt>
      <trkpt lat="36.3819080" lon="-5.2173890">
        <ele>16.9</ele>
        <time>2019-08-28T14:00:59Z</time>
      </trkpt>
      <trkpt lat="36.3818510" lon="-5.2173380">
        <ele>16.7</ele>
        <time>2019-08-28T14:01:00Z</time>
      </trkpt>
      <trkpt lat="36.3817950" lon="-5.2172920">
        <ele>16.5</ele>
        <time>2019-08-28T14:01:01Z</time>
      </trkpt>
      <trkpt lat="36.3817390" lon="-5.2172520">
        <ele>16.3</ele>
        <time>2019-08-28T14:01:02Z</time>
      </trkpt>
      <trkpt lat="36.3816850" lon="-5.2172140">
        <ele>16.1</ele>
        <time>2019-08-28T14:01:03Z</time>
      </trkpt>
      <trkpt lat="36.3816350" lon="-5.2171740">
        <ele>15.9</ele>
        <time>2019-08-28T14:01:04Z</time>
      </trkpt>
      <trkpt lat="36.3815920" lon="-5.2171250">
        <ele>15.6</ele>
        <time>2019-08-28T14:01:05Z</time>
      </trkpt>
      <trkpt lat="36.3815550" lon="-5.2170710">
        <ele>15.4</ele>
        <time>2019-08-28T14:01:06Z</time>
      </trkpt>
      <trkpt lat="36.3815190" lon="-5.2170160">
        <ele>15.3</ele>
        <time>2019-08-28T14:01:07Z</time>
      </trkpt>
      <trkpt lat="36.3814800" lon="-5.2169660">
        <ele>15.1</ele>
        <time>2019-08-28T14:01:08Z</time>
      </trkpt>
      <trkpt lat="36.3814360" lon="-5.2169220">
        <ele>14.8</ele>
        <time>2019-08-28T14:01:09Z</time>
      </trkpt>
      <trkpt lat="36.3813880" lon="-5.2168840">
        <ele>14.5</ele>
        <time>2019-08-28T14:01:10Z</time>
      </trkpt>
      <trkpt lat="36.3813390" lon="-5.2168470">
        <ele>14.2</ele>
        <time>2019-08-28T14:01:11Z</time>
      </trkpt>
      <trkpt lat="36.3812880" lon="-5.2168110">
        <ele>13.8</ele>
        <time>2019-08-28T14:01:12Z</time>
      </trkpt>
      <trkpt lat="36.3812350" lon="-5.2167740">
        <ele>13.5</ele>
        <time>2019-08-28T14:01:13Z</time>
      </trkpt>
      <trkpt lat="36.3811820" lon="-5.2167390">
        <ele>13.2</ele>
        <time>2019-08-28T14:01:14Z</time>
      </trkpt>
      <trkpt lat="36.3811280" lon="-5.2167060">
        <ele>12.8</ele>
        <time>2019-08-28T14:01:15Z</time>
      </trkpt>
      <trkpt lat="36.3810760" lon="-5.2166780">
        <ele>12.6</ele>
        <time>2019-08-28T14:01:16Z</time>
      </trkpt>
      <trkpt lat="36.3810250" lon="-5.2166540">
        <ele>12.3</ele>
        <time>2019-08-28T14:01:17Z</time>
      </trkpt>
      <trkpt lat="36.3809780" lon="-5.2166360">
        <ele>12.0</ele>
        <time>2019-08-28T14:01:18Z</time>
      </trkpt>
      <trkpt lat="36.3809360" lon="-5.2166240">
        <ele>11.6</ele>
        <time>2019-08-28T14:01:19Z</time>
      </trkpt>
      <trkpt lat="36.3808990" lon="-5.2166200">
        <ele>11.4</ele>
        <time>2019-08-28T14:01:20Z</time>
      </trkpt>
      <trkpt lat="36.3808700" lon="-5.2166190">
        <ele>11.2</ele>
        <time>2019-08-28T14:01:21Z</time>
      </trkpt>
      <trkpt lat="36.3808470" lon="-5.2166200">
        <ele>11.0</ele>
        <time>2019-08-28T14:01:22Z</time>
      </trkpt>
      <trkpt lat="36.3808240" lon="-5.2166200">
        <ele>10.9</ele>
        <time>2019-08-28T14:01:23Z</time>
      </trkpt>
      <trkpt lat="36.3807960" lon="-5.2166210">
        <ele>10.7</ele>
        <time>2019-08-28T14:01:24Z</time>
      </trkpt>
      <trkpt lat="36.3807600" lon="-5.2166230">
        <ele>10.2</ele>
        <time>2019-08-28T14:01:25Z</time>
      </trkpt>
      <trkpt lat="36.3807170" lon="-5.2166240">
        <ele>10.1</ele>
        <time>2019-08-28T14:01:26Z</time>
      </trkpt>
      <trkpt lat="36.3806700" lon="-5.2166190">
        <ele>9.9</ele>
        <time>2019-08-28T14:01:27Z</time>
      </trkpt>
      <trkpt lat="36.3806200" lon="-5.2166040">
        <ele>9.8</ele>
        <time>2019-08-28T14:01:28Z</time>
      </trkpt>
      <trkpt lat="36.3805710" lon="-5.2165740">
        <ele>9.6</ele>
        <time>2019-08-28T14:01:29Z</time>
      </trkpt>
      <trkpt lat="36.3805270" lon="-5.2165230">
        <ele>9.4</ele>
        <time>2019-08-28T14:01:30Z</time>
      </trkpt>
      <trkpt lat="36.3804940" lon="-5.2164590">
        <ele>9.3</ele>
        <time>2019-08-28T14:01:31Z</time>
      </trkpt>
      <trkpt lat="36.3804730" lon="-5.2163880">
        <ele>9.3</ele>
        <time>2019-08-28T14:01:32Z</time>
      </trkpt>
      <trkpt lat="36.3804710" lon="-5.2163220">
        <ele>9.3</ele>
        <time>2019-08-28T14:01:33Z</time>
      </trkpt>
      <trkpt lat="36.3804840" lon="-5.2162560">
        <ele>9.9</ele>
        <time>2019-08-28T14:01:34Z</time>
      </trkpt>
      <trkpt lat="36.3805090" lon="-5.2161940">
        <ele>10.2</ele>
        <time>2019-08-28T14:01:35Z</time>
      </trkpt>
      <trkpt lat="36.3805390" lon="-5.2161350">
        <ele>10.5</ele>
        <time>2019-08-28T14:01:36Z</time>
      </trkpt>
      <trkpt lat="36.3805690" lon="-5.2160800">
        <ele>10.5</ele>
        <time>2019-08-28T14:01:37Z</time>
      </trkpt>
      <trkpt lat="36.3806000" lon="-5.2160250">
        <ele>10.5</ele>
        <time>2019-08-28T14:01:38Z</time>
      </trkpt>
      <trkpt lat="36.3806270" lon="-5.2159690">
        <ele>10.5</ele>
        <time>2019-08-28T14:01:39Z</time>
      </trkpt>
      <trkpt lat="36.3806510" lon="-5.2159130">
        <ele>10.6</ele>
        <time>2019-08-28T14:01:40Z</time>
      </trkpt>
      <trkpt lat="36.3806720" lon="-5.2158550">
        <ele>10.7</ele>
        <time>2019-08-28T14:01:41Z</time>
      </trkpt>
      <trkpt lat="36.3806890" lon="-5.2157960">
        <ele>10.9</ele>
        <time>2019-08-28T14:01:42Z</time>
      </trkpt>
      <trkpt lat="36.3807040" lon="-5.2157360">
        <ele>11.1</ele>
        <time>2019-08-28T14:01:43Z</time>
      </trkpt>
      <trkpt lat="36.3807180" lon="-5.2156770">
        <ele>11.4</ele>
        <time>2019-08-28T14:01:44Z</time>
      </trkpt>
      <trkpt lat="36.3807320" lon="-5.2156170">
        <ele>11.6</ele>
        <time>2019-08-28T14:01:45Z</time>
      </trkpt>
      <trkpt lat="36.3807450" lon="-5.2155580">
        <ele>11.9</ele>
        <time>2019-08-28T14:01:46Z</time>
      </trkpt>
      <trkpt lat="36.3807590" lon="-5.2154980">
        <ele>12.2</ele>
        <time>2019-08-28T14:01:47Z</time>
      </trkpt>
      <trkpt lat="36.3807720" lon="-5.2154390">
        <ele>12.5</ele>
        <time>2019-08-28T14:01:48Z</time>
      </trkpt>
      <trkpt lat="36.3807850" lon="-5.2153800">
        <ele>12.8</ele>
        <time>2019-08-28T14:01:49Z</time>
      </trkpt>
      <trkpt lat="36.3807990" lon="-5.2153220">
        <ele>13.0</ele>
        <time>2019-08-28T14:01:50Z</time>
      </trkpt>
      <trkpt lat="36.3808130" lon="-5.2152640">
        <ele>13.3</ele>
        <time>2019-08-28T14:01:51Z</time>
      </trkpt>
      <trkpt lat="36.3808270" lon="-5.2152060">
        <ele>13.6</ele>
        <time>2019-08-28T14:01:52Z</time>
      </trkpt>
      <trkpt lat="36.3808400" lon="-5.2151460">
        <ele>13.8</ele>
        <time>2019-08-28T14:01:53Z</time>
      </trkpt>
      <trkpt lat="36.3808540" lon="-5.2150870">
        <ele>14.1</ele>
        <time>2019-08-28T14:01:54Z</time>
      </trkpt>
      <trkpt lat="36.3808690" lon="-5.2150260">
        <ele>14.3</ele>
        <time>2019-08-28T14:01:55Z</time>
      </trkpt>
      <trkpt lat="36.3808850" lon="-5.2149650">
        <ele>14.5</ele>
        <time>2019-08-28T14:01:56Z</time>
      </trkpt>
      <trkpt lat="36.3809000" lon="-5.2149010">
        <ele>14.7</ele>
        <time>2019-08-28T14:01:57Z</time>
      </trkpt>
      <trkpt lat="36.3809160" lon="-5.2148360">
        <ele>15.0</ele>
        <time>2019-08-28T14:01:58Z</time>
      </trkpt>
      <trkpt lat="36.3809320" lon="-5.2147700">
        <ele>15.2</ele>
        <time>2019-08-28T14:01:59Z</time>
      </trkpt>
      <trkpt lat="36.3809480" lon="-5.2147020">
        <ele>15.4</ele>
        <time>2019-08-28T14:02:00Z</time>
      </trkpt>
      <trkpt lat="36.3809640" lon="-5.2146340">
        <ele>15.6</ele>
        <time>2019-08-28T14:02:01Z</time>
      </trkpt>
      <trkpt lat="36.3809800" lon="-5.2145650">
        <ele>15.8</ele>
        <time>2019-08-28T14:02:02Z</time>
      </trkpt>
      <trkpt lat="36.3809960" lon="-5.2144960">
        <ele>16.1</ele>
        <time>2019-08-28T14:02:03Z</time>
      </trkpt>
      <trkpt lat="36.3810120" lon="-5.2144280">
        <ele>16.3</ele>
        <time>2019-08-28T14:02:04Z</time>
      </trkpt>
      <trkpt lat="36.3810280" lon="-5.2143600">
        <ele>16.5</ele>
        <time>2019-08-28T14:02:05Z</time>
      </trkpt>
      <trkpt lat="36.3810440" lon="-5.2142910">
        <ele>16.7</ele>
        <time>2019-08-28T14:02:06Z</time>
      </trkpt>
      <trkpt lat="36.3810590" lon="-5.2142220">
        <ele>17.0</ele>
        <time>2019-08-28T14:02:07Z</time>
      </trkpt>
      <trkpt lat="36.3810740" lon="-5.2141520">
        <ele>17.1</ele>
        <time>2019-08-28T14:02:08Z</time>
      </trkpt>
      <trkpt lat="36.3810900" lon="-5.2140810">
        <ele>17.3</ele>
        <time>2019-08-28T14:02:09Z</time>
      </trkpt>
      <trkpt lat="36.3811060" lon="-5.2140110">
        <ele>17.5</ele>
        <time>2019-08-28T14:02:10Z</time>
      </trkpt>
      <trkpt lat="36.3811210" lon="-5.2139400">
        <ele>17.7</ele>
        <time>2019-08-28T14:02:11Z</time>
      </trkpt>
      <trkpt lat="36.3811360" lon="-5.2138680">
        <ele>17.8</ele>
        <time>2019-08-28T14:02:12Z</time>
      </trkpt>
      <trkpt lat="36.3811540" lon="-5.2137960">
        <ele>18.0</ele>
        <time>2019-08-28T14:02:13Z</time>
      </trkpt>
      <trkpt lat="36.3811720" lon="-5.2137230">
        <ele>18.2</ele>
        <time>2019-08-28T14:02:14Z</time>
      </trkpt>
      <trkpt lat="36.3811890" lon="-5.2136500">
        <ele>18.4</ele>
        <time>2019-08-28T14:02:15Z</time>
      </trkpt>
      <trkpt lat="36.3812070" lon="-5.2135750">
        <ele>18.6</ele>
        <time>2019-08-28T14:02:16Z</time>
      </trkpt>
      <trkpt lat="36.3812240" lon="-5.2135000">
        <ele>18.9</ele>
        <time>2019-08-28T14:02:17Z</time>
      </trkpt>
      <trkpt lat="36.3812420" lon="-5.2134250">
        <ele>19.1</ele>
        <time>2019-08-28T14:02:18Z</time>
      </trkpt>
      <trkpt lat="36.3812590" lon="-5.2133510">
        <ele>19.3</ele>
        <time>2019-08-28T14:02:19Z</time>
      </trkpt>
      <trkpt lat="36.3812770" lon="-5.2132770">
        <ele>19.5</ele>
        <time>2019-08-28T14:02:20Z</time>
      </trkpt>
      <trkpt lat="36.3812940" lon="-5.2132030">
        <ele>19.7</ele>
        <time>2019-08-28T14:02:21Z</time>
      </trkpt>
      <trkpt lat="36.3813120" lon="-5.2131290">
        <ele>19.8</ele>
        <time>2019-08-28T14:02:22Z</time>
      </trkpt>
      <trkpt lat="36.3813310" lon="-5.2130560">
        <ele>19.9</ele>
        <time>2019-08-28T14:02:23Z</time>
      </trkpt>
      <trkpt lat="36.3813510" lon="-5.2129830">
        <ele>19.9</ele>
        <time>2019-08-28T14:02:24Z</time>
      </trkpt>
      <trkpt lat="36.3813730" lon="-5.2129100">
        <ele>20.0</ele>
        <time>2019-08-28T14:02:25Z</time>
      </trkpt>
      <trkpt lat="36.3813960" lon="-5.2128370">
        <ele>20.0</ele>
        <time>2019-08-28T14:02:26Z</time>
      </trkpt>
      <trkpt lat="36.3814200" lon="-5.2127660">
        <ele>20.0</ele>
        <time>2019-08-28T14:02:27Z</time>
      </trkpt>
      <trkpt lat="36.3814480" lon="-5.2126940">
        <ele>20.0</ele>
        <time>2019-08-28T14:02:28Z</time>
      </trkpt>
      <trkpt lat="36.3814790" lon="-5.2126220">
        <ele>20.0</ele>
        <time>2019-08-28T14:02:29Z</time>
      </trkpt>
      <trkpt lat="36.3815120" lon="-5.2125500">
        <ele>20.0</ele>
        <time>2019-08-28T14:02:30Z</time>
      </trkpt>
      <trkpt lat="36.3815480" lon="-5.2124790">
        <ele>20.0</ele>
        <time>2019-08-28T14:02:31Z</time>
      </trkpt>
      <trkpt lat="36.3815860" lon="-5.2124070">
        <ele>20.0</ele>
        <time>2019-08-28T14:02:32Z</time>
      </trkpt>
      <trkpt lat="36.3816280" lon="-5.2123370">
        <ele>20.0</ele>
        <time>2019-08-28T14:02:33Z</time>
      </trkpt>
      <trkpt lat="36.3816710" lon="-5.2122670">
        <ele>20.0</ele>
        <time>2019-08-28T14:02:34Z</time>
      </trkpt>
      <trkpt lat="36.3817160" lon="-5.2121990">
        <ele>20.0</ele>
        <time>2019-08-28T14:02:35Z</time>
      </trkpt>
      <trkpt lat="36.3817640" lon="-5.2121320">
        <ele>20.0</ele>
        <time>2019-08-28T14:02:36Z</time>
      </trkpt>
      <trkpt lat="36.3818140" lon="-5.2120660">
        <ele>20.0</ele>
        <time>2019-08-28T14:02:37Z</time>
      </trkpt>
      <trkpt lat="36.3818670" lon="-5.2120010">
        <ele>19.9</ele>
        <time>2019-08-28T14:02:38Z</time>
      </trkpt>
      <trkpt lat="36.3819230" lon="-5.2119390">
        <ele>19.8</ele>
        <time>2019-08-28T14:02:39Z</time>
      </trkpt>
      <trkpt lat="36.3819830" lon="-5.2118780">
        <ele>19.7</ele>
        <time>2019-08-28T14:02:40Z</time>
      </trkpt>
      <trkpt lat="36.3820450" lon="-5.2118190">
        <ele>19.5</ele>
        <time>2019-08-28T14:02:41Z</time>
      </trkpt>
      <trkpt lat="36.3821100" lon="-5.2117640">
        <ele>19.2</ele>
        <time>2019-08-28T14:02:42Z</time>
      </trkpt>
      <trkpt lat="36.3821800" lon="-5.2117120">
        <ele>18.8</ele>
        <time>2019-08-28T14:02:43Z</time>
      </trkpt>
      <trkpt lat="36.3822520" lon="-5.2116630">
        <ele>18.5</ele>
        <time>2019-08-28T14:02:44Z</time>
      </trkpt>
      <trkpt lat="36.3823260" lon="-5.2116170">
        <ele>18.1</ele>
        <time>2019-08-28T14:02:45Z</time>
      </trkpt>
      <trkpt lat="36.3824010" lon="-5.2115740">
        <ele>17.8</ele>
        <time>2019-08-28T14:02:46Z</time>
      </trkpt>
      <trkpt lat="36.3824770" lon="-5.2115350">
        <ele>17.5</ele>
        <time>2019-08-28T14:02:47Z</time>
      </trkpt>
      <trkpt lat="36.3825560" lon="-5.2115000">
        <ele>17.3</ele>
        <time>2019-08-28T14:02:48Z</time>
      </trkpt>
      <trkpt lat="36.3826370" lon="-5.2114680">
        <ele>17.1</ele>
        <time>2019-08-28T14:02:49Z</time>
      </trkpt>
      <trkpt lat="36.3827220" lon="-5.2114410">
        <ele>16.9</ele>
        <time>2019-08-28T14:02:50Z</time>
      </trkpt>
      <trkpt lat="36.3828100" lon="-5.2114170">
        <ele>16.7</ele>
        <time>2019-08-28T14:02:51Z</time>
      </trkpt>
      <trkpt lat="36.3829030" lon="-5.2113960">
        <ele>16.4</ele>
        <time>2019-08-28T14:02:52Z</time>
      </trkpt>
      <trkpt lat="36.3829970" lon="-5.2113770">
        <ele>16.1</ele>
        <time>2019-08-28T14:02:53Z</time>
      </trkpt>
      <trkpt lat="36.3830940" lon="-5.2113580">
        <ele>15.8</ele>
        <time>2019-08-28T14:02:54Z</time>
      </trkpt>
      <trkpt lat="36.3831920" lon="-5.2113390">
        <ele>15.5</ele>
        <time>2019-08-28T14:02:55Z</time>
      </trkpt>
      <trkpt lat="36.3832930" lon="-5.2113180">
        <ele>15.2</ele>
        <time>2019-08-28T14:02:56Z</time>
      </trkpt>
      <trkpt lat="36.3833950" lon="-5.2112930">
        <ele>15.0</ele>
        <time>2019-08-28T14:02:57Z</time>
      </trkpt>
      <trkpt lat="36.3834960" lon="-5.2112640">
        <ele>14.7</ele>
        <time>2019-08-28T14:02:58Z</time>
      </trkpt>
      <trkpt lat="36.3835970" lon="-5.2112290">
        <ele>14.5</ele>
        <time>2019-08-28T14:02:59Z</time>
      </trkpt>
      <trkpt lat="36.3836980" lon="-5.2111860">
        <ele>14.2</ele>
        <time>2019-08-28T14:03:00Z</time>
      </trkpt>
      <trkpt lat="36.3837960" lon="-5.2111370">
        <ele>13.8</ele>
        <time>2019-08-28T14:03:01Z</time>
      </trkpt>
      <trkpt lat="36.3838920" lon="-5.2110810">
        <ele>13.5</ele>
        <time>2019-08-28T14:03:02Z</time>
      </trkpt>
      <trkpt lat="36.3839850" lon="-5.2110170">
        <ele>13.2</ele>
        <time>2019-08-28T14:03:03Z</time>
      </trkpt>
      <trkpt lat="36.3840740" lon="-5.2109450">
        <ele>12.9</ele>
        <time>2019-08-28T14:03:04Z</time>
      </trkpt>
      <trkpt lat="36.3841570" lon="-5.2108690">
        <ele>12.6</ele>
        <time>2019-08-28T14:03:05Z</time>
      </trkpt>
      <trkpt lat="36.3842360" lon="-5.2107880">
        <ele>12.3</ele>
        <time>2019-08-28T14:03:06Z</time>
      </trkpt>
      <trkpt lat="36.3843100" lon="-5.2107040">
        <ele>12.0</ele>
        <time>2019-08-28T14:03:07Z</time>
      </trkpt>
      <trkpt lat="36.3843820" lon="-5.2106160">
        <ele>11.7</ele>
        <time>2019-08-28T14:03:08Z</time>
      </trkpt>
      <trkpt lat="36.3844520" lon="-5.2105280">
        <ele>11.3</ele>
        <time>2019-08-28T14:03:09Z</time>
      </trkpt>
      <trkpt lat="36.3845220" lon="-5.2104400">
        <ele>11.0</ele>
        <time>2019-08-28T14:03:10Z</time>
      </trkpt>
      <trkpt lat="36.3845910" lon="-5.2103530">
        <ele>10.7</ele>
        <time>2019-08-28T14:03:11Z</time>
      </trkpt>
      <trkpt lat="36.3846590" lon="-5.2102680">
        <ele>10.5</ele>
        <time>2019-08-28T14:03:12Z</time>
      </trkpt>
      <trkpt lat="36.3847250" lon="-5.2101860">
        <ele>10.4</ele>
        <time>2019-08-28T14:03:13Z</time>
      </trkpt>
      <trkpt lat="36.3847880" lon="-5.2101060">
        <ele>10.3</ele>
        <time>2019-08-28T14:03:14Z</time>
      </trkpt>
      <trkpt lat="36.3848510" lon="-5.2100260">
        <ele>10.3</ele>
        <time>2019-08-28T14:03:15Z</time>
      </trkpt>
      <trkpt lat="36.3849120" lon="-5.2099490">
        <ele>10.3</ele>
        <time>2019-08-28T14:03:16Z</time>
      </trkpt>
      <trkpt lat="36.3849710" lon="-5.2098720">
        <ele>10.3</ele>
        <time>2019-08-28T14:03:17Z</time>
      </trkpt>
      <trkpt lat="36.3850290" lon="-5.2097970">
        <ele>10.2</ele>
        <time>2019-08-28T14:03:18Z</time>
      </trkpt>
      <trkpt lat="36.3850860" lon="-5.2097230">
        <ele>10.2</ele>
        <time>2019-08-28T14:03:19Z</time>
      </trkpt>
      <trkpt lat="36.3851410" lon="-5.2096510">
        <ele>10.4</ele>
        <time>2019-08-28T14:03:20Z</time>
      </trkpt>
      <trkpt lat="36.3851950" lon="-5.2095800">
        <ele>10.8</ele>
        <time>2019-08-28T14:03:21Z</time>
      </trkpt>
      <trkpt lat="36.3852480" lon="-5.2095110">
        <ele>11.1</ele>
        <time>2019-08-28T14:03:22Z</time>
      </trkpt>
      <trkpt lat="36.3853000" lon="-5.2094450">
        <ele>11.4</ele>
        <time>2019-08-28T14:03:23Z</time>
      </trkpt>
      <trkpt lat="36.3853510" lon="-5.2093810">
        <ele>11.7</ele>
        <time>2019-08-28T14:03:24Z</time>
      </trkpt>
      <trkpt lat="36.3854030" lon="-5.2093190">
        <ele>11.9</ele>
        <time>2019-08-28T14:03:25Z</time>
      </trkpt>
      <trkpt lat="36.3854530" lon="-5.2092580">
        <ele>12.2</ele>
        <time>2019-08-28T14:03:26Z</time>
      </trkpt>
      <trkpt lat="36.3855010" lon="-5.2091980">
        <ele>12.4</ele>
        <time>2019-08-28T14:03:27Z</time>
      </trkpt>
      <trkpt lat="36.3855470" lon="-5.2091380">
        <ele>12.6</ele>
        <time>2019-08-28T14:03:28Z</time>
      </trkpt>
      <trkpt lat="36.3855930" lon="-5.2090790">
        <ele>12.8</ele>
        <time>2019-08-28T14:03:29Z</time>
      </trkpt>
      <trkpt lat="36.3856390" lon="-5.2090220">
        <ele>13.0</ele>
        <time>2019-08-28T14:03:30Z</time>
      </trkpt>
      <trkpt lat="36.3856830" lon="-5.2089650">
        <ele>13.1</ele>
        <time>2019-08-28T14:03:31Z</time>
      </trkpt>
      <trkpt lat="36.3857270" lon="-5.2089090">
        <ele>13.2</ele>
        <time>2019-08-28T14:03:32Z</time>
      </trkpt>
      <trkpt lat="36.3857710" lon="-5.2088540">
        <ele>13.2</ele>
        <time>2019-08-28T14:03:33Z</time>
      </trkpt>
      <trkpt lat="36.3858140" lon="-5.2087990">
        <ele>13.3</ele>
        <time>2019-08-28T14:03:34Z</time>
      </trkpt>
      <trkpt lat="36.3858570" lon="-5.2087460">
        <ele>13.4</ele>
        <time>2019-08-28T14:03:35Z</time>
      </trkpt>
      <trkpt lat="36.3859000" lon="-5.2086920">
        <ele>13.6</ele>
        <time>2019-08-28T14:03:36Z</time>
      </trkpt>
      <trkpt lat="36.3859430" lon="-5.2086380">
        <ele>13.8</ele>
        <time>2019-08-28T14:03:37Z</time>
      </trkpt>
      <trkpt lat="36.3859860" lon="-5.2085840">
        <ele>14.1</ele>
        <time>2019-08-28T14:03:38Z</time>
      </trkpt>
      <trkpt lat="36.3860290" lon="-5.2085290">
        <ele>14.4</ele>
        <time>2019-08-28T14:03:39Z</time>
      </trkpt>
      <trkpt lat="36.3860720" lon="-5.2084750">
        <ele>14.8</ele>
        <time>2019-08-28T14:03:40Z</time>
      </trkpt>
      <trkpt lat="36.3861140" lon="-5.2084210">
        <ele>15.1</ele>
        <time>2019-08-28T14:03:41Z</time>
      </trkpt>
      <trkpt lat="36.3861560" lon="-5.2083680">
        <ele>15.4</ele>
        <time>2019-08-28T14:03:42Z</time>
      </trkpt>
      <trkpt lat="36.3861980" lon="-5.2083160">
        <ele>15.7</ele>
        <time>2019-08-28T14:03:43Z</time>
      </trkpt>
      <trkpt lat="36.3862390" lon="-5.2082650">
        <ele>15.9</ele>
        <time>2019-08-28T14:03:44Z</time>
      </trkpt>
      <trkpt lat="36.3862810" lon="-5.2082160">
        <ele>16.0</ele>
        <time>2019-08-28T14:03:45Z</time>
      </trkpt>
      <trkpt lat="36.3863240" lon="-5.2081670">
        <ele>16.1</ele>
        <time>2019-08-28T14:03:46Z</time>
      </trkpt>
      <trkpt lat="36.3863660" lon="-5.2081170">
        <ele>16.1</ele>
        <time>2019-08-28T14:03:47Z</time>
      </trkpt>
      <trkpt lat="36.3864090" lon="-5.2080680">
        <ele>16.1</ele>
        <time>2019-08-28T14:03:48Z</time>
      </trkpt>
      <trkpt lat="36.3864520" lon="-5.2080190">
        <ele>16.1</ele>
        <time>2019-08-28T14:03:49Z</time>
      </trkpt>
      <trkpt lat="36.3864950" lon="-5.2079710">
        <ele>16.1</ele>
        <time>2019-08-28T14:03:50Z</time>
      </trkpt>
      <trkpt lat="36.3865390" lon="-5.2079240">
        <ele>16.1</ele>
        <time>2019-08-28T14:03:51Z</time>
      </trkpt>
      <trkpt lat="36.3865830" lon="-5.2078780">
        <ele>16.1</ele>
        <time>2019-08-28T14:03:52Z</time>
      </trkpt>
      <trkpt lat="36.3866260" lon="-5.2078320">
        <ele>16.1</ele>
        <time>2019-08-28T14:03:53Z</time>
      </trkpt>
      <trkpt lat="36.3866700" lon="-5.2077870">
        <ele>16.2</ele>
        <time>2019-08-28T14:03:54Z</time>
      </trkpt>
      <trkpt lat="36.3867150" lon="-5.2077420">
        <ele>16.2</ele>
        <time>2019-08-28T14:03:55Z</time>
      </trkpt>
      <trkpt lat="36.3867600" lon="-5.2076970">
        <ele>16.2</ele>
        <time>2019-08-28T14:03:56Z</time>
      </trkpt>
      <trkpt lat="36.3868070" lon="-5.2076520">
        <ele>16.2</ele>
        <time>2019-08-28T14:03:57Z</time>
      </trkpt>
      <trkpt lat="36.3868540" lon="-5.2076060">
        <ele>16.3</ele>
        <time>2019-08-28T14:03:58Z</time>
      </trkpt>
      <trkpt lat="36.3869030" lon="-5.2075610">
        <ele>16.4</ele>
        <time>2019-08-28T14:03:59Z</time>
      </trkpt>
      <trkpt lat="36.3869520" lon="-5.2075150">
        <ele>16.5</ele>
        <time>2019-08-28T14:04:00Z</time>
      </trkpt>
      <trkpt lat="36.3870020" lon="-5.2074700">
        <ele>16.7</ele>
        <time>2019-08-28T14:04:01Z</time>
      </trkpt>
      <trkpt lat="36.3870510" lon="-5.2074250">
        <ele>16.8</ele>
        <time>2019-08-28T14:04:02Z</time>
      </trkpt>
      <trkpt lat="36.3871020" lon="-5.2073810">
        <ele>17.0</ele>
        <time>2019-08-28T14:04:03Z</time>
      </trkpt>
      <trkpt lat="36.3871530" lon="-5.2073380">
        <ele>17.1</ele>
        <time>2019-08-28T14:04:04Z</time>
      </trkpt>
      <trkpt lat="36.3872060" lon="-5.2072950">
        <ele>17.2</ele>
        <time>2019-08-28T14:04:05Z</time>
      </trkpt>
      <trkpt lat="36.3872600" lon="-5.2072510">
        <ele>17.2</ele>
        <time>2019-08-28T14:04:06Z</time>
      </trkpt>
      <trkpt lat="36.3873150" lon="-5.2072080">
        <ele>17.2</ele>
        <time>2019-08-28T14:04:07Z</time>
      </trkpt>
      <trkpt lat="36.3873700" lon="-5.2071640">
        <ele>17.1</ele>
        <time>2019-08-28T14:04:08Z</time>
      </trkpt>
      <trkpt lat="36.3874250" lon="-5.2071190">
        <ele>17.0</ele>
        <time>2019-08-28T14:04:09Z</time>
      </trkpt>
      <trkpt lat="36.3874810" lon="-5.2070740">
        <ele>16.8</ele>
        <time>2019-08-28T14:04:10Z</time>
      </trkpt>
      <trkpt lat="36.3875380" lon="-5.2070280">
        <ele>16.6</ele>
        <time>2019-08-28T14:04:11Z</time>
      </trkpt>
      <trkpt lat="36.3875960" lon="-5.2069810">
        <ele>16.5</ele>
        <time>2019-08-28T14:04:12Z</time>
      </trkpt>
      <trkpt lat="36.3876550" lon="-5.2069330">
        <ele>16.3</ele>
        <time>2019-08-28T14:04:13Z</time>
      </trkpt>
      <trkpt lat="36.3877140" lon="-5.2068830">
        <ele>16.3</ele>
        <time>2019-08-28T14:04:14Z</time>
      </trkpt>
      <trkpt lat="36.3877740" lon="-5.2068320">
        <ele>16.2</ele>
        <time>2019-08-28T14:04:15Z</time>
      </trkpt>
      <trkpt lat="36.3878330" lon="-5.2067820">
        <ele>16.2</ele>
        <time>2019-08-28T14:04:16Z</time>
      </trkpt>
      <trkpt lat="36.3878950" lon="-5.2067320">
        <ele>16.2</ele>
        <time>2019-08-28T14:04:17Z</time>
      </trkpt>
      <trkpt lat="36.3879570" lon="-5.2066820">
        <ele>16.1</ele>
        <time>2019-08-28T14:04:18Z</time>
      </trkpt>
      <trkpt lat="36.3880190" lon="-5.2066330">
        <ele>16.0</ele>
        <time>2019-08-28T14:04:19Z</time>
      </trkpt>
      <trkpt lat="36.3880820" lon="-5.2065820">
        <ele>15.9</ele>
        <time>2019-08-28T14:04:20Z</time>
      </trkpt>
      <trkpt lat="36.3881440" lon="-5.2065320">
        <ele>15.8</ele>
        <time>2019-08-28T14:04:21Z</time>
      </trkpt>
      <trkpt lat="36.3882060" lon="-5.2064810">
        <ele>15.7</ele>
        <time>2019-08-28T14:04:22Z</time>
      </trkpt>
      <trkpt lat="36.3882680" lon="-5.2064320">
        <ele>16.0</ele>
        <time>2019-08-28T14:04:23Z</time>
      </trkpt>
      <trkpt lat="36.3883290" lon="-5.2063840">
        <ele>16.2</ele>
        <time>2019-08-28T14:04:24Z</time>
      </trkpt>
      <trkpt lat="36.3883910" lon="-5.2063360">
        <ele>16.5</ele>
        <time>2019-08-28T14:04:25Z</time>
      </trkpt>
      <trkpt lat="36.3884530" lon="-5.2062890">
        <ele>16.8</ele>
        <time>2019-08-28T14:04:26Z</time>
      </trkpt>
      <trkpt lat="36.3885150" lon="-5.2062430">
        <ele>17.1</ele>
        <time>2019-08-28T14:04:27Z</time>
      </trkpt>
      <trkpt lat="36.3885770" lon="-5.2061970">
        <ele>17.4</ele>
        <time>2019-08-28T14:04:28Z</time>
      </trkpt>
      <trkpt lat="36.3886390" lon="-5.2061520">
        <ele>17.7</ele>
        <time>2019-08-28T14:04:29Z</time>
      </trkpt>
      <trkpt lat="36.3887000" lon="-5.2061070">
        <ele>18.0</ele>
        <time>2019-08-28T14:04:30Z</time>
      </trkpt>
      <trkpt lat="36.3887620" lon="-5.2060630">
        <ele>18.4</ele>
        <time>2019-08-28T14:04:31Z</time>
      </trkpt>
      <trkpt lat="36.3888230" lon="-5.2060190">
        <ele>18.7</ele>
        <time>2019-08-28T14:04:32Z</time>
      </trkpt>
      <trkpt lat="36.3888830" lon="-5.2059760">
        <ele>19.0</ele>
        <time>2019-08-28T14:04:33Z</time>
      </trkpt>
      <trkpt lat="36.3889440" lon="-5.2059320">
        <ele>19.3</ele>
        <time>2019-08-28T14:04:34Z</time>
      </trkpt>
      <trkpt lat="36.3890040" lon="-5.2058880">
        <ele>19.6</ele>
        <time>2019-08-28T14:04:35Z</time>
      </trkpt>
      <trkpt lat="36.3890650" lon="-5.2058430">
        <ele>19.9</ele>
        <time>2019-08-28T14:04:36Z</time>
      </trkpt>
      <trkpt lat="36.3891250" lon="-5.2057980">
        <ele>20.1</ele>
        <time>2019-08-28T14:04:37Z</time>
      </trkpt>
      <trkpt lat="36.3891860" lon="-5.2057530">
        <ele>20.1</ele>
        <time>2019-08-28T14:04:38Z</time>
      </trkpt>
      <trkpt lat="36.3892460" lon="-5.2057070">
        <ele>19.9</ele>
        <time>2019-08-28T14:04:39Z</time>
      </trkpt>
      <trkpt lat="36.3893070" lon="-5.2056600">
        <ele>19.8</ele>
        <time>2019-08-28T14:04:40Z</time>
      </trkpt>
      <trkpt lat="36.3893680" lon="-5.2056120">
        <ele>19.7</ele>
        <time>2019-08-28T14:04:41Z</time>
      </trkpt>
      <trkpt lat="36.3894290" lon="-5.2055640">
        <ele>19.6</ele>
        <time>2019-08-28T14:04:42Z</time>
      </trkpt>
      <trkpt lat="36.3894910" lon="-5.2055170">
        <ele>19.5</ele>
        <time>2019-08-28T14:04:43Z</time>
      </trkpt>
      <trkpt lat="36.3895530" lon="-5.2054690">
        <ele>19.4</ele>
        <time>2019-08-28T14:04:44Z</time>
      </trkpt>
      <trkpt lat="36.3896150" lon="-5.2054220">
        <ele>19.3</ele>
        <time>2019-08-28T14:04:45Z</time>
      </trkpt>
      <trkpt lat="36.3896780" lon="-5.2053740">
        <ele>19.2</ele>
        <time>2019-08-28T14:04:46Z</time>
      </trkpt>
      <trkpt lat="36.3897410" lon="-5.2053270">
        <ele>19.1</ele>
        <time>2019-08-28T14:04:47Z</time>
      </trkpt>
      <trkpt lat="36.3898050" lon="-5.2052800">
        <ele>19.0</ele>
        <time>2019-08-28T14:04:48Z</time>
      </trkpt>
      <trkpt lat="36.3898680" lon="-5.2052340">
        <ele>18.9</ele>
        <time>2019-08-28T14:04:49Z</time>
      </trkpt>
      <trkpt lat="36.3899320" lon="-5.2051880">
        <ele>18.8</ele>
        <time>2019-08-28T14:04:50Z</time>
      </trkpt>
      <trkpt lat="36.3899970" lon="-5.2051430">
        <ele>18.8</ele>
        <time>2019-08-28T14:04:51Z</time>
      </trkpt>
      <trkpt lat="36.3900630" lon="-5.2050990">
        <ele>18.7</ele>
        <time>2019-08-28T14:04:52Z</time>
      </trkpt>
      <trkpt lat="36.3901290" lon="-5.2050560">
        <ele>18.6</ele>
        <time>2019-08-28T14:04:53Z</time>
      </trkpt>
      <trkpt lat="36.3901970" lon="-5.2050130">
        <ele>18.6</ele>
        <time>2019-08-28T14:04:54Z</time>
      </trkpt>
      <trkpt lat="36.3902660" lon="-5.2049730">
        <ele>18.5</ele>
        <time>2019-08-28T14:04:55Z</time>
      </trkpt>
      <trkpt lat="36.3903360" lon="-5.2049330">
        <ele>18.4</ele>
        <time>2019-08-28T14:04:56Z</time>
      </trkpt>
      <trkpt lat="36.3904050" lon="-5.2048930">
        <ele>18.4</ele>
        <time>2019-08-28T14:04:57Z</time>
      </trkpt>
      <trkpt lat="36.3904750" lon="-5.2048540">
        <ele>18.4</ele>
        <time>2019-08-28T14:04:58Z</time>
      </trkpt>
      <trkpt lat="36.3905460" lon="-5.2048170">
        <ele>18.3</ele>
        <time>2019-08-28T14:04:59Z</time>
      </trkpt>
      <trkpt lat="36.3906160" lon="-5.2047810">
        <ele>18.3</ele>
        <time>2019-08-28T14:05:00Z</time>
      </trkpt>
      <trkpt lat="36.3906880" lon="-5.2047450">
        <ele>18.3</ele>
        <time>2019-08-28T14:05:01Z</time>
      </trkpt>
      <trkpt lat="36.3907600" lon="-5.2047120">
        <ele>18.3</ele>
        <time>2019-08-28T14:05:02Z</time>
      </trkpt>
      <trkpt lat="36.3908330" lon="-5.2046800">
        <ele>18.3</ele>
        <time>2019-08-28T14:05:03Z</time>
      </trkpt>
      <trkpt lat="36.3909060" lon="-5.2046490">
        <ele>18.3</ele>
        <time>2019-08-28T14:05:04Z</time>
      </trkpt>
      <trkpt lat="36.3909790" lon="-5.2046200">
        <ele>18.3</ele>
        <time>2019-08-28T14:05:05Z</time>
      </trkpt>
      <trkpt lat="36.3910520" lon="-5.2045920">
        <ele>18.2</ele>
        <time>2019-08-28T14:05:06Z</time>
      </trkpt>
      <trkpt lat="36.3911270" lon="-5.2045650">
        <ele>18.2</ele>
        <time>2019-08-28T14:05:07Z</time>
      </trkpt>
      <trkpt lat="36.3912030" lon="-5.2045370">
        <ele>18.1</ele>
        <time>2019-08-28T14:05:08Z</time>
      </trkpt>
      <trkpt lat="36.3912800" lon="-5.2045080">
        <ele>18.1</ele>
        <time>2019-08-28T14:05:09Z</time>
      </trkpt>
      <trkpt lat="36.3913550" lon="-5.2044760">
        <ele>18.0</ele>
        <time>2019-08-28T14:05:10Z</time>
      </trkpt>
      <trkpt lat="36.3914300" lon="-5.2044390">
        <ele>18.0</ele>
        <time>2019-08-28T14:05:11Z</time>
      </trkpt>
      <trkpt lat="36.3915050" lon="-5.2044000">
        <ele>18.0</ele>
        <time>2019-08-28T14:05:12Z</time>
      </trkpt>
      <trkpt lat="36.3915780" lon="-5.2043570">
        <ele>18.0</ele>
        <time>2019-08-28T14:05:13Z</time>
      </trkpt>
      <trkpt lat="36.3916500" lon="-5.2043120">
        <ele>18.0</ele>
        <time>2019-08-28T14:05:14Z</time>
      </trkpt>
      <trkpt lat="36.3917210" lon="-5.2042640">
        <ele>18.0</ele>
        <time>2019-08-28T14:05:15Z</time>
      </trkpt>
      <trkpt lat="36.3917900" lon="-5.2042160">
        <ele>18.1</ele>
        <time>2019-08-28T14:05:16Z</time>
      </trkpt>
      <trkpt lat="36.3918570" lon="-5.2041660">
        <ele>18.2</ele>
        <time>2019-08-28T14:05:17Z</time>
      </trkpt>
      <trkpt lat="36.3919210" lon="-5.2041150">
        <ele>18.4</ele>
        <time>2019-08-28T14:05:18Z</time>
      </trkpt>
      <trkpt lat="36.3919840" lon="-5.2040600">
        <ele>18.6</ele>
        <time>2019-08-28T14:05:19Z</time>
      </trkpt>
      <trkpt lat="36.3920440" lon="-5.2040040">
        <ele>18.8</ele>
        <time>2019-08-28T14:05:20Z</time>
      </trkpt>
      <trkpt lat="36.3921040" lon="-5.2039460">
        <ele>18.8</ele>
        <time>2019-08-28T14:05:21Z</time>
      </trkpt>
      <trkpt lat="36.3921620" lon="-5.2038860">
        <ele>18.9</ele>
        <time>2019-08-28T14:05:22Z</time>
      </trkpt>
      <trkpt lat="36.3922180" lon="-5.2038240">
        <ele>18.9</ele>
        <time>2019-08-28T14:05:23Z</time>
      </trkpt>
      <trkpt lat="36.3922710" lon="-5.2037590">
        <ele>18.9</ele>
        <time>2019-08-28T14:05:24Z</time>
      </trkpt>
      <trkpt lat="36.3923230" lon="-5.2036920">
        <ele>18.9</ele>
        <time>2019-08-28T14:05:25Z</time>
      </trkpt>
      <trkpt lat="36.3923720" lon="-5.2036240">
        <ele>19.0</ele>
        <time>2019-08-28T14:05:26Z</time>
      </trkpt>
      <trkpt lat="36.3924220" lon="-5.2035540">
        <ele>19.1</ele>
        <time>2019-08-28T14:05:27Z</time>
      </trkpt>
      <trkpt lat="36.3924700" lon="-5.2034850">
        <ele>19.3</ele>
        <time>2019-08-28T14:05:28Z</time>
      </trkpt>
      <trkpt lat="36.3925170" lon="-5.2034150">
        <ele>19.5</ele>
        <time>2019-08-28T14:05:29Z</time>
      </trkpt>
      <trkpt lat="36.3925600" lon="-5.2033420">
        <ele>19.7</ele>
        <time>2019-08-28T14:05:30Z</time>
      </trkpt>
      <trkpt lat="36.3925970" lon="-5.2032650">
        <ele>19.9</ele>
        <time>2019-08-28T14:05:31Z</time>
      </trkpt>
      <trkpt lat="36.3926270" lon="-5.2031830">
        <ele>20.0</ele>
        <time>2019-08-28T14:05:32Z</time>
      </trkpt>
      <trkpt lat="36.3926530" lon="-5.2030990">
        <ele>20.0</ele>
        <time>2019-08-28T14:05:33Z</time>
      </trkpt>
      <trkpt lat="36.3926850" lon="-5.2030180">
        <ele>19.9</ele>
        <time>2019-08-28T14:05:34Z</time>
      </trkpt>
      <trkpt lat="36.3927290" lon="-5.2029440">
        <ele>20.0</ele>
        <time>2019-08-28T14:05:35Z</time>
      </trkpt>
      <trkpt lat="36.3927850" lon="-5.2028810">
        <ele>20.0</ele>
        <time>2019-08-28T14:05:36Z</time>
      </trkpt>
      <trkpt lat="36.3928480" lon="-5.2028260">
        <ele>20.0</ele>
        <time>2019-08-28T14:05:37Z</time>
      </trkpt>
      <trkpt lat="36.3929120" lon="-5.2027740">
        <ele>19.8</ele>
        <time>2019-08-28T14:05:38Z</time>
      </trkpt>
      <trkpt lat="36.3929740" lon="-5.2027170">
        <ele>19.5</ele>
        <time>2019-08-28T14:05:39Z</time>
      </trkpt>
      <trkpt lat="36.3930330" lon="-5.2026530">
        <ele>19.3</ele>
        <time>2019-08-28T14:05:40Z</time>
      </trkpt>
      <trkpt lat="36.3930890" lon="-5.2025820">
        <ele>19.1</ele>
        <time>2019-08-28T14:05:41Z</time>
      </trkpt>
      <trkpt lat="36.3931430" lon="-5.2025070">
        <ele>19.1</ele>
        <time>2019-08-28T14:05:42Z</time>
      </trkpt>
      <trkpt lat="36.3931950" lon="-5.2024310">
        <ele>19.0</ele>
        <time>2019-08-28T14:05:43Z</time>
      </trkpt>
      <trkpt lat="36.3932470" lon="-5.2023540">
        <ele>19.0</ele>
        <time>2019-08-28T14:05:44Z</time>
      </trkpt>
      <trkpt lat="36.3932990" lon="-5.2022770">
        <ele>19.0</ele>
        <time>2019-08-28T14:05:45Z</time>
      </trkpt>
      <trkpt lat="36.3933500" lon="-5.2022000">
        <ele>19.0</ele>
        <time>2019-08-28T14:05:46Z</time>
      </trkpt>
      <trkpt lat="36.3934010" lon="-5.2021240">
        <ele>19.0</ele>
        <time>2019-08-28T14:05:47Z</time>
      </trkpt>
      <trkpt lat="36.3934520" lon="-5.2020490">
        <ele>19.0</ele>
        <time>2019-08-28T14:05:48Z</time>
      </trkpt>
      <trkpt lat="36.3935020" lon="-5.2019750">
        <ele>19.0</ele>
        <time>2019-08-28T14:05:49Z</time>
      </trkpt>
      <trkpt lat="36.3935520" lon="-5.2019020">
        <ele>19.0</ele>
        <time>2019-08-28T14:05:50Z</time>
      </trkpt>
      <trkpt lat="36.3936010" lon="-5.2018280">
        <ele>18.9</ele>
        <time>2019-08-28T14:05:51Z</time>
      </trkpt>
      <trkpt lat="36.3936510" lon="-5.2017550">
        <ele>18.9</ele>
        <time>2019-08-28T14:05:52Z</time>
      </trkpt>
      <trkpt lat="36.3937020" lon="-5.2016820">
        <ele>18.8</ele>
        <time>2019-08-28T14:05:53Z</time>
      </trkpt>
      <trkpt lat="36.3937540" lon="-5.2016090">
        <ele>18.7</ele>
        <time>2019-08-28T14:05:54Z</time>
      </trkpt>
      <trkpt lat="36.3938080" lon="-5.2015350">
        <ele>18.4</ele>
        <time>2019-08-28T14:05:55Z</time>
      </trkpt>
      <trkpt lat="36.3938630" lon="-5.2014610">
        <ele>17.9</ele>
        <time>2019-08-28T14:05:56Z</time>
      </trkpt>
      <trkpt lat="36.3939180" lon="-5.2013850">
        <ele>17.3</ele>
        <time>2019-08-28T14:05:57Z</time>
      </trkpt>
      <trkpt lat="36.3939740" lon="-5.2013070">
        <ele>16.5</ele>
        <time>2019-08-28T14:05:58Z</time>
      </trkpt>
      <trkpt lat="36.3940300" lon="-5.2012280">
        <ele>15.8</ele>
        <time>2019-08-28T14:05:59Z</time>
      </trkpt>
      <trkpt lat="36.3940880" lon="-5.2011500">
        <ele>15.3</ele>
        <time>2019-08-28T14:06:00Z</time>
      </trkpt>
      <trkpt lat="36.3941490" lon="-5.2010730">
        <ele>14.8</ele>
        <time>2019-08-28T14:06:01Z</time>
      </trkpt>
      <trkpt lat="36.3942120" lon="-5.2009990">
        <ele>14.3</ele>
        <time>2019-08-28T14:06:02Z</time>
      </trkpt>
      <trkpt lat="36.3942780" lon="-5.2009270">
        <ele>13.8</ele>
        <time>2019-08-28T14:06:03Z</time>
      </trkpt>
      <trkpt lat="36.3943460" lon="-5.2008560">
        <ele>13.3</ele>
        <time>2019-08-28T14:06:04Z</time>
      </trkpt>
      <trkpt lat="36.3944150" lon="-5.2007860">
        <ele>12.6</ele>
        <time>2019-08-28T14:06:05Z</time>
      </trkpt>
      <trkpt lat="36.3944860" lon="-5.2007150">
        <ele>12.0</ele>
        <time>2019-08-28T14:06:06Z</time>
      </trkpt>
      <trkpt lat="36.3945590" lon="-5.2006440">
        <ele>11.4</ele>
        <time>2019-08-28T14:06:07Z</time>
      </trkpt>
      <trkpt lat="36.3946330" lon="-5.2005730">
        <ele>11.3</ele>
        <time>2019-08-28T14:06:08Z</time>
      </trkpt>
      <trkpt lat="36.3947100" lon="-5.2005020">
        <ele>11.4</ele>
        <time>2019-08-28T14:06:09Z</time>
      </trkpt>
      <trkpt lat="36.3947870" lon="-5.2004300">
        <ele>11.4</ele>
        <time>2019-08-28T14:06:10Z</time>
      </trkpt>
      <trkpt lat="36.3948650" lon="-5.2003570">
        <ele>11.4</ele>
        <time>2019-08-28T14:06:11Z</time>
      </trkpt>
      <trkpt lat="36.3949420" lon="-5.2002830">
        <ele>11.3</ele>
        <time>2019-08-28T14:06:12Z</time>
      </trkpt>
      <trkpt lat="36.3950200" lon="-5.2002100">
        <ele>11.2</ele>
        <time>2019-08-28T14:06:13Z</time>
      </trkpt>
      <trkpt lat="36.3950960" lon="-5.2001370">
        <ele>11.2</ele>
        <time>2019-08-28T14:06:14Z</time>
      </trkpt>
      <trkpt lat="36.3951730" lon="-5.2000640">
        <ele>11.2</ele>
        <time>2019-08-28T14:06:15Z</time>
      </trkpt>
      <trkpt lat="36.3952470" lon="-5.1999920">
        <ele>11.3</ele>
        <time>2019-08-28T14:06:16Z</time>
      </trkpt>
      <trkpt lat="36.3953200" lon="-5.1999210">
        <ele>11.3</ele>
        <time>2019-08-28T14:06:17Z</time>
      </trkpt>
      <trkpt lat="36.3953920" lon="-5.1998490">
        <ele>11.4</ele>
        <time>2019-08-28T14:06:18Z</time>
      </trkpt>
      <trkpt lat="36.3954610" lon="-5.1997780">
        <ele>11.6</ele>
        <time>2019-08-28T14:06:19Z</time>
      </trkpt>
      <trkpt lat="36.3955280" lon="-5.1997070">
        <ele>11.7</ele>
        <time>2019-08-28T14:06:20Z</time>
      </trkpt>
      <trkpt lat="36.3955920" lon="-5.1996350">
        <ele>12.0</ele>
        <time>2019-08-28T14:06:21Z</time>
      </trkpt>
      <trkpt lat="36.3956540" lon="-5.1995620">
        <ele>12.2</ele>
        <time>2019-08-28T14:06:22Z</time>
      </trkpt>
      <trkpt lat="36.3957140" lon="-5.1994900">
        <ele>12.4</ele>
        <time>2019-08-28T14:06:23Z</time>
      </trkpt>
      <trkpt lat="36.3957710" lon="-5.1994180">
        <ele>12.6</ele>
        <time>2019-08-28T14:06:24Z</time>
      </trkpt>
      <trkpt lat="36.3958270" lon="-5.1993450">
        <ele>12.8</ele>
        <time>2019-08-28T14:06:25Z</time>
      </trkpt>
      <trkpt lat="36.3958800" lon="-5.1992730">
        <ele>12.9</ele>
        <time>2019-08-28T14:06:26Z</time>
      </trkpt>
      <trkpt lat="36.3959310" lon="-5.1992010">
        <ele>13.1</ele>
        <time>2019-08-28T14:06:27Z</time>
      </trkpt>
      <trkpt lat="36.3959810" lon="-5.1991300">
        <ele>13.2</ele>
        <time>2019-08-28T14:06:28Z</time>
      </trkpt>
      <trkpt lat="36.3960290" lon="-5.1990580">
        <ele>13.3</ele>
        <time>2019-08-28T14:06:29Z</time>
      </trkpt>
      <trkpt lat="36.3960750" lon="-5.1989880">
        <ele>13.5</ele>
        <time>2019-08-28T14:06:30Z</time>
      </trkpt>
      <trkpt lat="36.3961190" lon="-5.1989170">
        <ele>13.5</ele>
        <time>2019-08-28T14:06:31Z</time>
      </trkpt>
      <trkpt lat="36.3961620" lon="-5.1988470">
        <ele>13.6</ele>
        <time>2019-08-28T14:06:32Z</time>
      </trkpt>
      <trkpt lat="36.3962030" lon="-5.1987760">
        <ele>13.7</ele>
        <time>2019-08-28T14:06:33Z</time>
      </trkpt>
      <trkpt lat="36.3962420" lon="-5.1987060">
        <ele>13.8</ele>
        <time>2019-08-28T14:06:34Z</time>
      </trkpt>
      <trkpt lat="36.3962800" lon="-5.1986350">
        <ele>13.8</ele>
        <time>2019-08-28T14:06:35Z</time>
      </trkpt>
      <trkpt lat="36.3963170" lon="-5.1985650">
        <ele>13.9</ele>
        <time>2019-08-28T14:06:36Z</time>
      </trkpt>
      <trkpt lat="36.3963540" lon="-5.1984970">
        <ele>14.0</ele>
        <time>2019-08-28T14:06:37Z</time>
      </trkpt>
      <trkpt lat="36.3963900" lon="-5.1984290">
        <ele>14.1</ele>
        <time>2019-08-28T14:06:38Z</time>
      </trkpt>
      <trkpt lat="36.3964250" lon="-5.1983610">
        <ele>14.2</ele>
        <time>2019-08-28T14:06:39Z</time>
      </trkpt>
      <trkpt lat="36.3964600" lon="-5.1982930">
        <ele>14.3</ele>
        <time>2019-08-28T14:06:40Z</time>
      </trkpt>
      <trkpt lat="36.3964940" lon="-5.1982250">
        <ele>14.4</ele>
        <time>2019-08-28T14:06:41Z</time>
      </trkpt>
      <trkpt lat="36.3965280" lon="-5.1981560">
        <ele>14.5</ele>
        <time>2019-08-28T14:06:42Z</time>
      </trkpt>
      <trkpt lat="36.3965620" lon="-5.1980880">
        <ele>14.6</ele>
        <time>2019-08-28T14:06:43Z</time>
      </trkpt>
      <trkpt lat="36.3965960" lon="-5.1980200">
        <ele>14.7</ele>
        <time>2019-08-28T14:06:44Z</time>
      </trkpt>
      <trkpt lat="36.3966310" lon="-5.1979510">
        <ele>14.7</ele>
        <time>2019-08-28T14:06:45Z</time>
      </trkpt>
      <trkpt lat="36.3966650" lon="-5.1978810">
        <ele>14.8</ele>
        <time>2019-08-28T14:06:46Z</time>
      </trkpt>
      <trkpt lat="36.3967010" lon="-5.1978110">
        <ele>14.8</ele>
        <time>2019-08-28T14:06:47Z</time>
      </trkpt>
      <trkpt lat="36.3967380" lon="-5.1977410">
        <ele>14.8</ele>
        <time>2019-08-28T14:06:48Z</time>
      </trkpt>
      <trkpt lat="36.3967750" lon="-5.1976700">
        <ele>14.7</ele>
        <time>2019-08-28T14:06:49Z</time>
      </trkpt>
      <trkpt lat="36.3968120" lon="-5.1975980">
        <ele>14.7</ele>
        <time>2019-08-28T14:06:50Z</time>
      </trkpt>
      <trkpt lat="36.3968500" lon="-5.1975270">
        <ele>14.7</ele>
        <time>2019-08-28T14:06:51Z</time>
      </trkpt>
      <trkpt lat="36.3968880" lon="-5.1974560">
        <ele>14.7</ele>
        <time>2019-08-28T14:06:52Z</time>
      </trkpt>
      <trkpt lat="36.3969270" lon="-5.1973840">
        <ele>14.6</ele>
        <time>2019-08-28T14:06:53Z</time>
      </trkpt>
      <trkpt lat="36.3969650" lon="-5.1973130">
        <ele>14.7</ele>
        <time>2019-08-28T14:06:54Z</time>
      </trkpt>
      <trkpt lat="36.3970030" lon="-5.1972410">
        <ele>14.8</ele>
        <time>2019-08-28T14:06:55Z</time>
      </trkpt>
      <trkpt lat="36.3970410" lon="-5.1971690">
        <ele>14.9</ele>
        <time>2019-08-28T14:06:56Z</time>
      </trkpt>
      <trkpt lat="36.3970790" lon="-5.1970960">
        <ele>15.0</ele>
        <time>2019-08-28T14:06:57Z</time>
      </trkpt>
      <trkpt lat="36.3971160" lon="-5.1970220">
        <ele>15.1</ele>
        <time>2019-08-28T14:06:58Z</time>
      </trkpt>
      <trkpt lat="36.3971530" lon="-5.1969470">
        <ele>15.1</ele>
        <time>2019-08-28T14:06:59Z</time>
      </trkpt>
      <trkpt lat="36.3971900" lon="-5.1968720">
        <ele>15.1</ele>
        <time>2019-08-28T14:07:00Z</time>
      </trkpt>
      <trkpt lat="36.3972270" lon="-5.1967960">
        <ele>15.1</ele>
        <time>2019-08-28T14:07:01Z</time>
      </trkpt>
      <trkpt lat="36.3972650" lon="-5.1967190">
        <ele>15.1</ele>
        <time>2019-08-28T14:07:02Z</time>
      </trkpt>
      <trkpt lat="36.3973030" lon="-5.1966410">
        <ele>15.1</ele>
        <time>2019-08-28T14:07:03Z</time>
      </trkpt>
      <trkpt lat="36.3973410" lon="-5.1965630">
        <ele>15.1</ele>
        <time>2019-08-28T14:07:04Z</time>
      </trkpt>
      <trkpt lat="36.3973790" lon="-5.1964850">
        <ele>15.0</ele>
        <time>2019-08-28T14:07:05Z</time>
      </trkpt>
      <trkpt lat="36.3974180" lon="-5.1964070">
        <ele>15.0</ele>
        <time>2019-08-28T14:07:06Z</time>
      </trkpt>
      <trkpt lat="36.3974570" lon="-5.1963300">
        <ele>14.9</ele>
        <time>2019-08-28T14:07:07Z</time>
      </trkpt>
      <trkpt lat="36.3974970" lon="-5.1962530">
        <ele>14.8</ele>
        <time>2019-08-28T14:07:08Z</time>
      </trkpt>
      <trkpt lat="36.3975370" lon="-5.1961770">
        <ele>14.7</ele>
        <time>2019-08-28T14:07:09Z</time>
      </trkpt>
      <trkpt lat="36.3975780" lon="-5.1961010">
        <ele>14.5</ele>
        <time>2019-08-28T14:07:10Z</time>
      </trkpt>
      <trkpt lat="36.3976200" lon="-5.1960250">
        <ele>14.3</ele>
        <time>2019-08-28T14:07:11Z</time>
      </trkpt>
      <trkpt lat="36.3976630" lon="-5.1959500">
        <ele>14.2</ele>
        <time>2019-08-28T14:07:12Z</time>
      </trkpt>
      <trkpt lat="36.3977070" lon="-5.1958750">
        <ele>14.0</ele>
        <time>2019-08-28T14:07:13Z</time>
      </trkpt>
      <trkpt lat="36.3977520" lon="-5.1958020">
        <ele>13.8</ele>
        <time>2019-08-28T14:07:14Z</time>
      </trkpt>
      <trkpt lat="36.3977980" lon="-5.1957290">
        <ele>13.7</ele>
        <time>2019-08-28T14:07:15Z</time>
      </trkpt>
      <trkpt lat="36.3978450" lon="-5.1956570">
        <ele>13.6</ele>
        <time>2019-08-28T14:07:16Z</time>
      </trkpt>
      <trkpt lat="36.3978950" lon="-5.1955870">
        <ele>13.6</ele>
        <time>2019-08-28T14:07:17Z</time>
      </trkpt>
      <trkpt lat="36.3979460" lon="-5.1955190">
        <ele>13.5</ele>
        <time>2019-08-28T14:07:18Z</time>
      </trkpt>
      <trkpt lat="36.3979990" lon="-5.1954520">
        <ele>13.5</ele>
        <time>2019-08-28T14:07:19Z</time>
      </trkpt>
      <trkpt lat="36.3980530" lon="-5.1953860">
        <ele>13.5</ele>
        <time>2019-08-28T14:07:20Z</time>
      </trkpt>
      <trkpt lat="36.3981080" lon="-5.1953220">
        <ele>13.5</ele>
        <time>2019-08-28T14:07:21Z</time>
      </trkpt>
      <trkpt lat="36.3981650" lon="-5.1952610">
        <ele>13.4</ele>
        <time>2019-08-28T14:07:22Z</time>
      </trkpt>
      <trkpt lat="36.3982240" lon="-5.1952030">
        <ele>13.4</ele>
        <time>2019-08-28T14:07:23Z</time>
      </trkpt>
      <trkpt lat="36.3982860" lon="-5.1951480">
        <ele>13.4</ele>
        <time>2019-08-28T14:07:24Z</time>
      </trkpt>
      <trkpt lat="36.3983490" lon="-5.1950950">
        <ele>13.3</ele>
        <time>2019-08-28T14:07:25Z</time>
      </trkpt>
      <trkpt lat="36.3984130" lon="-5.1950450">
        <ele>13.3</ele>
        <time>2019-08-28T14:07:26Z</time>
      </trkpt>
      <trkpt lat="36.3984800" lon="-5.1949980">
        <ele>13.3</ele>
        <time>2019-08-28T14:07:27Z</time>
      </trkpt>
      <trkpt lat="36.3985480" lon="-5.1949550">
        <ele>13.3</ele>
        <time>2019-08-28T14:07:28Z</time>
      </trkpt>
      <trkpt lat="36.3986180" lon="-5.1949150">
        <ele>13.2</ele>
        <time>2019-08-28T14:07:29Z</time>
      </trkpt>
      <trkpt lat="36.3986890" lon="-5.1948780">
        <ele>13.2</ele>
        <time>2019-08-28T14:07:30Z</time>
      </trkpt>
      <trkpt lat="36.3987630" lon="-5.1948450">
        <ele>13.1</ele>
        <time>2019-08-28T14:07:31Z</time>
      </trkpt>
      <trkpt lat="36.3988390" lon="-5.1948160">
        <ele>13.1</ele>
        <time>2019-08-28T14:07:32Z</time>
      </trkpt>
      <trkpt lat="36.3989180" lon="-5.1947930">
        <ele>13.0</ele>
        <time>2019-08-28T14:07:33Z</time>
      </trkpt>
      <trkpt lat="36.3989970" lon="-5.1947740">
        <ele>12.9</ele>
        <time>2019-08-28T14:07:34Z</time>
      </trkpt>
      <trkpt lat="36.3990780" lon="-5.1947580">
        <ele>12.8</ele>
        <time>2019-08-28T14:07:35Z</time>
      </trkpt>
      <trkpt lat="36.3991590" lon="-5.1947460">
        <ele>12.8</ele>
        <time>2019-08-28T14:07:36Z</time>
      </trkpt>
      <trkpt lat="36.3992400" lon="-5.1947380">
        <ele>12.7</ele>
        <time>2019-08-28T14:07:37Z</time>
      </trkpt>
      <trkpt lat="36.3993220" lon="-5.1947330">
        <ele>12.6</ele>
        <time>2019-08-28T14:07:38Z</time>
      </trkpt>
      <trkpt lat="36.3994040" lon="-5.1947320">
        <ele>12.6</ele>
        <time>2019-08-28T14:07:39Z</time>
      </trkpt>
      <trkpt lat="36.3994860" lon="-5.1947350">
        <ele>12.5</ele>
        <time>2019-08-28T14:07:40Z</time>
      </trkpt>
      <trkpt lat="36.3995700" lon="-5.1947410">
        <ele>12.4</ele>
        <time>2019-08-28T14:07:41Z</time>
      </trkpt>
      <trkpt lat="36.3996540" lon="-5.1947500">
        <ele>12.3</ele>
        <time>2019-08-28T14:07:42Z</time>
      </trkpt>
      <trkpt lat="36.3997390" lon="-5.1947600">
        <ele>12.1</ele>
        <time>2019-08-28T14:07:43Z</time>
      </trkpt>
      <trkpt lat="36.3998250" lon="-5.1947720">
        <ele>11.9</ele>
        <time>2019-08-28T14:07:44Z</time>
      </trkpt>
      <trkpt lat="36.3999100" lon="-5.1947860">
        <ele>11.7</ele>
        <time>2019-08-28T14:07:45Z</time>
      </trkpt>
      <trkpt lat="36.3999970" lon="-5.1948010">
        <ele>11.4</ele>
        <time>2019-08-28T14:07:46Z</time>
      </trkpt>
      <trkpt lat="36.4000840" lon="-5.1948180">
        <ele>11.2</ele>
        <time>2019-08-28T14:07:47Z</time>
      </trkpt>
      <trkpt lat="36.4001710" lon="-5.1948340">
        <ele>9.7</ele>
        <time>2019-08-28T14:07:48Z</time>
      </trkpt>
      <trkpt lat="36.4002600" lon="-5.1948510">
        <ele>8.5</ele>
        <time>2019-08-28T14:07:49Z</time>
      </trkpt>
      <trkpt lat="36.4003490" lon="-5.1948680">
        <ele>7.5</ele>
        <time>2019-08-28T14:07:50Z</time>
      </trkpt>
      <trkpt lat="36.4004370" lon="-5.1948860">
        <ele>6.9</ele>
        <time>2019-08-28T14:07:51Z</time>
      </trkpt>
      <trkpt lat="36.4005240" lon="-5.1949050">
        <ele>6.7</ele>
        <time>2019-08-28T14:07:52Z</time>
      </trkpt>
      <trkpt lat="36.4006100" lon="-5.1949250">
        <ele>6.7</ele>
        <time>2019-08-28T14:07:53Z</time>
      </trkpt>
      <trkpt lat="36.4006960" lon="-5.1949450">
        <ele>6.9</ele>
        <time>2019-08-28T14:07:54Z</time>
      </trkpt>
      <trkpt lat="36.4007820" lon="-5.1949650">
        <ele>7.0</ele>
        <time>2019-08-28T14:07:55Z</time>
      </trkpt>
      <trkpt lat="36.4008670" lon="-5.1949840">
        <ele>7.1</ele>
        <time>2019-08-28T14:07:56Z</time>
      </trkpt>
      <trkpt lat="36.4009530" lon="-5.1950030">
        <ele>7.3</ele>
        <time>2019-08-28T14:07:57Z</time>
      </trkpt>
      <trkpt lat="36.4010380" lon="-5.1950200">
        <ele>7.2</ele>
        <time>2019-08-28T14:07:58Z</time>
      </trkpt>
      <trkpt lat="36.4011230" lon="-5.1950370">
        <ele>7.1</ele>
        <time>2019-08-28T14:07:59Z</time>
      </trkpt>
      <trkpt lat="36.4012090" lon="-5.1950510">
        <ele>7.0</ele>
        <time>2019-08-28T14:08:00Z</time>
      </trkpt>
      <trkpt lat="36.4012950" lon="-5.1950640">
        <ele>6.9</ele>
        <time>2019-08-28T14:08:01Z</time>
      </trkpt>
      <trkpt lat="36.4013810" lon="-5.1950760">
        <ele>6.7</ele>
        <time>2019-08-28T14:08:02Z</time>
      </trkpt>
      <trkpt lat="36.4014670" lon="-5.1950860">
        <ele>6.6</ele>
        <time>2019-08-28T14:08:03Z</time>
      </trkpt>
      <trkpt lat="36.4015530" lon="-5.1950940">
        <ele>6.5</ele>
        <time>2019-08-28T14:08:04Z</time>
      </trkpt>
      <trkpt lat="36.4016380" lon="-5.1950990">
        <ele>6.4</ele>
        <time>2019-08-28T14:08:05Z</time>
      </trkpt>
      <trkpt lat="36.4017230" lon="-5.1951010">
        <ele>6.3</ele>
        <time>2019-08-28T14:08:06Z</time>
      </trkpt>
      <trkpt lat="36.4018080" lon="-5.1951010">
        <ele>6.3</ele>
        <time>2019-08-28T14:08:07Z</time>
      </trkpt>
      <trkpt lat="36.4018930" lon="-5.1950980">
        <ele>6.2</ele>
        <time>2019-08-28T14:08:08Z</time>
      </trkpt>
      <trkpt lat="36.4019770" lon="-5.1950920">
        <ele>6.2</ele>
        <time>2019-08-28T14:08:09Z</time>
      </trkpt>
      <trkpt lat="36.4020610" lon="-5.1950840">
        <ele>6.1</ele>
        <time>2019-08-28T14:08:10Z</time>
      </trkpt>
      <trkpt lat="36.4021440" lon="-5.1950740">
        <ele>6.1</ele>
        <time>2019-08-28T14:08:11Z</time>
      </trkpt>
      <trkpt lat="36.4022270" lon="-5.1950600">
        <ele>6.0</ele>
        <time>2019-08-28T14:08:12Z</time>
      </trkpt>
      <trkpt lat="36.4023090" lon="-5.1950450">
        <ele>6.0</ele>
        <time>2019-08-28T14:08:13Z</time>
      </trkpt>
      <trkpt lat="36.4023910" lon="-5.1950270">
        <ele>6.0</ele>
        <time>2019-08-28T14:08:14Z</time>
      </trkpt>
      <trkpt lat="36.4024720" lon="-5.1950050">
        <ele>5.9</ele>
        <time>2019-08-28T14:08:15Z</time>
      </trkpt>
      <trkpt lat="36.4025530" lon="-5.1949820">
        <ele>5.9</ele>
        <time>2019-08-28T14:08:16Z</time>
      </trkpt>
      <trkpt lat="36.4026330" lon="-5.1949560">
        <ele>5.8</ele>
        <time>2019-08-28T14:08:17Z</time>
      </trkpt>
      <trkpt lat="36.4027120" lon="-5.1949280">
        <ele>5.8</ele>
        <time>2019-08-28T14:08:18Z</time>
      </trkpt>
      <trkpt lat="36.4027900" lon="-5.1948990">
        <ele>5.8</ele>
        <time>2019-08-28T14:08:19Z</time>
      </trkpt>
      <trkpt lat="36.4028670" lon="-5.1948660">
        <ele>5.8</ele>
        <time>2019-08-28T14:08:20Z</time>
      </trkpt>
      <trkpt lat="36.4029410" lon="-5.1948300">
        <ele>5.9</ele>
        <time>2019-08-28T14:08:21Z</time>
      </trkpt>
      <trkpt lat="36.4030150" lon="-5.1947910">
        <ele>6.1</ele>
        <time>2019-08-28T14:08:22Z</time>
      </trkpt>
      <trkpt lat="36.4030870" lon="-5.1947500">
        <ele>6.4</ele>
        <time>2019-08-28T14:08:23Z</time>
      </trkpt>
      <trkpt lat="36.4031590" lon="-5.1947070">
        <ele>6.7</ele>
        <time>2019-08-28T14:08:24Z</time>
      </trkpt>
      <trkpt lat="36.4032290" lon="-5.1946620">
        <ele>7.0</ele>
        <time>2019-08-28T14:08:25Z</time>
      </trkpt>
      <trkpt lat="36.4032980" lon="-5.1946150">
        <ele>7.3</ele>
        <time>2019-08-28T14:08:26Z</time>
      </trkpt>
      <trkpt lat="36.4033660" lon="-5.1945660">
        <ele>7.5</ele>
        <time>2019-08-28T14:08:27Z</time>
      </trkpt>
      <trkpt lat="36.4034320" lon="-5.1945150">
        <ele>7.7</ele>
        <time>2019-08-28T14:08:28Z</time>
      </trkpt>
      <trkpt lat="36.4034980" lon="-5.1944620">
        <ele>7.8</ele>
        <time>2019-08-28T14:08:29Z</time>
      </trkpt>
      <trkpt lat="36.4035620" lon="-5.1944070">
        <ele>8.0</ele>
        <time>2019-08-28T14:08:30Z</time>
      </trkpt>
      <trkpt lat="36.4036270" lon="-5.1943520">
        <ele>8.2</ele>
        <time>2019-08-28T14:08:31Z</time>
      </trkpt>
      <trkpt lat="36.4036900" lon="-5.1942960">
        <ele>8.5</ele>
        <time>2019-08-28T14:08:32Z</time>
      </trkpt>
      <trkpt lat="36.4037520" lon="-5.1942390">
        <ele>8.8</ele>
        <time>2019-08-28T14:08:33Z</time>
      </trkpt>
      <trkpt lat="36.4038140" lon="-5.1941810">
        <ele>9.0</ele>
        <time>2019-08-28T14:08:34Z</time>
      </trkpt>
      <trkpt lat="36.4038750" lon="-5.1941220">
        <ele>9.3</ele>
        <time>2019-08-28T14:08:35Z</time>
      </trkpt>
      <trkpt lat="36.4039330" lon="-5.1940620">
        <ele>9.5</ele>
        <time>2019-08-28T14:08:36Z</time>
      </trkpt>
      <trkpt lat="36.4039910" lon="-5.1940020">
        <ele>9.7</ele>
        <time>2019-08-28T14:08:37Z</time>
      </trkpt>
      <trkpt lat="36.4040470" lon="-5.1939420">
        <ele>9.7</ele>
        <time>2019-08-28T14:08:38Z</time>
      </trkpt>
      <trkpt lat="36.4041010" lon="-5.1938790">
        <ele>9.6</ele>
        <time>2019-08-28T14:08:39Z</time>
      </trkpt>
      <trkpt lat="36.4041500" lon="-5.1938110">
        <ele>9.4</ele>
        <time>2019-08-28T14:08:40Z</time>
      </trkpt>
      <trkpt lat="36.4041930" lon="-5.1937370">
        <ele>9.2</ele>
        <time>2019-08-28T14:08:41Z</time>
      </trkpt>
      <trkpt lat="36.4042270" lon="-5.1936570">
        <ele>9.1</ele>
        <time>2019-08-28T14:08:42Z</time>
      </trkpt>
      <trkpt lat="36.4042530" lon="-5.1935740">
        <ele>8.5</ele>
        <time>2019-08-28T14:08:43Z</time>
      </trkpt>
      <trkpt lat="36.4042770" lon="-5.1934910">
        <ele>8.3</ele>
        <time>2019-08-28T14:08:44Z</time>
      </trkpt>
      <trkpt lat="36.4043090" lon="-5.1934130">
        <ele>8.1</ele>
        <time>2019-08-28T14:08:45Z</time>
      </trkpt>
      <trkpt lat="36.4043540" lon="-5.1933480">
        <ele>7.9</ele>
        <time>2019-08-28T14:08:46Z</time>
      </trkpt>
      <trkpt lat="36.4044110" lon="-5.1932970">
        <ele>7.7</ele>
        <time>2019-08-28T14:08:47Z</time>
      </trkpt>
      <trkpt lat="36.4044750" lon="-5.1932540">
        <ele>7.6</ele>
        <time>2019-08-28T14:08:48Z</time>
      </trkpt>
      <trkpt lat="36.4045380" lon="-5.1932080">
        <ele>7.8</ele>
        <time>2019-08-28T14:08:49Z</time>
      </trkpt>
      <trkpt lat="36.4045980" lon="-5.1931520">
        <ele>7.9</ele>
        <time>2019-08-28T14:08:50Z</time>
      </trkpt>
      <trkpt lat="36.4046530" lon="-5.1930890">
        <ele>8.1</ele>
        <time>2019-08-28T14:08:51Z</time>
      </trkpt>
      <trkpt lat="36.4047060" lon="-5.1930210">
        <ele>8.2</ele>
        <time>2019-08-28T14:08:52Z</time>
      </trkpt>
      <trkpt lat="36.4047550" lon="-5.1929510">
        <ele>8.4</ele>
        <time>2019-08-28T14:08:53Z</time>
      </trkpt>
      <trkpt lat="36.4048030" lon="-5.1928780">
        <ele>8.5</ele>
        <time>2019-08-28T14:08:54Z</time>
      </trkpt>
      <trkpt lat="36.4048500" lon="-5.1928050">
        <ele>8.6</ele>
        <time>2019-08-28T14:08:55Z</time>
      </trkpt>
      <trkpt lat="36.4048970" lon="-5.1927290">
        <ele>8.7</ele>
        <time>2019-08-28T14:08:56Z</time>
      </trkpt>
      <trkpt lat="36.4049440" lon="-5.1926530">
        <ele>8.7</ele>
        <time>2019-08-28T14:08:57Z</time>
      </trkpt>
      <trkpt lat="36.4049910" lon="-5.1925760">
        <ele>8.7</ele>
        <time>2019-08-28T14:08:58Z</time>
      </trkpt>
      <trkpt lat="36.4050380" lon="-5.1924980">
        <ele>8.7</ele>
        <time>2019-08-28T14:08:59Z</time>
      </trkpt>
      <trkpt lat="36.4050860" lon="-5.1924190">
        <ele>8.7</ele>
        <time>2019-08-28T14:09:00Z</time>
      </trkpt>
      <trkpt lat="36.4051350" lon="-5.1923400">
        <ele>8.6</ele>
        <time>2019-08-28T14:09:01Z</time>
      </trkpt>
      <trkpt lat="36.4051830" lon="-5.1922610">
        <ele>8.6</ele>
        <time>2019-08-28T14:09:02Z</time>
      </trkpt>
      <trkpt lat="36.4052310" lon="-5.1921830">
        <ele>8.5</ele>
        <time>2019-08-28T14:09:03Z</time>
      </trkpt>
      <trkpt lat="36.4052790" lon="-5.1921050">
        <ele>8.5</ele>
        <time>2019-08-28T14:09:04Z</time>
      </trkpt>
      <trkpt lat="36.4053270" lon="-5.1920270">
        <ele>8.5</ele>
        <time>2019-08-28T14:09:05Z</time>
      </trkpt>
      <trkpt lat="36.4053750" lon="-5.1919490">
        <ele>8.5</ele>
        <time>2019-08-28T14:09:06Z</time>
      </trkpt>
      <trkpt lat="36.4054230" lon="-5.1918710">
        <ele>8.6</ele>
        <time>2019-08-28T14:09:07Z</time>
      </trkpt>
      <trkpt lat="36.4054710" lon="-5.1917930">
        <ele>8.7</ele>
        <time>2019-08-28T14:09:08Z</time>
      </trkpt>
      <trkpt lat="36.4055190" lon="-5.1917140">
        <ele>8.8</ele>
        <time>2019-08-28T14:09:09Z</time>
      </trkpt>
      <trkpt lat="36.4055670" lon="-5.1916340">
        <ele>8.9</ele>
        <time>2019-08-28T14:09:10Z</time>
      </trkpt>
      <trkpt lat="36.4056160" lon="-5.1915540">
        <ele>9.1</ele>
        <time>2019-08-28T14:09:11Z</time>
      </trkpt>
      <trkpt lat="36.4056650" lon="-5.1914730">
        <ele>9.2</ele>
        <time>2019-08-28T14:09:12Z</time>
      </trkpt>
      <trkpt lat="36.4057150" lon="-5.1913910">
        <ele>9.3</ele>
        <time>2019-08-28T14:09:13Z</time>
      </trkpt>
      <trkpt lat="36.4057650" lon="-5.1913090">
        <ele>9.5</ele>
        <time>2019-08-28T14:09:14Z</time>
      </trkpt>
      <trkpt lat="36.4058150" lon="-5.1912280">
        <ele>9.6</ele>
        <time>2019-08-28T14:09:15Z</time>
      </trkpt>
      <trkpt lat="36.4058640" lon="-5.1911460">
        <ele>9.8</ele>
        <time>2019-08-28T14:09:16Z</time>
      </trkpt>
      <trkpt lat="36.4059130" lon="-5.1910650">
        <ele>9.9</ele>
        <time>2019-08-28T14:09:17Z</time>
      </trkpt>
      <trkpt lat="36.4059620" lon="-5.1909840">
        <ele>10.1</ele>
        <time>2019-08-28T14:09:18Z</time>
      </trkpt>
      <trkpt lat="36.4060110" lon="-5.1909050">
        <ele>10.2</ele>
        <time>2019-08-28T14:09:19Z</time>
      </trkpt>
      <trkpt lat="36.4060590" lon="-5.1908260">
        <ele>10.4</ele>
        <time>2019-08-28T14:09:20Z</time>
      </trkpt>
      <trkpt lat="36.4061070" lon="-5.1907490">
        <ele>10.5</ele>
        <time>2019-08-28T14:09:21Z</time>
      </trkpt>
      <trkpt lat="36.4061550" lon="-5.1906730">
        <ele>10.7</ele>
        <time>2019-08-28T14:09:22Z</time>
      </trkpt>
      <trkpt lat="36.4062030" lon="-5.1905970">
        <ele>10.8</ele>
        <time>2019-08-28T14:09:23Z</time>
      </trkpt>
      <trkpt lat="36.4062500" lon="-5.1905230">
        <ele>11.0</ele>
        <time>2019-08-28T14:09:24Z</time>
      </trkpt>
      <trkpt lat="36.4062970" lon="-5.1904490">
        <ele>11.1</ele>
        <time>2019-08-28T14:09:25Z</time>
      </trkpt>
      <trkpt lat="36.4063440" lon="-5.1903770">
        <ele>11.3</ele>
        <time>2019-08-28T14:09:26Z</time>
      </trkpt>
      <trkpt lat="36.4063910" lon="-5.1903050">
        <ele>11.4</ele>
        <time>2019-08-28T14:09:27Z</time>
      </trkpt>
      <trkpt lat="36.4064380" lon="-5.1902330">
        <ele>11.6</ele>
        <time>2019-08-28T14:09:28Z</time>
      </trkpt>
      <trkpt lat="36.4064850" lon="-5.1901630">
        <ele>11.7</ele>
        <time>2019-08-28T14:09:29Z</time>
      </trkpt>
      <trkpt lat="36.4065310" lon="-5.1900930">
        <ele>11.9</ele>
        <time>2019-08-28T14:09:30Z</time>
      </trkpt>
      <trkpt lat="36.4065780" lon="-5.1900250">
        <ele>12.0</ele>
        <time>2019-08-28T14:09:31Z</time>
      </trkpt>
      <trkpt lat="36.4066240" lon="-5.1899570">
        <ele>12.1</ele>
        <time>2019-08-28T14:09:32Z</time>
      </trkpt>
      <trkpt lat="36.4066700" lon="-5.1898900">
        <ele>12.3</ele>
        <time>2019-08-28T14:09:33Z</time>
      </trkpt>
      <trkpt lat="36.4067150" lon="-5.1898230">
        <ele>12.4</ele>
        <time>2019-08-28T14:09:34Z</time>
      </trkpt>
      <trkpt lat="36.4067590" lon="-5.1897570">
        <ele>12.6</ele>
        <time>2019-08-28T14:09:35Z</time>
      </trkpt>
      <trkpt lat="36.4068030" lon="-5.1896920">
        <ele>12.7</ele>
        <time>2019-08-28T14:09:36Z</time>
      </trkpt>
      <trkpt lat="36.4068460" lon="-5.1896270">
        <ele>12.9</ele>
        <time>2019-08-28T14:09:37Z</time>
      </trkpt>
      <trkpt lat="36.4068900" lon="-5.1895630">
        <ele>13.0</ele>
        <time>2019-08-28T14:09:38Z</time>
      </trkpt>
      <trkpt lat="36.4069330" lon="-5.1894990">
        <ele>13.1</ele>
        <time>2019-08-28T14:09:39Z</time>
      </trkpt>
      <trkpt lat="36.4069760" lon="-5.1894340">
        <ele>13.3</ele>
        <time>2019-08-28T14:09:40Z</time>
      </trkpt>
      <trkpt lat="36.4070180" lon="-5.1893710">
        <ele>13.4</ele>
        <time>2019-08-28T14:09:41Z</time>
      </trkpt>
      <trkpt lat="36.4070610" lon="-5.1893070">
        <ele>13.6</ele>
        <time>2019-08-28T14:09:42Z</time>
      </trkpt>
      <trkpt lat="36.4071030" lon="-5.1892440">
        <ele>13.7</ele>
        <time>2019-08-28T14:09:43Z</time>
      </trkpt>
      <trkpt lat="36.4071450" lon="-5.1891800">
        <ele>13.9</ele>
        <time>2019-08-28T14:09:44Z</time>
      </trkpt>
      <trkpt lat="36.4071860" lon="-5.1891170">
        <ele>14.0</ele>
        <time>2019-08-28T14:09:45Z</time>
      </trkpt>
      <trkpt lat="36.4072270" lon="-5.1890540">
        <ele>14.2</ele>
        <time>2019-08-28T14:09:46Z</time>
      </trkpt>
      <trkpt lat="36.4072670" lon="-5.1889910">
        <ele>14.3</ele>
        <time>2019-08-28T14:09:47Z</time>
      </trkpt>
      <trkpt lat="36.4073060" lon="-5.1889290">
        <ele>14.5</ele>
        <time>2019-08-28T14:09:48Z</time>
      </trkpt>
      <trkpt lat="36.4073460" lon="-5.1888670">
        <ele>14.7</ele>
        <time>2019-08-28T14:09:49Z</time>
      </trkpt>
      <trkpt lat="36.4073850" lon="-5.1888050">
        <ele>14.9</ele>
        <time>2019-08-28T14:09:50Z</time>
      </trkpt>
      <trkpt lat="36.4074230" lon="-5.1887440">
        <ele>15.1</ele>
        <time>2019-08-28T14:09:51Z</time>
      </trkpt>
      <trkpt lat="36.4074600" lon="-5.1886810">
        <ele>15.3</ele>
        <time>2019-08-28T14:09:52Z</time>
      </trkpt>
      <trkpt lat="36.4074940" lon="-5.1886170">
        <ele>15.6</ele>
        <time>2019-08-28T14:09:53Z</time>
      </trkpt>
      <trkpt lat="36.4075210" lon="-5.1885470">
        <ele>15.9</ele>
        <time>2019-08-28T14:09:54Z</time>
      </trkpt>
      <trkpt lat="36.4075420" lon="-5.1884740">
        <ele>16.2</ele>
        <time>2019-08-28T14:09:55Z</time>
      </trkpt>
      <trkpt lat="36.4075570" lon="-5.1883990">
        <ele>16.3</ele>
        <time>2019-08-28T14:09:56Z</time>
      </trkpt>
      <trkpt lat="36.4075750" lon="-5.1883280">
        <ele>16.1</ele>
        <time>2019-08-28T14:09:57Z</time>
      </trkpt>
      <trkpt lat="36.4075980" lon="-5.1882590">
        <ele>16.0</ele>
        <time>2019-08-28T14:09:58Z</time>
      </trkpt>
      <trkpt lat="36.4076320" lon="-5.1881970">
        <ele>15.8</ele>
        <time>2019-08-28T14:09:59Z</time>
      </trkpt>
      <trkpt lat="36.4076760" lon="-5.1881440">
        <ele>15.7</ele>
        <time>2019-08-28T14:10:00Z</time>
      </trkpt>
      <trkpt lat="36.4077280" lon="-5.1881010">
        <ele>15.5</ele>
        <time>2019-08-28T14:10:01Z</time>
      </trkpt>
      <trkpt lat="36.4077840" lon="-5.1880640">
        <ele>15.6</ele>
        <time>2019-08-28T14:10:02Z</time>
      </trkpt>
      <trkpt lat="36.4078370" lon="-5.1880240">
        <ele>15.6</ele>
        <time>2019-08-28T14:10:03Z</time>
      </trkpt>
      <trkpt lat="36.4078860" lon="-5.1879780">
        <ele>15.7</ele>
        <time>2019-08-28T14:10:04Z</time>
      </trkpt>
      <trkpt lat="36.4079310" lon="-5.1879240">
        <ele>15.8</ele>
        <time>2019-08-28T14:10:05Z</time>
      </trkpt>
      <trkpt lat="36.4079730" lon="-5.1878670">
        <ele>15.9</ele>
        <time>2019-08-28T14:10:06Z</time>
      </trkpt>
      <trkpt lat="36.4080120" lon="-5.1878070">
        <ele>16.0</ele>
        <time>2019-08-28T14:10:07Z</time>
      </trkpt>
      <trkpt lat="36.4080500" lon="-5.1877460">
        <ele>16.1</ele>
        <time>2019-08-28T14:10:08Z</time>
      </trkpt>
      <trkpt lat="36.4080860" lon="-5.1876840">
        <ele>16.3</ele>
        <time>2019-08-28T14:10:09Z</time>
      </trkpt>
      <trkpt lat="36.4081220" lon="-5.1876230">
        <ele>16.4</ele>
        <time>2019-08-28T14:10:10Z</time>
      </trkpt>
      <trkpt lat="36.4081580" lon="-5.1875610">
        <ele>16.5</ele>
        <time>2019-08-28T14:10:11Z</time>
      </trkpt>
      <trkpt lat="36.4081950" lon="-5.1874990">
        <ele>16.6</ele>
        <time>2019-08-28T14:10:12Z</time>
      </trkpt>
      <trkpt lat="36.4082310" lon="-5.1874380">
        <ele>16.7</ele>
        <time>2019-08-28T14:10:13Z</time>
      </trkpt>
      <trkpt lat="36.4082680" lon="-5.1873780">
        <ele>16.8</ele>
        <time>2019-08-28T14:10:14Z</time>
      </trkpt>
      <trkpt lat="36.4083050" lon="-5.1873170">
        <ele>16.9</ele>
        <time>2019-08-28T14:10:15Z</time>
      </trkpt>
      <trkpt lat="36.4083420" lon="-5.1872560">
        <ele>17.1</ele>
        <time>2019-08-28T14:10:16Z</time>
      </trkpt>
      <trkpt lat="36.4083780" lon="-5.1871950">
        <ele>17.2</ele>
        <time>2019-08-28T14:10:17Z</time>
      </trkpt>
      <trkpt lat="36.4084130" lon="-5.1871320">
        <ele>17.3</ele>
        <time>2019-08-28T14:10:18Z</time>
      </trkpt>
      <trkpt lat="36.4084500" lon="-5.1870700">
        <ele>17.4</ele>
        <time>2019-08-28T14:10:19Z</time>
      </trkpt>
      <trkpt lat="36.4084860" lon="-5.1870070">
        <ele>17.5</ele>
        <time>2019-08-28T14:10:20Z</time>
      </trkpt>
      <trkpt lat="36.4085240" lon="-5.1869430">
        <ele>17.7</ele>
        <time>2019-08-28T14:10:21Z</time>
      </trkpt>
      <trkpt lat="36.4085620" lon="-5.1868790">
        <ele>17.8</ele>
        <time>2019-08-28T14:10:22Z</time>
      </trkpt>
      <trkpt lat="36.4085990" lon="-5.1868140">
        <ele>18.0</ele>
        <time>2019-08-28T14:10:23Z</time>
      </trkpt>
      <trkpt lat="36.4086360" lon="-5.1867480">
        <ele>18.1</ele>
        <time>2019-08-28T14:10:24Z</time>
      </trkpt>
      <trkpt lat="36.4086720" lon="-5.1866810">
        <ele>18.3</ele>
        <time>2019-08-28T14:10:25Z</time>
      </trkpt>
      <trkpt lat="36.4087100" lon="-5.1866140">
        <ele>18.4</ele>
        <time>2019-08-28T14:10:26Z</time>
      </trkpt>
      <trkpt lat="36.4087480" lon="-5.1865470">
        <ele>18.5</ele>
        <time>2019-08-28T14:10:27Z</time>
      </trkpt>
      <trkpt lat="36.4087860" lon="-5.1864810">
        <ele>18.6</ele>
        <time>2019-08-28T14:10:28Z</time>
      </trkpt>
      <trkpt lat="36.4088240" lon="-5.1864150">
        <ele>18.7</ele>
        <time>2019-08-28T14:10:29Z</time>
      </trkpt>
      <trkpt lat="36.4088610" lon="-5.1863480">
        <ele>18.8</ele>
        <time>2019-08-28T14:10:30Z</time>
      </trkpt>
      <trkpt lat="36.4088990" lon="-5.1862800">
        <ele>18.9</ele>
        <time>2019-08-28T14:10:31Z</time>
      </trkpt>
      <trkpt lat="36.4089360" lon="-5.1862130">
        <ele>19.0</ele>
        <time>2019-08-28T14:10:32Z</time>
      </trkpt>
      <trkpt lat="36.4089740" lon="-5.1861450">
        <ele>19.0</ele>
        <time>2019-08-28T14:10:33Z</time>
      </trkpt>
      <trkpt lat="36.4090120" lon="-5.1860770">
        <ele>19.1</ele>
        <time>2019-08-28T14:10:34Z</time>
      </trkpt>
      <trkpt lat="36.4090500" lon="-5.1860100">
        <ele>19.1</ele>
        <time>2019-08-28T14:10:35Z</time>
      </trkpt>
      <trkpt lat="36.4090880" lon="-5.1859420">
        <ele>19.2</ele>
        <time>2019-08-28T14:10:36Z</time>
      </trkpt>
      <trkpt lat="36.4091270" lon="-5.1858760">
        <ele>19.2</ele>
        <time>2019-08-28T14:10:37Z</time>
      </trkpt>
      <trkpt lat="36.4091650" lon="-5.1858090">
        <ele>19.3</ele>
        <time>2019-08-28T14:10:38Z</time>
      </trkpt>
      <trkpt lat="36.4092040" lon="-5.1857430">
        <ele>19.3</ele>
        <time>2019-08-28T14:10:39Z</time>
      </trkpt>
      <trkpt lat="36.4092430" lon="-5.1856770">
        <ele>19.3</ele>
        <time>2019-08-28T14:10:40Z</time>
      </trkpt>
      <trkpt lat="36.4092830" lon="-5.1856110">
        <ele>19.4</ele>
        <time>2019-08-28T14:10:41Z</time>
      </trkpt>
      <trkpt lat="36.4093230" lon="-5.1855450">
        <ele>19.4</ele>
        <time>2019-08-28T14:10:42Z</time>
      </trkpt>
      <trkpt lat="36.4093640" lon="-5.1854800">
        <ele>19.4</ele>
        <time>2019-08-28T14:10:43Z</time>
      </trkpt>
      <trkpt lat="36.4094040" lon="-5.1854150">
        <ele>19.5</ele>
        <time>2019-08-28T14:10:44Z</time>
      </trkpt>
      <trkpt lat="36.4094450" lon="-5.1853510">
        <ele>19.5</ele>
        <time>2019-08-28T14:10:45Z</time>
      </trkpt>
      <trkpt lat="36.4094860" lon="-5.1852890">
        <ele>19.6</ele>
        <time>2019-08-28T14:10:46Z</time>
      </trkpt>
      <trkpt lat="36.4095290" lon="-5.1852270">
        <ele>19.6</ele>
        <time>2019-08-28T14:10:47Z</time>
      </trkpt>
      <trkpt lat="36.4095720" lon="-5.1851640">
        <ele>19.7</ele>
        <time>2019-08-28T14:10:48Z</time>
      </trkpt>
      <trkpt lat="36.4096160" lon="-5.1851010">
        <ele>19.7</ele>
        <time>2019-08-28T14:10:49Z</time>
      </trkpt>
      <trkpt lat="36.4096600" lon="-5.1850380">
        <ele>19.8</ele>
        <time>2019-08-28T14:10:50Z</time>
      </trkpt>
      <trkpt lat="36.4097060" lon="-5.1849760">
        <ele>19.8</ele>
        <time>2019-08-28T14:10:51Z</time>
      </trkpt>
      <trkpt lat="36.4097520" lon="-5.1849140">
        <ele>19.8</ele>
        <time>2019-08-28T14:10:52Z</time>
      </trkpt>
      <trkpt lat="36.4097990" lon="-5.1848520">
        <ele>19.9</ele>
        <time>2019-08-28T14:10:53Z</time>
      </trkpt>
      <trkpt lat="36.4098470" lon="-5.1847910">
        <ele>19.9</ele>
        <time>2019-08-28T14:10:54Z</time>
      </trkpt>
      <trkpt lat="36.4098960" lon="-5.1847290">
        <ele>20.0</ele>
        <time>2019-08-28T14:10:55Z</time>
      </trkpt>
      <trkpt lat="36.4099450" lon="-5.1846680">
        <ele>20.0</ele>
        <time>2019-08-28T14:10:56Z</time>
      </trkpt>
      <trkpt lat="36.4099950" lon="-5.1846060">
        <ele>20.0</ele>
        <time>2019-08-28T14:10:57Z</time>
      </trkpt>
      <trkpt lat="36.4100450" lon="-5.1845420">
        <ele>20.0</ele>
        <time>2019-08-28T14:10:58Z</time>
      </trkpt>
      <trkpt lat="36.4100940" lon="-5.1844750">
        <ele>20.1</ele>
        <time>2019-08-28T14:10:59Z</time>
      </trkpt>
      <trkpt lat="36.4101430" lon="-5.1844090">
        <ele>20.1</ele>
        <time>2019-08-28T14:11:00Z</time>
      </trkpt>
      <trkpt lat="36.4101920" lon="-5.1843430">
        <ele>20.1</ele>
        <time>2019-08-28T14:11:01Z</time>
      </trkpt>
      <trkpt lat="36.4102440" lon="-5.1842790">
        <ele>20.1</ele>
        <time>2019-08-28T14:11:02Z</time>
      </trkpt>
      <trkpt lat="36.4102980" lon="-5.1842180">
        <ele>20.1</ele>
        <time>2019-08-28T14:11:03Z</time>
      </trkpt>
      <trkpt lat="36.4103560" lon="-5.1841580">
        <ele>20.0</ele>
        <time>2019-08-28T14:11:04Z</time>
      </trkpt>
      <trkpt lat="36.4104150" lon="-5.1840990">
        <ele>20.0</ele>
        <time>2019-08-28T14:11:05Z</time>
      </trkpt>
      <trkpt lat="36.4104750" lon="-5.1840400">
        <ele>20.0</ele>
        <time>2019-08-28T14:11:06Z</time>
      </trkpt>
      <trkpt lat="36.4105380" lon="-5.1839810">
        <ele>19.9</ele>
        <time>2019-08-28T14:11:07Z</time>
      </trkpt>
      <trkpt lat="36.4106010" lon="-5.1839210">
        <ele>19.9</ele>
        <time>2019-08-28T14:11:08Z</time>
      </trkpt>
      <trkpt lat="36.4106670" lon="-5.1838610">
        <ele>19.8</ele>
        <time>2019-08-28T14:11:09Z</time>
      </trkpt>
      <trkpt lat="36.4107340" lon="-5.1837990">
        <ele>19.8</ele>
        <time>2019-08-28T14:11:10Z</time>
      </trkpt>
      <trkpt lat="36.4108030" lon="-5.1837380">
        <ele>19.7</ele>
        <time>2019-08-28T14:11:11Z</time>
      </trkpt>
      <trkpt lat="36.4108730" lon="-5.1836760">
        <ele>19.7</ele>
        <time>2019-08-28T14:11:12Z</time>
      </trkpt>
      <trkpt lat="36.4109460" lon="-5.1836140">
        <ele>19.6</ele>
        <time>2019-08-28T14:11:13Z</time>
      </trkpt>
      <trkpt lat="36.4110200" lon="-5.1835510">
        <ele>19.5</ele>
        <time>2019-08-28T14:11:14Z</time>
      </trkpt>
      <trkpt lat="36.4110960" lon="-5.1834870">
        <ele>19.4</ele>
        <time>2019-08-28T14:11:15Z</time>
      </trkpt>
      <trkpt lat="36.4111730" lon="-5.1834230">
        <ele>19.3</ele>
        <time>2019-08-28T14:11:16Z</time>
      </trkpt>
      <trkpt lat="36.4112510" lon="-5.1833580">
        <ele>19.1</ele>
        <time>2019-08-28T14:11:17Z</time>
      </trkpt>
      <trkpt lat="36.4113290" lon="-5.1832940">
        <ele>18.9</ele>
        <time>2019-08-28T14:11:18Z</time>
      </trkpt>
      <trkpt lat="36.4114070" lon="-5.1832290">
        <ele>18.6</ele>
        <time>2019-08-28T14:11:19Z</time>
      </trkpt>
      <trkpt lat="36.4114840" lon="-5.1831640">
        <ele>18.3</ele>
        <time>2019-08-28T14:11:20Z</time>
      </trkpt>
      <trkpt lat="36.4115590" lon="-5.1831000">
        <ele>17.9</ele>
        <time>2019-08-28T14:11:21Z</time>
      </trkpt>
      <trkpt lat="36.4116330" lon="-5.1830370">
        <ele>17.6</ele>
        <time>2019-08-28T14:11:22Z</time>
      </trkpt>
      <trkpt lat="36.4117050" lon="-5.1829730">
        <ele>17.3</ele>
        <time>2019-08-28T14:11:23Z</time>
      </trkpt>
      <trkpt lat="36.4117750" lon="-5.1829120">
        <ele>17.1</ele>
        <time>2019-08-28T14:11:24Z</time>
      </trkpt>
      <trkpt lat="36.4118420" lon="-5.1828510">
        <ele>16.9</ele>
        <time>2019-08-28T14:11:25Z</time>
      </trkpt>
      <trkpt lat="36.4119080" lon="-5.1827930">
        <ele>16.7</ele>
        <time>2019-08-28T14:11:26Z</time>
      </trkpt>
      <trkpt lat="36.4119710" lon="-5.1827360">
        <ele>16.6</ele>
        <time>2019-08-28T14:11:27Z</time>
      </trkpt>
      <trkpt lat="36.4120330" lon="-5.1826810">
        <ele>16.6</ele>
        <time>2019-08-28T14:11:28Z</time>
      </trkpt>
      <trkpt lat="36.4120920" lon="-5.1826260">
        <ele>16.5</ele>
        <time>2019-08-28T14:11:29Z</time>
      </trkpt>
      <trkpt lat="36.4121480" lon="-5.1825730">
        <ele>16.6</ele>
        <time>2019-08-28T14:11:30Z</time>
      </trkpt>
      <trkpt lat="36.4122030" lon="-5.1825200">
        <ele>16.8</ele>
        <time>2019-08-28T14:11:31Z</time>
      </trkpt>
      <trkpt lat="36.4122560" lon="-5.1824690">
        <ele>17.1</ele>
        <time>2019-08-28T14:11:32Z</time>
      </trkpt>
      <trkpt lat="36.4123090" lon="-5.1824200">
        <ele>17.3</ele>
        <time>2019-08-28T14:11:33Z</time>
      </trkpt>
      <trkpt lat="36.4123600" lon="-5.1823720">
        <ele>17.6</ele>
        <time>2019-08-28T14:11:34Z</time>
      </trkpt>
      <trkpt lat="36.4124100" lon="-5.1823250">
        <ele>17.9</ele>
        <time>2019-08-28T14:11:35Z</time>
      </trkpt>
      <trkpt lat="36.4124600" lon="-5.1822780">
        <ele>18.1</ele>
        <time>2019-08-28T14:11:36Z</time>
      </trkpt>
      <trkpt lat="36.4125090" lon="-5.1822320">
        <ele>18.4</ele>
        <time>2019-08-28T14:11:37Z</time>
      </trkpt>
      <trkpt lat="36.4125580" lon="-5.1821860">
        <ele>18.7</ele>
        <time>2019-08-28T14:11:38Z</time>
      </trkpt>
      <trkpt lat="36.4126060" lon="-5.1821400">
        <ele>18.9</ele>
        <time>2019-08-28T14:11:39Z</time>
      </trkpt>
      <trkpt lat="36.4126540" lon="-5.1820960">
        <ele>19.2</ele>
        <time>2019-08-28T14:11:40Z</time>
      </trkpt>
      <trkpt lat="36.4127020" lon="-5.1820510">
        <ele>19.4</ele>
        <time>2019-08-28T14:11:41Z</time>
      </trkpt>
      <trkpt lat="36.4127500" lon="-5.1820070">
        <ele>19.7</ele>
        <time>2019-08-28T14:11:42Z</time>
      </trkpt>
      <trkpt lat="36.4127970" lon="-5.1819610">
        <ele>19.9</ele>
        <time>2019-08-28T14:11:43Z</time>
      </trkpt>
      <trkpt lat="36.4128440" lon="-5.1819160">
        <ele>20.1</ele>
        <time>2019-08-28T14:11:44Z</time>
      </trkpt>
      <trkpt lat="36.4128910" lon="-5.1818700">
        <ele>20.3</ele>
        <time>2019-08-28T14:11:45Z</time>
      </trkpt>
      <trkpt lat="36.4129380" lon="-5.1818250">
        <ele>20.6</ele>
        <time>2019-08-28T14:11:46Z</time>
      </trkpt>
      <trkpt lat="36.4129860" lon="-5.1817800">
        <ele>20.9</ele>
        <time>2019-08-28T14:11:47Z</time>
      </trkpt>
      <trkpt lat="36.4130340" lon="-5.1817350">
        <ele>21.0</ele>
        <time>2019-08-28T14:11:48Z</time>
      </trkpt>
      <trkpt lat="36.4130830" lon="-5.1816890">
        <ele>21.1</ele>
        <time>2019-08-28T14:11:49Z</time>
      </trkpt>
      <trkpt lat="36.4131320" lon="-5.1816440">
        <ele>21.1</ele>
        <time>2019-08-28T14:11:50Z</time>
      </trkpt>
      <trkpt lat="36.4131810" lon="-5.1815980">
        <ele>21.2</ele>
        <time>2019-08-28T14:11:51Z</time>
      </trkpt>
      <trkpt lat="36.4132320" lon="-5.1815520">
        <ele>21.2</ele>
        <time>2019-08-28T14:11:52Z</time>
      </trkpt>
      <trkpt lat="36.4132820" lon="-5.1815060">
        <ele>21.3</ele>
        <time>2019-08-28T14:11:53Z</time>
      </trkpt>
      <trkpt lat="36.4133330" lon="-5.1814580">
        <ele>21.3</ele>
        <time>2019-08-28T14:11:54Z</time>
      </trkpt>
      <trkpt lat="36.4133830" lon="-5.1814090">
        <ele>21.3</ele>
        <time>2019-08-28T14:11:55Z</time>
      </trkpt>
      <trkpt lat="36.4134340" lon="-5.1813580">
        <ele>21.3</ele>
        <time>2019-08-28T14:11:56Z</time>
      </trkpt>
      <trkpt lat="36.4134860" lon="-5.1813080">
        <ele>21.3</ele>
        <time>2019-08-28T14:11:57Z</time>
      </trkpt>
      <trkpt lat="36.4135390" lon="-5.1812580">
        <ele>21.3</ele>
        <time>2019-08-28T14:11:58Z</time>
      </trkpt>
      <trkpt lat="36.4135930" lon="-5.1812080">
        <ele>21.0</ele>
        <time>2019-08-28T14:11:59Z</time>
      </trkpt>
      <trkpt lat="36.4136480" lon="-5.1811570">
        <ele>20.7</ele>
        <time>2019-08-28T14:12:00Z</time>
      </trkpt>
      <trkpt lat="36.4137030" lon="-5.1811050">
        <ele>20.3</ele>
        <time>2019-08-28T14:12:01Z</time>
      </trkpt>
      <trkpt lat="36.4137590" lon="-5.1810520">
        <ele>20.0</ele>
        <time>2019-08-28T14:12:02Z</time>
      </trkpt>
      <trkpt lat="36.4138170" lon="-5.1809980">
        <ele>19.6</ele>
        <time>2019-08-28T14:12:03Z</time>
      </trkpt>
      <trkpt lat="36.4138750" lon="-5.1809430">
        <ele>19.2</ele>
        <time>2019-08-28T14:12:04Z</time>
      </trkpt>
      <trkpt lat="36.4139340" lon="-5.1808870">
        <ele>18.7</ele>
        <time>2019-08-28T14:12:05Z</time>
      </trkpt>
      <trkpt lat="36.4139960" lon="-5.1808300">
        <ele>18.3</ele>
        <time>2019-08-28T14:12:06Z</time>
      </trkpt>
      <trkpt lat="36.4140590" lon="-5.1807720">
        <ele>17.8</ele>
        <time>2019-08-28T14:12:07Z</time>
      </trkpt>
      <trkpt lat="36.4141240" lon="-5.1807110">
        <ele>17.3</ele>
        <time>2019-08-28T14:12:08Z</time>
      </trkpt>
      <trkpt lat="36.4141890" lon="-5.1806480">
        <ele>16.7</ele>
        <time>2019-08-28T14:12:09Z</time>
      </trkpt>
      <trkpt lat="36.4142560" lon="-5.1805830">
        <ele>16.1</ele>
        <time>2019-08-28T14:12:10Z</time>
      </trkpt>
      <trkpt lat="36.4143260" lon="-5.1805170">
        <ele>15.4</ele>
        <time>2019-08-28T14:12:11Z</time>
      </trkpt>
      <trkpt lat="36.4143990" lon="-5.1804490">
        <ele>14.5</ele>
        <time>2019-08-28T14:12:12Z</time>
      </trkpt>
      <trkpt lat="36.4144730" lon="-5.1803810">
        <ele>13.7</ele>
        <time>2019-08-28T14:12:13Z</time>
      </trkpt>
      <trkpt lat="36.4145470" lon="-5.1803120">
        <ele>12.8</ele>
        <time>2019-08-28T14:12:14Z</time>
      </trkpt>
      <trkpt lat="36.4146240" lon="-5.1802400">
        <ele>12.0</ele>
        <time>2019-08-28T14:12:15Z</time>
      </trkpt>
      <trkpt lat="36.4147010" lon="-5.1801670">
        <ele>11.2</ele>
        <time>2019-08-28T14:12:16Z</time>
      </trkpt>
      <trkpt lat="36.4147800" lon="-5.1800920">
        <ele>10.4</ele>
        <time>2019-08-28T14:12:17Z</time>
      </trkpt>
      <trkpt lat="36.4148600" lon="-5.1800170">
        <ele>9.6</ele>
        <time>2019-08-28T14:12:18Z</time>
      </trkpt>
      <trkpt lat="36.4149400" lon="-5.1799420">
        <ele>8.8</ele>
        <time>2019-08-28T14:12:19Z</time>
      </trkpt>
      <trkpt lat="36.4150190" lon="-5.1798690">
        <ele>8.2</ele>
        <time>2019-08-28T14:12:20Z</time>
      </trkpt>
      <trkpt lat="36.4151000" lon="-5.1797960">
        <ele>7.8</ele>
        <time>2019-08-28T14:12:21Z</time>
      </trkpt>
      <trkpt lat="36.4151800" lon="-5.1797230">
        <ele>7.6</ele>
        <time>2019-08-28T14:12:22Z</time>
      </trkpt>
      <trkpt lat="36.4152610" lon="-5.1796500">
        <ele>7.3</ele>
        <time>2019-08-28T14:12:23Z</time>
      </trkpt>
      <trkpt lat="36.4153410" lon="-5.1795770">
        <ele>6.9</ele>
        <time>2019-08-28T14:12:24Z</time>
      </trkpt>
      <trkpt lat="36.4154190" lon="-5.1795040">
        <ele>6.6</ele>
        <time>2019-08-28T14:12:25Z</time>
      </trkpt>
      <trkpt lat="36.4154960" lon="-5.1794310">
        <ele>6.0</ele>
        <time>2019-08-28T14:12:26Z</time>
      </trkpt>
      <trkpt lat="36.4155720" lon="-5.1793580">
        <ele>5.3</ele>
        <time>2019-08-28T14:12:27Z</time>
      </trkpt>
      <trkpt lat="36.4156480" lon="-5.1792860">
        <ele>4.7</ele>
        <time>2019-08-28T14:12:28Z</time>
      </trkpt>
      <trkpt lat="36.4157240" lon="-5.1792140">
        <ele>4.2</ele>
        <time>2019-08-28T14:12:29Z</time>
      </trkpt>
      <trkpt lat="36.4157980" lon="-5.1791440">
        <ele>3.9</ele>
        <time>2019-08-28T14:12:30Z</time>
      </trkpt>
      <trkpt lat="36.4158710" lon="-5.1790770">
        <ele>3.7</ele>
        <time>2019-08-28T14:12:31Z</time>
      </trkpt>
      <trkpt lat="36.4159430" lon="-5.1790110">
        <ele>3.6</ele>
        <time>2019-08-28T14:12:32Z</time>
      </trkpt>
      <trkpt lat="36.4160140" lon="-5.1789470">
        <ele>3.5</ele>
        <time>2019-08-28T14:12:33Z</time>
      </trkpt>
      <trkpt lat="36.4160830" lon="-5.1788840">
        <ele>3.4</ele>
        <time>2019-08-28T14:12:34Z</time>
      </trkpt>
      <trkpt lat="36.4161520" lon="-5.1788210">
        <ele>3.3</ele>
        <time>2019-08-28T14:12:35Z</time>
      </trkpt>
      <trkpt lat="36.4162200" lon="-5.1787600">
        <ele>3.3</ele>
        <time>2019-08-28T14:12:36Z</time>
      </trkpt>
      <trkpt lat="36.4162870" lon="-5.1787000">
        <ele>3.3</ele>
        <time>2019-08-28T14:12:37Z</time>
      </trkpt>
      <trkpt lat="36.4163540" lon="-5.1786440">
        <ele>3.3</ele>
        <time>2019-08-28T14:12:38Z</time>
      </trkpt>
      <trkpt lat="36.4164210" lon="-5.1785890">
        <ele>3.3</ele>
        <time>2019-08-28T14:12:39Z</time>
      </trkpt>
      <trkpt lat="36.4164850" lon="-5.1785340">
        <ele>3.2</ele>
        <time>2019-08-28T14:12:40Z</time>
      </trkpt>
      <trkpt lat="36.4165480" lon="-5.1784770">
        <ele>3.3</ele>
        <time>2019-08-28T14:12:41Z</time>
      </trkpt>
      <trkpt lat="36.4166080" lon="-5.1784190">
        <ele>3.6</ele>
        <time>2019-08-28T14:12:42Z</time>
      </trkpt>
      <trkpt lat="36.4166660" lon="-5.1783590">
        <ele>3.8</ele>
        <time>2019-08-28T14:12:43Z</time>
      </trkpt>
      <trkpt lat="36.4167220" lon="-5.1782980">
        <ele>4.0</ele>
        <time>2019-08-28T14:12:44Z</time>
      </trkpt>
      <trkpt lat="36.4167750" lon="-5.1782350">
        <ele>4.2</ele>
        <time>2019-08-28T14:12:45Z</time>
      </trkpt>
      <trkpt lat="36.4168250" lon="-5.1781700">
        <ele>4.6</ele>
        <time>2019-08-28T14:12:46Z</time>
      </trkpt>
      <trkpt lat="36.4168720" lon="-5.1781020">
        <ele>4.8</ele>
        <time>2019-08-28T14:12:47Z</time>
      </trkpt>
      <trkpt lat="36.4169130" lon="-5.1780320">
        <ele>5.1</ele>
        <time>2019-08-28T14:12:48Z</time>
      </trkpt>
      <trkpt lat="36.4169510" lon="-5.1779610">
        <ele>5.4</ele>
        <time>2019-08-28T14:12:49Z</time>
      </trkpt>
      <trkpt lat="36.4169860" lon="-5.1778890">
        <ele>5.7</ele>
        <time>2019-08-28T14:12:50Z</time>
      </trkpt>
      <trkpt lat="36.4170190" lon="-5.1778170">
        <ele>6.0</ele>
        <time>2019-08-28T14:12:51Z</time>
      </trkpt>
      <trkpt lat="36.4170500" lon="-5.1777470">
        <ele>6.2</ele>
        <time>2019-08-28T14:12:52Z</time>
      </trkpt>
      <trkpt lat="36.4170770" lon="-5.1776760">
        <ele>6.4</ele>
        <time>2019-08-28T14:12:53Z</time>
      </trkpt>
      <trkpt lat="36.4171000" lon="-5.1776040">
        <ele>6.6</ele>
        <time>2019-08-28T14:12:54Z</time>
      </trkpt>
      <trkpt lat="36.4171190" lon="-5.1775320">
        <ele>6.7</ele>
        <time>2019-08-28T14:12:55Z</time>
      </trkpt>
      <trkpt lat="36.4171370" lon="-5.1774600">
        <ele>6.9</ele>
        <time>2019-08-28T14:12:56Z</time>
      </trkpt>
      <trkpt lat="36.4171520" lon="-5.1773880">
        <ele>7.3</ele>
        <time>2019-08-28T14:12:57Z</time>
      </trkpt>
      <trkpt lat="36.4171660" lon="-5.1773150">
        <ele>7.8</ele>
        <time>2019-08-28T14:12:58Z</time>
      </trkpt>
      <trkpt lat="36.4171780" lon="-5.1772430">
        <ele>8.3</ele>
        <time>2019-08-28T14:12:59Z</time>
      </trkpt>
      <trkpt lat="36.4171890" lon="-5.1771700">
        <ele>8.7</ele>
        <time>2019-08-28T14:13:00Z</time>
      </trkpt>
      <trkpt lat="36.4172000" lon="-5.1770970">
        <ele>9.1</ele>
        <time>2019-08-28T14:13:01Z</time>
      </trkpt>
      <trkpt lat="36.4172120" lon="-5.1770230">
        <ele>9.5</ele>
        <time>2019-08-28T14:13:02Z</time>
      </trkpt>
      <trkpt lat="36.4172240" lon="-5.1769500">
        <ele>9.8</ele>
        <time>2019-08-28T14:13:03Z</time>
      </trkpt>
      <trkpt lat="36.4172370" lon="-5.1768780">
        <ele>10.2</ele>
        <time>2019-08-28T14:13:04Z</time>
      </trkpt>
      <trkpt lat="36.4172500" lon="-5.1768080">
        <ele>10.6</ele>
        <time>2019-08-28T14:13:05Z</time>
      </trkpt>
      <trkpt lat="36.4172630" lon="-5.1767390">
        <ele>11.1</ele>
        <time>2019-08-28T14:13:06Z</time>
      </trkpt>
      <trkpt lat="36.4172740" lon="-5.1766730">
        <ele>11.5</ele>
        <time>2019-08-28T14:13:07Z</time>
      </trkpt>
      <trkpt lat="36.4172850" lon="-5.1766070">
        <ele>11.9</ele>
        <time>2019-08-28T14:13:08Z</time>
      </trkpt>
      <trkpt lat="36.4172960" lon="-5.1765430">
        <ele>12.2</ele>
        <time>2019-08-28T14:13:09Z</time>
      </trkpt>
      <trkpt lat="36.4173070" lon="-5.1764790">
        <ele>12.5</ele>
        <time>2019-08-28T14:13:10Z</time>
      </trkpt>
      <trkpt lat="36.4173180" lon="-5.1764140">
        <ele>12.8</ele>
        <time>2019-08-28T14:13:11Z</time>
      </trkpt>
      <trkpt lat="36.4173290" lon="-5.1763500">
        <ele>13.2</ele>
        <time>2019-08-28T14:13:12Z</time>
      </trkpt>
      <trkpt lat="36.4173400" lon="-5.1762850">
        <ele>13.5</ele>
        <time>2019-08-28T14:13:13Z</time>
      </trkpt>
      <trkpt lat="36.4173500" lon="-5.1762190">
        <ele>13.9</ele>
        <time>2019-08-28T14:13:14Z</time>
      </trkpt>
      <trkpt lat="36.4173510" lon="-5.1761540">
        <ele>14.3</ele>
        <time>2019-08-28T14:13:15Z</time>
      </trkpt>
      <trkpt lat="36.4173480" lon="-5.1760900">
        <ele>14.6</ele>
        <time>2019-08-28T14:13:16Z</time>
      </trkpt>
      <trkpt lat="36.4173430" lon="-5.1760270">
        <ele>15.0</ele>
        <time>2019-08-28T14:13:17Z</time>
      </trkpt>
      <trkpt lat="36.4173460" lon="-5.1759640">
        <ele>15.2</ele>
        <time>2019-08-28T14:13:18Z</time>
      </trkpt>
      <trkpt lat="36.4173570" lon="-5.1759010">
        <ele>15.5</ele>
        <time>2019-08-28T14:13:19Z</time>
      </trkpt>
      <trkpt lat="36.4173720" lon="-5.1758370">
        <ele>15.8</ele>
        <time>2019-08-28T14:13:20Z</time>
      </trkpt>
      <trkpt lat="36.4173890" lon="-5.1757720">
        <ele>16.0</ele>
        <time>2019-08-28T14:13:21Z</time>
      </trkpt>
      <trkpt lat="36.4174080" lon="-5.1757080">
        <ele>16.3</ele>
        <time>2019-08-28T14:13:22Z</time>
      </trkpt>
      <trkpt lat="36.4174270" lon="-5.1756440">
        <ele>16.3</ele>
        <time>2019-08-28T14:13:23Z</time>
      </trkpt>
      <trkpt lat="36.4174450" lon="-5.1755780">
        <ele>16.3</ele>
        <time>2019-08-28T14:13:24Z</time>
      </trkpt>
      <trkpt lat="36.4174620" lon="-5.1755100">
        <ele>16.3</ele>
        <time>2019-08-28T14:13:25Z</time>
      </trkpt>
      <trkpt lat="36.4174750" lon="-5.1754410">
        <ele>16.2</ele>
        <time>2019-08-28T14:13:26Z</time>
      </trkpt>
      <trkpt lat="36.4174860" lon="-5.1753700">
        <ele>16.2</ele>
        <time>2019-08-28T14:13:27Z</time>
      </trkpt>
      <trkpt lat="36.4174940" lon="-5.1752980">
        <ele>16.2</ele>
        <time>2019-08-28T14:13:28Z</time>
      </trkpt>
      <trkpt lat="36.4174990" lon="-5.1752250">
        <ele>16.2</ele>
        <time>2019-08-28T14:13:29Z</time>
      </trkpt>
      <trkpt lat="36.4175050" lon="-5.1751530">
        <ele>16.3</ele>
        <time>2019-08-28T14:13:30Z</time>
      </trkpt>
      <trkpt lat="36.4175120" lon="-5.1750800">
        <ele>16.4</ele>
        <time>2019-08-28T14:13:31Z</time>
      </trkpt>
      <trkpt lat="36.4175210" lon="-5.1750070">
        <ele>16.5</ele>
        <time>2019-08-28T14:13:32Z</time>
      </trkpt>
      <trkpt lat="36.4175310" lon="-5.1749310">
        <ele>16.5</ele>
        <time>2019-08-28T14:13:33Z</time>
      </trkpt>
      <trkpt lat="36.4175430" lon="-5.1748550">
        <ele>16.4</ele>
        <time>2019-08-28T14:13:34Z</time>
      </trkpt>
      <trkpt lat="36.4175550" lon="-5.1747780">
        <ele>16.2</ele>
        <time>2019-08-28T14:13:35Z</time>
      </trkpt>
      <trkpt lat="36.4175680" lon="-5.1747000">
        <ele>16.0</ele>
        <time>2019-08-28T14:13:36Z</time>
      </trkpt>
      <trkpt lat="36.4175810" lon="-5.1746210">
        <ele>15.7</ele>
        <time>2019-08-28T14:13:37Z</time>
      </trkpt>
      <trkpt lat="36.4175940" lon="-5.1745410">
        <ele>15.3</ele>
        <time>2019-08-28T14:13:38Z</time>
      </trkpt>
      <trkpt lat="36.4176070" lon="-5.1744600">
        <ele>15.0</ele>
        <time>2019-08-28T14:13:39Z</time>
      </trkpt>
      <trkpt lat="36.4176190" lon="-5.1743790">
        <ele>14.8</ele>
        <time>2019-08-28T14:13:40Z</time>
      </trkpt>
      <trkpt lat="36.4176300" lon="-5.1742960">
        <ele>14.6</ele>
        <time>2019-08-28T14:13:41Z</time>
      </trkpt>
      <trkpt lat="36.4176420" lon="-5.1742130">
        <ele>14.5</ele>
        <time>2019-08-28T14:13:42Z</time>
      </trkpt>
      <trkpt lat="36.4176550" lon="-5.1741290">
        <ele>14.0</ele>
        <time>2019-08-28T14:13:43Z</time>
      </trkpt>
      <trkpt lat="36.4176660" lon="-5.1740460">
        <ele>13.7</ele>
        <time>2019-08-28T14:13:44Z</time>
      </trkpt>
      <trkpt lat="36.4176750" lon="-5.1739630">
        <ele>13.4</ele>
        <time>2019-08-28T14:13:45Z</time>
      </trkpt>
      <trkpt lat="36.4176810" lon="-5.1738780">
        <ele>13.1</ele>
        <time>2019-08-28T14:13:46Z</time>
      </trkpt>
      <trkpt lat="36.4176830" lon="-5.1737890">
        <ele>12.8</ele>
        <time>2019-08-28T14:13:47Z</time>
      </trkpt>
      <trkpt lat="36.4176810" lon="-5.1736950">
        <ele>12.6</ele>
        <time>2019-08-28T14:13:48Z</time>
      </trkpt>
      <trkpt lat="36.4176740" lon="-5.1736020">
        <ele>12.5</ele>
        <time>2019-08-28T14:13:49Z</time>
      </trkpt>
      <trkpt lat="36.4176640" lon="-5.1735140">
        <ele>12.6</ele>
        <time>2019-08-28T14:13:50Z</time>
      </trkpt>
      <trkpt lat="36.4176510" lon="-5.1734290">
        <ele>13.0</ele>
        <time>2019-08-28T14:13:51Z</time>
      </trkpt>
      <trkpt lat="36.4176250" lon="-5.1733490">
        <ele>13.7</ele>
        <time>2019-08-28T14:13:52Z</time>
      </trkpt>
      <trkpt lat="36.4175920" lon="-5.1732700">
        <ele>14.6</ele>
        <time>2019-08-28T14:13:53Z</time>
      </trkpt>
      <trkpt lat="36.4175560" lon="-5.1731930">
        <ele>15.2</ele>
        <time>2019-08-28T14:13:54Z</time>
      </trkpt>
      <trkpt lat="36.4175340" lon="-5.1731100">
        <ele>15.9</ele>
        <time>2019-08-28T14:13:55Z</time>
      </trkpt>
      <trkpt lat="36.4175210" lon="-5.1730260">
        <ele>17.2</ele>
        <time>2019-08-28T14:13:56Z</time>
      </trkpt>
      <trkpt lat="36.4175090" lon="-5.1729430">
        <ele>17.1</ele>
        <time>2019-08-28T14:13:57Z</time>
      </trkpt>
      <trkpt lat="36.4174950" lon="-5.1728620">
        <ele>17.1</ele>
        <time>2019-08-28T14:13:58Z</time>
      </trkpt>
      <trkpt lat="36.4174790" lon="-5.1727810">
        <ele>17.0</ele>
        <time>2019-08-28T14:13:59Z</time>
      </trkpt>
      <trkpt lat="36.4174600" lon="-5.1727030">
        <ele>16.9</ele>
        <time>2019-08-28T14:14:00Z</time>
      </trkpt>
      <trkpt lat="36.4174390" lon="-5.1726260">
        <ele>16.8</ele>
        <time>2019-08-28T14:14:01Z</time>
      </trkpt>
      <trkpt lat="36.4174130" lon="-5.1725500">
        <ele>16.7</ele>
        <time>2019-08-28T14:14:02Z</time>
      </trkpt>
      <trkpt lat="36.4173860" lon="-5.1724740">
        <ele>16.6</ele>
        <time>2019-08-28T14:14:03Z</time>
      </trkpt>
      <trkpt lat="36.4173560" lon="-5.1723970">
        <ele>16.5</ele>
        <time>2019-08-28T14:14:04Z</time>
      </trkpt>
      <trkpt lat="36.4173250" lon="-5.1723220">
        <ele>16.5</ele>
        <time>2019-08-28T14:14:05Z</time>
      </trkpt>
      <trkpt lat="36.4172930" lon="-5.1722480">
        <ele>16.3</ele>
        <time>2019-08-28T14:14:06Z</time>
      </trkpt>
      <trkpt lat="36.4172610" lon="-5.1721750">
        <ele>16.2</ele>
        <time>2019-08-28T14:14:07Z</time>
      </trkpt>
      <trkpt lat="36.4172310" lon="-5.1721010">
        <ele>16.1</ele>
        <time>2019-08-28T14:14:08Z</time>
      </trkpt>
      <trkpt lat="36.4172000" lon="-5.1720270">
        <ele>15.9</ele>
        <time>2019-08-28T14:14:09Z</time>
      </trkpt>
      <trkpt lat="36.4171670" lon="-5.1719520">
        <ele>15.7</ele>
        <time>2019-08-28T14:14:10Z</time>
      </trkpt>
      <trkpt lat="36.4171350" lon="-5.1718750">
        <ele>15.5</ele>
        <time>2019-08-28T14:14:11Z</time>
      </trkpt>
      <trkpt lat="36.4171040" lon="-5.1717980">
        <ele>15.3</ele>
        <time>2019-08-28T14:14:12Z</time>
      </trkpt>
      <trkpt lat="36.4170760" lon="-5.1717190">
        <ele>15.1</ele>
        <time>2019-08-28T14:14:13Z</time>
      </trkpt>
      <trkpt lat="36.4170480" lon="-5.1716370">
        <ele>14.9</ele>
        <time>2019-08-28T14:14:14Z</time>
      </trkpt>
      <trkpt lat="36.4170210" lon="-5.1715540">
        <ele>14.7</ele>
        <time>2019-08-28T14:14:15Z</time>
      </trkpt>
      <trkpt lat="36.4169960" lon="-5.1714680">
        <ele>14.5</ele>
        <time>2019-08-28T14:14:16Z</time>
      </trkpt>
      <trkpt lat="36.4169750" lon="-5.1713820">
        <ele>14.4</ele>
        <time>2019-08-28T14:14:17Z</time>
      </trkpt>
      <trkpt lat="36.4169580" lon="-5.1712940">
        <ele>14.2</ele>
        <time>2019-08-28T14:14:18Z</time>
      </trkpt>
      <trkpt lat="36.4169440" lon="-5.1712040">
        <ele>14.1</ele>
        <time>2019-08-28T14:14:19Z</time>
      </trkpt>
      <trkpt lat="36.4169330" lon="-5.1711130">
        <ele>13.9</ele>
        <time>2019-08-28T14:14:20Z</time>
      </trkpt>
      <trkpt lat="36.4169250" lon="-5.1710210">
        <ele>13.8</ele>
        <time>2019-08-28T14:14:21Z</time>
      </trkpt>
      <trkpt lat="36.4169210" lon="-5.1709270">
        <ele>13.6</ele>
        <time>2019-08-28T14:14:22Z</time>
      </trkpt>
      <trkpt lat="36.4169210" lon="-5.1708330">
        <ele>13.5</ele>
        <time>2019-08-28T14:14:23Z</time>
      </trkpt>
      <trkpt lat="36.4169210" lon="-5.1707380">
        <ele>13.5</ele>
        <time>2019-08-28T14:14:24Z</time>
      </trkpt>
      <trkpt lat="36.4169220" lon="-5.1706440">
        <ele>13.5</ele>
        <time>2019-08-28T14:14:25Z</time>
      </trkpt>
      <trkpt lat="36.4169270" lon="-5.1705500">
        <ele>13.5</ele>
        <time>2019-08-28T14:14:26Z</time>
      </trkpt>
      <trkpt lat="36.4169340" lon="-5.1704540">
        <ele>13.5</ele>
        <time>2019-08-28T14:14:27Z</time>
      </trkpt>
      <trkpt lat="36.4169450" lon="-5.1703570">
        <ele>13.4</ele>
        <time>2019-08-28T14:14:28Z</time>
      </trkpt>
      <trkpt lat="36.4169560" lon="-5.1702590">
        <ele>13.4</ele>
        <time>2019-08-28T14:14:29Z</time>
      </trkpt>
      <trkpt lat="36.4169680" lon="-5.1701600">
        <ele>13.2</ele>
        <time>2019-08-28T14:14:30Z</time>
      </trkpt>
      <trkpt lat="36.4169810" lon="-5.1700600">
        <ele>13.0</ele>
        <time>2019-08-28T14:14:31Z</time>
      </trkpt>
      <trkpt lat="36.4169950" lon="-5.1699580">
        <ele>12.8</ele>
        <time>2019-08-28T14:14:32Z</time>
      </trkpt>
      <trkpt lat="36.4170110" lon="-5.1698540">
        <ele>12.6</ele>
        <time>2019-08-28T14:14:33Z</time>
      </trkpt>
      <trkpt lat="36.4170260" lon="-5.1697500">
        <ele>12.5</ele>
        <time>2019-08-28T14:14:34Z</time>
      </trkpt>
      <trkpt lat="36.4170400" lon="-5.1696450">
        <ele>12.4</ele>
        <time>2019-08-28T14:14:35Z</time>
      </trkpt>
      <trkpt lat="36.4170550" lon="-5.1695400">
        <ele>12.3</ele>
        <time>2019-08-28T14:14:36Z</time>
      </trkpt>
      <trkpt lat="36.4170700" lon="-5.1694340">
        <ele>12.3</ele>
        <time>2019-08-28T14:14:37Z</time>
      </trkpt>
      <trkpt lat="36.4170850" lon="-5.1693290">
        <ele>12.3</ele>
        <time>2019-08-28T14:14:38Z</time>
      </trkpt>
      <trkpt lat="36.4170990" lon="-5.1692250">
        <ele>12.4</ele>
        <time>2019-08-28T14:14:39Z</time>
      </trkpt>
      <trkpt lat="36.4171140" lon="-5.1691220">
        <ele>12.4</ele>
        <time>2019-08-28T14:14:40Z</time>
      </trkpt>
      <trkpt lat="36.4171290" lon="-5.1690200">
        <ele>12.5</ele>
        <time>2019-08-28T14:14:41Z</time>
      </trkpt>
      <trkpt lat="36.4171450" lon="-5.1689200">
        <ele>12.5</ele>
        <time>2019-08-28T14:14:42Z</time>
      </trkpt>
      <trkpt lat="36.4171600" lon="-5.1688210">
        <ele>12.5</ele>
        <time>2019-08-28T14:14:43Z</time>
      </trkpt>
      <trkpt lat="36.4171710" lon="-5.1687250">
        <ele>12.6</ele>
        <time>2019-08-28T14:14:44Z</time>
      </trkpt>
      <trkpt lat="36.4171800" lon="-5.1686300">
        <ele>12.6</ele>
        <time>2019-08-28T14:14:45Z</time>
      </trkpt>
      <trkpt lat="36.4171780" lon="-5.1685380">
        <ele>12.7</ele>
        <time>2019-08-28T14:14:46Z</time>
      </trkpt>
      <trkpt lat="36.4171650" lon="-5.1684510">
        <ele>12.7</ele>
        <time>2019-08-28T14:14:47Z</time>
      </trkpt>
      <trkpt lat="36.4171500" lon="-5.1683660">
        <ele>12.5</ele>
        <time>2019-08-28T14:14:48Z</time>
      </trkpt>
      <trkpt lat="36.4171460" lon="-5.1682840">
        <ele>12.5</ele>
        <time>2019-08-28T14:14:49Z</time>
      </trkpt>
      <trkpt lat="36.4171570" lon="-5.1682040">
        <ele>12.4</ele>
        <time>2019-08-28T14:14:50Z</time>
      </trkpt>
      <trkpt lat="36.4171790" lon="-5.1681320">
        <ele>12.4</ele>
        <time>2019-08-28T14:14:51Z</time>
      </trkpt>
      <trkpt lat="36.4172080" lon="-5.1680620">
        <ele>12.4</ele>
        <time>2019-08-28T14:14:52Z</time>
      </trkpt>
      <trkpt lat="36.4172360" lon="-5.1679910">
        <ele>12.4</ele>
        <time>2019-08-28T14:14:53Z</time>
      </trkpt>
      <trkpt lat="36.4172590" lon="-5.1679180">
        <ele>12.5</ele>
        <time>2019-08-28T14:14:54Z</time>
      </trkpt>
      <trkpt lat="36.4172770" lon="-5.1678440">
        <ele>12.5</ele>
        <time>2019-08-28T14:14:55Z</time>
      </trkpt>
      <trkpt lat="36.4172930" lon="-5.1677700">
        <ele>12.5</ele>
        <time>2019-08-28T14:14:56Z</time>
      </trkpt>
      <trkpt lat="36.4173060" lon="-5.1676950">
        <ele>12.5</ele>
        <time>2019-08-28T14:14:57Z</time>
      </trkpt>
      <trkpt lat="36.4173170" lon="-5.1676200">
        <ele>12.6</ele>
        <time>2019-08-28T14:14:58Z</time>
      </trkpt>
      <trkpt lat="36.4173270" lon="-5.1675470">
        <ele>12.6</ele>
        <time>2019-08-28T14:14:59Z</time>
      </trkpt>
      <trkpt lat="36.4173380" lon="-5.1674740">
        <ele>12.7</ele>
        <time>2019-08-28T14:15:00Z</time>
      </trkpt>
      <trkpt lat="36.4173490" lon="-5.1674010">
        <ele>12.9</ele>
        <time>2019-08-28T14:15:01Z</time>
      </trkpt>
      <trkpt lat="36.4173620" lon="-5.1673280">
        <ele>13.0</ele>
        <time>2019-08-28T14:15:02Z</time>
      </trkpt>
      <trkpt lat="36.4173750" lon="-5.1672530">
        <ele>13.2</ele>
        <time>2019-08-28T14:15:03Z</time>
      </trkpt>
      <trkpt lat="36.4173870" lon="-5.1671790">
        <ele>13.4</ele>
        <time>2019-08-28T14:15:04Z</time>
      </trkpt>
      <trkpt lat="36.4173980" lon="-5.1671040">
        <ele>13.7</ele>
        <time>2019-08-28T14:15:05Z</time>
      </trkpt>
      <trkpt lat="36.4174100" lon="-5.1670300">
        <ele>13.9</ele>
        <time>2019-08-28T14:15:06Z</time>
      </trkpt>
      <trkpt lat="36.4174210" lon="-5.1669570">
        <ele>14.2</ele>
        <time>2019-08-28T14:15:07Z</time>
      </trkpt>
      <trkpt lat="36.4174310" lon="-5.1668850">
        <ele>14.4</ele>
        <time>2019-08-28T14:15:08Z</time>
      </trkpt>
      <trkpt lat="36.4174420" lon="-5.1668140">
        <ele>14.7</ele>
        <time>2019-08-28T14:15:09Z</time>
      </trkpt>
      <trkpt lat="36.4174520" lon="-5.1667440">
        <ele>15.0</ele>
        <time>2019-08-28T14:15:10Z</time>
      </trkpt>
      <trkpt lat="36.4174610" lon="-5.1666730">
        <ele>15.3</ele>
        <time>2019-08-28T14:15:11Z</time>
      </trkpt>
      <trkpt lat="36.4174720" lon="-5.1666030">
        <ele>15.5</ele>
        <time>2019-08-28T14:15:12Z</time>
      </trkpt>
      <trkpt lat="36.4174840" lon="-5.1665320">
        <ele>15.8</ele>
        <time>2019-08-28T14:15:13Z</time>
      </trkpt>
      <trkpt lat="36.4174980" lon="-5.1664620">
        <ele>16.0</ele>
        <time>2019-08-28T14:15:14Z</time>
      </trkpt>
      <trkpt lat="36.4175100" lon="-5.1663930">
        <ele>16.3</ele>
        <time>2019-08-28T14:15:15Z</time>
      </trkpt>
      <trkpt lat="36.4175210" lon="-5.1663240">
        <ele>16.5</ele>
        <time>2019-08-28T14:15:16Z</time>
      </trkpt>
      <trkpt lat="36.4175300" lon="-5.1662560">
        <ele>16.7</ele>
        <time>2019-08-28T14:15:17Z</time>
      </trkpt>
      <trkpt lat="36.4175400" lon="-5.1661870">
        <ele>16.9</ele>
        <time>2019-08-28T14:15:18Z</time>
      </trkpt>
      <trkpt lat="36.4175490" lon="-5.1661190">
        <ele>17.2</ele>
        <time>2019-08-28T14:15:19Z</time>
      </trkpt>
      <trkpt lat="36.4175600" lon="-5.1660510">
        <ele>17.5</ele>
        <time>2019-08-28T14:15:20Z</time>
      </trkpt>
      <trkpt lat="36.4175690" lon="-5.1659820">
        <ele>17.7</ele>
        <time>2019-08-28T14:15:21Z</time>
      </trkpt>
      <trkpt lat="36.4175770" lon="-5.1659140">
        <ele>18.0</ele>
        <time>2019-08-28T14:15:22Z</time>
      </trkpt>
      <trkpt lat="36.4175850" lon="-5.1658440">
        <ele>18.2</ele>
        <time>2019-08-28T14:15:23Z</time>
      </trkpt>
      <trkpt lat="36.4175920" lon="-5.1657740">
        <ele>18.4</ele>
        <time>2019-08-28T14:15:24Z</time>
      </trkpt>
      <trkpt lat="36.4175980" lon="-5.1657030">
        <ele>18.6</ele>
        <time>2019-08-28T14:15:25Z</time>
      </trkpt>
      <trkpt lat="36.4176020" lon="-5.1656310">
        <ele>18.9</ele>
        <time>2019-08-28T14:15:26Z</time>
      </trkpt>
      <trkpt lat="36.4176030" lon="-5.1655580">
        <ele>19.1</ele>
        <time>2019-08-28T14:15:27Z</time>
      </trkpt>
      <trkpt lat="36.4176040" lon="-5.1654850">
        <ele>19.3</ele>
        <time>2019-08-28T14:15:28Z</time>
      </trkpt>
      <trkpt lat="36.4176030" lon="-5.1654110">
        <ele>19.5</ele>
        <time>2019-08-28T14:15:29Z</time>
      </trkpt>
      <trkpt lat="36.4176000" lon="-5.1653390">
        <ele>19.6</ele>
        <time>2019-08-28T14:15:30Z</time>
      </trkpt>
      <trkpt lat="36.4175940" lon="-5.1652670">
        <ele>19.8</ele>
        <time>2019-08-28T14:15:31Z</time>
      </trkpt>
      <trkpt lat="36.4175840" lon="-5.1651960">
        <ele>19.9</ele>
        <time>2019-08-28T14:15:32Z</time>
      </trkpt>
      <trkpt lat="36.4175690" lon="-5.1651250">
        <ele>20.1</ele>
        <time>2019-08-28T14:15:33Z</time>
      </trkpt>
      <trkpt lat="36.4175480" lon="-5.1650550">
        <ele>20.2</ele>
        <time>2019-08-28T14:15:34Z</time>
      </trkpt>
      <trkpt lat="36.4175250" lon="-5.1649850">
        <ele>20.4</ele>
        <time>2019-08-28T14:15:35Z</time>
      </trkpt>
      <trkpt lat="36.4175030" lon="-5.1649140">
        <ele>20.7</ele>
        <time>2019-08-28T14:15:36Z</time>
      </trkpt>
      <trkpt lat="36.4174860" lon="-5.1648400">
        <ele>20.0</ele>
        <time>2019-08-28T14:15:37Z</time>
      </trkpt>
      <trkpt lat="36.4174740" lon="-5.1647630">
        <ele>19.7</ele>
        <time>2019-08-28T14:15:38Z</time>
      </trkpt>
      <trkpt lat="36.4174620" lon="-5.1646860">
        <ele>20.3</ele>
        <time>2019-08-28T14:15:39Z</time>
      </trkpt>
      <trkpt lat="36.4174450" lon="-5.1646100">
        <ele>20.6</ele>
        <time>2019-08-28T14:15:40Z</time>
      </trkpt>
      <trkpt lat="36.4174230" lon="-5.1645350">
        <ele>20.8</ele>
        <time>2019-08-28T14:15:41Z</time>
      </trkpt>
      <trkpt lat="36.4173940" lon="-5.1644630">
        <ele>21.0</ele>
        <time>2019-08-28T14:15:42Z</time>
      </trkpt>
      <trkpt lat="36.4173610" lon="-5.1643910">
        <ele>21.0</ele>
        <time>2019-08-28T14:15:43Z</time>
      </trkpt>
      <trkpt lat="36.4173210" lon="-5.1643220">
        <ele>21.1</ele>
        <time>2019-08-28T14:15:44Z</time>
      </trkpt>
      <trkpt lat="36.4172740" lon="-5.1642570">
        <ele>21.1</ele>
        <time>2019-08-28T14:15:45Z</time>
      </trkpt>
      <trkpt lat="36.4172240" lon="-5.1641950">
        <ele>21.1</ele>
        <time>2019-08-28T14:15:46Z</time>
      </trkpt>
      <trkpt lat="36.4171720" lon="-5.1641350">
        <ele>21.1</ele>
        <time>2019-08-28T14:15:47Z</time>
      </trkpt>
      <trkpt lat="36.4171230" lon="-5.1640750">
        <ele>21.2</ele>
        <time>2019-08-28T14:15:48Z</time>
      </trkpt>
      <trkpt lat="36.4170740" lon="-5.1640160">
        <ele>21.2</ele>
        <time>2019-08-28T14:15:49Z</time>
      </trkpt>
      <trkpt lat="36.4170230" lon="-5.1639600">
        <ele>21.2</ele>
        <time>2019-08-28T14:15:50Z</time>
      </trkpt>
      <trkpt lat="36.4169710" lon="-5.1639060">
        <ele>21.2</ele>
        <time>2019-08-28T14:15:51Z</time>
      </trkpt>
      <trkpt lat="36.4169180" lon="-5.1638520">
        <ele>21.2</ele>
        <time>2019-08-28T14:15:52Z</time>
      </trkpt>
      <trkpt lat="36.4168640" lon="-5.1637990">
        <ele>21.2</ele>
        <time>2019-08-28T14:15:53Z</time>
      </trkpt>
      <trkpt lat="36.4168080" lon="-5.1637470">
        <ele>21.2</ele>
        <time>2019-08-28T14:15:54Z</time>
      </trkpt>
      <trkpt lat="36.4167500" lon="-5.1636960">
        <ele>21.3</ele>
        <time>2019-08-28T14:15:55Z</time>
      </trkpt>
      <trkpt lat="36.4166890" lon="-5.1636470">
        <ele>21.3</ele>
        <time>2019-08-28T14:15:56Z</time>
      </trkpt>
      <trkpt lat="36.4166260" lon="-5.1636000">
        <ele>21.4</ele>
        <time>2019-08-28T14:15:57Z</time>
      </trkpt>
      <trkpt lat="36.4165640" lon="-5.1635530">
        <ele>21.5</ele>
        <time>2019-08-28T14:15:58Z</time>
      </trkpt>
      <trkpt lat="36.4165050" lon="-5.1635030">
        <ele>21.6</ele>
        <time>2019-08-28T14:15:59Z</time>
      </trkpt>
      <trkpt lat="36.4164480" lon="-5.1634510">
        <ele>21.8</ele>
        <time>2019-08-28T14:16:00Z</time>
      </trkpt>
      <trkpt lat="36.4163930" lon="-5.1633960">
        <ele>22.0</ele>
        <time>2019-08-28T14:16:01Z</time>
      </trkpt>
      <trkpt lat="36.4163390" lon="-5.1633400">
        <ele>22.1</ele>
        <time>2019-08-28T14:16:02Z</time>
      </trkpt>
      <trkpt lat="36.4162870" lon="-5.1632840">
        <ele>22.2</ele>
        <time>2019-08-28T14:16:03Z</time>
      </trkpt>
      <trkpt lat="36.4162370" lon="-5.1632250">
        <ele>22.4</ele>
        <time>2019-08-28T14:16:04Z</time>
      </trkpt>
      <trkpt lat="36.4161880" lon="-5.1631660">
        <ele>22.6</ele>
        <time>2019-08-28T14:16:05Z</time>
      </trkpt>
      <trkpt lat="36.4161420" lon="-5.1631040">
        <ele>22.7</ele>
        <time>2019-08-28T14:16:06Z</time>
      </trkpt>
      <trkpt lat="36.4160980" lon="-5.1630410">
        <ele>22.9</ele>
        <time>2019-08-28T14:16:07Z</time>
      </trkpt>
      <trkpt lat="36.4160540" lon="-5.1629770">
        <ele>23.0</ele>
        <time>2019-08-28T14:16:08Z</time>
      </trkpt>
      <trkpt lat="36.4160110" lon="-5.1629120">
        <ele>23.1</ele>
        <time>2019-08-28T14:16:09Z</time>
      </trkpt>
      <trkpt lat="36.4159680" lon="-5.1628470">
        <ele>23.2</ele>
        <time>2019-08-28T14:16:10Z</time>
      </trkpt>
      <trkpt lat="36.4159280" lon="-5.1627790">
        <ele>23.2</ele>
        <time>2019-08-28T14:16:11Z</time>
      </trkpt>
      <trkpt lat="36.4158900" lon="-5.1627100">
        <ele>23.3</ele>
        <time>2019-08-28T14:16:12Z</time>
      </trkpt>
      <trkpt lat="36.4158540" lon="-5.1626380">
        <ele>23.3</ele>
        <time>2019-08-28T14:16:13Z</time>
      </trkpt>
      <trkpt lat="36.4158180" lon="-5.1625660">
        <ele>23.3</ele>
        <time>2019-08-28T14:16:14Z</time>
      </trkpt>
      <trkpt lat="36.4157810" lon="-5.1624920">
        <ele>23.3</ele>
        <time>2019-08-28T14:16:15Z</time>
      </trkpt>
      <trkpt lat="36.4157470" lon="-5.1624180">
        <ele>23.3</ele>
        <time>2019-08-28T14:16:16Z</time>
      </trkpt>
      <trkpt lat="36.4157150" lon="-5.1623430">
        <ele>23.3</ele>
        <time>2019-08-28T14:16:17Z</time>
      </trkpt>
      <trkpt lat="36.4156840" lon="-5.1622660">
        <ele>23.3</ele>
        <time>2019-08-28T14:16:18Z</time>
      </trkpt>
      <trkpt lat="36.4156570" lon="-5.1621860">
        <ele>23.3</ele>
        <time>2019-08-28T14:16:19Z</time>
      </trkpt>
      <trkpt lat="36.4156330" lon="-5.1621050">
        <ele>23.3</ele>
        <time>2019-08-28T14:16:20Z</time>
      </trkpt>
      <trkpt lat="36.4156120" lon="-5.1620230">
        <ele>23.4</ele>
        <time>2019-08-28T14:16:21Z</time>
      </trkpt>
      <trkpt lat="36.4155900" lon="-5.1619420">
        <ele>23.4</ele>
        <time>2019-08-28T14:16:22Z</time>
      </trkpt>
      <trkpt lat="36.4155670" lon="-5.1618610">
        <ele>23.4</ele>
        <time>2019-08-28T14:16:23Z</time>
      </trkpt>
      <trkpt lat="36.4155460" lon="-5.1617800">
        <ele>23.4</ele>
        <time>2019-08-28T14:16:24Z</time>
      </trkpt>
      <trkpt lat="36.4155270" lon="-5.1617000">
        <ele>23.4</ele>
        <time>2019-08-28T14:16:25Z</time>
      </trkpt>
      <trkpt lat="36.4155120" lon="-5.1616180">
        <ele>22.3</ele>
        <time>2019-08-28T14:16:26Z</time>
      </trkpt>
      <trkpt lat="36.4155030" lon="-5.1615370">
        <ele>22.3</ele>
        <time>2019-08-28T14:16:27Z</time>
      </trkpt>
      <trkpt lat="36.4154990" lon="-5.1614550">
        <ele>22.3</ele>
        <time>2019-08-28T14:16:28Z</time>
      </trkpt>
      <trkpt lat="36.4154970" lon="-5.1613730">
        <ele>22.5</ele>
        <time>2019-08-28T14:16:29Z</time>
      </trkpt>
      <trkpt lat="36.4154980" lon="-5.1612880">
        <ele>22.3</ele>
        <time>2019-08-28T14:16:30Z</time>
      </trkpt>
      <trkpt lat="36.4155030" lon="-5.1611990">
        <ele>21.9</ele>
        <time>2019-08-28T14:16:31Z</time>
      </trkpt>
      <trkpt lat="36.4155110" lon="-5.1611090">
        <ele>21.7</ele>
        <time>2019-08-28T14:16:32Z</time>
      </trkpt>
      <trkpt lat="36.4155220" lon="-5.1610190">
        <ele>21.5</ele>
        <time>2019-08-28T14:16:33Z</time>
      </trkpt>
      <trkpt lat="36.4155390" lon="-5.1609300">
        <ele>21.4</ele>
        <time>2019-08-28T14:16:34Z</time>
      </trkpt>
      <trkpt lat="36.4155600" lon="-5.1608410">
        <ele>21.2</ele>
        <time>2019-08-28T14:16:35Z</time>
      </trkpt>
      <trkpt lat="36.4155830" lon="-5.1607490">
        <ele>21.1</ele>
        <time>2019-08-28T14:16:36Z</time>
      </trkpt>
      <trkpt lat="36.4156060" lon="-5.1606580">
        <ele>21.0</ele>
        <time>2019-08-28T14:16:37Z</time>
      </trkpt>
      <trkpt lat="36.4156320" lon="-5.1605680">
        <ele>21.0</ele>
        <time>2019-08-28T14:16:38Z</time>
      </trkpt>
      <trkpt lat="36.4156600" lon="-5.1604800">
        <ele>21.0</ele>
        <time>2019-08-28T14:16:39Z</time>
      </trkpt>
      <trkpt lat="36.4156890" lon="-5.1603930">
        <ele>21.0</ele>
        <time>2019-08-28T14:16:40Z</time>
      </trkpt>
      <trkpt lat="36.4157200" lon="-5.1603090">
        <ele>21.0</ele>
        <time>2019-08-28T14:16:41Z</time>
      </trkpt>
      <trkpt lat="36.4157530" lon="-5.1602260">
        <ele>20.9</ele>
        <time>2019-08-28T14:16:42Z</time>
      </trkpt>
      <trkpt lat="36.4157870" lon="-5.1601420">
        <ele>20.7</ele>
        <time>2019-08-28T14:16:43Z</time>
      </trkpt>
      <trkpt lat="36.4158220" lon="-5.1600580">
        <ele>20.6</ele>
        <time>2019-08-28T14:16:44Z</time>
      </trkpt>
      <trkpt lat="36.4158580" lon="-5.1599730">
        <ele>20.4</ele>
        <time>2019-08-28T14:16:45Z</time>
      </trkpt>
      <trkpt lat="36.4158950" lon="-5.1598880">
        <ele>20.3</ele>
        <time>2019-08-28T14:16:46Z</time>
      </trkpt>
      <trkpt lat="36.4159340" lon="-5.1598040">
        <ele>20.1</ele>
        <time>2019-08-28T14:16:47Z</time>
      </trkpt>
      <trkpt lat="36.4159740" lon="-5.1597200">
        <ele>20.0</ele>
        <time>2019-08-28T14:16:48Z</time>
      </trkpt>
      <trkpt lat="36.4160150" lon="-5.1596350">
        <ele>19.6</ele>
        <time>2019-08-28T14:16:49Z</time>
      </trkpt>
      <trkpt lat="36.4160570" lon="-5.1595490">
        <ele>19.4</ele>
        <time>2019-08-28T14:16:50Z</time>
      </trkpt>
      <trkpt lat="36.4161000" lon="-5.1594620">
        <ele>19.1</ele>
        <time>2019-08-28T14:16:51Z</time>
      </trkpt>
      <trkpt lat="36.4161440" lon="-5.1593730">
        <ele>18.9</ele>
        <time>2019-08-28T14:16:52Z</time>
      </trkpt>
      <trkpt lat="36.4161920" lon="-5.1592840">
        <ele>18.6</ele>
        <time>2019-08-28T14:16:53Z</time>
      </trkpt>
      <trkpt lat="36.4162430" lon="-5.1591940">
        <ele>18.4</ele>
        <time>2019-08-28T14:16:54Z</time>
      </trkpt>
      <trkpt lat="36.4162950" lon="-5.1591040">
        <ele>18.0</ele>
        <time>2019-08-28T14:16:55Z</time>
      </trkpt>
      <trkpt lat="36.4163480" lon="-5.1590130">
        <ele>17.7</ele>
        <time>2019-08-28T14:16:56Z</time>
      </trkpt>
      <trkpt lat="36.4164020" lon="-5.1589220">
        <ele>17.5</ele>
        <time>2019-08-28T14:16:57Z</time>
      </trkpt>
      <trkpt lat="36.4164570" lon="-5.1588300">
        <ele>17.2</ele>
        <time>2019-08-28T14:16:58Z</time>
      </trkpt>
      <trkpt lat="36.4165120" lon="-5.1587380">
        <ele>16.9</ele>
        <time>2019-08-28T14:16:59Z</time>
      </trkpt>
      <trkpt lat="36.4165710" lon="-5.1586470">
        <ele>16.4</ele>
        <time>2019-08-28T14:17:00Z</time>
      </trkpt>
      <trkpt lat="36.4166290" lon="-5.1585590">
        <ele>15.8</ele>
        <time>2019-08-28T14:17:01Z</time>
      </trkpt>
      <trkpt lat="36.4166850" lon="-5.1584770">
        <ele>15.2</ele>
        <time>2019-08-28T14:17:02Z</time>
      </trkpt>
      <trkpt lat="36.4167320" lon="-5.1584000">
        <ele>14.8</ele>
        <time>2019-08-28T14:17:03Z</time>
      </trkpt>
      <trkpt lat="36.4167720" lon="-5.1583280">
        <ele>14.5</ele>
        <time>2019-08-28T14:17:04Z</time>
      </trkpt>
      <trkpt lat="36.4168040" lon="-5.1582560">
        <ele>14.3</ele>
        <time>2019-08-28T14:17:05Z</time>
      </trkpt>
      <trkpt lat="36.4168340" lon="-5.1581850">
        <ele>13.5</ele>
        <time>2019-08-28T14:17:06Z</time>
      </trkpt>
      <trkpt lat="36.4168680" lon="-5.1581200">
        <ele>13.3</ele>
        <time>2019-08-28T14:17:07Z</time>
      </trkpt>
      <trkpt lat="36.4169120" lon="-5.1580660">
        <ele>13.1</ele>
        <time>2019-08-28T14:17:08Z</time>
      </trkpt>
      <trkpt lat="36.4169660" lon="-5.1580310">
        <ele>13.0</ele>
        <time>2019-08-28T14:17:09Z</time>
      </trkpt>
      <trkpt lat="36.4170230" lon="-5.1580180">
        <ele>13.1</ele>
        <time>2019-08-28T14:17:10Z</time>
      </trkpt>
      <trkpt lat="36.4170840" lon="-5.1580260">
        <ele>13.3</ele>
        <time>2019-08-28T14:17:11Z</time>
      </trkpt>
      <trkpt lat="36.4171400" lon="-5.1580530">
        <ele>13.5</ele>
        <time>2019-08-28T14:17:12Z</time>
      </trkpt>
      <trkpt lat="36.4171950" lon="-5.1580900">
        <ele>13.9</ele>
        <time>2019-08-28T14:17:13Z</time>
      </trkpt>
      <trkpt lat="36.4172450" lon="-5.1581330">
        <ele>14.1</ele>
        <time>2019-08-28T14:17:14Z</time>
      </trkpt>
      <trkpt lat="36.4172930" lon="-5.1581740">
        <ele>14.3</ele>
        <time>2019-08-28T14:17:15Z</time>
      </trkpt>
      <trkpt lat="36.4173410" lon="-5.1582100">
        <ele>14.5</ele>
        <time>2019-08-28T14:17:16Z</time>
      </trkpt>
      <trkpt lat="36.4173910" lon="-5.1582390">
        <ele>14.7</ele>
        <time>2019-08-28T14:17:17Z</time>
      </trkpt>
      <trkpt lat="36.4174430" lon="-5.1582650">
        <ele>14.9</ele>
        <time>2019-08-28T14:17:18Z</time>
      </trkpt>
      <trkpt lat="36.4174970" lon="-5.1582920">
        <ele>15.0</ele>
        <time>2019-08-28T14:17:19Z</time>
      </trkpt>
      <trkpt lat="36.4175500" lon="-5.1583190">
        <ele>15.1</ele>
        <time>2019-08-28T14:17:20Z</time>
      </trkpt>
      <trkpt lat="36.4176070" lon="-5.1583420">
        <ele>15.2</ele>
        <time>2019-08-28T14:17:21Z</time>
      </trkpt>
      <trkpt lat="36.4176650" lon="-5.1583580">
        <ele>15.3</ele>
        <time>2019-08-28T14:17:22Z</time>
      </trkpt>
      <trkpt lat="36.4177250" lon="-5.1583650">
        <ele>15.4</ele>
        <time>2019-08-28T14:17:23Z</time>
      </trkpt>
      <trkpt lat="36.4177860" lon="-5.1583670">
        <ele>15.5</ele>
        <time>2019-08-28T14:17:24Z</time>
      </trkpt>
      <trkpt lat="36.4178450" lon="-5.1583620">
        <ele>15.6</ele>
        <time>2019-08-28T14:17:25Z</time>
      </trkpt>
      <trkpt lat="36.4179040" lon="-5.1583570">
        <ele>15.7</ele>
        <time>2019-08-28T14:17:26Z</time>
      </trkpt>
      <trkpt lat="36.4179620" lon="-5.1583500">
        <ele>15.8</ele>
        <time>2019-08-28T14:17:27Z</time>
      </trkpt>
      <trkpt lat="36.4180200" lon="-5.1583450">
        <ele>15.9</ele>
        <time>2019-08-28T14:17:28Z</time>
      </trkpt>
      <trkpt lat="36.4180790" lon="-5.1583390">
        <ele>16.1</ele>
        <time>2019-08-28T14:17:29Z</time>
      </trkpt>
      <trkpt lat="36.4181380" lon="-5.1583320">
        <ele>16.1</ele>
        <time>2019-08-28T14:17:30Z</time>
      </trkpt>
      <trkpt lat="36.4181960" lon="-5.1583230">
        <ele>16.2</ele>
        <time>2019-08-28T14:17:31Z</time>
      </trkpt>
      <trkpt lat="36.4182540" lon="-5.1583160">
        <ele>16.1</ele>
        <time>2019-08-28T14:17:32Z</time>
      </trkpt>
      <trkpt lat="36.4183140" lon="-5.1583080">
        <ele>16.1</ele>
        <time>2019-08-28T14:17:33Z</time>
      </trkpt>
      <trkpt lat="36.4183730" lon="-5.1583020">
        <ele>16.1</ele>
        <time>2019-08-28T14:17:34Z</time>
      </trkpt>
      <trkpt lat="36.4184350" lon="-5.1582950">
        <ele>16.1</ele>
        <time>2019-08-28T14:17:35Z</time>
      </trkpt>
      <trkpt lat="36.4184980" lon="-5.1582880">
        <ele>16.1</ele>
        <time>2019-08-28T14:17:36Z</time>
      </trkpt>
      <trkpt lat="36.4185620" lon="-5.1582810">
        <ele>16.1</ele>
        <time>2019-08-28T14:17:37Z</time>
      </trkpt>
      <trkpt lat="36.4186260" lon="-5.1582740">
        <ele>16.2</ele>
        <time>2019-08-28T14:17:38Z</time>
      </trkpt>
      <trkpt lat="36.4186880" lon="-5.1582670">
        <ele>16.3</ele>
        <time>2019-08-28T14:17:39Z</time>
      </trkpt>
      <trkpt lat="36.4187490" lon="-5.1582600">
        <ele>16.4</ele>
        <time>2019-08-28T14:17:40Z</time>
      </trkpt>
      <trkpt lat="36.4188090" lon="-5.1582530">
        <ele>16.6</ele>
        <time>2019-08-28T14:17:41Z</time>
      </trkpt>
      <trkpt lat="36.4188660" lon="-5.1582440">
        <ele>16.8</ele>
        <time>2019-08-28T14:17:42Z</time>
      </trkpt>
      <trkpt lat="36.4189210" lon="-5.1582350">
        <ele>16.9</ele>
        <time>2019-08-28T14:17:43Z</time>
      </trkpt>
      <trkpt lat="36.4189740" lon="-5.1582260">
        <ele>17.0</ele>
        <time>2019-08-28T14:17:44Z</time>
      </trkpt>
      <trkpt lat="36.4190280" lon="-5.1582180">
        <ele>17.1</ele>
        <time>2019-08-28T14:17:45Z</time>
      </trkpt>
      <trkpt lat="36.4190800" lon="-5.1582100">
        <ele>17.1</ele>
        <time>2019-08-28T14:17:46Z</time>
      </trkpt>
      <trkpt lat="36.4191320" lon="-5.1582020">
        <ele>17.2</ele>
        <time>2019-08-28T14:17:47Z</time>
      </trkpt>
      <trkpt lat="36.4191810" lon="-5.1581950">
        <ele>17.2</ele>
        <time>2019-08-28T14:17:48Z</time>
      </trkpt>
      <trkpt lat="36.4192310" lon="-5.1581910">
        <ele>17.3</ele>
        <time>2019-08-28T14:17:49Z</time>
      </trkpt>
      <trkpt lat="36.4192790" lon="-5.1581860">
        <ele>17.3</ele>
        <time>2019-08-28T14:17:50Z</time>
      </trkpt>
      <trkpt lat="36.4193270" lon="-5.1581810">
        <ele>17.3</ele>
        <time>2019-08-28T14:17:51Z</time>
      </trkpt>
      <trkpt lat="36.4193750" lon="-5.1581760">
        <ele>17.4</ele>
        <time>2019-08-28T14:17:52Z</time>
      </trkpt>
      <trkpt lat="36.4194240" lon="-5.1581720">
        <ele>17.4</ele>
        <time>2019-08-28T14:17:53Z</time>
      </trkpt>
      <trkpt lat="36.4194720" lon="-5.1581670">
        <ele>17.5</ele>
        <time>2019-08-28T14:17:54Z</time>
      </trkpt>
      <trkpt lat="36.4195210" lon="-5.1581580">
        <ele>17.6</ele>
        <time>2019-08-28T14:17:55Z</time>
      </trkpt>
      <trkpt lat="36.4195680" lon="-5.1581420">
        <ele>17.6</ele>
        <time>2019-08-28T14:17:56Z</time>
      </trkpt>
      <trkpt lat="36.4196170" lon="-5.1581160">
        <ele>17.7</ele>
        <time>2019-08-28T14:17:57Z</time>
      </trkpt>
      <trkpt lat="36.4196640" lon="-5.1580860">
        <ele>18.1</ele>
        <time>2019-08-28T14:17:58Z</time>
      </trkpt>
      <trkpt lat="36.4197100" lon="-5.1580600">
        <ele>18.6</ele>
        <time>2019-08-28T14:17:59Z</time>
      </trkpt>
      <trkpt lat="36.4197570" lon="-5.1580440">
        <ele>19.2</ele>
        <time>2019-08-28T14:18:00Z</time>
      </trkpt>
      <trkpt lat="36.4198060" lon="-5.1580390">
        <ele>19.8</ele>
        <time>2019-08-28T14:18:01Z</time>
      </trkpt>
      <trkpt lat="36.4198540" lon="-5.1580480">
        <ele>20.2</ele>
        <time>2019-08-28T14:18:02Z</time>
      </trkpt>
      <trkpt lat="36.4199030" lon="-5.1580640">
        <ele>20.1</ele>
        <time>2019-08-28T14:18:03Z</time>
      </trkpt>
      <trkpt lat="36.4199520" lon="-5.1580770">
        <ele>20.1</ele>
        <time>2019-08-28T14:18:04Z</time>
      </trkpt>
      <trkpt lat="36.4200060" lon="-5.1580780">
        <ele>20.9</ele>
        <time>2019-08-28T14:18:05Z</time>
      </trkpt>
      <trkpt lat="36.4200580" lon="-5.1580690">
        <ele>21.4</ele>
        <time>2019-08-28T14:18:06Z</time>
      </trkpt>
      <trkpt lat="36.4201080" lon="-5.1580590">
        <ele>21.9</ele>
        <time>2019-08-28T14:18:07Z</time>
      </trkpt>
      <trkpt lat="36.4201550" lon="-5.1580460">
        <ele>22.3</ele>
        <time>2019-08-28T14:18:08Z</time>
      </trkpt>
      <trkpt lat="36.4202010" lon="-5.1580330">
        <ele>22.8</ele>
        <time>2019-08-28T14:18:09Z</time>
      </trkpt>
      <trkpt lat="36.4202450" lon="-5.1580160">
        <ele>23.2</ele>
        <time>2019-08-28T14:18:10Z</time>
      </trkpt>
      <trkpt lat="36.4202880" lon="-5.1579960">
        <ele>23.6</ele>
        <time>2019-08-28T14:18:11Z</time>
      </trkpt>
      <trkpt lat="36.4203290" lon="-5.1579740">
        <ele>24.0</ele>
        <time>2019-08-28T14:18:12Z</time>
      </trkpt>
      <trkpt lat="36.4203700" lon="-5.1579500">
        <ele>24.3</ele>
        <time>2019-08-28T14:18:13Z</time>
      </trkpt>
      <trkpt lat="36.4204110" lon="-5.1579240">
        <ele>24.6</ele>
        <time>2019-08-28T14:18:14Z</time>
      </trkpt>
      <trkpt lat="36.4204510" lon="-5.1578950">
        <ele>24.9</ele>
        <time>2019-08-28T14:18:15Z</time>
      </trkpt>
      <trkpt lat="36.4204900" lon="-5.1578620">
        <ele>25.2</ele>
        <time>2019-08-28T14:18:16Z</time>
      </trkpt>
      <trkpt lat="36.4205270" lon="-5.1578270">
        <ele>25.6</ele>
        <time>2019-08-28T14:18:17Z</time>
      </trkpt>
      <trkpt lat="36.4205630" lon="-5.1577880">
        <ele>26.0</ele>
        <time>2019-08-28T14:18:18Z</time>
      </trkpt>
      <trkpt lat="36.4205980" lon="-5.1577490">
        <ele>26.5</ele>
        <time>2019-08-28T14:18:19Z</time>
      </trkpt>
      <trkpt lat="36.4206320" lon="-5.1577100">
        <ele>27.1</ele>
        <time>2019-08-28T14:18:20Z</time>
      </trkpt>
      <trkpt lat="36.4206620" lon="-5.1576730">
        <ele>27.6</ele>
        <time>2019-08-28T14:18:21Z</time>
      </trkpt>
      <trkpt lat="36.4206920" lon="-5.1576350">
        <ele>28.1</ele>
        <time>2019-08-28T14:18:22Z</time>
      </trkpt>
      <trkpt lat="36.4207240" lon="-5.1575950">
        <ele>28.5</ele>
        <time>2019-08-28T14:18:23Z</time>
      </trkpt>
      <trkpt lat="36.4207580" lon="-5.1575540">
        <ele>28.8</ele>
        <time>2019-08-28T14:18:24Z</time>
      </trkpt>
      <trkpt lat="36.4207920" lon="-5.1575140">
        <ele>29.1</ele>
        <time>2019-08-28T14:18:25Z</time>
      </trkpt>
      <trkpt lat="36.4208260" lon="-5.1574730">
        <ele>29.2</ele>
        <time>2019-08-28T14:18:26Z</time>
      </trkpt>
      <trkpt lat="36.4208620" lon="-5.1574320">
        <ele>29.3</ele>
        <time>2019-08-28T14:18:27Z</time>
      </trkpt>
      <trkpt lat="36.4208980" lon="-5.1573920">
        <ele>29.4</ele>
        <time>2019-08-28T14:18:28Z</time>
      </trkpt>
      <trkpt lat="36.4209340" lon="-5.1573510">
        <ele>29.5</ele>
        <time>2019-08-28T14:18:29Z</time>
      </trkpt>
      <trkpt lat="36.4209700" lon="-5.1573120">
        <ele>29.5</ele>
        <time>2019-08-28T14:18:30Z</time>
      </trkpt>
      <trkpt lat="36.4210080" lon="-5.1572720">
        <ele>29.6</ele>
        <time>2019-08-28T14:18:31Z</time>
      </trkpt>
      <trkpt lat="36.4210480" lon="-5.1572330">
        <ele>29.6</ele>
        <time>2019-08-28T14:18:32Z</time>
      </trkpt>
      <trkpt lat="36.4210860" lon="-5.1571950">
        <ele>29.7</ele>
        <time>2019-08-28T14:18:33Z</time>
      </trkpt>
      <trkpt lat="36.4211230" lon="-5.1571570">
        <ele>29.9</ele>
        <time>2019-08-28T14:18:34Z</time>
      </trkpt>
      <trkpt lat="36.4211590" lon="-5.1571190">
        <ele>30.0</ele>
        <time>2019-08-28T14:18:35Z</time>
      </trkpt>
      <trkpt lat="36.4211980" lon="-5.1570830">
        <ele>30.2</ele>
        <time>2019-08-28T14:18:36Z</time>
      </trkpt>
      <trkpt lat="36.4212400" lon="-5.1570530">
        <ele>30.4</ele>
        <time>2019-08-28T14:18:37Z</time>
      </trkpt>
      <trkpt lat="36.4212860" lon="-5.1570270">
        <ele>30.6</ele>
        <time>2019-08-28T14:18:38Z</time>
      </trkpt>
      <trkpt lat="36.4213340" lon="-5.1570010">
        <ele>30.8</ele>
        <time>2019-08-28T14:18:39Z</time>
      </trkpt>
      <trkpt lat="36.4213830" lon="-5.1569730">
        <ele>31.0</ele>
        <time>2019-08-28T14:18:40Z</time>
      </trkpt>
      <trkpt lat="36.4214320" lon="-5.1569450">
        <ele>31.0</ele>
        <time>2019-08-28T14:18:41Z</time>
      </trkpt>
      <trkpt lat="36.4214800" lon="-5.1569200">
        <ele>30.9</ele>
        <time>2019-08-28T14:18:42Z</time>
      </trkpt>
      <trkpt lat="36.4215270" lon="-5.1568970">
        <ele>30.8</ele>
        <time>2019-08-28T14:18:43Z</time>
      </trkpt>
      <trkpt lat="36.4215770" lon="-5.1568790">
        <ele>30.8</ele>
        <time>2019-08-28T14:18:44Z</time>
      </trkpt>
      <trkpt lat="36.4216290" lon="-5.1568620">
        <ele>30.8</ele>
        <time>2019-08-28T14:18:45Z</time>
      </trkpt>
      <trkpt lat="36.4216830" lon="-5.1568470">
        <ele>30.7</ele>
        <time>2019-08-28T14:18:46Z</time>
      </trkpt>
      <trkpt lat="36.4217370" lon="-5.1568350">
        <ele>30.7</ele>
        <time>2019-08-28T14:18:47Z</time>
      </trkpt>
      <trkpt lat="36.4217920" lon="-5.1568250">
        <ele>30.6</ele>
        <time>2019-08-28T14:18:48Z</time>
      </trkpt>
      <trkpt lat="36.4218470" lon="-5.1568170">
        <ele>30.6</ele>
        <time>2019-08-28T14:18:49Z</time>
      </trkpt>
      <trkpt lat="36.4219050" lon="-5.1568120">
        <ele>30.5</ele>
        <time>2019-08-28T14:18:50Z</time>
      </trkpt>
      <trkpt lat="36.4219620" lon="-5.1568090">
        <ele>30.4</ele>
        <time>2019-08-28T14:18:51Z</time>
      </trkpt>
      <trkpt lat="36.4220190" lon="-5.1568090">
        <ele>30.4</ele>
        <time>2019-08-28T14:18:52Z</time>
      </trkpt>
      <trkpt lat="36.4220770" lon="-5.1568090">
        <ele>30.2</ele>
        <time>2019-08-28T14:18:53Z</time>
      </trkpt>
      <trkpt lat="36.4221350" lon="-5.1568090">
        <ele>30.1</ele>
        <time>2019-08-28T14:18:54Z</time>
      </trkpt>
      <trkpt lat="36.4221920" lon="-5.1568090">
        <ele>30.0</ele>
        <time>2019-08-28T14:18:55Z</time>
      </trkpt>
      <trkpt lat="36.4222480" lon="-5.1568090">
        <ele>29.9</ele>
        <time>2019-08-28T14:18:56Z</time>
      </trkpt>
      <trkpt lat="36.4223040" lon="-5.1568100">
        <ele>29.8</ele>
        <time>2019-08-28T14:18:57Z</time>
      </trkpt>
      <trkpt lat="36.4223580" lon="-5.1568100">
        <ele>29.7</ele>
        <time>2019-08-28T14:18:58Z</time>
      </trkpt>
      <trkpt lat="36.4224130" lon="-5.1568120">
        <ele>29.7</ele>
        <time>2019-08-28T14:18:59Z</time>
      </trkpt>
      <trkpt lat="36.4224680" lon="-5.1568160">
        <ele>29.6</ele>
        <time>2019-08-28T14:19:00Z</time>
      </trkpt>
      <trkpt lat="36.4225240" lon="-5.1568200">
        <ele>29.6</ele>
        <time>2019-08-28T14:19:01Z</time>
      </trkpt>
      <trkpt lat="36.4225790" lon="-5.1568230">
        <ele>29.6</ele>
        <time>2019-08-28T14:19:02Z</time>
      </trkpt>
      <trkpt lat="36.4226350" lon="-5.1568230">
        <ele>29.6</ele>
        <time>2019-08-28T14:19:03Z</time>
      </trkpt>
      <trkpt lat="36.4226890" lon="-5.1568220">
        <ele>29.7</ele>
        <time>2019-08-28T14:19:04Z</time>
      </trkpt>
      <trkpt lat="36.4227410" lon="-5.1568190">
        <ele>29.7</ele>
        <time>2019-08-28T14:19:05Z</time>
      </trkpt>
      <trkpt lat="36.4227920" lon="-5.1568160">
        <ele>29.8</ele>
        <time>2019-08-28T14:19:06Z</time>
      </trkpt>
      <trkpt lat="36.4228420" lon="-5.1568140">
        <ele>29.8</ele>
        <time>2019-08-28T14:19:07Z</time>
      </trkpt>
      <trkpt lat="36.4228900" lon="-5.1568160">
        <ele>29.9</ele>
        <time>2019-08-28T14:19:08Z</time>
      </trkpt>
      <trkpt lat="36.4229360" lon="-5.1568200">
        <ele>29.9</ele>
        <time>2019-08-28T14:19:09Z</time>
      </trkpt>
      <trkpt lat="36.4229790" lon="-5.1568230">
        <ele>30.0</ele>
        <time>2019-08-28T14:19:10Z</time>
      </trkpt>
      <trkpt lat="36.4230150" lon="-5.1568210">
        <ele>30.0</ele>
        <time>2019-08-28T14:19:11Z</time>
      </trkpt>
      <trkpt lat="36.4230390" lon="-5.1568090">
        <ele>30.0</ele>
        <time>2019-08-28T14:19:12Z</time>
      </trkpt>
      <trkpt lat="36.4230510" lon="-5.1567870">
        <ele>30.0</ele>
        <time>2019-08-28T14:19:13Z</time>
      </trkpt>
      <trkpt lat="36.4230540" lon="-5.1567610">
        <ele>30.0</ele>
        <time>2019-08-28T14:19:14Z</time>
      </trkpt>
      <trkpt lat="36.4230450" lon="-5.1567370">
        <ele>30.0</ele>
        <time>2019-08-28T14:19:15Z</time>
      </trkpt>
      <trkpt lat="36.4230280" lon="-5.1567170">
        <ele>30.1</ele>
        <time>2019-08-28T14:19:16Z</time>
      </trkpt>
      <trkpt lat="36.4230040" lon="-5.1567010">
        <ele>30.1</ele>
        <time>2019-08-28T14:19:17Z</time>
      </trkpt>
      <trkpt lat="36.4229830" lon="-5.1566880">
        <ele>30.1</ele>
        <time>2019-08-28T14:19:18Z</time>
      </trkpt>
      <trkpt lat="36.4229590" lon="-5.1566890">
        <ele>30.1</ele>
        <time>2019-08-28T14:19:19Z</time>
      </trkpt>
      <trkpt lat="36.4229330" lon="-5.1566980">
        <ele>30.1</ele>
        <time>2019-08-28T14:19:20Z</time>
      </trkpt>
      <trkpt lat="36.4229040" lon="-5.1567110">
        <ele>30.1</ele>
        <time>2019-08-28T14:19:21Z</time>
      </trkpt>
      <trkpt lat="36.4228780" lon="-5.1567160">
        <ele>30.1</ele>
        <time>2019-08-28T14:19:22Z</time>
      </trkpt>
      <trkpt lat="36.4228540" lon="-5.1567190">
        <ele>30.1</ele>
        <time>2019-08-28T14:19:23Z</time>
      </trkpt>
      <trkpt lat="36.4228320" lon="-5.1567220">
        <ele>30.1</ele>
        <time>2019-08-28T14:19:24Z</time>
      </trkpt>
      <trkpt lat="36.4228120" lon="-5.1567230">
        <ele>30.1</ele>
        <time>2019-08-28T14:19:25Z</time>
      </trkpt>
      <trkpt lat="36.4227980" lon="-5.1567230">
        <ele>30.1</ele>
        <time>2019-08-28T14:19:26Z</time>
      </trkpt>
      <trkpt lat="36.4227890" lon="-5.1567210">
        <ele>30.1</ele>
        <time>2019-08-28T14:19:27Z</time>
      </trkpt>
      <trkpt lat="36.4227850" lon="-5.1567190">
        <ele>30.1</ele>
        <time>2019-08-28T14:19:28Z</time>
      </trkpt>
      <trkpt lat="36.4227850" lon="-5.1567160">
        <ele>30.1</ele>
        <time>2019-08-28T14:19:29Z</time>
      </trkpt>
      <trkpt lat="36.4227850" lon="-5.1567140">
        <ele>30.1</ele>
        <time>2019-08-28T14:19:30Z</time>
      </trkpt>
      <trkpt lat="36.4227860" lon="-5.1567120">
        <ele>30.1</ele>
        <time>2019-08-28T14:19:31Z</time>
      </trkpt>
    </trkseg>
  </trk>
</gpx>
